<?xml version="1.0" encoding="UTF-8" standalone="no" ?>
<gpx xmlns="http://www.topografix.com/GPX/1/1" xmlns:xsi="http://www.w3.org/2001/XMLSchema-instance" xsi:schemaLocation="http://www.topografix.com/GPX/1/1 http://www.topografix.com/GPX/1/1/gpx.xsd" version="1.1" creator="VisuGPX - https://www.visugpx.com">
  <metadata>
    <name>Boucle Espezel, col de Choulia col de Pradel</name>
    <desc><![CDATA[Magnifique boucle avec conditions automnales parfaites et personne sur les routes. 
Descente du col de Pradel plein Nord très froide quand-même]]></desc>
  </metadata>
  <trk>
    <name><![CDATA[Col de Choulia et col de Pradel en boucle]]></name>
    <trkseg>
      <trkpt lat="42.82574" lon="2.01263">
        <ele>898</ele>
        <time>2024-10-11T08:26:33Z</time>
      </trkpt>
      <trkpt lat="42.82574" lon="2.01263">
        <ele>898</ele>
        <time>2024-10-11T08:26:34Z</time>
      </trkpt>
      <trkpt lat="42.82574" lon="2.01263">
        <ele>898</ele>
        <time>2024-10-11T08:26:35Z</time>
      </trkpt>
      <trkpt lat="42.82575" lon="2.01265">
        <ele>898</ele>
        <time>2024-10-11T08:26:36Z</time>
      </trkpt>
      <trkpt lat="42.82577" lon="2.01268">
        <ele>898</ele>
        <time>2024-10-11T08:26:37Z</time>
      </trkpt>
      <trkpt lat="42.8258" lon="2.0127">
        <ele>897.6</ele>
        <time>2024-10-11T08:26:38Z</time>
      </trkpt>
      <trkpt lat="42.82582" lon="2.01272">
        <ele>897.4</ele>
        <time>2024-10-11T08:26:39Z</time>
      </trkpt>
      <trkpt lat="42.82585" lon="2.01274">
        <ele>897.4</ele>
        <time>2024-10-11T08:26:40Z</time>
      </trkpt>
      <trkpt lat="42.82587" lon="2.01276">
        <ele>897.4</ele>
        <time>2024-10-11T08:26:41Z</time>
      </trkpt>
      <trkpt lat="42.8259" lon="2.01278">
        <ele>897.4</ele>
        <time>2024-10-11T08:26:42Z</time>
      </trkpt>
      <trkpt lat="42.82593" lon="2.0128">
        <ele>897.4</ele>
        <time>2024-10-11T08:26:43Z</time>
      </trkpt>
      <trkpt lat="42.82596" lon="2.01281">
        <ele>897.4</ele>
        <time>2024-10-11T08:26:44Z</time>
      </trkpt>
      <trkpt lat="42.82598" lon="2.01283">
        <ele>897.4</ele>
        <time>2024-10-11T08:26:45Z</time>
      </trkpt>
      <trkpt lat="42.826" lon="2.01283">
        <ele>897.4</ele>
        <time>2024-10-11T08:26:46Z</time>
      </trkpt>
      <trkpt lat="42.82602" lon="2.01283">
        <ele>897.4</ele>
        <time>2024-10-11T08:26:47Z</time>
      </trkpt>
      <trkpt lat="42.82604" lon="2.01281">
        <ele>897.8</ele>
        <time>2024-10-11T08:26:48Z</time>
      </trkpt>
      <trkpt lat="42.82605" lon="2.01278">
        <ele>897.8</ele>
        <time>2024-10-11T08:26:49Z</time>
      </trkpt>
      <trkpt lat="42.82607" lon="2.01275">
        <ele>897.8</ele>
        <time>2024-10-11T08:26:50Z</time>
      </trkpt>
      <trkpt lat="42.82608" lon="2.01271">
        <ele>897.8</ele>
        <time>2024-10-11T08:26:51Z</time>
      </trkpt>
      <trkpt lat="42.82608" lon="2.01268">
        <ele>897.8</ele>
        <time>2024-10-11T08:26:52Z</time>
      </trkpt>
      <trkpt lat="42.82609" lon="2.01264">
        <ele>897.8</ele>
        <time>2024-10-11T08:26:53Z</time>
      </trkpt>
      <trkpt lat="42.8261" lon="2.01261">
        <ele>897.8</ele>
        <time>2024-10-11T08:26:54Z</time>
      </trkpt>
      <trkpt lat="42.82611" lon="2.01256">
        <ele>897.8</ele>
        <time>2024-10-11T08:26:55Z</time>
      </trkpt>
      <trkpt lat="42.82612" lon="2.01252">
        <ele>898</ele>
        <time>2024-10-11T08:26:56Z</time>
      </trkpt>
      <trkpt lat="42.82613" lon="2.01248">
        <ele>898</ele>
        <time>2024-10-11T08:26:57Z</time>
      </trkpt>
      <trkpt lat="42.82614" lon="2.01243">
        <ele>898</ele>
        <time>2024-10-11T08:26:58Z</time>
      </trkpt>
      <trkpt lat="42.82615" lon="2.01239">
        <ele>898</ele>
        <time>2024-10-11T08:26:59Z</time>
      </trkpt>
      <trkpt lat="42.82617" lon="2.01235">
        <ele>898.2</ele>
        <time>2024-10-11T08:27:00Z</time>
      </trkpt>
      <trkpt lat="42.82618" lon="2.0123">
        <ele>898.4</ele>
        <time>2024-10-11T08:27:01Z</time>
      </trkpt>
      <trkpt lat="42.82619" lon="2.01226">
        <ele>898.4</ele>
        <time>2024-10-11T08:27:02Z</time>
      </trkpt>
      <trkpt lat="42.8262" lon="2.01221">
        <ele>898.4</ele>
        <time>2024-10-11T08:27:03Z</time>
      </trkpt>
      <trkpt lat="42.82621" lon="2.01216">
        <ele>898.4</ele>
        <time>2024-10-11T08:27:04Z</time>
      </trkpt>
      <trkpt lat="42.82622" lon="2.01211">
        <ele>898.6</ele>
        <time>2024-10-11T08:27:05Z</time>
      </trkpt>
      <trkpt lat="42.82623" lon="2.01206">
        <ele>898.6</ele>
        <time>2024-10-11T08:27:06Z</time>
      </trkpt>
      <trkpt lat="42.82624" lon="2.01202">
        <ele>898.6</ele>
        <time>2024-10-11T08:27:07Z</time>
      </trkpt>
      <trkpt lat="42.82624" lon="2.01197">
        <ele>899</ele>
        <time>2024-10-11T08:27:08Z</time>
      </trkpt>
      <trkpt lat="42.82625" lon="2.01192">
        <ele>899</ele>
        <time>2024-10-11T08:27:09Z</time>
      </trkpt>
      <trkpt lat="42.82627" lon="2.01184">
        <ele>899</ele>
        <time>2024-10-11T08:27:10Z</time>
      </trkpt>
      <trkpt lat="42.82629" lon="2.01177">
        <ele>899</ele>
        <time>2024-10-11T08:27:11Z</time>
      </trkpt>
      <trkpt lat="42.8263" lon="2.01171">
        <ele>899</ele>
        <time>2024-10-11T08:27:12Z</time>
      </trkpt>
      <trkpt lat="42.82631" lon="2.01165">
        <ele>899.4</ele>
        <time>2024-10-11T08:27:13Z</time>
      </trkpt>
      <trkpt lat="42.82632" lon="2.01159">
        <ele>899.4</ele>
        <time>2024-10-11T08:27:14Z</time>
      </trkpt>
      <trkpt lat="42.82634" lon="2.01153">
        <ele>899.2</ele>
        <time>2024-10-11T08:27:15Z</time>
      </trkpt>
      <trkpt lat="42.82635" lon="2.01147">
        <ele>899.2</ele>
        <time>2024-10-11T08:27:16Z</time>
      </trkpt>
      <trkpt lat="42.82635" lon="2.01147">
        <ele>899.2</ele>
        <time>2024-10-11T08:27:17Z</time>
      </trkpt>
      <trkpt lat="42.82635" lon="2.01147">
        <ele>899.4</ele>
        <time>2024-10-11T08:27:18Z</time>
      </trkpt>
      <trkpt lat="42.82635" lon="2.01147">
        <ele>899.4</ele>
        <time>2024-10-11T08:27:19Z</time>
      </trkpt>
      <trkpt lat="42.8264" lon="2.01143">
        <ele>899.4</ele>
        <time>2024-10-11T08:27:20Z</time>
      </trkpt>
      <trkpt lat="42.82641" lon="2.01138">
        <ele>899.4</ele>
        <time>2024-10-11T08:27:21Z</time>
      </trkpt>
      <trkpt lat="42.82643" lon="2.01128">
        <ele>899.4</ele>
        <time>2024-10-11T08:27:22Z</time>
      </trkpt>
      <trkpt lat="42.82643" lon="2.01122">
        <ele>899.8</ele>
        <time>2024-10-11T08:27:23Z</time>
      </trkpt>
      <trkpt lat="42.82643" lon="2.01122">
        <ele>899.8</ele>
        <time>2024-10-11T08:27:24Z</time>
      </trkpt>
      <trkpt lat="42.82643" lon="2.01109">
        <ele>899.2</ele>
        <time>2024-10-11T08:28:03Z</time>
      </trkpt>
      <trkpt lat="42.82644" lon="2.01106">
        <ele>899.2</ele>
        <time>2024-10-11T08:28:04Z</time>
      </trkpt>
      <trkpt lat="42.82645" lon="2.01103">
        <ele>899.4</ele>
        <time>2024-10-11T08:28:05Z</time>
      </trkpt>
      <trkpt lat="42.82646" lon="2.01099">
        <ele>899.6</ele>
        <time>2024-10-11T08:28:06Z</time>
      </trkpt>
      <trkpt lat="42.82647" lon="2.01094">
        <ele>899.6</ele>
        <time>2024-10-11T08:28:07Z</time>
      </trkpt>
      <trkpt lat="42.82648" lon="2.0109">
        <ele>899.6</ele>
        <time>2024-10-11T08:28:08Z</time>
      </trkpt>
      <trkpt lat="42.82649" lon="2.01086">
        <ele>899.8</ele>
        <time>2024-10-11T08:28:09Z</time>
      </trkpt>
      <trkpt lat="42.8265" lon="2.01081">
        <ele>899.8</ele>
        <time>2024-10-11T08:28:10Z</time>
      </trkpt>
      <trkpt lat="42.82651" lon="2.01076">
        <ele>899.8</ele>
        <time>2024-10-11T08:28:11Z</time>
      </trkpt>
      <trkpt lat="42.82652" lon="2.01071">
        <ele>899.8</ele>
        <time>2024-10-11T08:28:12Z</time>
      </trkpt>
      <trkpt lat="42.82653" lon="2.01067">
        <ele>899.8</ele>
        <time>2024-10-11T08:28:13Z</time>
      </trkpt>
      <trkpt lat="42.82654" lon="2.01062">
        <ele>899.8</ele>
        <time>2024-10-11T08:28:14Z</time>
      </trkpt>
      <trkpt lat="42.82655" lon="2.01057">
        <ele>900.4</ele>
        <time>2024-10-11T08:28:15Z</time>
      </trkpt>
      <trkpt lat="42.82656" lon="2.01052">
        <ele>900.4</ele>
        <time>2024-10-11T08:28:16Z</time>
      </trkpt>
      <trkpt lat="42.82657" lon="2.01047">
        <ele>900.4</ele>
        <time>2024-10-11T08:28:17Z</time>
      </trkpt>
      <trkpt lat="42.82659" lon="2.01042">
        <ele>900.6</ele>
        <time>2024-10-11T08:28:18Z</time>
      </trkpt>
      <trkpt lat="42.8266" lon="2.01037">
        <ele>900.6</ele>
        <time>2024-10-11T08:28:19Z</time>
      </trkpt>
      <trkpt lat="42.82661" lon="2.01031">
        <ele>900.6</ele>
        <time>2024-10-11T08:28:20Z</time>
      </trkpt>
      <trkpt lat="42.82662" lon="2.01024">
        <ele>900.6</ele>
        <time>2024-10-11T08:28:21Z</time>
      </trkpt>
      <trkpt lat="42.82663" lon="2.01021">
        <ele>900.8</ele>
        <time>2024-10-11T08:28:22Z</time>
      </trkpt>
      <trkpt lat="42.82664" lon="2.01016">
        <ele>900.8</ele>
        <time>2024-10-11T08:28:23Z</time>
      </trkpt>
      <trkpt lat="42.82665" lon="2.01012">
        <ele>900.8</ele>
        <time>2024-10-11T08:28:24Z</time>
      </trkpt>
      <trkpt lat="42.82666" lon="2.01007">
        <ele>900.8</ele>
        <time>2024-10-11T08:28:25Z</time>
      </trkpt>
      <trkpt lat="42.82667" lon="2.01">
        <ele>900.8</ele>
        <time>2024-10-11T08:28:26Z</time>
      </trkpt>
      <trkpt lat="42.82667" lon="2.00995">
        <ele>900.8</ele>
        <time>2024-10-11T08:28:27Z</time>
      </trkpt>
      <trkpt lat="42.82668" lon="2.0099">
        <ele>901</ele>
        <time>2024-10-11T08:28:28Z</time>
      </trkpt>
      <trkpt lat="42.8267" lon="2.00985">
        <ele>901</ele>
        <time>2024-10-11T08:28:29Z</time>
      </trkpt>
      <trkpt lat="42.82671" lon="2.0098">
        <ele>901</ele>
        <time>2024-10-11T08:28:30Z</time>
      </trkpt>
      <trkpt lat="42.82672" lon="2.00975">
        <ele>901</ele>
        <time>2024-10-11T08:28:31Z</time>
      </trkpt>
      <trkpt lat="42.82673" lon="2.00969">
        <ele>901.4</ele>
        <time>2024-10-11T08:28:32Z</time>
      </trkpt>
      <trkpt lat="42.82675" lon="2.00964">
        <ele>901.2</ele>
        <time>2024-10-11T08:28:33Z</time>
      </trkpt>
      <trkpt lat="42.82676" lon="2.00959">
        <ele>901.2</ele>
        <time>2024-10-11T08:28:34Z</time>
      </trkpt>
      <trkpt lat="42.82677" lon="2.00954">
        <ele>901.2</ele>
        <time>2024-10-11T08:28:35Z</time>
      </trkpt>
      <trkpt lat="42.82678" lon="2.00949">
        <ele>901.2</ele>
        <time>2024-10-11T08:28:36Z</time>
      </trkpt>
      <trkpt lat="42.82679" lon="2.00943">
        <ele>901.8</ele>
        <time>2024-10-11T08:28:37Z</time>
      </trkpt>
      <trkpt lat="42.8268" lon="2.00938">
        <ele>901.4</ele>
        <time>2024-10-11T08:28:38Z</time>
      </trkpt>
      <trkpt lat="42.82682" lon="2.00933">
        <ele>901.4</ele>
        <time>2024-10-11T08:28:39Z</time>
      </trkpt>
      <trkpt lat="42.82683" lon="2.00928">
        <ele>901.4</ele>
        <time>2024-10-11T08:28:40Z</time>
      </trkpt>
      <trkpt lat="42.82683" lon="2.00923">
        <ele>901.6</ele>
        <time>2024-10-11T08:28:41Z</time>
      </trkpt>
      <trkpt lat="42.82684" lon="2.00918">
        <ele>902</ele>
        <time>2024-10-11T08:28:42Z</time>
      </trkpt>
      <trkpt lat="42.82686" lon="2.00913">
        <ele>902</ele>
        <time>2024-10-11T08:28:43Z</time>
      </trkpt>
      <trkpt lat="42.82687" lon="2.00908">
        <ele>902</ele>
        <time>2024-10-11T08:28:44Z</time>
      </trkpt>
      <trkpt lat="42.82688" lon="2.00902">
        <ele>902.2</ele>
        <time>2024-10-11T08:28:45Z</time>
      </trkpt>
      <trkpt lat="42.8269" lon="2.00897">
        <ele>902.2</ele>
        <time>2024-10-11T08:28:46Z</time>
      </trkpt>
      <trkpt lat="42.82691" lon="2.00892">
        <ele>902.2</ele>
        <time>2024-10-11T08:28:47Z</time>
      </trkpt>
      <trkpt lat="42.82692" lon="2.00886">
        <ele>902.2</ele>
        <time>2024-10-11T08:28:48Z</time>
      </trkpt>
      <trkpt lat="42.82693" lon="2.00881">
        <ele>902.2</ele>
        <time>2024-10-11T08:28:49Z</time>
      </trkpt>
      <trkpt lat="42.82694" lon="2.00875">
        <ele>902.2</ele>
        <time>2024-10-11T08:28:50Z</time>
      </trkpt>
      <trkpt lat="42.82695" lon="2.0087">
        <ele>902.4</ele>
        <time>2024-10-11T08:28:51Z</time>
      </trkpt>
      <trkpt lat="42.82696" lon="2.00865">
        <ele>902.4</ele>
        <time>2024-10-11T08:28:52Z</time>
      </trkpt>
      <trkpt lat="42.82697" lon="2.0086">
        <ele>902.4</ele>
        <time>2024-10-11T08:28:53Z</time>
      </trkpt>
      <trkpt lat="42.82698" lon="2.00854">
        <ele>902.4</ele>
        <time>2024-10-11T08:28:54Z</time>
      </trkpt>
      <trkpt lat="42.82699" lon="2.00849">
        <ele>902.2</ele>
        <time>2024-10-11T08:28:55Z</time>
      </trkpt>
      <trkpt lat="42.82699" lon="2.00844">
        <ele>902.2</ele>
        <time>2024-10-11T08:28:56Z</time>
      </trkpt>
      <trkpt lat="42.827" lon="2.00838">
        <ele>902.2</ele>
        <time>2024-10-11T08:28:57Z</time>
      </trkpt>
      <trkpt lat="42.82701" lon="2.00832">
        <ele>902.2</ele>
        <time>2024-10-11T08:28:58Z</time>
      </trkpt>
      <trkpt lat="42.82702" lon="2.00827">
        <ele>903</ele>
        <time>2024-10-11T08:28:59Z</time>
      </trkpt>
      <trkpt lat="42.82703" lon="2.00821">
        <ele>902.8</ele>
        <time>2024-10-11T08:29:00Z</time>
      </trkpt>
      <trkpt lat="42.82703" lon="2.00815">
        <ele>902.8</ele>
        <time>2024-10-11T08:29:01Z</time>
      </trkpt>
      <trkpt lat="42.82704" lon="2.0081">
        <ele>902.8</ele>
        <time>2024-10-11T08:29:02Z</time>
      </trkpt>
      <trkpt lat="42.82705" lon="2.00805">
        <ele>902.8</ele>
        <time>2024-10-11T08:29:03Z</time>
      </trkpt>
      <trkpt lat="42.82705" lon="2.00799">
        <ele>903.2</ele>
        <time>2024-10-11T08:29:04Z</time>
      </trkpt>
      <trkpt lat="42.82706" lon="2.00793">
        <ele>903.2</ele>
        <time>2024-10-11T08:29:05Z</time>
      </trkpt>
      <trkpt lat="42.82707" lon="2.00788">
        <ele>903.2</ele>
        <time>2024-10-11T08:29:06Z</time>
      </trkpt>
      <trkpt lat="42.82707" lon="2.00782">
        <ele>902.8</ele>
        <time>2024-10-11T08:29:07Z</time>
      </trkpt>
      <trkpt lat="42.82708" lon="2.00777">
        <ele>903</ele>
        <time>2024-10-11T08:29:08Z</time>
      </trkpt>
      <trkpt lat="42.82708" lon="2.00771">
        <ele>903</ele>
        <time>2024-10-11T08:29:09Z</time>
      </trkpt>
      <trkpt lat="42.82709" lon="2.00766">
        <ele>903</ele>
        <time>2024-10-11T08:29:10Z</time>
      </trkpt>
      <trkpt lat="42.8271" lon="2.0076">
        <ele>903</ele>
        <time>2024-10-11T08:29:11Z</time>
      </trkpt>
      <trkpt lat="42.8271" lon="2.00754">
        <ele>903</ele>
        <time>2024-10-11T08:29:12Z</time>
      </trkpt>
      <trkpt lat="42.8271" lon="2.00749">
        <ele>903</ele>
        <time>2024-10-11T08:29:13Z</time>
      </trkpt>
      <trkpt lat="42.82711" lon="2.00743">
        <ele>904</ele>
        <time>2024-10-11T08:29:14Z</time>
      </trkpt>
      <trkpt lat="42.82711" lon="2.00738">
        <ele>904</ele>
        <time>2024-10-11T08:29:15Z</time>
      </trkpt>
      <trkpt lat="42.82712" lon="2.00732">
        <ele>904</ele>
        <time>2024-10-11T08:29:16Z</time>
      </trkpt>
      <trkpt lat="42.82712" lon="2.00727">
        <ele>903.8</ele>
        <time>2024-10-11T08:29:17Z</time>
      </trkpt>
      <trkpt lat="42.82713" lon="2.00721">
        <ele>903.8</ele>
        <time>2024-10-11T08:29:18Z</time>
      </trkpt>
      <trkpt lat="42.82713" lon="2.00716">
        <ele>903.8</ele>
        <time>2024-10-11T08:29:19Z</time>
      </trkpt>
      <trkpt lat="42.82714" lon="2.0071">
        <ele>903.8</ele>
        <time>2024-10-11T08:29:20Z</time>
      </trkpt>
      <trkpt lat="42.82715" lon="2.00704">
        <ele>903.8</ele>
        <time>2024-10-11T08:29:21Z</time>
      </trkpt>
      <trkpt lat="42.82715" lon="2.00699">
        <ele>903.8</ele>
        <time>2024-10-11T08:29:22Z</time>
      </trkpt>
      <trkpt lat="42.82716" lon="2.00693">
        <ele>903.6</ele>
        <time>2024-10-11T08:29:23Z</time>
      </trkpt>
      <trkpt lat="42.82716" lon="2.00688">
        <ele>903.6</ele>
        <time>2024-10-11T08:29:24Z</time>
      </trkpt>
      <trkpt lat="42.82717" lon="2.00682">
        <ele>903.6</ele>
        <time>2024-10-11T08:29:25Z</time>
      </trkpt>
      <trkpt lat="42.82717" lon="2.00676">
        <ele>903.6</ele>
        <time>2024-10-11T08:29:26Z</time>
      </trkpt>
      <trkpt lat="42.82717" lon="2.00671">
        <ele>904</ele>
        <time>2024-10-11T08:29:27Z</time>
      </trkpt>
      <trkpt lat="42.82718" lon="2.00665">
        <ele>904</ele>
        <time>2024-10-11T08:29:28Z</time>
      </trkpt>
      <trkpt lat="42.82718" lon="2.0066">
        <ele>904</ele>
        <time>2024-10-11T08:29:29Z</time>
      </trkpt>
      <trkpt lat="42.82719" lon="2.00655">
        <ele>904.2</ele>
        <time>2024-10-11T08:29:30Z</time>
      </trkpt>
      <trkpt lat="42.8272" lon="2.00649">
        <ele>904.2</ele>
        <time>2024-10-11T08:29:31Z</time>
      </trkpt>
      <trkpt lat="42.8272" lon="2.00644">
        <ele>904.2</ele>
        <time>2024-10-11T08:29:32Z</time>
      </trkpt>
      <trkpt lat="42.82721" lon="2.00638">
        <ele>904.2</ele>
        <time>2024-10-11T08:29:33Z</time>
      </trkpt>
      <trkpt lat="42.82721" lon="2.00633">
        <ele>904.2</ele>
        <time>2024-10-11T08:29:34Z</time>
      </trkpt>
      <trkpt lat="42.82722" lon="2.00627">
        <ele>905.2</ele>
        <time>2024-10-11T08:29:35Z</time>
      </trkpt>
      <trkpt lat="42.82723" lon="2.00619">
        <ele>904.8</ele>
        <time>2024-10-11T08:29:36Z</time>
      </trkpt>
      <trkpt lat="42.82723" lon="2.00616">
        <ele>904.8</ele>
        <time>2024-10-11T08:29:37Z</time>
      </trkpt>
      <trkpt lat="42.82723" lon="2.00611">
        <ele>904.8</ele>
        <time>2024-10-11T08:29:38Z</time>
      </trkpt>
      <trkpt lat="42.82724" lon="2.00605">
        <ele>905</ele>
        <time>2024-10-11T08:29:39Z</time>
      </trkpt>
      <trkpt lat="42.82724" lon="2.006">
        <ele>905</ele>
        <time>2024-10-11T08:29:40Z</time>
      </trkpt>
      <trkpt lat="42.82725" lon="2.00595">
        <ele>905</ele>
        <time>2024-10-11T08:29:41Z</time>
      </trkpt>
      <trkpt lat="42.82725" lon="2.00589">
        <ele>905</ele>
        <time>2024-10-11T08:29:42Z</time>
      </trkpt>
      <trkpt lat="42.82726" lon="2.00584">
        <ele>905.4</ele>
        <time>2024-10-11T08:29:43Z</time>
      </trkpt>
      <trkpt lat="42.82726" lon="2.00578">
        <ele>905.6</ele>
        <time>2024-10-11T08:29:44Z</time>
      </trkpt>
      <trkpt lat="42.82727" lon="2.00573">
        <ele>905.6</ele>
        <time>2024-10-11T08:29:45Z</time>
      </trkpt>
      <trkpt lat="42.82727" lon="2.00568">
        <ele>905.6</ele>
        <time>2024-10-11T08:29:46Z</time>
      </trkpt>
      <trkpt lat="42.82728" lon="2.00562">
        <ele>905.6</ele>
        <time>2024-10-11T08:29:47Z</time>
      </trkpt>
      <trkpt lat="42.82728" lon="2.00557">
        <ele>905.6</ele>
        <time>2024-10-11T08:29:48Z</time>
      </trkpt>
      <trkpt lat="42.82729" lon="2.00551">
        <ele>906.2</ele>
        <time>2024-10-11T08:29:49Z</time>
      </trkpt>
      <trkpt lat="42.82729" lon="2.00546">
        <ele>906.2</ele>
        <time>2024-10-11T08:29:50Z</time>
      </trkpt>
      <trkpt lat="42.8273" lon="2.0054">
        <ele>906.2</ele>
        <time>2024-10-11T08:29:51Z</time>
      </trkpt>
      <trkpt lat="42.8273" lon="2.00535">
        <ele>906.2</ele>
        <time>2024-10-11T08:29:52Z</time>
      </trkpt>
      <trkpt lat="42.82731" lon="2.00529">
        <ele>906.2</ele>
        <time>2024-10-11T08:29:53Z</time>
      </trkpt>
      <trkpt lat="42.82731" lon="2.00524">
        <ele>906.2</ele>
        <time>2024-10-11T08:29:54Z</time>
      </trkpt>
      <trkpt lat="42.82732" lon="2.00519">
        <ele>906.2</ele>
        <time>2024-10-11T08:29:55Z</time>
      </trkpt>
      <trkpt lat="42.82732" lon="2.00514">
        <ele>906.2</ele>
        <time>2024-10-11T08:29:56Z</time>
      </trkpt>
      <trkpt lat="42.82733" lon="2.00508">
        <ele>906.2</ele>
        <time>2024-10-11T08:29:57Z</time>
      </trkpt>
      <trkpt lat="42.82733" lon="2.00503">
        <ele>906.6</ele>
        <time>2024-10-11T08:29:58Z</time>
      </trkpt>
      <trkpt lat="42.82734" lon="2.00497">
        <ele>906.6</ele>
        <time>2024-10-11T08:29:59Z</time>
      </trkpt>
      <trkpt lat="42.82734" lon="2.00492">
        <ele>906.6</ele>
        <time>2024-10-11T08:30:00Z</time>
      </trkpt>
      <trkpt lat="42.82735" lon="2.00486">
        <ele>906.6</ele>
        <time>2024-10-11T08:30:01Z</time>
      </trkpt>
      <trkpt lat="42.82735" lon="2.00481">
        <ele>907.2</ele>
        <time>2024-10-11T08:30:02Z</time>
      </trkpt>
      <trkpt lat="42.82736" lon="2.00475">
        <ele>907</ele>
        <time>2024-10-11T08:30:03Z</time>
      </trkpt>
      <trkpt lat="42.82736" lon="2.0047">
        <ele>907</ele>
        <time>2024-10-11T08:30:04Z</time>
      </trkpt>
      <trkpt lat="42.82736" lon="2.00464">
        <ele>907</ele>
        <time>2024-10-11T08:30:05Z</time>
      </trkpt>
      <trkpt lat="42.82737" lon="2.00459">
        <ele>907.4</ele>
        <time>2024-10-11T08:30:06Z</time>
      </trkpt>
      <trkpt lat="42.82737" lon="2.00453">
        <ele>907.4</ele>
        <time>2024-10-11T08:30:07Z</time>
      </trkpt>
      <trkpt lat="42.82738" lon="2.00448">
        <ele>907.6</ele>
        <time>2024-10-11T08:30:08Z</time>
      </trkpt>
      <trkpt lat="42.82739" lon="2.00442">
        <ele>907.6</ele>
        <time>2024-10-11T08:30:09Z</time>
      </trkpt>
      <trkpt lat="42.82739" lon="2.00437">
        <ele>907.6</ele>
        <time>2024-10-11T08:30:10Z</time>
      </trkpt>
      <trkpt lat="42.8274" lon="2.00431">
        <ele>907.6</ele>
        <time>2024-10-11T08:30:11Z</time>
      </trkpt>
      <trkpt lat="42.8274" lon="2.00426">
        <ele>908</ele>
        <time>2024-10-11T08:30:12Z</time>
      </trkpt>
      <trkpt lat="42.82741" lon="2.0042">
        <ele>908</ele>
        <time>2024-10-11T08:30:13Z</time>
      </trkpt>
      <trkpt lat="42.82741" lon="2.00415">
        <ele>908</ele>
        <time>2024-10-11T08:30:14Z</time>
      </trkpt>
      <trkpt lat="42.82741" lon="2.0041">
        <ele>908</ele>
        <time>2024-10-11T08:30:15Z</time>
      </trkpt>
      <trkpt lat="42.82742" lon="2.00404">
        <ele>908.4</ele>
        <time>2024-10-11T08:30:16Z</time>
      </trkpt>
      <trkpt lat="42.82742" lon="2.00399">
        <ele>908.4</ele>
        <time>2024-10-11T08:30:17Z</time>
      </trkpt>
      <trkpt lat="42.82743" lon="2.00393">
        <ele>908.4</ele>
        <time>2024-10-11T08:30:18Z</time>
      </trkpt>
      <trkpt lat="42.82744" lon="2.00387">
        <ele>908.4</ele>
        <time>2024-10-11T08:30:19Z</time>
      </trkpt>
      <trkpt lat="42.82744" lon="2.00382">
        <ele>908.4</ele>
        <time>2024-10-11T08:30:20Z</time>
      </trkpt>
      <trkpt lat="42.82744" lon="2.00376">
        <ele>908.8</ele>
        <time>2024-10-11T08:30:21Z</time>
      </trkpt>
      <trkpt lat="42.82745" lon="2.00371">
        <ele>908.8</ele>
        <time>2024-10-11T08:30:22Z</time>
      </trkpt>
      <trkpt lat="42.82745" lon="2.00365">
        <ele>908.8</ele>
        <time>2024-10-11T08:30:23Z</time>
      </trkpt>
      <trkpt lat="42.82746" lon="2.00359">
        <ele>909</ele>
        <time>2024-10-11T08:30:24Z</time>
      </trkpt>
      <trkpt lat="42.82746" lon="2.00354">
        <ele>909</ele>
        <time>2024-10-11T08:30:25Z</time>
      </trkpt>
      <trkpt lat="42.82747" lon="2.00348">
        <ele>909</ele>
        <time>2024-10-11T08:30:26Z</time>
      </trkpt>
      <trkpt lat="42.82747" lon="2.00343">
        <ele>909</ele>
        <time>2024-10-11T08:30:27Z</time>
      </trkpt>
      <trkpt lat="42.82748" lon="2.00337">
        <ele>909</ele>
        <time>2024-10-11T08:30:28Z</time>
      </trkpt>
      <trkpt lat="42.82748" lon="2.00332">
        <ele>909</ele>
        <time>2024-10-11T08:30:29Z</time>
      </trkpt>
      <trkpt lat="42.82749" lon="2.00326">
        <ele>909.4</ele>
        <time>2024-10-11T08:30:30Z</time>
      </trkpt>
      <trkpt lat="42.82749" lon="2.00321">
        <ele>909.4</ele>
        <time>2024-10-11T08:30:31Z</time>
      </trkpt>
      <trkpt lat="42.8275" lon="2.00315">
        <ele>909.4</ele>
        <time>2024-10-11T08:30:32Z</time>
      </trkpt>
      <trkpt lat="42.82751" lon="2.00309">
        <ele>909.4</ele>
        <time>2024-10-11T08:30:33Z</time>
      </trkpt>
      <trkpt lat="42.82751" lon="2.00304">
        <ele>909.4</ele>
        <time>2024-10-11T08:30:34Z</time>
      </trkpt>
      <trkpt lat="42.82751" lon="2.00298">
        <ele>909.4</ele>
        <time>2024-10-11T08:30:35Z</time>
      </trkpt>
      <trkpt lat="42.82752" lon="2.00292">
        <ele>909.4</ele>
        <time>2024-10-11T08:30:36Z</time>
      </trkpt>
      <trkpt lat="42.82752" lon="2.00287">
        <ele>910</ele>
        <time>2024-10-11T08:30:37Z</time>
      </trkpt>
      <trkpt lat="42.82753" lon="2.00281">
        <ele>910</ele>
        <time>2024-10-11T08:30:38Z</time>
      </trkpt>
      <trkpt lat="42.82753" lon="2.00276">
        <ele>910</ele>
        <time>2024-10-11T08:30:39Z</time>
      </trkpt>
      <trkpt lat="42.82754" lon="2.0027">
        <ele>910</ele>
        <time>2024-10-11T08:30:40Z</time>
      </trkpt>
      <trkpt lat="42.82754" lon="2.00265">
        <ele>910</ele>
        <time>2024-10-11T08:30:41Z</time>
      </trkpt>
      <trkpt lat="42.82755" lon="2.0026">
        <ele>910</ele>
        <time>2024-10-11T08:30:42Z</time>
      </trkpt>
      <trkpt lat="42.82755" lon="2.00254">
        <ele>910.2</ele>
        <time>2024-10-11T08:30:43Z</time>
      </trkpt>
      <trkpt lat="42.82756" lon="2.00249">
        <ele>910.4</ele>
        <time>2024-10-11T08:30:44Z</time>
      </trkpt>
      <trkpt lat="42.82756" lon="2.00243">
        <ele>910.4</ele>
        <time>2024-10-11T08:30:45Z</time>
      </trkpt>
      <trkpt lat="42.82757" lon="2.00235">
        <ele>910.4</ele>
        <time>2024-10-11T08:30:46Z</time>
      </trkpt>
      <trkpt lat="42.82757" lon="2.00232">
        <ele>910.8</ele>
        <time>2024-10-11T08:30:47Z</time>
      </trkpt>
      <trkpt lat="42.82758" lon="2.00226">
        <ele>910.8</ele>
        <time>2024-10-11T08:30:48Z</time>
      </trkpt>
      <trkpt lat="42.82758" lon="2.00221">
        <ele>910.8</ele>
        <time>2024-10-11T08:30:49Z</time>
      </trkpt>
      <trkpt lat="42.82759" lon="2.00215">
        <ele>910.8</ele>
        <time>2024-10-11T08:30:50Z</time>
      </trkpt>
      <trkpt lat="42.82759" lon="2.0021">
        <ele>910.8</ele>
        <time>2024-10-11T08:30:51Z</time>
      </trkpt>
      <trkpt lat="42.8276" lon="2.00204">
        <ele>911.2</ele>
        <time>2024-10-11T08:30:52Z</time>
      </trkpt>
      <trkpt lat="42.8276" lon="2.00199">
        <ele>911.2</ele>
        <time>2024-10-11T08:30:53Z</time>
      </trkpt>
      <trkpt lat="42.82761" lon="2.00194">
        <ele>911.2</ele>
        <time>2024-10-11T08:30:54Z</time>
      </trkpt>
      <trkpt lat="42.82761" lon="2.00188">
        <ele>911.2</ele>
        <time>2024-10-11T08:30:55Z</time>
      </trkpt>
      <trkpt lat="42.82761" lon="2.00183">
        <ele>912</ele>
        <time>2024-10-11T08:30:56Z</time>
      </trkpt>
      <trkpt lat="42.82762" lon="2.00177">
        <ele>911.8</ele>
        <time>2024-10-11T08:30:57Z</time>
      </trkpt>
      <trkpt lat="42.82763" lon="2.00172">
        <ele>911.8</ele>
        <time>2024-10-11T08:30:58Z</time>
      </trkpt>
      <trkpt lat="42.82763" lon="2.00167">
        <ele>911.8</ele>
        <time>2024-10-11T08:30:59Z</time>
      </trkpt>
      <trkpt lat="42.82764" lon="2.00162">
        <ele>911.8</ele>
        <time>2024-10-11T08:31:00Z</time>
      </trkpt>
      <trkpt lat="42.82764" lon="2.00156">
        <ele>911.8</ele>
        <time>2024-10-11T08:31:01Z</time>
      </trkpt>
      <trkpt lat="42.82765" lon="2.00151">
        <ele>912.4</ele>
        <time>2024-10-11T08:31:02Z</time>
      </trkpt>
      <trkpt lat="42.82765" lon="2.00145">
        <ele>912.4</ele>
        <time>2024-10-11T08:31:03Z</time>
      </trkpt>
      <trkpt lat="42.82766" lon="2.0014">
        <ele>912.4</ele>
        <time>2024-10-11T08:31:04Z</time>
      </trkpt>
      <trkpt lat="42.82766" lon="2.00134">
        <ele>912.4</ele>
        <time>2024-10-11T08:31:05Z</time>
      </trkpt>
      <trkpt lat="42.82767" lon="2.00128">
        <ele>912.8</ele>
        <time>2024-10-11T08:31:06Z</time>
      </trkpt>
      <trkpt lat="42.82767" lon="2.00123">
        <ele>912.8</ele>
        <time>2024-10-11T08:31:07Z</time>
      </trkpt>
      <trkpt lat="42.82768" lon="2.00117">
        <ele>912.8</ele>
        <time>2024-10-11T08:31:08Z</time>
      </trkpt>
      <trkpt lat="42.82769" lon="2.00111">
        <ele>912.8</ele>
        <time>2024-10-11T08:31:09Z</time>
      </trkpt>
      <trkpt lat="42.82769" lon="2.00105">
        <ele>912.8</ele>
        <time>2024-10-11T08:31:10Z</time>
      </trkpt>
      <trkpt lat="42.8277" lon="2.00097">
        <ele>912.8</ele>
        <time>2024-10-11T08:31:11Z</time>
      </trkpt>
      <trkpt lat="42.8277" lon="2.00094">
        <ele>912.8</ele>
        <time>2024-10-11T08:31:12Z</time>
      </trkpt>
      <trkpt lat="42.82771" lon="2.00088">
        <ele>912.8</ele>
        <time>2024-10-11T08:31:13Z</time>
      </trkpt>
      <trkpt lat="42.82771" lon="2.00083">
        <ele>913.2</ele>
        <time>2024-10-11T08:31:14Z</time>
      </trkpt>
      <trkpt lat="42.82772" lon="2.00077">
        <ele>913.2</ele>
        <time>2024-10-11T08:31:15Z</time>
      </trkpt>
      <trkpt lat="42.82772" lon="2.00071">
        <ele>913.2</ele>
        <time>2024-10-11T08:31:16Z</time>
      </trkpt>
      <trkpt lat="42.82772" lon="2.00065">
        <ele>913.2</ele>
        <time>2024-10-11T08:31:17Z</time>
      </trkpt>
      <trkpt lat="42.82773" lon="2.0006">
        <ele>913.6</ele>
        <time>2024-10-11T08:31:18Z</time>
      </trkpt>
      <trkpt lat="42.82773" lon="2.00054">
        <ele>913.4</ele>
        <time>2024-10-11T08:31:19Z</time>
      </trkpt>
      <trkpt lat="42.82773" lon="2.00048">
        <ele>913.4</ele>
        <time>2024-10-11T08:31:20Z</time>
      </trkpt>
      <trkpt lat="42.82774" lon="2.00042">
        <ele>913.4</ele>
        <time>2024-10-11T08:31:21Z</time>
      </trkpt>
      <trkpt lat="42.82775" lon="2.00037">
        <ele>913.4</ele>
        <time>2024-10-11T08:31:22Z</time>
      </trkpt>
      <trkpt lat="42.82775" lon="2.00031">
        <ele>913.4</ele>
        <time>2024-10-11T08:31:23Z</time>
      </trkpt>
      <trkpt lat="42.82776" lon="2.00025">
        <ele>914</ele>
        <time>2024-10-11T08:31:24Z</time>
      </trkpt>
      <trkpt lat="42.82776" lon="2.0002">
        <ele>914</ele>
        <time>2024-10-11T08:31:25Z</time>
      </trkpt>
      <trkpt lat="42.82777" lon="2.00014">
        <ele>914</ele>
        <time>2024-10-11T08:31:26Z</time>
      </trkpt>
      <trkpt lat="42.82777" lon="2.00009">
        <ele>914</ele>
        <time>2024-10-11T08:31:27Z</time>
      </trkpt>
      <trkpt lat="42.82778" lon="2.00003">
        <ele>914</ele>
        <time>2024-10-11T08:31:28Z</time>
      </trkpt>
      <trkpt lat="42.82778" lon="1.99998">
        <ele>913.8</ele>
        <time>2024-10-11T08:31:29Z</time>
      </trkpt>
      <trkpt lat="42.82778" lon="1.99992">
        <ele>913.8</ele>
        <time>2024-10-11T08:31:30Z</time>
      </trkpt>
      <trkpt lat="42.82779" lon="1.99987">
        <ele>913.8</ele>
        <time>2024-10-11T08:31:31Z</time>
      </trkpt>
      <trkpt lat="42.82779" lon="1.99981">
        <ele>914.6</ele>
        <time>2024-10-11T08:31:32Z</time>
      </trkpt>
      <trkpt lat="42.8278" lon="1.99976">
        <ele>914.6</ele>
        <time>2024-10-11T08:31:33Z</time>
      </trkpt>
      <trkpt lat="42.8278" lon="1.9997">
        <ele>914.8</ele>
        <time>2024-10-11T08:31:34Z</time>
      </trkpt>
      <trkpt lat="42.8278" lon="1.99964">
        <ele>914.8</ele>
        <time>2024-10-11T08:31:35Z</time>
      </trkpt>
      <trkpt lat="42.82781" lon="1.99959">
        <ele>914.8</ele>
        <time>2024-10-11T08:31:36Z</time>
      </trkpt>
      <trkpt lat="42.82781" lon="1.99953">
        <ele>914.8</ele>
        <time>2024-10-11T08:31:37Z</time>
      </trkpt>
      <trkpt lat="42.82782" lon="1.99948">
        <ele>915.2</ele>
        <time>2024-10-11T08:31:38Z</time>
      </trkpt>
      <trkpt lat="42.82782" lon="1.99942">
        <ele>915.2</ele>
        <time>2024-10-11T08:31:39Z</time>
      </trkpt>
      <trkpt lat="42.82783" lon="1.99936">
        <ele>915.2</ele>
        <time>2024-10-11T08:31:40Z</time>
      </trkpt>
      <trkpt lat="42.82783" lon="1.9993">
        <ele>915.2</ele>
        <time>2024-10-11T08:31:41Z</time>
      </trkpt>
      <trkpt lat="42.82784" lon="1.99925">
        <ele>915.6</ele>
        <time>2024-10-11T08:31:42Z</time>
      </trkpt>
      <trkpt lat="42.82784" lon="1.99919">
        <ele>915.6</ele>
        <time>2024-10-11T08:31:43Z</time>
      </trkpt>
      <trkpt lat="42.82785" lon="1.99913">
        <ele>915.6</ele>
        <time>2024-10-11T08:31:44Z</time>
      </trkpt>
      <trkpt lat="42.82785" lon="1.99908">
        <ele>915.6</ele>
        <time>2024-10-11T08:31:45Z</time>
      </trkpt>
      <trkpt lat="42.82786" lon="1.99902">
        <ele>915.6</ele>
        <time>2024-10-11T08:31:46Z</time>
      </trkpt>
      <trkpt lat="42.82786" lon="1.99896">
        <ele>916.2</ele>
        <time>2024-10-11T08:31:47Z</time>
      </trkpt>
      <trkpt lat="42.82786" lon="1.99891">
        <ele>916.2</ele>
        <time>2024-10-11T08:31:48Z</time>
      </trkpt>
      <trkpt lat="42.82787" lon="1.99885">
        <ele>916.2</ele>
        <time>2024-10-11T08:31:49Z</time>
      </trkpt>
      <trkpt lat="42.82787" lon="1.99879">
        <ele>916.2</ele>
        <time>2024-10-11T08:31:50Z</time>
      </trkpt>
      <trkpt lat="42.82788" lon="1.99874">
        <ele>916.6</ele>
        <time>2024-10-11T08:31:51Z</time>
      </trkpt>
      <trkpt lat="42.82788" lon="1.99868">
        <ele>916.6</ele>
        <time>2024-10-11T08:31:52Z</time>
      </trkpt>
      <trkpt lat="42.82789" lon="1.99862">
        <ele>916.6</ele>
        <time>2024-10-11T08:31:53Z</time>
      </trkpt>
      <trkpt lat="42.82789" lon="1.99857">
        <ele>916.6</ele>
        <time>2024-10-11T08:31:54Z</time>
      </trkpt>
      <trkpt lat="42.8279" lon="1.99851">
        <ele>916.8</ele>
        <time>2024-10-11T08:31:55Z</time>
      </trkpt>
      <trkpt lat="42.82791" lon="1.99846">
        <ele>917.2</ele>
        <time>2024-10-11T08:31:56Z</time>
      </trkpt>
      <trkpt lat="42.82791" lon="1.9984">
        <ele>917.2</ele>
        <time>2024-10-11T08:31:57Z</time>
      </trkpt>
      <trkpt lat="42.82791" lon="1.99834">
        <ele>917.2</ele>
        <time>2024-10-11T08:31:58Z</time>
      </trkpt>
      <trkpt lat="42.82792" lon="1.99829">
        <ele>917.2</ele>
        <time>2024-10-11T08:31:59Z</time>
      </trkpt>
      <trkpt lat="42.82792" lon="1.99823">
        <ele>917.2</ele>
        <time>2024-10-11T08:32:00Z</time>
      </trkpt>
      <trkpt lat="42.82793" lon="1.99817">
        <ele>917.2</ele>
        <time>2024-10-11T08:32:01Z</time>
      </trkpt>
      <trkpt lat="42.82793" lon="1.99812">
        <ele>917.2</ele>
        <time>2024-10-11T08:32:02Z</time>
      </trkpt>
      <trkpt lat="42.82794" lon="1.99806">
        <ele>917.6</ele>
        <time>2024-10-11T08:32:03Z</time>
      </trkpt>
      <trkpt lat="42.82794" lon="1.998">
        <ele>917.6</ele>
        <time>2024-10-11T08:32:04Z</time>
      </trkpt>
      <trkpt lat="42.82795" lon="1.99795">
        <ele>917.6</ele>
        <time>2024-10-11T08:32:05Z</time>
      </trkpt>
      <trkpt lat="42.82795" lon="1.99789">
        <ele>917.6</ele>
        <time>2024-10-11T08:32:06Z</time>
      </trkpt>
      <trkpt lat="42.82796" lon="1.99783">
        <ele>917.6</ele>
        <time>2024-10-11T08:32:07Z</time>
      </trkpt>
      <trkpt lat="42.82796" lon="1.99778">
        <ele>917.6</ele>
        <time>2024-10-11T08:32:08Z</time>
      </trkpt>
      <trkpt lat="42.82796" lon="1.99772">
        <ele>918</ele>
        <time>2024-10-11T08:32:09Z</time>
      </trkpt>
      <trkpt lat="42.82797" lon="1.99766">
        <ele>918.2</ele>
        <time>2024-10-11T08:32:10Z</time>
      </trkpt>
      <trkpt lat="42.82797" lon="1.9976">
        <ele>918.2</ele>
        <time>2024-10-11T08:32:11Z</time>
      </trkpt>
      <trkpt lat="42.82798" lon="1.99755">
        <ele>918.2</ele>
        <time>2024-10-11T08:32:12Z</time>
      </trkpt>
      <trkpt lat="42.82798" lon="1.99749">
        <ele>918.2</ele>
        <time>2024-10-11T08:32:13Z</time>
      </trkpt>
      <trkpt lat="42.82799" lon="1.99743">
        <ele>918.6</ele>
        <time>2024-10-11T08:32:14Z</time>
      </trkpt>
      <trkpt lat="42.82799" lon="1.99737">
        <ele>918.6</ele>
        <time>2024-10-11T08:32:15Z</time>
      </trkpt>
      <trkpt lat="42.828" lon="1.99732">
        <ele>918.6</ele>
        <time>2024-10-11T08:32:16Z</time>
      </trkpt>
      <trkpt lat="42.828" lon="1.99726">
        <ele>918.6</ele>
        <time>2024-10-11T08:32:17Z</time>
      </trkpt>
      <trkpt lat="42.82801" lon="1.9972">
        <ele>919</ele>
        <time>2024-10-11T08:32:18Z</time>
      </trkpt>
      <trkpt lat="42.82801" lon="1.99715">
        <ele>919</ele>
        <time>2024-10-11T08:32:19Z</time>
      </trkpt>
      <trkpt lat="42.82802" lon="1.99709">
        <ele>919</ele>
        <time>2024-10-11T08:32:20Z</time>
      </trkpt>
      <trkpt lat="42.82802" lon="1.99703">
        <ele>919</ele>
        <time>2024-10-11T08:32:21Z</time>
      </trkpt>
      <trkpt lat="42.82803" lon="1.99698">
        <ele>919.4</ele>
        <time>2024-10-11T08:32:22Z</time>
      </trkpt>
      <trkpt lat="42.82803" lon="1.99692">
        <ele>919.4</ele>
        <time>2024-10-11T08:32:23Z</time>
      </trkpt>
      <trkpt lat="42.82803" lon="1.99686">
        <ele>919.4</ele>
        <time>2024-10-11T08:32:24Z</time>
      </trkpt>
      <trkpt lat="42.82804" lon="1.9968">
        <ele>919.4</ele>
        <time>2024-10-11T08:32:25Z</time>
      </trkpt>
      <trkpt lat="42.82804" lon="1.99675">
        <ele>919.6</ele>
        <time>2024-10-11T08:32:26Z</time>
      </trkpt>
      <trkpt lat="42.82805" lon="1.99669">
        <ele>919.6</ele>
        <time>2024-10-11T08:32:27Z</time>
      </trkpt>
      <trkpt lat="42.82806" lon="1.99664">
        <ele>919.8</ele>
        <time>2024-10-11T08:32:28Z</time>
      </trkpt>
      <trkpt lat="42.82806" lon="1.99658">
        <ele>919.8</ele>
        <time>2024-10-11T08:32:29Z</time>
      </trkpt>
      <trkpt lat="42.82806" lon="1.99652">
        <ele>919.8</ele>
        <time>2024-10-11T08:32:30Z</time>
      </trkpt>
      <trkpt lat="42.82807" lon="1.99647">
        <ele>920.4</ele>
        <time>2024-10-11T08:32:31Z</time>
      </trkpt>
      <trkpt lat="42.82807" lon="1.99641">
        <ele>920.2</ele>
        <time>2024-10-11T08:32:32Z</time>
      </trkpt>
      <trkpt lat="42.82808" lon="1.99635">
        <ele>920.2</ele>
        <time>2024-10-11T08:32:33Z</time>
      </trkpt>
      <trkpt lat="42.82808" lon="1.9963">
        <ele>920.2</ele>
        <time>2024-10-11T08:32:34Z</time>
      </trkpt>
      <trkpt lat="42.82809" lon="1.99624">
        <ele>920.4</ele>
        <time>2024-10-11T08:32:35Z</time>
      </trkpt>
      <trkpt lat="42.82809" lon="1.99618">
        <ele>920.6</ele>
        <time>2024-10-11T08:32:36Z</time>
      </trkpt>
      <trkpt lat="42.8281" lon="1.99613">
        <ele>920.6</ele>
        <time>2024-10-11T08:32:37Z</time>
      </trkpt>
      <trkpt lat="42.8281" lon="1.99607">
        <ele>920.6</ele>
        <time>2024-10-11T08:32:38Z</time>
      </trkpt>
      <trkpt lat="42.82811" lon="1.99601">
        <ele>920.8</ele>
        <time>2024-10-11T08:32:39Z</time>
      </trkpt>
      <trkpt lat="42.82811" lon="1.99596">
        <ele>921</ele>
        <time>2024-10-11T08:32:40Z</time>
      </trkpt>
      <trkpt lat="42.82812" lon="1.9959">
        <ele>921</ele>
        <time>2024-10-11T08:32:41Z</time>
      </trkpt>
      <trkpt lat="42.82812" lon="1.99584">
        <ele>921</ele>
        <time>2024-10-11T08:32:42Z</time>
      </trkpt>
      <trkpt lat="42.82813" lon="1.99579">
        <ele>921</ele>
        <time>2024-10-11T08:32:43Z</time>
      </trkpt>
      <trkpt lat="42.82813" lon="1.99573">
        <ele>921</ele>
        <time>2024-10-11T08:32:44Z</time>
      </trkpt>
      <trkpt lat="42.82814" lon="1.99568">
        <ele>921.8</ele>
        <time>2024-10-11T08:32:45Z</time>
      </trkpt>
      <trkpt lat="42.82814" lon="1.99562">
        <ele>921.8</ele>
        <time>2024-10-11T08:32:46Z</time>
      </trkpt>
      <trkpt lat="42.82815" lon="1.99557">
        <ele>921.8</ele>
        <time>2024-10-11T08:32:47Z</time>
      </trkpt>
      <trkpt lat="42.82815" lon="1.99552">
        <ele>921.8</ele>
        <time>2024-10-11T08:32:48Z</time>
      </trkpt>
      <trkpt lat="42.82816" lon="1.99546">
        <ele>921.2</ele>
        <time>2024-10-11T08:32:49Z</time>
      </trkpt>
      <trkpt lat="42.82816" lon="1.9954">
        <ele>921.8</ele>
        <time>2024-10-11T08:32:50Z</time>
      </trkpt>
      <trkpt lat="42.82817" lon="1.99535">
        <ele>921.8</ele>
        <time>2024-10-11T08:32:51Z</time>
      </trkpt>
      <trkpt lat="42.82817" lon="1.99529">
        <ele>921.8</ele>
        <time>2024-10-11T08:32:52Z</time>
      </trkpt>
      <trkpt lat="42.82817" lon="1.99523">
        <ele>921.8</ele>
        <time>2024-10-11T08:32:53Z</time>
      </trkpt>
      <trkpt lat="42.82818" lon="1.99518">
        <ele>922.4</ele>
        <time>2024-10-11T08:32:54Z</time>
      </trkpt>
      <trkpt lat="42.82818" lon="1.99512">
        <ele>922.4</ele>
        <time>2024-10-11T08:32:55Z</time>
      </trkpt>
      <trkpt lat="42.82819" lon="1.99507">
        <ele>922.4</ele>
        <time>2024-10-11T08:32:56Z</time>
      </trkpt>
      <trkpt lat="42.82819" lon="1.99501">
        <ele>922.4</ele>
        <time>2024-10-11T08:32:57Z</time>
      </trkpt>
      <trkpt lat="42.8282" lon="1.99495">
        <ele>922.4</ele>
        <time>2024-10-11T08:32:58Z</time>
      </trkpt>
      <trkpt lat="42.8282" lon="1.9949">
        <ele>922.4</ele>
        <time>2024-10-11T08:32:59Z</time>
      </trkpt>
      <trkpt lat="42.82821" lon="1.99484">
        <ele>922.4</ele>
        <time>2024-10-11T08:33:00Z</time>
      </trkpt>
      <trkpt lat="42.82821" lon="1.99478">
        <ele>922.4</ele>
        <time>2024-10-11T08:33:01Z</time>
      </trkpt>
      <trkpt lat="42.82822" lon="1.99473">
        <ele>922.4</ele>
        <time>2024-10-11T08:33:02Z</time>
      </trkpt>
      <trkpt lat="42.82822" lon="1.99467">
        <ele>922.6</ele>
        <time>2024-10-11T08:33:03Z</time>
      </trkpt>
      <trkpt lat="42.82823" lon="1.99462">
        <ele>922.6</ele>
        <time>2024-10-11T08:33:04Z</time>
      </trkpt>
      <trkpt lat="42.82823" lon="1.99456">
        <ele>922.6</ele>
        <time>2024-10-11T08:33:05Z</time>
      </trkpt>
      <trkpt lat="42.82824" lon="1.9945">
        <ele>922.6</ele>
        <time>2024-10-11T08:33:06Z</time>
      </trkpt>
      <trkpt lat="42.82824" lon="1.99445">
        <ele>923</ele>
        <time>2024-10-11T08:33:07Z</time>
      </trkpt>
      <trkpt lat="42.82825" lon="1.99439">
        <ele>923.2</ele>
        <time>2024-10-11T08:33:08Z</time>
      </trkpt>
      <trkpt lat="42.82825" lon="1.99433">
        <ele>923.2</ele>
        <time>2024-10-11T08:33:09Z</time>
      </trkpt>
      <trkpt lat="42.82826" lon="1.99427">
        <ele>923.2</ele>
        <time>2024-10-11T08:33:10Z</time>
      </trkpt>
      <trkpt lat="42.82826" lon="1.99422">
        <ele>923.2</ele>
        <time>2024-10-11T08:33:11Z</time>
      </trkpt>
      <trkpt lat="42.82827" lon="1.99416">
        <ele>923.4</ele>
        <time>2024-10-11T08:33:12Z</time>
      </trkpt>
      <trkpt lat="42.82827" lon="1.9941">
        <ele>923.4</ele>
        <time>2024-10-11T08:33:13Z</time>
      </trkpt>
      <trkpt lat="42.82828" lon="1.99405">
        <ele>923.4</ele>
        <time>2024-10-11T08:33:14Z</time>
      </trkpt>
      <trkpt lat="42.82828" lon="1.99399">
        <ele>923.4</ele>
        <time>2024-10-11T08:33:15Z</time>
      </trkpt>
      <trkpt lat="42.82829" lon="1.99394">
        <ele>923.4</ele>
        <time>2024-10-11T08:33:16Z</time>
      </trkpt>
      <trkpt lat="42.82829" lon="1.99388">
        <ele>924</ele>
        <time>2024-10-11T08:33:17Z</time>
      </trkpt>
      <trkpt lat="42.8283" lon="1.99382">
        <ele>924</ele>
        <time>2024-10-11T08:33:18Z</time>
      </trkpt>
      <trkpt lat="42.8283" lon="1.99377">
        <ele>924</ele>
        <time>2024-10-11T08:33:19Z</time>
      </trkpt>
      <trkpt lat="42.8283" lon="1.99371">
        <ele>924</ele>
        <time>2024-10-11T08:33:20Z</time>
      </trkpt>
      <trkpt lat="42.82831" lon="1.99365">
        <ele>924.4</ele>
        <time>2024-10-11T08:33:21Z</time>
      </trkpt>
      <trkpt lat="42.82832" lon="1.99359">
        <ele>924.4</ele>
        <time>2024-10-11T08:33:22Z</time>
      </trkpt>
      <trkpt lat="42.82832" lon="1.99354">
        <ele>924.4</ele>
        <time>2024-10-11T08:33:23Z</time>
      </trkpt>
      <trkpt lat="42.82833" lon="1.99348">
        <ele>924.4</ele>
        <time>2024-10-11T08:33:24Z</time>
      </trkpt>
      <trkpt lat="42.82833" lon="1.99342">
        <ele>924.8</ele>
        <time>2024-10-11T08:33:25Z</time>
      </trkpt>
      <trkpt lat="42.82834" lon="1.99336">
        <ele>924.8</ele>
        <time>2024-10-11T08:33:26Z</time>
      </trkpt>
      <trkpt lat="42.82834" lon="1.9933">
        <ele>924.8</ele>
        <time>2024-10-11T08:33:27Z</time>
      </trkpt>
      <trkpt lat="42.82834" lon="1.99324">
        <ele>924.8</ele>
        <time>2024-10-11T08:33:28Z</time>
      </trkpt>
      <trkpt lat="42.82835" lon="1.99319">
        <ele>925</ele>
        <time>2024-10-11T08:33:29Z</time>
      </trkpt>
      <trkpt lat="42.82835" lon="1.99313">
        <ele>925</ele>
        <time>2024-10-11T08:33:30Z</time>
      </trkpt>
      <trkpt lat="42.82836" lon="1.99307">
        <ele>925.4</ele>
        <time>2024-10-11T08:33:31Z</time>
      </trkpt>
      <trkpt lat="42.82836" lon="1.99301">
        <ele>925.4</ele>
        <time>2024-10-11T08:33:32Z</time>
      </trkpt>
      <trkpt lat="42.82837" lon="1.99296">
        <ele>925.4</ele>
        <time>2024-10-11T08:33:33Z</time>
      </trkpt>
      <trkpt lat="42.82837" lon="1.9929">
        <ele>925.4</ele>
        <time>2024-10-11T08:33:34Z</time>
      </trkpt>
      <trkpt lat="42.82838" lon="1.99285">
        <ele>925.4</ele>
        <time>2024-10-11T08:33:35Z</time>
      </trkpt>
      <trkpt lat="42.82838" lon="1.99279">
        <ele>925.6</ele>
        <time>2024-10-11T08:33:36Z</time>
      </trkpt>
      <trkpt lat="42.82839" lon="1.99273">
        <ele>925.6</ele>
        <time>2024-10-11T08:33:37Z</time>
      </trkpt>
      <trkpt lat="42.82839" lon="1.99268">
        <ele>925.6</ele>
        <time>2024-10-11T08:33:38Z</time>
      </trkpt>
      <trkpt lat="42.8284" lon="1.99262">
        <ele>925.8</ele>
        <time>2024-10-11T08:33:39Z</time>
      </trkpt>
      <trkpt lat="42.8284" lon="1.99257">
        <ele>925.8</ele>
        <time>2024-10-11T08:33:40Z</time>
      </trkpt>
      <trkpt lat="42.82841" lon="1.99251">
        <ele>925.8</ele>
        <time>2024-10-11T08:33:41Z</time>
      </trkpt>
      <trkpt lat="42.82841" lon="1.99245">
        <ele>925.8</ele>
        <time>2024-10-11T08:33:42Z</time>
      </trkpt>
      <trkpt lat="42.82841" lon="1.9924">
        <ele>926</ele>
        <time>2024-10-11T08:33:43Z</time>
      </trkpt>
      <trkpt lat="42.82842" lon="1.99234">
        <ele>926.2</ele>
        <time>2024-10-11T08:33:44Z</time>
      </trkpt>
      <trkpt lat="42.82842" lon="1.99228">
        <ele>926.2</ele>
        <time>2024-10-11T08:33:45Z</time>
      </trkpt>
      <trkpt lat="42.82843" lon="1.99223">
        <ele>926.2</ele>
        <time>2024-10-11T08:33:46Z</time>
      </trkpt>
      <trkpt lat="42.82843" lon="1.99217">
        <ele>926.2</ele>
        <time>2024-10-11T08:33:47Z</time>
      </trkpt>
      <trkpt lat="42.82844" lon="1.99211">
        <ele>927</ele>
        <time>2024-10-11T08:33:48Z</time>
      </trkpt>
      <trkpt lat="42.82844" lon="1.99206">
        <ele>927</ele>
        <time>2024-10-11T08:33:49Z</time>
      </trkpt>
      <trkpt lat="42.82845" lon="1.992">
        <ele>927</ele>
        <time>2024-10-11T08:33:50Z</time>
      </trkpt>
      <trkpt lat="42.82845" lon="1.99194">
        <ele>927</ele>
        <time>2024-10-11T08:33:51Z</time>
      </trkpt>
      <trkpt lat="42.82845" lon="1.99189">
        <ele>927.4</ele>
        <time>2024-10-11T08:33:52Z</time>
      </trkpt>
      <trkpt lat="42.82846" lon="1.99183">
        <ele>927.4</ele>
        <time>2024-10-11T08:33:53Z</time>
      </trkpt>
      <trkpt lat="42.82846" lon="1.99178">
        <ele>927.4</ele>
        <time>2024-10-11T08:33:54Z</time>
      </trkpt>
      <trkpt lat="42.82847" lon="1.99172">
        <ele>927.4</ele>
        <time>2024-10-11T08:33:55Z</time>
      </trkpt>
      <trkpt lat="42.82847" lon="1.99166">
        <ele>927.4</ele>
        <time>2024-10-11T08:33:56Z</time>
      </trkpt>
      <trkpt lat="42.82848" lon="1.9916">
        <ele>927.2</ele>
        <time>2024-10-11T08:33:57Z</time>
      </trkpt>
      <trkpt lat="42.82848" lon="1.99154">
        <ele>927.2</ele>
        <time>2024-10-11T08:33:58Z</time>
      </trkpt>
      <trkpt lat="42.82849" lon="1.99148">
        <ele>927.2</ele>
        <time>2024-10-11T08:33:59Z</time>
      </trkpt>
      <trkpt lat="42.82849" lon="1.99142">
        <ele>927.8</ele>
        <time>2024-10-11T08:34:00Z</time>
      </trkpt>
      <trkpt lat="42.8285" lon="1.99136">
        <ele>927.8</ele>
        <time>2024-10-11T08:34:01Z</time>
      </trkpt>
      <trkpt lat="42.8285" lon="1.9913">
        <ele>928.4</ele>
        <time>2024-10-11T08:34:02Z</time>
      </trkpt>
      <trkpt lat="42.82851" lon="1.99124">
        <ele>928.4</ele>
        <time>2024-10-11T08:34:03Z</time>
      </trkpt>
      <trkpt lat="42.82851" lon="1.99118">
        <ele>928.4</ele>
        <time>2024-10-11T08:34:04Z</time>
      </trkpt>
      <trkpt lat="42.82852" lon="1.99112">
        <ele>928.4</ele>
        <time>2024-10-11T08:34:05Z</time>
      </trkpt>
      <trkpt lat="42.82852" lon="1.99106">
        <ele>928.4</ele>
        <time>2024-10-11T08:34:06Z</time>
      </trkpt>
      <trkpt lat="42.82853" lon="1.99101">
        <ele>928.4</ele>
        <time>2024-10-11T08:34:07Z</time>
      </trkpt>
      <trkpt lat="42.82853" lon="1.99095">
        <ele>928.4</ele>
        <time>2024-10-11T08:34:08Z</time>
      </trkpt>
      <trkpt lat="42.82854" lon="1.99089">
        <ele>928.6</ele>
        <time>2024-10-11T08:34:09Z</time>
      </trkpt>
      <trkpt lat="42.82855" lon="1.99083">
        <ele>928.4</ele>
        <time>2024-10-11T08:34:10Z</time>
      </trkpt>
      <trkpt lat="42.82855" lon="1.99077">
        <ele>928.4</ele>
        <time>2024-10-11T08:34:11Z</time>
      </trkpt>
      <trkpt lat="42.82856" lon="1.99071">
        <ele>928.4</ele>
        <time>2024-10-11T08:34:12Z</time>
      </trkpt>
      <trkpt lat="42.82856" lon="1.99065">
        <ele>928.4</ele>
        <time>2024-10-11T08:34:13Z</time>
      </trkpt>
      <trkpt lat="42.82856" lon="1.99059">
        <ele>928.4</ele>
        <time>2024-10-11T08:34:14Z</time>
      </trkpt>
      <trkpt lat="42.82857" lon="1.99053">
        <ele>928.8</ele>
        <time>2024-10-11T08:34:15Z</time>
      </trkpt>
      <trkpt lat="42.82857" lon="1.99048">
        <ele>929</ele>
        <time>2024-10-11T08:34:16Z</time>
      </trkpt>
      <trkpt lat="42.82858" lon="1.99042">
        <ele>929</ele>
        <time>2024-10-11T08:34:17Z</time>
      </trkpt>
      <trkpt lat="42.82858" lon="1.99036">
        <ele>929</ele>
        <time>2024-10-11T08:34:18Z</time>
      </trkpt>
      <trkpt lat="42.82859" lon="1.99031">
        <ele>929</ele>
        <time>2024-10-11T08:34:19Z</time>
      </trkpt>
      <trkpt lat="42.82859" lon="1.99025">
        <ele>929.6</ele>
        <time>2024-10-11T08:34:20Z</time>
      </trkpt>
      <trkpt lat="42.82859" lon="1.99019">
        <ele>929.6</ele>
        <time>2024-10-11T08:34:21Z</time>
      </trkpt>
      <trkpt lat="42.8286" lon="1.99014">
        <ele>929.6</ele>
        <time>2024-10-11T08:34:22Z</time>
      </trkpt>
      <trkpt lat="42.8286" lon="1.99008">
        <ele>929.6</ele>
        <time>2024-10-11T08:34:23Z</time>
      </trkpt>
      <trkpt lat="42.82861" lon="1.99002">
        <ele>929.6</ele>
        <time>2024-10-11T08:34:24Z</time>
      </trkpt>
      <trkpt lat="42.82861" lon="1.98996">
        <ele>929.6</ele>
        <time>2024-10-11T08:34:25Z</time>
      </trkpt>
      <trkpt lat="42.82862" lon="1.98991">
        <ele>929.6</ele>
        <time>2024-10-11T08:34:26Z</time>
      </trkpt>
      <trkpt lat="42.82863" lon="1.98985">
        <ele>929.6</ele>
        <time>2024-10-11T08:34:27Z</time>
      </trkpt>
      <trkpt lat="42.82863" lon="1.9898">
        <ele>929.8</ele>
        <time>2024-10-11T08:34:28Z</time>
      </trkpt>
      <trkpt lat="42.82863" lon="1.98974">
        <ele>930.2</ele>
        <time>2024-10-11T08:34:29Z</time>
      </trkpt>
      <trkpt lat="42.82864" lon="1.98969">
        <ele>930.2</ele>
        <time>2024-10-11T08:34:30Z</time>
      </trkpt>
      <trkpt lat="42.82864" lon="1.98963">
        <ele>930.2</ele>
        <time>2024-10-11T08:34:31Z</time>
      </trkpt>
      <trkpt lat="42.82865" lon="1.98957">
        <ele>930.2</ele>
        <time>2024-10-11T08:34:32Z</time>
      </trkpt>
      <trkpt lat="42.82865" lon="1.98952">
        <ele>930.2</ele>
        <time>2024-10-11T08:34:33Z</time>
      </trkpt>
      <trkpt lat="42.82866" lon="1.98946">
        <ele>930.4</ele>
        <time>2024-10-11T08:34:34Z</time>
      </trkpt>
      <trkpt lat="42.82866" lon="1.9894">
        <ele>930.4</ele>
        <time>2024-10-11T08:34:35Z</time>
      </trkpt>
      <trkpt lat="42.82867" lon="1.98935">
        <ele>930.4</ele>
        <time>2024-10-11T08:34:36Z</time>
      </trkpt>
      <trkpt lat="42.82867" lon="1.98929">
        <ele>930.6</ele>
        <time>2024-10-11T08:34:37Z</time>
      </trkpt>
      <trkpt lat="42.82868" lon="1.98923">
        <ele>930.6</ele>
        <time>2024-10-11T08:34:38Z</time>
      </trkpt>
      <trkpt lat="42.82868" lon="1.98917">
        <ele>930.6</ele>
        <time>2024-10-11T08:34:39Z</time>
      </trkpt>
      <trkpt lat="42.82869" lon="1.98911">
        <ele>930.6</ele>
        <time>2024-10-11T08:34:40Z</time>
      </trkpt>
      <trkpt lat="42.82869" lon="1.98905">
        <ele>931.2</ele>
        <time>2024-10-11T08:34:41Z</time>
      </trkpt>
      <trkpt lat="42.8287" lon="1.989">
        <ele>931.2</ele>
        <time>2024-10-11T08:34:42Z</time>
      </trkpt>
      <trkpt lat="42.8287" lon="1.98894">
        <ele>931.2</ele>
        <time>2024-10-11T08:34:43Z</time>
      </trkpt>
      <trkpt lat="42.82871" lon="1.98888">
        <ele>931.2</ele>
        <time>2024-10-11T08:34:44Z</time>
      </trkpt>
      <trkpt lat="42.82871" lon="1.98882">
        <ele>931.2</ele>
        <time>2024-10-11T08:34:45Z</time>
      </trkpt>
      <trkpt lat="42.82872" lon="1.98876">
        <ele>931.2</ele>
        <time>2024-10-11T08:34:46Z</time>
      </trkpt>
      <trkpt lat="42.82872" lon="1.9887">
        <ele>931.4</ele>
        <time>2024-10-11T08:34:47Z</time>
      </trkpt>
      <trkpt lat="42.82873" lon="1.98864">
        <ele>931.4</ele>
        <time>2024-10-11T08:34:48Z</time>
      </trkpt>
      <trkpt lat="42.82874" lon="1.98858">
        <ele>931.4</ele>
        <time>2024-10-11T08:34:49Z</time>
      </trkpt>
      <trkpt lat="42.82874" lon="1.98853">
        <ele>932</ele>
        <time>2024-10-11T08:34:50Z</time>
      </trkpt>
      <trkpt lat="42.82874" lon="1.98847">
        <ele>932</ele>
        <time>2024-10-11T08:34:51Z</time>
      </trkpt>
      <trkpt lat="42.82875" lon="1.98841">
        <ele>932</ele>
        <time>2024-10-11T08:34:52Z</time>
      </trkpt>
      <trkpt lat="42.82875" lon="1.98835">
        <ele>932</ele>
        <time>2024-10-11T08:34:53Z</time>
      </trkpt>
      <trkpt lat="42.82876" lon="1.9883">
        <ele>932.6</ele>
        <time>2024-10-11T08:34:54Z</time>
      </trkpt>
      <trkpt lat="42.82876" lon="1.98824">
        <ele>932.4</ele>
        <time>2024-10-11T08:34:55Z</time>
      </trkpt>
      <trkpt lat="42.82877" lon="1.98818">
        <ele>932.4</ele>
        <time>2024-10-11T08:34:56Z</time>
      </trkpt>
      <trkpt lat="42.82878" lon="1.98812">
        <ele>932.4</ele>
        <time>2024-10-11T08:34:57Z</time>
      </trkpt>
      <trkpt lat="42.82878" lon="1.98807">
        <ele>932.4</ele>
        <time>2024-10-11T08:34:58Z</time>
      </trkpt>
      <trkpt lat="42.82879" lon="1.98801">
        <ele>932.4</ele>
        <time>2024-10-11T08:34:59Z</time>
      </trkpt>
      <trkpt lat="42.82879" lon="1.98796">
        <ele>932.6</ele>
        <time>2024-10-11T08:35:00Z</time>
      </trkpt>
      <trkpt lat="42.82879" lon="1.9879">
        <ele>933</ele>
        <time>2024-10-11T08:35:01Z</time>
      </trkpt>
      <trkpt lat="42.8288" lon="1.98784">
        <ele>933</ele>
        <time>2024-10-11T08:35:02Z</time>
      </trkpt>
      <trkpt lat="42.8288" lon="1.98779">
        <ele>933</ele>
        <time>2024-10-11T08:35:03Z</time>
      </trkpt>
      <trkpt lat="42.82881" lon="1.98773">
        <ele>933</ele>
        <time>2024-10-11T08:35:04Z</time>
      </trkpt>
      <trkpt lat="42.82881" lon="1.98767">
        <ele>933.4</ele>
        <time>2024-10-11T08:35:05Z</time>
      </trkpt>
      <trkpt lat="42.82882" lon="1.98762">
        <ele>933.4</ele>
        <time>2024-10-11T08:35:06Z</time>
      </trkpt>
      <trkpt lat="42.82882" lon="1.98756">
        <ele>933.4</ele>
        <time>2024-10-11T08:35:07Z</time>
      </trkpt>
      <trkpt lat="42.82883" lon="1.9875">
        <ele>933.4</ele>
        <time>2024-10-11T08:35:08Z</time>
      </trkpt>
      <trkpt lat="42.82883" lon="1.98745">
        <ele>933.4</ele>
        <time>2024-10-11T08:35:09Z</time>
      </trkpt>
      <trkpt lat="42.82884" lon="1.98739">
        <ele>933.6</ele>
        <time>2024-10-11T08:35:10Z</time>
      </trkpt>
      <trkpt lat="42.82884" lon="1.98733">
        <ele>933.6</ele>
        <time>2024-10-11T08:35:11Z</time>
      </trkpt>
      <trkpt lat="42.82885" lon="1.98727">
        <ele>933.6</ele>
        <time>2024-10-11T08:35:12Z</time>
      </trkpt>
      <trkpt lat="42.82885" lon="1.98722">
        <ele>933.6</ele>
        <time>2024-10-11T08:35:13Z</time>
      </trkpt>
      <trkpt lat="42.82886" lon="1.98716">
        <ele>934</ele>
        <time>2024-10-11T08:35:14Z</time>
      </trkpt>
      <trkpt lat="42.82886" lon="1.9871">
        <ele>934</ele>
        <time>2024-10-11T08:35:15Z</time>
      </trkpt>
      <trkpt lat="42.82887" lon="1.98705">
        <ele>934</ele>
        <time>2024-10-11T08:35:16Z</time>
      </trkpt>
      <trkpt lat="42.82887" lon="1.98699">
        <ele>934.2</ele>
        <time>2024-10-11T08:35:17Z</time>
      </trkpt>
      <trkpt lat="42.82888" lon="1.98693">
        <ele>934</ele>
        <time>2024-10-11T08:35:18Z</time>
      </trkpt>
      <trkpt lat="42.82888" lon="1.98688">
        <ele>934</ele>
        <time>2024-10-11T08:35:19Z</time>
      </trkpt>
      <trkpt lat="42.82889" lon="1.98682">
        <ele>934</ele>
        <time>2024-10-11T08:35:20Z</time>
      </trkpt>
      <trkpt lat="42.82889" lon="1.98676">
        <ele>934.8</ele>
        <time>2024-10-11T08:35:21Z</time>
      </trkpt>
      <trkpt lat="42.8289" lon="1.98671">
        <ele>934.8</ele>
        <time>2024-10-11T08:35:22Z</time>
      </trkpt>
      <trkpt lat="42.8289" lon="1.98665">
        <ele>934.8</ele>
        <time>2024-10-11T08:35:23Z</time>
      </trkpt>
      <trkpt lat="42.8289" lon="1.98659">
        <ele>934.8</ele>
        <time>2024-10-11T08:35:24Z</time>
      </trkpt>
      <trkpt lat="42.82891" lon="1.98654">
        <ele>934.8</ele>
        <time>2024-10-11T08:35:25Z</time>
      </trkpt>
      <trkpt lat="42.82891" lon="1.98648">
        <ele>935</ele>
        <time>2024-10-11T08:35:26Z</time>
      </trkpt>
      <trkpt lat="42.82892" lon="1.98642">
        <ele>935</ele>
        <time>2024-10-11T08:35:27Z</time>
      </trkpt>
      <trkpt lat="42.82892" lon="1.98637">
        <ele>935</ele>
        <time>2024-10-11T08:35:28Z</time>
      </trkpt>
      <trkpt lat="42.82893" lon="1.98631">
        <ele>935</ele>
        <time>2024-10-11T08:35:29Z</time>
      </trkpt>
      <trkpt lat="42.82893" lon="1.98625">
        <ele>935.2</ele>
        <time>2024-10-11T08:35:30Z</time>
      </trkpt>
      <trkpt lat="42.82894" lon="1.9862">
        <ele>935.6</ele>
        <time>2024-10-11T08:35:31Z</time>
      </trkpt>
      <trkpt lat="42.82894" lon="1.98614">
        <ele>935.6</ele>
        <time>2024-10-11T08:35:32Z</time>
      </trkpt>
      <trkpt lat="42.82895" lon="1.98608">
        <ele>935.6</ele>
        <time>2024-10-11T08:35:33Z</time>
      </trkpt>
      <trkpt lat="42.82895" lon="1.98603">
        <ele>935.6</ele>
        <time>2024-10-11T08:35:34Z</time>
      </trkpt>
      <trkpt lat="42.82896" lon="1.98597">
        <ele>935.6</ele>
        <time>2024-10-11T08:35:35Z</time>
      </trkpt>
      <trkpt lat="42.82896" lon="1.98591">
        <ele>935.6</ele>
        <time>2024-10-11T08:35:36Z</time>
      </trkpt>
      <trkpt lat="42.82896" lon="1.98586">
        <ele>935.6</ele>
        <time>2024-10-11T08:35:37Z</time>
      </trkpt>
      <trkpt lat="42.82897" lon="1.9858">
        <ele>935.6</ele>
        <time>2024-10-11T08:35:38Z</time>
      </trkpt>
      <trkpt lat="42.82897" lon="1.98574">
        <ele>935.6</ele>
        <time>2024-10-11T08:35:39Z</time>
      </trkpt>
      <trkpt lat="42.82898" lon="1.98569">
        <ele>936.2</ele>
        <time>2024-10-11T08:35:40Z</time>
      </trkpt>
      <trkpt lat="42.82898" lon="1.98563">
        <ele>936</ele>
        <time>2024-10-11T08:35:41Z</time>
      </trkpt>
      <trkpt lat="42.82898" lon="1.98557">
        <ele>936</ele>
        <time>2024-10-11T08:35:42Z</time>
      </trkpt>
      <trkpt lat="42.82899" lon="1.98552">
        <ele>936</ele>
        <time>2024-10-11T08:35:43Z</time>
      </trkpt>
      <trkpt lat="42.82899" lon="1.98546">
        <ele>936</ele>
        <time>2024-10-11T08:35:44Z</time>
      </trkpt>
      <trkpt lat="42.829" lon="1.98541">
        <ele>936.6</ele>
        <time>2024-10-11T08:35:45Z</time>
      </trkpt>
      <trkpt lat="42.829" lon="1.98535">
        <ele>936.6</ele>
        <time>2024-10-11T08:35:46Z</time>
      </trkpt>
      <trkpt lat="42.82901" lon="1.9853">
        <ele>936.6</ele>
        <time>2024-10-11T08:35:47Z</time>
      </trkpt>
      <trkpt lat="42.82901" lon="1.98524">
        <ele>936.6</ele>
        <time>2024-10-11T08:35:48Z</time>
      </trkpt>
      <trkpt lat="42.82901" lon="1.98518">
        <ele>936.6</ele>
        <time>2024-10-11T08:35:49Z</time>
      </trkpt>
      <trkpt lat="42.82902" lon="1.98513">
        <ele>937.4</ele>
        <time>2024-10-11T08:35:50Z</time>
      </trkpt>
      <trkpt lat="42.82903" lon="1.98507">
        <ele>937.4</ele>
        <time>2024-10-11T08:35:51Z</time>
      </trkpt>
      <trkpt lat="42.82903" lon="1.98501">
        <ele>937.4</ele>
        <time>2024-10-11T08:35:52Z</time>
      </trkpt>
      <trkpt lat="42.82904" lon="1.98496">
        <ele>937.4</ele>
        <time>2024-10-11T08:35:53Z</time>
      </trkpt>
      <trkpt lat="42.82904" lon="1.9849">
        <ele>937.8</ele>
        <time>2024-10-11T08:35:54Z</time>
      </trkpt>
      <trkpt lat="42.82904" lon="1.98484">
        <ele>937.8</ele>
        <time>2024-10-11T08:35:55Z</time>
      </trkpt>
      <trkpt lat="42.82905" lon="1.98478">
        <ele>937.8</ele>
        <time>2024-10-11T08:35:56Z</time>
      </trkpt>
      <trkpt lat="42.82905" lon="1.98473">
        <ele>937.8</ele>
        <time>2024-10-11T08:35:57Z</time>
      </trkpt>
      <trkpt lat="42.82906" lon="1.98467">
        <ele>937.8</ele>
        <time>2024-10-11T08:35:58Z</time>
      </trkpt>
      <trkpt lat="42.82906" lon="1.98461">
        <ele>938.2</ele>
        <time>2024-10-11T08:35:59Z</time>
      </trkpt>
      <trkpt lat="42.82907" lon="1.98456">
        <ele>938.2</ele>
        <time>2024-10-11T08:36:00Z</time>
      </trkpt>
      <trkpt lat="42.82907" lon="1.9845">
        <ele>938.2</ele>
        <time>2024-10-11T08:36:01Z</time>
      </trkpt>
      <trkpt lat="42.82907" lon="1.98445">
        <ele>938.2</ele>
        <time>2024-10-11T08:36:02Z</time>
      </trkpt>
      <trkpt lat="42.82908" lon="1.98439">
        <ele>938.2</ele>
        <time>2024-10-11T08:36:03Z</time>
      </trkpt>
      <trkpt lat="42.82908" lon="1.98433">
        <ele>938.2</ele>
        <time>2024-10-11T08:36:04Z</time>
      </trkpt>
      <trkpt lat="42.82908" lon="1.98428">
        <ele>938.2</ele>
        <time>2024-10-11T08:36:05Z</time>
      </trkpt>
      <trkpt lat="42.82908" lon="1.98422">
        <ele>938.2</ele>
        <time>2024-10-11T08:36:06Z</time>
      </trkpt>
      <trkpt lat="42.82908" lon="1.98416">
        <ele>938.4</ele>
        <time>2024-10-11T08:36:07Z</time>
      </trkpt>
      <trkpt lat="42.82908" lon="1.9841">
        <ele>938.4</ele>
        <time>2024-10-11T08:36:08Z</time>
      </trkpt>
      <trkpt lat="42.82908" lon="1.98404">
        <ele>938.4</ele>
        <time>2024-10-11T08:36:09Z</time>
      </trkpt>
      <trkpt lat="42.82908" lon="1.98399">
        <ele>938.4</ele>
        <time>2024-10-11T08:36:10Z</time>
      </trkpt>
      <trkpt lat="42.82908" lon="1.98393">
        <ele>938.8</ele>
        <time>2024-10-11T08:36:11Z</time>
      </trkpt>
      <trkpt lat="42.82908" lon="1.98387">
        <ele>938.6</ele>
        <time>2024-10-11T08:36:12Z</time>
      </trkpt>
      <trkpt lat="42.82908" lon="1.98381">
        <ele>938.6</ele>
        <time>2024-10-11T08:36:13Z</time>
      </trkpt>
      <trkpt lat="42.82908" lon="1.98375">
        <ele>938.6</ele>
        <time>2024-10-11T08:36:14Z</time>
      </trkpt>
      <trkpt lat="42.82908" lon="1.9837">
        <ele>939</ele>
        <time>2024-10-11T08:36:15Z</time>
      </trkpt>
      <trkpt lat="42.82908" lon="1.98364">
        <ele>939.4</ele>
        <time>2024-10-11T08:36:16Z</time>
      </trkpt>
      <trkpt lat="42.82908" lon="1.98358">
        <ele>939.4</ele>
        <time>2024-10-11T08:36:17Z</time>
      </trkpt>
      <trkpt lat="42.82908" lon="1.98353">
        <ele>939.4</ele>
        <time>2024-10-11T08:36:18Z</time>
      </trkpt>
      <trkpt lat="42.82907" lon="1.98344">
        <ele>939.4</ele>
        <time>2024-10-11T08:36:19Z</time>
      </trkpt>
      <trkpt lat="42.82907" lon="1.98341">
        <ele>939.4</ele>
        <time>2024-10-11T08:36:20Z</time>
      </trkpt>
      <trkpt lat="42.82906" lon="1.98335">
        <ele>939.6</ele>
        <time>2024-10-11T08:36:21Z</time>
      </trkpt>
      <trkpt lat="42.82906" lon="1.98329">
        <ele>939.6</ele>
        <time>2024-10-11T08:36:22Z</time>
      </trkpt>
      <trkpt lat="42.82906" lon="1.98324">
        <ele>939.6</ele>
        <time>2024-10-11T08:36:23Z</time>
      </trkpt>
      <trkpt lat="42.82905" lon="1.98318">
        <ele>939.6</ele>
        <time>2024-10-11T08:36:24Z</time>
      </trkpt>
      <trkpt lat="42.82905" lon="1.98312">
        <ele>939.6</ele>
        <time>2024-10-11T08:36:25Z</time>
      </trkpt>
      <trkpt lat="42.82904" lon="1.98306">
        <ele>940</ele>
        <time>2024-10-11T08:36:26Z</time>
      </trkpt>
      <trkpt lat="42.82904" lon="1.983">
        <ele>940</ele>
        <time>2024-10-11T08:36:27Z</time>
      </trkpt>
      <trkpt lat="42.82904" lon="1.98294">
        <ele>940</ele>
        <time>2024-10-11T08:36:28Z</time>
      </trkpt>
      <trkpt lat="42.82903" lon="1.98288">
        <ele>940</ele>
        <time>2024-10-11T08:36:29Z</time>
      </trkpt>
      <trkpt lat="42.82903" lon="1.98282">
        <ele>940</ele>
        <time>2024-10-11T08:36:30Z</time>
      </trkpt>
      <trkpt lat="42.82903" lon="1.98276">
        <ele>940</ele>
        <time>2024-10-11T08:36:31Z</time>
      </trkpt>
      <trkpt lat="42.82902" lon="1.9827">
        <ele>940</ele>
        <time>2024-10-11T08:36:32Z</time>
      </trkpt>
      <trkpt lat="42.82902" lon="1.98263">
        <ele>940</ele>
        <time>2024-10-11T08:36:33Z</time>
      </trkpt>
      <trkpt lat="42.82901" lon="1.98257">
        <ele>940</ele>
        <time>2024-10-11T08:36:34Z</time>
      </trkpt>
      <trkpt lat="42.82901" lon="1.98251">
        <ele>940.2</ele>
        <time>2024-10-11T08:36:35Z</time>
      </trkpt>
      <trkpt lat="42.829" lon="1.98244">
        <ele>940.2</ele>
        <time>2024-10-11T08:36:36Z</time>
      </trkpt>
      <trkpt lat="42.829" lon="1.98238">
        <ele>940.2</ele>
        <time>2024-10-11T08:36:37Z</time>
      </trkpt>
      <trkpt lat="42.82899" lon="1.98231">
        <ele>940.2</ele>
        <time>2024-10-11T08:36:38Z</time>
      </trkpt>
      <trkpt lat="42.82899" lon="1.98225">
        <ele>940.4</ele>
        <time>2024-10-11T08:36:39Z</time>
      </trkpt>
      <trkpt lat="42.82898" lon="1.98219">
        <ele>940.4</ele>
        <time>2024-10-11T08:36:40Z</time>
      </trkpt>
      <trkpt lat="42.82898" lon="1.98212">
        <ele>940.4</ele>
        <time>2024-10-11T08:36:41Z</time>
      </trkpt>
      <trkpt lat="42.82897" lon="1.98206">
        <ele>940.4</ele>
        <time>2024-10-11T08:36:42Z</time>
      </trkpt>
      <trkpt lat="42.82897" lon="1.98199">
        <ele>941</ele>
        <time>2024-10-11T08:36:43Z</time>
      </trkpt>
      <trkpt lat="42.82896" lon="1.98193">
        <ele>941</ele>
        <time>2024-10-11T08:36:44Z</time>
      </trkpt>
      <trkpt lat="42.82896" lon="1.98187">
        <ele>941</ele>
        <time>2024-10-11T08:36:45Z</time>
      </trkpt>
      <trkpt lat="42.82895" lon="1.98181">
        <ele>941</ele>
        <time>2024-10-11T08:36:46Z</time>
      </trkpt>
      <trkpt lat="42.82895" lon="1.98175">
        <ele>941</ele>
        <time>2024-10-11T08:36:47Z</time>
      </trkpt>
      <trkpt lat="42.82894" lon="1.98169">
        <ele>941.2</ele>
        <time>2024-10-11T08:36:48Z</time>
      </trkpt>
      <trkpt lat="42.82893" lon="1.98163">
        <ele>941.2</ele>
        <time>2024-10-11T08:36:49Z</time>
      </trkpt>
      <trkpt lat="42.82893" lon="1.98157">
        <ele>941.2</ele>
        <time>2024-10-11T08:36:50Z</time>
      </trkpt>
      <trkpt lat="42.82892" lon="1.98152">
        <ele>941.6</ele>
        <time>2024-10-11T08:36:51Z</time>
      </trkpt>
      <trkpt lat="42.82891" lon="1.98146">
        <ele>941.6</ele>
        <time>2024-10-11T08:36:52Z</time>
      </trkpt>
      <trkpt lat="42.8289" lon="1.9814">
        <ele>941.6</ele>
        <time>2024-10-11T08:36:53Z</time>
      </trkpt>
      <trkpt lat="42.82889" lon="1.98134">
        <ele>941.6</ele>
        <time>2024-10-11T08:36:54Z</time>
      </trkpt>
      <trkpt lat="42.82888" lon="1.98129">
        <ele>941.6</ele>
        <time>2024-10-11T08:36:55Z</time>
      </trkpt>
      <trkpt lat="42.82887" lon="1.98123">
        <ele>941.6</ele>
        <time>2024-10-11T08:36:56Z</time>
      </trkpt>
      <trkpt lat="42.82885" lon="1.98117">
        <ele>942</ele>
        <time>2024-10-11T08:36:57Z</time>
      </trkpt>
      <trkpt lat="42.82884" lon="1.98111">
        <ele>942</ele>
        <time>2024-10-11T08:36:58Z</time>
      </trkpt>
      <trkpt lat="42.82883" lon="1.98106">
        <ele>942</ele>
        <time>2024-10-11T08:36:59Z</time>
      </trkpt>
      <trkpt lat="42.82881" lon="1.981">
        <ele>942</ele>
        <time>2024-10-11T08:37:00Z</time>
      </trkpt>
      <trkpt lat="42.82879" lon="1.98095">
        <ele>942.2</ele>
        <time>2024-10-11T08:37:01Z</time>
      </trkpt>
      <trkpt lat="42.82877" lon="1.98089">
        <ele>942.2</ele>
        <time>2024-10-11T08:37:02Z</time>
      </trkpt>
      <trkpt lat="42.82875" lon="1.98084">
        <ele>942.2</ele>
        <time>2024-10-11T08:37:03Z</time>
      </trkpt>
      <trkpt lat="42.82873" lon="1.98079">
        <ele>942.6</ele>
        <time>2024-10-11T08:37:04Z</time>
      </trkpt>
      <trkpt lat="42.82871" lon="1.98074">
        <ele>942.6</ele>
        <time>2024-10-11T08:37:05Z</time>
      </trkpt>
      <trkpt lat="42.82869" lon="1.98069">
        <ele>943</ele>
        <time>2024-10-11T08:37:06Z</time>
      </trkpt>
      <trkpt lat="42.82866" lon="1.98064">
        <ele>943</ele>
        <time>2024-10-11T08:37:07Z</time>
      </trkpt>
      <trkpt lat="42.82864" lon="1.98059">
        <ele>943</ele>
        <time>2024-10-11T08:37:08Z</time>
      </trkpt>
      <trkpt lat="42.82862" lon="1.98054">
        <ele>943</ele>
        <time>2024-10-11T08:37:09Z</time>
      </trkpt>
      <trkpt lat="42.82859" lon="1.98049">
        <ele>943</ele>
        <time>2024-10-11T08:37:10Z</time>
      </trkpt>
      <trkpt lat="42.82857" lon="1.98045">
        <ele>943</ele>
        <time>2024-10-11T08:37:11Z</time>
      </trkpt>
      <trkpt lat="42.82854" lon="1.9804">
        <ele>943</ele>
        <time>2024-10-11T08:37:12Z</time>
      </trkpt>
      <trkpt lat="42.82851" lon="1.98035">
        <ele>943</ele>
        <time>2024-10-11T08:37:13Z</time>
      </trkpt>
      <trkpt lat="42.82848" lon="1.9803">
        <ele>943.4</ele>
        <time>2024-10-11T08:37:14Z</time>
      </trkpt>
      <trkpt lat="42.82845" lon="1.98026">
        <ele>943.4</ele>
        <time>2024-10-11T08:37:15Z</time>
      </trkpt>
      <trkpt lat="42.82843" lon="1.98021">
        <ele>943.6</ele>
        <time>2024-10-11T08:37:16Z</time>
      </trkpt>
      <trkpt lat="42.8284" lon="1.98017">
        <ele>943.6</ele>
        <time>2024-10-11T08:37:17Z</time>
      </trkpt>
      <trkpt lat="42.82838" lon="1.98012">
        <ele>943.6</ele>
        <time>2024-10-11T08:37:18Z</time>
      </trkpt>
      <trkpt lat="42.82835" lon="1.98007">
        <ele>944.2</ele>
        <time>2024-10-11T08:37:19Z</time>
      </trkpt>
      <trkpt lat="42.82833" lon="1.98002">
        <ele>944.2</ele>
        <time>2024-10-11T08:37:20Z</time>
      </trkpt>
      <trkpt lat="42.82831" lon="1.97998">
        <ele>944.2</ele>
        <time>2024-10-11T08:37:21Z</time>
      </trkpt>
      <trkpt lat="42.82828" lon="1.97994">
        <ele>944.2</ele>
        <time>2024-10-11T08:37:22Z</time>
      </trkpt>
      <trkpt lat="42.82825" lon="1.97989">
        <ele>944.2</ele>
        <time>2024-10-11T08:37:23Z</time>
      </trkpt>
      <trkpt lat="42.82823" lon="1.97985">
        <ele>944.6</ele>
        <time>2024-10-11T08:37:24Z</time>
      </trkpt>
      <trkpt lat="42.8282" lon="1.9798">
        <ele>944.6</ele>
        <time>2024-10-11T08:37:25Z</time>
      </trkpt>
      <trkpt lat="42.82818" lon="1.97975">
        <ele>944.6</ele>
        <time>2024-10-11T08:37:26Z</time>
      </trkpt>
      <trkpt lat="42.82815" lon="1.97971">
        <ele>945.4</ele>
        <time>2024-10-11T08:37:27Z</time>
      </trkpt>
      <trkpt lat="42.82813" lon="1.97966">
        <ele>945.4</ele>
        <time>2024-10-11T08:37:28Z</time>
      </trkpt>
      <trkpt lat="42.82811" lon="1.97962">
        <ele>945.2</ele>
        <time>2024-10-11T08:37:29Z</time>
      </trkpt>
      <trkpt lat="42.82809" lon="1.97957">
        <ele>945.2</ele>
        <time>2024-10-11T08:37:30Z</time>
      </trkpt>
      <trkpt lat="42.82806" lon="1.97953">
        <ele>945.2</ele>
        <time>2024-10-11T08:37:31Z</time>
      </trkpt>
      <trkpt lat="42.82805" lon="1.9795">
        <ele>946</ele>
        <time>2024-10-11T08:37:32Z</time>
      </trkpt>
      <trkpt lat="42.82802" lon="1.97945">
        <ele>946.2</ele>
        <time>2024-10-11T08:37:33Z</time>
      </trkpt>
      <trkpt lat="42.828" lon="1.97941">
        <ele>946.2</ele>
        <time>2024-10-11T08:37:34Z</time>
      </trkpt>
      <trkpt lat="42.82797" lon="1.97936">
        <ele>946.2</ele>
        <time>2024-10-11T08:37:35Z</time>
      </trkpt>
      <trkpt lat="42.82795" lon="1.97932">
        <ele>946.2</ele>
        <time>2024-10-11T08:37:36Z</time>
      </trkpt>
      <trkpt lat="42.82792" lon="1.97927">
        <ele>946.6</ele>
        <time>2024-10-11T08:37:37Z</time>
      </trkpt>
      <trkpt lat="42.8279" lon="1.97923">
        <ele>946.6</ele>
        <time>2024-10-11T08:37:38Z</time>
      </trkpt>
      <trkpt lat="42.82787" lon="1.97918">
        <ele>946.6</ele>
        <time>2024-10-11T08:37:39Z</time>
      </trkpt>
      <trkpt lat="42.82785" lon="1.97914">
        <ele>946.6</ele>
        <time>2024-10-11T08:37:40Z</time>
      </trkpt>
      <trkpt lat="42.82782" lon="1.9791">
        <ele>946.8</ele>
        <time>2024-10-11T08:37:41Z</time>
      </trkpt>
      <trkpt lat="42.8278" lon="1.97905">
        <ele>947</ele>
        <time>2024-10-11T08:37:42Z</time>
      </trkpt>
      <trkpt lat="42.82778" lon="1.979">
        <ele>947</ele>
        <time>2024-10-11T08:37:43Z</time>
      </trkpt>
      <trkpt lat="42.82775" lon="1.97896">
        <ele>947</ele>
        <time>2024-10-11T08:37:44Z</time>
      </trkpt>
      <trkpt lat="42.82773" lon="1.97892">
        <ele>947.4</ele>
        <time>2024-10-11T08:37:45Z</time>
      </trkpt>
      <trkpt lat="42.82771" lon="1.97887">
        <ele>947.6</ele>
        <time>2024-10-11T08:37:46Z</time>
      </trkpt>
      <trkpt lat="42.82768" lon="1.97883">
        <ele>947.6</ele>
        <time>2024-10-11T08:37:47Z</time>
      </trkpt>
      <trkpt lat="42.82766" lon="1.97879">
        <ele>947.6</ele>
        <time>2024-10-11T08:37:48Z</time>
      </trkpt>
      <trkpt lat="42.82763" lon="1.97875">
        <ele>947.6</ele>
        <time>2024-10-11T08:37:49Z</time>
      </trkpt>
      <trkpt lat="42.82761" lon="1.9787">
        <ele>947.6</ele>
        <time>2024-10-11T08:37:50Z</time>
      </trkpt>
      <trkpt lat="42.82758" lon="1.97866">
        <ele>947.6</ele>
        <time>2024-10-11T08:37:51Z</time>
      </trkpt>
      <trkpt lat="42.82756" lon="1.97861">
        <ele>948</ele>
        <time>2024-10-11T08:37:52Z</time>
      </trkpt>
      <trkpt lat="42.82754" lon="1.97856">
        <ele>948</ele>
        <time>2024-10-11T08:37:53Z</time>
      </trkpt>
      <trkpt lat="42.82751" lon="1.97852">
        <ele>948</ele>
        <time>2024-10-11T08:37:54Z</time>
      </trkpt>
      <trkpt lat="42.82749" lon="1.97848">
        <ele>948.4</ele>
        <time>2024-10-11T08:37:55Z</time>
      </trkpt>
      <trkpt lat="42.82746" lon="1.97843">
        <ele>948.2</ele>
        <time>2024-10-11T08:37:56Z</time>
      </trkpt>
      <trkpt lat="42.82744" lon="1.97839">
        <ele>948.2</ele>
        <time>2024-10-11T08:37:57Z</time>
      </trkpt>
      <trkpt lat="42.82742" lon="1.97834">
        <ele>948.2</ele>
        <time>2024-10-11T08:37:58Z</time>
      </trkpt>
      <trkpt lat="42.82739" lon="1.9783">
        <ele>948.6</ele>
        <time>2024-10-11T08:37:59Z</time>
      </trkpt>
      <trkpt lat="42.82737" lon="1.97826">
        <ele>948.6</ele>
        <time>2024-10-11T08:38:00Z</time>
      </trkpt>
      <trkpt lat="42.82734" lon="1.97821">
        <ele>948.8</ele>
        <time>2024-10-11T08:38:01Z</time>
      </trkpt>
      <trkpt lat="42.82732" lon="1.97817">
        <ele>948.8</ele>
        <time>2024-10-11T08:38:02Z</time>
      </trkpt>
      <trkpt lat="42.8273" lon="1.97812">
        <ele>948.8</ele>
        <time>2024-10-11T08:38:03Z</time>
      </trkpt>
      <trkpt lat="42.82727" lon="1.97808">
        <ele>949.2</ele>
        <time>2024-10-11T08:38:04Z</time>
      </trkpt>
      <trkpt lat="42.82725" lon="1.97804">
        <ele>949.2</ele>
        <time>2024-10-11T08:38:05Z</time>
      </trkpt>
      <trkpt lat="42.82722" lon="1.97799">
        <ele>949.2</ele>
        <time>2024-10-11T08:38:06Z</time>
      </trkpt>
      <trkpt lat="42.8272" lon="1.97795">
        <ele>949.2</ele>
        <time>2024-10-11T08:38:07Z</time>
      </trkpt>
      <trkpt lat="42.82717" lon="1.9779">
        <ele>949.2</ele>
        <time>2024-10-11T08:38:08Z</time>
      </trkpt>
      <trkpt lat="42.82715" lon="1.97786">
        <ele>949.6</ele>
        <time>2024-10-11T08:38:09Z</time>
      </trkpt>
      <trkpt lat="42.82712" lon="1.97781">
        <ele>949.6</ele>
        <time>2024-10-11T08:38:10Z</time>
      </trkpt>
      <trkpt lat="42.8271" lon="1.97777">
        <ele>949.6</ele>
        <time>2024-10-11T08:38:11Z</time>
      </trkpt>
      <trkpt lat="42.82707" lon="1.97773">
        <ele>949.6</ele>
        <time>2024-10-11T08:38:12Z</time>
      </trkpt>
      <trkpt lat="42.82705" lon="1.97768">
        <ele>950.2</ele>
        <time>2024-10-11T08:38:13Z</time>
      </trkpt>
      <trkpt lat="42.82702" lon="1.97764">
        <ele>950.2</ele>
        <time>2024-10-11T08:38:14Z</time>
      </trkpt>
      <trkpt lat="42.827" lon="1.97759">
        <ele>950.2</ele>
        <time>2024-10-11T08:38:15Z</time>
      </trkpt>
      <trkpt lat="42.82698" lon="1.97755">
        <ele>950.2</ele>
        <time>2024-10-11T08:38:16Z</time>
      </trkpt>
      <trkpt lat="42.82695" lon="1.97751">
        <ele>950.2</ele>
        <time>2024-10-11T08:38:17Z</time>
      </trkpt>
      <trkpt lat="42.82693" lon="1.97746">
        <ele>950.8</ele>
        <time>2024-10-11T08:38:18Z</time>
      </trkpt>
      <trkpt lat="42.8269" lon="1.97742">
        <ele>950.8</ele>
        <time>2024-10-11T08:38:19Z</time>
      </trkpt>
      <trkpt lat="42.82688" lon="1.97738">
        <ele>950.8</ele>
        <time>2024-10-11T08:38:20Z</time>
      </trkpt>
      <trkpt lat="42.82686" lon="1.97733">
        <ele>950.6</ele>
        <time>2024-10-11T08:38:21Z</time>
      </trkpt>
      <trkpt lat="42.82683" lon="1.97729">
        <ele>950.6</ele>
        <time>2024-10-11T08:38:22Z</time>
      </trkpt>
      <trkpt lat="42.82681" lon="1.97725">
        <ele>951.4</ele>
        <time>2024-10-11T08:38:23Z</time>
      </trkpt>
      <trkpt lat="42.82678" lon="1.9772">
        <ele>951.4</ele>
        <time>2024-10-11T08:38:24Z</time>
      </trkpt>
      <trkpt lat="42.82676" lon="1.97716">
        <ele>951.4</ele>
        <time>2024-10-11T08:38:25Z</time>
      </trkpt>
      <trkpt lat="42.82674" lon="1.97711">
        <ele>951.4</ele>
        <time>2024-10-11T08:38:26Z</time>
      </trkpt>
      <trkpt lat="42.82672" lon="1.97707">
        <ele>951.6</ele>
        <time>2024-10-11T08:38:27Z</time>
      </trkpt>
      <trkpt lat="42.82669" lon="1.97702">
        <ele>951.6</ele>
        <time>2024-10-11T08:38:28Z</time>
      </trkpt>
      <trkpt lat="42.82666" lon="1.97698">
        <ele>951.6</ele>
        <time>2024-10-11T08:38:29Z</time>
      </trkpt>
      <trkpt lat="42.82664" lon="1.97693">
        <ele>951.6</ele>
        <time>2024-10-11T08:38:30Z</time>
      </trkpt>
      <trkpt lat="42.82661" lon="1.97689">
        <ele>951.6</ele>
        <time>2024-10-11T08:38:31Z</time>
      </trkpt>
      <trkpt lat="42.82659" lon="1.97684">
        <ele>951.8</ele>
        <time>2024-10-11T08:38:32Z</time>
      </trkpt>
      <trkpt lat="42.82656" lon="1.97679">
        <ele>951.8</ele>
        <time>2024-10-11T08:38:33Z</time>
      </trkpt>
      <trkpt lat="42.82654" lon="1.97675">
        <ele>951.8</ele>
        <time>2024-10-11T08:38:34Z</time>
      </trkpt>
      <trkpt lat="42.82651" lon="1.9767">
        <ele>951.8</ele>
        <time>2024-10-11T08:38:35Z</time>
      </trkpt>
      <trkpt lat="42.82649" lon="1.97666">
        <ele>952</ele>
        <time>2024-10-11T08:38:36Z</time>
      </trkpt>
      <trkpt lat="42.82646" lon="1.97662">
        <ele>952.2</ele>
        <time>2024-10-11T08:38:37Z</time>
      </trkpt>
      <trkpt lat="42.82644" lon="1.97657">
        <ele>952.2</ele>
        <time>2024-10-11T08:38:38Z</time>
      </trkpt>
      <trkpt lat="42.82641" lon="1.97653">
        <ele>952.2</ele>
        <time>2024-10-11T08:38:39Z</time>
      </trkpt>
      <trkpt lat="42.82639" lon="1.97648">
        <ele>952.6</ele>
        <time>2024-10-11T08:38:40Z</time>
      </trkpt>
      <trkpt lat="42.82636" lon="1.97644">
        <ele>952.6</ele>
        <time>2024-10-11T08:38:41Z</time>
      </trkpt>
      <trkpt lat="42.82634" lon="1.97639">
        <ele>952.6</ele>
        <time>2024-10-11T08:38:42Z</time>
      </trkpt>
      <trkpt lat="42.82631" lon="1.97635">
        <ele>952.6</ele>
        <time>2024-10-11T08:38:43Z</time>
      </trkpt>
      <trkpt lat="42.82629" lon="1.9763">
        <ele>952.6</ele>
        <time>2024-10-11T08:38:44Z</time>
      </trkpt>
      <trkpt lat="42.82627" lon="1.97626">
        <ele>952.6</ele>
        <time>2024-10-11T08:38:45Z</time>
      </trkpt>
      <trkpt lat="42.82624" lon="1.97621">
        <ele>953</ele>
        <time>2024-10-11T08:38:46Z</time>
      </trkpt>
      <trkpt lat="42.82622" lon="1.97617">
        <ele>953</ele>
        <time>2024-10-11T08:38:47Z</time>
      </trkpt>
      <trkpt lat="42.8262" lon="1.97613">
        <ele>953</ele>
        <time>2024-10-11T08:38:48Z</time>
      </trkpt>
      <trkpt lat="42.82617" lon="1.97608">
        <ele>953.2</ele>
        <time>2024-10-11T08:38:49Z</time>
      </trkpt>
      <trkpt lat="42.82615" lon="1.97604">
        <ele>953.4</ele>
        <time>2024-10-11T08:38:50Z</time>
      </trkpt>
      <trkpt lat="42.82612" lon="1.97599">
        <ele>953.4</ele>
        <time>2024-10-11T08:38:51Z</time>
      </trkpt>
      <trkpt lat="42.8261" lon="1.97595">
        <ele>953.4</ele>
        <time>2024-10-11T08:38:52Z</time>
      </trkpt>
      <trkpt lat="42.82607" lon="1.9759">
        <ele>953.8</ele>
        <time>2024-10-11T08:38:53Z</time>
      </trkpt>
      <trkpt lat="42.82605" lon="1.97585">
        <ele>953.4</ele>
        <time>2024-10-11T08:38:54Z</time>
      </trkpt>
      <trkpt lat="42.82602" lon="1.97581">
        <ele>953.4</ele>
        <time>2024-10-11T08:38:55Z</time>
      </trkpt>
      <trkpt lat="42.826" lon="1.97576">
        <ele>953.4</ele>
        <time>2024-10-11T08:38:56Z</time>
      </trkpt>
      <trkpt lat="42.82598" lon="1.97572">
        <ele>953.4</ele>
        <time>2024-10-11T08:38:57Z</time>
      </trkpt>
      <trkpt lat="42.82595" lon="1.97567">
        <ele>954</ele>
        <time>2024-10-11T08:38:58Z</time>
      </trkpt>
      <trkpt lat="42.82592" lon="1.97562">
        <ele>953.8</ele>
        <time>2024-10-11T08:38:59Z</time>
      </trkpt>
      <trkpt lat="42.8259" lon="1.97558">
        <ele>953.8</ele>
        <time>2024-10-11T08:39:00Z</time>
      </trkpt>
      <trkpt lat="42.82587" lon="1.97554">
        <ele>953.8</ele>
        <time>2024-10-11T08:39:01Z</time>
      </trkpt>
      <trkpt lat="42.82585" lon="1.97549">
        <ele>954.8</ele>
        <time>2024-10-11T08:39:02Z</time>
      </trkpt>
      <trkpt lat="42.82582" lon="1.97544">
        <ele>954.8</ele>
        <time>2024-10-11T08:39:03Z</time>
      </trkpt>
      <trkpt lat="42.8258" lon="1.9754">
        <ele>954.6</ele>
        <time>2024-10-11T08:39:04Z</time>
      </trkpt>
      <trkpt lat="42.82578" lon="1.97535">
        <ele>954.6</ele>
        <time>2024-10-11T08:39:05Z</time>
      </trkpt>
      <trkpt lat="42.82575" lon="1.97531">
        <ele>954.6</ele>
        <time>2024-10-11T08:39:06Z</time>
      </trkpt>
      <trkpt lat="42.82573" lon="1.97526">
        <ele>954.8</ele>
        <time>2024-10-11T08:39:07Z</time>
      </trkpt>
      <trkpt lat="42.8257" lon="1.97522">
        <ele>954.8</ele>
        <time>2024-10-11T08:39:08Z</time>
      </trkpt>
      <trkpt lat="42.82568" lon="1.97517">
        <ele>954.8</ele>
        <time>2024-10-11T08:39:09Z</time>
      </trkpt>
      <trkpt lat="42.82565" lon="1.97513">
        <ele>954.8</ele>
        <time>2024-10-11T08:39:10Z</time>
      </trkpt>
      <trkpt lat="42.82563" lon="1.97509">
        <ele>954.8</ele>
        <time>2024-10-11T08:39:11Z</time>
      </trkpt>
      <trkpt lat="42.8256" lon="1.97505">
        <ele>954.8</ele>
        <time>2024-10-11T08:39:12Z</time>
      </trkpt>
      <trkpt lat="42.82558" lon="1.975">
        <ele>954.8</ele>
        <time>2024-10-11T08:39:13Z</time>
      </trkpt>
      <trkpt lat="42.82556" lon="1.97496">
        <ele>954.8</ele>
        <time>2024-10-11T08:39:14Z</time>
      </trkpt>
      <trkpt lat="42.82553" lon="1.97491">
        <ele>954.8</ele>
        <time>2024-10-11T08:39:15Z</time>
      </trkpt>
      <trkpt lat="42.82551" lon="1.97486">
        <ele>955.8</ele>
        <time>2024-10-11T08:39:16Z</time>
      </trkpt>
      <trkpt lat="42.82548" lon="1.97482">
        <ele>955.8</ele>
        <time>2024-10-11T08:39:17Z</time>
      </trkpt>
      <trkpt lat="42.82546" lon="1.97478">
        <ele>956</ele>
        <time>2024-10-11T08:39:18Z</time>
      </trkpt>
      <trkpt lat="42.82543" lon="1.97473">
        <ele>956</ele>
        <time>2024-10-11T08:39:19Z</time>
      </trkpt>
      <trkpt lat="42.8254" lon="1.97468">
        <ele>956</ele>
        <time>2024-10-11T08:39:20Z</time>
      </trkpt>
      <trkpt lat="42.82538" lon="1.97464">
        <ele>956.2</ele>
        <time>2024-10-11T08:39:21Z</time>
      </trkpt>
      <trkpt lat="42.82536" lon="1.97459">
        <ele>956.4</ele>
        <time>2024-10-11T08:39:22Z</time>
      </trkpt>
      <trkpt lat="42.82533" lon="1.97454">
        <ele>956.4</ele>
        <time>2024-10-11T08:39:23Z</time>
      </trkpt>
      <trkpt lat="42.82531" lon="1.9745">
        <ele>956.4</ele>
        <time>2024-10-11T08:39:24Z</time>
      </trkpt>
      <trkpt lat="42.82528" lon="1.97446">
        <ele>956.4</ele>
        <time>2024-10-11T08:39:25Z</time>
      </trkpt>
      <trkpt lat="42.82526" lon="1.97441">
        <ele>956.4</ele>
        <time>2024-10-11T08:39:26Z</time>
      </trkpt>
      <trkpt lat="42.82524" lon="1.97437">
        <ele>956.8</ele>
        <time>2024-10-11T08:39:27Z</time>
      </trkpt>
      <trkpt lat="42.82521" lon="1.97432">
        <ele>956.8</ele>
        <time>2024-10-11T08:39:28Z</time>
      </trkpt>
      <trkpt lat="42.82519" lon="1.97428">
        <ele>956.8</ele>
        <time>2024-10-11T08:39:29Z</time>
      </trkpt>
      <trkpt lat="42.82516" lon="1.97423">
        <ele>957</ele>
        <time>2024-10-11T08:39:30Z</time>
      </trkpt>
      <trkpt lat="42.82514" lon="1.97419">
        <ele>957.4</ele>
        <time>2024-10-11T08:39:31Z</time>
      </trkpt>
      <trkpt lat="42.82511" lon="1.97414">
        <ele>957.4</ele>
        <time>2024-10-11T08:39:32Z</time>
      </trkpt>
      <trkpt lat="42.82509" lon="1.9741">
        <ele>957.4</ele>
        <time>2024-10-11T08:39:33Z</time>
      </trkpt>
      <trkpt lat="42.82506" lon="1.97406">
        <ele>957.4</ele>
        <time>2024-10-11T08:39:34Z</time>
      </trkpt>
      <trkpt lat="42.82504" lon="1.97401">
        <ele>957.4</ele>
        <time>2024-10-11T08:39:35Z</time>
      </trkpt>
      <trkpt lat="42.82502" lon="1.97397">
        <ele>957.4</ele>
        <time>2024-10-11T08:39:36Z</time>
      </trkpt>
      <trkpt lat="42.82499" lon="1.97392">
        <ele>957.4</ele>
        <time>2024-10-11T08:39:37Z</time>
      </trkpt>
      <trkpt lat="42.82497" lon="1.97388">
        <ele>957.4</ele>
        <time>2024-10-11T08:39:38Z</time>
      </trkpt>
      <trkpt lat="42.82495" lon="1.97383">
        <ele>958</ele>
        <time>2024-10-11T08:39:39Z</time>
      </trkpt>
      <trkpt lat="42.82492" lon="1.97379">
        <ele>958</ele>
        <time>2024-10-11T08:39:40Z</time>
      </trkpt>
      <trkpt lat="42.8249" lon="1.97374">
        <ele>958</ele>
        <time>2024-10-11T08:39:41Z</time>
      </trkpt>
      <trkpt lat="42.82487" lon="1.9737">
        <ele>958</ele>
        <time>2024-10-11T08:39:42Z</time>
      </trkpt>
      <trkpt lat="42.82485" lon="1.97366">
        <ele>958.6</ele>
        <time>2024-10-11T08:39:43Z</time>
      </trkpt>
      <trkpt lat="42.82482" lon="1.97361">
        <ele>958.4</ele>
        <time>2024-10-11T08:39:44Z</time>
      </trkpt>
      <trkpt lat="42.8248" lon="1.97356">
        <ele>958.4</ele>
        <time>2024-10-11T08:39:45Z</time>
      </trkpt>
      <trkpt lat="42.82477" lon="1.97352">
        <ele>958.4</ele>
        <time>2024-10-11T08:39:46Z</time>
      </trkpt>
      <trkpt lat="42.82475" lon="1.97347">
        <ele>958.4</ele>
        <time>2024-10-11T08:39:47Z</time>
      </trkpt>
      <trkpt lat="42.82472" lon="1.97343">
        <ele>959.4</ele>
        <time>2024-10-11T08:39:48Z</time>
      </trkpt>
      <trkpt lat="42.8247" lon="1.97338">
        <ele>959.4</ele>
        <time>2024-10-11T08:39:49Z</time>
      </trkpt>
      <trkpt lat="42.82467" lon="1.97334">
        <ele>959.4</ele>
        <time>2024-10-11T08:39:50Z</time>
      </trkpt>
      <trkpt lat="42.82465" lon="1.97329">
        <ele>959.4</ele>
        <time>2024-10-11T08:39:51Z</time>
      </trkpt>
      <trkpt lat="42.82462" lon="1.97325">
        <ele>959.4</ele>
        <time>2024-10-11T08:39:52Z</time>
      </trkpt>
      <trkpt lat="42.8246" lon="1.97321">
        <ele>959.8</ele>
        <time>2024-10-11T08:39:53Z</time>
      </trkpt>
      <trkpt lat="42.82458" lon="1.97316">
        <ele>959.8</ele>
        <time>2024-10-11T08:39:54Z</time>
      </trkpt>
      <trkpt lat="42.82455" lon="1.97312">
        <ele>959.8</ele>
        <time>2024-10-11T08:39:55Z</time>
      </trkpt>
      <trkpt lat="42.82453" lon="1.97308">
        <ele>959.8</ele>
        <time>2024-10-11T08:39:56Z</time>
      </trkpt>
      <trkpt lat="42.82451" lon="1.97303">
        <ele>959.8</ele>
        <time>2024-10-11T08:39:57Z</time>
      </trkpt>
      <trkpt lat="42.82448" lon="1.97299">
        <ele>959.8</ele>
        <time>2024-10-11T08:39:58Z</time>
      </trkpt>
      <trkpt lat="42.82446" lon="1.97295">
        <ele>959.8</ele>
        <time>2024-10-11T08:39:59Z</time>
      </trkpt>
      <trkpt lat="42.82444" lon="1.9729">
        <ele>959.8</ele>
        <time>2024-10-11T08:40:00Z</time>
      </trkpt>
      <trkpt lat="42.82441" lon="1.97286">
        <ele>959.8</ele>
        <time>2024-10-11T08:40:01Z</time>
      </trkpt>
      <trkpt lat="42.82439" lon="1.97282">
        <ele>960.2</ele>
        <time>2024-10-11T08:40:02Z</time>
      </trkpt>
      <trkpt lat="42.82437" lon="1.97277">
        <ele>960.2</ele>
        <time>2024-10-11T08:40:03Z</time>
      </trkpt>
      <trkpt lat="42.82434" lon="1.97273">
        <ele>960.2</ele>
        <time>2024-10-11T08:40:04Z</time>
      </trkpt>
      <trkpt lat="42.82432" lon="1.97268">
        <ele>960.2</ele>
        <time>2024-10-11T08:40:05Z</time>
      </trkpt>
      <trkpt lat="42.8243" lon="1.97264">
        <ele>961</ele>
        <time>2024-10-11T08:40:06Z</time>
      </trkpt>
      <trkpt lat="42.82427" lon="1.97259">
        <ele>961.6</ele>
        <time>2024-10-11T08:40:07Z</time>
      </trkpt>
      <trkpt lat="42.82424" lon="1.97255">
        <ele>961.6</ele>
        <time>2024-10-11T08:40:08Z</time>
      </trkpt>
      <trkpt lat="42.82422" lon="1.97251">
        <ele>961.6</ele>
        <time>2024-10-11T08:40:09Z</time>
      </trkpt>
      <trkpt lat="42.82419" lon="1.97247">
        <ele>961</ele>
        <time>2024-10-11T08:40:10Z</time>
      </trkpt>
      <trkpt lat="42.82417" lon="1.97242">
        <ele>961</ele>
        <time>2024-10-11T08:40:11Z</time>
      </trkpt>
      <trkpt lat="42.82415" lon="1.97238">
        <ele>962</ele>
        <time>2024-10-11T08:40:12Z</time>
      </trkpt>
      <trkpt lat="42.82412" lon="1.97233">
        <ele>962</ele>
        <time>2024-10-11T08:40:13Z</time>
      </trkpt>
      <trkpt lat="42.8241" lon="1.97229">
        <ele>962</ele>
        <time>2024-10-11T08:40:14Z</time>
      </trkpt>
      <trkpt lat="42.82408" lon="1.97225">
        <ele>961.2</ele>
        <time>2024-10-11T08:40:15Z</time>
      </trkpt>
      <trkpt lat="42.82406" lon="1.9722">
        <ele>961</ele>
        <time>2024-10-11T08:40:16Z</time>
      </trkpt>
      <trkpt lat="42.82403" lon="1.97216">
        <ele>961</ele>
        <time>2024-10-11T08:40:17Z</time>
      </trkpt>
      <trkpt lat="42.82401" lon="1.97211">
        <ele>961</ele>
        <time>2024-10-11T08:40:18Z</time>
      </trkpt>
      <trkpt lat="42.82398" lon="1.97207">
        <ele>961.6</ele>
        <time>2024-10-11T08:40:19Z</time>
      </trkpt>
      <trkpt lat="42.82396" lon="1.97203">
        <ele>962.2</ele>
        <time>2024-10-11T08:40:20Z</time>
      </trkpt>
      <trkpt lat="42.82394" lon="1.97198">
        <ele>962.2</ele>
        <time>2024-10-11T08:40:21Z</time>
      </trkpt>
      <trkpt lat="42.82391" lon="1.97194">
        <ele>962.2</ele>
        <time>2024-10-11T08:40:22Z</time>
      </trkpt>
      <trkpt lat="42.82389" lon="1.97189">
        <ele>962.2</ele>
        <time>2024-10-11T08:40:23Z</time>
      </trkpt>
      <trkpt lat="42.82386" lon="1.97184">
        <ele>962.2</ele>
        <time>2024-10-11T08:40:24Z</time>
      </trkpt>
      <trkpt lat="42.82384" lon="1.9718">
        <ele>962.8</ele>
        <time>2024-10-11T08:40:25Z</time>
      </trkpt>
      <trkpt lat="42.82381" lon="1.97175">
        <ele>962.8</ele>
        <time>2024-10-11T08:40:26Z</time>
      </trkpt>
      <trkpt lat="42.82379" lon="1.97172">
        <ele>962.8</ele>
        <time>2024-10-11T08:40:27Z</time>
      </trkpt>
      <trkpt lat="42.82377" lon="1.97167">
        <ele>962.8</ele>
        <time>2024-10-11T08:40:28Z</time>
      </trkpt>
      <trkpt lat="42.82374" lon="1.97162">
        <ele>962.8</ele>
        <time>2024-10-11T08:40:29Z</time>
      </trkpt>
      <trkpt lat="42.82372" lon="1.97158">
        <ele>962.8</ele>
        <time>2024-10-11T08:40:30Z</time>
      </trkpt>
      <trkpt lat="42.82369" lon="1.97154">
        <ele>962.8</ele>
        <time>2024-10-11T08:40:31Z</time>
      </trkpt>
      <trkpt lat="42.82367" lon="1.97149">
        <ele>962.8</ele>
        <time>2024-10-11T08:40:32Z</time>
      </trkpt>
      <trkpt lat="42.82365" lon="1.97145">
        <ele>962.8</ele>
        <time>2024-10-11T08:40:33Z</time>
      </trkpt>
      <trkpt lat="42.82362" lon="1.9714">
        <ele>963.6</ele>
        <time>2024-10-11T08:40:34Z</time>
      </trkpt>
      <trkpt lat="42.8236" lon="1.97135">
        <ele>963.6</ele>
        <time>2024-10-11T08:40:35Z</time>
      </trkpt>
      <trkpt lat="42.82357" lon="1.97131">
        <ele>963.6</ele>
        <time>2024-10-11T08:40:36Z</time>
      </trkpt>
      <trkpt lat="42.82354" lon="1.97126">
        <ele>963.6</ele>
        <time>2024-10-11T08:40:37Z</time>
      </trkpt>
      <trkpt lat="42.82352" lon="1.97122">
        <ele>964</ele>
        <time>2024-10-11T08:40:38Z</time>
      </trkpt>
      <trkpt lat="42.82349" lon="1.97117">
        <ele>964</ele>
        <time>2024-10-11T08:40:39Z</time>
      </trkpt>
      <trkpt lat="42.82347" lon="1.97113">
        <ele>964</ele>
        <time>2024-10-11T08:40:40Z</time>
      </trkpt>
      <trkpt lat="42.82344" lon="1.97108">
        <ele>964</ele>
        <time>2024-10-11T08:40:41Z</time>
      </trkpt>
      <trkpt lat="42.82342" lon="1.97104">
        <ele>964</ele>
        <time>2024-10-11T08:40:42Z</time>
      </trkpt>
      <trkpt lat="42.82339" lon="1.97099">
        <ele>964</ele>
        <time>2024-10-11T08:40:43Z</time>
      </trkpt>
      <trkpt lat="42.82337" lon="1.97095">
        <ele>964.4</ele>
        <time>2024-10-11T08:40:44Z</time>
      </trkpt>
      <trkpt lat="42.82335" lon="1.9709">
        <ele>964.4</ele>
        <time>2024-10-11T08:40:45Z</time>
      </trkpt>
      <trkpt lat="42.82332" lon="1.97086">
        <ele>964.4</ele>
        <time>2024-10-11T08:40:46Z</time>
      </trkpt>
      <trkpt lat="42.8233" lon="1.97082">
        <ele>964.8</ele>
        <time>2024-10-11T08:40:47Z</time>
      </trkpt>
      <trkpt lat="42.82327" lon="1.97077">
        <ele>965</ele>
        <time>2024-10-11T08:40:48Z</time>
      </trkpt>
      <trkpt lat="42.82325" lon="1.97073">
        <ele>965</ele>
        <time>2024-10-11T08:40:49Z</time>
      </trkpt>
      <trkpt lat="42.82323" lon="1.97069">
        <ele>965</ele>
        <time>2024-10-11T08:40:50Z</time>
      </trkpt>
      <trkpt lat="42.8232" lon="1.97064">
        <ele>965</ele>
        <time>2024-10-11T08:40:51Z</time>
      </trkpt>
      <trkpt lat="42.82318" lon="1.9706">
        <ele>965</ele>
        <time>2024-10-11T08:40:52Z</time>
      </trkpt>
      <trkpt lat="42.82315" lon="1.97056">
        <ele>965</ele>
        <time>2024-10-11T08:40:53Z</time>
      </trkpt>
      <trkpt lat="42.82313" lon="1.97051">
        <ele>965</ele>
        <time>2024-10-11T08:40:54Z</time>
      </trkpt>
      <trkpt lat="42.8231" lon="1.97047">
        <ele>965</ele>
        <time>2024-10-11T08:40:55Z</time>
      </trkpt>
      <trkpt lat="42.82308" lon="1.97043">
        <ele>965.6</ele>
        <time>2024-10-11T08:40:56Z</time>
      </trkpt>
      <trkpt lat="42.82306" lon="1.97038">
        <ele>965.4</ele>
        <time>2024-10-11T08:40:57Z</time>
      </trkpt>
      <trkpt lat="42.82303" lon="1.97034">
        <ele>965.4</ele>
        <time>2024-10-11T08:40:58Z</time>
      </trkpt>
      <trkpt lat="42.82301" lon="1.9703">
        <ele>965.4</ele>
        <time>2024-10-11T08:40:59Z</time>
      </trkpt>
      <trkpt lat="42.82299" lon="1.97026">
        <ele>966.4</ele>
        <time>2024-10-11T08:41:00Z</time>
      </trkpt>
      <trkpt lat="42.82296" lon="1.97022">
        <ele>966.2</ele>
        <time>2024-10-11T08:41:01Z</time>
      </trkpt>
      <trkpt lat="42.82294" lon="1.97017">
        <ele>966.2</ele>
        <time>2024-10-11T08:41:02Z</time>
      </trkpt>
      <trkpt lat="42.82292" lon="1.97013">
        <ele>966.2</ele>
        <time>2024-10-11T08:41:03Z</time>
      </trkpt>
      <trkpt lat="42.82289" lon="1.97009">
        <ele>966.2</ele>
        <time>2024-10-11T08:41:04Z</time>
      </trkpt>
      <trkpt lat="42.82287" lon="1.97005">
        <ele>967</ele>
        <time>2024-10-11T08:41:05Z</time>
      </trkpt>
      <trkpt lat="42.82285" lon="1.97">
        <ele>966.8</ele>
        <time>2024-10-11T08:41:06Z</time>
      </trkpt>
      <trkpt lat="42.82282" lon="1.96996">
        <ele>966.8</ele>
        <time>2024-10-11T08:41:07Z</time>
      </trkpt>
      <trkpt lat="42.8228" lon="1.96991">
        <ele>966.8</ele>
        <time>2024-10-11T08:41:08Z</time>
      </trkpt>
      <trkpt lat="42.82278" lon="1.96987">
        <ele>967.2</ele>
        <time>2024-10-11T08:41:09Z</time>
      </trkpt>
      <trkpt lat="42.82275" lon="1.96983">
        <ele>967.2</ele>
        <time>2024-10-11T08:41:10Z</time>
      </trkpt>
      <trkpt lat="42.82273" lon="1.96979">
        <ele>967.4</ele>
        <time>2024-10-11T08:41:11Z</time>
      </trkpt>
      <trkpt lat="42.82271" lon="1.96974">
        <ele>967.4</ele>
        <time>2024-10-11T08:41:12Z</time>
      </trkpt>
      <trkpt lat="42.82268" lon="1.9697">
        <ele>967.4</ele>
        <time>2024-10-11T08:41:13Z</time>
      </trkpt>
      <trkpt lat="42.82266" lon="1.96966">
        <ele>967.4</ele>
        <time>2024-10-11T08:41:14Z</time>
      </trkpt>
      <trkpt lat="42.82264" lon="1.96962">
        <ele>967.8</ele>
        <time>2024-10-11T08:41:15Z</time>
      </trkpt>
      <trkpt lat="42.82261" lon="1.96958">
        <ele>967.8</ele>
        <time>2024-10-11T08:41:16Z</time>
      </trkpt>
      <trkpt lat="42.82259" lon="1.96953">
        <ele>967.8</ele>
        <time>2024-10-11T08:41:17Z</time>
      </trkpt>
      <trkpt lat="42.82257" lon="1.96949">
        <ele>968.4</ele>
        <time>2024-10-11T08:41:18Z</time>
      </trkpt>
      <trkpt lat="42.82254" lon="1.96945">
        <ele>968.2</ele>
        <time>2024-10-11T08:41:19Z</time>
      </trkpt>
      <trkpt lat="42.82252" lon="1.9694">
        <ele>968.2</ele>
        <time>2024-10-11T08:41:20Z</time>
      </trkpt>
      <trkpt lat="42.82249" lon="1.96936">
        <ele>968.2</ele>
        <time>2024-10-11T08:41:21Z</time>
      </trkpt>
      <trkpt lat="42.82247" lon="1.96932">
        <ele>968.2</ele>
        <time>2024-10-11T08:41:22Z</time>
      </trkpt>
      <trkpt lat="42.82245" lon="1.96928">
        <ele>968.2</ele>
        <time>2024-10-11T08:41:23Z</time>
      </trkpt>
      <trkpt lat="42.82243" lon="1.96923">
        <ele>968.6</ele>
        <time>2024-10-11T08:41:24Z</time>
      </trkpt>
      <trkpt lat="42.8224" lon="1.96919">
        <ele>968.8</ele>
        <time>2024-10-11T08:41:25Z</time>
      </trkpt>
      <trkpt lat="42.82238" lon="1.96914">
        <ele>968.8</ele>
        <time>2024-10-11T08:41:26Z</time>
      </trkpt>
      <trkpt lat="42.82235" lon="1.9691">
        <ele>968.8</ele>
        <time>2024-10-11T08:41:27Z</time>
      </trkpt>
      <trkpt lat="42.82233" lon="1.96906">
        <ele>969.4</ele>
        <time>2024-10-11T08:41:28Z</time>
      </trkpt>
      <trkpt lat="42.82231" lon="1.96901">
        <ele>969</ele>
        <time>2024-10-11T08:41:29Z</time>
      </trkpt>
      <trkpt lat="42.82228" lon="1.96897">
        <ele>969</ele>
        <time>2024-10-11T08:41:30Z</time>
      </trkpt>
      <trkpt lat="42.82226" lon="1.96893">
        <ele>969</ele>
        <time>2024-10-11T08:41:31Z</time>
      </trkpt>
      <trkpt lat="42.82224" lon="1.96888">
        <ele>969.8</ele>
        <time>2024-10-11T08:41:32Z</time>
      </trkpt>
      <trkpt lat="42.82221" lon="1.96884">
        <ele>970</ele>
        <time>2024-10-11T08:41:33Z</time>
      </trkpt>
      <trkpt lat="42.82219" lon="1.9688">
        <ele>970</ele>
        <time>2024-10-11T08:41:34Z</time>
      </trkpt>
      <trkpt lat="42.82216" lon="1.96875">
        <ele>970</ele>
        <time>2024-10-11T08:41:35Z</time>
      </trkpt>
      <trkpt lat="42.82214" lon="1.96871">
        <ele>970</ele>
        <time>2024-10-11T08:41:36Z</time>
      </trkpt>
      <trkpt lat="42.82212" lon="1.96866">
        <ele>970.4</ele>
        <time>2024-10-11T08:41:37Z</time>
      </trkpt>
      <trkpt lat="42.82209" lon="1.96862">
        <ele>970.6</ele>
        <time>2024-10-11T08:41:38Z</time>
      </trkpt>
      <trkpt lat="42.82207" lon="1.96858">
        <ele>970.6</ele>
        <time>2024-10-11T08:41:39Z</time>
      </trkpt>
      <trkpt lat="42.82204" lon="1.96853">
        <ele>970.6</ele>
        <time>2024-10-11T08:41:40Z</time>
      </trkpt>
      <trkpt lat="42.82202" lon="1.96849">
        <ele>971</ele>
        <time>2024-10-11T08:41:41Z</time>
      </trkpt>
      <trkpt lat="42.822" lon="1.96845">
        <ele>971</ele>
        <time>2024-10-11T08:41:42Z</time>
      </trkpt>
      <trkpt lat="42.82197" lon="1.9684">
        <ele>971</ele>
        <time>2024-10-11T08:41:43Z</time>
      </trkpt>
      <trkpt lat="42.82195" lon="1.96836">
        <ele>971</ele>
        <time>2024-10-11T08:41:44Z</time>
      </trkpt>
      <trkpt lat="42.82193" lon="1.96832">
        <ele>971</ele>
        <time>2024-10-11T08:41:45Z</time>
      </trkpt>
      <trkpt lat="42.8219" lon="1.96828">
        <ele>971</ele>
        <time>2024-10-11T08:41:46Z</time>
      </trkpt>
      <trkpt lat="42.82188" lon="1.96824">
        <ele>971.4</ele>
        <time>2024-10-11T08:41:47Z</time>
      </trkpt>
      <trkpt lat="42.82186" lon="1.9682">
        <ele>971.4</ele>
        <time>2024-10-11T08:41:48Z</time>
      </trkpt>
      <trkpt lat="42.82184" lon="1.96816">
        <ele>971.4</ele>
        <time>2024-10-11T08:41:49Z</time>
      </trkpt>
      <trkpt lat="42.82181" lon="1.96812">
        <ele>971.4</ele>
        <time>2024-10-11T08:41:50Z</time>
      </trkpt>
      <trkpt lat="42.82179" lon="1.96807">
        <ele>972</ele>
        <time>2024-10-11T08:41:51Z</time>
      </trkpt>
      <trkpt lat="42.82177" lon="1.96803">
        <ele>972</ele>
        <time>2024-10-11T08:41:52Z</time>
      </trkpt>
      <trkpt lat="42.82174" lon="1.96799">
        <ele>972</ele>
        <time>2024-10-11T08:41:53Z</time>
      </trkpt>
      <trkpt lat="42.82172" lon="1.96795">
        <ele>972.6</ele>
        <time>2024-10-11T08:41:54Z</time>
      </trkpt>
      <trkpt lat="42.82169" lon="1.9679">
        <ele>972.6</ele>
        <time>2024-10-11T08:41:55Z</time>
      </trkpt>
      <trkpt lat="42.82167" lon="1.96786">
        <ele>972.6</ele>
        <time>2024-10-11T08:41:56Z</time>
      </trkpt>
      <trkpt lat="42.82165" lon="1.96782">
        <ele>972.6</ele>
        <time>2024-10-11T08:41:57Z</time>
      </trkpt>
      <trkpt lat="42.82163" lon="1.96779">
        <ele>972.6</ele>
        <time>2024-10-11T08:41:58Z</time>
      </trkpt>
      <trkpt lat="42.82161" lon="1.96774">
        <ele>973.2</ele>
        <time>2024-10-11T08:41:59Z</time>
      </trkpt>
      <trkpt lat="42.82159" lon="1.96771">
        <ele>973.4</ele>
        <time>2024-10-11T08:42:00Z</time>
      </trkpt>
      <trkpt lat="42.82156" lon="1.96766">
        <ele>973.4</ele>
        <time>2024-10-11T08:42:01Z</time>
      </trkpt>
      <trkpt lat="42.82154" lon="1.96762">
        <ele>973.4</ele>
        <time>2024-10-11T08:42:02Z</time>
      </trkpt>
      <trkpt lat="42.82152" lon="1.96758">
        <ele>973.8</ele>
        <time>2024-10-11T08:42:03Z</time>
      </trkpt>
      <trkpt lat="42.8215" lon="1.96754">
        <ele>973.8</ele>
        <time>2024-10-11T08:42:04Z</time>
      </trkpt>
      <trkpt lat="42.82147" lon="1.9675">
        <ele>974</ele>
        <time>2024-10-11T08:42:05Z</time>
      </trkpt>
      <trkpt lat="42.82145" lon="1.96746">
        <ele>974</ele>
        <time>2024-10-11T08:42:06Z</time>
      </trkpt>
      <trkpt lat="42.82143" lon="1.96742">
        <ele>974</ele>
        <time>2024-10-11T08:42:07Z</time>
      </trkpt>
      <trkpt lat="42.82141" lon="1.96738">
        <ele>974</ele>
        <time>2024-10-11T08:42:08Z</time>
      </trkpt>
      <trkpt lat="42.82138" lon="1.96734">
        <ele>974.4</ele>
        <time>2024-10-11T08:42:09Z</time>
      </trkpt>
      <trkpt lat="42.82136" lon="1.9673">
        <ele>974.4</ele>
        <time>2024-10-11T08:42:10Z</time>
      </trkpt>
      <trkpt lat="42.82134" lon="1.96726">
        <ele>974.4</ele>
        <time>2024-10-11T08:42:11Z</time>
      </trkpt>
      <trkpt lat="42.82132" lon="1.96722">
        <ele>974.4</ele>
        <time>2024-10-11T08:42:12Z</time>
      </trkpt>
      <trkpt lat="42.82129" lon="1.96718">
        <ele>974.4</ele>
        <time>2024-10-11T08:42:13Z</time>
      </trkpt>
      <trkpt lat="42.82127" lon="1.96714">
        <ele>974.8</ele>
        <time>2024-10-11T08:42:14Z</time>
      </trkpt>
      <trkpt lat="42.82125" lon="1.9671">
        <ele>974.8</ele>
        <time>2024-10-11T08:42:15Z</time>
      </trkpt>
      <trkpt lat="42.82123" lon="1.96706">
        <ele>974.8</ele>
        <time>2024-10-11T08:42:16Z</time>
      </trkpt>
      <trkpt lat="42.82121" lon="1.96702">
        <ele>975.2</ele>
        <time>2024-10-11T08:42:17Z</time>
      </trkpt>
      <trkpt lat="42.82118" lon="1.96699">
        <ele>975.4</ele>
        <time>2024-10-11T08:42:18Z</time>
      </trkpt>
      <trkpt lat="42.82116" lon="1.96695">
        <ele>975.4</ele>
        <time>2024-10-11T08:42:19Z</time>
      </trkpt>
      <trkpt lat="42.82114" lon="1.96691">
        <ele>975.4</ele>
        <time>2024-10-11T08:42:20Z</time>
      </trkpt>
      <trkpt lat="42.82112" lon="1.96687">
        <ele>975.4</ele>
        <time>2024-10-11T08:42:21Z</time>
      </trkpt>
      <trkpt lat="42.8211" lon="1.96684">
        <ele>975.8</ele>
        <time>2024-10-11T08:42:22Z</time>
      </trkpt>
      <trkpt lat="42.82108" lon="1.9668">
        <ele>975.8</ele>
        <time>2024-10-11T08:42:23Z</time>
      </trkpt>
      <trkpt lat="42.82105" lon="1.96676">
        <ele>975.8</ele>
        <time>2024-10-11T08:42:24Z</time>
      </trkpt>
      <trkpt lat="42.82103" lon="1.96672">
        <ele>975.8</ele>
        <time>2024-10-11T08:42:25Z</time>
      </trkpt>
      <trkpt lat="42.82101" lon="1.96668">
        <ele>976.6</ele>
        <time>2024-10-11T08:42:26Z</time>
      </trkpt>
      <trkpt lat="42.82099" lon="1.96664">
        <ele>976.6</ele>
        <time>2024-10-11T08:42:27Z</time>
      </trkpt>
      <trkpt lat="42.82097" lon="1.9666">
        <ele>976.6</ele>
        <time>2024-10-11T08:42:28Z</time>
      </trkpt>
      <trkpt lat="42.82095" lon="1.96657">
        <ele>976.6</ele>
        <time>2024-10-11T08:42:29Z</time>
      </trkpt>
      <trkpt lat="42.82093" lon="1.96653">
        <ele>976.6</ele>
        <time>2024-10-11T08:42:30Z</time>
      </trkpt>
      <trkpt lat="42.82091" lon="1.96649">
        <ele>977</ele>
        <time>2024-10-11T08:42:31Z</time>
      </trkpt>
      <trkpt lat="42.82089" lon="1.96645">
        <ele>977</ele>
        <time>2024-10-11T08:42:32Z</time>
      </trkpt>
      <trkpt lat="42.82087" lon="1.96641">
        <ele>977</ele>
        <time>2024-10-11T08:42:33Z</time>
      </trkpt>
      <trkpt lat="42.82084" lon="1.96637">
        <ele>977</ele>
        <time>2024-10-11T08:42:34Z</time>
      </trkpt>
      <trkpt lat="42.82082" lon="1.96633">
        <ele>977.4</ele>
        <time>2024-10-11T08:42:35Z</time>
      </trkpt>
      <trkpt lat="42.8208" lon="1.96629">
        <ele>977.6</ele>
        <time>2024-10-11T08:42:36Z</time>
      </trkpt>
      <trkpt lat="42.82078" lon="1.96625">
        <ele>977.6</ele>
        <time>2024-10-11T08:42:37Z</time>
      </trkpt>
      <trkpt lat="42.82076" lon="1.96621">
        <ele>977.6</ele>
        <time>2024-10-11T08:42:38Z</time>
      </trkpt>
      <trkpt lat="42.82074" lon="1.96617">
        <ele>978</ele>
        <time>2024-10-11T08:42:39Z</time>
      </trkpt>
      <trkpt lat="42.82071" lon="1.96613">
        <ele>978.2</ele>
        <time>2024-10-11T08:42:40Z</time>
      </trkpt>
      <trkpt lat="42.82069" lon="1.9661">
        <ele>978.2</ele>
        <time>2024-10-11T08:42:41Z</time>
      </trkpt>
      <trkpt lat="42.82067" lon="1.96605">
        <ele>978.2</ele>
        <time>2024-10-11T08:42:42Z</time>
      </trkpt>
      <trkpt lat="42.82065" lon="1.96601">
        <ele>978.2</ele>
        <time>2024-10-11T08:42:43Z</time>
      </trkpt>
      <trkpt lat="42.82063" lon="1.96598">
        <ele>978.6</ele>
        <time>2024-10-11T08:42:44Z</time>
      </trkpt>
      <trkpt lat="42.82061" lon="1.96594">
        <ele>978.8</ele>
        <time>2024-10-11T08:42:45Z</time>
      </trkpt>
      <trkpt lat="42.82059" lon="1.9659">
        <ele>978.8</ele>
        <time>2024-10-11T08:42:46Z</time>
      </trkpt>
      <trkpt lat="42.82057" lon="1.96586">
        <ele>978.8</ele>
        <time>2024-10-11T08:42:47Z</time>
      </trkpt>
      <trkpt lat="42.82055" lon="1.96583">
        <ele>978.8</ele>
        <time>2024-10-11T08:42:48Z</time>
      </trkpt>
      <trkpt lat="42.82052" lon="1.96579">
        <ele>979.2</ele>
        <time>2024-10-11T08:42:49Z</time>
      </trkpt>
      <trkpt lat="42.8205" lon="1.96575">
        <ele>979.2</ele>
        <time>2024-10-11T08:42:50Z</time>
      </trkpt>
      <trkpt lat="42.82048" lon="1.96571">
        <ele>979.2</ele>
        <time>2024-10-11T08:42:51Z</time>
      </trkpt>
      <trkpt lat="42.82046" lon="1.96567">
        <ele>979.2</ele>
        <time>2024-10-11T08:42:52Z</time>
      </trkpt>
      <trkpt lat="42.82044" lon="1.96564">
        <ele>979.6</ele>
        <time>2024-10-11T08:42:53Z</time>
      </trkpt>
      <trkpt lat="42.82041" lon="1.9656">
        <ele>980</ele>
        <time>2024-10-11T08:42:54Z</time>
      </trkpt>
      <trkpt lat="42.82039" lon="1.96557">
        <ele>980</ele>
        <time>2024-10-11T08:42:55Z</time>
      </trkpt>
      <trkpt lat="42.82037" lon="1.96553">
        <ele>980</ele>
        <time>2024-10-11T08:42:56Z</time>
      </trkpt>
      <trkpt lat="42.82035" lon="1.96549">
        <ele>980</ele>
        <time>2024-10-11T08:42:57Z</time>
      </trkpt>
      <trkpt lat="42.82033" lon="1.96545">
        <ele>980.2</ele>
        <time>2024-10-11T08:42:58Z</time>
      </trkpt>
      <trkpt lat="42.82031" lon="1.96541">
        <ele>980.4</ele>
        <time>2024-10-11T08:42:59Z</time>
      </trkpt>
      <trkpt lat="42.82029" lon="1.96537">
        <ele>980.4</ele>
        <time>2024-10-11T08:43:00Z</time>
      </trkpt>
      <trkpt lat="42.82027" lon="1.96533">
        <ele>980.4</ele>
        <time>2024-10-11T08:43:01Z</time>
      </trkpt>
      <trkpt lat="42.82025" lon="1.96529">
        <ele>981</ele>
        <time>2024-10-11T08:43:02Z</time>
      </trkpt>
      <trkpt lat="42.82023" lon="1.96525">
        <ele>981</ele>
        <time>2024-10-11T08:43:03Z</time>
      </trkpt>
      <trkpt lat="42.82021" lon="1.96521">
        <ele>981</ele>
        <time>2024-10-11T08:43:04Z</time>
      </trkpt>
      <trkpt lat="42.82019" lon="1.96517">
        <ele>981</ele>
        <time>2024-10-11T08:43:05Z</time>
      </trkpt>
      <trkpt lat="42.82017" lon="1.96513">
        <ele>981</ele>
        <time>2024-10-11T08:43:06Z</time>
      </trkpt>
      <trkpt lat="42.82014" lon="1.9651">
        <ele>981.6</ele>
        <time>2024-10-11T08:43:07Z</time>
      </trkpt>
      <trkpt lat="42.82012" lon="1.96505">
        <ele>981.8</ele>
        <time>2024-10-11T08:43:08Z</time>
      </trkpt>
      <trkpt lat="42.8201" lon="1.96502">
        <ele>981.8</ele>
        <time>2024-10-11T08:43:09Z</time>
      </trkpt>
      <trkpt lat="42.82008" lon="1.96498">
        <ele>981.8</ele>
        <time>2024-10-11T08:43:10Z</time>
      </trkpt>
      <trkpt lat="42.82006" lon="1.96494">
        <ele>981.8</ele>
        <time>2024-10-11T08:43:11Z</time>
      </trkpt>
      <trkpt lat="42.82004" lon="1.9649">
        <ele>982.2</ele>
        <time>2024-10-11T08:43:12Z</time>
      </trkpt>
      <trkpt lat="42.82001" lon="1.96486">
        <ele>982.2</ele>
        <time>2024-10-11T08:43:13Z</time>
      </trkpt>
      <trkpt lat="42.81999" lon="1.96483">
        <ele>982.2</ele>
        <time>2024-10-11T08:43:14Z</time>
      </trkpt>
      <trkpt lat="42.81997" lon="1.96479">
        <ele>982.8</ele>
        <time>2024-10-11T08:43:15Z</time>
      </trkpt>
      <trkpt lat="42.81995" lon="1.96475">
        <ele>983</ele>
        <time>2024-10-11T08:43:16Z</time>
      </trkpt>
      <trkpt lat="42.81993" lon="1.96472">
        <ele>983</ele>
        <time>2024-10-11T08:43:17Z</time>
      </trkpt>
      <trkpt lat="42.81991" lon="1.96468">
        <ele>983</ele>
        <time>2024-10-11T08:43:18Z</time>
      </trkpt>
      <trkpt lat="42.81989" lon="1.96464">
        <ele>983</ele>
        <time>2024-10-11T08:43:19Z</time>
      </trkpt>
      <trkpt lat="42.81987" lon="1.96461">
        <ele>983.2</ele>
        <time>2024-10-11T08:43:20Z</time>
      </trkpt>
      <trkpt lat="42.81985" lon="1.96457">
        <ele>983.4</ele>
        <time>2024-10-11T08:43:21Z</time>
      </trkpt>
      <trkpt lat="42.81983" lon="1.96453">
        <ele>983.4</ele>
        <time>2024-10-11T08:43:22Z</time>
      </trkpt>
      <trkpt lat="42.81981" lon="1.9645">
        <ele>983.4</ele>
        <time>2024-10-11T08:43:23Z</time>
      </trkpt>
      <trkpt lat="42.81979" lon="1.96446">
        <ele>984</ele>
        <time>2024-10-11T08:43:24Z</time>
      </trkpt>
      <trkpt lat="42.81977" lon="1.96442">
        <ele>984.2</ele>
        <time>2024-10-11T08:43:25Z</time>
      </trkpt>
      <trkpt lat="42.81975" lon="1.96439">
        <ele>984.2</ele>
        <time>2024-10-11T08:43:26Z</time>
      </trkpt>
      <trkpt lat="42.81973" lon="1.96435">
        <ele>984.2</ele>
        <time>2024-10-11T08:43:27Z</time>
      </trkpt>
      <trkpt lat="42.81971" lon="1.96432">
        <ele>984.2</ele>
        <time>2024-10-11T08:43:28Z</time>
      </trkpt>
      <trkpt lat="42.81969" lon="1.96428">
        <ele>984.6</ele>
        <time>2024-10-11T08:43:29Z</time>
      </trkpt>
      <trkpt lat="42.81967" lon="1.96425">
        <ele>984.6</ele>
        <time>2024-10-11T08:43:30Z</time>
      </trkpt>
      <trkpt lat="42.81965" lon="1.96421">
        <ele>985</ele>
        <time>2024-10-11T08:43:31Z</time>
      </trkpt>
      <trkpt lat="42.81964" lon="1.96418">
        <ele>985</ele>
        <time>2024-10-11T08:43:32Z</time>
      </trkpt>
      <trkpt lat="42.81962" lon="1.96415">
        <ele>985</ele>
        <time>2024-10-11T08:43:33Z</time>
      </trkpt>
      <trkpt lat="42.8196" lon="1.96411">
        <ele>985</ele>
        <time>2024-10-11T08:43:34Z</time>
      </trkpt>
      <trkpt lat="42.81959" lon="1.96408">
        <ele>985</ele>
        <time>2024-10-11T08:43:35Z</time>
      </trkpt>
      <trkpt lat="42.81957" lon="1.96404">
        <ele>985.2</ele>
        <time>2024-10-11T08:43:36Z</time>
      </trkpt>
      <trkpt lat="42.81955" lon="1.96401">
        <ele>985.2</ele>
        <time>2024-10-11T08:43:37Z</time>
      </trkpt>
      <trkpt lat="42.81953" lon="1.96397">
        <ele>985.2</ele>
        <time>2024-10-11T08:43:38Z</time>
      </trkpt>
      <trkpt lat="42.81951" lon="1.96394">
        <ele>986</ele>
        <time>2024-10-11T08:43:39Z</time>
      </trkpt>
      <trkpt lat="42.81948" lon="1.96389">
        <ele>986</ele>
        <time>2024-10-11T08:43:40Z</time>
      </trkpt>
      <trkpt lat="42.81948" lon="1.96387">
        <ele>986</ele>
        <time>2024-10-11T08:43:41Z</time>
      </trkpt>
      <trkpt lat="42.81946" lon="1.96384">
        <ele>986</ele>
        <time>2024-10-11T08:43:42Z</time>
      </trkpt>
      <trkpt lat="42.81944" lon="1.9638">
        <ele>986.2</ele>
        <time>2024-10-11T08:43:43Z</time>
      </trkpt>
      <trkpt lat="42.81942" lon="1.96377">
        <ele>986.4</ele>
        <time>2024-10-11T08:43:44Z</time>
      </trkpt>
      <trkpt lat="42.8194" lon="1.96374">
        <ele>986.4</ele>
        <time>2024-10-11T08:43:45Z</time>
      </trkpt>
      <trkpt lat="42.81938" lon="1.9637">
        <ele>986.4</ele>
        <time>2024-10-11T08:43:46Z</time>
      </trkpt>
      <trkpt lat="42.81936" lon="1.96367">
        <ele>986.4</ele>
        <time>2024-10-11T08:43:47Z</time>
      </trkpt>
      <trkpt lat="42.81934" lon="1.96363">
        <ele>986.8</ele>
        <time>2024-10-11T08:43:48Z</time>
      </trkpt>
      <trkpt lat="42.81932" lon="1.96359">
        <ele>987</ele>
        <time>2024-10-11T08:43:49Z</time>
      </trkpt>
      <trkpt lat="42.8193" lon="1.96356">
        <ele>987</ele>
        <time>2024-10-11T08:43:50Z</time>
      </trkpt>
      <trkpt lat="42.81929" lon="1.96353">
        <ele>987</ele>
        <time>2024-10-11T08:43:51Z</time>
      </trkpt>
      <trkpt lat="42.81927" lon="1.96349">
        <ele>987.4</ele>
        <time>2024-10-11T08:43:52Z</time>
      </trkpt>
      <trkpt lat="42.81925" lon="1.96346">
        <ele>987.4</ele>
        <time>2024-10-11T08:43:53Z</time>
      </trkpt>
      <trkpt lat="42.81923" lon="1.96343">
        <ele>987.4</ele>
        <time>2024-10-11T08:43:54Z</time>
      </trkpt>
      <trkpt lat="42.81921" lon="1.96339">
        <ele>987.4</ele>
        <time>2024-10-11T08:43:55Z</time>
      </trkpt>
      <trkpt lat="42.81919" lon="1.96335">
        <ele>987.4</ele>
        <time>2024-10-11T08:43:56Z</time>
      </trkpt>
      <trkpt lat="42.81917" lon="1.96332">
        <ele>988</ele>
        <time>2024-10-11T08:43:57Z</time>
      </trkpt>
      <trkpt lat="42.81916" lon="1.96328">
        <ele>988</ele>
        <time>2024-10-11T08:43:58Z</time>
      </trkpt>
      <trkpt lat="42.81914" lon="1.96325">
        <ele>988</ele>
        <time>2024-10-11T08:43:59Z</time>
      </trkpt>
      <trkpt lat="42.81912" lon="1.96321">
        <ele>988</ele>
        <time>2024-10-11T08:44:00Z</time>
      </trkpt>
      <trkpt lat="42.8191" lon="1.96317">
        <ele>988.4</ele>
        <time>2024-10-11T08:44:01Z</time>
      </trkpt>
      <trkpt lat="42.81908" lon="1.96314">
        <ele>988.6</ele>
        <time>2024-10-11T08:44:02Z</time>
      </trkpt>
      <trkpt lat="42.81907" lon="1.9631">
        <ele>988.6</ele>
        <time>2024-10-11T08:44:03Z</time>
      </trkpt>
      <trkpt lat="42.81905" lon="1.96307">
        <ele>988.6</ele>
        <time>2024-10-11T08:44:04Z</time>
      </trkpt>
      <trkpt lat="42.81903" lon="1.96303">
        <ele>989.2</ele>
        <time>2024-10-11T08:44:05Z</time>
      </trkpt>
      <trkpt lat="42.81901" lon="1.963">
        <ele>989.2</ele>
        <time>2024-10-11T08:44:06Z</time>
      </trkpt>
      <trkpt lat="42.81899" lon="1.96296">
        <ele>989.2</ele>
        <time>2024-10-11T08:44:07Z</time>
      </trkpt>
      <trkpt lat="42.81897" lon="1.96293">
        <ele>989.2</ele>
        <time>2024-10-11T08:44:08Z</time>
      </trkpt>
      <trkpt lat="42.81894" lon="1.96288">
        <ele>989.2</ele>
        <time>2024-10-11T08:44:09Z</time>
      </trkpt>
      <trkpt lat="42.81893" lon="1.96286">
        <ele>989.6</ele>
        <time>2024-10-11T08:44:10Z</time>
      </trkpt>
      <trkpt lat="42.81892" lon="1.96283">
        <ele>989.6</ele>
        <time>2024-10-11T08:44:11Z</time>
      </trkpt>
      <trkpt lat="42.8189" lon="1.9628">
        <ele>989.8</ele>
        <time>2024-10-11T08:44:12Z</time>
      </trkpt>
      <trkpt lat="42.81888" lon="1.96276">
        <ele>989.8</ele>
        <time>2024-10-11T08:44:13Z</time>
      </trkpt>
      <trkpt lat="42.81886" lon="1.96273">
        <ele>989.8</ele>
        <time>2024-10-11T08:44:14Z</time>
      </trkpt>
      <trkpt lat="42.81884" lon="1.9627">
        <ele>990.2</ele>
        <time>2024-10-11T08:44:15Z</time>
      </trkpt>
      <trkpt lat="42.81882" lon="1.96267">
        <ele>990.4</ele>
        <time>2024-10-11T08:44:16Z</time>
      </trkpt>
      <trkpt lat="42.8188" lon="1.96263">
        <ele>990.4</ele>
        <time>2024-10-11T08:44:17Z</time>
      </trkpt>
      <trkpt lat="42.81879" lon="1.9626">
        <ele>990.4</ele>
        <time>2024-10-11T08:44:18Z</time>
      </trkpt>
      <trkpt lat="42.81877" lon="1.96257">
        <ele>990.8</ele>
        <time>2024-10-11T08:44:19Z</time>
      </trkpt>
      <trkpt lat="42.81875" lon="1.96253">
        <ele>990.8</ele>
        <time>2024-10-11T08:44:20Z</time>
      </trkpt>
      <trkpt lat="42.81873" lon="1.9625">
        <ele>990.8</ele>
        <time>2024-10-11T08:44:21Z</time>
      </trkpt>
      <trkpt lat="42.81871" lon="1.96246">
        <ele>990.8</ele>
        <time>2024-10-11T08:44:22Z</time>
      </trkpt>
      <trkpt lat="42.81869" lon="1.96242">
        <ele>990.8</ele>
        <time>2024-10-11T08:44:23Z</time>
      </trkpt>
      <trkpt lat="42.81867" lon="1.96239">
        <ele>991.4</ele>
        <time>2024-10-11T08:44:24Z</time>
      </trkpt>
      <trkpt lat="42.81865" lon="1.96235">
        <ele>991.8</ele>
        <time>2024-10-11T08:44:25Z</time>
      </trkpt>
      <trkpt lat="42.81864" lon="1.96232">
        <ele>991.8</ele>
        <time>2024-10-11T08:44:26Z</time>
      </trkpt>
      <trkpt lat="42.81862" lon="1.96229">
        <ele>991.8</ele>
        <time>2024-10-11T08:44:27Z</time>
      </trkpt>
      <trkpt lat="42.8186" lon="1.96225">
        <ele>991.8</ele>
        <time>2024-10-11T08:44:28Z</time>
      </trkpt>
      <trkpt lat="42.81858" lon="1.96222">
        <ele>992</ele>
        <time>2024-10-11T08:44:29Z</time>
      </trkpt>
      <trkpt lat="42.81856" lon="1.96219">
        <ele>992</ele>
        <time>2024-10-11T08:44:30Z</time>
      </trkpt>
      <trkpt lat="42.81854" lon="1.96215">
        <ele>992</ele>
        <time>2024-10-11T08:44:31Z</time>
      </trkpt>
      <trkpt lat="42.81852" lon="1.96212">
        <ele>992</ele>
        <time>2024-10-11T08:44:32Z</time>
      </trkpt>
      <trkpt lat="42.8185" lon="1.96209">
        <ele>992.6</ele>
        <time>2024-10-11T08:44:33Z</time>
      </trkpt>
      <trkpt lat="42.81848" lon="1.96206">
        <ele>992.6</ele>
        <time>2024-10-11T08:44:34Z</time>
      </trkpt>
      <trkpt lat="42.81846" lon="1.96202">
        <ele>992.6</ele>
        <time>2024-10-11T08:44:35Z</time>
      </trkpt>
      <trkpt lat="42.81844" lon="1.96199">
        <ele>992.6</ele>
        <time>2024-10-11T08:44:36Z</time>
      </trkpt>
      <trkpt lat="42.81843" lon="1.96196">
        <ele>993.2</ele>
        <time>2024-10-11T08:44:37Z</time>
      </trkpt>
      <trkpt lat="42.81841" lon="1.96192">
        <ele>993.2</ele>
        <time>2024-10-11T08:44:38Z</time>
      </trkpt>
      <trkpt lat="42.81839" lon="1.96189">
        <ele>993.2</ele>
        <time>2024-10-11T08:44:39Z</time>
      </trkpt>
      <trkpt lat="42.81838" lon="1.96185">
        <ele>993.2</ele>
        <time>2024-10-11T08:44:40Z</time>
      </trkpt>
      <trkpt lat="42.81836" lon="1.96182">
        <ele>993.2</ele>
        <time>2024-10-11T08:44:41Z</time>
      </trkpt>
      <trkpt lat="42.81834" lon="1.96178">
        <ele>993.6</ele>
        <time>2024-10-11T08:44:42Z</time>
      </trkpt>
      <trkpt lat="42.81832" lon="1.96175">
        <ele>993.8</ele>
        <time>2024-10-11T08:44:43Z</time>
      </trkpt>
      <trkpt lat="42.8183" lon="1.96172">
        <ele>993.8</ele>
        <time>2024-10-11T08:44:44Z</time>
      </trkpt>
      <trkpt lat="42.81828" lon="1.96169">
        <ele>993.8</ele>
        <time>2024-10-11T08:44:45Z</time>
      </trkpt>
      <trkpt lat="42.81826" lon="1.96165">
        <ele>994.2</ele>
        <time>2024-10-11T08:44:46Z</time>
      </trkpt>
      <trkpt lat="42.81825" lon="1.96162">
        <ele>994.2</ele>
        <time>2024-10-11T08:44:47Z</time>
      </trkpt>
      <trkpt lat="42.81823" lon="1.96159">
        <ele>994.2</ele>
        <time>2024-10-11T08:44:48Z</time>
      </trkpt>
      <trkpt lat="42.81821" lon="1.96157">
        <ele>994.2</ele>
        <time>2024-10-11T08:44:49Z</time>
      </trkpt>
      <trkpt lat="42.8182" lon="1.96153">
        <ele>994.2</ele>
        <time>2024-10-11T08:44:50Z</time>
      </trkpt>
      <trkpt lat="42.81818" lon="1.9615">
        <ele>995</ele>
        <time>2024-10-11T08:44:51Z</time>
      </trkpt>
      <trkpt lat="42.81816" lon="1.96146">
        <ele>995</ele>
        <time>2024-10-11T08:44:52Z</time>
      </trkpt>
      <trkpt lat="42.81815" lon="1.96143">
        <ele>995</ele>
        <time>2024-10-11T08:44:53Z</time>
      </trkpt>
      <trkpt lat="42.81813" lon="1.9614">
        <ele>995</ele>
        <time>2024-10-11T08:44:54Z</time>
      </trkpt>
      <trkpt lat="42.81812" lon="1.96136">
        <ele>995.4</ele>
        <time>2024-10-11T08:44:55Z</time>
      </trkpt>
      <trkpt lat="42.8181" lon="1.96133">
        <ele>995.4</ele>
        <time>2024-10-11T08:44:56Z</time>
      </trkpt>
      <trkpt lat="42.81808" lon="1.9613">
        <ele>995.6</ele>
        <time>2024-10-11T08:44:57Z</time>
      </trkpt>
      <trkpt lat="42.81806" lon="1.96127">
        <ele>995.6</ele>
        <time>2024-10-11T08:44:58Z</time>
      </trkpt>
      <trkpt lat="42.81804" lon="1.96124">
        <ele>995.6</ele>
        <time>2024-10-11T08:44:59Z</time>
      </trkpt>
      <trkpt lat="42.81802" lon="1.96121">
        <ele>995.6</ele>
        <time>2024-10-11T08:45:00Z</time>
      </trkpt>
      <trkpt lat="42.81801" lon="1.96118">
        <ele>995.6</ele>
        <time>2024-10-11T08:45:01Z</time>
      </trkpt>
      <trkpt lat="42.81799" lon="1.96115">
        <ele>996</ele>
        <time>2024-10-11T08:45:02Z</time>
      </trkpt>
      <trkpt lat="42.81797" lon="1.96112">
        <ele>996</ele>
        <time>2024-10-11T08:45:03Z</time>
      </trkpt>
      <trkpt lat="42.81795" lon="1.96109">
        <ele>996</ele>
        <time>2024-10-11T08:45:04Z</time>
      </trkpt>
      <trkpt lat="42.81793" lon="1.96106">
        <ele>996.8</ele>
        <time>2024-10-11T08:45:05Z</time>
      </trkpt>
      <trkpt lat="42.81792" lon="1.96103">
        <ele>996.8</ele>
        <time>2024-10-11T08:45:06Z</time>
      </trkpt>
      <trkpt lat="42.8179" lon="1.96099">
        <ele>996.8</ele>
        <time>2024-10-11T08:45:07Z</time>
      </trkpt>
      <trkpt lat="42.81788" lon="1.96096">
        <ele>996.8</ele>
        <time>2024-10-11T08:45:08Z</time>
      </trkpt>
      <trkpt lat="42.81786" lon="1.96093">
        <ele>997.2</ele>
        <time>2024-10-11T08:45:09Z</time>
      </trkpt>
      <trkpt lat="42.81784" lon="1.96089">
        <ele>997.2</ele>
        <time>2024-10-11T08:45:10Z</time>
      </trkpt>
      <trkpt lat="42.81782" lon="1.96086">
        <ele>997.2</ele>
        <time>2024-10-11T08:45:11Z</time>
      </trkpt>
      <trkpt lat="42.8178" lon="1.96082">
        <ele>997.2</ele>
        <time>2024-10-11T08:45:12Z</time>
      </trkpt>
      <trkpt lat="42.81778" lon="1.96079">
        <ele>997.2</ele>
        <time>2024-10-11T08:45:13Z</time>
      </trkpt>
      <trkpt lat="42.81776" lon="1.96076">
        <ele>997.6</ele>
        <time>2024-10-11T08:45:14Z</time>
      </trkpt>
      <trkpt lat="42.81774" lon="1.96072">
        <ele>997.8</ele>
        <time>2024-10-11T08:45:15Z</time>
      </trkpt>
      <trkpt lat="42.81773" lon="1.96069">
        <ele>997.8</ele>
        <time>2024-10-11T08:45:16Z</time>
      </trkpt>
      <trkpt lat="42.81771" lon="1.96066">
        <ele>997.8</ele>
        <time>2024-10-11T08:45:17Z</time>
      </trkpt>
      <trkpt lat="42.81769" lon="1.96063">
        <ele>998.4</ele>
        <time>2024-10-11T08:45:18Z</time>
      </trkpt>
      <trkpt lat="42.81767" lon="1.9606">
        <ele>998.6</ele>
        <time>2024-10-11T08:45:19Z</time>
      </trkpt>
      <trkpt lat="42.81765" lon="1.96057">
        <ele>998.6</ele>
        <time>2024-10-11T08:45:20Z</time>
      </trkpt>
      <trkpt lat="42.81764" lon="1.96053">
        <ele>998.6</ele>
        <time>2024-10-11T08:45:21Z</time>
      </trkpt>
      <trkpt lat="42.81762" lon="1.9605">
        <ele>999</ele>
        <time>2024-10-11T08:45:22Z</time>
      </trkpt>
      <trkpt lat="42.8176" lon="1.96046">
        <ele>999</ele>
        <time>2024-10-11T08:45:23Z</time>
      </trkpt>
      <trkpt lat="42.81758" lon="1.96042">
        <ele>999</ele>
        <time>2024-10-11T08:45:24Z</time>
      </trkpt>
      <trkpt lat="42.81756" lon="1.96039">
        <ele>999</ele>
        <time>2024-10-11T08:45:25Z</time>
      </trkpt>
      <trkpt lat="42.81754" lon="1.96036">
        <ele>999</ele>
        <time>2024-10-11T08:45:26Z</time>
      </trkpt>
      <trkpt lat="42.81753" lon="1.96033">
        <ele>999.4</ele>
        <time>2024-10-11T08:45:27Z</time>
      </trkpt>
      <trkpt lat="42.81751" lon="1.96029">
        <ele>999.8</ele>
        <time>2024-10-11T08:45:28Z</time>
      </trkpt>
      <trkpt lat="42.81749" lon="1.96026">
        <ele>999.8</ele>
        <time>2024-10-11T08:45:29Z</time>
      </trkpt>
      <trkpt lat="42.81747" lon="1.96022">
        <ele>999.8</ele>
        <time>2024-10-11T08:45:30Z</time>
      </trkpt>
      <trkpt lat="42.81745" lon="1.96019">
        <ele>999.8</ele>
        <time>2024-10-11T08:45:31Z</time>
      </trkpt>
      <trkpt lat="42.81743" lon="1.96016">
        <ele>999.8</ele>
        <time>2024-10-11T08:45:32Z</time>
      </trkpt>
      <trkpt lat="42.81741" lon="1.96013">
        <ele>1000.2</ele>
        <time>2024-10-11T08:45:33Z</time>
      </trkpt>
      <trkpt lat="42.8174" lon="1.96009">
        <ele>1000.2</ele>
        <time>2024-10-11T08:45:34Z</time>
      </trkpt>
      <trkpt lat="42.81738" lon="1.96006">
        <ele>1000.2</ele>
        <time>2024-10-11T08:45:35Z</time>
      </trkpt>
      <trkpt lat="42.81736" lon="1.96003">
        <ele>1000.8</ele>
        <time>2024-10-11T08:45:36Z</time>
      </trkpt>
      <trkpt lat="42.81734" lon="1.96">
        <ele>1001</ele>
        <time>2024-10-11T08:45:37Z</time>
      </trkpt>
      <trkpt lat="42.81732" lon="1.95997">
        <ele>1001</ele>
        <time>2024-10-11T08:45:38Z</time>
      </trkpt>
      <trkpt lat="42.8173" lon="1.95993">
        <ele>1001</ele>
        <time>2024-10-11T08:45:39Z</time>
      </trkpt>
      <trkpt lat="42.81728" lon="1.9599">
        <ele>1001</ele>
        <time>2024-10-11T08:45:40Z</time>
      </trkpt>
      <trkpt lat="42.81726" lon="1.95986">
        <ele>1001.4</ele>
        <time>2024-10-11T08:45:41Z</time>
      </trkpt>
      <trkpt lat="42.81724" lon="1.95983">
        <ele>1001.4</ele>
        <time>2024-10-11T08:45:42Z</time>
      </trkpt>
      <trkpt lat="42.81722" lon="1.95979">
        <ele>1001.4</ele>
        <time>2024-10-11T08:45:43Z</time>
      </trkpt>
      <trkpt lat="42.8172" lon="1.95976">
        <ele>1001.4</ele>
        <time>2024-10-11T08:45:44Z</time>
      </trkpt>
      <trkpt lat="42.81718" lon="1.95972">
        <ele>1002</ele>
        <time>2024-10-11T08:45:45Z</time>
      </trkpt>
      <trkpt lat="42.81717" lon="1.95969">
        <ele>1002</ele>
        <time>2024-10-11T08:45:46Z</time>
      </trkpt>
      <trkpt lat="42.81715" lon="1.95966">
        <ele>1002.2</ele>
        <time>2024-10-11T08:45:47Z</time>
      </trkpt>
      <trkpt lat="42.81713" lon="1.95962">
        <ele>1002.2</ele>
        <time>2024-10-11T08:45:48Z</time>
      </trkpt>
      <trkpt lat="42.81711" lon="1.95959">
        <ele>1002.2</ele>
        <time>2024-10-11T08:45:49Z</time>
      </trkpt>
      <trkpt lat="42.81709" lon="1.95955">
        <ele>1002.6</ele>
        <time>2024-10-11T08:45:50Z</time>
      </trkpt>
      <trkpt lat="42.81708" lon="1.95952">
        <ele>1003</ele>
        <time>2024-10-11T08:45:51Z</time>
      </trkpt>
      <trkpt lat="42.81706" lon="1.95949">
        <ele>1003</ele>
        <time>2024-10-11T08:45:52Z</time>
      </trkpt>
      <trkpt lat="42.81704" lon="1.95945">
        <ele>1003</ele>
        <time>2024-10-11T08:45:53Z</time>
      </trkpt>
      <trkpt lat="42.81702" lon="1.95942">
        <ele>1003.2</ele>
        <time>2024-10-11T08:45:54Z</time>
      </trkpt>
      <trkpt lat="42.817" lon="1.95939">
        <ele>1003.2</ele>
        <time>2024-10-11T08:45:55Z</time>
      </trkpt>
      <trkpt lat="42.81699" lon="1.95936">
        <ele>1003.2</ele>
        <time>2024-10-11T08:45:56Z</time>
      </trkpt>
      <trkpt lat="42.81697" lon="1.95933">
        <ele>1003.2</ele>
        <time>2024-10-11T08:45:57Z</time>
      </trkpt>
      <trkpt lat="42.81695" lon="1.95929">
        <ele>1003.2</ele>
        <time>2024-10-11T08:45:58Z</time>
      </trkpt>
      <trkpt lat="42.81693" lon="1.95926">
        <ele>1003.8</ele>
        <time>2024-10-11T08:45:59Z</time>
      </trkpt>
      <trkpt lat="42.81692" lon="1.95922">
        <ele>1003.8</ele>
        <time>2024-10-11T08:46:00Z</time>
      </trkpt>
      <trkpt lat="42.8169" lon="1.95919">
        <ele>1003.8</ele>
        <time>2024-10-11T08:46:01Z</time>
      </trkpt>
      <trkpt lat="42.81689" lon="1.95916">
        <ele>1003.8</ele>
        <time>2024-10-11T08:46:02Z</time>
      </trkpt>
      <trkpt lat="42.81688" lon="1.95912">
        <ele>1004.2</ele>
        <time>2024-10-11T08:46:03Z</time>
      </trkpt>
      <trkpt lat="42.81686" lon="1.95908">
        <ele>1004.2</ele>
        <time>2024-10-11T08:46:04Z</time>
      </trkpt>
      <trkpt lat="42.81685" lon="1.95904">
        <ele>1004.2</ele>
        <time>2024-10-11T08:46:05Z</time>
      </trkpt>
      <trkpt lat="42.81684" lon="1.959">
        <ele>1004.2</ele>
        <time>2024-10-11T08:46:06Z</time>
      </trkpt>
      <trkpt lat="42.81683" lon="1.95895">
        <ele>1004.2</ele>
        <time>2024-10-11T08:46:07Z</time>
      </trkpt>
      <trkpt lat="42.81682" lon="1.95891">
        <ele>1004.4</ele>
        <time>2024-10-11T08:46:08Z</time>
      </trkpt>
      <trkpt lat="42.81681" lon="1.95886">
        <ele>1004.6</ele>
        <time>2024-10-11T08:46:09Z</time>
      </trkpt>
      <trkpt lat="42.8168" lon="1.95882">
        <ele>1004.6</ele>
        <time>2024-10-11T08:46:10Z</time>
      </trkpt>
      <trkpt lat="42.8168" lon="1.95877">
        <ele>1004.6</ele>
        <time>2024-10-11T08:46:11Z</time>
      </trkpt>
      <trkpt lat="42.81679" lon="1.95872">
        <ele>1004.6</ele>
        <time>2024-10-11T08:46:12Z</time>
      </trkpt>
      <trkpt lat="42.81679" lon="1.95868">
        <ele>1004.8</ele>
        <time>2024-10-11T08:46:13Z</time>
      </trkpt>
      <trkpt lat="42.81679" lon="1.95863">
        <ele>1004.8</ele>
        <time>2024-10-11T08:46:14Z</time>
      </trkpt>
      <trkpt lat="42.81679" lon="1.95859">
        <ele>1004.8</ele>
        <time>2024-10-11T08:46:15Z</time>
      </trkpt>
      <trkpt lat="42.81679" lon="1.95855">
        <ele>1005.4</ele>
        <time>2024-10-11T08:46:16Z</time>
      </trkpt>
      <trkpt lat="42.81679" lon="1.95851">
        <ele>1005.6</ele>
        <time>2024-10-11T08:46:17Z</time>
      </trkpt>
      <trkpt lat="42.8168" lon="1.95846">
        <ele>1005.6</ele>
        <time>2024-10-11T08:46:18Z</time>
      </trkpt>
      <trkpt lat="42.8168" lon="1.95842">
        <ele>1005.6</ele>
        <time>2024-10-11T08:46:19Z</time>
      </trkpt>
      <trkpt lat="42.8168" lon="1.95838">
        <ele>1005.6</ele>
        <time>2024-10-11T08:46:20Z</time>
      </trkpt>
      <trkpt lat="42.81681" lon="1.95834">
        <ele>1005.6</ele>
        <time>2024-10-11T08:46:21Z</time>
      </trkpt>
      <trkpt lat="42.81681" lon="1.95829">
        <ele>1005.6</ele>
        <time>2024-10-11T08:46:22Z</time>
      </trkpt>
      <trkpt lat="42.81681" lon="1.95825">
        <ele>1006</ele>
        <time>2024-10-11T08:46:23Z</time>
      </trkpt>
      <trkpt lat="42.81682" lon="1.95821">
        <ele>1006</ele>
        <time>2024-10-11T08:46:24Z</time>
      </trkpt>
      <trkpt lat="42.81682" lon="1.95816">
        <ele>1006</ele>
        <time>2024-10-11T08:46:25Z</time>
      </trkpt>
      <trkpt lat="42.81682" lon="1.95812">
        <ele>1006</ele>
        <time>2024-10-11T08:46:26Z</time>
      </trkpt>
      <trkpt lat="42.81683" lon="1.95808">
        <ele>1006.2</ele>
        <time>2024-10-11T08:46:27Z</time>
      </trkpt>
      <trkpt lat="42.81683" lon="1.95804">
        <ele>1006.2</ele>
        <time>2024-10-11T08:46:28Z</time>
      </trkpt>
      <trkpt lat="42.81684" lon="1.958">
        <ele>1006.2</ele>
        <time>2024-10-11T08:46:29Z</time>
      </trkpt>
      <trkpt lat="42.81684" lon="1.95796">
        <ele>1006.2</ele>
        <time>2024-10-11T08:46:30Z</time>
      </trkpt>
      <trkpt lat="42.81684" lon="1.95792">
        <ele>1006.8</ele>
        <time>2024-10-11T08:46:31Z</time>
      </trkpt>
      <trkpt lat="42.81685" lon="1.95788">
        <ele>1006.8</ele>
        <time>2024-10-11T08:46:32Z</time>
      </trkpt>
      <trkpt lat="42.81685" lon="1.95784">
        <ele>1006.8</ele>
        <time>2024-10-11T08:46:33Z</time>
      </trkpt>
      <trkpt lat="42.81685" lon="1.9578">
        <ele>1006.8</ele>
        <time>2024-10-11T08:46:34Z</time>
      </trkpt>
      <trkpt lat="42.81685" lon="1.95776">
        <ele>1007.4</ele>
        <time>2024-10-11T08:46:35Z</time>
      </trkpt>
      <trkpt lat="42.81685" lon="1.95772">
        <ele>1007.6</ele>
        <time>2024-10-11T08:46:36Z</time>
      </trkpt>
      <trkpt lat="42.81686" lon="1.95768">
        <ele>1007.6</ele>
        <time>2024-10-11T08:46:37Z</time>
      </trkpt>
      <trkpt lat="42.81686" lon="1.95764">
        <ele>1007.6</ele>
        <time>2024-10-11T08:46:38Z</time>
      </trkpt>
      <trkpt lat="42.81686" lon="1.95761">
        <ele>1008.2</ele>
        <time>2024-10-11T08:46:39Z</time>
      </trkpt>
      <trkpt lat="42.81687" lon="1.95757">
        <ele>1008.2</ele>
        <time>2024-10-11T08:46:40Z</time>
      </trkpt>
      <trkpt lat="42.81687" lon="1.95754">
        <ele>1008.2</ele>
        <time>2024-10-11T08:46:41Z</time>
      </trkpt>
      <trkpt lat="42.81687" lon="1.9575">
        <ele>1008.2</ele>
        <time>2024-10-11T08:46:42Z</time>
      </trkpt>
      <trkpt lat="42.81687" lon="1.95746">
        <ele>1008.2</ele>
        <time>2024-10-11T08:46:43Z</time>
      </trkpt>
      <trkpt lat="42.81687" lon="1.95742">
        <ele>1008.6</ele>
        <time>2024-10-11T08:46:44Z</time>
      </trkpt>
      <trkpt lat="42.81687" lon="1.95739">
        <ele>1008.8</ele>
        <time>2024-10-11T08:46:45Z</time>
      </trkpt>
      <trkpt lat="42.81686" lon="1.95735">
        <ele>1008.8</ele>
        <time>2024-10-11T08:46:46Z</time>
      </trkpt>
      <trkpt lat="42.81686" lon="1.95732">
        <ele>1008.8</ele>
        <time>2024-10-11T08:46:47Z</time>
      </trkpt>
      <trkpt lat="42.81685" lon="1.95726">
        <ele>1008.8</ele>
        <time>2024-10-11T08:46:48Z</time>
      </trkpt>
      <trkpt lat="42.81685" lon="1.95722">
        <ele>1009.6</ele>
        <time>2024-10-11T08:46:49Z</time>
      </trkpt>
      <trkpt lat="42.81686" lon="1.95719">
        <ele>1009.6</ele>
        <time>2024-10-11T08:46:50Z</time>
      </trkpt>
      <trkpt lat="42.81686" lon="1.95715">
        <ele>1009.6</ele>
        <time>2024-10-11T08:46:51Z</time>
      </trkpt>
      <trkpt lat="42.81686" lon="1.95711">
        <ele>1009.6</ele>
        <time>2024-10-11T08:46:52Z</time>
      </trkpt>
      <trkpt lat="42.81687" lon="1.95707">
        <ele>1009.6</ele>
        <time>2024-10-11T08:46:53Z</time>
      </trkpt>
      <trkpt lat="42.81687" lon="1.95703">
        <ele>1010.2</ele>
        <time>2024-10-11T08:46:54Z</time>
      </trkpt>
      <trkpt lat="42.81688" lon="1.95699">
        <ele>1010.2</ele>
        <time>2024-10-11T08:46:55Z</time>
      </trkpt>
      <trkpt lat="42.81688" lon="1.95695">
        <ele>1010.2</ele>
        <time>2024-10-11T08:46:56Z</time>
      </trkpt>
      <trkpt lat="42.81689" lon="1.95691">
        <ele>1010.8</ele>
        <time>2024-10-11T08:46:57Z</time>
      </trkpt>
      <trkpt lat="42.81689" lon="1.95687">
        <ele>1010.8</ele>
        <time>2024-10-11T08:46:58Z</time>
      </trkpt>
      <trkpt lat="42.8169" lon="1.95683">
        <ele>1010.8</ele>
        <time>2024-10-11T08:46:59Z</time>
      </trkpt>
      <trkpt lat="42.8169" lon="1.95679">
        <ele>1010.8</ele>
        <time>2024-10-11T08:47:00Z</time>
      </trkpt>
      <trkpt lat="42.81691" lon="1.95676">
        <ele>1010.8</ele>
        <time>2024-10-11T08:47:01Z</time>
      </trkpt>
      <trkpt lat="42.81691" lon="1.95672">
        <ele>1011.6</ele>
        <time>2024-10-11T08:47:02Z</time>
      </trkpt>
      <trkpt lat="42.81692" lon="1.95668">
        <ele>1012.4</ele>
        <time>2024-10-11T08:47:03Z</time>
      </trkpt>
      <trkpt lat="42.81692" lon="1.95664">
        <ele>1012.4</ele>
        <time>2024-10-11T08:47:04Z</time>
      </trkpt>
      <trkpt lat="42.81692" lon="1.9566">
        <ele>1012.4</ele>
        <time>2024-10-11T08:47:05Z</time>
      </trkpt>
      <trkpt lat="42.81693" lon="1.95656">
        <ele>1012.4</ele>
        <time>2024-10-11T08:47:06Z</time>
      </trkpt>
      <trkpt lat="42.81693" lon="1.95653">
        <ele>1012.4</ele>
        <time>2024-10-11T08:47:07Z</time>
      </trkpt>
      <trkpt lat="42.81694" lon="1.95649">
        <ele>1013</ele>
        <time>2024-10-11T08:47:08Z</time>
      </trkpt>
      <trkpt lat="42.81694" lon="1.95645">
        <ele>1013</ele>
        <time>2024-10-11T08:47:09Z</time>
      </trkpt>
      <trkpt lat="42.81695" lon="1.95641">
        <ele>1013</ele>
        <time>2024-10-11T08:47:10Z</time>
      </trkpt>
      <trkpt lat="42.81696" lon="1.95638">
        <ele>1013.6</ele>
        <time>2024-10-11T08:47:11Z</time>
      </trkpt>
      <trkpt lat="42.81697" lon="1.95634">
        <ele>1013.6</ele>
        <time>2024-10-11T08:47:12Z</time>
      </trkpt>
      <trkpt lat="42.81698" lon="1.95631">
        <ele>1013.8</ele>
        <time>2024-10-11T08:47:13Z</time>
      </trkpt>
      <trkpt lat="42.81699" lon="1.95627">
        <ele>1013.8</ele>
        <time>2024-10-11T08:47:14Z</time>
      </trkpt>
      <trkpt lat="42.817" lon="1.95623">
        <ele>1013.8</ele>
        <time>2024-10-11T08:47:15Z</time>
      </trkpt>
      <trkpt lat="42.817" lon="1.95619">
        <ele>1013.8</ele>
        <time>2024-10-11T08:47:16Z</time>
      </trkpt>
      <trkpt lat="42.81701" lon="1.95615">
        <ele>1014.4</ele>
        <time>2024-10-11T08:47:17Z</time>
      </trkpt>
      <trkpt lat="42.81701" lon="1.95612">
        <ele>1014.4</ele>
        <time>2024-10-11T08:47:18Z</time>
      </trkpt>
      <trkpt lat="42.81702" lon="1.95608">
        <ele>1014.4</ele>
        <time>2024-10-11T08:47:19Z</time>
      </trkpt>
      <trkpt lat="42.81703" lon="1.95605">
        <ele>1015</ele>
        <time>2024-10-11T08:47:20Z</time>
      </trkpt>
      <trkpt lat="42.81703" lon="1.95601">
        <ele>1015</ele>
        <time>2024-10-11T08:47:21Z</time>
      </trkpt>
      <trkpt lat="42.81704" lon="1.95597">
        <ele>1015</ele>
        <time>2024-10-11T08:47:22Z</time>
      </trkpt>
      <trkpt lat="42.81705" lon="1.95593">
        <ele>1015</ele>
        <time>2024-10-11T08:47:23Z</time>
      </trkpt>
      <trkpt lat="42.81705" lon="1.9559">
        <ele>1015</ele>
        <time>2024-10-11T08:47:24Z</time>
      </trkpt>
      <trkpt lat="42.81706" lon="1.95587">
        <ele>1015.6</ele>
        <time>2024-10-11T08:47:25Z</time>
      </trkpt>
      <trkpt lat="42.81706" lon="1.95583">
        <ele>1015.8</ele>
        <time>2024-10-11T08:47:26Z</time>
      </trkpt>
      <trkpt lat="42.81707" lon="1.9558">
        <ele>1015.8</ele>
        <time>2024-10-11T08:47:27Z</time>
      </trkpt>
      <trkpt lat="42.81708" lon="1.95577">
        <ele>1015.8</ele>
        <time>2024-10-11T08:47:28Z</time>
      </trkpt>
      <trkpt lat="42.81708" lon="1.95573">
        <ele>1016.4</ele>
        <time>2024-10-11T08:47:29Z</time>
      </trkpt>
      <trkpt lat="42.81709" lon="1.9557">
        <ele>1016.6</ele>
        <time>2024-10-11T08:47:30Z</time>
      </trkpt>
      <trkpt lat="42.8171" lon="1.95567">
        <ele>1016.6</ele>
        <time>2024-10-11T08:47:31Z</time>
      </trkpt>
      <trkpt lat="42.8171" lon="1.95564">
        <ele>1016.6</ele>
        <time>2024-10-11T08:47:32Z</time>
      </trkpt>
      <trkpt lat="42.81711" lon="1.9556">
        <ele>1016.6</ele>
        <time>2024-10-11T08:47:33Z</time>
      </trkpt>
      <trkpt lat="42.81711" lon="1.95557">
        <ele>1017.2</ele>
        <time>2024-10-11T08:47:34Z</time>
      </trkpt>
      <trkpt lat="42.81712" lon="1.95553">
        <ele>1017.4</ele>
        <time>2024-10-11T08:47:35Z</time>
      </trkpt>
      <trkpt lat="42.81712" lon="1.95549">
        <ele>1017.4</ele>
        <time>2024-10-11T08:47:36Z</time>
      </trkpt>
      <trkpt lat="42.81713" lon="1.95546">
        <ele>1017.4</ele>
        <time>2024-10-11T08:47:37Z</time>
      </trkpt>
      <trkpt lat="42.81714" lon="1.95542">
        <ele>1017.8</ele>
        <time>2024-10-11T08:47:38Z</time>
      </trkpt>
      <trkpt lat="42.81714" lon="1.95539">
        <ele>1018</ele>
        <time>2024-10-11T08:47:39Z</time>
      </trkpt>
      <trkpt lat="42.81715" lon="1.95535">
        <ele>1018</ele>
        <time>2024-10-11T08:47:40Z</time>
      </trkpt>
      <trkpt lat="42.81716" lon="1.95532">
        <ele>1018</ele>
        <time>2024-10-11T08:47:41Z</time>
      </trkpt>
      <trkpt lat="42.81717" lon="1.95528">
        <ele>1018.4</ele>
        <time>2024-10-11T08:47:42Z</time>
      </trkpt>
      <trkpt lat="42.81717" lon="1.95524">
        <ele>1018.6</ele>
        <time>2024-10-11T08:47:43Z</time>
      </trkpt>
      <trkpt lat="42.81718" lon="1.95521">
        <ele>1018.6</ele>
        <time>2024-10-11T08:47:44Z</time>
      </trkpt>
      <trkpt lat="42.81719" lon="1.95515">
        <ele>1018.6</ele>
        <time>2024-10-11T08:47:45Z</time>
      </trkpt>
      <trkpt lat="42.8172" lon="1.95514">
        <ele>1018.6</ele>
        <time>2024-10-11T08:47:46Z</time>
      </trkpt>
      <trkpt lat="42.8172" lon="1.9551">
        <ele>1018.6</ele>
        <time>2024-10-11T08:47:47Z</time>
      </trkpt>
      <trkpt lat="42.81721" lon="1.95506">
        <ele>1018.6</ele>
        <time>2024-10-11T08:47:48Z</time>
      </trkpt>
      <trkpt lat="42.81722" lon="1.95503">
        <ele>1019.2</ele>
        <time>2024-10-11T08:47:49Z</time>
      </trkpt>
      <trkpt lat="42.81722" lon="1.95499">
        <ele>1019.2</ele>
        <time>2024-10-11T08:47:50Z</time>
      </trkpt>
      <trkpt lat="42.81723" lon="1.95495">
        <ele>1019.2</ele>
        <time>2024-10-11T08:47:51Z</time>
      </trkpt>
      <trkpt lat="42.81724" lon="1.95492">
        <ele>1019.8</ele>
        <time>2024-10-11T08:47:52Z</time>
      </trkpt>
      <trkpt lat="42.81725" lon="1.95488">
        <ele>1020</ele>
        <time>2024-10-11T08:47:53Z</time>
      </trkpt>
      <trkpt lat="42.81725" lon="1.95485">
        <ele>1020</ele>
        <time>2024-10-11T08:47:54Z</time>
      </trkpt>
      <trkpt lat="42.81726" lon="1.95481">
        <ele>1020</ele>
        <time>2024-10-11T08:47:55Z</time>
      </trkpt>
      <trkpt lat="42.81727" lon="1.95478">
        <ele>1020.4</ele>
        <time>2024-10-11T08:47:56Z</time>
      </trkpt>
      <trkpt lat="42.81728" lon="1.95474">
        <ele>1020.4</ele>
        <time>2024-10-11T08:47:57Z</time>
      </trkpt>
      <trkpt lat="42.81729" lon="1.9547">
        <ele>1020.6</ele>
        <time>2024-10-11T08:47:58Z</time>
      </trkpt>
      <trkpt lat="42.8173" lon="1.95467">
        <ele>1020.6</ele>
        <time>2024-10-11T08:47:59Z</time>
      </trkpt>
      <trkpt lat="42.81731" lon="1.95463">
        <ele>1020.6</ele>
        <time>2024-10-11T08:48:00Z</time>
      </trkpt>
      <trkpt lat="42.81732" lon="1.9546">
        <ele>1021.2</ele>
        <time>2024-10-11T08:48:01Z</time>
      </trkpt>
      <trkpt lat="42.81733" lon="1.95456">
        <ele>1021.4</ele>
        <time>2024-10-11T08:48:02Z</time>
      </trkpt>
      <trkpt lat="42.81735" lon="1.95453">
        <ele>1021.4</ele>
        <time>2024-10-11T08:48:03Z</time>
      </trkpt>
      <trkpt lat="42.81736" lon="1.9545">
        <ele>1021.4</ele>
        <time>2024-10-11T08:48:04Z</time>
      </trkpt>
      <trkpt lat="42.81738" lon="1.95446">
        <ele>1021.4</ele>
        <time>2024-10-11T08:48:05Z</time>
      </trkpt>
      <trkpt lat="42.81739" lon="1.95443">
        <ele>1022</ele>
        <time>2024-10-11T08:48:06Z</time>
      </trkpt>
      <trkpt lat="42.81741" lon="1.9544">
        <ele>1022</ele>
        <time>2024-10-11T08:48:07Z</time>
      </trkpt>
      <trkpt lat="42.81742" lon="1.95437">
        <ele>1022</ele>
        <time>2024-10-11T08:48:08Z</time>
      </trkpt>
      <trkpt lat="42.81744" lon="1.95434">
        <ele>1022</ele>
        <time>2024-10-11T08:48:09Z</time>
      </trkpt>
      <trkpt lat="42.81745" lon="1.95431">
        <ele>1022.4</ele>
        <time>2024-10-11T08:48:10Z</time>
      </trkpt>
      <trkpt lat="42.81746" lon="1.95428">
        <ele>1022.6</ele>
        <time>2024-10-11T08:48:11Z</time>
      </trkpt>
      <trkpt lat="42.81748" lon="1.95424">
        <ele>1022.6</ele>
        <time>2024-10-11T08:48:12Z</time>
      </trkpt>
      <trkpt lat="42.81749" lon="1.95421">
        <ele>1022.6</ele>
        <time>2024-10-11T08:48:13Z</time>
      </trkpt>
      <trkpt lat="42.8175" lon="1.95418">
        <ele>1023</ele>
        <time>2024-10-11T08:48:14Z</time>
      </trkpt>
      <trkpt lat="42.81752" lon="1.95415">
        <ele>1023.2</ele>
        <time>2024-10-11T08:48:15Z</time>
      </trkpt>
      <trkpt lat="42.81753" lon="1.95411">
        <ele>1023.2</ele>
        <time>2024-10-11T08:48:16Z</time>
      </trkpt>
      <trkpt lat="42.81754" lon="1.95408">
        <ele>1023.2</ele>
        <time>2024-10-11T08:48:17Z</time>
      </trkpt>
      <trkpt lat="42.81755" lon="1.95404">
        <ele>1023.8</ele>
        <time>2024-10-11T08:48:18Z</time>
      </trkpt>
      <trkpt lat="42.81756" lon="1.954">
        <ele>1023.8</ele>
        <time>2024-10-11T08:48:19Z</time>
      </trkpt>
      <trkpt lat="42.81756" lon="1.95396">
        <ele>1024</ele>
        <time>2024-10-11T08:48:20Z</time>
      </trkpt>
      <trkpt lat="42.81757" lon="1.95392">
        <ele>1024</ele>
        <time>2024-10-11T08:48:21Z</time>
      </trkpt>
      <trkpt lat="42.81756" lon="1.95388">
        <ele>1024.2</ele>
        <time>2024-10-11T08:48:22Z</time>
      </trkpt>
      <trkpt lat="42.81756" lon="1.95384">
        <ele>1024.2</ele>
        <time>2024-10-11T08:48:23Z</time>
      </trkpt>
      <trkpt lat="42.81755" lon="1.9538">
        <ele>1024.4</ele>
        <time>2024-10-11T08:48:24Z</time>
      </trkpt>
      <trkpt lat="42.81753" lon="1.95375">
        <ele>1024.4</ele>
        <time>2024-10-11T08:48:25Z</time>
      </trkpt>
      <trkpt lat="42.81752" lon="1.95371">
        <ele>1024.4</ele>
        <time>2024-10-11T08:48:26Z</time>
      </trkpt>
      <trkpt lat="42.8175" lon="1.95367">
        <ele>1023.8</ele>
        <time>2024-10-11T08:48:27Z</time>
      </trkpt>
      <trkpt lat="42.81747" lon="1.95363">
        <ele>1024</ele>
        <time>2024-10-11T08:48:28Z</time>
      </trkpt>
      <trkpt lat="42.81744" lon="1.95358">
        <ele>1024</ele>
        <time>2024-10-11T08:48:29Z</time>
      </trkpt>
      <trkpt lat="42.81742" lon="1.95353">
        <ele>1024</ele>
        <time>2024-10-11T08:48:30Z</time>
      </trkpt>
      <trkpt lat="42.81739" lon="1.95349">
        <ele>1024</ele>
        <time>2024-10-11T08:48:31Z</time>
      </trkpt>
      <trkpt lat="42.81735" lon="1.95344">
        <ele>1024</ele>
        <time>2024-10-11T08:48:32Z</time>
      </trkpt>
      <trkpt lat="42.81732" lon="1.95339">
        <ele>1024</ele>
        <time>2024-10-11T08:48:33Z</time>
      </trkpt>
      <trkpt lat="42.81729" lon="1.95334">
        <ele>1023.6</ele>
        <time>2024-10-11T08:48:34Z</time>
      </trkpt>
      <trkpt lat="42.81725" lon="1.95329">
        <ele>1023.6</ele>
        <time>2024-10-11T08:48:35Z</time>
      </trkpt>
      <trkpt lat="42.81721" lon="1.95324">
        <ele>1023.6</ele>
        <time>2024-10-11T08:48:36Z</time>
      </trkpt>
      <trkpt lat="42.81717" lon="1.95319">
        <ele>1023.4</ele>
        <time>2024-10-11T08:48:37Z</time>
      </trkpt>
      <trkpt lat="42.81714" lon="1.95313">
        <ele>1023.8</ele>
        <time>2024-10-11T08:48:38Z</time>
      </trkpt>
      <trkpt lat="42.81711" lon="1.95307">
        <ele>1023.8</ele>
        <time>2024-10-11T08:48:39Z</time>
      </trkpt>
      <trkpt lat="42.81707" lon="1.95301">
        <ele>1023.8</ele>
        <time>2024-10-11T08:48:40Z</time>
      </trkpt>
      <trkpt lat="42.81704" lon="1.95295">
        <ele>1023</ele>
        <time>2024-10-11T08:48:41Z</time>
      </trkpt>
      <trkpt lat="42.817" lon="1.95289">
        <ele>1023</ele>
        <time>2024-10-11T08:48:42Z</time>
      </trkpt>
      <trkpt lat="42.81697" lon="1.95284">
        <ele>1023</ele>
        <time>2024-10-11T08:48:43Z</time>
      </trkpt>
      <trkpt lat="42.81693" lon="1.95278">
        <ele>1023</ele>
        <time>2024-10-11T08:48:44Z</time>
      </trkpt>
      <trkpt lat="42.81689" lon="1.95273">
        <ele>1023</ele>
        <time>2024-10-11T08:48:45Z</time>
      </trkpt>
      <trkpt lat="42.81686" lon="1.95268">
        <ele>1023</ele>
        <time>2024-10-11T08:48:46Z</time>
      </trkpt>
      <trkpt lat="42.81682" lon="1.95262">
        <ele>1022.8</ele>
        <time>2024-10-11T08:48:47Z</time>
      </trkpt>
      <trkpt lat="42.81679" lon="1.95257">
        <ele>1022.8</ele>
        <time>2024-10-11T08:48:48Z</time>
      </trkpt>
      <trkpt lat="42.81676" lon="1.95252">
        <ele>1022.8</ele>
        <time>2024-10-11T08:48:49Z</time>
      </trkpt>
      <trkpt lat="42.81673" lon="1.95247">
        <ele>1022.8</ele>
        <time>2024-10-11T08:48:50Z</time>
      </trkpt>
      <trkpt lat="42.81669" lon="1.95241">
        <ele>1022.8</ele>
        <time>2024-10-11T08:48:51Z</time>
      </trkpt>
      <trkpt lat="42.81666" lon="1.95236">
        <ele>1022.8</ele>
        <time>2024-10-11T08:48:52Z</time>
      </trkpt>
      <trkpt lat="42.81662" lon="1.95231">
        <ele>1022.8</ele>
        <time>2024-10-11T08:48:53Z</time>
      </trkpt>
      <trkpt lat="42.81659" lon="1.95226">
        <ele>1022.8</ele>
        <time>2024-10-11T08:48:54Z</time>
      </trkpt>
      <trkpt lat="42.81656" lon="1.95222">
        <ele>1023.2</ele>
        <time>2024-10-11T08:48:55Z</time>
      </trkpt>
      <trkpt lat="42.81653" lon="1.95217">
        <ele>1023.2</ele>
        <time>2024-10-11T08:48:56Z</time>
      </trkpt>
      <trkpt lat="42.8165" lon="1.95212">
        <ele>1023.2</ele>
        <time>2024-10-11T08:48:57Z</time>
      </trkpt>
      <trkpt lat="42.81647" lon="1.95208">
        <ele>1023.2</ele>
        <time>2024-10-11T08:48:58Z</time>
      </trkpt>
      <trkpt lat="42.81645" lon="1.95203">
        <ele>1024</ele>
        <time>2024-10-11T08:48:59Z</time>
      </trkpt>
      <trkpt lat="42.81642" lon="1.95199">
        <ele>1024</ele>
        <time>2024-10-11T08:49:00Z</time>
      </trkpt>
      <trkpt lat="42.8164" lon="1.95195">
        <ele>1024</ele>
        <time>2024-10-11T08:49:01Z</time>
      </trkpt>
      <trkpt lat="42.81638" lon="1.95192">
        <ele>1024</ele>
        <time>2024-10-11T08:49:02Z</time>
      </trkpt>
      <trkpt lat="42.81635" lon="1.95188">
        <ele>1024.6</ele>
        <time>2024-10-11T08:49:03Z</time>
      </trkpt>
      <trkpt lat="42.81633" lon="1.95184">
        <ele>1024.6</ele>
        <time>2024-10-11T08:49:04Z</time>
      </trkpt>
      <trkpt lat="42.81631" lon="1.95181">
        <ele>1025</ele>
        <time>2024-10-11T08:49:05Z</time>
      </trkpt>
      <trkpt lat="42.81629" lon="1.95177">
        <ele>1025</ele>
        <time>2024-10-11T08:49:06Z</time>
      </trkpt>
      <trkpt lat="42.81627" lon="1.95174">
        <ele>1025</ele>
        <time>2024-10-11T08:49:07Z</time>
      </trkpt>
      <trkpt lat="42.81624" lon="1.95171">
        <ele>1025</ele>
        <time>2024-10-11T08:49:08Z</time>
      </trkpt>
      <trkpt lat="42.81622" lon="1.95167">
        <ele>1025.4</ele>
        <time>2024-10-11T08:49:09Z</time>
      </trkpt>
      <trkpt lat="42.81619" lon="1.95163">
        <ele>1025.4</ele>
        <time>2024-10-11T08:49:10Z</time>
      </trkpt>
      <trkpt lat="42.81617" lon="1.9516">
        <ele>1025.4</ele>
        <time>2024-10-11T08:49:11Z</time>
      </trkpt>
      <trkpt lat="42.81614" lon="1.95156">
        <ele>1025.4</ele>
        <time>2024-10-11T08:49:12Z</time>
      </trkpt>
      <trkpt lat="42.81612" lon="1.95152">
        <ele>1026.2</ele>
        <time>2024-10-11T08:49:13Z</time>
      </trkpt>
      <trkpt lat="42.8161" lon="1.95148">
        <ele>1026.6</ele>
        <time>2024-10-11T08:49:14Z</time>
      </trkpt>
      <trkpt lat="42.81607" lon="1.95144">
        <ele>1026.6</ele>
        <time>2024-10-11T08:49:15Z</time>
      </trkpt>
      <trkpt lat="42.81605" lon="1.9514">
        <ele>1026.6</ele>
        <time>2024-10-11T08:49:16Z</time>
      </trkpt>
      <trkpt lat="42.81603" lon="1.95137">
        <ele>1026.6</ele>
        <time>2024-10-11T08:49:17Z</time>
      </trkpt>
      <trkpt lat="42.816" lon="1.95133">
        <ele>1026.6</ele>
        <time>2024-10-11T08:49:18Z</time>
      </trkpt>
      <trkpt lat="42.81598" lon="1.9513">
        <ele>1027</ele>
        <time>2024-10-11T08:49:19Z</time>
      </trkpt>
      <trkpt lat="42.81595" lon="1.95126">
        <ele>1027</ele>
        <time>2024-10-11T08:49:20Z</time>
      </trkpt>
      <trkpt lat="42.81593" lon="1.95123">
        <ele>1027</ele>
        <time>2024-10-11T08:49:21Z</time>
      </trkpt>
      <trkpt lat="42.81591" lon="1.95119">
        <ele>1027.6</ele>
        <time>2024-10-11T08:49:22Z</time>
      </trkpt>
      <trkpt lat="42.81588" lon="1.95116">
        <ele>1027.8</ele>
        <time>2024-10-11T08:49:23Z</time>
      </trkpt>
      <trkpt lat="42.81586" lon="1.95112">
        <ele>1027.8</ele>
        <time>2024-10-11T08:49:24Z</time>
      </trkpt>
      <trkpt lat="42.81584" lon="1.95109">
        <ele>1027.8</ele>
        <time>2024-10-11T08:49:25Z</time>
      </trkpt>
      <trkpt lat="42.81581" lon="1.95105">
        <ele>1027.8</ele>
        <time>2024-10-11T08:49:26Z</time>
      </trkpt>
      <trkpt lat="42.81579" lon="1.95102">
        <ele>1028.4</ele>
        <time>2024-10-11T08:49:27Z</time>
      </trkpt>
      <trkpt lat="42.81577" lon="1.95098">
        <ele>1028.2</ele>
        <time>2024-10-11T08:49:28Z</time>
      </trkpt>
      <trkpt lat="42.81574" lon="1.95095">
        <ele>1028.2</ele>
        <time>2024-10-11T08:49:29Z</time>
      </trkpt>
      <trkpt lat="42.81572" lon="1.95092">
        <ele>1028.2</ele>
        <time>2024-10-11T08:49:30Z</time>
      </trkpt>
      <trkpt lat="42.8157" lon="1.95088">
        <ele>1029.2</ele>
        <time>2024-10-11T08:49:31Z</time>
      </trkpt>
      <trkpt lat="42.81568" lon="1.95086">
        <ele>1029.2</ele>
        <time>2024-10-11T08:49:32Z</time>
      </trkpt>
      <trkpt lat="42.81566" lon="1.95082">
        <ele>1028.8</ele>
        <time>2024-10-11T08:49:33Z</time>
      </trkpt>
      <trkpt lat="42.81564" lon="1.95079">
        <ele>1028.8</ele>
        <time>2024-10-11T08:49:34Z</time>
      </trkpt>
      <trkpt lat="42.81562" lon="1.95076">
        <ele>1028.8</ele>
        <time>2024-10-11T08:49:35Z</time>
      </trkpt>
      <trkpt lat="42.81559" lon="1.95072">
        <ele>1029.4</ele>
        <time>2024-10-11T08:49:36Z</time>
      </trkpt>
      <trkpt lat="42.81557" lon="1.95069">
        <ele>1029.8</ele>
        <time>2024-10-11T08:49:37Z</time>
      </trkpt>
      <trkpt lat="42.81555" lon="1.95066">
        <ele>1029.8</ele>
        <time>2024-10-11T08:49:38Z</time>
      </trkpt>
      <trkpt lat="42.81553" lon="1.95062">
        <ele>1029.8</ele>
        <time>2024-10-11T08:49:39Z</time>
      </trkpt>
      <trkpt lat="42.8155" lon="1.95059">
        <ele>1030.6</ele>
        <time>2024-10-11T08:49:40Z</time>
      </trkpt>
      <trkpt lat="42.81548" lon="1.95055">
        <ele>1030.4</ele>
        <time>2024-10-11T08:49:41Z</time>
      </trkpt>
      <trkpt lat="42.81546" lon="1.95052">
        <ele>1030.4</ele>
        <time>2024-10-11T08:49:42Z</time>
      </trkpt>
      <trkpt lat="42.81543" lon="1.95049">
        <ele>1030.4</ele>
        <time>2024-10-11T08:49:43Z</time>
      </trkpt>
      <trkpt lat="42.81541" lon="1.95045">
        <ele>1031</ele>
        <time>2024-10-11T08:49:44Z</time>
      </trkpt>
      <trkpt lat="42.81539" lon="1.95042">
        <ele>1031</ele>
        <time>2024-10-11T08:49:45Z</time>
      </trkpt>
      <trkpt lat="42.81537" lon="1.95039">
        <ele>1031</ele>
        <time>2024-10-11T08:49:46Z</time>
      </trkpt>
      <trkpt lat="42.81535" lon="1.95035">
        <ele>1031</ele>
        <time>2024-10-11T08:49:47Z</time>
      </trkpt>
      <trkpt lat="42.81533" lon="1.95032">
        <ele>1031</ele>
        <time>2024-10-11T08:49:48Z</time>
      </trkpt>
      <trkpt lat="42.81531" lon="1.95029">
        <ele>1031.6</ele>
        <time>2024-10-11T08:49:49Z</time>
      </trkpt>
      <trkpt lat="42.81528" lon="1.95025">
        <ele>1032</ele>
        <time>2024-10-11T08:49:50Z</time>
      </trkpt>
      <trkpt lat="42.81526" lon="1.95022">
        <ele>1032</ele>
        <time>2024-10-11T08:49:51Z</time>
      </trkpt>
      <trkpt lat="42.81524" lon="1.95018">
        <ele>1032</ele>
        <time>2024-10-11T08:49:52Z</time>
      </trkpt>
      <trkpt lat="42.81522" lon="1.95014">
        <ele>1032.2</ele>
        <time>2024-10-11T08:49:53Z</time>
      </trkpt>
      <trkpt lat="42.8152" lon="1.95011">
        <ele>1032.4</ele>
        <time>2024-10-11T08:49:54Z</time>
      </trkpt>
      <trkpt lat="42.81517" lon="1.95007">
        <ele>1032.4</ele>
        <time>2024-10-11T08:49:55Z</time>
      </trkpt>
      <trkpt lat="42.81515" lon="1.95004">
        <ele>1032.4</ele>
        <time>2024-10-11T08:49:56Z</time>
      </trkpt>
      <trkpt lat="42.81513" lon="1.95">
        <ele>1032.4</ele>
        <time>2024-10-11T08:49:57Z</time>
      </trkpt>
      <trkpt lat="42.81511" lon="1.94997">
        <ele>1032.4</ele>
        <time>2024-10-11T08:49:58Z</time>
      </trkpt>
      <trkpt lat="42.81508" lon="1.94993">
        <ele>1033</ele>
        <time>2024-10-11T08:49:59Z</time>
      </trkpt>
      <trkpt lat="42.81506" lon="1.9499">
        <ele>1033</ele>
        <time>2024-10-11T08:50:00Z</time>
      </trkpt>
      <trkpt lat="42.81504" lon="1.94986">
        <ele>1033</ele>
        <time>2024-10-11T08:50:01Z</time>
      </trkpt>
      <trkpt lat="42.81502" lon="1.94982">
        <ele>1033</ele>
        <time>2024-10-11T08:50:02Z</time>
      </trkpt>
      <trkpt lat="42.81499" lon="1.94979">
        <ele>1033.4</ele>
        <time>2024-10-11T08:50:03Z</time>
      </trkpt>
      <trkpt lat="42.81497" lon="1.94975">
        <ele>1033.4</ele>
        <time>2024-10-11T08:50:04Z</time>
      </trkpt>
      <trkpt lat="42.81495" lon="1.94972">
        <ele>1033.4</ele>
        <time>2024-10-11T08:50:05Z</time>
      </trkpt>
      <trkpt lat="42.81492" lon="1.94968">
        <ele>1033.4</ele>
        <time>2024-10-11T08:50:06Z</time>
      </trkpt>
      <trkpt lat="42.8149" lon="1.94964">
        <ele>1033.4</ele>
        <time>2024-10-11T08:50:07Z</time>
      </trkpt>
      <trkpt lat="42.81488" lon="1.94961">
        <ele>1033.6</ele>
        <time>2024-10-11T08:50:08Z</time>
      </trkpt>
      <trkpt lat="42.81485" lon="1.94957">
        <ele>1033.8</ele>
        <time>2024-10-11T08:50:09Z</time>
      </trkpt>
      <trkpt lat="42.81483" lon="1.94954">
        <ele>1033.8</ele>
        <time>2024-10-11T08:50:10Z</time>
      </trkpt>
      <trkpt lat="42.81481" lon="1.9495">
        <ele>1033.8</ele>
        <time>2024-10-11T08:50:11Z</time>
      </trkpt>
      <trkpt lat="42.81478" lon="1.94947">
        <ele>1034.2</ele>
        <time>2024-10-11T08:50:12Z</time>
      </trkpt>
      <trkpt lat="42.81476" lon="1.94943">
        <ele>1034.2</ele>
        <time>2024-10-11T08:50:13Z</time>
      </trkpt>
      <trkpt lat="42.81474" lon="1.94939">
        <ele>1034.6</ele>
        <time>2024-10-11T08:50:14Z</time>
      </trkpt>
      <trkpt lat="42.81471" lon="1.94936">
        <ele>1034.6</ele>
        <time>2024-10-11T08:50:15Z</time>
      </trkpt>
      <trkpt lat="42.81469" lon="1.94932">
        <ele>1034.6</ele>
        <time>2024-10-11T08:50:16Z</time>
      </trkpt>
      <trkpt lat="42.81467" lon="1.94929">
        <ele>1034.6</ele>
        <time>2024-10-11T08:50:17Z</time>
      </trkpt>
      <trkpt lat="42.81464" lon="1.94925">
        <ele>1035</ele>
        <time>2024-10-11T08:50:18Z</time>
      </trkpt>
      <trkpt lat="42.81462" lon="1.94922">
        <ele>1035</ele>
        <time>2024-10-11T08:50:19Z</time>
      </trkpt>
      <trkpt lat="42.8146" lon="1.94918">
        <ele>1035</ele>
        <time>2024-10-11T08:50:20Z</time>
      </trkpt>
      <trkpt lat="42.81458" lon="1.94915">
        <ele>1035.4</ele>
        <time>2024-10-11T08:50:21Z</time>
      </trkpt>
      <trkpt lat="42.81455" lon="1.94911">
        <ele>1035.6</ele>
        <time>2024-10-11T08:50:22Z</time>
      </trkpt>
      <trkpt lat="42.81453" lon="1.94907">
        <ele>1035.6</ele>
        <time>2024-10-11T08:50:23Z</time>
      </trkpt>
      <trkpt lat="42.81451" lon="1.94904">
        <ele>1035.6</ele>
        <time>2024-10-11T08:50:24Z</time>
      </trkpt>
      <trkpt lat="42.81448" lon="1.949">
        <ele>1035.6</ele>
        <time>2024-10-11T08:50:25Z</time>
      </trkpt>
      <trkpt lat="42.81446" lon="1.94896">
        <ele>1036</ele>
        <time>2024-10-11T08:50:26Z</time>
      </trkpt>
      <trkpt lat="42.81443" lon="1.94892">
        <ele>1036</ele>
        <time>2024-10-11T08:50:27Z</time>
      </trkpt>
      <trkpt lat="42.8144" lon="1.94888">
        <ele>1036</ele>
        <time>2024-10-11T08:50:28Z</time>
      </trkpt>
      <trkpt lat="42.81438" lon="1.94884">
        <ele>1036</ele>
        <time>2024-10-11T08:50:29Z</time>
      </trkpt>
      <trkpt lat="42.81435" lon="1.9488">
        <ele>1036.4</ele>
        <time>2024-10-11T08:50:30Z</time>
      </trkpt>
      <trkpt lat="42.81433" lon="1.94876">
        <ele>1036.8</ele>
        <time>2024-10-11T08:50:31Z</time>
      </trkpt>
      <trkpt lat="42.8143" lon="1.94872">
        <ele>1036.8</ele>
        <time>2024-10-11T08:50:32Z</time>
      </trkpt>
      <trkpt lat="42.81427" lon="1.94868">
        <ele>1036.8</ele>
        <time>2024-10-11T08:50:33Z</time>
      </trkpt>
      <trkpt lat="42.81425" lon="1.94864">
        <ele>1037.4</ele>
        <time>2024-10-11T08:50:34Z</time>
      </trkpt>
      <trkpt lat="42.81422" lon="1.9486">
        <ele>1037.4</ele>
        <time>2024-10-11T08:50:35Z</time>
      </trkpt>
      <trkpt lat="42.81419" lon="1.94856">
        <ele>1037.4</ele>
        <time>2024-10-11T08:50:36Z</time>
      </trkpt>
      <trkpt lat="42.81417" lon="1.94852">
        <ele>1037.4</ele>
        <time>2024-10-11T08:50:37Z</time>
      </trkpt>
      <trkpt lat="42.81414" lon="1.94848">
        <ele>1037.4</ele>
        <time>2024-10-11T08:50:38Z</time>
      </trkpt>
      <trkpt lat="42.81412" lon="1.94844">
        <ele>1037.4</ele>
        <time>2024-10-11T08:50:39Z</time>
      </trkpt>
      <trkpt lat="42.81409" lon="1.9484">
        <ele>1037.8</ele>
        <time>2024-10-11T08:50:40Z</time>
      </trkpt>
      <trkpt lat="42.81407" lon="1.94836">
        <ele>1037.8</ele>
        <time>2024-10-11T08:50:41Z</time>
      </trkpt>
      <trkpt lat="42.81404" lon="1.94832">
        <ele>1037.8</ele>
        <time>2024-10-11T08:50:42Z</time>
      </trkpt>
      <trkpt lat="42.81401" lon="1.94828">
        <ele>1037.8</ele>
        <time>2024-10-11T08:50:43Z</time>
      </trkpt>
      <trkpt lat="42.81399" lon="1.94824">
        <ele>1038.2</ele>
        <time>2024-10-11T08:50:44Z</time>
      </trkpt>
      <trkpt lat="42.81396" lon="1.9482">
        <ele>1038.6</ele>
        <time>2024-10-11T08:50:45Z</time>
      </trkpt>
      <trkpt lat="42.81394" lon="1.94816">
        <ele>1038.6</ele>
        <time>2024-10-11T08:50:46Z</time>
      </trkpt>
      <trkpt lat="42.81391" lon="1.94812">
        <ele>1038.6</ele>
        <time>2024-10-11T08:50:47Z</time>
      </trkpt>
      <trkpt lat="42.81388" lon="1.94808">
        <ele>1038.6</ele>
        <time>2024-10-11T08:50:48Z</time>
      </trkpt>
      <trkpt lat="42.81386" lon="1.94804">
        <ele>1038.6</ele>
        <time>2024-10-11T08:50:49Z</time>
      </trkpt>
      <trkpt lat="42.81383" lon="1.948">
        <ele>1039</ele>
        <time>2024-10-11T08:50:50Z</time>
      </trkpt>
      <trkpt lat="42.81381" lon="1.94796">
        <ele>1039</ele>
        <time>2024-10-11T08:50:51Z</time>
      </trkpt>
      <trkpt lat="42.81378" lon="1.94792">
        <ele>1039</ele>
        <time>2024-10-11T08:50:52Z</time>
      </trkpt>
      <trkpt lat="42.81375" lon="1.94788">
        <ele>1039.6</ele>
        <time>2024-10-11T08:50:53Z</time>
      </trkpt>
      <trkpt lat="42.81373" lon="1.94784">
        <ele>1039.8</ele>
        <time>2024-10-11T08:50:54Z</time>
      </trkpt>
      <trkpt lat="42.8137" lon="1.9478">
        <ele>1039.8</ele>
        <time>2024-10-11T08:50:55Z</time>
      </trkpt>
      <trkpt lat="42.81368" lon="1.94776">
        <ele>1039.8</ele>
        <time>2024-10-11T08:50:56Z</time>
      </trkpt>
      <trkpt lat="42.81365" lon="1.94772">
        <ele>1039.8</ele>
        <time>2024-10-11T08:50:57Z</time>
      </trkpt>
      <trkpt lat="42.81363" lon="1.94768">
        <ele>1040.2</ele>
        <time>2024-10-11T08:50:58Z</time>
      </trkpt>
      <trkpt lat="42.8136" lon="1.94764">
        <ele>1040.2</ele>
        <time>2024-10-11T08:50:59Z</time>
      </trkpt>
      <trkpt lat="42.81357" lon="1.9476">
        <ele>1040.2</ele>
        <time>2024-10-11T08:51:00Z</time>
      </trkpt>
      <trkpt lat="42.81355" lon="1.94756">
        <ele>1040.2</ele>
        <time>2024-10-11T08:51:01Z</time>
      </trkpt>
      <trkpt lat="42.81352" lon="1.94752">
        <ele>1040.2</ele>
        <time>2024-10-11T08:51:02Z</time>
      </trkpt>
      <trkpt lat="42.8135" lon="1.94748">
        <ele>1041</ele>
        <time>2024-10-11T08:51:03Z</time>
      </trkpt>
      <trkpt lat="42.81347" lon="1.94744">
        <ele>1041</ele>
        <time>2024-10-11T08:51:04Z</time>
      </trkpt>
      <trkpt lat="42.81344" lon="1.9474">
        <ele>1041</ele>
        <time>2024-10-11T08:51:05Z</time>
      </trkpt>
      <trkpt lat="42.81342" lon="1.94736">
        <ele>1041</ele>
        <time>2024-10-11T08:51:06Z</time>
      </trkpt>
      <trkpt lat="42.81339" lon="1.94732">
        <ele>1041.2</ele>
        <time>2024-10-11T08:51:07Z</time>
      </trkpt>
      <trkpt lat="42.81337" lon="1.94728">
        <ele>1041.2</ele>
        <time>2024-10-11T08:51:08Z</time>
      </trkpt>
      <trkpt lat="42.81334" lon="1.94724">
        <ele>1041.2</ele>
        <time>2024-10-11T08:51:09Z</time>
      </trkpt>
      <trkpt lat="42.81332" lon="1.9472">
        <ele>1041.8</ele>
        <time>2024-10-11T08:51:10Z</time>
      </trkpt>
      <trkpt lat="42.81328" lon="1.94714">
        <ele>1041.8</ele>
        <time>2024-10-11T08:51:11Z</time>
      </trkpt>
      <trkpt lat="42.81326" lon="1.94712">
        <ele>1041.8</ele>
        <time>2024-10-11T08:51:12Z</time>
      </trkpt>
      <trkpt lat="42.81324" lon="1.94708">
        <ele>1041.8</ele>
        <time>2024-10-11T08:51:13Z</time>
      </trkpt>
      <trkpt lat="42.81321" lon="1.94704">
        <ele>1041.8</ele>
        <time>2024-10-11T08:51:14Z</time>
      </trkpt>
      <trkpt lat="42.81319" lon="1.947">
        <ele>1042.4</ele>
        <time>2024-10-11T08:51:15Z</time>
      </trkpt>
      <trkpt lat="42.81316" lon="1.94696">
        <ele>1042.6</ele>
        <time>2024-10-11T08:51:16Z</time>
      </trkpt>
      <trkpt lat="42.81314" lon="1.94692">
        <ele>1042.6</ele>
        <time>2024-10-11T08:51:17Z</time>
      </trkpt>
      <trkpt lat="42.81311" lon="1.94688">
        <ele>1042.6</ele>
        <time>2024-10-11T08:51:18Z</time>
      </trkpt>
      <trkpt lat="42.81308" lon="1.94684">
        <ele>1042.6</ele>
        <time>2024-10-11T08:51:19Z</time>
      </trkpt>
      <trkpt lat="42.81306" lon="1.9468">
        <ele>1042.8</ele>
        <time>2024-10-11T08:51:20Z</time>
      </trkpt>
      <trkpt lat="42.81303" lon="1.94677">
        <ele>1042.8</ele>
        <time>2024-10-11T08:51:21Z</time>
      </trkpt>
      <trkpt lat="42.813" lon="1.94673">
        <ele>1042.8</ele>
        <time>2024-10-11T08:51:22Z</time>
      </trkpt>
      <trkpt lat="42.81298" lon="1.94669">
        <ele>1042.8</ele>
        <time>2024-10-11T08:51:23Z</time>
      </trkpt>
      <trkpt lat="42.81295" lon="1.94665">
        <ele>1043.2</ele>
        <time>2024-10-11T08:51:24Z</time>
      </trkpt>
      <trkpt lat="42.81293" lon="1.94661">
        <ele>1043.2</ele>
        <time>2024-10-11T08:51:25Z</time>
      </trkpt>
      <trkpt lat="42.8129" lon="1.94656">
        <ele>1043.6</ele>
        <time>2024-10-11T08:51:26Z</time>
      </trkpt>
      <trkpt lat="42.81288" lon="1.94652">
        <ele>1043.6</ele>
        <time>2024-10-11T08:51:27Z</time>
      </trkpt>
      <trkpt lat="42.81285" lon="1.94648">
        <ele>1043.6</ele>
        <time>2024-10-11T08:51:28Z</time>
      </trkpt>
      <trkpt lat="42.81282" lon="1.94645">
        <ele>1043.6</ele>
        <time>2024-10-11T08:51:29Z</time>
      </trkpt>
      <trkpt lat="42.8128" lon="1.94641">
        <ele>1044.2</ele>
        <time>2024-10-11T08:51:30Z</time>
      </trkpt>
      <trkpt lat="42.81277" lon="1.94637">
        <ele>1044.2</ele>
        <time>2024-10-11T08:51:31Z</time>
      </trkpt>
      <trkpt lat="42.81275" lon="1.94633">
        <ele>1044.2</ele>
        <time>2024-10-11T08:51:32Z</time>
      </trkpt>
      <trkpt lat="42.81272" lon="1.94629">
        <ele>1044.2</ele>
        <time>2024-10-11T08:51:33Z</time>
      </trkpt>
      <trkpt lat="42.81269" lon="1.94625">
        <ele>1044.8</ele>
        <time>2024-10-11T08:51:34Z</time>
      </trkpt>
      <trkpt lat="42.81267" lon="1.94621">
        <ele>1044.8</ele>
        <time>2024-10-11T08:51:35Z</time>
      </trkpt>
      <trkpt lat="42.81264" lon="1.94617">
        <ele>1044.8</ele>
        <time>2024-10-11T08:51:36Z</time>
      </trkpt>
      <trkpt lat="42.81261" lon="1.94613">
        <ele>1044.8</ele>
        <time>2024-10-11T08:51:37Z</time>
      </trkpt>
      <trkpt lat="42.81258" lon="1.9461">
        <ele>1044.8</ele>
        <time>2024-10-11T08:51:38Z</time>
      </trkpt>
      <trkpt lat="42.81255" lon="1.94606">
        <ele>1045</ele>
        <time>2024-10-11T08:51:39Z</time>
      </trkpt>
      <trkpt lat="42.81252" lon="1.94603">
        <ele>1045</ele>
        <time>2024-10-11T08:51:40Z</time>
      </trkpt>
      <trkpt lat="42.8125" lon="1.94599">
        <ele>1045</ele>
        <time>2024-10-11T08:51:41Z</time>
      </trkpt>
      <trkpt lat="42.81248" lon="1.94595">
        <ele>1046</ele>
        <time>2024-10-11T08:51:42Z</time>
      </trkpt>
      <trkpt lat="42.81245" lon="1.9459">
        <ele>1045.4</ele>
        <time>2024-10-11T08:51:43Z</time>
      </trkpt>
      <trkpt lat="42.81243" lon="1.94586">
        <ele>1045.4</ele>
        <time>2024-10-11T08:51:44Z</time>
      </trkpt>
      <trkpt lat="42.81241" lon="1.94581">
        <ele>1045.4</ele>
        <time>2024-10-11T08:51:45Z</time>
      </trkpt>
      <trkpt lat="42.81239" lon="1.94577">
        <ele>1045.4</ele>
        <time>2024-10-11T08:51:46Z</time>
      </trkpt>
      <trkpt lat="42.81236" lon="1.94573">
        <ele>1046</ele>
        <time>2024-10-11T08:51:47Z</time>
      </trkpt>
      <trkpt lat="42.81233" lon="1.94568">
        <ele>1046</ele>
        <time>2024-10-11T08:51:48Z</time>
      </trkpt>
      <trkpt lat="42.81231" lon="1.94564">
        <ele>1046</ele>
        <time>2024-10-11T08:51:49Z</time>
      </trkpt>
      <trkpt lat="42.81228" lon="1.9456">
        <ele>1046</ele>
        <time>2024-10-11T08:51:50Z</time>
      </trkpt>
      <trkpt lat="42.81226" lon="1.94555">
        <ele>1046</ele>
        <time>2024-10-11T08:51:51Z</time>
      </trkpt>
      <trkpt lat="42.81223" lon="1.94551">
        <ele>1046.8</ele>
        <time>2024-10-11T08:51:52Z</time>
      </trkpt>
      <trkpt lat="42.8122" lon="1.94547">
        <ele>1046.8</ele>
        <time>2024-10-11T08:51:53Z</time>
      </trkpt>
      <trkpt lat="42.81218" lon="1.94543">
        <ele>1046.8</ele>
        <time>2024-10-11T08:51:54Z</time>
      </trkpt>
      <trkpt lat="42.81215" lon="1.94538">
        <ele>1046.8</ele>
        <time>2024-10-11T08:51:55Z</time>
      </trkpt>
      <trkpt lat="42.81213" lon="1.94533">
        <ele>1046.6</ele>
        <time>2024-10-11T08:51:56Z</time>
      </trkpt>
      <trkpt lat="42.81211" lon="1.94529">
        <ele>1047.2</ele>
        <time>2024-10-11T08:51:57Z</time>
      </trkpt>
      <trkpt lat="42.81208" lon="1.94524">
        <ele>1047.2</ele>
        <time>2024-10-11T08:51:58Z</time>
      </trkpt>
      <trkpt lat="42.81206" lon="1.9452">
        <ele>1047.2</ele>
        <time>2024-10-11T08:51:59Z</time>
      </trkpt>
      <trkpt lat="42.81204" lon="1.94515">
        <ele>1047.4</ele>
        <time>2024-10-11T08:52:00Z</time>
      </trkpt>
      <trkpt lat="42.81203" lon="1.94511">
        <ele>1047.4</ele>
        <time>2024-10-11T08:52:01Z</time>
      </trkpt>
      <trkpt lat="42.81201" lon="1.94506">
        <ele>1047.4</ele>
        <time>2024-10-11T08:52:02Z</time>
      </trkpt>
      <trkpt lat="42.81199" lon="1.94501">
        <ele>1047.4</ele>
        <time>2024-10-11T08:52:03Z</time>
      </trkpt>
      <trkpt lat="42.81198" lon="1.94496">
        <ele>1047.4</ele>
        <time>2024-10-11T08:52:04Z</time>
      </trkpt>
      <trkpt lat="42.81197" lon="1.94491">
        <ele>1047.8</ele>
        <time>2024-10-11T08:52:05Z</time>
      </trkpt>
      <trkpt lat="42.81195" lon="1.94486">
        <ele>1048</ele>
        <time>2024-10-11T08:52:06Z</time>
      </trkpt>
      <trkpt lat="42.81194" lon="1.9448">
        <ele>1048</ele>
        <time>2024-10-11T08:52:07Z</time>
      </trkpt>
      <trkpt lat="42.81192" lon="1.94475">
        <ele>1048</ele>
        <time>2024-10-11T08:52:08Z</time>
      </trkpt>
      <trkpt lat="42.81191" lon="1.9447">
        <ele>1048.6</ele>
        <time>2024-10-11T08:52:09Z</time>
      </trkpt>
      <trkpt lat="42.81189" lon="1.94465">
        <ele>1048.6</ele>
        <time>2024-10-11T08:52:10Z</time>
      </trkpt>
      <trkpt lat="42.81188" lon="1.9446">
        <ele>1048.6</ele>
        <time>2024-10-11T08:52:11Z</time>
      </trkpt>
      <trkpt lat="42.81187" lon="1.94455">
        <ele>1048.6</ele>
        <time>2024-10-11T08:52:12Z</time>
      </trkpt>
      <trkpt lat="42.81186" lon="1.9445">
        <ele>1048.6</ele>
        <time>2024-10-11T08:52:13Z</time>
      </trkpt>
      <trkpt lat="42.81184" lon="1.94445">
        <ele>1049.2</ele>
        <time>2024-10-11T08:52:14Z</time>
      </trkpt>
      <trkpt lat="42.81183" lon="1.9444">
        <ele>1048.8</ele>
        <time>2024-10-11T08:52:15Z</time>
      </trkpt>
      <trkpt lat="42.81182" lon="1.94435">
        <ele>1048.8</ele>
        <time>2024-10-11T08:52:16Z</time>
      </trkpt>
      <trkpt lat="42.81181" lon="1.9443">
        <ele>1048.8</ele>
        <time>2024-10-11T08:52:17Z</time>
      </trkpt>
      <trkpt lat="42.81179" lon="1.94425">
        <ele>1049.6</ele>
        <time>2024-10-11T08:52:18Z</time>
      </trkpt>
      <trkpt lat="42.81178" lon="1.9442">
        <ele>1050</ele>
        <time>2024-10-11T08:52:19Z</time>
      </trkpt>
      <trkpt lat="42.81177" lon="1.94415">
        <ele>1050</ele>
        <time>2024-10-11T08:52:20Z</time>
      </trkpt>
      <trkpt lat="42.81175" lon="1.94411">
        <ele>1050</ele>
        <time>2024-10-11T08:52:21Z</time>
      </trkpt>
      <trkpt lat="42.81174" lon="1.94406">
        <ele>1050</ele>
        <time>2024-10-11T08:52:22Z</time>
      </trkpt>
      <trkpt lat="42.81173" lon="1.94402">
        <ele>1050.4</ele>
        <time>2024-10-11T08:52:23Z</time>
      </trkpt>
      <trkpt lat="42.81172" lon="1.94397">
        <ele>1050.6</ele>
        <time>2024-10-11T08:52:24Z</time>
      </trkpt>
      <trkpt lat="42.8117" lon="1.94393">
        <ele>1050.6</ele>
        <time>2024-10-11T08:52:25Z</time>
      </trkpt>
      <trkpt lat="42.81169" lon="1.94389">
        <ele>1050.6</ele>
        <time>2024-10-11T08:52:26Z</time>
      </trkpt>
      <trkpt lat="42.81168" lon="1.94385">
        <ele>1051</ele>
        <time>2024-10-11T08:52:27Z</time>
      </trkpt>
      <trkpt lat="42.81167" lon="1.94381">
        <ele>1051</ele>
        <time>2024-10-11T08:52:28Z</time>
      </trkpt>
      <trkpt lat="42.81166" lon="1.94377">
        <ele>1051.2</ele>
        <time>2024-10-11T08:52:29Z</time>
      </trkpt>
      <trkpt lat="42.81165" lon="1.94373">
        <ele>1051.2</ele>
        <time>2024-10-11T08:52:30Z</time>
      </trkpt>
      <trkpt lat="42.81164" lon="1.94369">
        <ele>1051.2</ele>
        <time>2024-10-11T08:52:31Z</time>
      </trkpt>
      <trkpt lat="42.81163" lon="1.94365">
        <ele>1052</ele>
        <time>2024-10-11T08:52:32Z</time>
      </trkpt>
      <trkpt lat="42.81162" lon="1.94361">
        <ele>1052.2</ele>
        <time>2024-10-11T08:52:33Z</time>
      </trkpt>
      <trkpt lat="42.81161" lon="1.94357">
        <ele>1052.2</ele>
        <time>2024-10-11T08:52:34Z</time>
      </trkpt>
      <trkpt lat="42.8116" lon="1.94353">
        <ele>1052.2</ele>
        <time>2024-10-11T08:52:35Z</time>
      </trkpt>
      <trkpt lat="42.81159" lon="1.94348">
        <ele>1052.2</ele>
        <time>2024-10-11T08:52:36Z</time>
      </trkpt>
      <trkpt lat="42.81159" lon="1.94344">
        <ele>1052.8</ele>
        <time>2024-10-11T08:52:37Z</time>
      </trkpt>
      <trkpt lat="42.81158" lon="1.9434">
        <ele>1052.8</ele>
        <time>2024-10-11T08:52:38Z</time>
      </trkpt>
      <trkpt lat="42.81158" lon="1.94336">
        <ele>1052.8</ele>
        <time>2024-10-11T08:52:39Z</time>
      </trkpt>
      <trkpt lat="42.81158" lon="1.94332">
        <ele>1052.8</ele>
        <time>2024-10-11T08:52:40Z</time>
      </trkpt>
      <trkpt lat="42.81158" lon="1.94327">
        <ele>1053.2</ele>
        <time>2024-10-11T08:52:41Z</time>
      </trkpt>
      <trkpt lat="42.81157" lon="1.94323">
        <ele>1053.4</ele>
        <time>2024-10-11T08:52:42Z</time>
      </trkpt>
      <trkpt lat="42.81158" lon="1.94319">
        <ele>1053.4</ele>
        <time>2024-10-11T08:52:43Z</time>
      </trkpt>
      <trkpt lat="42.81158" lon="1.94316">
        <ele>1053.4</ele>
        <time>2024-10-11T08:52:44Z</time>
      </trkpt>
      <trkpt lat="42.81158" lon="1.94312">
        <ele>1054</ele>
        <time>2024-10-11T08:52:45Z</time>
      </trkpt>
      <trkpt lat="42.81158" lon="1.94308">
        <ele>1054</ele>
        <time>2024-10-11T08:52:46Z</time>
      </trkpt>
      <trkpt lat="42.81158" lon="1.94304">
        <ele>1054</ele>
        <time>2024-10-11T08:52:47Z</time>
      </trkpt>
      <trkpt lat="42.81158" lon="1.94299">
        <ele>1054</ele>
        <time>2024-10-11T08:52:48Z</time>
      </trkpt>
      <trkpt lat="42.81158" lon="1.94295">
        <ele>1054</ele>
        <time>2024-10-11T08:52:49Z</time>
      </trkpt>
      <trkpt lat="42.81158" lon="1.94291">
        <ele>1054</ele>
        <time>2024-10-11T08:52:50Z</time>
      </trkpt>
      <trkpt lat="42.81158" lon="1.94287">
        <ele>1054.8</ele>
        <time>2024-10-11T08:52:51Z</time>
      </trkpt>
      <trkpt lat="42.81158" lon="1.94282">
        <ele>1055</ele>
        <time>2024-10-11T08:52:52Z</time>
      </trkpt>
      <trkpt lat="42.81158" lon="1.94278">
        <ele>1055</ele>
        <time>2024-10-11T08:52:53Z</time>
      </trkpt>
      <trkpt lat="42.81158" lon="1.94274">
        <ele>1055</ele>
        <time>2024-10-11T08:52:54Z</time>
      </trkpt>
      <trkpt lat="42.81157" lon="1.9427">
        <ele>1055.4</ele>
        <time>2024-10-11T08:52:55Z</time>
      </trkpt>
      <trkpt lat="42.81157" lon="1.94266">
        <ele>1055.6</ele>
        <time>2024-10-11T08:52:56Z</time>
      </trkpt>
      <trkpt lat="42.81157" lon="1.94262">
        <ele>1055.6</ele>
        <time>2024-10-11T08:52:57Z</time>
      </trkpt>
      <trkpt lat="42.81158" lon="1.94258">
        <ele>1055.6</ele>
        <time>2024-10-11T08:52:58Z</time>
      </trkpt>
      <trkpt lat="42.81158" lon="1.94254">
        <ele>1055.6</ele>
        <time>2024-10-11T08:52:59Z</time>
      </trkpt>
      <trkpt lat="42.81158" lon="1.94249">
        <ele>1055.6</ele>
        <time>2024-10-11T08:53:00Z</time>
      </trkpt>
      <trkpt lat="42.81159" lon="1.94245">
        <ele>1056.2</ele>
        <time>2024-10-11T08:53:01Z</time>
      </trkpt>
      <trkpt lat="42.81159" lon="1.94241">
        <ele>1056.2</ele>
        <time>2024-10-11T08:53:02Z</time>
      </trkpt>
      <trkpt lat="42.81159" lon="1.94237">
        <ele>1056.2</ele>
        <time>2024-10-11T08:53:03Z</time>
      </trkpt>
      <trkpt lat="42.81159" lon="1.94234">
        <ele>1056.2</ele>
        <time>2024-10-11T08:53:04Z</time>
      </trkpt>
      <trkpt lat="42.81159" lon="1.9423">
        <ele>1056.8</ele>
        <time>2024-10-11T08:53:05Z</time>
      </trkpt>
      <trkpt lat="42.8116" lon="1.94226">
        <ele>1056.8</ele>
        <time>2024-10-11T08:53:06Z</time>
      </trkpt>
      <trkpt lat="42.8116" lon="1.94222">
        <ele>1056.8</ele>
        <time>2024-10-11T08:53:07Z</time>
      </trkpt>
      <trkpt lat="42.8116" lon="1.94218">
        <ele>1057.2</ele>
        <time>2024-10-11T08:53:08Z</time>
      </trkpt>
      <trkpt lat="42.81161" lon="1.94214">
        <ele>1057.4</ele>
        <time>2024-10-11T08:53:09Z</time>
      </trkpt>
      <trkpt lat="42.81161" lon="1.9421">
        <ele>1057.4</ele>
        <time>2024-10-11T08:53:10Z</time>
      </trkpt>
      <trkpt lat="42.81161" lon="1.94206">
        <ele>1057.4</ele>
        <time>2024-10-11T08:53:11Z</time>
      </trkpt>
      <trkpt lat="42.81162" lon="1.94203">
        <ele>1057.4</ele>
        <time>2024-10-11T08:53:12Z</time>
      </trkpt>
      <trkpt lat="42.81162" lon="1.94199">
        <ele>1058.2</ele>
        <time>2024-10-11T08:53:13Z</time>
      </trkpt>
      <trkpt lat="42.81163" lon="1.94195">
        <ele>1058</ele>
        <time>2024-10-11T08:53:14Z</time>
      </trkpt>
      <trkpt lat="42.81164" lon="1.94191">
        <ele>1058</ele>
        <time>2024-10-11T08:53:15Z</time>
      </trkpt>
      <trkpt lat="42.81164" lon="1.94187">
        <ele>1058</ele>
        <time>2024-10-11T08:53:16Z</time>
      </trkpt>
      <trkpt lat="42.81165" lon="1.94183">
        <ele>1058.8</ele>
        <time>2024-10-11T08:53:17Z</time>
      </trkpt>
      <trkpt lat="42.81166" lon="1.94179">
        <ele>1059.2</ele>
        <time>2024-10-11T08:53:18Z</time>
      </trkpt>
      <trkpt lat="42.81166" lon="1.94175">
        <ele>1059.2</ele>
        <time>2024-10-11T08:53:19Z</time>
      </trkpt>
      <trkpt lat="42.81166" lon="1.94171">
        <ele>1059.2</ele>
        <time>2024-10-11T08:53:20Z</time>
      </trkpt>
      <trkpt lat="42.81167" lon="1.94167">
        <ele>1059.2</ele>
        <time>2024-10-11T08:53:21Z</time>
      </trkpt>
      <trkpt lat="42.81167" lon="1.94163">
        <ele>1060</ele>
        <time>2024-10-11T08:53:22Z</time>
      </trkpt>
      <trkpt lat="42.81168" lon="1.94159">
        <ele>1060</ele>
        <time>2024-10-11T08:53:23Z</time>
      </trkpt>
      <trkpt lat="42.81168" lon="1.94155">
        <ele>1060</ele>
        <time>2024-10-11T08:53:24Z</time>
      </trkpt>
      <trkpt lat="42.81168" lon="1.94151">
        <ele>1060</ele>
        <time>2024-10-11T08:53:25Z</time>
      </trkpt>
      <trkpt lat="42.81168" lon="1.94146">
        <ele>1060</ele>
        <time>2024-10-11T08:53:26Z</time>
      </trkpt>
      <trkpt lat="42.81168" lon="1.94142">
        <ele>1060.4</ele>
        <time>2024-10-11T08:53:27Z</time>
      </trkpt>
      <trkpt lat="42.81168" lon="1.94138">
        <ele>1060.4</ele>
        <time>2024-10-11T08:53:28Z</time>
      </trkpt>
      <trkpt lat="42.81169" lon="1.94134">
        <ele>1060.4</ele>
        <time>2024-10-11T08:53:29Z</time>
      </trkpt>
      <trkpt lat="42.81169" lon="1.9413">
        <ele>1060.4</ele>
        <time>2024-10-11T08:53:30Z</time>
      </trkpt>
      <trkpt lat="42.81169" lon="1.94126">
        <ele>1060.4</ele>
        <time>2024-10-11T08:53:31Z</time>
      </trkpt>
      <trkpt lat="42.81169" lon="1.94121">
        <ele>1061</ele>
        <time>2024-10-11T08:53:32Z</time>
      </trkpt>
      <trkpt lat="42.81169" lon="1.94117">
        <ele>1061</ele>
        <time>2024-10-11T08:53:33Z</time>
      </trkpt>
      <trkpt lat="42.81169" lon="1.94112">
        <ele>1061</ele>
        <time>2024-10-11T08:53:34Z</time>
      </trkpt>
      <trkpt lat="42.81169" lon="1.94108">
        <ele>1061</ele>
        <time>2024-10-11T08:53:35Z</time>
      </trkpt>
      <trkpt lat="42.81169" lon="1.94104">
        <ele>1061.6</ele>
        <time>2024-10-11T08:53:36Z</time>
      </trkpt>
      <trkpt lat="42.81169" lon="1.941">
        <ele>1061.6</ele>
        <time>2024-10-11T08:53:37Z</time>
      </trkpt>
      <trkpt lat="42.81169" lon="1.94095">
        <ele>1061.6</ele>
        <time>2024-10-11T08:53:38Z</time>
      </trkpt>
      <trkpt lat="42.81169" lon="1.94091">
        <ele>1061.6</ele>
        <time>2024-10-11T08:53:39Z</time>
      </trkpt>
      <trkpt lat="42.81169" lon="1.94087">
        <ele>1062.2</ele>
        <time>2024-10-11T08:53:40Z</time>
      </trkpt>
      <trkpt lat="42.81169" lon="1.94083">
        <ele>1062</ele>
        <time>2024-10-11T08:53:41Z</time>
      </trkpt>
      <trkpt lat="42.81169" lon="1.94079">
        <ele>1062</ele>
        <time>2024-10-11T08:53:42Z</time>
      </trkpt>
      <trkpt lat="42.81169" lon="1.94075">
        <ele>1062</ele>
        <time>2024-10-11T08:53:43Z</time>
      </trkpt>
      <trkpt lat="42.81169" lon="1.94071">
        <ele>1063</ele>
        <time>2024-10-11T08:53:44Z</time>
      </trkpt>
      <trkpt lat="42.8117" lon="1.94067">
        <ele>1063</ele>
        <time>2024-10-11T08:53:45Z</time>
      </trkpt>
      <trkpt lat="42.8117" lon="1.94064">
        <ele>1063</ele>
        <time>2024-10-11T08:53:46Z</time>
      </trkpt>
      <trkpt lat="42.81169" lon="1.9406">
        <ele>1063</ele>
        <time>2024-10-11T08:53:47Z</time>
      </trkpt>
      <trkpt lat="42.81169" lon="1.94056">
        <ele>1063.4</ele>
        <time>2024-10-11T08:53:48Z</time>
      </trkpt>
      <trkpt lat="42.81169" lon="1.94053">
        <ele>1063.4</ele>
        <time>2024-10-11T08:53:49Z</time>
      </trkpt>
      <trkpt lat="42.81169" lon="1.94049">
        <ele>1063.8</ele>
        <time>2024-10-11T08:53:50Z</time>
      </trkpt>
      <trkpt lat="42.81169" lon="1.94046">
        <ele>1063.8</ele>
        <time>2024-10-11T08:53:51Z</time>
      </trkpt>
      <trkpt lat="42.81169" lon="1.94042">
        <ele>1063.8</ele>
        <time>2024-10-11T08:53:52Z</time>
      </trkpt>
      <trkpt lat="42.8117" lon="1.94039">
        <ele>1064</ele>
        <time>2024-10-11T08:53:53Z</time>
      </trkpt>
      <trkpt lat="42.8117" lon="1.94036">
        <ele>1064.4</ele>
        <time>2024-10-11T08:53:54Z</time>
      </trkpt>
      <trkpt lat="42.81169" lon="1.94033">
        <ele>1064.4</ele>
        <time>2024-10-11T08:53:55Z</time>
      </trkpt>
      <trkpt lat="42.81169" lon="1.94031">
        <ele>1064.4</ele>
        <time>2024-10-11T08:53:56Z</time>
      </trkpt>
      <trkpt lat="42.81169" lon="1.94031">
        <ele>1064.4</ele>
        <time>2024-10-11T08:53:57Z</time>
      </trkpt>
      <trkpt lat="42.81163" lon="1.94024">
        <ele>1064.8</ele>
        <time>2024-10-11T08:55:49Z</time>
      </trkpt>
      <trkpt lat="42.81163" lon="1.94022">
        <ele>1064.8</ele>
        <time>2024-10-11T08:55:50Z</time>
      </trkpt>
      <trkpt lat="42.81162" lon="1.94019">
        <ele>1065.2</ele>
        <time>2024-10-11T08:55:51Z</time>
      </trkpt>
      <trkpt lat="42.81161" lon="1.94017">
        <ele>1065.2</ele>
        <time>2024-10-11T08:55:52Z</time>
      </trkpt>
      <trkpt lat="42.8116" lon="1.94016">
        <ele>1065.2</ele>
        <time>2024-10-11T08:55:53Z</time>
      </trkpt>
      <trkpt lat="42.81158" lon="1.94013">
        <ele>1065.8</ele>
        <time>2024-10-11T08:55:54Z</time>
      </trkpt>
      <trkpt lat="42.81156" lon="1.94011">
        <ele>1065.6</ele>
        <time>2024-10-11T08:55:55Z</time>
      </trkpt>
      <trkpt lat="42.81154" lon="1.94009">
        <ele>1065.6</ele>
        <time>2024-10-11T08:55:56Z</time>
      </trkpt>
      <trkpt lat="42.81151" lon="1.94009">
        <ele>1065.6</ele>
        <time>2024-10-11T08:55:57Z</time>
      </trkpt>
      <trkpt lat="42.81149" lon="1.94008">
        <ele>1065.6</ele>
        <time>2024-10-11T08:55:58Z</time>
      </trkpt>
      <trkpt lat="42.81146" lon="1.94007">
        <ele>1066.2</ele>
        <time>2024-10-11T08:55:59Z</time>
      </trkpt>
      <trkpt lat="42.81143" lon="1.94007">
        <ele>1066.2</ele>
        <time>2024-10-11T08:56:00Z</time>
      </trkpt>
      <trkpt lat="42.8114" lon="1.94007">
        <ele>1066.4</ele>
        <time>2024-10-11T08:56:01Z</time>
      </trkpt>
      <trkpt lat="42.81137" lon="1.94008">
        <ele>1066.4</ele>
        <time>2024-10-11T08:56:02Z</time>
      </trkpt>
      <trkpt lat="42.81135" lon="1.94009">
        <ele>1066.4</ele>
        <time>2024-10-11T08:56:03Z</time>
      </trkpt>
      <trkpt lat="42.81131" lon="1.9401">
        <ele>1066.4</ele>
        <time>2024-10-11T08:56:04Z</time>
      </trkpt>
      <trkpt lat="42.8113" lon="1.9401">
        <ele>1067.2</ele>
        <time>2024-10-11T08:56:05Z</time>
      </trkpt>
      <trkpt lat="42.81128" lon="1.94012">
        <ele>1067.2</ele>
        <time>2024-10-11T08:56:06Z</time>
      </trkpt>
      <trkpt lat="42.81126" lon="1.94014">
        <ele>1067.2</ele>
        <time>2024-10-11T08:56:07Z</time>
      </trkpt>
      <trkpt lat="42.81124" lon="1.94016">
        <ele>1067.2</ele>
        <time>2024-10-11T08:56:08Z</time>
      </trkpt>
      <trkpt lat="42.81122" lon="1.94018">
        <ele>1067.2</ele>
        <time>2024-10-11T08:56:09Z</time>
      </trkpt>
      <trkpt lat="42.81121" lon="1.94021">
        <ele>1067.6</ele>
        <time>2024-10-11T08:56:10Z</time>
      </trkpt>
      <trkpt lat="42.81119" lon="1.94023">
        <ele>1067.6</ele>
        <time>2024-10-11T08:56:11Z</time>
      </trkpt>
      <trkpt lat="42.81118" lon="1.94027">
        <ele>1067.6</ele>
        <time>2024-10-11T08:56:12Z</time>
      </trkpt>
      <trkpt lat="42.81116" lon="1.9403">
        <ele>1068.2</ele>
        <time>2024-10-11T08:56:13Z</time>
      </trkpt>
      <trkpt lat="42.81115" lon="1.94032">
        <ele>1068.6</ele>
        <time>2024-10-11T08:56:14Z</time>
      </trkpt>
      <trkpt lat="42.81114" lon="1.94035">
        <ele>1068.6</ele>
        <time>2024-10-11T08:56:15Z</time>
      </trkpt>
      <trkpt lat="42.81113" lon="1.94038">
        <ele>1068.6</ele>
        <time>2024-10-11T08:56:16Z</time>
      </trkpt>
      <trkpt lat="42.81111" lon="1.94042">
        <ele>1068.6</ele>
        <time>2024-10-11T08:56:17Z</time>
      </trkpt>
      <trkpt lat="42.8111" lon="1.94045">
        <ele>1068.6</ele>
        <time>2024-10-11T08:56:18Z</time>
      </trkpt>
      <trkpt lat="42.81109" lon="1.94048">
        <ele>1069.4</ele>
        <time>2024-10-11T08:56:19Z</time>
      </trkpt>
      <trkpt lat="42.81108" lon="1.94052">
        <ele>1069.4</ele>
        <time>2024-10-11T08:56:20Z</time>
      </trkpt>
      <trkpt lat="42.81107" lon="1.94055">
        <ele>1069.4</ele>
        <time>2024-10-11T08:56:21Z</time>
      </trkpt>
      <trkpt lat="42.81107" lon="1.94058">
        <ele>1070</ele>
        <time>2024-10-11T08:56:22Z</time>
      </trkpt>
      <trkpt lat="42.81106" lon="1.94061">
        <ele>1069.8</ele>
        <time>2024-10-11T08:56:23Z</time>
      </trkpt>
      <trkpt lat="42.81105" lon="1.94065">
        <ele>1069.8</ele>
        <time>2024-10-11T08:56:24Z</time>
      </trkpt>
      <trkpt lat="42.81104" lon="1.94067">
        <ele>1069.8</ele>
        <time>2024-10-11T08:56:25Z</time>
      </trkpt>
      <trkpt lat="42.81103" lon="1.94071">
        <ele>1069.8</ele>
        <time>2024-10-11T08:56:26Z</time>
      </trkpt>
      <trkpt lat="42.81102" lon="1.94074">
        <ele>1069.8</ele>
        <time>2024-10-11T08:56:27Z</time>
      </trkpt>
      <trkpt lat="42.81102" lon="1.94078">
        <ele>1070.2</ele>
        <time>2024-10-11T08:56:28Z</time>
      </trkpt>
      <trkpt lat="42.81101" lon="1.94081">
        <ele>1070.2</ele>
        <time>2024-10-11T08:56:29Z</time>
      </trkpt>
      <trkpt lat="42.811" lon="1.94084">
        <ele>1070.2</ele>
        <time>2024-10-11T08:56:30Z</time>
      </trkpt>
      <trkpt lat="42.81099" lon="1.94087">
        <ele>1070.8</ele>
        <time>2024-10-11T08:56:31Z</time>
      </trkpt>
      <trkpt lat="42.81098" lon="1.9409">
        <ele>1071</ele>
        <time>2024-10-11T08:56:32Z</time>
      </trkpt>
      <trkpt lat="42.81097" lon="1.94093">
        <ele>1071</ele>
        <time>2024-10-11T08:56:33Z</time>
      </trkpt>
      <trkpt lat="42.81096" lon="1.94097">
        <ele>1071</ele>
        <time>2024-10-11T08:56:34Z</time>
      </trkpt>
      <trkpt lat="42.81095" lon="1.941">
        <ele>1071</ele>
        <time>2024-10-11T08:56:35Z</time>
      </trkpt>
      <trkpt lat="42.81094" lon="1.94103">
        <ele>1071.4</ele>
        <time>2024-10-11T08:56:36Z</time>
      </trkpt>
      <trkpt lat="42.81093" lon="1.94106">
        <ele>1071.4</ele>
        <time>2024-10-11T08:56:37Z</time>
      </trkpt>
      <trkpt lat="42.81092" lon="1.9411">
        <ele>1071.4</ele>
        <time>2024-10-11T08:56:38Z</time>
      </trkpt>
      <trkpt lat="42.8109" lon="1.94113">
        <ele>1071.4</ele>
        <time>2024-10-11T08:56:39Z</time>
      </trkpt>
      <trkpt lat="42.81089" lon="1.94116">
        <ele>1071.8</ele>
        <time>2024-10-11T08:56:40Z</time>
      </trkpt>
      <trkpt lat="42.81088" lon="1.94118">
        <ele>1072.2</ele>
        <time>2024-10-11T08:56:41Z</time>
      </trkpt>
      <trkpt lat="42.81087" lon="1.94121">
        <ele>1072.2</ele>
        <time>2024-10-11T08:56:42Z</time>
      </trkpt>
      <trkpt lat="42.81085" lon="1.94123">
        <ele>1072.2</ele>
        <time>2024-10-11T08:56:43Z</time>
      </trkpt>
      <trkpt lat="42.81084" lon="1.94126">
        <ele>1072.2</ele>
        <time>2024-10-11T08:56:44Z</time>
      </trkpt>
      <trkpt lat="42.81083" lon="1.94129">
        <ele>1072.8</ele>
        <time>2024-10-11T08:56:45Z</time>
      </trkpt>
      <trkpt lat="42.81081" lon="1.94131">
        <ele>1072.4</ele>
        <time>2024-10-11T08:56:46Z</time>
      </trkpt>
      <trkpt lat="42.8108" lon="1.94134">
        <ele>1072.4</ele>
        <time>2024-10-11T08:56:47Z</time>
      </trkpt>
      <trkpt lat="42.81079" lon="1.94137">
        <ele>1072.4</ele>
        <time>2024-10-11T08:56:48Z</time>
      </trkpt>
      <trkpt lat="42.81077" lon="1.94139">
        <ele>1072.4</ele>
        <time>2024-10-11T08:56:49Z</time>
      </trkpt>
      <trkpt lat="42.81076" lon="1.94142">
        <ele>1073.6</ele>
        <time>2024-10-11T08:56:50Z</time>
      </trkpt>
      <trkpt lat="42.81074" lon="1.94145">
        <ele>1073.6</ele>
        <time>2024-10-11T08:56:51Z</time>
      </trkpt>
      <trkpt lat="42.81073" lon="1.94147">
        <ele>1073.6</ele>
        <time>2024-10-11T08:56:52Z</time>
      </trkpt>
      <trkpt lat="42.81072" lon="1.9415">
        <ele>1073.6</ele>
        <time>2024-10-11T08:56:53Z</time>
      </trkpt>
      <trkpt lat="42.8107" lon="1.94153">
        <ele>1073.6</ele>
        <time>2024-10-11T08:56:54Z</time>
      </trkpt>
      <trkpt lat="42.81069" lon="1.94156">
        <ele>1074.4</ele>
        <time>2024-10-11T08:56:55Z</time>
      </trkpt>
      <trkpt lat="42.81068" lon="1.94158">
        <ele>1074.4</ele>
        <time>2024-10-11T08:56:56Z</time>
      </trkpt>
      <trkpt lat="42.81066" lon="1.94161">
        <ele>1074.4</ele>
        <time>2024-10-11T08:56:57Z</time>
      </trkpt>
      <trkpt lat="42.81065" lon="1.94163">
        <ele>1074.4</ele>
        <time>2024-10-11T08:56:58Z</time>
      </trkpt>
      <trkpt lat="42.81064" lon="1.94166">
        <ele>1074.4</ele>
        <time>2024-10-11T08:56:59Z</time>
      </trkpt>
      <trkpt lat="42.81062" lon="1.94169">
        <ele>1074.8</ele>
        <time>2024-10-11T08:57:00Z</time>
      </trkpt>
      <trkpt lat="42.81061" lon="1.94172">
        <ele>1074.8</ele>
        <time>2024-10-11T08:57:01Z</time>
      </trkpt>
      <trkpt lat="42.8106" lon="1.94175">
        <ele>1074.8</ele>
        <time>2024-10-11T08:57:02Z</time>
      </trkpt>
      <trkpt lat="42.81058" lon="1.94178">
        <ele>1075.4</ele>
        <time>2024-10-11T08:57:03Z</time>
      </trkpt>
      <trkpt lat="42.81057" lon="1.9418">
        <ele>1075.4</ele>
        <time>2024-10-11T08:57:04Z</time>
      </trkpt>
      <trkpt lat="42.81056" lon="1.94183">
        <ele>1075.4</ele>
        <time>2024-10-11T08:57:05Z</time>
      </trkpt>
      <trkpt lat="42.81054" lon="1.94186">
        <ele>1075.4</ele>
        <time>2024-10-11T08:57:06Z</time>
      </trkpt>
      <trkpt lat="42.81053" lon="1.94189">
        <ele>1075.4</ele>
        <time>2024-10-11T08:57:07Z</time>
      </trkpt>
      <trkpt lat="42.81051" lon="1.94191">
        <ele>1076.2</ele>
        <time>2024-10-11T08:57:08Z</time>
      </trkpt>
      <trkpt lat="42.81049" lon="1.94194">
        <ele>1076.2</ele>
        <time>2024-10-11T08:57:09Z</time>
      </trkpt>
      <trkpt lat="42.81047" lon="1.94195">
        <ele>1076.2</ele>
        <time>2024-10-11T08:57:10Z</time>
      </trkpt>
      <trkpt lat="42.81045" lon="1.94198">
        <ele>1076.2</ele>
        <time>2024-10-11T08:57:11Z</time>
      </trkpt>
      <trkpt lat="42.81043" lon="1.942">
        <ele>1076.2</ele>
        <time>2024-10-11T08:57:12Z</time>
      </trkpt>
      <trkpt lat="42.81041" lon="1.94202">
        <ele>1076.6</ele>
        <time>2024-10-11T08:57:13Z</time>
      </trkpt>
      <trkpt lat="42.81039" lon="1.94204">
        <ele>1076.6</ele>
        <time>2024-10-11T08:57:14Z</time>
      </trkpt>
      <trkpt lat="42.81037" lon="1.94206">
        <ele>1076.6</ele>
        <time>2024-10-11T08:57:15Z</time>
      </trkpt>
      <trkpt lat="42.81035" lon="1.94208">
        <ele>1076.6</ele>
        <time>2024-10-11T08:57:16Z</time>
      </trkpt>
      <trkpt lat="42.81032" lon="1.9421">
        <ele>1077.2</ele>
        <time>2024-10-11T08:57:17Z</time>
      </trkpt>
      <trkpt lat="42.8103" lon="1.94211">
        <ele>1077.2</ele>
        <time>2024-10-11T08:57:18Z</time>
      </trkpt>
      <trkpt lat="42.81027" lon="1.94212">
        <ele>1077.2</ele>
        <time>2024-10-11T08:57:19Z</time>
      </trkpt>
      <trkpt lat="42.81025" lon="1.94214">
        <ele>1077.2</ele>
        <time>2024-10-11T08:57:20Z</time>
      </trkpt>
      <trkpt lat="42.81022" lon="1.94215">
        <ele>1077.8</ele>
        <time>2024-10-11T08:57:21Z</time>
      </trkpt>
      <trkpt lat="42.81019" lon="1.94216">
        <ele>1077.8</ele>
        <time>2024-10-11T08:57:22Z</time>
      </trkpt>
      <trkpt lat="42.81016" lon="1.94216">
        <ele>1077.8</ele>
        <time>2024-10-11T08:57:23Z</time>
      </trkpt>
      <trkpt lat="42.81014" lon="1.94216">
        <ele>1077.8</ele>
        <time>2024-10-11T08:57:24Z</time>
      </trkpt>
      <trkpt lat="42.81011" lon="1.94216">
        <ele>1078</ele>
        <time>2024-10-11T08:57:25Z</time>
      </trkpt>
      <trkpt lat="42.81008" lon="1.94216">
        <ele>1078.4</ele>
        <time>2024-10-11T08:57:26Z</time>
      </trkpt>
      <trkpt lat="42.81006" lon="1.94215">
        <ele>1078.4</ele>
        <time>2024-10-11T08:57:27Z</time>
      </trkpt>
      <trkpt lat="42.81003" lon="1.94215">
        <ele>1078.4</ele>
        <time>2024-10-11T08:57:28Z</time>
      </trkpt>
      <trkpt lat="42.81001" lon="1.94214">
        <ele>1078.4</ele>
        <time>2024-10-11T08:57:29Z</time>
      </trkpt>
      <trkpt lat="42.80998" lon="1.94213">
        <ele>1079</ele>
        <time>2024-10-11T08:57:30Z</time>
      </trkpt>
      <trkpt lat="42.80996" lon="1.94212">
        <ele>1079.2</ele>
        <time>2024-10-11T08:57:31Z</time>
      </trkpt>
      <trkpt lat="42.80994" lon="1.94211">
        <ele>1079.2</ele>
        <time>2024-10-11T08:57:32Z</time>
      </trkpt>
      <trkpt lat="42.80992" lon="1.94209">
        <ele>1079.2</ele>
        <time>2024-10-11T08:57:33Z</time>
      </trkpt>
      <trkpt lat="42.8099" lon="1.94208">
        <ele>1079.2</ele>
        <time>2024-10-11T08:57:34Z</time>
      </trkpt>
      <trkpt lat="42.80988" lon="1.94206">
        <ele>1079.6</ele>
        <time>2024-10-11T08:57:35Z</time>
      </trkpt>
      <trkpt lat="42.80986" lon="1.94205">
        <ele>1079.8</ele>
        <time>2024-10-11T08:57:36Z</time>
      </trkpt>
      <trkpt lat="42.80984" lon="1.94203">
        <ele>1079.8</ele>
        <time>2024-10-11T08:57:37Z</time>
      </trkpt>
      <trkpt lat="42.80982" lon="1.94201">
        <ele>1079.8</ele>
        <time>2024-10-11T08:57:38Z</time>
      </trkpt>
      <trkpt lat="42.80979" lon="1.94199">
        <ele>1079.8</ele>
        <time>2024-10-11T08:57:39Z</time>
      </trkpt>
      <trkpt lat="42.80977" lon="1.94197">
        <ele>1080.4</ele>
        <time>2024-10-11T08:57:40Z</time>
      </trkpt>
      <trkpt lat="42.80975" lon="1.94195">
        <ele>1080.4</ele>
        <time>2024-10-11T08:57:41Z</time>
      </trkpt>
      <trkpt lat="42.80973" lon="1.94193">
        <ele>1080.4</ele>
        <time>2024-10-11T08:57:42Z</time>
      </trkpt>
      <trkpt lat="42.80972" lon="1.94191">
        <ele>1080.4</ele>
        <time>2024-10-11T08:57:43Z</time>
      </trkpt>
      <trkpt lat="42.8097" lon="1.94189">
        <ele>1080.4</ele>
        <time>2024-10-11T08:57:44Z</time>
      </trkpt>
      <trkpt lat="42.80968" lon="1.94187">
        <ele>1080.8</ele>
        <time>2024-10-11T08:57:45Z</time>
      </trkpt>
      <trkpt lat="42.80966" lon="1.94185">
        <ele>1080.8</ele>
        <time>2024-10-11T08:57:46Z</time>
      </trkpt>
      <trkpt lat="42.80964" lon="1.94183">
        <ele>1080.8</ele>
        <time>2024-10-11T08:57:47Z</time>
      </trkpt>
      <trkpt lat="42.80962" lon="1.94181">
        <ele>1081.4</ele>
        <time>2024-10-11T08:57:48Z</time>
      </trkpt>
      <trkpt lat="42.8096" lon="1.94179">
        <ele>1081.4</ele>
        <time>2024-10-11T08:57:49Z</time>
      </trkpt>
      <trkpt lat="42.80958" lon="1.94177">
        <ele>1081.4</ele>
        <time>2024-10-11T08:57:50Z</time>
      </trkpt>
      <trkpt lat="42.80956" lon="1.94175">
        <ele>1081.4</ele>
        <time>2024-10-11T08:57:51Z</time>
      </trkpt>
      <trkpt lat="42.80954" lon="1.94174">
        <ele>1082.2</ele>
        <time>2024-10-11T08:57:52Z</time>
      </trkpt>
      <trkpt lat="42.80952" lon="1.94172">
        <ele>1082.2</ele>
        <time>2024-10-11T08:57:53Z</time>
      </trkpt>
      <trkpt lat="42.8095" lon="1.94169">
        <ele>1082.2</ele>
        <time>2024-10-11T08:57:54Z</time>
      </trkpt>
      <trkpt lat="42.80948" lon="1.94167">
        <ele>1082.2</ele>
        <time>2024-10-11T08:57:55Z</time>
      </trkpt>
      <trkpt lat="42.80946" lon="1.94165">
        <ele>1082.2</ele>
        <time>2024-10-11T08:57:56Z</time>
      </trkpt>
      <trkpt lat="42.80944" lon="1.94163">
        <ele>1082.6</ele>
        <time>2024-10-11T08:57:57Z</time>
      </trkpt>
      <trkpt lat="42.80942" lon="1.94162">
        <ele>1082.8</ele>
        <time>2024-10-11T08:57:58Z</time>
      </trkpt>
      <trkpt lat="42.8094" lon="1.94161">
        <ele>1082.8</ele>
        <time>2024-10-11T08:57:59Z</time>
      </trkpt>
      <trkpt lat="42.80937" lon="1.94159">
        <ele>1082.8</ele>
        <time>2024-10-11T08:58:00Z</time>
      </trkpt>
      <trkpt lat="42.80935" lon="1.94158">
        <ele>1083.2</ele>
        <time>2024-10-11T08:58:01Z</time>
      </trkpt>
      <trkpt lat="42.80933" lon="1.94156">
        <ele>1083.4</ele>
        <time>2024-10-11T08:58:02Z</time>
      </trkpt>
      <trkpt lat="42.80931" lon="1.94154">
        <ele>1083.4</ele>
        <time>2024-10-11T08:58:03Z</time>
      </trkpt>
      <trkpt lat="42.80929" lon="1.94152">
        <ele>1083.4</ele>
        <time>2024-10-11T08:58:04Z</time>
      </trkpt>
      <trkpt lat="42.80927" lon="1.9415">
        <ele>1084</ele>
        <time>2024-10-11T08:58:05Z</time>
      </trkpt>
      <trkpt lat="42.80925" lon="1.94148">
        <ele>1084</ele>
        <time>2024-10-11T08:58:06Z</time>
      </trkpt>
      <trkpt lat="42.80923" lon="1.94146">
        <ele>1084.2</ele>
        <time>2024-10-11T08:58:07Z</time>
      </trkpt>
      <trkpt lat="42.80921" lon="1.94144">
        <ele>1084.2</ele>
        <time>2024-10-11T08:58:08Z</time>
      </trkpt>
      <trkpt lat="42.80919" lon="1.94142">
        <ele>1084.2</ele>
        <time>2024-10-11T08:58:09Z</time>
      </trkpt>
      <trkpt lat="42.80917" lon="1.9414">
        <ele>1084.2</ele>
        <time>2024-10-11T08:58:10Z</time>
      </trkpt>
      <trkpt lat="42.80915" lon="1.94138">
        <ele>1084.2</ele>
        <time>2024-10-11T08:58:11Z</time>
      </trkpt>
      <trkpt lat="42.80913" lon="1.94136">
        <ele>1084.6</ele>
        <time>2024-10-11T08:58:12Z</time>
      </trkpt>
      <trkpt lat="42.80911" lon="1.94134">
        <ele>1084.6</ele>
        <time>2024-10-11T08:58:13Z</time>
      </trkpt>
      <trkpt lat="42.80909" lon="1.94133">
        <ele>1084.6</ele>
        <time>2024-10-11T08:58:14Z</time>
      </trkpt>
      <trkpt lat="42.80907" lon="1.9413">
        <ele>1085.2</ele>
        <time>2024-10-11T08:58:15Z</time>
      </trkpt>
      <trkpt lat="42.80905" lon="1.94128">
        <ele>1085.4</ele>
        <time>2024-10-11T08:58:16Z</time>
      </trkpt>
      <trkpt lat="42.80904" lon="1.94124">
        <ele>1085.4</ele>
        <time>2024-10-11T08:58:17Z</time>
      </trkpt>
      <trkpt lat="42.80901" lon="1.94122">
        <ele>1085.4</ele>
        <time>2024-10-11T08:58:18Z</time>
      </trkpt>
      <trkpt lat="42.80899" lon="1.9412">
        <ele>1085.4</ele>
        <time>2024-10-11T08:58:19Z</time>
      </trkpt>
      <trkpt lat="42.80897" lon="1.94119">
        <ele>1086</ele>
        <time>2024-10-11T08:58:20Z</time>
      </trkpt>
      <trkpt lat="42.80895" lon="1.94117">
        <ele>1086</ele>
        <time>2024-10-11T08:58:21Z</time>
      </trkpt>
      <trkpt lat="42.80892" lon="1.94116">
        <ele>1086</ele>
        <time>2024-10-11T08:58:22Z</time>
      </trkpt>
      <trkpt lat="42.8089" lon="1.94114">
        <ele>1086</ele>
        <time>2024-10-11T08:58:23Z</time>
      </trkpt>
      <trkpt lat="42.80888" lon="1.94113">
        <ele>1086.6</ele>
        <time>2024-10-11T08:58:24Z</time>
      </trkpt>
      <trkpt lat="42.80886" lon="1.94111">
        <ele>1086.6</ele>
        <time>2024-10-11T08:58:25Z</time>
      </trkpt>
      <trkpt lat="42.80884" lon="1.9411">
        <ele>1086.8</ele>
        <time>2024-10-11T08:58:26Z</time>
      </trkpt>
      <trkpt lat="42.80882" lon="1.94108">
        <ele>1086.8</ele>
        <time>2024-10-11T08:58:27Z</time>
      </trkpt>
      <trkpt lat="42.80879" lon="1.94108">
        <ele>1086.8</ele>
        <time>2024-10-11T08:58:28Z</time>
      </trkpt>
      <trkpt lat="42.80877" lon="1.94105">
        <ele>1087.2</ele>
        <time>2024-10-11T08:58:29Z</time>
      </trkpt>
      <trkpt lat="42.80874" lon="1.94103">
        <ele>1087.2</ele>
        <time>2024-10-11T08:58:30Z</time>
      </trkpt>
      <trkpt lat="42.80872" lon="1.94102">
        <ele>1087.2</ele>
        <time>2024-10-11T08:58:31Z</time>
      </trkpt>
      <trkpt lat="42.80869" lon="1.941">
        <ele>1087.2</ele>
        <time>2024-10-11T08:58:32Z</time>
      </trkpt>
      <trkpt lat="42.80867" lon="1.94098">
        <ele>1087.8</ele>
        <time>2024-10-11T08:58:33Z</time>
      </trkpt>
      <trkpt lat="42.80865" lon="1.94097">
        <ele>1088.2</ele>
        <time>2024-10-11T08:58:34Z</time>
      </trkpt>
      <trkpt lat="42.80863" lon="1.94095">
        <ele>1088.2</ele>
        <time>2024-10-11T08:58:35Z</time>
      </trkpt>
      <trkpt lat="42.8086" lon="1.94094">
        <ele>1088.2</ele>
        <time>2024-10-11T08:58:36Z</time>
      </trkpt>
      <trkpt lat="42.80858" lon="1.94093">
        <ele>1088.2</ele>
        <time>2024-10-11T08:58:37Z</time>
      </trkpt>
      <trkpt lat="42.80855" lon="1.94091">
        <ele>1088.2</ele>
        <time>2024-10-11T08:58:38Z</time>
      </trkpt>
      <trkpt lat="42.80853" lon="1.9409">
        <ele>1088.6</ele>
        <time>2024-10-11T08:58:39Z</time>
      </trkpt>
      <trkpt lat="42.8085" lon="1.94088">
        <ele>1088.6</ele>
        <time>2024-10-11T08:58:40Z</time>
      </trkpt>
      <trkpt lat="42.80848" lon="1.94087">
        <ele>1088.6</ele>
        <time>2024-10-11T08:58:41Z</time>
      </trkpt>
      <trkpt lat="42.80845" lon="1.94086">
        <ele>1089.4</ele>
        <time>2024-10-11T08:58:42Z</time>
      </trkpt>
      <trkpt lat="42.80843" lon="1.94084">
        <ele>1089.6</ele>
        <time>2024-10-11T08:58:43Z</time>
      </trkpt>
      <trkpt lat="42.8084" lon="1.94082">
        <ele>1089.6</ele>
        <time>2024-10-11T08:58:44Z</time>
      </trkpt>
      <trkpt lat="42.80838" lon="1.94081">
        <ele>1089.6</ele>
        <time>2024-10-11T08:58:45Z</time>
      </trkpt>
      <trkpt lat="42.80835" lon="1.9408">
        <ele>1089.8</ele>
        <time>2024-10-11T08:58:46Z</time>
      </trkpt>
      <trkpt lat="42.80833" lon="1.94079">
        <ele>1090.2</ele>
        <time>2024-10-11T08:58:47Z</time>
      </trkpt>
      <trkpt lat="42.80831" lon="1.94078">
        <ele>1090.2</ele>
        <time>2024-10-11T08:58:48Z</time>
      </trkpt>
      <trkpt lat="42.80828" lon="1.94076">
        <ele>1090.2</ele>
        <time>2024-10-11T08:58:49Z</time>
      </trkpt>
      <trkpt lat="42.80826" lon="1.94074">
        <ele>1090.4</ele>
        <time>2024-10-11T08:58:50Z</time>
      </trkpt>
      <trkpt lat="42.80823" lon="1.94072">
        <ele>1090.4</ele>
        <time>2024-10-11T08:58:51Z</time>
      </trkpt>
      <trkpt lat="42.80821" lon="1.94071">
        <ele>1090.4</ele>
        <time>2024-10-11T08:58:52Z</time>
      </trkpt>
      <trkpt lat="42.80818" lon="1.94069">
        <ele>1090.6</ele>
        <time>2024-10-11T08:58:53Z</time>
      </trkpt>
      <trkpt lat="42.80814" lon="1.94067">
        <ele>1090.6</ele>
        <time>2024-10-11T08:58:54Z</time>
      </trkpt>
      <trkpt lat="42.80813" lon="1.94067">
        <ele>1090.6</ele>
        <time>2024-10-11T08:58:55Z</time>
      </trkpt>
      <trkpt lat="42.8081" lon="1.94065">
        <ele>1090.6</ele>
        <time>2024-10-11T08:58:56Z</time>
      </trkpt>
      <trkpt lat="42.80808" lon="1.94063">
        <ele>1091.2</ele>
        <time>2024-10-11T08:58:57Z</time>
      </trkpt>
      <trkpt lat="42.80805" lon="1.94062">
        <ele>1091.2</ele>
        <time>2024-10-11T08:58:58Z</time>
      </trkpt>
      <trkpt lat="42.80802" lon="1.9406">
        <ele>1091.2</ele>
        <time>2024-10-11T08:58:59Z</time>
      </trkpt>
      <trkpt lat="42.808" lon="1.94058">
        <ele>1091.4</ele>
        <time>2024-10-11T08:59:00Z</time>
      </trkpt>
      <trkpt lat="42.80797" lon="1.94055">
        <ele>1091.8</ele>
        <time>2024-10-11T08:59:01Z</time>
      </trkpt>
      <trkpt lat="42.80795" lon="1.94053">
        <ele>1091.8</ele>
        <time>2024-10-11T08:59:02Z</time>
      </trkpt>
      <trkpt lat="42.80793" lon="1.94051">
        <ele>1091.8</ele>
        <time>2024-10-11T08:59:03Z</time>
      </trkpt>
      <trkpt lat="42.80791" lon="1.94049">
        <ele>1091.8</ele>
        <time>2024-10-11T08:59:04Z</time>
      </trkpt>
      <trkpt lat="42.80789" lon="1.94047">
        <ele>1092.2</ele>
        <time>2024-10-11T08:59:05Z</time>
      </trkpt>
      <trkpt lat="42.80787" lon="1.94044">
        <ele>1092.4</ele>
        <time>2024-10-11T08:59:06Z</time>
      </trkpt>
      <trkpt lat="42.80785" lon="1.94041">
        <ele>1092.4</ele>
        <time>2024-10-11T08:59:07Z</time>
      </trkpt>
      <trkpt lat="42.80782" lon="1.94039">
        <ele>1092.4</ele>
        <time>2024-10-11T08:59:08Z</time>
      </trkpt>
      <trkpt lat="42.8078" lon="1.94036">
        <ele>1092.4</ele>
        <time>2024-10-11T08:59:09Z</time>
      </trkpt>
      <trkpt lat="42.80778" lon="1.94034">
        <ele>1093.2</ele>
        <time>2024-10-11T08:59:10Z</time>
      </trkpt>
      <trkpt lat="42.80776" lon="1.94032">
        <ele>1093.2</ele>
        <time>2024-10-11T08:59:11Z</time>
      </trkpt>
      <trkpt lat="42.80774" lon="1.94029">
        <ele>1093.2</ele>
        <time>2024-10-11T08:59:12Z</time>
      </trkpt>
      <trkpt lat="42.80772" lon="1.94028">
        <ele>1093.2</ele>
        <time>2024-10-11T08:59:13Z</time>
      </trkpt>
      <trkpt lat="42.8077" lon="1.94025">
        <ele>1093.6</ele>
        <time>2024-10-11T08:59:14Z</time>
      </trkpt>
      <trkpt lat="42.80768" lon="1.94022">
        <ele>1094</ele>
        <time>2024-10-11T08:59:15Z</time>
      </trkpt>
      <trkpt lat="42.80766" lon="1.9402">
        <ele>1094</ele>
        <time>2024-10-11T08:59:16Z</time>
      </trkpt>
      <trkpt lat="42.80764" lon="1.94017">
        <ele>1094</ele>
        <time>2024-10-11T08:59:17Z</time>
      </trkpt>
      <trkpt lat="42.80762" lon="1.94015">
        <ele>1094.6</ele>
        <time>2024-10-11T08:59:18Z</time>
      </trkpt>
      <trkpt lat="42.8076" lon="1.94013">
        <ele>1094.6</ele>
        <time>2024-10-11T08:59:19Z</time>
      </trkpt>
      <trkpt lat="42.80758" lon="1.94011">
        <ele>1094.6</ele>
        <time>2024-10-11T08:59:20Z</time>
      </trkpt>
      <trkpt lat="42.80756" lon="1.94008">
        <ele>1094.6</ele>
        <time>2024-10-11T08:59:21Z</time>
      </trkpt>
      <trkpt lat="42.80754" lon="1.94005">
        <ele>1095.2</ele>
        <time>2024-10-11T08:59:22Z</time>
      </trkpt>
      <trkpt lat="42.80752" lon="1.94002">
        <ele>1095.4</ele>
        <time>2024-10-11T08:59:23Z</time>
      </trkpt>
      <trkpt lat="42.8075" lon="1.93999">
        <ele>1095.4</ele>
        <time>2024-10-11T08:59:24Z</time>
      </trkpt>
      <trkpt lat="42.80748" lon="1.93997">
        <ele>1095.4</ele>
        <time>2024-10-11T08:59:25Z</time>
      </trkpt>
      <trkpt lat="42.80746" lon="1.93994">
        <ele>1095.4</ele>
        <time>2024-10-11T08:59:26Z</time>
      </trkpt>
      <trkpt lat="42.80745" lon="1.93991">
        <ele>1095.8</ele>
        <time>2024-10-11T08:59:27Z</time>
      </trkpt>
      <trkpt lat="42.80743" lon="1.93988">
        <ele>1096.2</ele>
        <time>2024-10-11T08:59:28Z</time>
      </trkpt>
      <trkpt lat="42.80741" lon="1.93985">
        <ele>1096.2</ele>
        <time>2024-10-11T08:59:29Z</time>
      </trkpt>
      <trkpt lat="42.8074" lon="1.93982">
        <ele>1096.2</ele>
        <time>2024-10-11T08:59:30Z</time>
      </trkpt>
      <trkpt lat="42.80738" lon="1.93979">
        <ele>1096.8</ele>
        <time>2024-10-11T08:59:31Z</time>
      </trkpt>
      <trkpt lat="42.80737" lon="1.93976">
        <ele>1097</ele>
        <time>2024-10-11T08:59:32Z</time>
      </trkpt>
      <trkpt lat="42.80735" lon="1.93974">
        <ele>1097</ele>
        <time>2024-10-11T08:59:33Z</time>
      </trkpt>
      <trkpt lat="42.80733" lon="1.93971">
        <ele>1097</ele>
        <time>2024-10-11T08:59:34Z</time>
      </trkpt>
      <trkpt lat="42.80732" lon="1.93968">
        <ele>1097</ele>
        <time>2024-10-11T08:59:35Z</time>
      </trkpt>
      <trkpt lat="42.8073" lon="1.93965">
        <ele>1097</ele>
        <time>2024-10-11T08:59:36Z</time>
      </trkpt>
      <trkpt lat="42.80728" lon="1.93962">
        <ele>1097.4</ele>
        <time>2024-10-11T08:59:37Z</time>
      </trkpt>
      <trkpt lat="42.80727" lon="1.93959">
        <ele>1097.8</ele>
        <time>2024-10-11T08:59:38Z</time>
      </trkpt>
      <trkpt lat="42.80725" lon="1.93956">
        <ele>1097.8</ele>
        <time>2024-10-11T08:59:39Z</time>
      </trkpt>
      <trkpt lat="42.80723" lon="1.93954">
        <ele>1097.8</ele>
        <time>2024-10-11T08:59:40Z</time>
      </trkpt>
      <trkpt lat="42.80721" lon="1.93951">
        <ele>1098.2</ele>
        <time>2024-10-11T08:59:41Z</time>
      </trkpt>
      <trkpt lat="42.80719" lon="1.93949">
        <ele>1098.2</ele>
        <time>2024-10-11T08:59:42Z</time>
      </trkpt>
      <trkpt lat="42.80717" lon="1.93947">
        <ele>1098.6</ele>
        <time>2024-10-11T08:59:43Z</time>
      </trkpt>
      <trkpt lat="42.80716" lon="1.93944">
        <ele>1098.6</ele>
        <time>2024-10-11T08:59:44Z</time>
      </trkpt>
      <trkpt lat="42.80713" lon="1.93942">
        <ele>1098.6</ele>
        <time>2024-10-11T08:59:45Z</time>
      </trkpt>
      <trkpt lat="42.80711" lon="1.9394">
        <ele>1098.6</ele>
        <time>2024-10-11T08:59:46Z</time>
      </trkpt>
      <trkpt lat="42.8071" lon="1.93937">
        <ele>1099.2</ele>
        <time>2024-10-11T08:59:47Z</time>
      </trkpt>
      <trkpt lat="42.80707" lon="1.93935">
        <ele>1099.2</ele>
        <time>2024-10-11T08:59:48Z</time>
      </trkpt>
      <trkpt lat="42.80705" lon="1.93933">
        <ele>1099.2</ele>
        <time>2024-10-11T08:59:49Z</time>
      </trkpt>
      <trkpt lat="42.80703" lon="1.9393">
        <ele>1099.6</ele>
        <time>2024-10-11T08:59:50Z</time>
      </trkpt>
      <trkpt lat="42.80701" lon="1.93928">
        <ele>1100</ele>
        <time>2024-10-11T08:59:51Z</time>
      </trkpt>
      <trkpt lat="42.80698" lon="1.93926">
        <ele>1100</ele>
        <time>2024-10-11T08:59:52Z</time>
      </trkpt>
      <trkpt lat="42.80696" lon="1.93923">
        <ele>1100</ele>
        <time>2024-10-11T08:59:53Z</time>
      </trkpt>
      <trkpt lat="42.80694" lon="1.93921">
        <ele>1100</ele>
        <time>2024-10-11T08:59:54Z</time>
      </trkpt>
      <trkpt lat="42.80692" lon="1.93918">
        <ele>1100.4</ele>
        <time>2024-10-11T08:59:55Z</time>
      </trkpt>
      <trkpt lat="42.8069" lon="1.93916">
        <ele>1100.4</ele>
        <time>2024-10-11T08:59:56Z</time>
      </trkpt>
      <trkpt lat="42.80688" lon="1.93913">
        <ele>1100.4</ele>
        <time>2024-10-11T08:59:57Z</time>
      </trkpt>
      <trkpt lat="42.80686" lon="1.93911">
        <ele>1100.4</ele>
        <time>2024-10-11T08:59:58Z</time>
      </trkpt>
      <trkpt lat="42.80684" lon="1.93908">
        <ele>1100.8</ele>
        <time>2024-10-11T08:59:59Z</time>
      </trkpt>
      <trkpt lat="42.80682" lon="1.93905">
        <ele>1100.8</ele>
        <time>2024-10-11T09:00:00Z</time>
      </trkpt>
      <trkpt lat="42.8068" lon="1.93902">
        <ele>1100.8</ele>
        <time>2024-10-11T09:00:01Z</time>
      </trkpt>
      <trkpt lat="42.80678" lon="1.93899">
        <ele>1100.8</ele>
        <time>2024-10-11T09:00:02Z</time>
      </trkpt>
      <trkpt lat="42.80676" lon="1.93896">
        <ele>1100.8</ele>
        <time>2024-10-11T09:00:03Z</time>
      </trkpt>
      <trkpt lat="42.80674" lon="1.93893">
        <ele>1101.6</ele>
        <time>2024-10-11T09:00:04Z</time>
      </trkpt>
      <trkpt lat="42.80672" lon="1.9389">
        <ele>1101.6</ele>
        <time>2024-10-11T09:00:05Z</time>
      </trkpt>
      <trkpt lat="42.8067" lon="1.93887">
        <ele>1101.6</ele>
        <time>2024-10-11T09:00:06Z</time>
      </trkpt>
      <trkpt lat="42.80668" lon="1.93884">
        <ele>1101.6</ele>
        <time>2024-10-11T09:00:07Z</time>
      </trkpt>
      <trkpt lat="42.80666" lon="1.93881">
        <ele>1101.6</ele>
        <time>2024-10-11T09:00:08Z</time>
      </trkpt>
      <trkpt lat="42.80665" lon="1.93878">
        <ele>1102</ele>
        <time>2024-10-11T09:00:09Z</time>
      </trkpt>
      <trkpt lat="42.80663" lon="1.93875">
        <ele>1102</ele>
        <time>2024-10-11T09:00:10Z</time>
      </trkpt>
      <trkpt lat="42.80662" lon="1.93871">
        <ele>1102</ele>
        <time>2024-10-11T09:00:11Z</time>
      </trkpt>
      <trkpt lat="42.80661" lon="1.93868">
        <ele>1102.8</ele>
        <time>2024-10-11T09:00:12Z</time>
      </trkpt>
      <trkpt lat="42.80659" lon="1.93865">
        <ele>1102.8</ele>
        <time>2024-10-11T09:00:13Z</time>
      </trkpt>
      <trkpt lat="42.80658" lon="1.93861">
        <ele>1102.8</ele>
        <time>2024-10-11T09:00:14Z</time>
      </trkpt>
      <trkpt lat="42.80657" lon="1.93858">
        <ele>1102.8</ele>
        <time>2024-10-11T09:00:15Z</time>
      </trkpt>
      <trkpt lat="42.80656" lon="1.93854">
        <ele>1103.4</ele>
        <time>2024-10-11T09:00:16Z</time>
      </trkpt>
      <trkpt lat="42.80655" lon="1.93851">
        <ele>1103.6</ele>
        <time>2024-10-11T09:00:17Z</time>
      </trkpt>
      <trkpt lat="42.80655" lon="1.93847">
        <ele>1103.6</ele>
        <time>2024-10-11T09:00:18Z</time>
      </trkpt>
      <trkpt lat="42.80654" lon="1.93844">
        <ele>1103.6</ele>
        <time>2024-10-11T09:00:19Z</time>
      </trkpt>
      <trkpt lat="42.80653" lon="1.9384">
        <ele>1103.6</ele>
        <time>2024-10-11T09:00:20Z</time>
      </trkpt>
      <trkpt lat="42.80652" lon="1.93837">
        <ele>1103.6</ele>
        <time>2024-10-11T09:00:21Z</time>
      </trkpt>
      <trkpt lat="42.80651" lon="1.93833">
        <ele>1104.4</ele>
        <time>2024-10-11T09:00:22Z</time>
      </trkpt>
      <trkpt lat="42.8065" lon="1.93829">
        <ele>1104.4</ele>
        <time>2024-10-11T09:00:23Z</time>
      </trkpt>
      <trkpt lat="42.80649" lon="1.93826">
        <ele>1104.4</ele>
        <time>2024-10-11T09:00:24Z</time>
      </trkpt>
      <trkpt lat="42.80649" lon="1.93822">
        <ele>1104.4</ele>
        <time>2024-10-11T09:00:25Z</time>
      </trkpt>
      <trkpt lat="42.80648" lon="1.93818">
        <ele>1105</ele>
        <time>2024-10-11T09:00:26Z</time>
      </trkpt>
      <trkpt lat="42.80647" lon="1.93815">
        <ele>1105.4</ele>
        <time>2024-10-11T09:00:27Z</time>
      </trkpt>
      <trkpt lat="42.80646" lon="1.93811">
        <ele>1105.4</ele>
        <time>2024-10-11T09:00:28Z</time>
      </trkpt>
      <trkpt lat="42.80645" lon="1.93807">
        <ele>1105.4</ele>
        <time>2024-10-11T09:00:29Z</time>
      </trkpt>
      <trkpt lat="42.80644" lon="1.93804">
        <ele>1106</ele>
        <time>2024-10-11T09:00:30Z</time>
      </trkpt>
      <trkpt lat="42.80643" lon="1.938">
        <ele>1105.8</ele>
        <time>2024-10-11T09:00:31Z</time>
      </trkpt>
      <trkpt lat="42.80642" lon="1.93797">
        <ele>1105.8</ele>
        <time>2024-10-11T09:00:32Z</time>
      </trkpt>
      <trkpt lat="42.80641" lon="1.93793">
        <ele>1105.8</ele>
        <time>2024-10-11T09:00:33Z</time>
      </trkpt>
      <trkpt lat="42.80641" lon="1.93789">
        <ele>1105.8</ele>
        <time>2024-10-11T09:00:34Z</time>
      </trkpt>
      <trkpt lat="42.80639" lon="1.93786">
        <ele>1106.8</ele>
        <time>2024-10-11T09:00:35Z</time>
      </trkpt>
      <trkpt lat="42.80638" lon="1.93783">
        <ele>1107</ele>
        <time>2024-10-11T09:00:36Z</time>
      </trkpt>
      <trkpt lat="42.80637" lon="1.93779">
        <ele>1107</ele>
        <time>2024-10-11T09:00:37Z</time>
      </trkpt>
      <trkpt lat="42.80636" lon="1.93775">
        <ele>1107</ele>
        <time>2024-10-11T09:00:38Z</time>
      </trkpt>
      <trkpt lat="42.80636" lon="1.93772">
        <ele>1107</ele>
        <time>2024-10-11T09:00:39Z</time>
      </trkpt>
      <trkpt lat="42.80635" lon="1.93768">
        <ele>1107.8</ele>
        <time>2024-10-11T09:00:40Z</time>
      </trkpt>
      <trkpt lat="42.80634" lon="1.93765">
        <ele>1107.8</ele>
        <time>2024-10-11T09:00:41Z</time>
      </trkpt>
      <trkpt lat="42.80633" lon="1.93761">
        <ele>1107.8</ele>
        <time>2024-10-11T09:00:42Z</time>
      </trkpt>
      <trkpt lat="42.80632" lon="1.93757">
        <ele>1108.2</ele>
        <time>2024-10-11T09:00:43Z</time>
      </trkpt>
      <trkpt lat="42.80631" lon="1.93754">
        <ele>1108.2</ele>
        <time>2024-10-11T09:00:44Z</time>
      </trkpt>
      <trkpt lat="42.8063" lon="1.9375">
        <ele>1108.4</ele>
        <time>2024-10-11T09:00:45Z</time>
      </trkpt>
      <trkpt lat="42.80629" lon="1.93747">
        <ele>1108.4</ele>
        <time>2024-10-11T09:00:46Z</time>
      </trkpt>
      <trkpt lat="42.80628" lon="1.93743">
        <ele>1108.4</ele>
        <time>2024-10-11T09:00:47Z</time>
      </trkpt>
      <trkpt lat="42.80627" lon="1.9374">
        <ele>1108.4</ele>
        <time>2024-10-11T09:00:48Z</time>
      </trkpt>
      <trkpt lat="42.80626" lon="1.93736">
        <ele>1109</ele>
        <time>2024-10-11T09:00:49Z</time>
      </trkpt>
      <trkpt lat="42.80625" lon="1.93733">
        <ele>1109</ele>
        <time>2024-10-11T09:00:50Z</time>
      </trkpt>
      <trkpt lat="42.80624" lon="1.93729">
        <ele>1109</ele>
        <time>2024-10-11T09:00:51Z</time>
      </trkpt>
      <trkpt lat="42.80623" lon="1.93726">
        <ele>1109.6</ele>
        <time>2024-10-11T09:00:52Z</time>
      </trkpt>
      <trkpt lat="42.80621" lon="1.93722">
        <ele>1109.8</ele>
        <time>2024-10-11T09:00:53Z</time>
      </trkpt>
      <trkpt lat="42.8062" lon="1.93719">
        <ele>1109.8</ele>
        <time>2024-10-11T09:00:54Z</time>
      </trkpt>
      <trkpt lat="42.80619" lon="1.93715">
        <ele>1109.8</ele>
        <time>2024-10-11T09:00:55Z</time>
      </trkpt>
      <trkpt lat="42.80618" lon="1.93712">
        <ele>1110.4</ele>
        <time>2024-10-11T09:00:56Z</time>
      </trkpt>
      <trkpt lat="42.80617" lon="1.93708">
        <ele>1110.6</ele>
        <time>2024-10-11T09:00:57Z</time>
      </trkpt>
      <trkpt lat="42.80616" lon="1.93705">
        <ele>1110.6</ele>
        <time>2024-10-11T09:00:58Z</time>
      </trkpt>
      <trkpt lat="42.80614" lon="1.93702">
        <ele>1110.6</ele>
        <time>2024-10-11T09:00:59Z</time>
      </trkpt>
      <trkpt lat="42.80613" lon="1.93698">
        <ele>1110.6</ele>
        <time>2024-10-11T09:01:00Z</time>
      </trkpt>
      <trkpt lat="42.80612" lon="1.93695">
        <ele>1110.6</ele>
        <time>2024-10-11T09:01:01Z</time>
      </trkpt>
      <trkpt lat="42.80611" lon="1.93691">
        <ele>1111.2</ele>
        <time>2024-10-11T09:01:02Z</time>
      </trkpt>
      <trkpt lat="42.8061" lon="1.93688">
        <ele>1111.2</ele>
        <time>2024-10-11T09:01:03Z</time>
      </trkpt>
      <trkpt lat="42.80609" lon="1.93685">
        <ele>1111.2</ele>
        <time>2024-10-11T09:01:04Z</time>
      </trkpt>
      <trkpt lat="42.80608" lon="1.93683">
        <ele>1111.2</ele>
        <time>2024-10-11T09:01:05Z</time>
      </trkpt>
      <trkpt lat="42.80607" lon="1.93679">
        <ele>1111.6</ele>
        <time>2024-10-11T09:01:06Z</time>
      </trkpt>
      <trkpt lat="42.80606" lon="1.93676">
        <ele>1111.6</ele>
        <time>2024-10-11T09:01:07Z</time>
      </trkpt>
      <trkpt lat="42.80605" lon="1.93673">
        <ele>1111.8</ele>
        <time>2024-10-11T09:01:08Z</time>
      </trkpt>
      <trkpt lat="42.80604" lon="1.93669">
        <ele>1111.8</ele>
        <time>2024-10-11T09:01:09Z</time>
      </trkpt>
      <trkpt lat="42.80603" lon="1.93666">
        <ele>1111.8</ele>
        <time>2024-10-11T09:01:10Z</time>
      </trkpt>
      <trkpt lat="42.80602" lon="1.93662">
        <ele>1112.2</ele>
        <time>2024-10-11T09:01:11Z</time>
      </trkpt>
      <trkpt lat="42.80601" lon="1.93659">
        <ele>1112.4</ele>
        <time>2024-10-11T09:01:12Z</time>
      </trkpt>
      <trkpt lat="42.806" lon="1.93656">
        <ele>1112.4</ele>
        <time>2024-10-11T09:01:13Z</time>
      </trkpt>
      <trkpt lat="42.80599" lon="1.93653">
        <ele>1112.4</ele>
        <time>2024-10-11T09:01:14Z</time>
      </trkpt>
      <trkpt lat="42.80599" lon="1.93649">
        <ele>1112.8</ele>
        <time>2024-10-11T09:01:15Z</time>
      </trkpt>
      <trkpt lat="42.80598" lon="1.93645">
        <ele>1113</ele>
        <time>2024-10-11T09:01:16Z</time>
      </trkpt>
      <trkpt lat="42.80597" lon="1.93642">
        <ele>1113</ele>
        <time>2024-10-11T09:01:17Z</time>
      </trkpt>
      <trkpt lat="42.80597" lon="1.93638">
        <ele>1113</ele>
        <time>2024-10-11T09:01:18Z</time>
      </trkpt>
      <trkpt lat="42.80596" lon="1.93634">
        <ele>1113</ele>
        <time>2024-10-11T09:01:19Z</time>
      </trkpt>
      <trkpt lat="42.80595" lon="1.93631">
        <ele>1113</ele>
        <time>2024-10-11T09:01:20Z</time>
      </trkpt>
      <trkpt lat="42.80594" lon="1.93627">
        <ele>1113.6</ele>
        <time>2024-10-11T09:01:21Z</time>
      </trkpt>
      <trkpt lat="42.80593" lon="1.93624">
        <ele>1113.6</ele>
        <time>2024-10-11T09:01:22Z</time>
      </trkpt>
      <trkpt lat="42.80592" lon="1.9362">
        <ele>1113.6</ele>
        <time>2024-10-11T09:01:23Z</time>
      </trkpt>
      <trkpt lat="42.80592" lon="1.93616">
        <ele>1113.6</ele>
        <time>2024-10-11T09:01:24Z</time>
      </trkpt>
      <trkpt lat="42.80591" lon="1.93613">
        <ele>1114.2</ele>
        <time>2024-10-11T09:01:25Z</time>
      </trkpt>
      <trkpt lat="42.80591" lon="1.93609">
        <ele>1114.2</ele>
        <time>2024-10-11T09:01:26Z</time>
      </trkpt>
      <trkpt lat="42.8059" lon="1.93605">
        <ele>1114.2</ele>
        <time>2024-10-11T09:01:27Z</time>
      </trkpt>
      <trkpt lat="42.80589" lon="1.93602">
        <ele>1114.8</ele>
        <time>2024-10-11T09:01:28Z</time>
      </trkpt>
      <trkpt lat="42.80588" lon="1.93598">
        <ele>1114.8</ele>
        <time>2024-10-11T09:01:29Z</time>
      </trkpt>
      <trkpt lat="42.80588" lon="1.93595">
        <ele>1114.8</ele>
        <time>2024-10-11T09:01:30Z</time>
      </trkpt>
      <trkpt lat="42.80587" lon="1.93591">
        <ele>1114.8</ele>
        <time>2024-10-11T09:01:31Z</time>
      </trkpt>
      <trkpt lat="42.80586" lon="1.93587">
        <ele>1114.8</ele>
        <time>2024-10-11T09:01:32Z</time>
      </trkpt>
      <trkpt lat="42.80586" lon="1.93584">
        <ele>1115.4</ele>
        <time>2024-10-11T09:01:33Z</time>
      </trkpt>
      <trkpt lat="42.80585" lon="1.9358">
        <ele>1115.4</ele>
        <time>2024-10-11T09:01:34Z</time>
      </trkpt>
      <trkpt lat="42.80584" lon="1.93576">
        <ele>1115.4</ele>
        <time>2024-10-11T09:01:35Z</time>
      </trkpt>
      <trkpt lat="42.80583" lon="1.93573">
        <ele>1115.4</ele>
        <time>2024-10-11T09:01:36Z</time>
      </trkpt>
      <trkpt lat="42.80582" lon="1.93569">
        <ele>1116</ele>
        <time>2024-10-11T09:01:37Z</time>
      </trkpt>
      <trkpt lat="42.80582" lon="1.93565">
        <ele>1116.2</ele>
        <time>2024-10-11T09:01:38Z</time>
      </trkpt>
      <trkpt lat="42.80581" lon="1.93561">
        <ele>1116.2</ele>
        <time>2024-10-11T09:01:39Z</time>
      </trkpt>
      <trkpt lat="42.8058" lon="1.93558">
        <ele>1116.2</ele>
        <time>2024-10-11T09:01:40Z</time>
      </trkpt>
      <trkpt lat="42.80579" lon="1.93554">
        <ele>1116.6</ele>
        <time>2024-10-11T09:01:41Z</time>
      </trkpt>
      <trkpt lat="42.80579" lon="1.9355">
        <ele>1116.6</ele>
        <time>2024-10-11T09:01:42Z</time>
      </trkpt>
      <trkpt lat="42.80578" lon="1.93547">
        <ele>1116.6</ele>
        <time>2024-10-11T09:01:43Z</time>
      </trkpt>
      <trkpt lat="42.80578" lon="1.93543">
        <ele>1116.6</ele>
        <time>2024-10-11T09:01:44Z</time>
      </trkpt>
      <trkpt lat="42.80577" lon="1.9354">
        <ele>1116.6</ele>
        <time>2024-10-11T09:01:45Z</time>
      </trkpt>
      <trkpt lat="42.80577" lon="1.93536">
        <ele>1116.6</ele>
        <time>2024-10-11T09:01:46Z</time>
      </trkpt>
      <trkpt lat="42.80576" lon="1.93533">
        <ele>1117.4</ele>
        <time>2024-10-11T09:01:47Z</time>
      </trkpt>
      <trkpt lat="42.80575" lon="1.93529">
        <ele>1117.8</ele>
        <time>2024-10-11T09:01:48Z</time>
      </trkpt>
      <trkpt lat="42.80574" lon="1.93526">
        <ele>1117.8</ele>
        <time>2024-10-11T09:01:49Z</time>
      </trkpt>
      <trkpt lat="42.80574" lon="1.93522">
        <ele>1117.8</ele>
        <time>2024-10-11T09:01:50Z</time>
      </trkpt>
      <trkpt lat="42.80573" lon="1.93518">
        <ele>1118</ele>
        <time>2024-10-11T09:01:51Z</time>
      </trkpt>
      <trkpt lat="42.80572" lon="1.93514">
        <ele>1118.6</ele>
        <time>2024-10-11T09:01:52Z</time>
      </trkpt>
      <trkpt lat="42.80571" lon="1.93511">
        <ele>1118.6</ele>
        <time>2024-10-11T09:01:53Z</time>
      </trkpt>
      <trkpt lat="42.80571" lon="1.93507">
        <ele>1118.6</ele>
        <time>2024-10-11T09:01:54Z</time>
      </trkpt>
      <trkpt lat="42.8057" lon="1.93504">
        <ele>1119.2</ele>
        <time>2024-10-11T09:01:55Z</time>
      </trkpt>
      <trkpt lat="42.80569" lon="1.93501">
        <ele>1119.2</ele>
        <time>2024-10-11T09:01:56Z</time>
      </trkpt>
      <trkpt lat="42.80568" lon="1.93497">
        <ele>1119.2</ele>
        <time>2024-10-11T09:01:57Z</time>
      </trkpt>
      <trkpt lat="42.80568" lon="1.93493">
        <ele>1119.2</ele>
        <time>2024-10-11T09:01:58Z</time>
      </trkpt>
      <trkpt lat="42.80567" lon="1.9349">
        <ele>1119.2</ele>
        <time>2024-10-11T09:01:59Z</time>
      </trkpt>
      <trkpt lat="42.80566" lon="1.93486">
        <ele>1119.8</ele>
        <time>2024-10-11T09:02:00Z</time>
      </trkpt>
      <trkpt lat="42.80565" lon="1.93483">
        <ele>1119.8</ele>
        <time>2024-10-11T09:02:01Z</time>
      </trkpt>
      <trkpt lat="42.80564" lon="1.93479">
        <ele>1119.8</ele>
        <time>2024-10-11T09:02:02Z</time>
      </trkpt>
      <trkpt lat="42.80564" lon="1.93475">
        <ele>1119.8</ele>
        <time>2024-10-11T09:02:03Z</time>
      </trkpt>
      <trkpt lat="42.80562" lon="1.93472">
        <ele>1120.2</ele>
        <time>2024-10-11T09:02:04Z</time>
      </trkpt>
      <trkpt lat="42.80562" lon="1.93468">
        <ele>1120.2</ele>
        <time>2024-10-11T09:02:05Z</time>
      </trkpt>
      <trkpt lat="42.80561" lon="1.93465">
        <ele>1120.4</ele>
        <time>2024-10-11T09:02:06Z</time>
      </trkpt>
      <trkpt lat="42.80561" lon="1.9346">
        <ele>1120.4</ele>
        <time>2024-10-11T09:02:07Z</time>
      </trkpt>
      <trkpt lat="42.8056" lon="1.93456">
        <ele>1121.2</ele>
        <time>2024-10-11T09:02:08Z</time>
      </trkpt>
      <trkpt lat="42.80559" lon="1.93453">
        <ele>1121.2</ele>
        <time>2024-10-11T09:02:09Z</time>
      </trkpt>
      <trkpt lat="42.80558" lon="1.9345">
        <ele>1121.6</ele>
        <time>2024-10-11T09:02:10Z</time>
      </trkpt>
      <trkpt lat="42.80557" lon="1.93447">
        <ele>1121.6</ele>
        <time>2024-10-11T09:02:11Z</time>
      </trkpt>
      <trkpt lat="42.80556" lon="1.93443">
        <ele>1121.6</ele>
        <time>2024-10-11T09:02:12Z</time>
      </trkpt>
      <trkpt lat="42.80555" lon="1.93438">
        <ele>1121.6</ele>
        <time>2024-10-11T09:02:13Z</time>
      </trkpt>
      <trkpt lat="42.80554" lon="1.93437">
        <ele>1122.2</ele>
        <time>2024-10-11T09:02:14Z</time>
      </trkpt>
      <trkpt lat="42.80554" lon="1.93433">
        <ele>1122.2</ele>
        <time>2024-10-11T09:02:15Z</time>
      </trkpt>
      <trkpt lat="42.80553" lon="1.9343">
        <ele>1122.2</ele>
        <time>2024-10-11T09:02:16Z</time>
      </trkpt>
      <trkpt lat="42.80552" lon="1.93426">
        <ele>1122.2</ele>
        <time>2024-10-11T09:02:17Z</time>
      </trkpt>
      <trkpt lat="42.80551" lon="1.93423">
        <ele>1122.8</ele>
        <time>2024-10-11T09:02:18Z</time>
      </trkpt>
      <trkpt lat="42.8055" lon="1.93418">
        <ele>1122.8</ele>
        <time>2024-10-11T09:02:19Z</time>
      </trkpt>
      <trkpt lat="42.80549" lon="1.93417">
        <ele>1122.8</ele>
        <time>2024-10-11T09:02:20Z</time>
      </trkpt>
      <trkpt lat="42.80548" lon="1.93413">
        <ele>1122.8</ele>
        <time>2024-10-11T09:02:21Z</time>
      </trkpt>
      <trkpt lat="42.80547" lon="1.9341">
        <ele>1123.6</ele>
        <time>2024-10-11T09:02:22Z</time>
      </trkpt>
      <trkpt lat="42.80546" lon="1.93406">
        <ele>1123.6</ele>
        <time>2024-10-11T09:02:23Z</time>
      </trkpt>
      <trkpt lat="42.80545" lon="1.93403">
        <ele>1123.6</ele>
        <time>2024-10-11T09:02:24Z</time>
      </trkpt>
      <trkpt lat="42.80544" lon="1.93399">
        <ele>1123.6</ele>
        <time>2024-10-11T09:02:25Z</time>
      </trkpt>
      <trkpt lat="42.80543" lon="1.93396">
        <ele>1123.6</ele>
        <time>2024-10-11T09:02:26Z</time>
      </trkpt>
      <trkpt lat="42.80542" lon="1.93392">
        <ele>1124.2</ele>
        <time>2024-10-11T09:02:27Z</time>
      </trkpt>
      <trkpt lat="42.80541" lon="1.93389">
        <ele>1124.4</ele>
        <time>2024-10-11T09:02:28Z</time>
      </trkpt>
      <trkpt lat="42.8054" lon="1.93385">
        <ele>1124.4</ele>
        <time>2024-10-11T09:02:29Z</time>
      </trkpt>
      <trkpt lat="42.80539" lon="1.93382">
        <ele>1124.4</ele>
        <time>2024-10-11T09:02:30Z</time>
      </trkpt>
      <trkpt lat="42.80538" lon="1.93378">
        <ele>1124.4</ele>
        <time>2024-10-11T09:02:31Z</time>
      </trkpt>
      <trkpt lat="42.80536" lon="1.93375">
        <ele>1124.8</ele>
        <time>2024-10-11T09:02:32Z</time>
      </trkpt>
      <trkpt lat="42.80535" lon="1.93371">
        <ele>1124.8</ele>
        <time>2024-10-11T09:02:33Z</time>
      </trkpt>
      <trkpt lat="42.80534" lon="1.93368">
        <ele>1124.8</ele>
        <time>2024-10-11T09:02:34Z</time>
      </trkpt>
      <trkpt lat="42.80533" lon="1.93364">
        <ele>1124.8</ele>
        <time>2024-10-11T09:02:35Z</time>
      </trkpt>
      <trkpt lat="42.80532" lon="1.93361">
        <ele>1125.6</ele>
        <time>2024-10-11T09:02:36Z</time>
      </trkpt>
      <trkpt lat="42.80531" lon="1.93358">
        <ele>1125.8</ele>
        <time>2024-10-11T09:02:37Z</time>
      </trkpt>
      <trkpt lat="42.80529" lon="1.93355">
        <ele>1125.8</ele>
        <time>2024-10-11T09:02:38Z</time>
      </trkpt>
      <trkpt lat="42.80528" lon="1.93351">
        <ele>1125.8</ele>
        <time>2024-10-11T09:02:39Z</time>
      </trkpt>
      <trkpt lat="42.80527" lon="1.93348">
        <ele>1125.8</ele>
        <time>2024-10-11T09:02:40Z</time>
      </trkpt>
      <trkpt lat="42.80526" lon="1.93344">
        <ele>1126.2</ele>
        <time>2024-10-11T09:02:41Z</time>
      </trkpt>
      <trkpt lat="42.80525" lon="1.93341">
        <ele>1126.2</ele>
        <time>2024-10-11T09:02:42Z</time>
      </trkpt>
      <trkpt lat="42.80524" lon="1.93337">
        <ele>1126.2</ele>
        <time>2024-10-11T09:02:43Z</time>
      </trkpt>
      <trkpt lat="42.80523" lon="1.93334">
        <ele>1126.2</ele>
        <time>2024-10-11T09:02:44Z</time>
      </trkpt>
      <trkpt lat="42.80521" lon="1.93331">
        <ele>1126.8</ele>
        <time>2024-10-11T09:02:45Z</time>
      </trkpt>
      <trkpt lat="42.8052" lon="1.93327">
        <ele>1127</ele>
        <time>2024-10-11T09:02:46Z</time>
      </trkpt>
      <trkpt lat="42.80519" lon="1.93324">
        <ele>1127</ele>
        <time>2024-10-11T09:02:47Z</time>
      </trkpt>
      <trkpt lat="42.80518" lon="1.9332">
        <ele>1127</ele>
        <time>2024-10-11T09:02:48Z</time>
      </trkpt>
      <trkpt lat="42.80516" lon="1.93317">
        <ele>1127</ele>
        <time>2024-10-11T09:02:49Z</time>
      </trkpt>
      <trkpt lat="42.80515" lon="1.93313">
        <ele>1127.6</ele>
        <time>2024-10-11T09:02:50Z</time>
      </trkpt>
      <trkpt lat="42.80513" lon="1.9331">
        <ele>1127.6</ele>
        <time>2024-10-11T09:02:51Z</time>
      </trkpt>
      <trkpt lat="42.80511" lon="1.93306">
        <ele>1127.6</ele>
        <time>2024-10-11T09:02:52Z</time>
      </trkpt>
      <trkpt lat="42.8051" lon="1.93302">
        <ele>1128.2</ele>
        <time>2024-10-11T09:02:53Z</time>
      </trkpt>
      <trkpt lat="42.80508" lon="1.93298">
        <ele>1128.2</ele>
        <time>2024-10-11T09:02:54Z</time>
      </trkpt>
      <trkpt lat="42.80507" lon="1.93295">
        <ele>1128.2</ele>
        <time>2024-10-11T09:02:55Z</time>
      </trkpt>
      <trkpt lat="42.80505" lon="1.93291">
        <ele>1128.2</ele>
        <time>2024-10-11T09:02:56Z</time>
      </trkpt>
      <trkpt lat="42.80503" lon="1.93288">
        <ele>1128.2</ele>
        <time>2024-10-11T09:02:57Z</time>
      </trkpt>
      <trkpt lat="42.80502" lon="1.93284">
        <ele>1128.8</ele>
        <time>2024-10-11T09:02:58Z</time>
      </trkpt>
      <trkpt lat="42.80501" lon="1.93281">
        <ele>1129</ele>
        <time>2024-10-11T09:02:59Z</time>
      </trkpt>
      <trkpt lat="42.80499" lon="1.93277">
        <ele>1129</ele>
        <time>2024-10-11T09:03:00Z</time>
      </trkpt>
      <trkpt lat="42.80498" lon="1.93274">
        <ele>1129</ele>
        <time>2024-10-11T09:03:01Z</time>
      </trkpt>
      <trkpt lat="42.80497" lon="1.93271">
        <ele>1129.4</ele>
        <time>2024-10-11T09:03:02Z</time>
      </trkpt>
      <trkpt lat="42.80495" lon="1.93267">
        <ele>1129.4</ele>
        <time>2024-10-11T09:03:03Z</time>
      </trkpt>
      <trkpt lat="42.80494" lon="1.93264">
        <ele>1129.4</ele>
        <time>2024-10-11T09:03:04Z</time>
      </trkpt>
      <trkpt lat="42.80493" lon="1.9326">
        <ele>1129.4</ele>
        <time>2024-10-11T09:03:05Z</time>
      </trkpt>
      <trkpt lat="42.80492" lon="1.93257">
        <ele>1129.8</ele>
        <time>2024-10-11T09:03:06Z</time>
      </trkpt>
      <trkpt lat="42.8049" lon="1.93253">
        <ele>1130.2</ele>
        <time>2024-10-11T09:03:07Z</time>
      </trkpt>
      <trkpt lat="42.80489" lon="1.9325">
        <ele>1130.2</ele>
        <time>2024-10-11T09:03:08Z</time>
      </trkpt>
      <trkpt lat="42.80487" lon="1.93247">
        <ele>1130.2</ele>
        <time>2024-10-11T09:03:09Z</time>
      </trkpt>
      <trkpt lat="42.80486" lon="1.93243">
        <ele>1130.2</ele>
        <time>2024-10-11T09:03:10Z</time>
      </trkpt>
      <trkpt lat="42.80484" lon="1.9324">
        <ele>1130.2</ele>
        <time>2024-10-11T09:03:11Z</time>
      </trkpt>
      <trkpt lat="42.80483" lon="1.93237">
        <ele>1130.6</ele>
        <time>2024-10-11T09:03:12Z</time>
      </trkpt>
      <trkpt lat="42.80482" lon="1.93233">
        <ele>1131</ele>
        <time>2024-10-11T09:03:13Z</time>
      </trkpt>
      <trkpt lat="42.8048" lon="1.93231">
        <ele>1131</ele>
        <time>2024-10-11T09:03:14Z</time>
      </trkpt>
      <trkpt lat="42.80479" lon="1.93227">
        <ele>1131</ele>
        <time>2024-10-11T09:03:15Z</time>
      </trkpt>
      <trkpt lat="42.80478" lon="1.93224">
        <ele>1131</ele>
        <time>2024-10-11T09:03:16Z</time>
      </trkpt>
      <trkpt lat="42.80476" lon="1.93221">
        <ele>1131.2</ele>
        <time>2024-10-11T09:03:17Z</time>
      </trkpt>
      <trkpt lat="42.80475" lon="1.93218">
        <ele>1131.2</ele>
        <time>2024-10-11T09:03:18Z</time>
      </trkpt>
      <trkpt lat="42.80474" lon="1.93215">
        <ele>1131.2</ele>
        <time>2024-10-11T09:03:19Z</time>
      </trkpt>
      <trkpt lat="42.80472" lon="1.93211">
        <ele>1132</ele>
        <time>2024-10-11T09:03:20Z</time>
      </trkpt>
      <trkpt lat="42.80471" lon="1.93208">
        <ele>1132</ele>
        <time>2024-10-11T09:03:21Z</time>
      </trkpt>
      <trkpt lat="42.8047" lon="1.93205">
        <ele>1132</ele>
        <time>2024-10-11T09:03:22Z</time>
      </trkpt>
      <trkpt lat="42.80468" lon="1.93202">
        <ele>1132</ele>
        <time>2024-10-11T09:03:23Z</time>
      </trkpt>
      <trkpt lat="42.80467" lon="1.93199">
        <ele>1132</ele>
        <time>2024-10-11T09:03:24Z</time>
      </trkpt>
      <trkpt lat="42.80465" lon="1.93196">
        <ele>1132.8</ele>
        <time>2024-10-11T09:03:25Z</time>
      </trkpt>
      <trkpt lat="42.80464" lon="1.93193">
        <ele>1132.8</ele>
        <time>2024-10-11T09:03:26Z</time>
      </trkpt>
      <trkpt lat="42.80463" lon="1.93189">
        <ele>1132.8</ele>
        <time>2024-10-11T09:03:27Z</time>
      </trkpt>
      <trkpt lat="42.80462" lon="1.93186">
        <ele>1132.8</ele>
        <time>2024-10-11T09:03:28Z</time>
      </trkpt>
      <trkpt lat="42.8046" lon="1.93182">
        <ele>1133.6</ele>
        <time>2024-10-11T09:03:29Z</time>
      </trkpt>
      <trkpt lat="42.80459" lon="1.93179">
        <ele>1133.6</ele>
        <time>2024-10-11T09:03:30Z</time>
      </trkpt>
      <trkpt lat="42.80458" lon="1.93176">
        <ele>1133.6</ele>
        <time>2024-10-11T09:03:31Z</time>
      </trkpt>
      <trkpt lat="42.80456" lon="1.93172">
        <ele>1133.6</ele>
        <time>2024-10-11T09:03:32Z</time>
      </trkpt>
      <trkpt lat="42.80455" lon="1.93169">
        <ele>1133.6</ele>
        <time>2024-10-11T09:03:33Z</time>
      </trkpt>
      <trkpt lat="42.80454" lon="1.93166">
        <ele>1133.6</ele>
        <time>2024-10-11T09:03:34Z</time>
      </trkpt>
      <trkpt lat="42.80452" lon="1.93163">
        <ele>1134</ele>
        <time>2024-10-11T09:03:35Z</time>
      </trkpt>
      <trkpt lat="42.80451" lon="1.93159">
        <ele>1134</ele>
        <time>2024-10-11T09:03:36Z</time>
      </trkpt>
      <trkpt lat="42.80449" lon="1.93156">
        <ele>1134</ele>
        <time>2024-10-11T09:03:37Z</time>
      </trkpt>
      <trkpt lat="42.80448" lon="1.93153">
        <ele>1134.6</ele>
        <time>2024-10-11T09:03:38Z</time>
      </trkpt>
      <trkpt lat="42.80446" lon="1.93149">
        <ele>1134.8</ele>
        <time>2024-10-11T09:03:39Z</time>
      </trkpt>
      <trkpt lat="42.80445" lon="1.93146">
        <ele>1134.8</ele>
        <time>2024-10-11T09:03:40Z</time>
      </trkpt>
      <trkpt lat="42.80444" lon="1.93143">
        <ele>1134.8</ele>
        <time>2024-10-11T09:03:41Z</time>
      </trkpt>
      <trkpt lat="42.80443" lon="1.93141">
        <ele>1134.8</ele>
        <time>2024-10-11T09:03:42Z</time>
      </trkpt>
      <trkpt lat="42.80442" lon="1.93139">
        <ele>1135.2</ele>
        <time>2024-10-11T09:03:43Z</time>
      </trkpt>
      <trkpt lat="42.80442" lon="1.93139">
        <ele>1135.2</ele>
        <time>2024-10-11T09:03:44Z</time>
      </trkpt>
      <trkpt lat="42.80441" lon="1.93138">
        <ele>1135.2</ele>
        <time>2024-10-11T09:03:45Z</time>
      </trkpt>
      <trkpt lat="42.80441" lon="1.93137">
        <ele>1135.2</ele>
        <time>2024-10-11T09:03:46Z</time>
      </trkpt>
      <trkpt lat="42.8044" lon="1.93135">
        <ele>1136.2</ele>
        <time>2024-10-11T09:03:47Z</time>
      </trkpt>
      <trkpt lat="42.80439" lon="1.93134">
        <ele>1136.8</ele>
        <time>2024-10-11T09:03:48Z</time>
      </trkpt>
      <trkpt lat="42.80438" lon="1.93132">
        <ele>1136.8</ele>
        <time>2024-10-11T09:03:49Z</time>
      </trkpt>
      <trkpt lat="42.80437" lon="1.9313">
        <ele>1136.8</ele>
        <time>2024-10-11T09:03:50Z</time>
      </trkpt>
      <trkpt lat="42.80437" lon="1.93128">
        <ele>1136.8</ele>
        <time>2024-10-11T09:03:51Z</time>
      </trkpt>
      <trkpt lat="42.80436" lon="1.93126">
        <ele>1136.2</ele>
        <time>2024-10-11T09:03:52Z</time>
      </trkpt>
      <trkpt lat="42.80435" lon="1.93125">
        <ele>1136.2</ele>
        <time>2024-10-11T09:03:53Z</time>
      </trkpt>
      <trkpt lat="42.80435" lon="1.93124">
        <ele>1136.2</ele>
        <time>2024-10-11T09:03:54Z</time>
      </trkpt>
      <trkpt lat="42.80435" lon="1.93124">
        <ele>1136.2</ele>
        <time>2024-10-11T09:03:55Z</time>
      </trkpt>
      <trkpt lat="42.80435" lon="1.93124">
        <ele>1136.2</ele>
        <time>2024-10-11T09:03:56Z</time>
      </trkpt>
      <trkpt lat="42.80432" lon="1.9312">
        <ele>1135.6</ele>
        <time>2024-10-11T09:05:03Z</time>
      </trkpt>
      <trkpt lat="42.80431" lon="1.93118">
        <ele>1135.6</ele>
        <time>2024-10-11T09:05:04Z</time>
      </trkpt>
      <trkpt lat="42.80429" lon="1.93115">
        <ele>1135.6</ele>
        <time>2024-10-11T09:05:05Z</time>
      </trkpt>
      <trkpt lat="42.80428" lon="1.93112">
        <ele>1135.6</ele>
        <time>2024-10-11T09:05:06Z</time>
      </trkpt>
      <trkpt lat="42.80427" lon="1.93109">
        <ele>1135.6</ele>
        <time>2024-10-11T09:05:07Z</time>
      </trkpt>
      <trkpt lat="42.80426" lon="1.93105">
        <ele>1136</ele>
        <time>2024-10-11T09:05:08Z</time>
      </trkpt>
      <trkpt lat="42.80425" lon="1.93102">
        <ele>1136</ele>
        <time>2024-10-11T09:05:09Z</time>
      </trkpt>
      <trkpt lat="42.80423" lon="1.93099">
        <ele>1136.4</ele>
        <time>2024-10-11T09:05:10Z</time>
      </trkpt>
      <trkpt lat="42.80421" lon="1.93096">
        <ele>1136.4</ele>
        <time>2024-10-11T09:05:11Z</time>
      </trkpt>
      <trkpt lat="42.8042" lon="1.93093">
        <ele>1136.4</ele>
        <time>2024-10-11T09:05:12Z</time>
      </trkpt>
      <trkpt lat="42.80418" lon="1.9309">
        <ele>1137</ele>
        <time>2024-10-11T09:05:13Z</time>
      </trkpt>
      <trkpt lat="42.80416" lon="1.93087">
        <ele>1137.2</ele>
        <time>2024-10-11T09:05:14Z</time>
      </trkpt>
      <trkpt lat="42.80415" lon="1.93084">
        <ele>1137.2</ele>
        <time>2024-10-11T09:05:15Z</time>
      </trkpt>
      <trkpt lat="42.80413" lon="1.9308">
        <ele>1137.2</ele>
        <time>2024-10-11T09:05:16Z</time>
      </trkpt>
      <trkpt lat="42.80411" lon="1.93077">
        <ele>1137.8</ele>
        <time>2024-10-11T09:05:17Z</time>
      </trkpt>
      <trkpt lat="42.8041" lon="1.93074">
        <ele>1137.8</ele>
        <time>2024-10-11T09:05:18Z</time>
      </trkpt>
      <trkpt lat="42.80408" lon="1.93071">
        <ele>1137.8</ele>
        <time>2024-10-11T09:05:19Z</time>
      </trkpt>
      <trkpt lat="42.80406" lon="1.93067">
        <ele>1137.8</ele>
        <time>2024-10-11T09:05:20Z</time>
      </trkpt>
      <trkpt lat="42.80404" lon="1.93064">
        <ele>1137.8</ele>
        <time>2024-10-11T09:05:21Z</time>
      </trkpt>
      <trkpt lat="42.80402" lon="1.93061">
        <ele>1138.6</ele>
        <time>2024-10-11T09:05:22Z</time>
      </trkpt>
      <trkpt lat="42.80401" lon="1.93057">
        <ele>1138.6</ele>
        <time>2024-10-11T09:05:23Z</time>
      </trkpt>
      <trkpt lat="42.80399" lon="1.93054">
        <ele>1138.6</ele>
        <time>2024-10-11T09:05:24Z</time>
      </trkpt>
      <trkpt lat="42.80398" lon="1.93051">
        <ele>1138.6</ele>
        <time>2024-10-11T09:05:25Z</time>
      </trkpt>
      <trkpt lat="42.80396" lon="1.93047">
        <ele>1139.2</ele>
        <time>2024-10-11T09:05:26Z</time>
      </trkpt>
      <trkpt lat="42.80394" lon="1.93044">
        <ele>1139.2</ele>
        <time>2024-10-11T09:05:27Z</time>
      </trkpt>
      <trkpt lat="42.80393" lon="1.93041">
        <ele>1139.2</ele>
        <time>2024-10-11T09:05:28Z</time>
      </trkpt>
      <trkpt lat="42.80391" lon="1.93037">
        <ele>1139.2</ele>
        <time>2024-10-11T09:05:29Z</time>
      </trkpt>
      <trkpt lat="42.80389" lon="1.93034">
        <ele>1140</ele>
        <time>2024-10-11T09:05:30Z</time>
      </trkpt>
      <trkpt lat="42.80388" lon="1.93031">
        <ele>1140</ele>
        <time>2024-10-11T09:05:31Z</time>
      </trkpt>
      <trkpt lat="42.80386" lon="1.93028">
        <ele>1140</ele>
        <time>2024-10-11T09:05:32Z</time>
      </trkpt>
      <trkpt lat="42.80385" lon="1.93024">
        <ele>1140</ele>
        <time>2024-10-11T09:05:33Z</time>
      </trkpt>
      <trkpt lat="42.80383" lon="1.93021">
        <ele>1140</ele>
        <time>2024-10-11T09:05:34Z</time>
      </trkpt>
      <trkpt lat="42.80382" lon="1.93018">
        <ele>1140.8</ele>
        <time>2024-10-11T09:05:35Z</time>
      </trkpt>
      <trkpt lat="42.8038" lon="1.93015">
        <ele>1141</ele>
        <time>2024-10-11T09:05:36Z</time>
      </trkpt>
      <trkpt lat="42.80379" lon="1.93012">
        <ele>1141</ele>
        <time>2024-10-11T09:05:37Z</time>
      </trkpt>
      <trkpt lat="42.80378" lon="1.93008">
        <ele>1141</ele>
        <time>2024-10-11T09:05:38Z</time>
      </trkpt>
      <trkpt lat="42.80376" lon="1.93005">
        <ele>1141.4</ele>
        <time>2024-10-11T09:05:39Z</time>
      </trkpt>
      <trkpt lat="42.80374" lon="1.93002">
        <ele>1141.6</ele>
        <time>2024-10-11T09:05:40Z</time>
      </trkpt>
      <trkpt lat="42.80373" lon="1.92998">
        <ele>1141.6</ele>
        <time>2024-10-11T09:05:41Z</time>
      </trkpt>
      <trkpt lat="42.80372" lon="1.92995">
        <ele>1141.6</ele>
        <time>2024-10-11T09:05:42Z</time>
      </trkpt>
      <trkpt lat="42.8037" lon="1.92992">
        <ele>1141.6</ele>
        <time>2024-10-11T09:05:43Z</time>
      </trkpt>
      <trkpt lat="42.80369" lon="1.92989">
        <ele>1142.4</ele>
        <time>2024-10-11T09:05:44Z</time>
      </trkpt>
      <trkpt lat="42.80367" lon="1.92986">
        <ele>1142.4</ele>
        <time>2024-10-11T09:05:45Z</time>
      </trkpt>
      <trkpt lat="42.80366" lon="1.92982">
        <ele>1142.4</ele>
        <time>2024-10-11T09:05:46Z</time>
      </trkpt>
      <trkpt lat="42.80365" lon="1.92979">
        <ele>1142.4</ele>
        <time>2024-10-11T09:05:47Z</time>
      </trkpt>
      <trkpt lat="42.80364" lon="1.92976">
        <ele>1142.4</ele>
        <time>2024-10-11T09:05:48Z</time>
      </trkpt>
      <trkpt lat="42.80363" lon="1.92972">
        <ele>1142.4</ele>
        <time>2024-10-11T09:05:49Z</time>
      </trkpt>
      <trkpt lat="42.80362" lon="1.92969">
        <ele>1143</ele>
        <time>2024-10-11T09:05:50Z</time>
      </trkpt>
      <trkpt lat="42.8036" lon="1.92966">
        <ele>1143</ele>
        <time>2024-10-11T09:05:51Z</time>
      </trkpt>
      <trkpt lat="42.80359" lon="1.92962">
        <ele>1143</ele>
        <time>2024-10-11T09:05:52Z</time>
      </trkpt>
      <trkpt lat="42.80357" lon="1.92959">
        <ele>1143.6</ele>
        <time>2024-10-11T09:05:53Z</time>
      </trkpt>
      <trkpt lat="42.80356" lon="1.92955">
        <ele>1143.8</ele>
        <time>2024-10-11T09:05:54Z</time>
      </trkpt>
      <trkpt lat="42.80354" lon="1.92952">
        <ele>1143.8</ele>
        <time>2024-10-11T09:05:55Z</time>
      </trkpt>
      <trkpt lat="42.80353" lon="1.92949">
        <ele>1143.8</ele>
        <time>2024-10-11T09:05:56Z</time>
      </trkpt>
      <trkpt lat="42.80351" lon="1.92946">
        <ele>1144.4</ele>
        <time>2024-10-11T09:05:57Z</time>
      </trkpt>
      <trkpt lat="42.8035" lon="1.92942">
        <ele>1144.4</ele>
        <time>2024-10-11T09:05:58Z</time>
      </trkpt>
      <trkpt lat="42.80348" lon="1.92939">
        <ele>1144.6</ele>
        <time>2024-10-11T09:05:59Z</time>
      </trkpt>
      <trkpt lat="42.80347" lon="1.92936">
        <ele>1144.6</ele>
        <time>2024-10-11T09:06:00Z</time>
      </trkpt>
      <trkpt lat="42.80346" lon="1.92932">
        <ele>1144.6</ele>
        <time>2024-10-11T09:06:01Z</time>
      </trkpt>
      <trkpt lat="42.80344" lon="1.92929">
        <ele>1145.2</ele>
        <time>2024-10-11T09:06:02Z</time>
      </trkpt>
      <trkpt lat="42.80342" lon="1.92925">
        <ele>1145.4</ele>
        <time>2024-10-11T09:06:03Z</time>
      </trkpt>
      <trkpt lat="42.80341" lon="1.92922">
        <ele>1145.4</ele>
        <time>2024-10-11T09:06:04Z</time>
      </trkpt>
      <trkpt lat="42.80339" lon="1.92919">
        <ele>1145.4</ele>
        <time>2024-10-11T09:06:05Z</time>
      </trkpt>
      <trkpt lat="42.80338" lon="1.92915">
        <ele>1146</ele>
        <time>2024-10-11T09:06:06Z</time>
      </trkpt>
      <trkpt lat="42.80336" lon="1.92912">
        <ele>1146</ele>
        <time>2024-10-11T09:06:07Z</time>
      </trkpt>
      <trkpt lat="42.80335" lon="1.92908">
        <ele>1146.4</ele>
        <time>2024-10-11T09:06:08Z</time>
      </trkpt>
      <trkpt lat="42.80334" lon="1.92905">
        <ele>1146.4</ele>
        <time>2024-10-11T09:06:09Z</time>
      </trkpt>
      <trkpt lat="42.80332" lon="1.92903">
        <ele>1146.4</ele>
        <time>2024-10-11T09:06:10Z</time>
      </trkpt>
      <trkpt lat="42.80331" lon="1.92899">
        <ele>1146.4</ele>
        <time>2024-10-11T09:06:11Z</time>
      </trkpt>
      <trkpt lat="42.8033" lon="1.92896">
        <ele>1146.8</ele>
        <time>2024-10-11T09:06:12Z</time>
      </trkpt>
      <trkpt lat="42.80328" lon="1.92892">
        <ele>1146.8</ele>
        <time>2024-10-11T09:06:13Z</time>
      </trkpt>
      <trkpt lat="42.80327" lon="1.92889">
        <ele>1146.8</ele>
        <time>2024-10-11T09:06:14Z</time>
      </trkpt>
      <trkpt lat="42.80325" lon="1.92886">
        <ele>1147.4</ele>
        <time>2024-10-11T09:06:15Z</time>
      </trkpt>
      <trkpt lat="42.80324" lon="1.92883">
        <ele>1147.4</ele>
        <time>2024-10-11T09:06:16Z</time>
      </trkpt>
      <trkpt lat="42.80322" lon="1.9288">
        <ele>1147.4</ele>
        <time>2024-10-11T09:06:17Z</time>
      </trkpt>
      <trkpt lat="42.80321" lon="1.92877">
        <ele>1147.4</ele>
        <time>2024-10-11T09:06:18Z</time>
      </trkpt>
      <trkpt lat="42.80319" lon="1.92874">
        <ele>1148.2</ele>
        <time>2024-10-11T09:06:19Z</time>
      </trkpt>
      <trkpt lat="42.80318" lon="1.9287">
        <ele>1148.2</ele>
        <time>2024-10-11T09:06:20Z</time>
      </trkpt>
      <trkpt lat="42.80317" lon="1.92867">
        <ele>1148.2</ele>
        <time>2024-10-11T09:06:21Z</time>
      </trkpt>
      <trkpt lat="42.80315" lon="1.92864">
        <ele>1148.2</ele>
        <time>2024-10-11T09:06:22Z</time>
      </trkpt>
      <trkpt lat="42.80314" lon="1.92861">
        <ele>1148.2</ele>
        <time>2024-10-11T09:06:23Z</time>
      </trkpt>
      <trkpt lat="42.80312" lon="1.92858">
        <ele>1148.6</ele>
        <time>2024-10-11T09:06:24Z</time>
      </trkpt>
      <trkpt lat="42.80311" lon="1.92855">
        <ele>1148.8</ele>
        <time>2024-10-11T09:06:25Z</time>
      </trkpt>
      <trkpt lat="42.8031" lon="1.92851">
        <ele>1148.8</ele>
        <time>2024-10-11T09:06:26Z</time>
      </trkpt>
      <trkpt lat="42.80308" lon="1.92848">
        <ele>1148.8</ele>
        <time>2024-10-11T09:06:27Z</time>
      </trkpt>
      <trkpt lat="42.80307" lon="1.92845">
        <ele>1149.4</ele>
        <time>2024-10-11T09:06:28Z</time>
      </trkpt>
      <trkpt lat="42.80305" lon="1.92842">
        <ele>1149.6</ele>
        <time>2024-10-11T09:06:29Z</time>
      </trkpt>
      <trkpt lat="42.80304" lon="1.92839">
        <ele>1149.6</ele>
        <time>2024-10-11T09:06:30Z</time>
      </trkpt>
      <trkpt lat="42.80302" lon="1.92836">
        <ele>1149.6</ele>
        <time>2024-10-11T09:06:31Z</time>
      </trkpt>
      <trkpt lat="42.80301" lon="1.92833">
        <ele>1149.6</ele>
        <time>2024-10-11T09:06:32Z</time>
      </trkpt>
      <trkpt lat="42.80299" lon="1.9283">
        <ele>1149.6</ele>
        <time>2024-10-11T09:06:33Z</time>
      </trkpt>
      <trkpt lat="42.80298" lon="1.92827">
        <ele>1150</ele>
        <time>2024-10-11T09:06:34Z</time>
      </trkpt>
      <trkpt lat="42.80296" lon="1.92823">
        <ele>1150.6</ele>
        <time>2024-10-11T09:06:35Z</time>
      </trkpt>
      <trkpt lat="42.80295" lon="1.9282">
        <ele>1150.6</ele>
        <time>2024-10-11T09:06:36Z</time>
      </trkpt>
      <trkpt lat="42.80294" lon="1.92817">
        <ele>1150.6</ele>
        <time>2024-10-11T09:06:37Z</time>
      </trkpt>
      <trkpt lat="42.80292" lon="1.92814">
        <ele>1151</ele>
        <time>2024-10-11T09:06:38Z</time>
      </trkpt>
      <trkpt lat="42.80291" lon="1.92811">
        <ele>1151.4</ele>
        <time>2024-10-11T09:06:39Z</time>
      </trkpt>
      <trkpt lat="42.80289" lon="1.92809">
        <ele>1151.4</ele>
        <time>2024-10-11T09:06:40Z</time>
      </trkpt>
      <trkpt lat="42.80288" lon="1.92806">
        <ele>1151.4</ele>
        <time>2024-10-11T09:06:41Z</time>
      </trkpt>
      <trkpt lat="42.80287" lon="1.92803">
        <ele>1151.4</ele>
        <time>2024-10-11T09:06:42Z</time>
      </trkpt>
      <trkpt lat="42.80285" lon="1.92799">
        <ele>1151.4</ele>
        <time>2024-10-11T09:06:43Z</time>
      </trkpt>
      <trkpt lat="42.80283" lon="1.92796">
        <ele>1151.8</ele>
        <time>2024-10-11T09:06:44Z</time>
      </trkpt>
      <trkpt lat="42.80282" lon="1.92793">
        <ele>1151.8</ele>
        <time>2024-10-11T09:06:45Z</time>
      </trkpt>
      <trkpt lat="42.8028" lon="1.9279">
        <ele>1151.8</ele>
        <time>2024-10-11T09:06:46Z</time>
      </trkpt>
      <trkpt lat="42.80277" lon="1.92787">
        <ele>1152.4</ele>
        <time>2024-10-11T09:06:47Z</time>
      </trkpt>
      <trkpt lat="42.80275" lon="1.92782">
        <ele>1152.4</ele>
        <time>2024-10-11T09:06:48Z</time>
      </trkpt>
      <trkpt lat="42.80273" lon="1.92779">
        <ele>1152.4</ele>
        <time>2024-10-11T09:06:49Z</time>
      </trkpt>
      <trkpt lat="42.8027" lon="1.92778">
        <ele>1152.4</ele>
        <time>2024-10-11T09:06:50Z</time>
      </trkpt>
      <trkpt lat="42.80267" lon="1.92776">
        <ele>1153</ele>
        <time>2024-10-11T09:06:51Z</time>
      </trkpt>
      <trkpt lat="42.80264" lon="1.92775">
        <ele>1153</ele>
        <time>2024-10-11T09:06:52Z</time>
      </trkpt>
      <trkpt lat="42.80261" lon="1.92774">
        <ele>1153</ele>
        <time>2024-10-11T09:06:53Z</time>
      </trkpt>
      <trkpt lat="42.80258" lon="1.92774">
        <ele>1153</ele>
        <time>2024-10-11T09:06:54Z</time>
      </trkpt>
      <trkpt lat="42.80255" lon="1.92774">
        <ele>1153</ele>
        <time>2024-10-11T09:06:55Z</time>
      </trkpt>
      <trkpt lat="42.80252" lon="1.92775">
        <ele>1153.8</ele>
        <time>2024-10-11T09:06:56Z</time>
      </trkpt>
      <trkpt lat="42.80249" lon="1.92776">
        <ele>1154</ele>
        <time>2024-10-11T09:06:57Z</time>
      </trkpt>
      <trkpt lat="42.80246" lon="1.92777">
        <ele>1154</ele>
        <time>2024-10-11T09:06:58Z</time>
      </trkpt>
      <trkpt lat="42.80244" lon="1.92778">
        <ele>1154</ele>
        <time>2024-10-11T09:06:59Z</time>
      </trkpt>
      <trkpt lat="42.80242" lon="1.9278">
        <ele>1154.6</ele>
        <time>2024-10-11T09:07:00Z</time>
      </trkpt>
      <trkpt lat="42.80239" lon="1.92781">
        <ele>1154.8</ele>
        <time>2024-10-11T09:07:01Z</time>
      </trkpt>
      <trkpt lat="42.80237" lon="1.92783">
        <ele>1154.8</ele>
        <time>2024-10-11T09:07:02Z</time>
      </trkpt>
      <trkpt lat="42.80235" lon="1.92785">
        <ele>1154.8</ele>
        <time>2024-10-11T09:07:03Z</time>
      </trkpt>
      <trkpt lat="42.80232" lon="1.92788">
        <ele>1155.4</ele>
        <time>2024-10-11T09:07:04Z</time>
      </trkpt>
      <trkpt lat="42.8023" lon="1.92791">
        <ele>1155.4</ele>
        <time>2024-10-11T09:07:05Z</time>
      </trkpt>
      <trkpt lat="42.80228" lon="1.92793">
        <ele>1155.4</ele>
        <time>2024-10-11T09:07:06Z</time>
      </trkpt>
      <trkpt lat="42.80225" lon="1.92797">
        <ele>1155.4</ele>
        <time>2024-10-11T09:07:07Z</time>
      </trkpt>
      <trkpt lat="42.80224" lon="1.92799">
        <ele>1155.4</ele>
        <time>2024-10-11T09:07:08Z</time>
      </trkpt>
      <trkpt lat="42.80222" lon="1.92801">
        <ele>1156</ele>
        <time>2024-10-11T09:07:09Z</time>
      </trkpt>
      <trkpt lat="42.8022" lon="1.92804">
        <ele>1155.8</ele>
        <time>2024-10-11T09:07:10Z</time>
      </trkpt>
      <trkpt lat="42.80218" lon="1.92806">
        <ele>1155.8</ele>
        <time>2024-10-11T09:07:11Z</time>
      </trkpt>
      <trkpt lat="42.80215" lon="1.92808">
        <ele>1155.8</ele>
        <time>2024-10-11T09:07:12Z</time>
      </trkpt>
      <trkpt lat="42.80214" lon="1.92809">
        <ele>1156.6</ele>
        <time>2024-10-11T09:07:13Z</time>
      </trkpt>
      <trkpt lat="42.80211" lon="1.92811">
        <ele>1156.6</ele>
        <time>2024-10-11T09:07:14Z</time>
      </trkpt>
      <trkpt lat="42.80209" lon="1.92813">
        <ele>1157</ele>
        <time>2024-10-11T09:07:15Z</time>
      </trkpt>
      <trkpt lat="42.80207" lon="1.92814">
        <ele>1157</ele>
        <time>2024-10-11T09:07:16Z</time>
      </trkpt>
      <trkpt lat="42.80204" lon="1.92815">
        <ele>1157</ele>
        <time>2024-10-11T09:07:17Z</time>
      </trkpt>
      <trkpt lat="42.80202" lon="1.92816">
        <ele>1157</ele>
        <time>2024-10-11T09:07:18Z</time>
      </trkpt>
      <trkpt lat="42.80199" lon="1.92818">
        <ele>1157</ele>
        <time>2024-10-11T09:07:19Z</time>
      </trkpt>
      <trkpt lat="42.80197" lon="1.9282">
        <ele>1157.4</ele>
        <time>2024-10-11T09:07:20Z</time>
      </trkpt>
      <trkpt lat="42.80194" lon="1.92821">
        <ele>1157.4</ele>
        <time>2024-10-11T09:07:21Z</time>
      </trkpt>
      <trkpt lat="42.80192" lon="1.92823">
        <ele>1157.4</ele>
        <time>2024-10-11T09:07:22Z</time>
      </trkpt>
      <trkpt lat="42.80189" lon="1.92825">
        <ele>1158</ele>
        <time>2024-10-11T09:07:23Z</time>
      </trkpt>
      <trkpt lat="42.80187" lon="1.92826">
        <ele>1158.2</ele>
        <time>2024-10-11T09:07:24Z</time>
      </trkpt>
      <trkpt lat="42.80184" lon="1.92828">
        <ele>1158.2</ele>
        <time>2024-10-11T09:07:25Z</time>
      </trkpt>
      <trkpt lat="42.80182" lon="1.92829">
        <ele>1158.2</ele>
        <time>2024-10-11T09:07:26Z</time>
      </trkpt>
      <trkpt lat="42.8018" lon="1.9283">
        <ele>1158.2</ele>
        <time>2024-10-11T09:07:27Z</time>
      </trkpt>
      <trkpt lat="42.80177" lon="1.92832">
        <ele>1158.2</ele>
        <time>2024-10-11T09:07:28Z</time>
      </trkpt>
      <trkpt lat="42.80175" lon="1.92833">
        <ele>1158.8</ele>
        <time>2024-10-11T09:07:29Z</time>
      </trkpt>
      <trkpt lat="42.80172" lon="1.92835">
        <ele>1158.8</ele>
        <time>2024-10-11T09:07:30Z</time>
      </trkpt>
      <trkpt lat="42.8017" lon="1.92836">
        <ele>1158.8</ele>
        <time>2024-10-11T09:07:31Z</time>
      </trkpt>
      <trkpt lat="42.80167" lon="1.92838">
        <ele>1159.4</ele>
        <time>2024-10-11T09:07:32Z</time>
      </trkpt>
      <trkpt lat="42.80165" lon="1.9284">
        <ele>1159</ele>
        <time>2024-10-11T09:07:33Z</time>
      </trkpt>
      <trkpt lat="42.80162" lon="1.92841">
        <ele>1159</ele>
        <time>2024-10-11T09:07:34Z</time>
      </trkpt>
      <trkpt lat="42.8016" lon="1.92843">
        <ele>1159</ele>
        <time>2024-10-11T09:07:35Z</time>
      </trkpt>
      <trkpt lat="42.80158" lon="1.92845">
        <ele>1159.8</ele>
        <time>2024-10-11T09:07:36Z</time>
      </trkpt>
      <trkpt lat="42.80156" lon="1.92845">
        <ele>1160</ele>
        <time>2024-10-11T09:07:37Z</time>
      </trkpt>
      <trkpt lat="42.80153" lon="1.92846">
        <ele>1160</ele>
        <time>2024-10-11T09:07:38Z</time>
      </trkpt>
      <trkpt lat="42.80151" lon="1.92847">
        <ele>1160</ele>
        <time>2024-10-11T09:07:39Z</time>
      </trkpt>
      <trkpt lat="42.80148" lon="1.92848">
        <ele>1160.6</ele>
        <time>2024-10-11T09:07:40Z</time>
      </trkpt>
      <trkpt lat="42.80146" lon="1.9285">
        <ele>1160.6</ele>
        <time>2024-10-11T09:07:41Z</time>
      </trkpt>
      <trkpt lat="42.80144" lon="1.92851">
        <ele>1160.8</ele>
        <time>2024-10-11T09:07:42Z</time>
      </trkpt>
      <trkpt lat="42.80141" lon="1.92852">
        <ele>1160.8</ele>
        <time>2024-10-11T09:07:43Z</time>
      </trkpt>
      <trkpt lat="42.80139" lon="1.92854">
        <ele>1160.8</ele>
        <time>2024-10-11T09:07:44Z</time>
      </trkpt>
      <trkpt lat="42.80137" lon="1.92855">
        <ele>1160.8</ele>
        <time>2024-10-11T09:07:45Z</time>
      </trkpt>
      <trkpt lat="42.80134" lon="1.92857">
        <ele>1161.2</ele>
        <time>2024-10-11T09:07:46Z</time>
      </trkpt>
      <trkpt lat="42.80132" lon="1.92858">
        <ele>1161.2</ele>
        <time>2024-10-11T09:07:47Z</time>
      </trkpt>
      <trkpt lat="42.80129" lon="1.92859">
        <ele>1161.2</ele>
        <time>2024-10-11T09:07:48Z</time>
      </trkpt>
      <trkpt lat="42.80125" lon="1.92861">
        <ele>1161.2</ele>
        <time>2024-10-11T09:07:49Z</time>
      </trkpt>
      <trkpt lat="42.80124" lon="1.92862">
        <ele>1161.8</ele>
        <time>2024-10-11T09:07:50Z</time>
      </trkpt>
      <trkpt lat="42.80121" lon="1.92863">
        <ele>1161.8</ele>
        <time>2024-10-11T09:07:51Z</time>
      </trkpt>
      <trkpt lat="42.80118" lon="1.92864">
        <ele>1161.8</ele>
        <time>2024-10-11T09:07:52Z</time>
      </trkpt>
      <trkpt lat="42.80116" lon="1.92865">
        <ele>1161.8</ele>
        <time>2024-10-11T09:07:53Z</time>
      </trkpt>
      <trkpt lat="42.80113" lon="1.92867">
        <ele>1161.8</ele>
        <time>2024-10-11T09:07:54Z</time>
      </trkpt>
      <trkpt lat="42.8011" lon="1.92867">
        <ele>1162.6</ele>
        <time>2024-10-11T09:07:55Z</time>
      </trkpt>
      <trkpt lat="42.80107" lon="1.92868">
        <ele>1162.6</ele>
        <time>2024-10-11T09:07:56Z</time>
      </trkpt>
      <trkpt lat="42.80104" lon="1.92868">
        <ele>1162.6</ele>
        <time>2024-10-11T09:07:57Z</time>
      </trkpt>
      <trkpt lat="42.80102" lon="1.92869">
        <ele>1162.6</ele>
        <time>2024-10-11T09:07:58Z</time>
      </trkpt>
      <trkpt lat="42.80099" lon="1.92869">
        <ele>1162.6</ele>
        <time>2024-10-11T09:07:59Z</time>
      </trkpt>
      <trkpt lat="42.80096" lon="1.9287">
        <ele>1163</ele>
        <time>2024-10-11T09:08:00Z</time>
      </trkpt>
      <trkpt lat="42.80093" lon="1.9287">
        <ele>1163</ele>
        <time>2024-10-11T09:08:01Z</time>
      </trkpt>
      <trkpt lat="42.80091" lon="1.9287">
        <ele>1163</ele>
        <time>2024-10-11T09:08:02Z</time>
      </trkpt>
      <trkpt lat="42.80088" lon="1.9287">
        <ele>1163.8</ele>
        <time>2024-10-11T09:08:03Z</time>
      </trkpt>
      <trkpt lat="42.80085" lon="1.9287">
        <ele>1163.8</ele>
        <time>2024-10-11T09:08:04Z</time>
      </trkpt>
      <trkpt lat="42.80083" lon="1.9287">
        <ele>1163.4</ele>
        <time>2024-10-11T09:08:05Z</time>
      </trkpt>
      <trkpt lat="42.8008" lon="1.9287">
        <ele>1163.4</ele>
        <time>2024-10-11T09:08:06Z</time>
      </trkpt>
      <trkpt lat="42.80078" lon="1.9287">
        <ele>1163.4</ele>
        <time>2024-10-11T09:08:07Z</time>
      </trkpt>
      <trkpt lat="42.80075" lon="1.9287">
        <ele>1164.4</ele>
        <time>2024-10-11T09:08:08Z</time>
      </trkpt>
      <trkpt lat="42.80073" lon="1.9287">
        <ele>1164.6</ele>
        <time>2024-10-11T09:08:09Z</time>
      </trkpt>
      <trkpt lat="42.8007" lon="1.9287">
        <ele>1164.6</ele>
        <time>2024-10-11T09:08:10Z</time>
      </trkpt>
      <trkpt lat="42.80068" lon="1.9287">
        <ele>1164.6</ele>
        <time>2024-10-11T09:08:11Z</time>
      </trkpt>
      <trkpt lat="42.80065" lon="1.9287">
        <ele>1164.6</ele>
        <time>2024-10-11T09:08:12Z</time>
      </trkpt>
      <trkpt lat="42.80062" lon="1.92871">
        <ele>1164.6</ele>
        <time>2024-10-11T09:08:13Z</time>
      </trkpt>
      <trkpt lat="42.8006" lon="1.92871">
        <ele>1165.2</ele>
        <time>2024-10-11T09:08:14Z</time>
      </trkpt>
      <trkpt lat="42.80057" lon="1.92871">
        <ele>1165.2</ele>
        <time>2024-10-11T09:08:15Z</time>
      </trkpt>
      <trkpt lat="42.80054" lon="1.92873">
        <ele>1166</ele>
        <time>2024-10-11T09:08:16Z</time>
      </trkpt>
      <trkpt lat="42.80052" lon="1.92874">
        <ele>1166</ele>
        <time>2024-10-11T09:08:17Z</time>
      </trkpt>
      <trkpt lat="42.80049" lon="1.92875">
        <ele>1166</ele>
        <time>2024-10-11T09:08:18Z</time>
      </trkpt>
      <trkpt lat="42.80046" lon="1.92877">
        <ele>1166</ele>
        <time>2024-10-11T09:08:19Z</time>
      </trkpt>
      <trkpt lat="42.80044" lon="1.92878">
        <ele>1166</ele>
        <time>2024-10-11T09:08:20Z</time>
      </trkpt>
      <trkpt lat="42.80041" lon="1.9288">
        <ele>1166.6</ele>
        <time>2024-10-11T09:08:21Z</time>
      </trkpt>
      <trkpt lat="42.80039" lon="1.92882">
        <ele>1166.6</ele>
        <time>2024-10-11T09:08:22Z</time>
      </trkpt>
      <trkpt lat="42.80037" lon="1.92884">
        <ele>1166.6</ele>
        <time>2024-10-11T09:08:23Z</time>
      </trkpt>
      <trkpt lat="42.80034" lon="1.92887">
        <ele>1166.6</ele>
        <time>2024-10-11T09:08:24Z</time>
      </trkpt>
      <trkpt lat="42.80032" lon="1.92889">
        <ele>1167</ele>
        <time>2024-10-11T09:08:25Z</time>
      </trkpt>
      <trkpt lat="42.8003" lon="1.92891">
        <ele>1167</ele>
        <time>2024-10-11T09:08:26Z</time>
      </trkpt>
      <trkpt lat="42.80028" lon="1.92894">
        <ele>1167.2</ele>
        <time>2024-10-11T09:08:27Z</time>
      </trkpt>
      <trkpt lat="42.80026" lon="1.92897">
        <ele>1167.2</ele>
        <time>2024-10-11T09:08:28Z</time>
      </trkpt>
      <trkpt lat="42.80024" lon="1.929">
        <ele>1167.2</ele>
        <time>2024-10-11T09:08:29Z</time>
      </trkpt>
      <trkpt lat="42.80022" lon="1.92903">
        <ele>1167.6</ele>
        <time>2024-10-11T09:08:30Z</time>
      </trkpt>
      <trkpt lat="42.8002" lon="1.92906">
        <ele>1167.8</ele>
        <time>2024-10-11T09:08:31Z</time>
      </trkpt>
      <trkpt lat="42.80018" lon="1.92908">
        <ele>1167.8</ele>
        <time>2024-10-11T09:08:32Z</time>
      </trkpt>
      <trkpt lat="42.80016" lon="1.92911">
        <ele>1167.8</ele>
        <time>2024-10-11T09:08:33Z</time>
      </trkpt>
      <trkpt lat="42.80014" lon="1.92914">
        <ele>1167.8</ele>
        <time>2024-10-11T09:08:34Z</time>
      </trkpt>
      <trkpt lat="42.80011" lon="1.92916">
        <ele>1168.2</ele>
        <time>2024-10-11T09:08:35Z</time>
      </trkpt>
      <trkpt lat="42.80009" lon="1.92918">
        <ele>1168.2</ele>
        <time>2024-10-11T09:08:36Z</time>
      </trkpt>
      <trkpt lat="42.80007" lon="1.9292">
        <ele>1168.2</ele>
        <time>2024-10-11T09:08:37Z</time>
      </trkpt>
      <trkpt lat="42.80004" lon="1.92921">
        <ele>1168.6</ele>
        <time>2024-10-11T09:08:38Z</time>
      </trkpt>
      <trkpt lat="42.80002" lon="1.92922">
        <ele>1168.6</ele>
        <time>2024-10-11T09:08:39Z</time>
      </trkpt>
      <trkpt lat="42.79999" lon="1.92923">
        <ele>1168.6</ele>
        <time>2024-10-11T09:08:40Z</time>
      </trkpt>
      <trkpt lat="42.79996" lon="1.92923">
        <ele>1168.8</ele>
        <time>2024-10-11T09:08:41Z</time>
      </trkpt>
      <trkpt lat="42.79994" lon="1.92922">
        <ele>1168.8</ele>
        <time>2024-10-11T09:08:42Z</time>
      </trkpt>
      <trkpt lat="42.79992" lon="1.92922">
        <ele>1168.8</ele>
        <time>2024-10-11T09:08:43Z</time>
      </trkpt>
      <trkpt lat="42.79989" lon="1.92921">
        <ele>1169.8</ele>
        <time>2024-10-11T09:08:44Z</time>
      </trkpt>
      <trkpt lat="42.79987" lon="1.9292">
        <ele>1169.8</ele>
        <time>2024-10-11T09:08:45Z</time>
      </trkpt>
      <trkpt lat="42.79985" lon="1.92919">
        <ele>1169.8</ele>
        <time>2024-10-11T09:08:46Z</time>
      </trkpt>
      <trkpt lat="42.79984" lon="1.92917">
        <ele>1169.8</ele>
        <time>2024-10-11T09:08:47Z</time>
      </trkpt>
      <trkpt lat="42.79982" lon="1.92915">
        <ele>1170.2</ele>
        <time>2024-10-11T09:08:48Z</time>
      </trkpt>
      <trkpt lat="42.7998" lon="1.92913">
        <ele>1170.2</ele>
        <time>2024-10-11T09:08:49Z</time>
      </trkpt>
      <trkpt lat="42.79979" lon="1.9291">
        <ele>1170.6</ele>
        <time>2024-10-11T09:08:50Z</time>
      </trkpt>
      <trkpt lat="42.79978" lon="1.92908">
        <ele>1170.6</ele>
        <time>2024-10-11T09:08:51Z</time>
      </trkpt>
      <trkpt lat="42.79976" lon="1.92905">
        <ele>1170.6</ele>
        <time>2024-10-11T09:08:52Z</time>
      </trkpt>
      <trkpt lat="42.79975" lon="1.92902">
        <ele>1171</ele>
        <time>2024-10-11T09:08:53Z</time>
      </trkpt>
      <trkpt lat="42.79975" lon="1.92899">
        <ele>1171.2</ele>
        <time>2024-10-11T09:08:54Z</time>
      </trkpt>
      <trkpt lat="42.79974" lon="1.92896">
        <ele>1171.2</ele>
        <time>2024-10-11T09:08:55Z</time>
      </trkpt>
      <trkpt lat="42.79974" lon="1.92893">
        <ele>1171.2</ele>
        <time>2024-10-11T09:08:56Z</time>
      </trkpt>
      <trkpt lat="42.79974" lon="1.92889">
        <ele>1171.8</ele>
        <time>2024-10-11T09:08:57Z</time>
      </trkpt>
      <trkpt lat="42.79974" lon="1.92886">
        <ele>1172</ele>
        <time>2024-10-11T09:08:58Z</time>
      </trkpt>
      <trkpt lat="42.79975" lon="1.92883">
        <ele>1172</ele>
        <time>2024-10-11T09:08:59Z</time>
      </trkpt>
      <trkpt lat="42.79976" lon="1.92881">
        <ele>1172</ele>
        <time>2024-10-11T09:09:00Z</time>
      </trkpt>
      <trkpt lat="42.79978" lon="1.92878">
        <ele>1172.6</ele>
        <time>2024-10-11T09:09:01Z</time>
      </trkpt>
      <trkpt lat="42.79979" lon="1.92875">
        <ele>1172.6</ele>
        <time>2024-10-11T09:09:02Z</time>
      </trkpt>
      <trkpt lat="42.79981" lon="1.92873">
        <ele>1172.6</ele>
        <time>2024-10-11T09:09:03Z</time>
      </trkpt>
      <trkpt lat="42.79982" lon="1.92871">
        <ele>1172.6</ele>
        <time>2024-10-11T09:09:04Z</time>
      </trkpt>
      <trkpt lat="42.79984" lon="1.92869">
        <ele>1172.6</ele>
        <time>2024-10-11T09:09:05Z</time>
      </trkpt>
      <trkpt lat="42.79986" lon="1.92867">
        <ele>1173.4</ele>
        <time>2024-10-11T09:09:06Z</time>
      </trkpt>
      <trkpt lat="42.79988" lon="1.92866">
        <ele>1173.8</ele>
        <time>2024-10-11T09:09:07Z</time>
      </trkpt>
      <trkpt lat="42.7999" lon="1.92864">
        <ele>1173.8</ele>
        <time>2024-10-11T09:09:08Z</time>
      </trkpt>
      <trkpt lat="42.79992" lon="1.92864">
        <ele>1173.8</ele>
        <time>2024-10-11T09:09:09Z</time>
      </trkpt>
      <trkpt lat="42.79995" lon="1.92864">
        <ele>1174</ele>
        <time>2024-10-11T09:09:10Z</time>
      </trkpt>
      <trkpt lat="42.79997" lon="1.92863">
        <ele>1174</ele>
        <time>2024-10-11T09:09:11Z</time>
      </trkpt>
      <trkpt lat="42.8" lon="1.92861">
        <ele>1174</ele>
        <time>2024-10-11T09:09:12Z</time>
      </trkpt>
      <trkpt lat="42.80002" lon="1.9286">
        <ele>1174</ele>
        <time>2024-10-11T09:09:13Z</time>
      </trkpt>
      <trkpt lat="42.80004" lon="1.9286">
        <ele>1174</ele>
        <time>2024-10-11T09:09:14Z</time>
      </trkpt>
      <trkpt lat="42.80007" lon="1.92859">
        <ele>1174.2</ele>
        <time>2024-10-11T09:09:15Z</time>
      </trkpt>
      <trkpt lat="42.80009" lon="1.92859">
        <ele>1174.6</ele>
        <time>2024-10-11T09:09:16Z</time>
      </trkpt>
      <trkpt lat="42.80011" lon="1.92858">
        <ele>1174.6</ele>
        <time>2024-10-11T09:09:17Z</time>
      </trkpt>
      <trkpt lat="42.80013" lon="1.92857">
        <ele>1174.6</ele>
        <time>2024-10-11T09:09:18Z</time>
      </trkpt>
      <trkpt lat="42.80016" lon="1.92856">
        <ele>1174.6</ele>
        <time>2024-10-11T09:09:19Z</time>
      </trkpt>
      <trkpt lat="42.80018" lon="1.92855">
        <ele>1175</ele>
        <time>2024-10-11T09:09:20Z</time>
      </trkpt>
      <trkpt lat="42.8002" lon="1.92854">
        <ele>1175</ele>
        <time>2024-10-11T09:09:21Z</time>
      </trkpt>
      <trkpt lat="42.80022" lon="1.92853">
        <ele>1175</ele>
        <time>2024-10-11T09:09:22Z</time>
      </trkpt>
      <trkpt lat="42.80025" lon="1.92853">
        <ele>1175</ele>
        <time>2024-10-11T09:09:23Z</time>
      </trkpt>
      <trkpt lat="42.80027" lon="1.92852">
        <ele>1175</ele>
        <time>2024-10-11T09:09:24Z</time>
      </trkpt>
      <trkpt lat="42.80029" lon="1.92851">
        <ele>1175.4</ele>
        <time>2024-10-11T09:09:25Z</time>
      </trkpt>
      <trkpt lat="42.80032" lon="1.92851">
        <ele>1175.4</ele>
        <time>2024-10-11T09:09:26Z</time>
      </trkpt>
      <trkpt lat="42.80034" lon="1.9285">
        <ele>1175.4</ele>
        <time>2024-10-11T09:09:27Z</time>
      </trkpt>
      <trkpt lat="42.80037" lon="1.92849">
        <ele>1175.4</ele>
        <time>2024-10-11T09:09:28Z</time>
      </trkpt>
      <trkpt lat="42.80039" lon="1.92848">
        <ele>1176</ele>
        <time>2024-10-11T09:09:29Z</time>
      </trkpt>
      <trkpt lat="42.80041" lon="1.92847">
        <ele>1176</ele>
        <time>2024-10-11T09:09:30Z</time>
      </trkpt>
      <trkpt lat="42.80044" lon="1.92846">
        <ele>1176</ele>
        <time>2024-10-11T09:09:31Z</time>
      </trkpt>
      <trkpt lat="42.80046" lon="1.92845">
        <ele>1176</ele>
        <time>2024-10-11T09:09:32Z</time>
      </trkpt>
      <trkpt lat="42.80048" lon="1.92844">
        <ele>1176.2</ele>
        <time>2024-10-11T09:09:33Z</time>
      </trkpt>
      <trkpt lat="42.8005" lon="1.92843">
        <ele>1176.6</ele>
        <time>2024-10-11T09:09:34Z</time>
      </trkpt>
      <trkpt lat="42.80053" lon="1.92843">
        <ele>1176.6</ele>
        <time>2024-10-11T09:09:35Z</time>
      </trkpt>
      <trkpt lat="42.80055" lon="1.92841">
        <ele>1176.6</ele>
        <time>2024-10-11T09:09:36Z</time>
      </trkpt>
      <trkpt lat="42.80058" lon="1.92841">
        <ele>1177.4</ele>
        <time>2024-10-11T09:09:37Z</time>
      </trkpt>
      <trkpt lat="42.8006" lon="1.9284">
        <ele>1177.4</ele>
        <time>2024-10-11T09:09:38Z</time>
      </trkpt>
      <trkpt lat="42.80063" lon="1.92839">
        <ele>1177.2</ele>
        <time>2024-10-11T09:09:39Z</time>
      </trkpt>
      <trkpt lat="42.80065" lon="1.92839">
        <ele>1177.2</ele>
        <time>2024-10-11T09:09:40Z</time>
      </trkpt>
      <trkpt lat="42.80067" lon="1.92838">
        <ele>1177.2</ele>
        <time>2024-10-11T09:09:41Z</time>
      </trkpt>
      <trkpt lat="42.8007" lon="1.92837">
        <ele>1177.4</ele>
        <time>2024-10-11T09:09:42Z</time>
      </trkpt>
      <trkpt lat="42.80072" lon="1.92837">
        <ele>1177.6</ele>
        <time>2024-10-11T09:09:43Z</time>
      </trkpt>
      <trkpt lat="42.80075" lon="1.92836">
        <ele>1177.6</ele>
        <time>2024-10-11T09:09:44Z</time>
      </trkpt>
      <trkpt lat="42.80077" lon="1.92835">
        <ele>1177.6</ele>
        <time>2024-10-11T09:09:45Z</time>
      </trkpt>
      <trkpt lat="42.80079" lon="1.92834">
        <ele>1177.8</ele>
        <time>2024-10-11T09:09:46Z</time>
      </trkpt>
      <trkpt lat="42.80082" lon="1.92833">
        <ele>1178.4</ele>
        <time>2024-10-11T09:09:47Z</time>
      </trkpt>
      <trkpt lat="42.80084" lon="1.92832">
        <ele>1178.4</ele>
        <time>2024-10-11T09:09:48Z</time>
      </trkpt>
      <trkpt lat="42.80086" lon="1.92831">
        <ele>1178.4</ele>
        <time>2024-10-11T09:09:49Z</time>
      </trkpt>
      <trkpt lat="42.80088" lon="1.92831">
        <ele>1178.4</ele>
        <time>2024-10-11T09:09:50Z</time>
      </trkpt>
      <trkpt lat="42.8009" lon="1.9283">
        <ele>1179</ele>
        <time>2024-10-11T09:09:51Z</time>
      </trkpt>
      <trkpt lat="42.80093" lon="1.92829">
        <ele>1179</ele>
        <time>2024-10-11T09:09:52Z</time>
      </trkpt>
      <trkpt lat="42.80095" lon="1.92829">
        <ele>1179</ele>
        <time>2024-10-11T09:09:53Z</time>
      </trkpt>
      <trkpt lat="42.80098" lon="1.92828">
        <ele>1179</ele>
        <time>2024-10-11T09:09:54Z</time>
      </trkpt>
      <trkpt lat="42.801" lon="1.92827">
        <ele>1179</ele>
        <time>2024-10-11T09:09:55Z</time>
      </trkpt>
      <trkpt lat="42.80102" lon="1.92827">
        <ele>1179.4</ele>
        <time>2024-10-11T09:09:56Z</time>
      </trkpt>
      <trkpt lat="42.80104" lon="1.92826">
        <ele>1179.4</ele>
        <time>2024-10-11T09:09:57Z</time>
      </trkpt>
      <trkpt lat="42.80107" lon="1.92825">
        <ele>1179.4</ele>
        <time>2024-10-11T09:09:58Z</time>
      </trkpt>
      <trkpt lat="42.8011" lon="1.92825">
        <ele>1180</ele>
        <time>2024-10-11T09:09:59Z</time>
      </trkpt>
      <trkpt lat="42.80112" lon="1.92824">
        <ele>1180.2</ele>
        <time>2024-10-11T09:10:00Z</time>
      </trkpt>
      <trkpt lat="42.80115" lon="1.92823">
        <ele>1180.2</ele>
        <time>2024-10-11T09:10:01Z</time>
      </trkpt>
      <trkpt lat="42.80117" lon="1.92822">
        <ele>1180.2</ele>
        <time>2024-10-11T09:10:02Z</time>
      </trkpt>
      <trkpt lat="42.8012" lon="1.92821">
        <ele>1180.2</ele>
        <time>2024-10-11T09:10:03Z</time>
      </trkpt>
      <trkpt lat="42.80122" lon="1.92819">
        <ele>1180.2</ele>
        <time>2024-10-11T09:10:04Z</time>
      </trkpt>
      <trkpt lat="42.80125" lon="1.92818">
        <ele>1180.2</ele>
        <time>2024-10-11T09:10:05Z</time>
      </trkpt>
      <trkpt lat="42.80127" lon="1.92817">
        <ele>1180.6</ele>
        <time>2024-10-11T09:10:06Z</time>
      </trkpt>
      <trkpt lat="42.8013" lon="1.92816">
        <ele>1180.6</ele>
        <time>2024-10-11T09:10:07Z</time>
      </trkpt>
      <trkpt lat="42.80133" lon="1.92814">
        <ele>1180.6</ele>
        <time>2024-10-11T09:10:08Z</time>
      </trkpt>
      <trkpt lat="42.80135" lon="1.92813">
        <ele>1181</ele>
        <time>2024-10-11T09:10:09Z</time>
      </trkpt>
      <trkpt lat="42.80138" lon="1.92811">
        <ele>1181.2</ele>
        <time>2024-10-11T09:10:10Z</time>
      </trkpt>
      <trkpt lat="42.80141" lon="1.9281">
        <ele>1181.2</ele>
        <time>2024-10-11T09:10:11Z</time>
      </trkpt>
      <trkpt lat="42.80143" lon="1.92808">
        <ele>1181.2</ele>
        <time>2024-10-11T09:10:12Z</time>
      </trkpt>
      <trkpt lat="42.80146" lon="1.92807">
        <ele>1181.2</ele>
        <time>2024-10-11T09:10:13Z</time>
      </trkpt>
      <trkpt lat="42.80148" lon="1.92805">
        <ele>1182</ele>
        <time>2024-10-11T09:10:14Z</time>
      </trkpt>
      <trkpt lat="42.80151" lon="1.92803">
        <ele>1182</ele>
        <time>2024-10-11T09:10:15Z</time>
      </trkpt>
      <trkpt lat="42.80153" lon="1.92801">
        <ele>1182</ele>
        <time>2024-10-11T09:10:16Z</time>
      </trkpt>
      <trkpt lat="42.80155" lon="1.92799">
        <ele>1182</ele>
        <time>2024-10-11T09:10:17Z</time>
      </trkpt>
      <trkpt lat="42.80157" lon="1.92797">
        <ele>1182.4</ele>
        <time>2024-10-11T09:10:18Z</time>
      </trkpt>
      <trkpt lat="42.8016" lon="1.92796">
        <ele>1183</ele>
        <time>2024-10-11T09:10:19Z</time>
      </trkpt>
      <trkpt lat="42.80162" lon="1.92794">
        <ele>1183</ele>
        <time>2024-10-11T09:10:20Z</time>
      </trkpt>
      <trkpt lat="42.80164" lon="1.92791">
        <ele>1183</ele>
        <time>2024-10-11T09:10:21Z</time>
      </trkpt>
      <trkpt lat="42.80166" lon="1.92789">
        <ele>1183</ele>
        <time>2024-10-11T09:10:22Z</time>
      </trkpt>
      <trkpt lat="42.80168" lon="1.92787">
        <ele>1183.4</ele>
        <time>2024-10-11T09:10:23Z</time>
      </trkpt>
      <trkpt lat="42.80171" lon="1.92784">
        <ele>1183.4</ele>
        <time>2024-10-11T09:10:24Z</time>
      </trkpt>
      <trkpt lat="42.80173" lon="1.92781">
        <ele>1183.4</ele>
        <time>2024-10-11T09:10:25Z</time>
      </trkpt>
      <trkpt lat="42.80175" lon="1.92778">
        <ele>1183.8</ele>
        <time>2024-10-11T09:10:26Z</time>
      </trkpt>
      <trkpt lat="42.80177" lon="1.92776">
        <ele>1183.6</ele>
        <time>2024-10-11T09:10:27Z</time>
      </trkpt>
      <trkpt lat="42.80179" lon="1.92772">
        <ele>1183.6</ele>
        <time>2024-10-11T09:10:28Z</time>
      </trkpt>
      <trkpt lat="42.80181" lon="1.92769">
        <ele>1183.6</ele>
        <time>2024-10-11T09:10:29Z</time>
      </trkpt>
      <trkpt lat="42.80183" lon="1.92766">
        <ele>1183.6</ele>
        <time>2024-10-11T09:10:30Z</time>
      </trkpt>
      <trkpt lat="42.80185" lon="1.92763">
        <ele>1184.4</ele>
        <time>2024-10-11T09:10:31Z</time>
      </trkpt>
      <trkpt lat="42.80187" lon="1.9276">
        <ele>1184.6</ele>
        <time>2024-10-11T09:10:32Z</time>
      </trkpt>
      <trkpt lat="42.8019" lon="1.92757">
        <ele>1184.6</ele>
        <time>2024-10-11T09:10:33Z</time>
      </trkpt>
      <trkpt lat="42.80192" lon="1.92754">
        <ele>1184.6</ele>
        <time>2024-10-11T09:10:34Z</time>
      </trkpt>
      <trkpt lat="42.80194" lon="1.9275">
        <ele>1184.6</ele>
        <time>2024-10-11T09:10:35Z</time>
      </trkpt>
      <trkpt lat="42.80196" lon="1.92747">
        <ele>1185.4</ele>
        <time>2024-10-11T09:10:36Z</time>
      </trkpt>
      <trkpt lat="42.80198" lon="1.92743">
        <ele>1185.4</ele>
        <time>2024-10-11T09:10:37Z</time>
      </trkpt>
      <trkpt lat="42.802" lon="1.9274">
        <ele>1185.4</ele>
        <time>2024-10-11T09:10:38Z</time>
      </trkpt>
      <trkpt lat="42.80202" lon="1.92736">
        <ele>1185.4</ele>
        <time>2024-10-11T09:10:39Z</time>
      </trkpt>
      <trkpt lat="42.80204" lon="1.92732">
        <ele>1185.4</ele>
        <time>2024-10-11T09:10:40Z</time>
      </trkpt>
      <trkpt lat="42.80205" lon="1.92728">
        <ele>1185.8</ele>
        <time>2024-10-11T09:10:41Z</time>
      </trkpt>
      <trkpt lat="42.80207" lon="1.92724">
        <ele>1185.8</ele>
        <time>2024-10-11T09:10:42Z</time>
      </trkpt>
      <trkpt lat="42.80209" lon="1.92721">
        <ele>1185.8</ele>
        <time>2024-10-11T09:10:43Z</time>
      </trkpt>
      <trkpt lat="42.80211" lon="1.92717">
        <ele>1185.8</ele>
        <time>2024-10-11T09:10:44Z</time>
      </trkpt>
      <trkpt lat="42.80212" lon="1.92713">
        <ele>1186.6</ele>
        <time>2024-10-11T09:10:45Z</time>
      </trkpt>
      <trkpt lat="42.80214" lon="1.92709">
        <ele>1186.6</ele>
        <time>2024-10-11T09:10:46Z</time>
      </trkpt>
      <trkpt lat="42.80215" lon="1.92706">
        <ele>1186.6</ele>
        <time>2024-10-11T09:10:47Z</time>
      </trkpt>
      <trkpt lat="42.80217" lon="1.92703">
        <ele>1186.6</ele>
        <time>2024-10-11T09:10:48Z</time>
      </trkpt>
      <trkpt lat="42.80219" lon="1.927">
        <ele>1186.6</ele>
        <time>2024-10-11T09:10:49Z</time>
      </trkpt>
      <trkpt lat="42.80221" lon="1.92697">
        <ele>1186.8</ele>
        <time>2024-10-11T09:10:50Z</time>
      </trkpt>
      <trkpt lat="42.80222" lon="1.92693">
        <ele>1186.8</ele>
        <time>2024-10-11T09:10:51Z</time>
      </trkpt>
      <trkpt lat="42.80224" lon="1.9269">
        <ele>1186.8</ele>
        <time>2024-10-11T09:10:52Z</time>
      </trkpt>
      <trkpt lat="42.80226" lon="1.92686">
        <ele>1186.8</ele>
        <time>2024-10-11T09:10:53Z</time>
      </trkpt>
      <trkpt lat="42.80227" lon="1.92682">
        <ele>1186.8</ele>
        <time>2024-10-11T09:10:54Z</time>
      </trkpt>
      <trkpt lat="42.80228" lon="1.92678">
        <ele>1187.4</ele>
        <time>2024-10-11T09:10:55Z</time>
      </trkpt>
      <trkpt lat="42.8023" lon="1.92675">
        <ele>1187.4</ele>
        <time>2024-10-11T09:10:56Z</time>
      </trkpt>
      <trkpt lat="42.80232" lon="1.92671">
        <ele>1187.4</ele>
        <time>2024-10-11T09:10:57Z</time>
      </trkpt>
      <trkpt lat="42.80233" lon="1.92667">
        <ele>1187.4</ele>
        <time>2024-10-11T09:10:58Z</time>
      </trkpt>
      <trkpt lat="42.80235" lon="1.92664">
        <ele>1187.6</ele>
        <time>2024-10-11T09:10:59Z</time>
      </trkpt>
      <trkpt lat="42.80236" lon="1.9266">
        <ele>1187.6</ele>
        <time>2024-10-11T09:11:00Z</time>
      </trkpt>
      <trkpt lat="42.80238" lon="1.92657">
        <ele>1187.6</ele>
        <time>2024-10-11T09:11:01Z</time>
      </trkpt>
      <trkpt lat="42.8024" lon="1.92653">
        <ele>1188.2</ele>
        <time>2024-10-11T09:11:02Z</time>
      </trkpt>
      <trkpt lat="42.80241" lon="1.92649">
        <ele>1188.2</ele>
        <time>2024-10-11T09:11:03Z</time>
      </trkpt>
      <trkpt lat="42.80242" lon="1.92645">
        <ele>1188</ele>
        <time>2024-10-11T09:11:04Z</time>
      </trkpt>
      <trkpt lat="42.80244" lon="1.92641">
        <ele>1188</ele>
        <time>2024-10-11T09:11:05Z</time>
      </trkpt>
      <trkpt lat="42.80245" lon="1.92638">
        <ele>1188</ele>
        <time>2024-10-11T09:11:06Z</time>
      </trkpt>
      <trkpt lat="42.80246" lon="1.92633">
        <ele>1189</ele>
        <time>2024-10-11T09:11:07Z</time>
      </trkpt>
      <trkpt lat="42.80247" lon="1.92629">
        <ele>1189.4</ele>
        <time>2024-10-11T09:11:08Z</time>
      </trkpt>
      <trkpt lat="42.80248" lon="1.92625">
        <ele>1189.4</ele>
        <time>2024-10-11T09:11:09Z</time>
      </trkpt>
      <trkpt lat="42.80249" lon="1.92621">
        <ele>1189.4</ele>
        <time>2024-10-11T09:11:10Z</time>
      </trkpt>
      <trkpt lat="42.8025" lon="1.92617">
        <ele>1190.2</ele>
        <time>2024-10-11T09:11:11Z</time>
      </trkpt>
      <trkpt lat="42.8025" lon="1.92613">
        <ele>1189.8</ele>
        <time>2024-10-11T09:11:12Z</time>
      </trkpt>
      <trkpt lat="42.8025" lon="1.92609">
        <ele>1189.8</ele>
        <time>2024-10-11T09:11:13Z</time>
      </trkpt>
      <trkpt lat="42.80251" lon="1.92604">
        <ele>1189.8</ele>
        <time>2024-10-11T09:11:14Z</time>
      </trkpt>
      <trkpt lat="42.80252" lon="1.926">
        <ele>1189.8</ele>
        <time>2024-10-11T09:11:15Z</time>
      </trkpt>
      <trkpt lat="42.80252" lon="1.92596">
        <ele>1190.4</ele>
        <time>2024-10-11T09:11:16Z</time>
      </trkpt>
      <trkpt lat="42.80253" lon="1.92592">
        <ele>1190.8</ele>
        <time>2024-10-11T09:11:17Z</time>
      </trkpt>
      <trkpt lat="42.80253" lon="1.92588">
        <ele>1190.8</ele>
        <time>2024-10-11T09:11:18Z</time>
      </trkpt>
      <trkpt lat="42.80252" lon="1.92585">
        <ele>1190.8</ele>
        <time>2024-10-11T09:11:19Z</time>
      </trkpt>
      <trkpt lat="42.80253" lon="1.9258">
        <ele>1191.4</ele>
        <time>2024-10-11T09:11:20Z</time>
      </trkpt>
      <trkpt lat="42.80253" lon="1.92576">
        <ele>1191.4</ele>
        <time>2024-10-11T09:11:21Z</time>
      </trkpt>
      <trkpt lat="42.80253" lon="1.92572">
        <ele>1191.4</ele>
        <time>2024-10-11T09:11:22Z</time>
      </trkpt>
      <trkpt lat="42.80253" lon="1.92567">
        <ele>1191.4</ele>
        <time>2024-10-11T09:11:23Z</time>
      </trkpt>
      <trkpt lat="42.80254" lon="1.92563">
        <ele>1192</ele>
        <time>2024-10-11T09:11:24Z</time>
      </trkpt>
      <trkpt lat="42.80254" lon="1.92558">
        <ele>1192</ele>
        <time>2024-10-11T09:11:25Z</time>
      </trkpt>
      <trkpt lat="42.80255" lon="1.92553">
        <ele>1192.2</ele>
        <time>2024-10-11T09:11:26Z</time>
      </trkpt>
      <trkpt lat="42.80255" lon="1.92549">
        <ele>1192.2</ele>
        <time>2024-10-11T09:11:27Z</time>
      </trkpt>
      <trkpt lat="42.80256" lon="1.92545">
        <ele>1192.2</ele>
        <time>2024-10-11T09:11:28Z</time>
      </trkpt>
      <trkpt lat="42.80257" lon="1.92541">
        <ele>1192.2</ele>
        <time>2024-10-11T09:11:29Z</time>
      </trkpt>
      <trkpt lat="42.80258" lon="1.92536">
        <ele>1192.8</ele>
        <time>2024-10-11T09:11:30Z</time>
      </trkpt>
      <trkpt lat="42.80259" lon="1.92533">
        <ele>1192.8</ele>
        <time>2024-10-11T09:11:31Z</time>
      </trkpt>
      <trkpt lat="42.8026" lon="1.92528">
        <ele>1192.8</ele>
        <time>2024-10-11T09:11:32Z</time>
      </trkpt>
      <trkpt lat="42.80262" lon="1.92524">
        <ele>1192.8</ele>
        <time>2024-10-11T09:11:33Z</time>
      </trkpt>
      <trkpt lat="42.80264" lon="1.9252">
        <ele>1192.8</ele>
        <time>2024-10-11T09:11:34Z</time>
      </trkpt>
      <trkpt lat="42.80265" lon="1.92517">
        <ele>1192.8</ele>
        <time>2024-10-11T09:11:35Z</time>
      </trkpt>
      <trkpt lat="42.80267" lon="1.92514">
        <ele>1193.4</ele>
        <time>2024-10-11T09:11:36Z</time>
      </trkpt>
      <trkpt lat="42.8027" lon="1.92511">
        <ele>1193.4</ele>
        <time>2024-10-11T09:11:37Z</time>
      </trkpt>
      <trkpt lat="42.80273" lon="1.92508">
        <ele>1193.4</ele>
        <time>2024-10-11T09:11:38Z</time>
      </trkpt>
      <trkpt lat="42.80276" lon="1.92506">
        <ele>1193.8</ele>
        <time>2024-10-11T09:11:39Z</time>
      </trkpt>
      <trkpt lat="42.80279" lon="1.92504">
        <ele>1193.6</ele>
        <time>2024-10-11T09:11:40Z</time>
      </trkpt>
      <trkpt lat="42.80282" lon="1.92503">
        <ele>1193.6</ele>
        <time>2024-10-11T09:11:41Z</time>
      </trkpt>
      <trkpt lat="42.80285" lon="1.92502">
        <ele>1193.6</ele>
        <time>2024-10-11T09:11:42Z</time>
      </trkpt>
      <trkpt lat="42.80288" lon="1.92501">
        <ele>1193.6</ele>
        <time>2024-10-11T09:11:43Z</time>
      </trkpt>
      <trkpt lat="42.80291" lon="1.925">
        <ele>1194.6</ele>
        <time>2024-10-11T09:11:44Z</time>
      </trkpt>
      <trkpt lat="42.80294" lon="1.92501">
        <ele>1194.6</ele>
        <time>2024-10-11T09:11:45Z</time>
      </trkpt>
      <trkpt lat="42.80298" lon="1.92501">
        <ele>1194.6</ele>
        <time>2024-10-11T09:11:46Z</time>
      </trkpt>
      <trkpt lat="42.80301" lon="1.92502">
        <ele>1195</ele>
        <time>2024-10-11T09:11:47Z</time>
      </trkpt>
      <trkpt lat="42.80304" lon="1.92503">
        <ele>1195</ele>
        <time>2024-10-11T09:11:48Z</time>
      </trkpt>
      <trkpt lat="42.80306" lon="1.92504">
        <ele>1195</ele>
        <time>2024-10-11T09:11:49Z</time>
      </trkpt>
      <trkpt lat="42.80309" lon="1.92506">
        <ele>1195</ele>
        <time>2024-10-11T09:11:50Z</time>
      </trkpt>
      <trkpt lat="42.80311" lon="1.92508">
        <ele>1195</ele>
        <time>2024-10-11T09:11:51Z</time>
      </trkpt>
      <trkpt lat="42.80314" lon="1.92509">
        <ele>1195.4</ele>
        <time>2024-10-11T09:11:52Z</time>
      </trkpt>
      <trkpt lat="42.80317" lon="1.92511">
        <ele>1195.4</ele>
        <time>2024-10-11T09:11:53Z</time>
      </trkpt>
      <trkpt lat="42.8032" lon="1.92513">
        <ele>1196</ele>
        <time>2024-10-11T09:11:54Z</time>
      </trkpt>
      <trkpt lat="42.80323" lon="1.92514">
        <ele>1196</ele>
        <time>2024-10-11T09:11:55Z</time>
      </trkpt>
      <trkpt lat="42.80326" lon="1.92516">
        <ele>1196</ele>
        <time>2024-10-11T09:11:56Z</time>
      </trkpt>
      <trkpt lat="42.80328" lon="1.92517">
        <ele>1195.8</ele>
        <time>2024-10-11T09:11:57Z</time>
      </trkpt>
      <trkpt lat="42.80332" lon="1.92518">
        <ele>1195.8</ele>
        <time>2024-10-11T09:11:58Z</time>
      </trkpt>
      <trkpt lat="42.80335" lon="1.92518">
        <ele>1195.8</ele>
        <time>2024-10-11T09:11:59Z</time>
      </trkpt>
      <trkpt lat="42.80337" lon="1.92518">
        <ele>1195.8</ele>
        <time>2024-10-11T09:12:00Z</time>
      </trkpt>
      <trkpt lat="42.8034" lon="1.92517">
        <ele>1195.8</ele>
        <time>2024-10-11T09:12:01Z</time>
      </trkpt>
      <trkpt lat="42.80344" lon="1.92516">
        <ele>1197</ele>
        <time>2024-10-11T09:12:02Z</time>
      </trkpt>
      <trkpt lat="42.80347" lon="1.92514">
        <ele>1197</ele>
        <time>2024-10-11T09:12:03Z</time>
      </trkpt>
      <trkpt lat="42.80349" lon="1.92512">
        <ele>1197</ele>
        <time>2024-10-11T09:12:04Z</time>
      </trkpt>
      <trkpt lat="42.80352" lon="1.9251">
        <ele>1197.4</ele>
        <time>2024-10-11T09:12:05Z</time>
      </trkpt>
      <trkpt lat="42.80354" lon="1.92508">
        <ele>1197.8</ele>
        <time>2024-10-11T09:12:06Z</time>
      </trkpt>
      <trkpt lat="42.80356" lon="1.92505">
        <ele>1197.8</ele>
        <time>2024-10-11T09:12:07Z</time>
      </trkpt>
      <trkpt lat="42.80358" lon="1.92501">
        <ele>1197.8</ele>
        <time>2024-10-11T09:12:08Z</time>
      </trkpt>
      <trkpt lat="42.80358" lon="1.92499">
        <ele>1198</ele>
        <time>2024-10-11T09:12:09Z</time>
      </trkpt>
      <trkpt lat="42.80359" lon="1.92496">
        <ele>1198</ele>
        <time>2024-10-11T09:12:10Z</time>
      </trkpt>
      <trkpt lat="42.80359" lon="1.92493">
        <ele>1198.6</ele>
        <time>2024-10-11T09:12:11Z</time>
      </trkpt>
      <trkpt lat="42.8036" lon="1.9249">
        <ele>1198.6</ele>
        <time>2024-10-11T09:12:12Z</time>
      </trkpt>
      <trkpt lat="42.8036" lon="1.92487">
        <ele>1198.6</ele>
        <time>2024-10-11T09:12:13Z</time>
      </trkpt>
      <trkpt lat="42.80359" lon="1.92483">
        <ele>1199.2</ele>
        <time>2024-10-11T09:12:14Z</time>
      </trkpt>
      <trkpt lat="42.80358" lon="1.9248">
        <ele>1199.4</ele>
        <time>2024-10-11T09:12:15Z</time>
      </trkpt>
      <trkpt lat="42.80357" lon="1.92477">
        <ele>1199.4</ele>
        <time>2024-10-11T09:12:16Z</time>
      </trkpt>
      <trkpt lat="42.80356" lon="1.92474">
        <ele>1199.4</ele>
        <time>2024-10-11T09:12:17Z</time>
      </trkpt>
      <trkpt lat="42.80355" lon="1.92471">
        <ele>1199.4</ele>
        <time>2024-10-11T09:12:18Z</time>
      </trkpt>
      <trkpt lat="42.80354" lon="1.92468">
        <ele>1199.6</ele>
        <time>2024-10-11T09:12:19Z</time>
      </trkpt>
      <trkpt lat="42.80352" lon="1.92465">
        <ele>1199.6</ele>
        <time>2024-10-11T09:12:20Z</time>
      </trkpt>
      <trkpt lat="42.80351" lon="1.92463">
        <ele>1199.8</ele>
        <time>2024-10-11T09:12:21Z</time>
      </trkpt>
      <trkpt lat="42.80349" lon="1.9246">
        <ele>1199.8</ele>
        <time>2024-10-11T09:12:22Z</time>
      </trkpt>
      <trkpt lat="42.80347" lon="1.92458">
        <ele>1199.8</ele>
        <time>2024-10-11T09:12:23Z</time>
      </trkpt>
      <trkpt lat="42.80345" lon="1.92456">
        <ele>1199.8</ele>
        <time>2024-10-11T09:12:24Z</time>
      </trkpt>
      <trkpt lat="42.80343" lon="1.92455">
        <ele>1200.4</ele>
        <time>2024-10-11T09:12:25Z</time>
      </trkpt>
      <trkpt lat="42.80342" lon="1.92453">
        <ele>1200.4</ele>
        <time>2024-10-11T09:12:26Z</time>
      </trkpt>
      <trkpt lat="42.8034" lon="1.92451">
        <ele>1200.4</ele>
        <time>2024-10-11T09:12:27Z</time>
      </trkpt>
      <trkpt lat="42.80337" lon="1.9245">
        <ele>1200.6</ele>
        <time>2024-10-11T09:12:28Z</time>
      </trkpt>
      <trkpt lat="42.80335" lon="1.92449">
        <ele>1201.4</ele>
        <time>2024-10-11T09:12:29Z</time>
      </trkpt>
      <trkpt lat="42.80333" lon="1.92447">
        <ele>1201.4</ele>
        <time>2024-10-11T09:12:30Z</time>
      </trkpt>
      <trkpt lat="42.80331" lon="1.92446">
        <ele>1201.4</ele>
        <time>2024-10-11T09:12:31Z</time>
      </trkpt>
      <trkpt lat="42.80328" lon="1.92446">
        <ele>1201.4</ele>
        <time>2024-10-11T09:12:32Z</time>
      </trkpt>
      <trkpt lat="42.80325" lon="1.92445">
        <ele>1202</ele>
        <time>2024-10-11T09:12:33Z</time>
      </trkpt>
      <trkpt lat="42.80323" lon="1.92445">
        <ele>1202</ele>
        <time>2024-10-11T09:12:34Z</time>
      </trkpt>
      <trkpt lat="42.8032" lon="1.92445">
        <ele>1202</ele>
        <time>2024-10-11T09:12:35Z</time>
      </trkpt>
      <trkpt lat="42.80317" lon="1.92445">
        <ele>1202</ele>
        <time>2024-10-11T09:12:36Z</time>
      </trkpt>
      <trkpt lat="42.80315" lon="1.92445">
        <ele>1202.4</ele>
        <time>2024-10-11T09:12:37Z</time>
      </trkpt>
      <trkpt lat="42.80312" lon="1.92445">
        <ele>1202.6</ele>
        <time>2024-10-11T09:12:38Z</time>
      </trkpt>
      <trkpt lat="42.80309" lon="1.92445">
        <ele>1202.6</ele>
        <time>2024-10-11T09:12:39Z</time>
      </trkpt>
      <trkpt lat="42.80307" lon="1.92446">
        <ele>1202.6</ele>
        <time>2024-10-11T09:12:40Z</time>
      </trkpt>
      <trkpt lat="42.80304" lon="1.92446">
        <ele>1202.6</ele>
        <time>2024-10-11T09:12:41Z</time>
      </trkpt>
      <trkpt lat="42.80301" lon="1.92446">
        <ele>1202.6</ele>
        <time>2024-10-11T09:12:42Z</time>
      </trkpt>
      <trkpt lat="42.80299" lon="1.92446">
        <ele>1203</ele>
        <time>2024-10-11T09:12:43Z</time>
      </trkpt>
      <trkpt lat="42.80296" lon="1.92448">
        <ele>1203</ele>
        <time>2024-10-11T09:12:44Z</time>
      </trkpt>
      <trkpt lat="42.80293" lon="1.92448">
        <ele>1203</ele>
        <time>2024-10-11T09:12:45Z</time>
      </trkpt>
      <trkpt lat="42.80291" lon="1.92448">
        <ele>1203.6</ele>
        <time>2024-10-11T09:12:46Z</time>
      </trkpt>
      <trkpt lat="42.80288" lon="1.92449">
        <ele>1203.6</ele>
        <time>2024-10-11T09:12:47Z</time>
      </trkpt>
      <trkpt lat="42.80285" lon="1.92449">
        <ele>1203.6</ele>
        <time>2024-10-11T09:12:48Z</time>
      </trkpt>
      <trkpt lat="42.80283" lon="1.92449">
        <ele>1203.6</ele>
        <time>2024-10-11T09:12:49Z</time>
      </trkpt>
      <trkpt lat="42.8028" lon="1.92449">
        <ele>1203.6</ele>
        <time>2024-10-11T09:12:50Z</time>
      </trkpt>
      <trkpt lat="42.80278" lon="1.9245">
        <ele>1204</ele>
        <time>2024-10-11T09:12:51Z</time>
      </trkpt>
      <trkpt lat="42.80275" lon="1.9245">
        <ele>1204</ele>
        <time>2024-10-11T09:12:52Z</time>
      </trkpt>
      <trkpt lat="42.80272" lon="1.9245">
        <ele>1204</ele>
        <time>2024-10-11T09:12:53Z</time>
      </trkpt>
      <trkpt lat="42.8027" lon="1.92451">
        <ele>1204</ele>
        <time>2024-10-11T09:12:54Z</time>
      </trkpt>
      <trkpt lat="42.80267" lon="1.92452">
        <ele>1205</ele>
        <time>2024-10-11T09:12:55Z</time>
      </trkpt>
      <trkpt lat="42.80265" lon="1.92453">
        <ele>1205</ele>
        <time>2024-10-11T09:12:56Z</time>
      </trkpt>
      <trkpt lat="42.80262" lon="1.92454">
        <ele>1205</ele>
        <time>2024-10-11T09:12:57Z</time>
      </trkpt>
      <trkpt lat="42.80259" lon="1.92455">
        <ele>1205</ele>
        <time>2024-10-11T09:12:58Z</time>
      </trkpt>
      <trkpt lat="42.80257" lon="1.92457">
        <ele>1205</ele>
        <time>2024-10-11T09:12:59Z</time>
      </trkpt>
      <trkpt lat="42.80255" lon="1.92458">
        <ele>1205.2</ele>
        <time>2024-10-11T09:13:00Z</time>
      </trkpt>
      <trkpt lat="42.80252" lon="1.92459">
        <ele>1205.8</ele>
        <time>2024-10-11T09:13:01Z</time>
      </trkpt>
      <trkpt lat="42.8025" lon="1.92461">
        <ele>1205.8</ele>
        <time>2024-10-11T09:13:02Z</time>
      </trkpt>
      <trkpt lat="42.80247" lon="1.92462">
        <ele>1205.8</ele>
        <time>2024-10-11T09:13:03Z</time>
      </trkpt>
      <trkpt lat="42.80245" lon="1.92464">
        <ele>1205.8</ele>
        <time>2024-10-11T09:13:04Z</time>
      </trkpt>
      <trkpt lat="42.80243" lon="1.92466">
        <ele>1206.6</ele>
        <time>2024-10-11T09:13:05Z</time>
      </trkpt>
      <trkpt lat="42.80241" lon="1.92468">
        <ele>1206.6</ele>
        <time>2024-10-11T09:13:06Z</time>
      </trkpt>
      <trkpt lat="42.80238" lon="1.9247">
        <ele>1206.6</ele>
        <time>2024-10-11T09:13:07Z</time>
      </trkpt>
      <trkpt lat="42.80236" lon="1.92472">
        <ele>1207</ele>
        <time>2024-10-11T09:13:08Z</time>
      </trkpt>
      <trkpt lat="42.80234" lon="1.92474">
        <ele>1207</ele>
        <time>2024-10-11T09:13:09Z</time>
      </trkpt>
      <trkpt lat="42.80232" lon="1.92477">
        <ele>1206.8</ele>
        <time>2024-10-11T09:13:10Z</time>
      </trkpt>
      <trkpt lat="42.8023" lon="1.92479">
        <ele>1206.8</ele>
        <time>2024-10-11T09:13:11Z</time>
      </trkpt>
      <trkpt lat="42.80227" lon="1.92481">
        <ele>1206.8</ele>
        <time>2024-10-11T09:13:12Z</time>
      </trkpt>
      <trkpt lat="42.80226" lon="1.92484">
        <ele>1207.8</ele>
        <time>2024-10-11T09:13:13Z</time>
      </trkpt>
      <trkpt lat="42.80224" lon="1.92487">
        <ele>1207.6</ele>
        <time>2024-10-11T09:13:14Z</time>
      </trkpt>
      <trkpt lat="42.80222" lon="1.9249">
        <ele>1207.6</ele>
        <time>2024-10-11T09:13:15Z</time>
      </trkpt>
      <trkpt lat="42.80221" lon="1.92492">
        <ele>1207.6</ele>
        <time>2024-10-11T09:13:16Z</time>
      </trkpt>
      <trkpt lat="42.8022" lon="1.92494">
        <ele>1208.4</ele>
        <time>2024-10-11T09:13:17Z</time>
      </trkpt>
      <trkpt lat="42.80218" lon="1.92497">
        <ele>1208.4</ele>
        <time>2024-10-11T09:13:18Z</time>
      </trkpt>
      <trkpt lat="42.80217" lon="1.925">
        <ele>1208.4</ele>
        <time>2024-10-11T09:13:19Z</time>
      </trkpt>
      <trkpt lat="42.80216" lon="1.92504">
        <ele>1208.4</ele>
        <time>2024-10-11T09:13:20Z</time>
      </trkpt>
      <trkpt lat="42.80215" lon="1.92507">
        <ele>1208.4</ele>
        <time>2024-10-11T09:13:21Z</time>
      </trkpt>
      <trkpt lat="42.80214" lon="1.92511">
        <ele>1209.2</ele>
        <time>2024-10-11T09:13:22Z</time>
      </trkpt>
      <trkpt lat="42.80213" lon="1.92515">
        <ele>1209.6</ele>
        <time>2024-10-11T09:13:23Z</time>
      </trkpt>
      <trkpt lat="42.80211" lon="1.92519">
        <ele>1209.6</ele>
        <time>2024-10-11T09:13:24Z</time>
      </trkpt>
      <trkpt lat="42.80211" lon="1.92523">
        <ele>1209.6</ele>
        <time>2024-10-11T09:13:25Z</time>
      </trkpt>
      <trkpt lat="42.80211" lon="1.92526">
        <ele>1208.8</ele>
        <time>2024-10-11T09:13:26Z</time>
      </trkpt>
      <trkpt lat="42.8021" lon="1.9253">
        <ele>1210</ele>
        <time>2024-10-11T09:13:27Z</time>
      </trkpt>
      <trkpt lat="42.8021" lon="1.92533">
        <ele>1210</ele>
        <time>2024-10-11T09:13:28Z</time>
      </trkpt>
      <trkpt lat="42.80209" lon="1.92537">
        <ele>1210</ele>
        <time>2024-10-11T09:13:29Z</time>
      </trkpt>
      <trkpt lat="42.80208" lon="1.9254">
        <ele>1210</ele>
        <time>2024-10-11T09:13:30Z</time>
      </trkpt>
      <trkpt lat="42.80206" lon="1.92546">
        <ele>1210.8</ele>
        <time>2024-10-11T09:13:31Z</time>
      </trkpt>
      <trkpt lat="42.80206" lon="1.92547">
        <ele>1210.8</ele>
        <time>2024-10-11T09:13:32Z</time>
      </trkpt>
      <trkpt lat="42.80205" lon="1.92551">
        <ele>1210.8</ele>
        <time>2024-10-11T09:13:33Z</time>
      </trkpt>
      <trkpt lat="42.80204" lon="1.92555">
        <ele>1210.8</ele>
        <time>2024-10-11T09:13:34Z</time>
      </trkpt>
      <trkpt lat="42.80204" lon="1.92558">
        <ele>1210.8</ele>
        <time>2024-10-11T09:13:35Z</time>
      </trkpt>
      <trkpt lat="42.80203" lon="1.92561">
        <ele>1211.4</ele>
        <time>2024-10-11T09:13:36Z</time>
      </trkpt>
      <trkpt lat="42.80202" lon="1.92565">
        <ele>1211.4</ele>
        <time>2024-10-11T09:13:37Z</time>
      </trkpt>
      <trkpt lat="42.80201" lon="1.92568">
        <ele>1211.4</ele>
        <time>2024-10-11T09:13:38Z</time>
      </trkpt>
      <trkpt lat="42.802" lon="1.92572">
        <ele>1212.2</ele>
        <time>2024-10-11T09:13:39Z</time>
      </trkpt>
      <trkpt lat="42.80199" lon="1.92575">
        <ele>1212</ele>
        <time>2024-10-11T09:13:40Z</time>
      </trkpt>
      <trkpt lat="42.80199" lon="1.92579">
        <ele>1212</ele>
        <time>2024-10-11T09:13:41Z</time>
      </trkpt>
      <trkpt lat="42.80198" lon="1.92582">
        <ele>1212</ele>
        <time>2024-10-11T09:13:42Z</time>
      </trkpt>
      <trkpt lat="42.80197" lon="1.92586">
        <ele>1212</ele>
        <time>2024-10-11T09:13:43Z</time>
      </trkpt>
      <trkpt lat="42.80196" lon="1.92589">
        <ele>1212</ele>
        <time>2024-10-11T09:13:44Z</time>
      </trkpt>
      <trkpt lat="42.80194" lon="1.92591">
        <ele>1212.4</ele>
        <time>2024-10-11T09:13:45Z</time>
      </trkpt>
      <trkpt lat="42.80193" lon="1.92594">
        <ele>1212.6</ele>
        <time>2024-10-11T09:13:46Z</time>
      </trkpt>
      <trkpt lat="42.80193" lon="1.92597">
        <ele>1212.6</ele>
        <time>2024-10-11T09:13:47Z</time>
      </trkpt>
      <trkpt lat="42.80192" lon="1.92599">
        <ele>1212.6</ele>
        <time>2024-10-11T09:13:48Z</time>
      </trkpt>
      <trkpt lat="42.80191" lon="1.92603">
        <ele>1212.6</ele>
        <time>2024-10-11T09:13:49Z</time>
      </trkpt>
      <trkpt lat="42.80191" lon="1.92606">
        <ele>1213.2</ele>
        <time>2024-10-11T09:13:50Z</time>
      </trkpt>
      <trkpt lat="42.8019" lon="1.92609">
        <ele>1213.2</ele>
        <time>2024-10-11T09:13:51Z</time>
      </trkpt>
      <trkpt lat="42.80189" lon="1.92613">
        <ele>1213.2</ele>
        <time>2024-10-11T09:13:52Z</time>
      </trkpt>
      <trkpt lat="42.80188" lon="1.92617">
        <ele>1213.2</ele>
        <time>2024-10-11T09:13:53Z</time>
      </trkpt>
      <trkpt lat="42.80187" lon="1.9262">
        <ele>1213.6</ele>
        <time>2024-10-11T09:13:54Z</time>
      </trkpt>
      <trkpt lat="42.80186" lon="1.92624">
        <ele>1213.6</ele>
        <time>2024-10-11T09:13:55Z</time>
      </trkpt>
      <trkpt lat="42.80185" lon="1.92627">
        <ele>1213.6</ele>
        <time>2024-10-11T09:13:56Z</time>
      </trkpt>
      <trkpt lat="42.80184" lon="1.9263">
        <ele>1213.6</ele>
        <time>2024-10-11T09:13:57Z</time>
      </trkpt>
      <trkpt lat="42.80184" lon="1.92634">
        <ele>1213.8</ele>
        <time>2024-10-11T09:13:58Z</time>
      </trkpt>
      <trkpt lat="42.80183" lon="1.92637">
        <ele>1214.4</ele>
        <time>2024-10-11T09:13:59Z</time>
      </trkpt>
      <trkpt lat="42.80182" lon="1.92641">
        <ele>1214.4</ele>
        <time>2024-10-11T09:14:00Z</time>
      </trkpt>
      <trkpt lat="42.80181" lon="1.92644">
        <ele>1214.4</ele>
        <time>2024-10-11T09:14:01Z</time>
      </trkpt>
      <trkpt lat="42.8018" lon="1.92647">
        <ele>1215</ele>
        <time>2024-10-11T09:14:02Z</time>
      </trkpt>
      <trkpt lat="42.8018" lon="1.9265">
        <ele>1215</ele>
        <time>2024-10-11T09:14:03Z</time>
      </trkpt>
      <trkpt lat="42.80179" lon="1.92653">
        <ele>1215</ele>
        <time>2024-10-11T09:14:04Z</time>
      </trkpt>
      <trkpt lat="42.80177" lon="1.92656">
        <ele>1215</ele>
        <time>2024-10-11T09:14:05Z</time>
      </trkpt>
      <trkpt lat="42.80177" lon="1.92659">
        <ele>1215.6</ele>
        <time>2024-10-11T09:14:06Z</time>
      </trkpt>
      <trkpt lat="42.80176" lon="1.92662">
        <ele>1215.6</ele>
        <time>2024-10-11T09:14:07Z</time>
      </trkpt>
      <trkpt lat="42.80175" lon="1.92665">
        <ele>1215.6</ele>
        <time>2024-10-11T09:14:08Z</time>
      </trkpt>
      <trkpt lat="42.80174" lon="1.92668">
        <ele>1215.6</ele>
        <time>2024-10-11T09:14:09Z</time>
      </trkpt>
      <trkpt lat="42.80173" lon="1.92671">
        <ele>1215.6</ele>
        <time>2024-10-11T09:14:10Z</time>
      </trkpt>
      <trkpt lat="42.80172" lon="1.92674">
        <ele>1215.6</ele>
        <time>2024-10-11T09:14:11Z</time>
      </trkpt>
      <trkpt lat="42.80171" lon="1.92677">
        <ele>1217</ele>
        <time>2024-10-11T09:14:12Z</time>
      </trkpt>
      <trkpt lat="42.8017" lon="1.9268">
        <ele>1217</ele>
        <time>2024-10-11T09:14:13Z</time>
      </trkpt>
      <trkpt lat="42.80169" lon="1.92683">
        <ele>1217</ele>
        <time>2024-10-11T09:14:14Z</time>
      </trkpt>
      <trkpt lat="42.80169" lon="1.92686">
        <ele>1216.4</ele>
        <time>2024-10-11T09:14:15Z</time>
      </trkpt>
      <trkpt lat="42.80167" lon="1.92688">
        <ele>1216.8</ele>
        <time>2024-10-11T09:14:16Z</time>
      </trkpt>
      <trkpt lat="42.80165" lon="1.92691">
        <ele>1216.8</ele>
        <time>2024-10-11T09:14:17Z</time>
      </trkpt>
      <trkpt lat="42.80164" lon="1.92694">
        <ele>1216.8</ele>
        <time>2024-10-11T09:14:18Z</time>
      </trkpt>
      <trkpt lat="42.80162" lon="1.92697">
        <ele>1216.8</ele>
        <time>2024-10-11T09:14:19Z</time>
      </trkpt>
      <trkpt lat="42.8016" lon="1.92699">
        <ele>1217.8</ele>
        <time>2024-10-11T09:14:20Z</time>
      </trkpt>
      <trkpt lat="42.80158" lon="1.92701">
        <ele>1217.6</ele>
        <time>2024-10-11T09:14:21Z</time>
      </trkpt>
      <trkpt lat="42.80156" lon="1.92704">
        <ele>1217.6</ele>
        <time>2024-10-11T09:14:22Z</time>
      </trkpt>
      <trkpt lat="42.80155" lon="1.92706">
        <ele>1217.6</ele>
        <time>2024-10-11T09:14:23Z</time>
      </trkpt>
      <trkpt lat="42.80152" lon="1.92708">
        <ele>1218.2</ele>
        <time>2024-10-11T09:14:24Z</time>
      </trkpt>
      <trkpt lat="42.8015" lon="1.9271">
        <ele>1218.4</ele>
        <time>2024-10-11T09:14:25Z</time>
      </trkpt>
      <trkpt lat="42.80148" lon="1.92712">
        <ele>1218.4</ele>
        <time>2024-10-11T09:14:26Z</time>
      </trkpt>
      <trkpt lat="42.80145" lon="1.92714">
        <ele>1218.4</ele>
        <time>2024-10-11T09:14:27Z</time>
      </trkpt>
      <trkpt lat="42.80143" lon="1.92715">
        <ele>1218.4</ele>
        <time>2024-10-11T09:14:28Z</time>
      </trkpt>
      <trkpt lat="42.80141" lon="1.92717">
        <ele>1218.8</ele>
        <time>2024-10-11T09:14:29Z</time>
      </trkpt>
      <trkpt lat="42.80138" lon="1.92718">
        <ele>1218.8</ele>
        <time>2024-10-11T09:14:30Z</time>
      </trkpt>
      <trkpt lat="42.80136" lon="1.9272">
        <ele>1219</ele>
        <time>2024-10-11T09:14:31Z</time>
      </trkpt>
      <trkpt lat="42.80133" lon="1.92721">
        <ele>1219</ele>
        <time>2024-10-11T09:14:32Z</time>
      </trkpt>
      <trkpt lat="42.80131" lon="1.92721">
        <ele>1219</ele>
        <time>2024-10-11T09:14:33Z</time>
      </trkpt>
      <trkpt lat="42.80128" lon="1.92722">
        <ele>1219.2</ele>
        <time>2024-10-11T09:14:34Z</time>
      </trkpt>
      <trkpt lat="42.80126" lon="1.92723">
        <ele>1219.6</ele>
        <time>2024-10-11T09:14:35Z</time>
      </trkpt>
      <trkpt lat="42.80123" lon="1.92724">
        <ele>1219.6</ele>
        <time>2024-10-11T09:14:36Z</time>
      </trkpt>
      <trkpt lat="42.8012" lon="1.92725">
        <ele>1219.6</ele>
        <time>2024-10-11T09:14:37Z</time>
      </trkpt>
      <trkpt lat="42.80118" lon="1.92726">
        <ele>1220.6</ele>
        <time>2024-10-11T09:14:38Z</time>
      </trkpt>
      <trkpt lat="42.80115" lon="1.92726">
        <ele>1220.8</ele>
        <time>2024-10-11T09:14:39Z</time>
      </trkpt>
      <trkpt lat="42.80113" lon="1.92727">
        <ele>1220.8</ele>
        <time>2024-10-11T09:14:40Z</time>
      </trkpt>
      <trkpt lat="42.8011" lon="1.92728">
        <ele>1220.8</ele>
        <time>2024-10-11T09:14:41Z</time>
      </trkpt>
      <trkpt lat="42.80107" lon="1.92728">
        <ele>1220.8</ele>
        <time>2024-10-11T09:14:42Z</time>
      </trkpt>
      <trkpt lat="42.80104" lon="1.92729">
        <ele>1220.8</ele>
        <time>2024-10-11T09:14:43Z</time>
      </trkpt>
      <trkpt lat="42.80102" lon="1.92729">
        <ele>1221.4</ele>
        <time>2024-10-11T09:14:44Z</time>
      </trkpt>
      <trkpt lat="42.80099" lon="1.9273">
        <ele>1221.4</ele>
        <time>2024-10-11T09:14:45Z</time>
      </trkpt>
      <trkpt lat="42.80096" lon="1.92731">
        <ele>1221.4</ele>
        <time>2024-10-11T09:14:46Z</time>
      </trkpt>
      <trkpt lat="42.80093" lon="1.92732">
        <ele>1221.8</ele>
        <time>2024-10-11T09:14:47Z</time>
      </trkpt>
      <trkpt lat="42.80091" lon="1.92732">
        <ele>1221.6</ele>
        <time>2024-10-11T09:14:48Z</time>
      </trkpt>
      <trkpt lat="42.80088" lon="1.92733">
        <ele>1221.6</ele>
        <time>2024-10-11T09:14:49Z</time>
      </trkpt>
      <trkpt lat="42.80085" lon="1.92734">
        <ele>1221.6</ele>
        <time>2024-10-11T09:14:50Z</time>
      </trkpt>
      <trkpt lat="42.80082" lon="1.92734">
        <ele>1221.6</ele>
        <time>2024-10-11T09:14:51Z</time>
      </trkpt>
      <trkpt lat="42.80079" lon="1.92735">
        <ele>1222.4</ele>
        <time>2024-10-11T09:14:52Z</time>
      </trkpt>
      <trkpt lat="42.80077" lon="1.92736">
        <ele>1222.4</ele>
        <time>2024-10-11T09:14:53Z</time>
      </trkpt>
      <trkpt lat="42.80074" lon="1.92736">
        <ele>1222.4</ele>
        <time>2024-10-11T09:14:54Z</time>
      </trkpt>
      <trkpt lat="42.80071" lon="1.92737">
        <ele>1222.4</ele>
        <time>2024-10-11T09:14:55Z</time>
      </trkpt>
      <trkpt lat="42.80069" lon="1.92738">
        <ele>1222.6</ele>
        <time>2024-10-11T09:14:56Z</time>
      </trkpt>
      <trkpt lat="42.80066" lon="1.92738">
        <ele>1222.8</ele>
        <time>2024-10-11T09:14:57Z</time>
      </trkpt>
      <trkpt lat="42.80063" lon="1.92739">
        <ele>1222.8</ele>
        <time>2024-10-11T09:14:58Z</time>
      </trkpt>
      <trkpt lat="42.80061" lon="1.92739">
        <ele>1222.8</ele>
        <time>2024-10-11T09:14:59Z</time>
      </trkpt>
      <trkpt lat="42.80058" lon="1.9274">
        <ele>1223.6</ele>
        <time>2024-10-11T09:15:00Z</time>
      </trkpt>
      <trkpt lat="42.80055" lon="1.9274">
        <ele>1223.8</ele>
        <time>2024-10-11T09:15:01Z</time>
      </trkpt>
      <trkpt lat="42.80053" lon="1.9274">
        <ele>1223.8</ele>
        <time>2024-10-11T09:15:02Z</time>
      </trkpt>
      <trkpt lat="42.8005" lon="1.9274">
        <ele>1223.8</ele>
        <time>2024-10-11T09:15:03Z</time>
      </trkpt>
      <trkpt lat="42.80048" lon="1.9274">
        <ele>1224.2</ele>
        <time>2024-10-11T09:15:04Z</time>
      </trkpt>
      <trkpt lat="42.80045" lon="1.92741">
        <ele>1224.4</ele>
        <time>2024-10-11T09:15:05Z</time>
      </trkpt>
      <trkpt lat="42.80042" lon="1.92741">
        <ele>1224.4</ele>
        <time>2024-10-11T09:15:06Z</time>
      </trkpt>
      <trkpt lat="42.8004" lon="1.92741">
        <ele>1224.4</ele>
        <time>2024-10-11T09:15:07Z</time>
      </trkpt>
      <trkpt lat="42.80037" lon="1.92741">
        <ele>1224.4</ele>
        <time>2024-10-11T09:15:08Z</time>
      </trkpt>
      <trkpt lat="42.80034" lon="1.92741">
        <ele>1225.2</ele>
        <time>2024-10-11T09:15:09Z</time>
      </trkpt>
      <trkpt lat="42.80031" lon="1.92741">
        <ele>1225.2</ele>
        <time>2024-10-11T09:15:10Z</time>
      </trkpt>
      <trkpt lat="42.80028" lon="1.92741">
        <ele>1225.2</ele>
        <time>2024-10-11T09:15:11Z</time>
      </trkpt>
      <trkpt lat="42.80025" lon="1.92741">
        <ele>1225.2</ele>
        <time>2024-10-11T09:15:12Z</time>
      </trkpt>
      <trkpt lat="42.80022" lon="1.92741">
        <ele>1225.2</ele>
        <time>2024-10-11T09:15:13Z</time>
      </trkpt>
      <trkpt lat="42.80019" lon="1.92741">
        <ele>1225.6</ele>
        <time>2024-10-11T09:15:14Z</time>
      </trkpt>
      <trkpt lat="42.80016" lon="1.92741">
        <ele>1226</ele>
        <time>2024-10-11T09:15:15Z</time>
      </trkpt>
      <trkpt lat="42.80013" lon="1.92741">
        <ele>1226</ele>
        <time>2024-10-11T09:15:16Z</time>
      </trkpt>
      <trkpt lat="42.8001" lon="1.9274">
        <ele>1226</ele>
        <time>2024-10-11T09:15:17Z</time>
      </trkpt>
      <trkpt lat="42.80007" lon="1.92739">
        <ele>1226</ele>
        <time>2024-10-11T09:15:18Z</time>
      </trkpt>
      <trkpt lat="42.80005" lon="1.92737">
        <ele>1226</ele>
        <time>2024-10-11T09:15:19Z</time>
      </trkpt>
      <trkpt lat="42.80002" lon="1.92736">
        <ele>1226.4</ele>
        <time>2024-10-11T09:15:20Z</time>
      </trkpt>
      <trkpt lat="42.8" lon="1.92734">
        <ele>1226.4</ele>
        <time>2024-10-11T09:15:21Z</time>
      </trkpt>
      <trkpt lat="42.79998" lon="1.92732">
        <ele>1226.4</ele>
        <time>2024-10-11T09:15:22Z</time>
      </trkpt>
      <trkpt lat="42.79996" lon="1.92732">
        <ele>1226.8</ele>
        <time>2024-10-11T09:15:23Z</time>
      </trkpt>
      <trkpt lat="42.79993" lon="1.9273">
        <ele>1227</ele>
        <time>2024-10-11T09:15:24Z</time>
      </trkpt>
      <trkpt lat="42.79991" lon="1.92728">
        <ele>1227</ele>
        <time>2024-10-11T09:15:25Z</time>
      </trkpt>
      <trkpt lat="42.79989" lon="1.92726">
        <ele>1227</ele>
        <time>2024-10-11T09:15:26Z</time>
      </trkpt>
      <trkpt lat="42.79987" lon="1.92724">
        <ele>1227.8</ele>
        <time>2024-10-11T09:15:27Z</time>
      </trkpt>
      <trkpt lat="42.79985" lon="1.92722">
        <ele>1227.8</ele>
        <time>2024-10-11T09:15:28Z</time>
      </trkpt>
      <trkpt lat="42.79983" lon="1.9272">
        <ele>1227.6</ele>
        <time>2024-10-11T09:15:29Z</time>
      </trkpt>
      <trkpt lat="42.79981" lon="1.92717">
        <ele>1227.6</ele>
        <time>2024-10-11T09:15:30Z</time>
      </trkpt>
      <trkpt lat="42.79979" lon="1.92715">
        <ele>1227.6</ele>
        <time>2024-10-11T09:15:31Z</time>
      </trkpt>
      <trkpt lat="42.79978" lon="1.92713">
        <ele>1228.2</ele>
        <time>2024-10-11T09:15:32Z</time>
      </trkpt>
      <trkpt lat="42.79976" lon="1.92711">
        <ele>1228.4</ele>
        <time>2024-10-11T09:15:33Z</time>
      </trkpt>
      <trkpt lat="42.79973" lon="1.92708">
        <ele>1228.4</ele>
        <time>2024-10-11T09:15:34Z</time>
      </trkpt>
      <trkpt lat="42.79971" lon="1.92706">
        <ele>1228.4</ele>
        <time>2024-10-11T09:15:35Z</time>
      </trkpt>
      <trkpt lat="42.79969" lon="1.92704">
        <ele>1229</ele>
        <time>2024-10-11T09:15:36Z</time>
      </trkpt>
      <trkpt lat="42.79967" lon="1.92701">
        <ele>1229</ele>
        <time>2024-10-11T09:15:37Z</time>
      </trkpt>
      <trkpt lat="42.79965" lon="1.92699">
        <ele>1229.4</ele>
        <time>2024-10-11T09:15:38Z</time>
      </trkpt>
      <trkpt lat="42.79962" lon="1.92696">
        <ele>1229.4</ele>
        <time>2024-10-11T09:15:39Z</time>
      </trkpt>
      <trkpt lat="42.7996" lon="1.92694">
        <ele>1229.4</ele>
        <time>2024-10-11T09:15:40Z</time>
      </trkpt>
      <trkpt lat="42.79958" lon="1.92692">
        <ele>1229.4</ele>
        <time>2024-10-11T09:15:41Z</time>
      </trkpt>
      <trkpt lat="42.79955" lon="1.9269">
        <ele>1230</ele>
        <time>2024-10-11T09:15:42Z</time>
      </trkpt>
      <trkpt lat="42.79953" lon="1.92688">
        <ele>1230</ele>
        <time>2024-10-11T09:15:43Z</time>
      </trkpt>
      <trkpt lat="42.7995" lon="1.92686">
        <ele>1230</ele>
        <time>2024-10-11T09:15:44Z</time>
      </trkpt>
      <trkpt lat="42.79948" lon="1.92684">
        <ele>1230.4</ele>
        <time>2024-10-11T09:15:45Z</time>
      </trkpt>
      <trkpt lat="42.79946" lon="1.92682">
        <ele>1230.6</ele>
        <time>2024-10-11T09:15:46Z</time>
      </trkpt>
      <trkpt lat="42.79943" lon="1.9268">
        <ele>1230.6</ele>
        <time>2024-10-11T09:15:47Z</time>
      </trkpt>
      <trkpt lat="42.79941" lon="1.92678">
        <ele>1230.6</ele>
        <time>2024-10-11T09:15:48Z</time>
      </trkpt>
      <trkpt lat="42.79938" lon="1.92676">
        <ele>1231.4</ele>
        <time>2024-10-11T09:15:49Z</time>
      </trkpt>
      <trkpt lat="42.79936" lon="1.92675">
        <ele>1231.4</ele>
        <time>2024-10-11T09:15:50Z</time>
      </trkpt>
      <trkpt lat="42.79934" lon="1.92673">
        <ele>1231.2</ele>
        <time>2024-10-11T09:15:51Z</time>
      </trkpt>
      <trkpt lat="42.79931" lon="1.92672">
        <ele>1231.2</ele>
        <time>2024-10-11T09:15:52Z</time>
      </trkpt>
      <trkpt lat="42.79929" lon="1.9267">
        <ele>1231.2</ele>
        <time>2024-10-11T09:15:53Z</time>
      </trkpt>
      <trkpt lat="42.79926" lon="1.92668">
        <ele>1231.2</ele>
        <time>2024-10-11T09:15:54Z</time>
      </trkpt>
      <trkpt lat="42.79924" lon="1.92666">
        <ele>1232</ele>
        <time>2024-10-11T09:15:55Z</time>
      </trkpt>
      <trkpt lat="42.79921" lon="1.92665">
        <ele>1232.2</ele>
        <time>2024-10-11T09:15:56Z</time>
      </trkpt>
      <trkpt lat="42.79918" lon="1.92663">
        <ele>1232.2</ele>
        <time>2024-10-11T09:15:57Z</time>
      </trkpt>
      <trkpt lat="42.79916" lon="1.92661">
        <ele>1232.2</ele>
        <time>2024-10-11T09:15:58Z</time>
      </trkpt>
      <trkpt lat="42.79913" lon="1.92659">
        <ele>1232.2</ele>
        <time>2024-10-11T09:15:59Z</time>
      </trkpt>
      <trkpt lat="42.7991" lon="1.92658">
        <ele>1232.2</ele>
        <time>2024-10-11T09:16:00Z</time>
      </trkpt>
      <trkpt lat="42.79908" lon="1.92656">
        <ele>1233</ele>
        <time>2024-10-11T09:16:01Z</time>
      </trkpt>
      <trkpt lat="42.79905" lon="1.92654">
        <ele>1233</ele>
        <time>2024-10-11T09:16:02Z</time>
      </trkpt>
      <trkpt lat="42.79903" lon="1.92652">
        <ele>1233</ele>
        <time>2024-10-11T09:16:03Z</time>
      </trkpt>
      <trkpt lat="42.799" lon="1.9265">
        <ele>1233</ele>
        <time>2024-10-11T09:16:04Z</time>
      </trkpt>
      <trkpt lat="42.79898" lon="1.92649">
        <ele>1233.4</ele>
        <time>2024-10-11T09:16:05Z</time>
      </trkpt>
      <trkpt lat="42.79895" lon="1.92647">
        <ele>1233.4</ele>
        <time>2024-10-11T09:16:06Z</time>
      </trkpt>
      <trkpt lat="42.79893" lon="1.92645">
        <ele>1233.4</ele>
        <time>2024-10-11T09:16:07Z</time>
      </trkpt>
      <trkpt lat="42.79891" lon="1.92643">
        <ele>1234</ele>
        <time>2024-10-11T09:16:08Z</time>
      </trkpt>
      <trkpt lat="42.79888" lon="1.92641">
        <ele>1234.6</ele>
        <time>2024-10-11T09:16:09Z</time>
      </trkpt>
      <trkpt lat="42.79886" lon="1.9264">
        <ele>1234.6</ele>
        <time>2024-10-11T09:16:10Z</time>
      </trkpt>
      <trkpt lat="42.79883" lon="1.92638">
        <ele>1234.6</ele>
        <time>2024-10-11T09:16:11Z</time>
      </trkpt>
      <trkpt lat="42.79881" lon="1.92636">
        <ele>1234.6</ele>
        <time>2024-10-11T09:16:12Z</time>
      </trkpt>
      <trkpt lat="42.79879" lon="1.92634">
        <ele>1235</ele>
        <time>2024-10-11T09:16:13Z</time>
      </trkpt>
      <trkpt lat="42.79876" lon="1.92632">
        <ele>1235</ele>
        <time>2024-10-11T09:16:14Z</time>
      </trkpt>
      <trkpt lat="42.79874" lon="1.9263">
        <ele>1235</ele>
        <time>2024-10-11T09:16:15Z</time>
      </trkpt>
      <trkpt lat="42.79871" lon="1.92628">
        <ele>1235</ele>
        <time>2024-10-11T09:16:16Z</time>
      </trkpt>
      <trkpt lat="42.79868" lon="1.92627">
        <ele>1235.4</ele>
        <time>2024-10-11T09:16:17Z</time>
      </trkpt>
      <trkpt lat="42.79866" lon="1.92626">
        <ele>1235.8</ele>
        <time>2024-10-11T09:16:18Z</time>
      </trkpt>
      <trkpt lat="42.79863" lon="1.92624">
        <ele>1235.8</ele>
        <time>2024-10-11T09:16:19Z</time>
      </trkpt>
      <trkpt lat="42.79861" lon="1.92622">
        <ele>1235.8</ele>
        <time>2024-10-11T09:16:20Z</time>
      </trkpt>
      <trkpt lat="42.79858" lon="1.92621">
        <ele>1236.4</ele>
        <time>2024-10-11T09:16:21Z</time>
      </trkpt>
      <trkpt lat="42.79855" lon="1.92619">
        <ele>1236.6</ele>
        <time>2024-10-11T09:16:22Z</time>
      </trkpt>
      <trkpt lat="42.79853" lon="1.92617">
        <ele>1236.6</ele>
        <time>2024-10-11T09:16:23Z</time>
      </trkpt>
      <trkpt lat="42.7985" lon="1.92616">
        <ele>1236.6</ele>
        <time>2024-10-11T09:16:24Z</time>
      </trkpt>
      <trkpt lat="42.79848" lon="1.92614">
        <ele>1236.6</ele>
        <time>2024-10-11T09:16:25Z</time>
      </trkpt>
      <trkpt lat="42.79845" lon="1.92612">
        <ele>1237</ele>
        <time>2024-10-11T09:16:26Z</time>
      </trkpt>
      <trkpt lat="42.79842" lon="1.9261">
        <ele>1237.2</ele>
        <time>2024-10-11T09:16:27Z</time>
      </trkpt>
      <trkpt lat="42.7984" lon="1.92608">
        <ele>1237.2</ele>
        <time>2024-10-11T09:16:28Z</time>
      </trkpt>
      <trkpt lat="42.79837" lon="1.92606">
        <ele>1237.2</ele>
        <time>2024-10-11T09:16:29Z</time>
      </trkpt>
      <trkpt lat="42.79835" lon="1.92604">
        <ele>1237.4</ele>
        <time>2024-10-11T09:16:30Z</time>
      </trkpt>
      <trkpt lat="42.79833" lon="1.92602">
        <ele>1238</ele>
        <time>2024-10-11T09:16:31Z</time>
      </trkpt>
      <trkpt lat="42.7983" lon="1.92599">
        <ele>1238</ele>
        <time>2024-10-11T09:16:32Z</time>
      </trkpt>
      <trkpt lat="42.79828" lon="1.92596">
        <ele>1238</ele>
        <time>2024-10-11T09:16:33Z</time>
      </trkpt>
      <trkpt lat="42.79826" lon="1.92594">
        <ele>1238.6</ele>
        <time>2024-10-11T09:16:34Z</time>
      </trkpt>
      <trkpt lat="42.79824" lon="1.92591">
        <ele>1238.6</ele>
        <time>2024-10-11T09:16:35Z</time>
      </trkpt>
      <trkpt lat="42.79822" lon="1.92589">
        <ele>1238.6</ele>
        <time>2024-10-11T09:16:36Z</time>
      </trkpt>
      <trkpt lat="42.7982" lon="1.92586">
        <ele>1238.6</ele>
        <time>2024-10-11T09:16:37Z</time>
      </trkpt>
      <trkpt lat="42.79818" lon="1.92583">
        <ele>1238.6</ele>
        <time>2024-10-11T09:16:38Z</time>
      </trkpt>
      <trkpt lat="42.79816" lon="1.92581">
        <ele>1238.6</ele>
        <time>2024-10-11T09:16:39Z</time>
      </trkpt>
      <trkpt lat="42.79814" lon="1.92578">
        <ele>1239.4</ele>
        <time>2024-10-11T09:16:40Z</time>
      </trkpt>
      <trkpt lat="42.79812" lon="1.92575">
        <ele>1239.4</ele>
        <time>2024-10-11T09:16:41Z</time>
      </trkpt>
      <trkpt lat="42.7981" lon="1.92572">
        <ele>1239.4</ele>
        <time>2024-10-11T09:16:42Z</time>
      </trkpt>
      <trkpt lat="42.79808" lon="1.92569">
        <ele>1239.4</ele>
        <time>2024-10-11T09:16:43Z</time>
      </trkpt>
      <trkpt lat="42.79807" lon="1.92566">
        <ele>1240</ele>
        <time>2024-10-11T09:16:44Z</time>
      </trkpt>
      <trkpt lat="42.79805" lon="1.92563">
        <ele>1240.2</ele>
        <time>2024-10-11T09:16:45Z</time>
      </trkpt>
      <trkpt lat="42.79803" lon="1.9256">
        <ele>1240.2</ele>
        <time>2024-10-11T09:16:46Z</time>
      </trkpt>
      <trkpt lat="42.79801" lon="1.92556">
        <ele>1240.2</ele>
        <time>2024-10-11T09:16:47Z</time>
      </trkpt>
      <trkpt lat="42.79799" lon="1.92553">
        <ele>1240.2</ele>
        <time>2024-10-11T09:16:48Z</time>
      </trkpt>
      <trkpt lat="42.79797" lon="1.9255">
        <ele>1240.2</ele>
        <time>2024-10-11T09:16:49Z</time>
      </trkpt>
      <trkpt lat="42.79795" lon="1.92548">
        <ele>1241</ele>
        <time>2024-10-11T09:16:50Z</time>
      </trkpt>
      <trkpt lat="42.79793" lon="1.92545">
        <ele>1241</ele>
        <time>2024-10-11T09:16:51Z</time>
      </trkpt>
      <trkpt lat="42.79791" lon="1.92542">
        <ele>1241</ele>
        <time>2024-10-11T09:16:52Z</time>
      </trkpt>
      <trkpt lat="42.79789" lon="1.92539">
        <ele>1241.6</ele>
        <time>2024-10-11T09:16:53Z</time>
      </trkpt>
      <trkpt lat="42.79787" lon="1.92536">
        <ele>1241.8</ele>
        <time>2024-10-11T09:16:54Z</time>
      </trkpt>
      <trkpt lat="42.79786" lon="1.92533">
        <ele>1241.8</ele>
        <time>2024-10-11T09:16:55Z</time>
      </trkpt>
      <trkpt lat="42.79784" lon="1.9253">
        <ele>1241.8</ele>
        <time>2024-10-11T09:16:56Z</time>
      </trkpt>
      <trkpt lat="42.79782" lon="1.92527">
        <ele>1242</ele>
        <time>2024-10-11T09:16:57Z</time>
      </trkpt>
      <trkpt lat="42.7978" lon="1.92524">
        <ele>1242.4</ele>
        <time>2024-10-11T09:16:58Z</time>
      </trkpt>
      <trkpt lat="42.79778" lon="1.92521">
        <ele>1242.4</ele>
        <time>2024-10-11T09:16:59Z</time>
      </trkpt>
      <trkpt lat="42.79776" lon="1.92518">
        <ele>1242.4</ele>
        <time>2024-10-11T09:17:00Z</time>
      </trkpt>
      <trkpt lat="42.79774" lon="1.92516">
        <ele>1242.4</ele>
        <time>2024-10-11T09:17:01Z</time>
      </trkpt>
      <trkpt lat="42.79773" lon="1.92513">
        <ele>1242.4</ele>
        <time>2024-10-11T09:17:02Z</time>
      </trkpt>
      <trkpt lat="42.79771" lon="1.9251">
        <ele>1243</ele>
        <time>2024-10-11T09:17:03Z</time>
      </trkpt>
      <trkpt lat="42.79769" lon="1.92507">
        <ele>1243</ele>
        <time>2024-10-11T09:17:04Z</time>
      </trkpt>
      <trkpt lat="42.79767" lon="1.92504">
        <ele>1243</ele>
        <time>2024-10-11T09:17:05Z</time>
      </trkpt>
      <trkpt lat="42.79765" lon="1.92501">
        <ele>1243</ele>
        <time>2024-10-11T09:17:06Z</time>
      </trkpt>
      <trkpt lat="42.79763" lon="1.92498">
        <ele>1243.8</ele>
        <time>2024-10-11T09:17:07Z</time>
      </trkpt>
      <trkpt lat="42.7976" lon="1.92494">
        <ele>1243.8</ele>
        <time>2024-10-11T09:17:08Z</time>
      </trkpt>
      <trkpt lat="42.79759" lon="1.92492">
        <ele>1243.8</ele>
        <time>2024-10-11T09:17:09Z</time>
      </trkpt>
      <trkpt lat="42.79757" lon="1.9249">
        <ele>1244.8</ele>
        <time>2024-10-11T09:17:10Z</time>
      </trkpt>
      <trkpt lat="42.79756" lon="1.92486">
        <ele>1244.8</ele>
        <time>2024-10-11T09:17:11Z</time>
      </trkpt>
      <trkpt lat="42.79754" lon="1.92484">
        <ele>1244.8</ele>
        <time>2024-10-11T09:17:12Z</time>
      </trkpt>
      <trkpt lat="42.79752" lon="1.92481">
        <ele>1244.8</ele>
        <time>2024-10-11T09:17:13Z</time>
      </trkpt>
      <trkpt lat="42.7975" lon="1.92478">
        <ele>1244.8</ele>
        <time>2024-10-11T09:17:14Z</time>
      </trkpt>
      <trkpt lat="42.79749" lon="1.92474">
        <ele>1245.6</ele>
        <time>2024-10-11T09:17:15Z</time>
      </trkpt>
      <trkpt lat="42.79747" lon="1.92471">
        <ele>1245.6</ele>
        <time>2024-10-11T09:17:16Z</time>
      </trkpt>
      <trkpt lat="42.79745" lon="1.92468">
        <ele>1245.4</ele>
        <time>2024-10-11T09:17:17Z</time>
      </trkpt>
      <trkpt lat="42.79743" lon="1.92465">
        <ele>1245.4</ele>
        <time>2024-10-11T09:17:18Z</time>
      </trkpt>
      <trkpt lat="42.79742" lon="1.92462">
        <ele>1245.8</ele>
        <time>2024-10-11T09:17:19Z</time>
      </trkpt>
      <trkpt lat="42.7974" lon="1.92458">
        <ele>1245.8</ele>
        <time>2024-10-11T09:17:20Z</time>
      </trkpt>
      <trkpt lat="42.79738" lon="1.92455">
        <ele>1246</ele>
        <time>2024-10-11T09:17:21Z</time>
      </trkpt>
      <trkpt lat="42.79736" lon="1.92451">
        <ele>1246</ele>
        <time>2024-10-11T09:17:22Z</time>
      </trkpt>
      <trkpt lat="42.79734" lon="1.92448">
        <ele>1246</ele>
        <time>2024-10-11T09:17:23Z</time>
      </trkpt>
      <trkpt lat="42.79733" lon="1.92444">
        <ele>1246</ele>
        <time>2024-10-11T09:17:24Z</time>
      </trkpt>
      <trkpt lat="42.79731" lon="1.92441">
        <ele>1246.4</ele>
        <time>2024-10-11T09:17:25Z</time>
      </trkpt>
      <trkpt lat="42.7973" lon="1.92437">
        <ele>1246.4</ele>
        <time>2024-10-11T09:17:26Z</time>
      </trkpt>
      <trkpt lat="42.79728" lon="1.92433">
        <ele>1246.4</ele>
        <time>2024-10-11T09:17:27Z</time>
      </trkpt>
      <trkpt lat="42.79727" lon="1.9243">
        <ele>1246.4</ele>
        <time>2024-10-11T09:17:28Z</time>
      </trkpt>
      <trkpt lat="42.79725" lon="1.92426">
        <ele>1246.8</ele>
        <time>2024-10-11T09:17:29Z</time>
      </trkpt>
      <trkpt lat="42.79724" lon="1.92422">
        <ele>1247</ele>
        <time>2024-10-11T09:17:30Z</time>
      </trkpt>
      <trkpt lat="42.79722" lon="1.92418">
        <ele>1247</ele>
        <time>2024-10-11T09:17:31Z</time>
      </trkpt>
      <trkpt lat="42.79721" lon="1.92414">
        <ele>1247</ele>
        <time>2024-10-11T09:17:32Z</time>
      </trkpt>
      <trkpt lat="42.7972" lon="1.9241">
        <ele>1247</ele>
        <time>2024-10-11T09:17:33Z</time>
      </trkpt>
      <trkpt lat="42.79718" lon="1.92405">
        <ele>1247</ele>
        <time>2024-10-11T09:17:34Z</time>
      </trkpt>
      <trkpt lat="42.79716" lon="1.924">
        <ele>1246.2</ele>
        <time>2024-10-11T09:17:35Z</time>
      </trkpt>
      <trkpt lat="42.79715" lon="1.92395">
        <ele>1246.2</ele>
        <time>2024-10-11T09:17:36Z</time>
      </trkpt>
      <trkpt lat="42.79714" lon="1.9239">
        <ele>1246.2</ele>
        <time>2024-10-11T09:17:37Z</time>
      </trkpt>
      <trkpt lat="42.79713" lon="1.92385">
        <ele>1246.4</ele>
        <time>2024-10-11T09:17:38Z</time>
      </trkpt>
      <trkpt lat="42.79711" lon="1.9238">
        <ele>1246</ele>
        <time>2024-10-11T09:17:39Z</time>
      </trkpt>
      <trkpt lat="42.79711" lon="1.92376">
        <ele>1246</ele>
        <time>2024-10-11T09:17:40Z</time>
      </trkpt>
      <trkpt lat="42.7971" lon="1.92371">
        <ele>1246</ele>
        <time>2024-10-11T09:17:41Z</time>
      </trkpt>
      <trkpt lat="42.79709" lon="1.9237">
        <ele>1246</ele>
        <time>2024-10-11T09:17:42Z</time>
      </trkpt>
      <trkpt lat="42.79709" lon="1.92368">
        <ele>1246</ele>
        <time>2024-10-11T09:17:43Z</time>
      </trkpt>
      <trkpt lat="42.79709" lon="1.92366">
        <ele>1246</ele>
        <time>2024-10-11T09:17:44Z</time>
      </trkpt>
      <trkpt lat="42.79708" lon="1.92364">
        <ele>1246</ele>
        <time>2024-10-11T09:17:45Z</time>
      </trkpt>
      <trkpt lat="42.79708" lon="1.92362">
        <ele>1245.4</ele>
        <time>2024-10-11T09:19:43Z</time>
      </trkpt>
      <trkpt lat="42.79707" lon="1.9236">
        <ele>1245.4</ele>
        <time>2024-10-11T09:19:44Z</time>
      </trkpt>
      <trkpt lat="42.79707" lon="1.92355">
        <ele>1244.6</ele>
        <time>2024-10-11T09:19:45Z</time>
      </trkpt>
      <trkpt lat="42.79707" lon="1.92349">
        <ele>1244.6</ele>
        <time>2024-10-11T09:19:46Z</time>
      </trkpt>
      <trkpt lat="42.79706" lon="1.92343">
        <ele>1244.6</ele>
        <time>2024-10-11T09:19:47Z</time>
      </trkpt>
      <trkpt lat="42.79706" lon="1.92336">
        <ele>1244.6</ele>
        <time>2024-10-11T09:19:48Z</time>
      </trkpt>
      <trkpt lat="42.79706" lon="1.92328">
        <ele>1244.2</ele>
        <time>2024-10-11T09:19:49Z</time>
      </trkpt>
      <trkpt lat="42.79706" lon="1.9232">
        <ele>1244.2</ele>
        <time>2024-10-11T09:19:50Z</time>
      </trkpt>
      <trkpt lat="42.79706" lon="1.92312">
        <ele>1244.2</ele>
        <time>2024-10-11T09:19:51Z</time>
      </trkpt>
      <trkpt lat="42.79707" lon="1.92303">
        <ele>1243.2</ele>
        <time>2024-10-11T09:19:52Z</time>
      </trkpt>
      <trkpt lat="42.79708" lon="1.92294">
        <ele>1243.4</ele>
        <time>2024-10-11T09:19:53Z</time>
      </trkpt>
      <trkpt lat="42.7971" lon="1.92285">
        <ele>1243.4</ele>
        <time>2024-10-11T09:19:54Z</time>
      </trkpt>
      <trkpt lat="42.79712" lon="1.92275">
        <ele>1243.4</ele>
        <time>2024-10-11T09:19:55Z</time>
      </trkpt>
      <trkpt lat="42.79715" lon="1.92266">
        <ele>1243.4</ele>
        <time>2024-10-11T09:19:56Z</time>
      </trkpt>
      <trkpt lat="42.79719" lon="1.92257">
        <ele>1242.4</ele>
        <time>2024-10-11T09:19:57Z</time>
      </trkpt>
      <trkpt lat="42.79724" lon="1.92249">
        <ele>1241.8</ele>
        <time>2024-10-11T09:19:58Z</time>
      </trkpt>
      <trkpt lat="42.79729" lon="1.9224">
        <ele>1241.8</ele>
        <time>2024-10-11T09:19:59Z</time>
      </trkpt>
      <trkpt lat="42.79735" lon="1.92231">
        <ele>1241.8</ele>
        <time>2024-10-11T09:20:00Z</time>
      </trkpt>
      <trkpt lat="42.79741" lon="1.92223">
        <ele>1241.8</ele>
        <time>2024-10-11T09:20:01Z</time>
      </trkpt>
      <trkpt lat="42.7975" lon="1.92211">
        <ele>1240.6</ele>
        <time>2024-10-11T09:20:02Z</time>
      </trkpt>
      <trkpt lat="42.79754" lon="1.92207">
        <ele>1240.6</ele>
        <time>2024-10-11T09:20:03Z</time>
      </trkpt>
      <trkpt lat="42.79761" lon="1.922">
        <ele>1240.6</ele>
        <time>2024-10-11T09:20:04Z</time>
      </trkpt>
      <trkpt lat="42.79768" lon="1.92193">
        <ele>1239.6</ele>
        <time>2024-10-11T09:20:05Z</time>
      </trkpt>
      <trkpt lat="42.79775" lon="1.92186">
        <ele>1239.6</ele>
        <time>2024-10-11T09:20:06Z</time>
      </trkpt>
      <trkpt lat="42.79783" lon="1.92179">
        <ele>1238.4</ele>
        <time>2024-10-11T09:20:07Z</time>
      </trkpt>
      <trkpt lat="42.79791" lon="1.92173">
        <ele>1238.4</ele>
        <time>2024-10-11T09:20:08Z</time>
      </trkpt>
      <trkpt lat="42.79798" lon="1.92166">
        <ele>1238.4</ele>
        <time>2024-10-11T09:20:09Z</time>
      </trkpt>
      <trkpt lat="42.79806" lon="1.92159">
        <ele>1237.4</ele>
        <time>2024-10-11T09:20:10Z</time>
      </trkpt>
      <trkpt lat="42.79813" lon="1.92152">
        <ele>1237.4</ele>
        <time>2024-10-11T09:20:11Z</time>
      </trkpt>
      <trkpt lat="42.79821" lon="1.92145">
        <ele>1236.4</ele>
        <time>2024-10-11T09:20:12Z</time>
      </trkpt>
      <trkpt lat="42.79828" lon="1.92138">
        <ele>1236.4</ele>
        <time>2024-10-11T09:20:13Z</time>
      </trkpt>
      <trkpt lat="42.79835" lon="1.9213">
        <ele>1236.4</ele>
        <time>2024-10-11T09:20:14Z</time>
      </trkpt>
      <trkpt lat="42.79841" lon="1.9212">
        <ele>1235.4</ele>
        <time>2024-10-11T09:20:15Z</time>
      </trkpt>
      <trkpt lat="42.79845" lon="1.92109">
        <ele>1235.4</ele>
        <time>2024-10-11T09:20:16Z</time>
      </trkpt>
      <trkpt lat="42.79847" lon="1.92096">
        <ele>1234.2</ele>
        <time>2024-10-11T09:20:17Z</time>
      </trkpt>
      <trkpt lat="42.79848" lon="1.92083">
        <ele>1234.2</ele>
        <time>2024-10-11T09:20:18Z</time>
      </trkpt>
      <trkpt lat="42.79847" lon="1.9207">
        <ele>1234.2</ele>
        <time>2024-10-11T09:20:19Z</time>
      </trkpt>
      <trkpt lat="42.79845" lon="1.92056">
        <ele>1233.2</ele>
        <time>2024-10-11T09:20:20Z</time>
      </trkpt>
      <trkpt lat="42.79842" lon="1.92043">
        <ele>1230.8</ele>
        <time>2024-10-11T09:20:21Z</time>
      </trkpt>
      <trkpt lat="42.79838" lon="1.9203">
        <ele>1230.8</ele>
        <time>2024-10-11T09:20:22Z</time>
      </trkpt>
      <trkpt lat="42.79834" lon="1.92018">
        <ele>1230.8</ele>
        <time>2024-10-11T09:20:23Z</time>
      </trkpt>
      <trkpt lat="42.79829" lon="1.92005">
        <ele>1230.8</ele>
        <time>2024-10-11T09:20:24Z</time>
      </trkpt>
      <trkpt lat="42.79824" lon="1.91992">
        <ele>1228.4</ele>
        <time>2024-10-11T09:20:25Z</time>
      </trkpt>
      <trkpt lat="42.7982" lon="1.91979">
        <ele>1228.4</ele>
        <time>2024-10-11T09:20:26Z</time>
      </trkpt>
      <trkpt lat="42.79815" lon="1.91966">
        <ele>1228.4</ele>
        <time>2024-10-11T09:20:27Z</time>
      </trkpt>
      <trkpt lat="42.7981" lon="1.91953">
        <ele>1228.4</ele>
        <time>2024-10-11T09:20:28Z</time>
      </trkpt>
      <trkpt lat="42.79806" lon="1.9194">
        <ele>1228.4</ele>
        <time>2024-10-11T09:20:29Z</time>
      </trkpt>
      <trkpt lat="42.79801" lon="1.91927">
        <ele>1226.2</ele>
        <time>2024-10-11T09:20:30Z</time>
      </trkpt>
      <trkpt lat="42.79796" lon="1.91914">
        <ele>1226.2</ele>
        <time>2024-10-11T09:20:31Z</time>
      </trkpt>
      <trkpt lat="42.79791" lon="1.919">
        <ele>1226.2</ele>
        <time>2024-10-11T09:20:32Z</time>
      </trkpt>
      <trkpt lat="42.79787" lon="1.91887">
        <ele>1225.2</ele>
        <time>2024-10-11T09:20:33Z</time>
      </trkpt>
      <trkpt lat="42.79781" lon="1.91874">
        <ele>1223.8</ele>
        <time>2024-10-11T09:20:34Z</time>
      </trkpt>
      <trkpt lat="42.79775" lon="1.91862">
        <ele>1223.8</ele>
        <time>2024-10-11T09:20:35Z</time>
      </trkpt>
      <trkpt lat="42.79767" lon="1.91852">
        <ele>1223.8</ele>
        <time>2024-10-11T09:20:36Z</time>
      </trkpt>
      <trkpt lat="42.79758" lon="1.91843">
        <ele>1223.8</ele>
        <time>2024-10-11T09:20:37Z</time>
      </trkpt>
      <trkpt lat="42.79749" lon="1.91836">
        <ele>1221</ele>
        <time>2024-10-11T09:20:38Z</time>
      </trkpt>
      <trkpt lat="42.79739" lon="1.91831">
        <ele>1221</ele>
        <time>2024-10-11T09:20:39Z</time>
      </trkpt>
      <trkpt lat="42.79729" lon="1.91826">
        <ele>1221</ele>
        <time>2024-10-11T09:20:40Z</time>
      </trkpt>
      <trkpt lat="42.79718" lon="1.91822">
        <ele>1221</ele>
        <time>2024-10-11T09:20:41Z</time>
      </trkpt>
      <trkpt lat="42.79708" lon="1.91818">
        <ele>1221</ele>
        <time>2024-10-11T09:20:42Z</time>
      </trkpt>
      <trkpt lat="42.79698" lon="1.91813">
        <ele>1219.4</ele>
        <time>2024-10-11T09:20:43Z</time>
      </trkpt>
      <trkpt lat="42.79688" lon="1.91808">
        <ele>1219.4</ele>
        <time>2024-10-11T09:20:44Z</time>
      </trkpt>
      <trkpt lat="42.79679" lon="1.91803">
        <ele>1219.4</ele>
        <time>2024-10-11T09:20:45Z</time>
      </trkpt>
      <trkpt lat="42.7967" lon="1.91798">
        <ele>1218.4</ele>
        <time>2024-10-11T09:20:46Z</time>
      </trkpt>
      <trkpt lat="42.79662" lon="1.91792">
        <ele>1218.4</ele>
        <time>2024-10-11T09:20:47Z</time>
      </trkpt>
      <trkpt lat="42.79654" lon="1.91786">
        <ele>1218.4</ele>
        <time>2024-10-11T09:20:48Z</time>
      </trkpt>
      <trkpt lat="42.79648" lon="1.91778">
        <ele>1218.4</ele>
        <time>2024-10-11T09:20:49Z</time>
      </trkpt>
      <trkpt lat="42.79642" lon="1.9177">
        <ele>1218.4</ele>
        <time>2024-10-11T09:20:50Z</time>
      </trkpt>
      <trkpt lat="42.79636" lon="1.91761">
        <ele>1218</ele>
        <time>2024-10-11T09:20:51Z</time>
      </trkpt>
      <trkpt lat="42.79633" lon="1.9175">
        <ele>1218</ele>
        <time>2024-10-11T09:20:52Z</time>
      </trkpt>
      <trkpt lat="42.7963" lon="1.9174">
        <ele>1218</ele>
        <time>2024-10-11T09:20:53Z</time>
      </trkpt>
      <trkpt lat="42.79627" lon="1.91729">
        <ele>1218</ele>
        <time>2024-10-11T09:20:54Z</time>
      </trkpt>
      <trkpt lat="42.79626" lon="1.91719">
        <ele>1218</ele>
        <time>2024-10-11T09:20:55Z</time>
      </trkpt>
      <trkpt lat="42.79627" lon="1.91703">
        <ele>1218</ele>
        <time>2024-10-11T09:20:56Z</time>
      </trkpt>
      <trkpt lat="42.79627" lon="1.91698">
        <ele>1218.2</ele>
        <time>2024-10-11T09:20:57Z</time>
      </trkpt>
      <trkpt lat="42.79628" lon="1.91688">
        <ele>1218.2</ele>
        <time>2024-10-11T09:20:58Z</time>
      </trkpt>
      <trkpt lat="42.79628" lon="1.91678">
        <ele>1218.2</ele>
        <time>2024-10-11T09:20:59Z</time>
      </trkpt>
      <trkpt lat="42.79629" lon="1.91669">
        <ele>1218.6</ele>
        <time>2024-10-11T09:21:00Z</time>
      </trkpt>
      <trkpt lat="42.7963" lon="1.9166">
        <ele>1219.2</ele>
        <time>2024-10-11T09:21:01Z</time>
      </trkpt>
      <trkpt lat="42.79631" lon="1.91652">
        <ele>1219.2</ele>
        <time>2024-10-11T09:21:02Z</time>
      </trkpt>
      <trkpt lat="42.79632" lon="1.91644">
        <ele>1219.2</ele>
        <time>2024-10-11T09:21:03Z</time>
      </trkpt>
      <trkpt lat="42.79633" lon="1.91636">
        <ele>1218.4</ele>
        <time>2024-10-11T09:21:04Z</time>
      </trkpt>
      <trkpt lat="42.79634" lon="1.91628">
        <ele>1219</ele>
        <time>2024-10-11T09:21:05Z</time>
      </trkpt>
      <trkpt lat="42.79634" lon="1.9162">
        <ele>1219</ele>
        <time>2024-10-11T09:21:06Z</time>
      </trkpt>
      <trkpt lat="42.79634" lon="1.91613">
        <ele>1219</ele>
        <time>2024-10-11T09:21:07Z</time>
      </trkpt>
      <trkpt lat="42.79634" lon="1.91606">
        <ele>1219</ele>
        <time>2024-10-11T09:21:08Z</time>
      </trkpt>
      <trkpt lat="42.79633" lon="1.91599">
        <ele>1219.4</ele>
        <time>2024-10-11T09:21:09Z</time>
      </trkpt>
      <trkpt lat="42.79632" lon="1.91592">
        <ele>1219.6</ele>
        <time>2024-10-11T09:21:10Z</time>
      </trkpt>
      <trkpt lat="42.79631" lon="1.91585">
        <ele>1219.6</ele>
        <time>2024-10-11T09:21:11Z</time>
      </trkpt>
      <trkpt lat="42.7963" lon="1.91578">
        <ele>1219.6</ele>
        <time>2024-10-11T09:21:12Z</time>
      </trkpt>
      <trkpt lat="42.79629" lon="1.91571">
        <ele>1220</ele>
        <time>2024-10-11T09:21:13Z</time>
      </trkpt>
      <trkpt lat="42.79627" lon="1.91564">
        <ele>1219.8</ele>
        <time>2024-10-11T09:21:14Z</time>
      </trkpt>
      <trkpt lat="42.79625" lon="1.91558">
        <ele>1219.8</ele>
        <time>2024-10-11T09:21:15Z</time>
      </trkpt>
      <trkpt lat="42.79623" lon="1.91552">
        <ele>1219.8</ele>
        <time>2024-10-11T09:21:16Z</time>
      </trkpt>
      <trkpt lat="42.79622" lon="1.91545">
        <ele>1220.6</ele>
        <time>2024-10-11T09:21:17Z</time>
      </trkpt>
      <trkpt lat="42.7962" lon="1.91539">
        <ele>1220.6</ele>
        <time>2024-10-11T09:21:18Z</time>
      </trkpt>
      <trkpt lat="42.79619" lon="1.91532">
        <ele>1220.2</ele>
        <time>2024-10-11T09:21:19Z</time>
      </trkpt>
      <trkpt lat="42.79617" lon="1.91525">
        <ele>1220.2</ele>
        <time>2024-10-11T09:21:20Z</time>
      </trkpt>
      <trkpt lat="42.79615" lon="1.91519">
        <ele>1220.2</ele>
        <time>2024-10-11T09:21:21Z</time>
      </trkpt>
      <trkpt lat="42.79613" lon="1.91512">
        <ele>1220.2</ele>
        <time>2024-10-11T09:21:22Z</time>
      </trkpt>
      <trkpt lat="42.79612" lon="1.91506">
        <ele>1220.6</ele>
        <time>2024-10-11T09:21:23Z</time>
      </trkpt>
      <trkpt lat="42.7961" lon="1.91499">
        <ele>1220.6</ele>
        <time>2024-10-11T09:21:24Z</time>
      </trkpt>
      <trkpt lat="42.79609" lon="1.91493">
        <ele>1220.6</ele>
        <time>2024-10-11T09:21:25Z</time>
      </trkpt>
      <trkpt lat="42.79607" lon="1.91486">
        <ele>1221</ele>
        <time>2024-10-11T09:21:26Z</time>
      </trkpt>
      <trkpt lat="42.79606" lon="1.9148">
        <ele>1221.4</ele>
        <time>2024-10-11T09:21:27Z</time>
      </trkpt>
      <trkpt lat="42.79604" lon="1.91473">
        <ele>1221.4</ele>
        <time>2024-10-11T09:21:28Z</time>
      </trkpt>
      <trkpt lat="42.79603" lon="1.91467">
        <ele>1221.4</ele>
        <time>2024-10-11T09:21:29Z</time>
      </trkpt>
      <trkpt lat="42.79601" lon="1.91461">
        <ele>1221.4</ele>
        <time>2024-10-11T09:21:30Z</time>
      </trkpt>
      <trkpt lat="42.79599" lon="1.91455">
        <ele>1221.4</ele>
        <time>2024-10-11T09:21:31Z</time>
      </trkpt>
      <trkpt lat="42.79598" lon="1.91449">
        <ele>1221.6</ele>
        <time>2024-10-11T09:21:32Z</time>
      </trkpt>
      <trkpt lat="42.79596" lon="1.91442">
        <ele>1221.6</ele>
        <time>2024-10-11T09:21:33Z</time>
      </trkpt>
      <trkpt lat="42.79594" lon="1.91436">
        <ele>1221.6</ele>
        <time>2024-10-11T09:21:34Z</time>
      </trkpt>
      <trkpt lat="42.79593" lon="1.91429">
        <ele>1221.6</ele>
        <time>2024-10-11T09:21:35Z</time>
      </trkpt>
      <trkpt lat="42.79591" lon="1.91423">
        <ele>1221.2</ele>
        <time>2024-10-11T09:21:36Z</time>
      </trkpt>
      <trkpt lat="42.79589" lon="1.91416">
        <ele>1221.2</ele>
        <time>2024-10-11T09:21:37Z</time>
      </trkpt>
      <trkpt lat="42.79587" lon="1.91409">
        <ele>1221.2</ele>
        <time>2024-10-11T09:21:38Z</time>
      </trkpt>
      <trkpt lat="42.79585" lon="1.91401">
        <ele>1221.2</ele>
        <time>2024-10-11T09:21:39Z</time>
      </trkpt>
      <trkpt lat="42.79583" lon="1.91394">
        <ele>1221.2</ele>
        <time>2024-10-11T09:21:40Z</time>
      </trkpt>
      <trkpt lat="42.79581" lon="1.91386">
        <ele>1221.2</ele>
        <time>2024-10-11T09:21:41Z</time>
      </trkpt>
      <trkpt lat="42.79579" lon="1.91378">
        <ele>1221.2</ele>
        <time>2024-10-11T09:21:42Z</time>
      </trkpt>
      <trkpt lat="42.79577" lon="1.91369">
        <ele>1221.2</ele>
        <time>2024-10-11T09:21:43Z</time>
      </trkpt>
      <trkpt lat="42.79575" lon="1.91361">
        <ele>1221.2</ele>
        <time>2024-10-11T09:21:44Z</time>
      </trkpt>
      <trkpt lat="42.79573" lon="1.91352">
        <ele>1220.2</ele>
        <time>2024-10-11T09:21:45Z</time>
      </trkpt>
      <trkpt lat="42.79571" lon="1.91343">
        <ele>1220.4</ele>
        <time>2024-10-11T09:21:46Z</time>
      </trkpt>
      <trkpt lat="42.79568" lon="1.91334">
        <ele>1220.4</ele>
        <time>2024-10-11T09:21:47Z</time>
      </trkpt>
      <trkpt lat="42.79566" lon="1.91324">
        <ele>1220.4</ele>
        <time>2024-10-11T09:21:48Z</time>
      </trkpt>
      <trkpt lat="42.79565" lon="1.91314">
        <ele>1219.6</ele>
        <time>2024-10-11T09:21:49Z</time>
      </trkpt>
      <trkpt lat="42.79564" lon="1.91304">
        <ele>1219.2</ele>
        <time>2024-10-11T09:21:50Z</time>
      </trkpt>
      <trkpt lat="42.79563" lon="1.91293">
        <ele>1219.2</ele>
        <time>2024-10-11T09:21:51Z</time>
      </trkpt>
      <trkpt lat="42.79564" lon="1.91283">
        <ele>1219.2</ele>
        <time>2024-10-11T09:21:52Z</time>
      </trkpt>
      <trkpt lat="42.79566" lon="1.91272">
        <ele>1218.2</ele>
        <time>2024-10-11T09:21:53Z</time>
      </trkpt>
      <trkpt lat="42.79568" lon="1.91262">
        <ele>1218.2</ele>
        <time>2024-10-11T09:21:54Z</time>
      </trkpt>
      <trkpt lat="42.79572" lon="1.91252">
        <ele>1218</ele>
        <time>2024-10-11T09:21:55Z</time>
      </trkpt>
      <trkpt lat="42.79576" lon="1.91242">
        <ele>1218</ele>
        <time>2024-10-11T09:21:56Z</time>
      </trkpt>
      <trkpt lat="42.79581" lon="1.91233">
        <ele>1218</ele>
        <time>2024-10-11T09:21:57Z</time>
      </trkpt>
      <trkpt lat="42.79586" lon="1.91225">
        <ele>1218</ele>
        <time>2024-10-11T09:21:58Z</time>
      </trkpt>
      <trkpt lat="42.79592" lon="1.91217">
        <ele>1217.2</ele>
        <time>2024-10-11T09:21:59Z</time>
      </trkpt>
      <trkpt lat="42.79598" lon="1.91209">
        <ele>1217.2</ele>
        <time>2024-10-11T09:22:00Z</time>
      </trkpt>
      <trkpt lat="42.79604" lon="1.91202">
        <ele>1217.2</ele>
        <time>2024-10-11T09:22:01Z</time>
      </trkpt>
      <trkpt lat="42.7961" lon="1.91194">
        <ele>1217.2</ele>
        <time>2024-10-11T09:22:02Z</time>
      </trkpt>
      <trkpt lat="42.79616" lon="1.91187">
        <ele>1217.4</ele>
        <time>2024-10-11T09:22:03Z</time>
      </trkpt>
      <trkpt lat="42.79621" lon="1.9118">
        <ele>1217.4</ele>
        <time>2024-10-11T09:22:04Z</time>
      </trkpt>
      <trkpt lat="42.79627" lon="1.91172">
        <ele>1217.4</ele>
        <time>2024-10-11T09:22:05Z</time>
      </trkpt>
      <trkpt lat="42.79633" lon="1.91165">
        <ele>1217.4</ele>
        <time>2024-10-11T09:22:06Z</time>
      </trkpt>
      <trkpt lat="42.79638" lon="1.91158">
        <ele>1216.8</ele>
        <time>2024-10-11T09:22:07Z</time>
      </trkpt>
      <trkpt lat="42.79644" lon="1.91151">
        <ele>1216.6</ele>
        <time>2024-10-11T09:22:08Z</time>
      </trkpt>
      <trkpt lat="42.7965" lon="1.91144">
        <ele>1216.6</ele>
        <time>2024-10-11T09:22:09Z</time>
      </trkpt>
      <trkpt lat="42.79655" lon="1.91136">
        <ele>1216.6</ele>
        <time>2024-10-11T09:22:10Z</time>
      </trkpt>
      <trkpt lat="42.79661" lon="1.91129">
        <ele>1217</ele>
        <time>2024-10-11T09:22:11Z</time>
      </trkpt>
      <trkpt lat="42.79666" lon="1.91122">
        <ele>1216.2</ele>
        <time>2024-10-11T09:22:12Z</time>
      </trkpt>
      <trkpt lat="42.79671" lon="1.91115">
        <ele>1216.2</ele>
        <time>2024-10-11T09:22:13Z</time>
      </trkpt>
      <trkpt lat="42.79676" lon="1.91108">
        <ele>1216.2</ele>
        <time>2024-10-11T09:22:14Z</time>
      </trkpt>
      <trkpt lat="42.79681" lon="1.911">
        <ele>1215.4</ele>
        <time>2024-10-11T09:22:15Z</time>
      </trkpt>
      <trkpt lat="42.79685" lon="1.91092">
        <ele>1215.4</ele>
        <time>2024-10-11T09:22:16Z</time>
      </trkpt>
      <trkpt lat="42.79689" lon="1.91083">
        <ele>1215.4</ele>
        <time>2024-10-11T09:22:17Z</time>
      </trkpt>
      <trkpt lat="42.79693" lon="1.91074">
        <ele>1215.4</ele>
        <time>2024-10-11T09:22:18Z</time>
      </trkpt>
      <trkpt lat="42.79696" lon="1.91065">
        <ele>1215.4</ele>
        <time>2024-10-11T09:22:19Z</time>
      </trkpt>
      <trkpt lat="42.79698" lon="1.91055">
        <ele>1214.4</ele>
        <time>2024-10-11T09:22:20Z</time>
      </trkpt>
      <trkpt lat="42.797" lon="1.91045">
        <ele>1214.4</ele>
        <time>2024-10-11T09:22:21Z</time>
      </trkpt>
      <trkpt lat="42.79701" lon="1.91034">
        <ele>1213.8</ele>
        <time>2024-10-11T09:22:22Z</time>
      </trkpt>
      <trkpt lat="42.79701" lon="1.91024">
        <ele>1213.8</ele>
        <time>2024-10-11T09:22:23Z</time>
      </trkpt>
      <trkpt lat="42.79702" lon="1.91013">
        <ele>1213.8</ele>
        <time>2024-10-11T09:22:24Z</time>
      </trkpt>
      <trkpt lat="42.79702" lon="1.91002">
        <ele>1213.8</ele>
        <time>2024-10-11T09:22:25Z</time>
      </trkpt>
      <trkpt lat="42.79703" lon="1.90992">
        <ele>1213.8</ele>
        <time>2024-10-11T09:22:26Z</time>
      </trkpt>
      <trkpt lat="42.79703" lon="1.90981">
        <ele>1213.2</ele>
        <time>2024-10-11T09:22:27Z</time>
      </trkpt>
      <trkpt lat="42.79703" lon="1.9097">
        <ele>1213.2</ele>
        <time>2024-10-11T09:22:28Z</time>
      </trkpt>
      <trkpt lat="42.79704" lon="1.90959">
        <ele>1213.2</ele>
        <time>2024-10-11T09:22:29Z</time>
      </trkpt>
      <trkpt lat="42.79704" lon="1.90948">
        <ele>1213.2</ele>
        <time>2024-10-11T09:22:30Z</time>
      </trkpt>
      <trkpt lat="42.79704" lon="1.90937">
        <ele>1212.4</ele>
        <time>2024-10-11T09:22:31Z</time>
      </trkpt>
      <trkpt lat="42.79704" lon="1.90925">
        <ele>1212.4</ele>
        <time>2024-10-11T09:22:32Z</time>
      </trkpt>
      <trkpt lat="42.79705" lon="1.90914">
        <ele>1212.4</ele>
        <time>2024-10-11T09:22:33Z</time>
      </trkpt>
      <trkpt lat="42.79705" lon="1.90903">
        <ele>1212</ele>
        <time>2024-10-11T09:22:34Z</time>
      </trkpt>
      <trkpt lat="42.79705" lon="1.90891">
        <ele>1211.6</ele>
        <time>2024-10-11T09:22:35Z</time>
      </trkpt>
      <trkpt lat="42.79705" lon="1.90879">
        <ele>1211.6</ele>
        <time>2024-10-11T09:22:36Z</time>
      </trkpt>
      <trkpt lat="42.79705" lon="1.90867">
        <ele>1211.6</ele>
        <time>2024-10-11T09:22:37Z</time>
      </trkpt>
      <trkpt lat="42.79705" lon="1.90855">
        <ele>1210.6</ele>
        <time>2024-10-11T09:22:38Z</time>
      </trkpt>
      <trkpt lat="42.79703" lon="1.90843">
        <ele>1210.8</ele>
        <time>2024-10-11T09:22:39Z</time>
      </trkpt>
      <trkpt lat="42.79701" lon="1.90831">
        <ele>1210.8</ele>
        <time>2024-10-11T09:22:40Z</time>
      </trkpt>
      <trkpt lat="42.79696" lon="1.9082">
        <ele>1210.8</ele>
        <time>2024-10-11T09:22:41Z</time>
      </trkpt>
      <trkpt lat="42.79691" lon="1.9081">
        <ele>1210.8</ele>
        <time>2024-10-11T09:22:42Z</time>
      </trkpt>
      <trkpt lat="42.79683" lon="1.90803">
        <ele>1209.8</ele>
        <time>2024-10-11T09:22:43Z</time>
      </trkpt>
      <trkpt lat="42.79674" lon="1.90799">
        <ele>1208</ele>
        <time>2024-10-11T09:22:44Z</time>
      </trkpt>
      <trkpt lat="42.79665" lon="1.90797">
        <ele>1208</ele>
        <time>2024-10-11T09:22:45Z</time>
      </trkpt>
      <trkpt lat="42.79656" lon="1.90797">
        <ele>1208</ele>
        <time>2024-10-11T09:22:46Z</time>
      </trkpt>
      <trkpt lat="42.79647" lon="1.90798">
        <ele>1207.4</ele>
        <time>2024-10-11T09:22:47Z</time>
      </trkpt>
      <trkpt lat="42.79638" lon="1.90799">
        <ele>1207.4</ele>
        <time>2024-10-11T09:22:48Z</time>
      </trkpt>
      <trkpt lat="42.79629" lon="1.908">
        <ele>1206.6</ele>
        <time>2024-10-11T09:22:49Z</time>
      </trkpt>
      <trkpt lat="42.7962" lon="1.908">
        <ele>1206.6</ele>
        <time>2024-10-11T09:22:50Z</time>
      </trkpt>
      <trkpt lat="42.79612" lon="1.90801">
        <ele>1205.6</ele>
        <time>2024-10-11T09:22:51Z</time>
      </trkpt>
      <trkpt lat="42.79603" lon="1.90803">
        <ele>1205.6</ele>
        <time>2024-10-11T09:22:52Z</time>
      </trkpt>
      <trkpt lat="42.79595" lon="1.90803">
        <ele>1205.4</ele>
        <time>2024-10-11T09:22:53Z</time>
      </trkpt>
      <trkpt lat="42.79586" lon="1.90804">
        <ele>1205.4</ele>
        <time>2024-10-11T09:22:54Z</time>
      </trkpt>
      <trkpt lat="42.79577" lon="1.90803">
        <ele>1205.4</ele>
        <time>2024-10-11T09:22:55Z</time>
      </trkpt>
      <trkpt lat="42.79569" lon="1.90801">
        <ele>1204.4</ele>
        <time>2024-10-11T09:22:56Z</time>
      </trkpt>
      <trkpt lat="42.79561" lon="1.90797">
        <ele>1203.6</ele>
        <time>2024-10-11T09:22:57Z</time>
      </trkpt>
      <trkpt lat="42.79554" lon="1.9079">
        <ele>1203.6</ele>
        <time>2024-10-11T09:22:58Z</time>
      </trkpt>
      <trkpt lat="42.79548" lon="1.90782">
        <ele>1203.6</ele>
        <time>2024-10-11T09:22:59Z</time>
      </trkpt>
      <trkpt lat="42.79545" lon="1.90771">
        <ele>1202.6</ele>
        <time>2024-10-11T09:23:00Z</time>
      </trkpt>
      <trkpt lat="42.79543" lon="1.9076">
        <ele>1202.2</ele>
        <time>2024-10-11T09:23:01Z</time>
      </trkpt>
      <trkpt lat="42.79542" lon="1.90748">
        <ele>1202.2</ele>
        <time>2024-10-11T09:23:02Z</time>
      </trkpt>
      <trkpt lat="42.7954" lon="1.90736">
        <ele>1202.2</ele>
        <time>2024-10-11T09:23:03Z</time>
      </trkpt>
      <trkpt lat="42.79539" lon="1.90723">
        <ele>1202.2</ele>
        <time>2024-10-11T09:23:04Z</time>
      </trkpt>
      <trkpt lat="42.79538" lon="1.90711">
        <ele>1202.2</ele>
        <time>2024-10-11T09:23:05Z</time>
      </trkpt>
      <trkpt lat="42.79536" lon="1.90698">
        <ele>1201.2</ele>
        <time>2024-10-11T09:23:06Z</time>
      </trkpt>
      <trkpt lat="42.79534" lon="1.90686">
        <ele>1200.6</ele>
        <time>2024-10-11T09:23:07Z</time>
      </trkpt>
      <trkpt lat="42.79533" lon="1.90674">
        <ele>1200.6</ele>
        <time>2024-10-11T09:23:08Z</time>
      </trkpt>
      <trkpt lat="42.79533" lon="1.90662">
        <ele>1200.6</ele>
        <time>2024-10-11T09:23:09Z</time>
      </trkpt>
      <trkpt lat="42.79534" lon="1.90651">
        <ele>1200.6</ele>
        <time>2024-10-11T09:23:10Z</time>
      </trkpt>
      <trkpt lat="42.79538" lon="1.90634">
        <ele>1200.6</ele>
        <time>2024-10-11T09:23:11Z</time>
      </trkpt>
      <trkpt lat="42.7954" lon="1.90629">
        <ele>1200.2</ele>
        <time>2024-10-11T09:23:12Z</time>
      </trkpt>
      <trkpt lat="42.79543" lon="1.90619">
        <ele>1200.2</ele>
        <time>2024-10-11T09:23:13Z</time>
      </trkpt>
      <trkpt lat="42.79547" lon="1.9061">
        <ele>1200.2</ele>
        <time>2024-10-11T09:23:14Z</time>
      </trkpt>
      <trkpt lat="42.79551" lon="1.90602">
        <ele>1200.8</ele>
        <time>2024-10-11T09:23:15Z</time>
      </trkpt>
      <trkpt lat="42.79555" lon="1.90593">
        <ele>1201</ele>
        <time>2024-10-11T09:23:16Z</time>
      </trkpt>
      <trkpt lat="42.79559" lon="1.90586">
        <ele>1201</ele>
        <time>2024-10-11T09:23:17Z</time>
      </trkpt>
      <trkpt lat="42.79564" lon="1.90579">
        <ele>1201</ele>
        <time>2024-10-11T09:23:18Z</time>
      </trkpt>
      <trkpt lat="42.7957" lon="1.90573">
        <ele>1200.8</ele>
        <time>2024-10-11T09:23:19Z</time>
      </trkpt>
      <trkpt lat="42.79576" lon="1.90568">
        <ele>1201</ele>
        <time>2024-10-11T09:23:20Z</time>
      </trkpt>
      <trkpt lat="42.79586" lon="1.90564">
        <ele>1201</ele>
        <time>2024-10-11T09:23:21Z</time>
      </trkpt>
      <trkpt lat="42.79589" lon="1.90564">
        <ele>1201</ele>
        <time>2024-10-11T09:23:22Z</time>
      </trkpt>
      <trkpt lat="42.79596" lon="1.90563">
        <ele>1200.6</ele>
        <time>2024-10-11T09:23:23Z</time>
      </trkpt>
      <trkpt lat="42.79602" lon="1.90564">
        <ele>1200.6</ele>
        <time>2024-10-11T09:23:24Z</time>
      </trkpt>
      <trkpt lat="42.79608" lon="1.90566">
        <ele>1200.6</ele>
        <time>2024-10-11T09:23:25Z</time>
      </trkpt>
      <trkpt lat="42.79614" lon="1.90569">
        <ele>1200.6</ele>
        <time>2024-10-11T09:23:26Z</time>
      </trkpt>
      <trkpt lat="42.7962" lon="1.90572">
        <ele>1200.6</ele>
        <time>2024-10-11T09:23:27Z</time>
      </trkpt>
      <trkpt lat="42.79625" lon="1.90575">
        <ele>1201</ele>
        <time>2024-10-11T09:23:28Z</time>
      </trkpt>
      <trkpt lat="42.7963" lon="1.90578">
        <ele>1201</ele>
        <time>2024-10-11T09:23:29Z</time>
      </trkpt>
      <trkpt lat="42.79635" lon="1.90581">
        <ele>1201</ele>
        <time>2024-10-11T09:23:30Z</time>
      </trkpt>
      <trkpt lat="42.79641" lon="1.90584">
        <ele>1201</ele>
        <time>2024-10-11T09:23:31Z</time>
      </trkpt>
      <trkpt lat="42.79646" lon="1.90587">
        <ele>1201.4</ele>
        <time>2024-10-11T09:23:32Z</time>
      </trkpt>
      <trkpt lat="42.79651" lon="1.9059">
        <ele>1201.6</ele>
        <time>2024-10-11T09:23:33Z</time>
      </trkpt>
      <trkpt lat="42.79656" lon="1.90592">
        <ele>1201.6</ele>
        <time>2024-10-11T09:23:34Z</time>
      </trkpt>
      <trkpt lat="42.79661" lon="1.90594">
        <ele>1201.6</ele>
        <time>2024-10-11T09:23:35Z</time>
      </trkpt>
      <trkpt lat="42.79665" lon="1.90596">
        <ele>1201.6</ele>
        <time>2024-10-11T09:23:36Z</time>
      </trkpt>
      <trkpt lat="42.7967" lon="1.90598">
        <ele>1201.6</ele>
        <time>2024-10-11T09:23:37Z</time>
      </trkpt>
      <trkpt lat="42.79675" lon="1.90598">
        <ele>1201.2</ele>
        <time>2024-10-11T09:23:38Z</time>
      </trkpt>
      <trkpt lat="42.7968" lon="1.90598">
        <ele>1201.2</ele>
        <time>2024-10-11T09:23:39Z</time>
      </trkpt>
      <trkpt lat="42.79685" lon="1.90597">
        <ele>1201.2</ele>
        <time>2024-10-11T09:23:40Z</time>
      </trkpt>
      <trkpt lat="42.79689" lon="1.90597">
        <ele>1201.2</ele>
        <time>2024-10-11T09:23:41Z</time>
      </trkpt>
      <trkpt lat="42.79694" lon="1.90595">
        <ele>1201.2</ele>
        <time>2024-10-11T09:23:42Z</time>
      </trkpt>
      <trkpt lat="42.79699" lon="1.90593">
        <ele>1201.4</ele>
        <time>2024-10-11T09:23:43Z</time>
      </trkpt>
      <trkpt lat="42.79703" lon="1.9059">
        <ele>1201.4</ele>
        <time>2024-10-11T09:23:44Z</time>
      </trkpt>
      <trkpt lat="42.79707" lon="1.90587">
        <ele>1201.4</ele>
        <time>2024-10-11T09:23:45Z</time>
      </trkpt>
      <trkpt lat="42.79711" lon="1.90583">
        <ele>1201.6</ele>
        <time>2024-10-11T09:23:46Z</time>
      </trkpt>
      <trkpt lat="42.79714" lon="1.9058">
        <ele>1201.8</ele>
        <time>2024-10-11T09:23:47Z</time>
      </trkpt>
      <trkpt lat="42.79718" lon="1.90575">
        <ele>1201.8</ele>
        <time>2024-10-11T09:23:48Z</time>
      </trkpt>
      <trkpt lat="42.79721" lon="1.9057">
        <ele>1201.8</ele>
        <time>2024-10-11T09:23:49Z</time>
      </trkpt>
      <trkpt lat="42.79723" lon="1.90566">
        <ele>1201.8</ele>
        <time>2024-10-11T09:23:50Z</time>
      </trkpt>
      <trkpt lat="42.79726" lon="1.90561">
        <ele>1201.8</ele>
        <time>2024-10-11T09:23:51Z</time>
      </trkpt>
      <trkpt lat="42.79728" lon="1.90556">
        <ele>1202.6</ele>
        <time>2024-10-11T09:23:52Z</time>
      </trkpt>
      <trkpt lat="42.79731" lon="1.90551">
        <ele>1202.6</ele>
        <time>2024-10-11T09:23:53Z</time>
      </trkpt>
      <trkpt lat="42.79734" lon="1.90546">
        <ele>1202.6</ele>
        <time>2024-10-11T09:23:54Z</time>
      </trkpt>
      <trkpt lat="42.79736" lon="1.90542">
        <ele>1202.6</ele>
        <time>2024-10-11T09:23:55Z</time>
      </trkpt>
      <trkpt lat="42.79739" lon="1.90537">
        <ele>1203</ele>
        <time>2024-10-11T09:23:56Z</time>
      </trkpt>
      <trkpt lat="42.79742" lon="1.90533">
        <ele>1203</ele>
        <time>2024-10-11T09:23:57Z</time>
      </trkpt>
      <trkpt lat="42.79746" lon="1.90528">
        <ele>1203</ele>
        <time>2024-10-11T09:23:58Z</time>
      </trkpt>
      <trkpt lat="42.79749" lon="1.90524">
        <ele>1203</ele>
        <time>2024-10-11T09:23:59Z</time>
      </trkpt>
      <trkpt lat="42.79753" lon="1.9052">
        <ele>1203</ele>
        <time>2024-10-11T09:24:00Z</time>
      </trkpt>
      <trkpt lat="42.79756" lon="1.90517">
        <ele>1203.6</ele>
        <time>2024-10-11T09:24:01Z</time>
      </trkpt>
      <trkpt lat="42.7976" lon="1.90514">
        <ele>1203.6</ele>
        <time>2024-10-11T09:24:02Z</time>
      </trkpt>
      <trkpt lat="42.79764" lon="1.90512">
        <ele>1203.6</ele>
        <time>2024-10-11T09:24:03Z</time>
      </trkpt>
      <trkpt lat="42.79767" lon="1.9051">
        <ele>1203.6</ele>
        <time>2024-10-11T09:24:04Z</time>
      </trkpt>
      <trkpt lat="42.79771" lon="1.90509">
        <ele>1204</ele>
        <time>2024-10-11T09:24:05Z</time>
      </trkpt>
      <trkpt lat="42.79775" lon="1.90508">
        <ele>1204</ele>
        <time>2024-10-11T09:24:06Z</time>
      </trkpt>
      <trkpt lat="42.79778" lon="1.90506">
        <ele>1204</ele>
        <time>2024-10-11T09:24:07Z</time>
      </trkpt>
      <trkpt lat="42.79781" lon="1.90505">
        <ele>1204</ele>
        <time>2024-10-11T09:24:08Z</time>
      </trkpt>
      <trkpt lat="42.79785" lon="1.90504">
        <ele>1204.6</ele>
        <time>2024-10-11T09:24:09Z</time>
      </trkpt>
      <trkpt lat="42.79788" lon="1.90503">
        <ele>1204.6</ele>
        <time>2024-10-11T09:24:10Z</time>
      </trkpt>
      <trkpt lat="42.79792" lon="1.90502">
        <ele>1204.6</ele>
        <time>2024-10-11T09:24:11Z</time>
      </trkpt>
      <trkpt lat="42.79796" lon="1.90501">
        <ele>1204.6</ele>
        <time>2024-10-11T09:24:12Z</time>
      </trkpt>
      <trkpt lat="42.79799" lon="1.90499">
        <ele>1204.6</ele>
        <time>2024-10-11T09:24:13Z</time>
      </trkpt>
      <trkpt lat="42.79803" lon="1.90497">
        <ele>1205</ele>
        <time>2024-10-11T09:24:14Z</time>
      </trkpt>
      <trkpt lat="42.79807" lon="1.90496">
        <ele>1205</ele>
        <time>2024-10-11T09:24:15Z</time>
      </trkpt>
      <trkpt lat="42.7981" lon="1.90493">
        <ele>1205</ele>
        <time>2024-10-11T09:24:16Z</time>
      </trkpt>
      <trkpt lat="42.79814" lon="1.90491">
        <ele>1205.4</ele>
        <time>2024-10-11T09:24:17Z</time>
      </trkpt>
      <trkpt lat="42.79817" lon="1.90488">
        <ele>1204.8</ele>
        <time>2024-10-11T09:24:18Z</time>
      </trkpt>
      <trkpt lat="42.7982" lon="1.90485">
        <ele>1204.8</ele>
        <time>2024-10-11T09:24:19Z</time>
      </trkpt>
      <trkpt lat="42.79823" lon="1.90482">
        <ele>1204.8</ele>
        <time>2024-10-11T09:24:20Z</time>
      </trkpt>
      <trkpt lat="42.79826" lon="1.90478">
        <ele>1204.8</ele>
        <time>2024-10-11T09:24:21Z</time>
      </trkpt>
      <trkpt lat="42.79828" lon="1.90474">
        <ele>1205.8</ele>
        <time>2024-10-11T09:24:22Z</time>
      </trkpt>
      <trkpt lat="42.79831" lon="1.90469">
        <ele>1205.6</ele>
        <time>2024-10-11T09:24:23Z</time>
      </trkpt>
      <trkpt lat="42.79833" lon="1.90465">
        <ele>1205.6</ele>
        <time>2024-10-11T09:24:24Z</time>
      </trkpt>
      <trkpt lat="42.79835" lon="1.9046">
        <ele>1205.6</ele>
        <time>2024-10-11T09:24:25Z</time>
      </trkpt>
      <trkpt lat="42.79838" lon="1.90452">
        <ele>1205.4</ele>
        <time>2024-10-11T09:24:26Z</time>
      </trkpt>
      <trkpt lat="42.79839" lon="1.90449">
        <ele>1205.4</ele>
        <time>2024-10-11T09:24:27Z</time>
      </trkpt>
      <trkpt lat="42.79841" lon="1.90444">
        <ele>1205.4</ele>
        <time>2024-10-11T09:24:28Z</time>
      </trkpt>
      <trkpt lat="42.79843" lon="1.90438">
        <ele>1205.4</ele>
        <time>2024-10-11T09:24:29Z</time>
      </trkpt>
      <trkpt lat="42.79844" lon="1.90433">
        <ele>1205.6</ele>
        <time>2024-10-11T09:24:30Z</time>
      </trkpt>
      <trkpt lat="42.79846" lon="1.90427">
        <ele>1205.6</ele>
        <time>2024-10-11T09:24:31Z</time>
      </trkpt>
      <trkpt lat="42.79847" lon="1.90421">
        <ele>1205.6</ele>
        <time>2024-10-11T09:24:32Z</time>
      </trkpt>
      <trkpt lat="42.79849" lon="1.90416">
        <ele>1205.8</ele>
        <time>2024-10-11T09:24:33Z</time>
      </trkpt>
      <trkpt lat="42.7985" lon="1.9041">
        <ele>1205.8</ele>
        <time>2024-10-11T09:24:34Z</time>
      </trkpt>
      <trkpt lat="42.79851" lon="1.90405">
        <ele>1205.8</ele>
        <time>2024-10-11T09:24:35Z</time>
      </trkpt>
      <trkpt lat="42.79852" lon="1.90399">
        <ele>1205.6</ele>
        <time>2024-10-11T09:24:36Z</time>
      </trkpt>
      <trkpt lat="42.79854" lon="1.90393">
        <ele>1205.8</ele>
        <time>2024-10-11T09:24:37Z</time>
      </trkpt>
      <trkpt lat="42.79855" lon="1.90387">
        <ele>1205.8</ele>
        <time>2024-10-11T09:24:38Z</time>
      </trkpt>
      <trkpt lat="42.79856" lon="1.90381">
        <ele>1205.8</ele>
        <time>2024-10-11T09:24:39Z</time>
      </trkpt>
      <trkpt lat="42.79856" lon="1.90375">
        <ele>1206.2</ele>
        <time>2024-10-11T09:24:40Z</time>
      </trkpt>
      <trkpt lat="42.79856" lon="1.90369">
        <ele>1206.2</ele>
        <time>2024-10-11T09:24:41Z</time>
      </trkpt>
      <trkpt lat="42.79857" lon="1.90363">
        <ele>1206.2</ele>
        <time>2024-10-11T09:24:42Z</time>
      </trkpt>
      <trkpt lat="42.79856" lon="1.90357">
        <ele>1206.2</ele>
        <time>2024-10-11T09:24:43Z</time>
      </trkpt>
      <trkpt lat="42.79856" lon="1.9035">
        <ele>1206.2</ele>
        <time>2024-10-11T09:24:44Z</time>
      </trkpt>
      <trkpt lat="42.79855" lon="1.90344">
        <ele>1206.2</ele>
        <time>2024-10-11T09:24:45Z</time>
      </trkpt>
      <trkpt lat="42.79854" lon="1.90338">
        <ele>1206.6</ele>
        <time>2024-10-11T09:24:46Z</time>
      </trkpt>
      <trkpt lat="42.79853" lon="1.90333">
        <ele>1206.6</ele>
        <time>2024-10-11T09:24:47Z</time>
      </trkpt>
      <trkpt lat="42.79853" lon="1.90327">
        <ele>1206.6</ele>
        <time>2024-10-11T09:24:48Z</time>
      </trkpt>
      <trkpt lat="42.79852" lon="1.9032">
        <ele>1206.6</ele>
        <time>2024-10-11T09:24:49Z</time>
      </trkpt>
      <trkpt lat="42.79852" lon="1.90314">
        <ele>1206.4</ele>
        <time>2024-10-11T09:24:50Z</time>
      </trkpt>
      <trkpt lat="42.79851" lon="1.90308">
        <ele>1206.4</ele>
        <time>2024-10-11T09:24:51Z</time>
      </trkpt>
      <trkpt lat="42.79851" lon="1.90301">
        <ele>1206.4</ele>
        <time>2024-10-11T09:24:52Z</time>
      </trkpt>
      <trkpt lat="42.79852" lon="1.90294">
        <ele>1206.8</ele>
        <time>2024-10-11T09:24:53Z</time>
      </trkpt>
      <trkpt lat="42.79853" lon="1.90288">
        <ele>1206.8</ele>
        <time>2024-10-11T09:24:54Z</time>
      </trkpt>
      <trkpt lat="42.79854" lon="1.90281">
        <ele>1206.8</ele>
        <time>2024-10-11T09:24:55Z</time>
      </trkpt>
      <trkpt lat="42.79857" lon="1.90273">
        <ele>1206.8</ele>
        <time>2024-10-11T09:24:56Z</time>
      </trkpt>
      <trkpt lat="42.79858" lon="1.9027">
        <ele>1206.8</ele>
        <time>2024-10-11T09:24:57Z</time>
      </trkpt>
      <trkpt lat="42.79861" lon="1.90265">
        <ele>1207.4</ele>
        <time>2024-10-11T09:24:58Z</time>
      </trkpt>
      <trkpt lat="42.79864" lon="1.9026">
        <ele>1207.4</ele>
        <time>2024-10-11T09:24:59Z</time>
      </trkpt>
      <trkpt lat="42.79867" lon="1.90256">
        <ele>1207.4</ele>
        <time>2024-10-11T09:25:00Z</time>
      </trkpt>
      <trkpt lat="42.7987" lon="1.90251">
        <ele>1207.4</ele>
        <time>2024-10-11T09:25:01Z</time>
      </trkpt>
      <trkpt lat="42.79872" lon="1.90247">
        <ele>1207.8</ele>
        <time>2024-10-11T09:25:02Z</time>
      </trkpt>
      <trkpt lat="42.79875" lon="1.90242">
        <ele>1207.8</ele>
        <time>2024-10-11T09:25:03Z</time>
      </trkpt>
      <trkpt lat="42.79877" lon="1.90236">
        <ele>1207.8</ele>
        <time>2024-10-11T09:25:04Z</time>
      </trkpt>
      <trkpt lat="42.79879" lon="1.9023">
        <ele>1207.8</ele>
        <time>2024-10-11T09:25:05Z</time>
      </trkpt>
      <trkpt lat="42.7988" lon="1.90224">
        <ele>1207.8</ele>
        <time>2024-10-11T09:25:06Z</time>
      </trkpt>
      <trkpt lat="42.79882" lon="1.90218">
        <ele>1207.8</ele>
        <time>2024-10-11T09:25:07Z</time>
      </trkpt>
      <trkpt lat="42.79883" lon="1.90212">
        <ele>1208.2</ele>
        <time>2024-10-11T09:25:08Z</time>
      </trkpt>
      <trkpt lat="42.79883" lon="1.90206">
        <ele>1208.2</ele>
        <time>2024-10-11T09:25:09Z</time>
      </trkpt>
      <trkpt lat="42.79884" lon="1.902">
        <ele>1208.2</ele>
        <time>2024-10-11T09:25:10Z</time>
      </trkpt>
      <trkpt lat="42.79884" lon="1.90193">
        <ele>1208.2</ele>
        <time>2024-10-11T09:25:11Z</time>
      </trkpt>
      <trkpt lat="42.79884" lon="1.90187">
        <ele>1208.2</ele>
        <time>2024-10-11T09:25:12Z</time>
      </trkpt>
      <trkpt lat="42.79883" lon="1.90182">
        <ele>1208.2</ele>
        <time>2024-10-11T09:25:13Z</time>
      </trkpt>
      <trkpt lat="42.79883" lon="1.90176">
        <ele>1208.2</ele>
        <time>2024-10-11T09:25:14Z</time>
      </trkpt>
      <trkpt lat="42.79882" lon="1.9017">
        <ele>1208.2</ele>
        <time>2024-10-11T09:25:15Z</time>
      </trkpt>
      <trkpt lat="42.79881" lon="1.90165">
        <ele>1208.2</ele>
        <time>2024-10-11T09:25:16Z</time>
      </trkpt>
      <trkpt lat="42.7988" lon="1.90159">
        <ele>1209.2</ele>
        <time>2024-10-11T09:25:17Z</time>
      </trkpt>
      <trkpt lat="42.79879" lon="1.90153">
        <ele>1209.2</ele>
        <time>2024-10-11T09:25:18Z</time>
      </trkpt>
      <trkpt lat="42.79878" lon="1.90147">
        <ele>1209.2</ele>
        <time>2024-10-11T09:25:19Z</time>
      </trkpt>
      <trkpt lat="42.79877" lon="1.90141">
        <ele>1209.2</ele>
        <time>2024-10-11T09:25:20Z</time>
      </trkpt>
      <trkpt lat="42.79875" lon="1.90136">
        <ele>1209.2</ele>
        <time>2024-10-11T09:25:21Z</time>
      </trkpt>
      <trkpt lat="42.79873" lon="1.9013">
        <ele>1209.6</ele>
        <time>2024-10-11T09:25:22Z</time>
      </trkpt>
      <trkpt lat="42.7987" lon="1.90121">
        <ele>1209.6</ele>
        <time>2024-10-11T09:25:23Z</time>
      </trkpt>
      <trkpt lat="42.79869" lon="1.90118">
        <ele>1209.6</ele>
        <time>2024-10-11T09:25:24Z</time>
      </trkpt>
      <trkpt lat="42.79867" lon="1.90112">
        <ele>1209.6</ele>
        <time>2024-10-11T09:25:25Z</time>
      </trkpt>
      <trkpt lat="42.79865" lon="1.90107">
        <ele>1209.4</ele>
        <time>2024-10-11T09:25:26Z</time>
      </trkpt>
      <trkpt lat="42.79862" lon="1.90101">
        <ele>1209.4</ele>
        <time>2024-10-11T09:25:27Z</time>
      </trkpt>
      <trkpt lat="42.79859" lon="1.90095">
        <ele>1209.4</ele>
        <time>2024-10-11T09:25:28Z</time>
      </trkpt>
      <trkpt lat="42.79857" lon="1.90089">
        <ele>1209.4</ele>
        <time>2024-10-11T09:25:29Z</time>
      </trkpt>
      <trkpt lat="42.79854" lon="1.90084">
        <ele>1209.4</ele>
        <time>2024-10-11T09:25:30Z</time>
      </trkpt>
      <trkpt lat="42.7985" lon="1.90078">
        <ele>1209.4</ele>
        <time>2024-10-11T09:25:31Z</time>
      </trkpt>
      <trkpt lat="42.79847" lon="1.90072">
        <ele>1209.4</ele>
        <time>2024-10-11T09:25:32Z</time>
      </trkpt>
      <trkpt lat="42.79843" lon="1.90066">
        <ele>1209.4</ele>
        <time>2024-10-11T09:25:33Z</time>
      </trkpt>
      <trkpt lat="42.7984" lon="1.90061">
        <ele>1209</ele>
        <time>2024-10-11T09:25:34Z</time>
      </trkpt>
      <trkpt lat="42.79835" lon="1.90055">
        <ele>1209</ele>
        <time>2024-10-11T09:25:35Z</time>
      </trkpt>
      <trkpt lat="42.79831" lon="1.90049">
        <ele>1209</ele>
        <time>2024-10-11T09:25:36Z</time>
      </trkpt>
      <trkpt lat="42.79827" lon="1.90044">
        <ele>1209</ele>
        <time>2024-10-11T09:25:37Z</time>
      </trkpt>
      <trkpt lat="42.79822" lon="1.90038">
        <ele>1208.4</ele>
        <time>2024-10-11T09:25:38Z</time>
      </trkpt>
      <trkpt lat="42.79817" lon="1.90033">
        <ele>1208</ele>
        <time>2024-10-11T09:25:39Z</time>
      </trkpt>
      <trkpt lat="42.79812" lon="1.90029">
        <ele>1208</ele>
        <time>2024-10-11T09:25:40Z</time>
      </trkpt>
      <trkpt lat="42.79806" lon="1.90025">
        <ele>1208</ele>
        <time>2024-10-11T09:25:41Z</time>
      </trkpt>
      <trkpt lat="42.798" lon="1.90022">
        <ele>1208</ele>
        <time>2024-10-11T09:25:42Z</time>
      </trkpt>
      <trkpt lat="42.79793" lon="1.90018">
        <ele>1207</ele>
        <time>2024-10-11T09:25:43Z</time>
      </trkpt>
      <trkpt lat="42.79787" lon="1.90014">
        <ele>1207</ele>
        <time>2024-10-11T09:25:44Z</time>
      </trkpt>
      <trkpt lat="42.79781" lon="1.90009">
        <ele>1207</ele>
        <time>2024-10-11T09:25:45Z</time>
      </trkpt>
      <trkpt lat="42.79775" lon="1.90003">
        <ele>1207</ele>
        <time>2024-10-11T09:25:46Z</time>
      </trkpt>
      <trkpt lat="42.79769" lon="1.89997">
        <ele>1206.8</ele>
        <time>2024-10-11T09:25:47Z</time>
      </trkpt>
      <trkpt lat="42.79764" lon="1.89989">
        <ele>1206.4</ele>
        <time>2024-10-11T09:25:48Z</time>
      </trkpt>
      <trkpt lat="42.79759" lon="1.89981">
        <ele>1206.4</ele>
        <time>2024-10-11T09:25:49Z</time>
      </trkpt>
      <trkpt lat="42.79755" lon="1.89971">
        <ele>1206.4</ele>
        <time>2024-10-11T09:25:50Z</time>
      </trkpt>
      <trkpt lat="42.79751" lon="1.89962">
        <ele>1205.4</ele>
        <time>2024-10-11T09:25:51Z</time>
      </trkpt>
      <trkpt lat="42.79748" lon="1.89952">
        <ele>1205.2</ele>
        <time>2024-10-11T09:25:52Z</time>
      </trkpt>
      <trkpt lat="42.79746" lon="1.89942">
        <ele>1205.2</ele>
        <time>2024-10-11T09:25:53Z</time>
      </trkpt>
      <trkpt lat="42.79744" lon="1.89931">
        <ele>1205.2</ele>
        <time>2024-10-11T09:25:54Z</time>
      </trkpt>
      <trkpt lat="42.79742" lon="1.8992">
        <ele>1204.8</ele>
        <time>2024-10-11T09:25:55Z</time>
      </trkpt>
      <trkpt lat="42.7974" lon="1.8991">
        <ele>1204.8</ele>
        <time>2024-10-11T09:25:56Z</time>
      </trkpt>
      <trkpt lat="42.79737" lon="1.899">
        <ele>1204</ele>
        <time>2024-10-11T09:25:57Z</time>
      </trkpt>
      <trkpt lat="42.79734" lon="1.89889">
        <ele>1204</ele>
        <time>2024-10-11T09:25:58Z</time>
      </trkpt>
      <trkpt lat="42.79731" lon="1.8988">
        <ele>1204</ele>
        <time>2024-10-11T09:25:59Z</time>
      </trkpt>
      <trkpt lat="42.79726" lon="1.89871">
        <ele>1204</ele>
        <time>2024-10-11T09:26:00Z</time>
      </trkpt>
      <trkpt lat="42.79722" lon="1.89862">
        <ele>1204</ele>
        <time>2024-10-11T09:26:01Z</time>
      </trkpt>
      <trkpt lat="42.79717" lon="1.89854">
        <ele>1203.4</ele>
        <time>2024-10-11T09:26:02Z</time>
      </trkpt>
      <trkpt lat="42.79712" lon="1.89846">
        <ele>1203.4</ele>
        <time>2024-10-11T09:26:03Z</time>
      </trkpt>
      <trkpt lat="42.79707" lon="1.89838">
        <ele>1203.4</ele>
        <time>2024-10-11T09:26:04Z</time>
      </trkpt>
      <trkpt lat="42.79702" lon="1.8983">
        <ele>1202.4</ele>
        <time>2024-10-11T09:26:05Z</time>
      </trkpt>
      <trkpt lat="42.79697" lon="1.89823">
        <ele>1202</ele>
        <time>2024-10-11T09:26:06Z</time>
      </trkpt>
      <trkpt lat="42.79691" lon="1.89815">
        <ele>1202</ele>
        <time>2024-10-11T09:26:07Z</time>
      </trkpt>
      <trkpt lat="42.79686" lon="1.89807">
        <ele>1202</ele>
        <time>2024-10-11T09:26:08Z</time>
      </trkpt>
      <trkpt lat="42.79681" lon="1.89799">
        <ele>1201.6</ele>
        <time>2024-10-11T09:26:09Z</time>
      </trkpt>
      <trkpt lat="42.79675" lon="1.89791">
        <ele>1200.4</ele>
        <time>2024-10-11T09:26:10Z</time>
      </trkpt>
      <trkpt lat="42.79669" lon="1.89783">
        <ele>1200.4</ele>
        <time>2024-10-11T09:26:11Z</time>
      </trkpt>
      <trkpt lat="42.79664" lon="1.89776">
        <ele>1200.4</ele>
        <time>2024-10-11T09:26:12Z</time>
      </trkpt>
      <trkpt lat="42.79658" lon="1.89769">
        <ele>1200.4</ele>
        <time>2024-10-11T09:26:13Z</time>
      </trkpt>
      <trkpt lat="42.79651" lon="1.89762">
        <ele>1200.4</ele>
        <time>2024-10-11T09:26:14Z</time>
      </trkpt>
      <trkpt lat="42.79645" lon="1.89755">
        <ele>1199.4</ele>
        <time>2024-10-11T09:26:15Z</time>
      </trkpt>
      <trkpt lat="42.79639" lon="1.89747">
        <ele>1199.4</ele>
        <time>2024-10-11T09:26:16Z</time>
      </trkpt>
      <trkpt lat="42.79633" lon="1.8974">
        <ele>1199.4</ele>
        <time>2024-10-11T09:26:17Z</time>
      </trkpt>
      <trkpt lat="42.79626" lon="1.89733">
        <ele>1199.4</ele>
        <time>2024-10-11T09:26:18Z</time>
      </trkpt>
      <trkpt lat="42.7962" lon="1.89725">
        <ele>1198</ele>
        <time>2024-10-11T09:26:19Z</time>
      </trkpt>
      <trkpt lat="42.79614" lon="1.89718">
        <ele>1198</ele>
        <time>2024-10-11T09:26:20Z</time>
      </trkpt>
      <trkpt lat="42.79608" lon="1.89711">
        <ele>1198</ele>
        <time>2024-10-11T09:26:21Z</time>
      </trkpt>
      <trkpt lat="42.79602" lon="1.89704">
        <ele>1198</ele>
        <time>2024-10-11T09:26:22Z</time>
      </trkpt>
      <trkpt lat="42.79595" lon="1.89697">
        <ele>1198</ele>
        <time>2024-10-11T09:26:23Z</time>
      </trkpt>
      <trkpt lat="42.79589" lon="1.89689">
        <ele>1197.2</ele>
        <time>2024-10-11T09:26:24Z</time>
      </trkpt>
      <trkpt lat="42.79583" lon="1.89682">
        <ele>1197.2</ele>
        <time>2024-10-11T09:26:25Z</time>
      </trkpt>
      <trkpt lat="42.79577" lon="1.89675">
        <ele>1197.2</ele>
        <time>2024-10-11T09:26:26Z</time>
      </trkpt>
      <trkpt lat="42.79571" lon="1.89667">
        <ele>1196.6</ele>
        <time>2024-10-11T09:26:27Z</time>
      </trkpt>
      <trkpt lat="42.79566" lon="1.89659">
        <ele>1196.6</ele>
        <time>2024-10-11T09:26:28Z</time>
      </trkpt>
      <trkpt lat="42.79561" lon="1.8965">
        <ele>1196.6</ele>
        <time>2024-10-11T09:26:29Z</time>
      </trkpt>
      <trkpt lat="42.79557" lon="1.89641">
        <ele>1196.6</ele>
        <time>2024-10-11T09:26:30Z</time>
      </trkpt>
      <trkpt lat="42.79555" lon="1.89632">
        <ele>1196.4</ele>
        <time>2024-10-11T09:26:31Z</time>
      </trkpt>
      <trkpt lat="42.79553" lon="1.89622">
        <ele>1196.4</ele>
        <time>2024-10-11T09:26:32Z</time>
      </trkpt>
      <trkpt lat="42.79552" lon="1.89612">
        <ele>1196.2</ele>
        <time>2024-10-11T09:26:33Z</time>
      </trkpt>
      <trkpt lat="42.79551" lon="1.89602">
        <ele>1196.2</ele>
        <time>2024-10-11T09:26:34Z</time>
      </trkpt>
      <trkpt lat="42.79551" lon="1.89593">
        <ele>1196.2</ele>
        <time>2024-10-11T09:26:35Z</time>
      </trkpt>
      <trkpt lat="42.79552" lon="1.89583">
        <ele>1196.2</ele>
        <time>2024-10-11T09:26:36Z</time>
      </trkpt>
      <trkpt lat="42.79553" lon="1.89573">
        <ele>1195.6</ele>
        <time>2024-10-11T09:26:37Z</time>
      </trkpt>
      <trkpt lat="42.79554" lon="1.89563">
        <ele>1195.6</ele>
        <time>2024-10-11T09:26:38Z</time>
      </trkpt>
      <trkpt lat="42.79555" lon="1.89553">
        <ele>1195.6</ele>
        <time>2024-10-11T09:26:39Z</time>
      </trkpt>
      <trkpt lat="42.79556" lon="1.89544">
        <ele>1195.6</ele>
        <time>2024-10-11T09:26:40Z</time>
      </trkpt>
      <trkpt lat="42.79557" lon="1.89534">
        <ele>1195.6</ele>
        <time>2024-10-11T09:26:41Z</time>
      </trkpt>
      <trkpt lat="42.79558" lon="1.89524">
        <ele>1195.2</ele>
        <time>2024-10-11T09:26:42Z</time>
      </trkpt>
      <trkpt lat="42.79558" lon="1.89514">
        <ele>1195.2</ele>
        <time>2024-10-11T09:26:43Z</time>
      </trkpt>
      <trkpt lat="42.79557" lon="1.89504">
        <ele>1195.2</ele>
        <time>2024-10-11T09:26:44Z</time>
      </trkpt>
      <trkpt lat="42.79556" lon="1.89494">
        <ele>1195.2</ele>
        <time>2024-10-11T09:26:45Z</time>
      </trkpt>
      <trkpt lat="42.79554" lon="1.89484">
        <ele>1194.8</ele>
        <time>2024-10-11T09:26:46Z</time>
      </trkpt>
      <trkpt lat="42.79553" lon="1.89474">
        <ele>1194.8</ele>
        <time>2024-10-11T09:26:47Z</time>
      </trkpt>
      <trkpt lat="42.7955" lon="1.89458">
        <ele>1194.8</ele>
        <time>2024-10-11T09:26:48Z</time>
      </trkpt>
      <trkpt lat="42.79548" lon="1.89453">
        <ele>1194.8</ele>
        <time>2024-10-11T09:26:49Z</time>
      </trkpt>
      <trkpt lat="42.79546" lon="1.89444">
        <ele>1194.6</ele>
        <time>2024-10-11T09:26:50Z</time>
      </trkpt>
      <trkpt lat="42.79544" lon="1.89434">
        <ele>1194.4</ele>
        <time>2024-10-11T09:26:51Z</time>
      </trkpt>
      <trkpt lat="42.79541" lon="1.89424">
        <ele>1194.4</ele>
        <time>2024-10-11T09:26:52Z</time>
      </trkpt>
      <trkpt lat="42.79539" lon="1.89414">
        <ele>1194.4</ele>
        <time>2024-10-11T09:26:53Z</time>
      </trkpt>
      <trkpt lat="42.79536" lon="1.89404">
        <ele>1193.8</ele>
        <time>2024-10-11T09:26:54Z</time>
      </trkpt>
      <trkpt lat="42.79533" lon="1.89394">
        <ele>1193.8</ele>
        <time>2024-10-11T09:26:55Z</time>
      </trkpt>
      <trkpt lat="42.79531" lon="1.89385">
        <ele>1193.6</ele>
        <time>2024-10-11T09:26:56Z</time>
      </trkpt>
      <trkpt lat="42.79528" lon="1.89375">
        <ele>1193.6</ele>
        <time>2024-10-11T09:26:57Z</time>
      </trkpt>
      <trkpt lat="42.79526" lon="1.89365">
        <ele>1193.6</ele>
        <time>2024-10-11T09:26:58Z</time>
      </trkpt>
      <trkpt lat="42.79523" lon="1.89355">
        <ele>1193.6</ele>
        <time>2024-10-11T09:26:59Z</time>
      </trkpt>
      <trkpt lat="42.7952" lon="1.89346">
        <ele>1193.4</ele>
        <time>2024-10-11T09:27:00Z</time>
      </trkpt>
      <trkpt lat="42.79517" lon="1.89336">
        <ele>1193.4</ele>
        <time>2024-10-11T09:27:01Z</time>
      </trkpt>
      <trkpt lat="42.79514" lon="1.89327">
        <ele>1193.4</ele>
        <time>2024-10-11T09:27:02Z</time>
      </trkpt>
      <trkpt lat="42.7951" lon="1.89317">
        <ele>1193.4</ele>
        <time>2024-10-11T09:27:03Z</time>
      </trkpt>
      <trkpt lat="42.79506" lon="1.89308">
        <ele>1193.4</ele>
        <time>2024-10-11T09:27:04Z</time>
      </trkpt>
      <trkpt lat="42.79501" lon="1.893">
        <ele>1193.2</ele>
        <time>2024-10-11T09:27:05Z</time>
      </trkpt>
      <trkpt lat="42.79497" lon="1.89292">
        <ele>1193.2</ele>
        <time>2024-10-11T09:27:06Z</time>
      </trkpt>
      <trkpt lat="42.79492" lon="1.89284">
        <ele>1193.2</ele>
        <time>2024-10-11T09:27:07Z</time>
      </trkpt>
      <trkpt lat="42.79487" lon="1.89276">
        <ele>1192.2</ele>
        <time>2024-10-11T09:27:08Z</time>
      </trkpt>
      <trkpt lat="42.79483" lon="1.89268">
        <ele>1192.6</ele>
        <time>2024-10-11T09:27:09Z</time>
      </trkpt>
      <trkpt lat="42.79478" lon="1.8926">
        <ele>1192.6</ele>
        <time>2024-10-11T09:27:10Z</time>
      </trkpt>
      <trkpt lat="42.79473" lon="1.89253">
        <ele>1192.6</ele>
        <time>2024-10-11T09:27:11Z</time>
      </trkpt>
      <trkpt lat="42.79468" lon="1.89245">
        <ele>1192.6</ele>
        <time>2024-10-11T09:27:12Z</time>
      </trkpt>
      <trkpt lat="42.79463" lon="1.89237">
        <ele>1192</ele>
        <time>2024-10-11T09:27:13Z</time>
      </trkpt>
      <trkpt lat="42.79455" lon="1.89227">
        <ele>1192</ele>
        <time>2024-10-11T09:27:14Z</time>
      </trkpt>
      <trkpt lat="42.79452" lon="1.89223">
        <ele>1192</ele>
        <time>2024-10-11T09:27:15Z</time>
      </trkpt>
      <trkpt lat="42.79447" lon="1.89216">
        <ele>1192</ele>
        <time>2024-10-11T09:27:16Z</time>
      </trkpt>
      <trkpt lat="42.79441" lon="1.89209">
        <ele>1192</ele>
        <time>2024-10-11T09:27:17Z</time>
      </trkpt>
      <trkpt lat="42.79436" lon="1.89203">
        <ele>1192</ele>
        <time>2024-10-11T09:27:18Z</time>
      </trkpt>
      <trkpt lat="42.7943" lon="1.89196">
        <ele>1192</ele>
        <time>2024-10-11T09:27:19Z</time>
      </trkpt>
      <trkpt lat="42.79424" lon="1.8919">
        <ele>1192</ele>
        <time>2024-10-11T09:27:20Z</time>
      </trkpt>
      <trkpt lat="42.79419" lon="1.89183">
        <ele>1191.8</ele>
        <time>2024-10-11T09:27:21Z</time>
      </trkpt>
      <trkpt lat="42.79413" lon="1.89177">
        <ele>1191.6</ele>
        <time>2024-10-11T09:27:22Z</time>
      </trkpt>
      <trkpt lat="42.79407" lon="1.89172">
        <ele>1191.6</ele>
        <time>2024-10-11T09:27:23Z</time>
      </trkpt>
      <trkpt lat="42.79401" lon="1.89167">
        <ele>1191.6</ele>
        <time>2024-10-11T09:27:24Z</time>
      </trkpt>
      <trkpt lat="42.79395" lon="1.89162">
        <ele>1191.6</ele>
        <time>2024-10-11T09:27:25Z</time>
      </trkpt>
      <trkpt lat="42.79389" lon="1.89157">
        <ele>1191.6</ele>
        <time>2024-10-11T09:27:26Z</time>
      </trkpt>
      <trkpt lat="42.79383" lon="1.89152">
        <ele>1192</ele>
        <time>2024-10-11T09:27:27Z</time>
      </trkpt>
      <trkpt lat="42.79377" lon="1.89147">
        <ele>1192</ele>
        <time>2024-10-11T09:27:28Z</time>
      </trkpt>
      <trkpt lat="42.79372" lon="1.89142">
        <ele>1192</ele>
        <time>2024-10-11T09:27:29Z</time>
      </trkpt>
      <trkpt lat="42.79366" lon="1.89137">
        <ele>1192</ele>
        <time>2024-10-11T09:27:30Z</time>
      </trkpt>
      <trkpt lat="42.79361" lon="1.89133">
        <ele>1191.4</ele>
        <time>2024-10-11T09:27:31Z</time>
      </trkpt>
      <trkpt lat="42.79356" lon="1.89128">
        <ele>1191.2</ele>
        <time>2024-10-11T09:27:32Z</time>
      </trkpt>
      <trkpt lat="42.7935" lon="1.89123">
        <ele>1191.2</ele>
        <time>2024-10-11T09:27:33Z</time>
      </trkpt>
      <trkpt lat="42.79345" lon="1.89119">
        <ele>1191.2</ele>
        <time>2024-10-11T09:27:34Z</time>
      </trkpt>
      <trkpt lat="42.7934" lon="1.89114">
        <ele>1192.2</ele>
        <time>2024-10-11T09:27:35Z</time>
      </trkpt>
      <trkpt lat="42.79336" lon="1.8911">
        <ele>1192.2</ele>
        <time>2024-10-11T09:27:36Z</time>
      </trkpt>
      <trkpt lat="42.79331" lon="1.89105">
        <ele>1192.2</ele>
        <time>2024-10-11T09:27:37Z</time>
      </trkpt>
      <trkpt lat="42.79326" lon="1.89101">
        <ele>1192.2</ele>
        <time>2024-10-11T09:27:38Z</time>
      </trkpt>
      <trkpt lat="42.79321" lon="1.89097">
        <ele>1192.4</ele>
        <time>2024-10-11T09:27:39Z</time>
      </trkpt>
      <trkpt lat="42.79317" lon="1.89092">
        <ele>1192.2</ele>
        <time>2024-10-11T09:27:40Z</time>
      </trkpt>
      <trkpt lat="42.79312" lon="1.89088">
        <ele>1192.2</ele>
        <time>2024-10-11T09:27:41Z</time>
      </trkpt>
      <trkpt lat="42.79307" lon="1.89084">
        <ele>1192.2</ele>
        <time>2024-10-11T09:27:42Z</time>
      </trkpt>
      <trkpt lat="42.79303" lon="1.89079">
        <ele>1192.2</ele>
        <time>2024-10-11T09:27:43Z</time>
      </trkpt>
      <trkpt lat="42.79298" lon="1.89075">
        <ele>1192.6</ele>
        <time>2024-10-11T09:27:44Z</time>
      </trkpt>
      <trkpt lat="42.79294" lon="1.8907">
        <ele>1192.8</ele>
        <time>2024-10-11T09:27:45Z</time>
      </trkpt>
      <trkpt lat="42.79289" lon="1.89066">
        <ele>1192.8</ele>
        <time>2024-10-11T09:27:46Z</time>
      </trkpt>
      <trkpt lat="42.79285" lon="1.89063">
        <ele>1192.8</ele>
        <time>2024-10-11T09:27:47Z</time>
      </trkpt>
      <trkpt lat="42.7928" lon="1.89059">
        <ele>1192.8</ele>
        <time>2024-10-11T09:27:48Z</time>
      </trkpt>
      <trkpt lat="42.79275" lon="1.89055">
        <ele>1193.2</ele>
        <time>2024-10-11T09:27:49Z</time>
      </trkpt>
      <trkpt lat="42.79271" lon="1.89052">
        <ele>1193.2</ele>
        <time>2024-10-11T09:27:50Z</time>
      </trkpt>
      <trkpt lat="42.79266" lon="1.89047">
        <ele>1193.2</ele>
        <time>2024-10-11T09:27:51Z</time>
      </trkpt>
      <trkpt lat="42.79262" lon="1.89044">
        <ele>1193.2</ele>
        <time>2024-10-11T09:27:52Z</time>
      </trkpt>
      <trkpt lat="42.79258" lon="1.8904">
        <ele>1194</ele>
        <time>2024-10-11T09:27:53Z</time>
      </trkpt>
      <trkpt lat="42.79254" lon="1.89035">
        <ele>1194</ele>
        <time>2024-10-11T09:27:54Z</time>
      </trkpt>
      <trkpt lat="42.7925" lon="1.89032">
        <ele>1194</ele>
        <time>2024-10-11T09:27:55Z</time>
      </trkpt>
      <trkpt lat="42.79245" lon="1.89028">
        <ele>1194</ele>
        <time>2024-10-11T09:27:56Z</time>
      </trkpt>
      <trkpt lat="42.79241" lon="1.89024">
        <ele>1194</ele>
        <time>2024-10-11T09:27:57Z</time>
      </trkpt>
      <trkpt lat="42.79237" lon="1.8902">
        <ele>1194</ele>
        <time>2024-10-11T09:27:58Z</time>
      </trkpt>
      <trkpt lat="42.79233" lon="1.89016">
        <ele>1194</ele>
        <time>2024-10-11T09:27:59Z</time>
      </trkpt>
      <trkpt lat="42.7923" lon="1.89013">
        <ele>1194</ele>
        <time>2024-10-11T09:28:00Z</time>
      </trkpt>
      <trkpt lat="42.79226" lon="1.89009">
        <ele>1194.6</ele>
        <time>2024-10-11T09:28:01Z</time>
      </trkpt>
      <trkpt lat="42.79223" lon="1.89005">
        <ele>1194.6</ele>
        <time>2024-10-11T09:28:02Z</time>
      </trkpt>
      <trkpt lat="42.79219" lon="1.89">
        <ele>1194.6</ele>
        <time>2024-10-11T09:28:03Z</time>
      </trkpt>
      <trkpt lat="42.79216" lon="1.88996">
        <ele>1194.6</ele>
        <time>2024-10-11T09:28:04Z</time>
      </trkpt>
      <trkpt lat="42.79212" lon="1.88991">
        <ele>1194.6</ele>
        <time>2024-10-11T09:28:05Z</time>
      </trkpt>
      <trkpt lat="42.79208" lon="1.88986">
        <ele>1194.6</ele>
        <time>2024-10-11T09:28:06Z</time>
      </trkpt>
      <trkpt lat="42.79205" lon="1.88982">
        <ele>1195</ele>
        <time>2024-10-11T09:28:07Z</time>
      </trkpt>
      <trkpt lat="42.79202" lon="1.88978">
        <ele>1194.8</ele>
        <time>2024-10-11T09:28:08Z</time>
      </trkpt>
      <trkpt lat="42.79199" lon="1.88973">
        <ele>1194.8</ele>
        <time>2024-10-11T09:28:09Z</time>
      </trkpt>
      <trkpt lat="42.79196" lon="1.88968">
        <ele>1194.8</ele>
        <time>2024-10-11T09:28:10Z</time>
      </trkpt>
      <trkpt lat="42.79192" lon="1.88964">
        <ele>1195</ele>
        <time>2024-10-11T09:28:11Z</time>
      </trkpt>
      <trkpt lat="42.79189" lon="1.88959">
        <ele>1195.2</ele>
        <time>2024-10-11T09:28:12Z</time>
      </trkpt>
      <trkpt lat="42.79185" lon="1.88955">
        <ele>1195.2</ele>
        <time>2024-10-11T09:28:13Z</time>
      </trkpt>
      <trkpt lat="42.79182" lon="1.8895">
        <ele>1195.2</ele>
        <time>2024-10-11T09:28:14Z</time>
      </trkpt>
      <trkpt lat="42.79178" lon="1.88946">
        <ele>1195.4</ele>
        <time>2024-10-11T09:28:15Z</time>
      </trkpt>
      <trkpt lat="42.79175" lon="1.88941">
        <ele>1195.6</ele>
        <time>2024-10-11T09:28:16Z</time>
      </trkpt>
      <trkpt lat="42.79171" lon="1.88937">
        <ele>1195.6</ele>
        <time>2024-10-11T09:28:17Z</time>
      </trkpt>
      <trkpt lat="42.79168" lon="1.88932">
        <ele>1195.6</ele>
        <time>2024-10-11T09:28:18Z</time>
      </trkpt>
      <trkpt lat="42.79165" lon="1.88928">
        <ele>1195.6</ele>
        <time>2024-10-11T09:28:19Z</time>
      </trkpt>
      <trkpt lat="42.79162" lon="1.88923">
        <ele>1195.6</ele>
        <time>2024-10-11T09:28:20Z</time>
      </trkpt>
      <trkpt lat="42.79158" lon="1.88918">
        <ele>1195.6</ele>
        <time>2024-10-11T09:28:21Z</time>
      </trkpt>
      <trkpt lat="42.79155" lon="1.88914">
        <ele>1195.6</ele>
        <time>2024-10-11T09:28:22Z</time>
      </trkpt>
      <trkpt lat="42.79152" lon="1.88909">
        <ele>1195.6</ele>
        <time>2024-10-11T09:28:23Z</time>
      </trkpt>
      <trkpt lat="42.79149" lon="1.88904">
        <ele>1196.4</ele>
        <time>2024-10-11T09:28:24Z</time>
      </trkpt>
      <trkpt lat="42.79146" lon="1.88899">
        <ele>1196.4</ele>
        <time>2024-10-11T09:28:25Z</time>
      </trkpt>
      <trkpt lat="42.79143" lon="1.88894">
        <ele>1196.2</ele>
        <time>2024-10-11T09:28:26Z</time>
      </trkpt>
      <trkpt lat="42.79141" lon="1.88889">
        <ele>1196.2</ele>
        <time>2024-10-11T09:28:27Z</time>
      </trkpt>
      <trkpt lat="42.79139" lon="1.88883">
        <ele>1196.2</ele>
        <time>2024-10-11T09:28:28Z</time>
      </trkpt>
      <trkpt lat="42.79137" lon="1.88877">
        <ele>1196.2</ele>
        <time>2024-10-11T09:28:29Z</time>
      </trkpt>
      <trkpt lat="42.79135" lon="1.88871">
        <ele>1196.6</ele>
        <time>2024-10-11T09:28:30Z</time>
      </trkpt>
      <trkpt lat="42.79134" lon="1.88866">
        <ele>1196.6</ele>
        <time>2024-10-11T09:28:31Z</time>
      </trkpt>
      <trkpt lat="42.79132" lon="1.8886">
        <ele>1196.6</ele>
        <time>2024-10-11T09:28:32Z</time>
      </trkpt>
      <trkpt lat="42.79131" lon="1.88851">
        <ele>1196.6</ele>
        <time>2024-10-11T09:28:33Z</time>
      </trkpt>
      <trkpt lat="42.79131" lon="1.88848">
        <ele>1197</ele>
        <time>2024-10-11T09:28:34Z</time>
      </trkpt>
      <trkpt lat="42.7913" lon="1.88842">
        <ele>1197</ele>
        <time>2024-10-11T09:28:35Z</time>
      </trkpt>
      <trkpt lat="42.79129" lon="1.88837">
        <ele>1197</ele>
        <time>2024-10-11T09:28:36Z</time>
      </trkpt>
      <trkpt lat="42.79129" lon="1.88831">
        <ele>1197</ele>
        <time>2024-10-11T09:28:37Z</time>
      </trkpt>
      <trkpt lat="42.79128" lon="1.88826">
        <ele>1197.6</ele>
        <time>2024-10-11T09:28:38Z</time>
      </trkpt>
      <trkpt lat="42.79128" lon="1.88821">
        <ele>1197.6</ele>
        <time>2024-10-11T09:28:39Z</time>
      </trkpt>
      <trkpt lat="42.79127" lon="1.88816">
        <ele>1197.6</ele>
        <time>2024-10-11T09:28:40Z</time>
      </trkpt>
      <trkpt lat="42.79127" lon="1.88811">
        <ele>1198.2</ele>
        <time>2024-10-11T09:28:41Z</time>
      </trkpt>
      <trkpt lat="42.79126" lon="1.88807">
        <ele>1198.2</ele>
        <time>2024-10-11T09:28:42Z</time>
      </trkpt>
      <trkpt lat="42.79126" lon="1.88802">
        <ele>1198.2</ele>
        <time>2024-10-11T09:28:43Z</time>
      </trkpt>
      <trkpt lat="42.79125" lon="1.88798">
        <ele>1198.2</ele>
        <time>2024-10-11T09:28:44Z</time>
      </trkpt>
      <trkpt lat="42.79125" lon="1.88794">
        <ele>1198.2</ele>
        <time>2024-10-11T09:28:45Z</time>
      </trkpt>
      <trkpt lat="42.79124" lon="1.8879">
        <ele>1198.6</ele>
        <time>2024-10-11T09:28:46Z</time>
      </trkpt>
      <trkpt lat="42.79124" lon="1.88785">
        <ele>1198.8</ele>
        <time>2024-10-11T09:28:47Z</time>
      </trkpt>
      <trkpt lat="42.79123" lon="1.88781">
        <ele>1198.8</ele>
        <time>2024-10-11T09:28:48Z</time>
      </trkpt>
      <trkpt lat="42.79123" lon="1.88777">
        <ele>1198.8</ele>
        <time>2024-10-11T09:28:49Z</time>
      </trkpt>
      <trkpt lat="42.79122" lon="1.88774">
        <ele>1198.8</ele>
        <time>2024-10-11T09:28:50Z</time>
      </trkpt>
      <trkpt lat="42.79121" lon="1.88769">
        <ele>1199.2</ele>
        <time>2024-10-11T09:28:51Z</time>
      </trkpt>
      <trkpt lat="42.79121" lon="1.88765">
        <ele>1199.6</ele>
        <time>2024-10-11T09:28:52Z</time>
      </trkpt>
      <trkpt lat="42.7912" lon="1.88761">
        <ele>1199.6</ele>
        <time>2024-10-11T09:28:53Z</time>
      </trkpt>
      <trkpt lat="42.79119" lon="1.88758">
        <ele>1199.6</ele>
        <time>2024-10-11T09:28:54Z</time>
      </trkpt>
      <trkpt lat="42.79118" lon="1.88754">
        <ele>1199.6</ele>
        <time>2024-10-11T09:28:55Z</time>
      </trkpt>
      <trkpt lat="42.79117" lon="1.8875">
        <ele>1200.2</ele>
        <time>2024-10-11T09:28:56Z</time>
      </trkpt>
      <trkpt lat="42.79116" lon="1.88746">
        <ele>1200.2</ele>
        <time>2024-10-11T09:28:57Z</time>
      </trkpt>
      <trkpt lat="42.79115" lon="1.88742">
        <ele>1200.2</ele>
        <time>2024-10-11T09:28:58Z</time>
      </trkpt>
      <trkpt lat="42.79114" lon="1.88738">
        <ele>1200.2</ele>
        <time>2024-10-11T09:28:59Z</time>
      </trkpt>
      <trkpt lat="42.79113" lon="1.88734">
        <ele>1200.2</ele>
        <time>2024-10-11T09:29:00Z</time>
      </trkpt>
      <trkpt lat="42.79111" lon="1.88731">
        <ele>1200.6</ele>
        <time>2024-10-11T09:29:01Z</time>
      </trkpt>
      <trkpt lat="42.7911" lon="1.88727">
        <ele>1200.6</ele>
        <time>2024-10-11T09:29:02Z</time>
      </trkpt>
      <trkpt lat="42.79109" lon="1.88723">
        <ele>1200.6</ele>
        <time>2024-10-11T09:29:03Z</time>
      </trkpt>
      <trkpt lat="42.79108" lon="1.88719">
        <ele>1201.2</ele>
        <time>2024-10-11T09:29:04Z</time>
      </trkpt>
      <trkpt lat="42.79106" lon="1.88716">
        <ele>1201</ele>
        <time>2024-10-11T09:29:05Z</time>
      </trkpt>
      <trkpt lat="42.79105" lon="1.88712">
        <ele>1201</ele>
        <time>2024-10-11T09:29:06Z</time>
      </trkpt>
      <trkpt lat="42.79104" lon="1.88708">
        <ele>1201</ele>
        <time>2024-10-11T09:29:07Z</time>
      </trkpt>
      <trkpt lat="42.79103" lon="1.88705">
        <ele>1201.4</ele>
        <time>2024-10-11T09:29:08Z</time>
      </trkpt>
      <trkpt lat="42.79101" lon="1.88701">
        <ele>1201.4</ele>
        <time>2024-10-11T09:29:09Z</time>
      </trkpt>
      <trkpt lat="42.791" lon="1.88698">
        <ele>1201.6</ele>
        <time>2024-10-11T09:29:10Z</time>
      </trkpt>
      <trkpt lat="42.79099" lon="1.88694">
        <ele>1201.6</ele>
        <time>2024-10-11T09:29:11Z</time>
      </trkpt>
      <trkpt lat="42.79098" lon="1.8869">
        <ele>1201.6</ele>
        <time>2024-10-11T09:29:12Z</time>
      </trkpt>
      <trkpt lat="42.79097" lon="1.88687">
        <ele>1202</ele>
        <time>2024-10-11T09:29:13Z</time>
      </trkpt>
      <trkpt lat="42.79096" lon="1.88683">
        <ele>1202.4</ele>
        <time>2024-10-11T09:29:14Z</time>
      </trkpt>
      <trkpt lat="42.79094" lon="1.88679">
        <ele>1202.4</ele>
        <time>2024-10-11T09:29:15Z</time>
      </trkpt>
      <trkpt lat="42.79093" lon="1.88676">
        <ele>1202.4</ele>
        <time>2024-10-11T09:29:16Z</time>
      </trkpt>
      <trkpt lat="42.79092" lon="1.88672">
        <ele>1202.8</ele>
        <time>2024-10-11T09:29:17Z</time>
      </trkpt>
      <trkpt lat="42.7909" lon="1.88669">
        <ele>1203</ele>
        <time>2024-10-11T09:29:18Z</time>
      </trkpt>
      <trkpt lat="42.79089" lon="1.88665">
        <ele>1203</ele>
        <time>2024-10-11T09:29:19Z</time>
      </trkpt>
      <trkpt lat="42.79088" lon="1.88662">
        <ele>1203</ele>
        <time>2024-10-11T09:29:20Z</time>
      </trkpt>
      <trkpt lat="42.79086" lon="1.88658">
        <ele>1203</ele>
        <time>2024-10-11T09:29:21Z</time>
      </trkpt>
      <trkpt lat="42.79085" lon="1.88654">
        <ele>1203.2</ele>
        <time>2024-10-11T09:29:22Z</time>
      </trkpt>
      <trkpt lat="42.79084" lon="1.88651">
        <ele>1203.6</ele>
        <time>2024-10-11T09:29:23Z</time>
      </trkpt>
      <trkpt lat="42.79082" lon="1.88647">
        <ele>1203.6</ele>
        <time>2024-10-11T09:29:24Z</time>
      </trkpt>
      <trkpt lat="42.79081" lon="1.88641">
        <ele>1203.6</ele>
        <time>2024-10-11T09:29:25Z</time>
      </trkpt>
      <trkpt lat="42.7908" lon="1.8864">
        <ele>1204</ele>
        <time>2024-10-11T09:29:26Z</time>
      </trkpt>
      <trkpt lat="42.79079" lon="1.88636">
        <ele>1204.4</ele>
        <time>2024-10-11T09:29:27Z</time>
      </trkpt>
      <trkpt lat="42.79078" lon="1.88632">
        <ele>1204.4</ele>
        <time>2024-10-11T09:29:28Z</time>
      </trkpt>
      <trkpt lat="42.79077" lon="1.88629">
        <ele>1204.4</ele>
        <time>2024-10-11T09:29:29Z</time>
      </trkpt>
      <trkpt lat="42.79076" lon="1.88625">
        <ele>1204.4</ele>
        <time>2024-10-11T09:29:30Z</time>
      </trkpt>
      <trkpt lat="42.79075" lon="1.88622">
        <ele>1204.4</ele>
        <time>2024-10-11T09:29:31Z</time>
      </trkpt>
      <trkpt lat="42.79074" lon="1.88618">
        <ele>1204.4</ele>
        <time>2024-10-11T09:29:32Z</time>
      </trkpt>
      <trkpt lat="42.79073" lon="1.88614">
        <ele>1204.8</ele>
        <time>2024-10-11T09:29:33Z</time>
      </trkpt>
      <trkpt lat="42.79072" lon="1.8861">
        <ele>1204.8</ele>
        <time>2024-10-11T09:29:34Z</time>
      </trkpt>
      <trkpt lat="42.79071" lon="1.88607">
        <ele>1204.8</ele>
        <time>2024-10-11T09:29:35Z</time>
      </trkpt>
      <trkpt lat="42.7907" lon="1.88603">
        <ele>1204.8</ele>
        <time>2024-10-11T09:29:36Z</time>
      </trkpt>
      <trkpt lat="42.79068" lon="1.886">
        <ele>1205.4</ele>
        <time>2024-10-11T09:29:37Z</time>
      </trkpt>
      <trkpt lat="42.79067" lon="1.88596">
        <ele>1205.4</ele>
        <time>2024-10-11T09:29:38Z</time>
      </trkpt>
      <trkpt lat="42.79066" lon="1.88593">
        <ele>1205.4</ele>
        <time>2024-10-11T09:29:39Z</time>
      </trkpt>
      <trkpt lat="42.79065" lon="1.88589">
        <ele>1205.4</ele>
        <time>2024-10-11T09:29:40Z</time>
      </trkpt>
      <trkpt lat="42.79063" lon="1.88585">
        <ele>1206</ele>
        <time>2024-10-11T09:29:41Z</time>
      </trkpt>
      <trkpt lat="42.79062" lon="1.88582">
        <ele>1206</ele>
        <time>2024-10-11T09:29:42Z</time>
      </trkpt>
      <trkpt lat="42.79061" lon="1.88579">
        <ele>1206</ele>
        <time>2024-10-11T09:29:43Z</time>
      </trkpt>
      <trkpt lat="42.79059" lon="1.88575">
        <ele>1206</ele>
        <time>2024-10-11T09:29:44Z</time>
      </trkpt>
      <trkpt lat="42.79058" lon="1.88572">
        <ele>1206.4</ele>
        <time>2024-10-11T09:29:45Z</time>
      </trkpt>
      <trkpt lat="42.79056" lon="1.88569">
        <ele>1206.4</ele>
        <time>2024-10-11T09:29:46Z</time>
      </trkpt>
      <trkpt lat="42.79054" lon="1.88566">
        <ele>1206.4</ele>
        <time>2024-10-11T09:29:47Z</time>
      </trkpt>
      <trkpt lat="42.79052" lon="1.88562">
        <ele>1206.4</ele>
        <time>2024-10-11T09:29:48Z</time>
      </trkpt>
      <trkpt lat="42.7905" lon="1.88559">
        <ele>1207</ele>
        <time>2024-10-11T09:29:49Z</time>
      </trkpt>
      <trkpt lat="42.79048" lon="1.88557">
        <ele>1207.2</ele>
        <time>2024-10-11T09:29:50Z</time>
      </trkpt>
      <trkpt lat="42.79046" lon="1.88554">
        <ele>1207.2</ele>
        <time>2024-10-11T09:29:51Z</time>
      </trkpt>
      <trkpt lat="42.79043" lon="1.88552">
        <ele>1207.2</ele>
        <time>2024-10-11T09:29:52Z</time>
      </trkpt>
      <trkpt lat="42.79041" lon="1.88549">
        <ele>1207.2</ele>
        <time>2024-10-11T09:29:53Z</time>
      </trkpt>
      <trkpt lat="42.79039" lon="1.88547">
        <ele>1207.8</ele>
        <time>2024-10-11T09:29:54Z</time>
      </trkpt>
      <trkpt lat="42.79036" lon="1.88545">
        <ele>1208</ele>
        <time>2024-10-11T09:29:55Z</time>
      </trkpt>
      <trkpt lat="42.79034" lon="1.88543">
        <ele>1208</ele>
        <time>2024-10-11T09:29:56Z</time>
      </trkpt>
      <trkpt lat="42.79031" lon="1.88541">
        <ele>1208</ele>
        <time>2024-10-11T09:29:57Z</time>
      </trkpt>
      <trkpt lat="42.79029" lon="1.88539">
        <ele>1208</ele>
        <time>2024-10-11T09:29:58Z</time>
      </trkpt>
      <trkpt lat="42.79026" lon="1.88537">
        <ele>1208.6</ele>
        <time>2024-10-11T09:29:59Z</time>
      </trkpt>
      <trkpt lat="42.79023" lon="1.88535">
        <ele>1208.6</ele>
        <time>2024-10-11T09:30:00Z</time>
      </trkpt>
      <trkpt lat="42.79021" lon="1.88532">
        <ele>1208.6</ele>
        <time>2024-10-11T09:30:01Z</time>
      </trkpt>
      <trkpt lat="42.79018" lon="1.8853">
        <ele>1208.8</ele>
        <time>2024-10-11T09:30:02Z</time>
      </trkpt>
      <trkpt lat="42.79015" lon="1.88528">
        <ele>1209</ele>
        <time>2024-10-11T09:30:03Z</time>
      </trkpt>
      <trkpt lat="42.79013" lon="1.88526">
        <ele>1209</ele>
        <time>2024-10-11T09:30:04Z</time>
      </trkpt>
      <trkpt lat="42.7901" lon="1.88524">
        <ele>1209</ele>
        <time>2024-10-11T09:30:05Z</time>
      </trkpt>
      <trkpt lat="42.79008" lon="1.88522">
        <ele>1209</ele>
        <time>2024-10-11T09:30:06Z</time>
      </trkpt>
      <trkpt lat="42.79005" lon="1.88519">
        <ele>1209.6</ele>
        <time>2024-10-11T09:30:07Z</time>
      </trkpt>
      <trkpt lat="42.79003" lon="1.88517">
        <ele>1209.4</ele>
        <time>2024-10-11T09:30:08Z</time>
      </trkpt>
      <trkpt lat="42.79" lon="1.88515">
        <ele>1209.4</ele>
        <time>2024-10-11T09:30:09Z</time>
      </trkpt>
      <trkpt lat="42.78998" lon="1.88512">
        <ele>1209.4</ele>
        <time>2024-10-11T09:30:10Z</time>
      </trkpt>
      <trkpt lat="42.78996" lon="1.8851">
        <ele>1210</ele>
        <time>2024-10-11T09:30:11Z</time>
      </trkpt>
      <trkpt lat="42.78994" lon="1.88507">
        <ele>1210.2</ele>
        <time>2024-10-11T09:30:12Z</time>
      </trkpt>
      <trkpt lat="42.78991" lon="1.88504">
        <ele>1210.2</ele>
        <time>2024-10-11T09:30:13Z</time>
      </trkpt>
      <trkpt lat="42.78989" lon="1.88501">
        <ele>1210.2</ele>
        <time>2024-10-11T09:30:14Z</time>
      </trkpt>
      <trkpt lat="42.78987" lon="1.88497">
        <ele>1210.2</ele>
        <time>2024-10-11T09:30:15Z</time>
      </trkpt>
      <trkpt lat="42.78986" lon="1.88494">
        <ele>1210.6</ele>
        <time>2024-10-11T09:30:16Z</time>
      </trkpt>
      <trkpt lat="42.78984" lon="1.88491">
        <ele>1210.6</ele>
        <time>2024-10-11T09:30:17Z</time>
      </trkpt>
      <trkpt lat="42.78982" lon="1.88488">
        <ele>1210.8</ele>
        <time>2024-10-11T09:30:18Z</time>
      </trkpt>
      <trkpt lat="42.78981" lon="1.88484">
        <ele>1210.8</ele>
        <time>2024-10-11T09:30:19Z</time>
      </trkpt>
      <trkpt lat="42.78979" lon="1.88481">
        <ele>1210.8</ele>
        <time>2024-10-11T09:30:20Z</time>
      </trkpt>
      <trkpt lat="42.78977" lon="1.88477">
        <ele>1211.4</ele>
        <time>2024-10-11T09:30:21Z</time>
      </trkpt>
      <trkpt lat="42.78976" lon="1.88474">
        <ele>1211.6</ele>
        <time>2024-10-11T09:30:22Z</time>
      </trkpt>
      <trkpt lat="42.78975" lon="1.8847">
        <ele>1211.6</ele>
        <time>2024-10-11T09:30:23Z</time>
      </trkpt>
      <trkpt lat="42.78974" lon="1.88467">
        <ele>1211.6</ele>
        <time>2024-10-11T09:30:24Z</time>
      </trkpt>
      <trkpt lat="42.78973" lon="1.88463">
        <ele>1212.2</ele>
        <time>2024-10-11T09:30:25Z</time>
      </trkpt>
      <trkpt lat="42.78972" lon="1.88459">
        <ele>1212.4</ele>
        <time>2024-10-11T09:30:26Z</time>
      </trkpt>
      <trkpt lat="42.78971" lon="1.88455">
        <ele>1212.4</ele>
        <time>2024-10-11T09:30:27Z</time>
      </trkpt>
      <trkpt lat="42.7897" lon="1.88452">
        <ele>1212.4</ele>
        <time>2024-10-11T09:30:28Z</time>
      </trkpt>
      <trkpt lat="42.78969" lon="1.88448">
        <ele>1212.4</ele>
        <time>2024-10-11T09:30:29Z</time>
      </trkpt>
      <trkpt lat="42.78968" lon="1.88444">
        <ele>1213</ele>
        <time>2024-10-11T09:30:30Z</time>
      </trkpt>
      <trkpt lat="42.78967" lon="1.8844">
        <ele>1213.2</ele>
        <time>2024-10-11T09:30:31Z</time>
      </trkpt>
      <trkpt lat="42.78967" lon="1.88436">
        <ele>1213.2</ele>
        <time>2024-10-11T09:30:32Z</time>
      </trkpt>
      <trkpt lat="42.78965" lon="1.88432">
        <ele>1213.2</ele>
        <time>2024-10-11T09:30:33Z</time>
      </trkpt>
      <trkpt lat="42.78964" lon="1.88428">
        <ele>1213.2</ele>
        <time>2024-10-11T09:30:34Z</time>
      </trkpt>
      <trkpt lat="42.78963" lon="1.88424">
        <ele>1213.6</ele>
        <time>2024-10-11T09:30:35Z</time>
      </trkpt>
      <trkpt lat="42.78962" lon="1.88421">
        <ele>1213.6</ele>
        <time>2024-10-11T09:30:36Z</time>
      </trkpt>
      <trkpt lat="42.78961" lon="1.88417">
        <ele>1213.6</ele>
        <time>2024-10-11T09:30:37Z</time>
      </trkpt>
      <trkpt lat="42.7896" lon="1.88413">
        <ele>1213.6</ele>
        <time>2024-10-11T09:30:38Z</time>
      </trkpt>
      <trkpt lat="42.78959" lon="1.88409">
        <ele>1214.4</ele>
        <time>2024-10-11T09:30:39Z</time>
      </trkpt>
      <trkpt lat="42.78958" lon="1.88405">
        <ele>1214.4</ele>
        <time>2024-10-11T09:30:40Z</time>
      </trkpt>
      <trkpt lat="42.78957" lon="1.88401">
        <ele>1214.4</ele>
        <time>2024-10-11T09:30:41Z</time>
      </trkpt>
      <trkpt lat="42.78956" lon="1.88398">
        <ele>1214.4</ele>
        <time>2024-10-11T09:30:42Z</time>
      </trkpt>
      <trkpt lat="42.78955" lon="1.88394">
        <ele>1214.8</ele>
        <time>2024-10-11T09:30:43Z</time>
      </trkpt>
      <trkpt lat="42.78954" lon="1.8839">
        <ele>1215</ele>
        <time>2024-10-11T09:30:44Z</time>
      </trkpt>
      <trkpt lat="42.78953" lon="1.88387">
        <ele>1215</ele>
        <time>2024-10-11T09:30:45Z</time>
      </trkpt>
      <trkpt lat="42.78952" lon="1.88383">
        <ele>1215</ele>
        <time>2024-10-11T09:30:46Z</time>
      </trkpt>
      <trkpt lat="42.78951" lon="1.88379">
        <ele>1215.6</ele>
        <time>2024-10-11T09:30:47Z</time>
      </trkpt>
      <trkpt lat="42.7895" lon="1.88375">
        <ele>1215.8</ele>
        <time>2024-10-11T09:30:48Z</time>
      </trkpt>
      <trkpt lat="42.78949" lon="1.88372">
        <ele>1215.8</ele>
        <time>2024-10-11T09:30:49Z</time>
      </trkpt>
      <trkpt lat="42.78948" lon="1.88368">
        <ele>1215.8</ele>
        <time>2024-10-11T09:30:50Z</time>
      </trkpt>
      <trkpt lat="42.78948" lon="1.88364">
        <ele>1215.8</ele>
        <time>2024-10-11T09:30:51Z</time>
      </trkpt>
      <trkpt lat="42.78947" lon="1.88359">
        <ele>1215.8</ele>
        <time>2024-10-11T09:30:52Z</time>
      </trkpt>
      <trkpt lat="42.78946" lon="1.88355">
        <ele>1216.6</ele>
        <time>2024-10-11T09:30:53Z</time>
      </trkpt>
      <trkpt lat="42.78945" lon="1.88351">
        <ele>1216.6</ele>
        <time>2024-10-11T09:30:54Z</time>
      </trkpt>
      <trkpt lat="42.78944" lon="1.88347">
        <ele>1216.6</ele>
        <time>2024-10-11T09:30:55Z</time>
      </trkpt>
      <trkpt lat="42.78943" lon="1.88343">
        <ele>1216.6</ele>
        <time>2024-10-11T09:30:56Z</time>
      </trkpt>
      <trkpt lat="42.78943" lon="1.88339">
        <ele>1217.2</ele>
        <time>2024-10-11T09:30:57Z</time>
      </trkpt>
      <trkpt lat="42.78943" lon="1.88335">
        <ele>1217.2</ele>
        <time>2024-10-11T09:30:58Z</time>
      </trkpt>
      <trkpt lat="42.78942" lon="1.88331">
        <ele>1217.2</ele>
        <time>2024-10-11T09:30:59Z</time>
      </trkpt>
      <trkpt lat="42.78942" lon="1.88327">
        <ele>1217.2</ele>
        <time>2024-10-11T09:31:00Z</time>
      </trkpt>
      <trkpt lat="42.78941" lon="1.88323">
        <ele>1217.8</ele>
        <time>2024-10-11T09:31:01Z</time>
      </trkpt>
      <trkpt lat="42.7894" lon="1.88319">
        <ele>1217.8</ele>
        <time>2024-10-11T09:31:02Z</time>
      </trkpt>
      <trkpt lat="42.7894" lon="1.88315">
        <ele>1218</ele>
        <time>2024-10-11T09:31:03Z</time>
      </trkpt>
      <trkpt lat="42.7894" lon="1.8831">
        <ele>1218</ele>
        <time>2024-10-11T09:31:04Z</time>
      </trkpt>
      <trkpt lat="42.7894" lon="1.88304">
        <ele>1218</ele>
        <time>2024-10-11T09:31:05Z</time>
      </trkpt>
      <trkpt lat="42.7894" lon="1.88302">
        <ele>1218.4</ele>
        <time>2024-10-11T09:31:06Z</time>
      </trkpt>
      <trkpt lat="42.7894" lon="1.88298">
        <ele>1218.6</ele>
        <time>2024-10-11T09:31:07Z</time>
      </trkpt>
      <trkpt lat="42.78939" lon="1.88294">
        <ele>1218.6</ele>
        <time>2024-10-11T09:31:08Z</time>
      </trkpt>
      <trkpt lat="42.78939" lon="1.8829">
        <ele>1218.6</ele>
        <time>2024-10-11T09:31:09Z</time>
      </trkpt>
      <trkpt lat="42.78939" lon="1.88286">
        <ele>1219.4</ele>
        <time>2024-10-11T09:31:10Z</time>
      </trkpt>
      <trkpt lat="42.78939" lon="1.88282">
        <ele>1219</ele>
        <time>2024-10-11T09:31:11Z</time>
      </trkpt>
      <trkpt lat="42.78938" lon="1.88278">
        <ele>1219</ele>
        <time>2024-10-11T09:31:12Z</time>
      </trkpt>
      <trkpt lat="42.78938" lon="1.88274">
        <ele>1219</ele>
        <time>2024-10-11T09:31:13Z</time>
      </trkpt>
      <trkpt lat="42.78938" lon="1.8827">
        <ele>1219</ele>
        <time>2024-10-11T09:31:14Z</time>
      </trkpt>
      <trkpt lat="42.78938" lon="1.88266">
        <ele>1220.2</ele>
        <time>2024-10-11T09:31:15Z</time>
      </trkpt>
      <trkpt lat="42.78938" lon="1.88262">
        <ele>1220.2</ele>
        <time>2024-10-11T09:31:16Z</time>
      </trkpt>
      <trkpt lat="42.78938" lon="1.88258">
        <ele>1220.2</ele>
        <time>2024-10-11T09:31:17Z</time>
      </trkpt>
      <trkpt lat="42.78938" lon="1.88254">
        <ele>1220.2</ele>
        <time>2024-10-11T09:31:18Z</time>
      </trkpt>
      <trkpt lat="42.78938" lon="1.8825">
        <ele>1220.6</ele>
        <time>2024-10-11T09:31:19Z</time>
      </trkpt>
      <trkpt lat="42.78937" lon="1.88246">
        <ele>1220.6</ele>
        <time>2024-10-11T09:31:20Z</time>
      </trkpt>
      <trkpt lat="42.78937" lon="1.88242">
        <ele>1220.6</ele>
        <time>2024-10-11T09:31:21Z</time>
      </trkpt>
      <trkpt lat="42.78937" lon="1.88238">
        <ele>1220.6</ele>
        <time>2024-10-11T09:31:22Z</time>
      </trkpt>
      <trkpt lat="42.78936" lon="1.88234">
        <ele>1221</ele>
        <time>2024-10-11T09:31:23Z</time>
      </trkpt>
      <trkpt lat="42.78936" lon="1.8823">
        <ele>1221.4</ele>
        <time>2024-10-11T09:31:24Z</time>
      </trkpt>
      <trkpt lat="42.78935" lon="1.88227">
        <ele>1221.4</ele>
        <time>2024-10-11T09:31:25Z</time>
      </trkpt>
      <trkpt lat="42.78935" lon="1.88223">
        <ele>1221.4</ele>
        <time>2024-10-11T09:31:26Z</time>
      </trkpt>
      <trkpt lat="42.78934" lon="1.88219">
        <ele>1221.4</ele>
        <time>2024-10-11T09:31:27Z</time>
      </trkpt>
      <trkpt lat="42.78933" lon="1.88215">
        <ele>1221.6</ele>
        <time>2024-10-11T09:31:28Z</time>
      </trkpt>
      <trkpt lat="42.78932" lon="1.88211">
        <ele>1221.6</ele>
        <time>2024-10-11T09:31:29Z</time>
      </trkpt>
      <trkpt lat="42.78931" lon="1.88208">
        <ele>1221.6</ele>
        <time>2024-10-11T09:31:30Z</time>
      </trkpt>
      <trkpt lat="42.7893" lon="1.88204">
        <ele>1221.6</ele>
        <time>2024-10-11T09:31:31Z</time>
      </trkpt>
      <trkpt lat="42.78928" lon="1.882">
        <ele>1222.2</ele>
        <time>2024-10-11T09:31:32Z</time>
      </trkpt>
      <trkpt lat="42.78926" lon="1.88197">
        <ele>1222.2</ele>
        <time>2024-10-11T09:31:33Z</time>
      </trkpt>
      <trkpt lat="42.78925" lon="1.88194">
        <ele>1222.2</ele>
        <time>2024-10-11T09:31:34Z</time>
      </trkpt>
      <trkpt lat="42.78923" lon="1.8819">
        <ele>1222.2</ele>
        <time>2024-10-11T09:31:35Z</time>
      </trkpt>
      <trkpt lat="42.7892" lon="1.88186">
        <ele>1222.2</ele>
        <time>2024-10-11T09:31:36Z</time>
      </trkpt>
      <trkpt lat="42.78919" lon="1.88184">
        <ele>1222.8</ele>
        <time>2024-10-11T09:31:37Z</time>
      </trkpt>
      <trkpt lat="42.78917" lon="1.88181">
        <ele>1222.8</ele>
        <time>2024-10-11T09:31:38Z</time>
      </trkpt>
      <trkpt lat="42.78915" lon="1.88179">
        <ele>1222.8</ele>
        <time>2024-10-11T09:31:39Z</time>
      </trkpt>
      <trkpt lat="42.78913" lon="1.88176">
        <ele>1222.8</ele>
        <time>2024-10-11T09:31:40Z</time>
      </trkpt>
      <trkpt lat="42.78911" lon="1.88174">
        <ele>1222.8</ele>
        <time>2024-10-11T09:31:41Z</time>
      </trkpt>
      <trkpt lat="42.78909" lon="1.88171">
        <ele>1223.4</ele>
        <time>2024-10-11T09:31:42Z</time>
      </trkpt>
      <trkpt lat="42.78906" lon="1.88169">
        <ele>1223.4</ele>
        <time>2024-10-11T09:31:43Z</time>
      </trkpt>
      <trkpt lat="42.78904" lon="1.88167">
        <ele>1223.4</ele>
        <time>2024-10-11T09:31:44Z</time>
      </trkpt>
      <trkpt lat="42.78902" lon="1.88164">
        <ele>1223.4</ele>
        <time>2024-10-11T09:31:45Z</time>
      </trkpt>
      <trkpt lat="42.78899" lon="1.88162">
        <ele>1224</ele>
        <time>2024-10-11T09:31:46Z</time>
      </trkpt>
      <trkpt lat="42.78897" lon="1.8816">
        <ele>1224</ele>
        <time>2024-10-11T09:31:47Z</time>
      </trkpt>
      <trkpt lat="42.78895" lon="1.88158">
        <ele>1224</ele>
        <time>2024-10-11T09:31:48Z</time>
      </trkpt>
      <trkpt lat="42.78892" lon="1.88155">
        <ele>1224</ele>
        <time>2024-10-11T09:31:49Z</time>
      </trkpt>
      <trkpt lat="42.7889" lon="1.88152">
        <ele>1224</ele>
        <time>2024-10-11T09:31:50Z</time>
      </trkpt>
      <trkpt lat="42.78888" lon="1.8815">
        <ele>1224.6</ele>
        <time>2024-10-11T09:31:51Z</time>
      </trkpt>
      <trkpt lat="42.78885" lon="1.88148">
        <ele>1224.6</ele>
        <time>2024-10-11T09:31:52Z</time>
      </trkpt>
      <trkpt lat="42.78883" lon="1.88145">
        <ele>1224.6</ele>
        <time>2024-10-11T09:31:53Z</time>
      </trkpt>
      <trkpt lat="42.7888" lon="1.88143">
        <ele>1224.6</ele>
        <time>2024-10-11T09:31:54Z</time>
      </trkpt>
      <trkpt lat="42.78878" lon="1.88141">
        <ele>1225</ele>
        <time>2024-10-11T09:31:55Z</time>
      </trkpt>
      <trkpt lat="42.78876" lon="1.88138">
        <ele>1225.2</ele>
        <time>2024-10-11T09:31:56Z</time>
      </trkpt>
      <trkpt lat="42.78873" lon="1.88135">
        <ele>1225.2</ele>
        <time>2024-10-11T09:31:57Z</time>
      </trkpt>
      <trkpt lat="42.78871" lon="1.88133">
        <ele>1225.2</ele>
        <time>2024-10-11T09:31:58Z</time>
      </trkpt>
      <trkpt lat="42.78869" lon="1.8813">
        <ele>1225.6</ele>
        <time>2024-10-11T09:31:59Z</time>
      </trkpt>
      <trkpt lat="42.78866" lon="1.88128">
        <ele>1225.8</ele>
        <time>2024-10-11T09:32:00Z</time>
      </trkpt>
      <trkpt lat="42.78864" lon="1.88125">
        <ele>1225.8</ele>
        <time>2024-10-11T09:32:01Z</time>
      </trkpt>
      <trkpt lat="42.78862" lon="1.88122">
        <ele>1225.8</ele>
        <time>2024-10-11T09:32:02Z</time>
      </trkpt>
      <trkpt lat="42.7886" lon="1.8812">
        <ele>1225.8</ele>
        <time>2024-10-11T09:32:03Z</time>
      </trkpt>
      <trkpt lat="42.78858" lon="1.88117">
        <ele>1226.2</ele>
        <time>2024-10-11T09:32:04Z</time>
      </trkpt>
      <trkpt lat="42.78856" lon="1.88115">
        <ele>1226</ele>
        <time>2024-10-11T09:32:05Z</time>
      </trkpt>
      <trkpt lat="42.78853" lon="1.88112">
        <ele>1226</ele>
        <time>2024-10-11T09:32:06Z</time>
      </trkpt>
      <trkpt lat="42.78851" lon="1.8811">
        <ele>1226</ele>
        <time>2024-10-11T09:32:07Z</time>
      </trkpt>
      <trkpt lat="42.78849" lon="1.88107">
        <ele>1226.8</ele>
        <time>2024-10-11T09:32:08Z</time>
      </trkpt>
      <trkpt lat="42.78846" lon="1.88105">
        <ele>1226.8</ele>
        <time>2024-10-11T09:32:09Z</time>
      </trkpt>
      <trkpt lat="42.78844" lon="1.88102">
        <ele>1226.8</ele>
        <time>2024-10-11T09:32:10Z</time>
      </trkpt>
      <trkpt lat="42.78841" lon="1.88099">
        <ele>1226.8</ele>
        <time>2024-10-11T09:32:11Z</time>
      </trkpt>
      <trkpt lat="42.78839" lon="1.88098">
        <ele>1227.4</ele>
        <time>2024-10-11T09:32:12Z</time>
      </trkpt>
      <trkpt lat="42.78837" lon="1.88095">
        <ele>1227.4</ele>
        <time>2024-10-11T09:32:13Z</time>
      </trkpt>
      <trkpt lat="42.78834" lon="1.88093">
        <ele>1227.4</ele>
        <time>2024-10-11T09:32:14Z</time>
      </trkpt>
      <trkpt lat="42.78832" lon="1.88091">
        <ele>1227.4</ele>
        <time>2024-10-11T09:32:15Z</time>
      </trkpt>
      <trkpt lat="42.78829" lon="1.88088">
        <ele>1227.4</ele>
        <time>2024-10-11T09:32:16Z</time>
      </trkpt>
      <trkpt lat="42.78827" lon="1.88085">
        <ele>1227.8</ele>
        <time>2024-10-11T09:32:17Z</time>
      </trkpt>
      <trkpt lat="42.78824" lon="1.88083">
        <ele>1228</ele>
        <time>2024-10-11T09:32:18Z</time>
      </trkpt>
      <trkpt lat="42.78822" lon="1.88081">
        <ele>1228</ele>
        <time>2024-10-11T09:32:19Z</time>
      </trkpt>
      <trkpt lat="42.78819" lon="1.88079">
        <ele>1228</ele>
        <time>2024-10-11T09:32:20Z</time>
      </trkpt>
      <trkpt lat="42.78816" lon="1.88077">
        <ele>1228.8</ele>
        <time>2024-10-11T09:32:21Z</time>
      </trkpt>
      <trkpt lat="42.78814" lon="1.88074">
        <ele>1228.6</ele>
        <time>2024-10-11T09:32:22Z</time>
      </trkpt>
      <trkpt lat="42.78812" lon="1.88072">
        <ele>1228.6</ele>
        <time>2024-10-11T09:32:23Z</time>
      </trkpt>
      <trkpt lat="42.7881" lon="1.88069">
        <ele>1228.6</ele>
        <time>2024-10-11T09:32:24Z</time>
      </trkpt>
      <trkpt lat="42.78807" lon="1.88067">
        <ele>1228.6</ele>
        <time>2024-10-11T09:32:25Z</time>
      </trkpt>
      <trkpt lat="42.78805" lon="1.88064">
        <ele>1228.6</ele>
        <time>2024-10-11T09:32:26Z</time>
      </trkpt>
      <trkpt lat="42.78803" lon="1.88061">
        <ele>1229.2</ele>
        <time>2024-10-11T09:32:27Z</time>
      </trkpt>
      <trkpt lat="42.78801" lon="1.88058">
        <ele>1229.2</ele>
        <time>2024-10-11T09:32:28Z</time>
      </trkpt>
      <trkpt lat="42.788" lon="1.88055">
        <ele>1229.2</ele>
        <time>2024-10-11T09:32:29Z</time>
      </trkpt>
      <trkpt lat="42.78798" lon="1.88051">
        <ele>1229.2</ele>
        <time>2024-10-11T09:32:30Z</time>
      </trkpt>
      <trkpt lat="42.78797" lon="1.88048">
        <ele>1229.6</ele>
        <time>2024-10-11T09:32:31Z</time>
      </trkpt>
      <trkpt lat="42.78796" lon="1.88044">
        <ele>1230</ele>
        <time>2024-10-11T09:32:32Z</time>
      </trkpt>
      <trkpt lat="42.78795" lon="1.8804">
        <ele>1230</ele>
        <time>2024-10-11T09:32:33Z</time>
      </trkpt>
      <trkpt lat="42.78794" lon="1.88036">
        <ele>1230</ele>
        <time>2024-10-11T09:32:34Z</time>
      </trkpt>
      <trkpt lat="42.78793" lon="1.88032">
        <ele>1230.8</ele>
        <time>2024-10-11T09:32:35Z</time>
      </trkpt>
      <trkpt lat="42.78793" lon="1.88028">
        <ele>1231</ele>
        <time>2024-10-11T09:32:36Z</time>
      </trkpt>
      <trkpt lat="42.78792" lon="1.88024">
        <ele>1231</ele>
        <time>2024-10-11T09:32:37Z</time>
      </trkpt>
      <trkpt lat="42.78791" lon="1.8802">
        <ele>1231</ele>
        <time>2024-10-11T09:32:38Z</time>
      </trkpt>
      <trkpt lat="42.78791" lon="1.88017">
        <ele>1231</ele>
        <time>2024-10-11T09:32:39Z</time>
      </trkpt>
      <trkpt lat="42.7879" lon="1.88013">
        <ele>1231</ele>
        <time>2024-10-11T09:32:40Z</time>
      </trkpt>
      <trkpt lat="42.78789" lon="1.88009">
        <ele>1231.6</ele>
        <time>2024-10-11T09:32:41Z</time>
      </trkpt>
      <trkpt lat="42.78789" lon="1.88005">
        <ele>1231.6</ele>
        <time>2024-10-11T09:32:42Z</time>
      </trkpt>
      <trkpt lat="42.78788" lon="1.88001">
        <ele>1231.6</ele>
        <time>2024-10-11T09:32:43Z</time>
      </trkpt>
      <trkpt lat="42.78787" lon="1.87997">
        <ele>1231.6</ele>
        <time>2024-10-11T09:32:44Z</time>
      </trkpt>
      <trkpt lat="42.78786" lon="1.87993">
        <ele>1232</ele>
        <time>2024-10-11T09:32:45Z</time>
      </trkpt>
      <trkpt lat="42.78785" lon="1.8799">
        <ele>1232</ele>
        <time>2024-10-11T09:32:46Z</time>
      </trkpt>
      <trkpt lat="42.78783" lon="1.87986">
        <ele>1232</ele>
        <time>2024-10-11T09:32:47Z</time>
      </trkpt>
      <trkpt lat="42.78782" lon="1.87983">
        <ele>1232</ele>
        <time>2024-10-11T09:32:48Z</time>
      </trkpt>
      <trkpt lat="42.7878" lon="1.87979">
        <ele>1232.4</ele>
        <time>2024-10-11T09:32:49Z</time>
      </trkpt>
      <trkpt lat="42.78778" lon="1.87976">
        <ele>1232.6</ele>
        <time>2024-10-11T09:32:50Z</time>
      </trkpt>
      <trkpt lat="42.78776" lon="1.87974">
        <ele>1232.6</ele>
        <time>2024-10-11T09:32:51Z</time>
      </trkpt>
      <trkpt lat="42.78774" lon="1.87971">
        <ele>1232.6</ele>
        <time>2024-10-11T09:32:52Z</time>
      </trkpt>
      <trkpt lat="42.78772" lon="1.87968">
        <ele>1233</ele>
        <time>2024-10-11T09:32:53Z</time>
      </trkpt>
      <trkpt lat="42.7877" lon="1.87966">
        <ele>1233.2</ele>
        <time>2024-10-11T09:32:54Z</time>
      </trkpt>
      <trkpt lat="42.78767" lon="1.87964">
        <ele>1233.2</ele>
        <time>2024-10-11T09:32:55Z</time>
      </trkpt>
      <trkpt lat="42.78764" lon="1.87962">
        <ele>1233.2</ele>
        <time>2024-10-11T09:32:56Z</time>
      </trkpt>
      <trkpt lat="42.78761" lon="1.87961">
        <ele>1233.2</ele>
        <time>2024-10-11T09:32:57Z</time>
      </trkpt>
      <trkpt lat="42.78758" lon="1.8796">
        <ele>1233.2</ele>
        <time>2024-10-11T09:32:58Z</time>
      </trkpt>
      <trkpt lat="42.78755" lon="1.87958">
        <ele>1233.8</ele>
        <time>2024-10-11T09:32:59Z</time>
      </trkpt>
      <trkpt lat="42.78752" lon="1.87957">
        <ele>1233.8</ele>
        <time>2024-10-11T09:33:00Z</time>
      </trkpt>
      <trkpt lat="42.78749" lon="1.87957">
        <ele>1233.8</ele>
        <time>2024-10-11T09:33:01Z</time>
      </trkpt>
      <trkpt lat="42.78745" lon="1.87956">
        <ele>1234.2</ele>
        <time>2024-10-11T09:33:02Z</time>
      </trkpt>
      <trkpt lat="42.78741" lon="1.87956">
        <ele>1234.4</ele>
        <time>2024-10-11T09:33:03Z</time>
      </trkpt>
      <trkpt lat="42.78739" lon="1.87956">
        <ele>1234.4</ele>
        <time>2024-10-11T09:33:04Z</time>
      </trkpt>
      <trkpt lat="42.78736" lon="1.87956">
        <ele>1234.4</ele>
        <time>2024-10-11T09:33:05Z</time>
      </trkpt>
      <trkpt lat="42.78733" lon="1.87956">
        <ele>1234.4</ele>
        <time>2024-10-11T09:33:06Z</time>
      </trkpt>
      <trkpt lat="42.7873" lon="1.87956">
        <ele>1234.6</ele>
        <time>2024-10-11T09:33:07Z</time>
      </trkpt>
      <trkpt lat="42.78727" lon="1.87956">
        <ele>1234.6</ele>
        <time>2024-10-11T09:33:08Z</time>
      </trkpt>
      <trkpt lat="42.78725" lon="1.87956">
        <ele>1234.6</ele>
        <time>2024-10-11T09:33:09Z</time>
      </trkpt>
      <trkpt lat="42.78722" lon="1.87955">
        <ele>1234.6</ele>
        <time>2024-10-11T09:33:10Z</time>
      </trkpt>
      <trkpt lat="42.78719" lon="1.87955">
        <ele>1234.6</ele>
        <time>2024-10-11T09:33:11Z</time>
      </trkpt>
      <trkpt lat="42.78716" lon="1.87954">
        <ele>1235.4</ele>
        <time>2024-10-11T09:33:12Z</time>
      </trkpt>
      <trkpt lat="42.78713" lon="1.87954">
        <ele>1235</ele>
        <time>2024-10-11T09:33:13Z</time>
      </trkpt>
      <trkpt lat="42.78711" lon="1.87954">
        <ele>1235</ele>
        <time>2024-10-11T09:33:14Z</time>
      </trkpt>
      <trkpt lat="42.78708" lon="1.87954">
        <ele>1235</ele>
        <time>2024-10-11T09:33:15Z</time>
      </trkpt>
      <trkpt lat="42.78705" lon="1.87954">
        <ele>1236</ele>
        <time>2024-10-11T09:33:16Z</time>
      </trkpt>
      <trkpt lat="42.78701" lon="1.87954">
        <ele>1236</ele>
        <time>2024-10-11T09:33:17Z</time>
      </trkpt>
      <trkpt lat="42.78698" lon="1.87953">
        <ele>1235.8</ele>
        <time>2024-10-11T09:33:18Z</time>
      </trkpt>
      <trkpt lat="42.78695" lon="1.87953">
        <ele>1235.8</ele>
        <time>2024-10-11T09:33:19Z</time>
      </trkpt>
      <trkpt lat="42.78692" lon="1.87953">
        <ele>1235.8</ele>
        <time>2024-10-11T09:33:20Z</time>
      </trkpt>
      <trkpt lat="42.78689" lon="1.87952">
        <ele>1236.6</ele>
        <time>2024-10-11T09:33:21Z</time>
      </trkpt>
      <trkpt lat="42.78686" lon="1.87951">
        <ele>1236.6</ele>
        <time>2024-10-11T09:33:22Z</time>
      </trkpt>
      <trkpt lat="42.78683" lon="1.8795">
        <ele>1236.6</ele>
        <time>2024-10-11T09:33:23Z</time>
      </trkpt>
      <trkpt lat="42.7868" lon="1.87949">
        <ele>1236.6</ele>
        <time>2024-10-11T09:33:24Z</time>
      </trkpt>
      <trkpt lat="42.78677" lon="1.87947">
        <ele>1237</ele>
        <time>2024-10-11T09:33:25Z</time>
      </trkpt>
      <trkpt lat="42.78674" lon="1.87946">
        <ele>1237</ele>
        <time>2024-10-11T09:33:26Z</time>
      </trkpt>
      <trkpt lat="42.78671" lon="1.87944">
        <ele>1237</ele>
        <time>2024-10-11T09:33:27Z</time>
      </trkpt>
      <trkpt lat="42.78668" lon="1.87942">
        <ele>1237</ele>
        <time>2024-10-11T09:33:28Z</time>
      </trkpt>
      <trkpt lat="42.78665" lon="1.8794">
        <ele>1237.6</ele>
        <time>2024-10-11T09:33:29Z</time>
      </trkpt>
      <trkpt lat="42.78662" lon="1.87938">
        <ele>1237.6</ele>
        <time>2024-10-11T09:33:30Z</time>
      </trkpt>
      <trkpt lat="42.78659" lon="1.87936">
        <ele>1237.6</ele>
        <time>2024-10-11T09:33:31Z</time>
      </trkpt>
      <trkpt lat="42.78656" lon="1.87933">
        <ele>1237.6</ele>
        <time>2024-10-11T09:33:32Z</time>
      </trkpt>
      <trkpt lat="42.78654" lon="1.87931">
        <ele>1237.6</ele>
        <time>2024-10-11T09:33:33Z</time>
      </trkpt>
      <trkpt lat="42.78651" lon="1.87928">
        <ele>1237.8</ele>
        <time>2024-10-11T09:33:34Z</time>
      </trkpt>
      <trkpt lat="42.78649" lon="1.87924">
        <ele>1238.2</ele>
        <time>2024-10-11T09:33:35Z</time>
      </trkpt>
      <trkpt lat="42.78646" lon="1.87922">
        <ele>1238.2</ele>
        <time>2024-10-11T09:33:36Z</time>
      </trkpt>
      <trkpt lat="42.78643" lon="1.87919">
        <ele>1238.2</ele>
        <time>2024-10-11T09:33:37Z</time>
      </trkpt>
      <trkpt lat="42.7864" lon="1.87916">
        <ele>1238.2</ele>
        <time>2024-10-11T09:33:38Z</time>
      </trkpt>
      <trkpt lat="42.78637" lon="1.87913">
        <ele>1238.2</ele>
        <time>2024-10-11T09:33:39Z</time>
      </trkpt>
      <trkpt lat="42.78635" lon="1.87909">
        <ele>1238.2</ele>
        <time>2024-10-11T09:33:40Z</time>
      </trkpt>
      <trkpt lat="42.78633" lon="1.87905">
        <ele>1238.2</ele>
        <time>2024-10-11T09:33:41Z</time>
      </trkpt>
      <trkpt lat="42.78631" lon="1.87901">
        <ele>1238.2</ele>
        <time>2024-10-11T09:33:42Z</time>
      </trkpt>
      <trkpt lat="42.78629" lon="1.87897">
        <ele>1239</ele>
        <time>2024-10-11T09:33:43Z</time>
      </trkpt>
      <trkpt lat="42.78627" lon="1.87894">
        <ele>1239.6</ele>
        <time>2024-10-11T09:33:44Z</time>
      </trkpt>
      <trkpt lat="42.78625" lon="1.87889">
        <ele>1239.6</ele>
        <time>2024-10-11T09:33:45Z</time>
      </trkpt>
      <trkpt lat="42.78623" lon="1.87885">
        <ele>1239.6</ele>
        <time>2024-10-11T09:33:46Z</time>
      </trkpt>
      <trkpt lat="42.78621" lon="1.87881">
        <ele>1239.6</ele>
        <time>2024-10-11T09:33:47Z</time>
      </trkpt>
      <trkpt lat="42.78619" lon="1.87877">
        <ele>1239.8</ele>
        <time>2024-10-11T09:33:48Z</time>
      </trkpt>
      <trkpt lat="42.78618" lon="1.87873">
        <ele>1239.8</ele>
        <time>2024-10-11T09:33:49Z</time>
      </trkpt>
      <trkpt lat="42.78616" lon="1.87868">
        <ele>1239.8</ele>
        <time>2024-10-11T09:33:50Z</time>
      </trkpt>
      <trkpt lat="42.78614" lon="1.87864">
        <ele>1240</ele>
        <time>2024-10-11T09:33:51Z</time>
      </trkpt>
      <trkpt lat="42.78612" lon="1.8786">
        <ele>1240</ele>
        <time>2024-10-11T09:33:52Z</time>
      </trkpt>
      <trkpt lat="42.7861" lon="1.87855">
        <ele>1240.4</ele>
        <time>2024-10-11T09:33:53Z</time>
      </trkpt>
      <trkpt lat="42.78608" lon="1.87851">
        <ele>1240.4</ele>
        <time>2024-10-11T09:33:54Z</time>
      </trkpt>
      <trkpt lat="42.78606" lon="1.87847">
        <ele>1240.4</ele>
        <time>2024-10-11T09:33:55Z</time>
      </trkpt>
      <trkpt lat="42.78605" lon="1.87843">
        <ele>1240.4</ele>
        <time>2024-10-11T09:33:56Z</time>
      </trkpt>
      <trkpt lat="42.78603" lon="1.87838">
        <ele>1240.4</ele>
        <time>2024-10-11T09:33:57Z</time>
      </trkpt>
      <trkpt lat="42.78601" lon="1.87834">
        <ele>1240.6</ele>
        <time>2024-10-11T09:33:58Z</time>
      </trkpt>
      <trkpt lat="42.786" lon="1.8783">
        <ele>1240.6</ele>
        <time>2024-10-11T09:33:59Z</time>
      </trkpt>
      <trkpt lat="42.78598" lon="1.87825">
        <ele>1240.6</ele>
        <time>2024-10-11T09:34:00Z</time>
      </trkpt>
      <trkpt lat="42.78596" lon="1.87821">
        <ele>1241</ele>
        <time>2024-10-11T09:34:01Z</time>
      </trkpt>
      <trkpt lat="42.78594" lon="1.87816">
        <ele>1241.4</ele>
        <time>2024-10-11T09:34:02Z</time>
      </trkpt>
      <trkpt lat="42.78592" lon="1.87812">
        <ele>1241.4</ele>
        <time>2024-10-11T09:34:03Z</time>
      </trkpt>
      <trkpt lat="42.7859" lon="1.87807">
        <ele>1241.4</ele>
        <time>2024-10-11T09:34:04Z</time>
      </trkpt>
      <trkpt lat="42.78588" lon="1.87803">
        <ele>1241.4</ele>
        <time>2024-10-11T09:34:05Z</time>
      </trkpt>
      <trkpt lat="42.78586" lon="1.87798">
        <ele>1241.4</ele>
        <time>2024-10-11T09:34:06Z</time>
      </trkpt>
      <trkpt lat="42.78584" lon="1.87793">
        <ele>1241.4</ele>
        <time>2024-10-11T09:34:07Z</time>
      </trkpt>
      <trkpt lat="42.78582" lon="1.87789">
        <ele>1241.4</ele>
        <time>2024-10-11T09:34:08Z</time>
      </trkpt>
      <trkpt lat="42.7858" lon="1.87784">
        <ele>1241.4</ele>
        <time>2024-10-11T09:34:09Z</time>
      </trkpt>
      <trkpt lat="42.78578" lon="1.87779">
        <ele>1242</ele>
        <time>2024-10-11T09:34:10Z</time>
      </trkpt>
      <trkpt lat="42.78576" lon="1.87774">
        <ele>1242</ele>
        <time>2024-10-11T09:34:11Z</time>
      </trkpt>
      <trkpt lat="42.78574" lon="1.8777">
        <ele>1242</ele>
        <time>2024-10-11T09:34:12Z</time>
      </trkpt>
      <trkpt lat="42.78572" lon="1.87765">
        <ele>1242</ele>
        <time>2024-10-11T09:34:13Z</time>
      </trkpt>
      <trkpt lat="42.78569" lon="1.8776">
        <ele>1242.6</ele>
        <time>2024-10-11T09:34:14Z</time>
      </trkpt>
      <trkpt lat="42.78567" lon="1.87756">
        <ele>1243</ele>
        <time>2024-10-11T09:34:15Z</time>
      </trkpt>
      <trkpt lat="42.78566" lon="1.87751">
        <ele>1243</ele>
        <time>2024-10-11T09:34:16Z</time>
      </trkpt>
      <trkpt lat="42.78565" lon="1.87746">
        <ele>1243</ele>
        <time>2024-10-11T09:34:17Z</time>
      </trkpt>
      <trkpt lat="42.78563" lon="1.87742">
        <ele>1243</ele>
        <time>2024-10-11T09:34:18Z</time>
      </trkpt>
      <trkpt lat="42.78561" lon="1.87737">
        <ele>1243.2</ele>
        <time>2024-10-11T09:34:19Z</time>
      </trkpt>
      <trkpt lat="42.78559" lon="1.87732">
        <ele>1243.2</ele>
        <time>2024-10-11T09:34:20Z</time>
      </trkpt>
      <trkpt lat="42.78557" lon="1.87727">
        <ele>1243.2</ele>
        <time>2024-10-11T09:34:21Z</time>
      </trkpt>
      <trkpt lat="42.78555" lon="1.87722">
        <ele>1243.2</ele>
        <time>2024-10-11T09:34:22Z</time>
      </trkpt>
      <trkpt lat="42.78553" lon="1.87717">
        <ele>1243.2</ele>
        <time>2024-10-11T09:34:23Z</time>
      </trkpt>
      <trkpt lat="42.7855" lon="1.87712">
        <ele>1243</ele>
        <time>2024-10-11T09:34:24Z</time>
      </trkpt>
      <trkpt lat="42.78548" lon="1.87707">
        <ele>1243</ele>
        <time>2024-10-11T09:34:25Z</time>
      </trkpt>
      <trkpt lat="42.78546" lon="1.87702">
        <ele>1243</ele>
        <time>2024-10-11T09:34:26Z</time>
      </trkpt>
      <trkpt lat="42.78543" lon="1.87698">
        <ele>1243.2</ele>
        <time>2024-10-11T09:34:27Z</time>
      </trkpt>
      <trkpt lat="42.7854" lon="1.87694">
        <ele>1243.6</ele>
        <time>2024-10-11T09:34:28Z</time>
      </trkpt>
      <trkpt lat="42.78537" lon="1.8769">
        <ele>1243.6</ele>
        <time>2024-10-11T09:34:29Z</time>
      </trkpt>
      <trkpt lat="42.78533" lon="1.87687">
        <ele>1243.6</ele>
        <time>2024-10-11T09:34:30Z</time>
      </trkpt>
      <trkpt lat="42.7853" lon="1.87683">
        <ele>1243.6</ele>
        <time>2024-10-11T09:34:31Z</time>
      </trkpt>
      <trkpt lat="42.78526" lon="1.87681">
        <ele>1243.8</ele>
        <time>2024-10-11T09:34:32Z</time>
      </trkpt>
      <trkpt lat="42.78521" lon="1.87679">
        <ele>1243.8</ele>
        <time>2024-10-11T09:34:33Z</time>
      </trkpt>
      <trkpt lat="42.78517" lon="1.87677">
        <ele>1243.8</ele>
        <time>2024-10-11T09:34:34Z</time>
      </trkpt>
      <trkpt lat="42.78513" lon="1.87676">
        <ele>1243.8</ele>
        <time>2024-10-11T09:34:35Z</time>
      </trkpt>
      <trkpt lat="42.78509" lon="1.87674">
        <ele>1243.8</ele>
        <time>2024-10-11T09:34:36Z</time>
      </trkpt>
      <trkpt lat="42.78505" lon="1.87672">
        <ele>1243.8</ele>
        <time>2024-10-11T09:34:37Z</time>
      </trkpt>
      <trkpt lat="42.78501" lon="1.8767">
        <ele>1244.8</ele>
        <time>2024-10-11T09:34:38Z</time>
      </trkpt>
      <trkpt lat="42.78497" lon="1.87668">
        <ele>1244.8</ele>
        <time>2024-10-11T09:34:39Z</time>
      </trkpt>
      <trkpt lat="42.78493" lon="1.87666">
        <ele>1244.8</ele>
        <time>2024-10-11T09:34:40Z</time>
      </trkpt>
      <trkpt lat="42.78489" lon="1.87663">
        <ele>1244.6</ele>
        <time>2024-10-11T09:34:41Z</time>
      </trkpt>
      <trkpt lat="42.78485" lon="1.87661">
        <ele>1244.6</ele>
        <time>2024-10-11T09:34:42Z</time>
      </trkpt>
      <trkpt lat="42.78482" lon="1.87658">
        <ele>1244.8</ele>
        <time>2024-10-11T09:34:43Z</time>
      </trkpt>
      <trkpt lat="42.78479" lon="1.87654">
        <ele>1244.8</ele>
        <time>2024-10-11T09:34:44Z</time>
      </trkpt>
      <trkpt lat="42.78475" lon="1.87651">
        <ele>1244.8</ele>
        <time>2024-10-11T09:34:45Z</time>
      </trkpt>
      <trkpt lat="42.78472" lon="1.87648">
        <ele>1244.8</ele>
        <time>2024-10-11T09:34:46Z</time>
      </trkpt>
      <trkpt lat="42.78469" lon="1.87644">
        <ele>1245</ele>
        <time>2024-10-11T09:34:47Z</time>
      </trkpt>
      <trkpt lat="42.78466" lon="1.87641">
        <ele>1245</ele>
        <time>2024-10-11T09:34:48Z</time>
      </trkpt>
      <trkpt lat="42.78463" lon="1.87638">
        <ele>1245</ele>
        <time>2024-10-11T09:34:49Z</time>
      </trkpt>
      <trkpt lat="42.7846" lon="1.87634">
        <ele>1245</ele>
        <time>2024-10-11T09:34:50Z</time>
      </trkpt>
      <trkpt lat="42.78456" lon="1.87631">
        <ele>1245.2</ele>
        <time>2024-10-11T09:34:51Z</time>
      </trkpt>
      <trkpt lat="42.78453" lon="1.87627">
        <ele>1245.2</ele>
        <time>2024-10-11T09:34:52Z</time>
      </trkpt>
      <trkpt lat="42.78449" lon="1.87625">
        <ele>1245.2</ele>
        <time>2024-10-11T09:34:53Z</time>
      </trkpt>
      <trkpt lat="42.78445" lon="1.87622">
        <ele>1245.8</ele>
        <time>2024-10-11T09:34:54Z</time>
      </trkpt>
      <trkpt lat="42.78442" lon="1.87618">
        <ele>1245.8</ele>
        <time>2024-10-11T09:34:55Z</time>
      </trkpt>
      <trkpt lat="42.78438" lon="1.87616">
        <ele>1245.8</ele>
        <time>2024-10-11T09:34:56Z</time>
      </trkpt>
      <trkpt lat="42.78434" lon="1.87613">
        <ele>1245.8</ele>
        <time>2024-10-11T09:34:57Z</time>
      </trkpt>
      <trkpt lat="42.7843" lon="1.8761">
        <ele>1245.8</ele>
        <time>2024-10-11T09:34:58Z</time>
      </trkpt>
      <trkpt lat="42.78426" lon="1.87608">
        <ele>1245.8</ele>
        <time>2024-10-11T09:34:59Z</time>
      </trkpt>
      <trkpt lat="42.78423" lon="1.87605">
        <ele>1246.2</ele>
        <time>2024-10-11T09:35:00Z</time>
      </trkpt>
      <trkpt lat="42.78419" lon="1.87603">
        <ele>1246.2</ele>
        <time>2024-10-11T09:35:01Z</time>
      </trkpt>
      <trkpt lat="42.78415" lon="1.87601">
        <ele>1246.2</ele>
        <time>2024-10-11T09:35:02Z</time>
      </trkpt>
      <trkpt lat="42.7841" lon="1.87599">
        <ele>1246.4</ele>
        <time>2024-10-11T09:35:03Z</time>
      </trkpt>
      <trkpt lat="42.78406" lon="1.87597">
        <ele>1246.8</ele>
        <time>2024-10-11T09:35:04Z</time>
      </trkpt>
      <trkpt lat="42.784" lon="1.87594">
        <ele>1246.8</ele>
        <time>2024-10-11T09:35:05Z</time>
      </trkpt>
      <trkpt lat="42.78398" lon="1.87593">
        <ele>1246.8</ele>
        <time>2024-10-11T09:35:06Z</time>
      </trkpt>
      <trkpt lat="42.78391" lon="1.87589">
        <ele>1247</ele>
        <time>2024-10-11T09:35:07Z</time>
      </trkpt>
      <trkpt lat="42.78389" lon="1.87588">
        <ele>1247.4</ele>
        <time>2024-10-11T09:35:08Z</time>
      </trkpt>
      <trkpt lat="42.78385" lon="1.87587">
        <ele>1247.4</ele>
        <time>2024-10-11T09:35:09Z</time>
      </trkpt>
      <trkpt lat="42.78381" lon="1.87585">
        <ele>1247.4</ele>
        <time>2024-10-11T09:35:10Z</time>
      </trkpt>
      <trkpt lat="42.78377" lon="1.87584">
        <ele>1247.4</ele>
        <time>2024-10-11T09:35:11Z</time>
      </trkpt>
      <trkpt lat="42.78373" lon="1.87582">
        <ele>1247.4</ele>
        <time>2024-10-11T09:35:12Z</time>
      </trkpt>
      <trkpt lat="42.78368" lon="1.8758">
        <ele>1247.8</ele>
        <time>2024-10-11T09:35:13Z</time>
      </trkpt>
      <trkpt lat="42.78364" lon="1.87579">
        <ele>1247.8</ele>
        <time>2024-10-11T09:35:14Z</time>
      </trkpt>
      <trkpt lat="42.7836" lon="1.87578">
        <ele>1247.8</ele>
        <time>2024-10-11T09:35:15Z</time>
      </trkpt>
      <trkpt lat="42.78356" lon="1.87576">
        <ele>1247.8</ele>
        <time>2024-10-11T09:35:16Z</time>
      </trkpt>
      <trkpt lat="42.78352" lon="1.87575">
        <ele>1247.8</ele>
        <time>2024-10-11T09:35:17Z</time>
      </trkpt>
      <trkpt lat="42.78347" lon="1.87573">
        <ele>1248</ele>
        <time>2024-10-11T09:35:18Z</time>
      </trkpt>
      <trkpt lat="42.78343" lon="1.87571">
        <ele>1248</ele>
        <time>2024-10-11T09:35:19Z</time>
      </trkpt>
      <trkpt lat="42.78339" lon="1.8757">
        <ele>1248</ele>
        <time>2024-10-11T09:35:20Z</time>
      </trkpt>
      <trkpt lat="42.78335" lon="1.87568">
        <ele>1248</ele>
        <time>2024-10-11T09:35:21Z</time>
      </trkpt>
      <trkpt lat="42.7833" lon="1.87566">
        <ele>1248</ele>
        <time>2024-10-11T09:35:22Z</time>
      </trkpt>
      <trkpt lat="42.78326" lon="1.87564">
        <ele>1248.4</ele>
        <time>2024-10-11T09:35:23Z</time>
      </trkpt>
      <trkpt lat="42.78322" lon="1.87562">
        <ele>1248.4</ele>
        <time>2024-10-11T09:35:24Z</time>
      </trkpt>
      <trkpt lat="42.78318" lon="1.87559">
        <ele>1248.4</ele>
        <time>2024-10-11T09:35:25Z</time>
      </trkpt>
      <trkpt lat="42.78314" lon="1.87556">
        <ele>1248.6</ele>
        <time>2024-10-11T09:35:26Z</time>
      </trkpt>
      <trkpt lat="42.78311" lon="1.87553">
        <ele>1248.4</ele>
        <time>2024-10-11T09:35:27Z</time>
      </trkpt>
      <trkpt lat="42.78307" lon="1.8755">
        <ele>1248.4</ele>
        <time>2024-10-11T09:35:28Z</time>
      </trkpt>
      <trkpt lat="42.78303" lon="1.87547">
        <ele>1248.4</ele>
        <time>2024-10-11T09:35:29Z</time>
      </trkpt>
      <trkpt lat="42.783" lon="1.87544">
        <ele>1249</ele>
        <time>2024-10-11T09:35:30Z</time>
      </trkpt>
      <trkpt lat="42.78296" lon="1.87541">
        <ele>1249</ele>
        <time>2024-10-11T09:35:31Z</time>
      </trkpt>
      <trkpt lat="42.78292" lon="1.87538">
        <ele>1249.2</ele>
        <time>2024-10-11T09:35:32Z</time>
      </trkpt>
      <trkpt lat="42.78289" lon="1.87536">
        <ele>1249.2</ele>
        <time>2024-10-11T09:35:33Z</time>
      </trkpt>
      <trkpt lat="42.78285" lon="1.87532">
        <ele>1249.2</ele>
        <time>2024-10-11T09:35:34Z</time>
      </trkpt>
      <trkpt lat="42.78281" lon="1.87529">
        <ele>1249.2</ele>
        <time>2024-10-11T09:35:35Z</time>
      </trkpt>
      <trkpt lat="42.78278" lon="1.87525">
        <ele>1249.4</ele>
        <time>2024-10-11T09:35:36Z</time>
      </trkpt>
      <trkpt lat="42.78274" lon="1.87522">
        <ele>1249.4</ele>
        <time>2024-10-11T09:35:37Z</time>
      </trkpt>
      <trkpt lat="42.7827" lon="1.87518">
        <ele>1249.4</ele>
        <time>2024-10-11T09:35:38Z</time>
      </trkpt>
      <trkpt lat="42.78266" lon="1.87514">
        <ele>1249.6</ele>
        <time>2024-10-11T09:35:39Z</time>
      </trkpt>
      <trkpt lat="42.78263" lon="1.87511">
        <ele>1249.8</ele>
        <time>2024-10-11T09:35:40Z</time>
      </trkpt>
      <trkpt lat="42.78259" lon="1.87506">
        <ele>1249.8</ele>
        <time>2024-10-11T09:35:41Z</time>
      </trkpt>
      <trkpt lat="42.78256" lon="1.87502">
        <ele>1249.8</ele>
        <time>2024-10-11T09:35:42Z</time>
      </trkpt>
      <trkpt lat="42.78253" lon="1.87497">
        <ele>1249.8</ele>
        <time>2024-10-11T09:35:43Z</time>
      </trkpt>
      <trkpt lat="42.78249" lon="1.87493">
        <ele>1249.8</ele>
        <time>2024-10-11T09:35:44Z</time>
      </trkpt>
      <trkpt lat="42.78247" lon="1.87488">
        <ele>1250.2</ele>
        <time>2024-10-11T09:35:45Z</time>
      </trkpt>
      <trkpt lat="42.78244" lon="1.87484">
        <ele>1250.2</ele>
        <time>2024-10-11T09:35:46Z</time>
      </trkpt>
      <trkpt lat="42.78241" lon="1.87479">
        <ele>1250.2</ele>
        <time>2024-10-11T09:35:47Z</time>
      </trkpt>
      <trkpt lat="42.78238" lon="1.87475">
        <ele>1250.6</ele>
        <time>2024-10-11T09:35:48Z</time>
      </trkpt>
      <trkpt lat="42.78235" lon="1.8747">
        <ele>1250.4</ele>
        <time>2024-10-11T09:35:49Z</time>
      </trkpt>
      <trkpt lat="42.78232" lon="1.87466">
        <ele>1250.4</ele>
        <time>2024-10-11T09:35:50Z</time>
      </trkpt>
      <trkpt lat="42.78229" lon="1.87461">
        <ele>1250.4</ele>
        <time>2024-10-11T09:35:51Z</time>
      </trkpt>
      <trkpt lat="42.78226" lon="1.87457">
        <ele>1250.4</ele>
        <time>2024-10-11T09:35:52Z</time>
      </trkpt>
      <trkpt lat="42.78223" lon="1.87453">
        <ele>1251</ele>
        <time>2024-10-11T09:35:53Z</time>
      </trkpt>
      <trkpt lat="42.7822" lon="1.87449">
        <ele>1251</ele>
        <time>2024-10-11T09:35:54Z</time>
      </trkpt>
      <trkpt lat="42.78217" lon="1.87444">
        <ele>1251</ele>
        <time>2024-10-11T09:35:55Z</time>
      </trkpt>
      <trkpt lat="42.78214" lon="1.8744">
        <ele>1251</ele>
        <time>2024-10-11T09:35:56Z</time>
      </trkpt>
      <trkpt lat="42.78211" lon="1.87435">
        <ele>1251.2</ele>
        <time>2024-10-11T09:35:57Z</time>
      </trkpt>
      <trkpt lat="42.78208" lon="1.87431">
        <ele>1251.2</ele>
        <time>2024-10-11T09:35:58Z</time>
      </trkpt>
      <trkpt lat="42.78204" lon="1.87427">
        <ele>1251.4</ele>
        <time>2024-10-11T09:35:59Z</time>
      </trkpt>
      <trkpt lat="42.78201" lon="1.87423">
        <ele>1251.4</ele>
        <time>2024-10-11T09:36:00Z</time>
      </trkpt>
      <trkpt lat="42.78198" lon="1.8742">
        <ele>1251.4</ele>
        <time>2024-10-11T09:36:01Z</time>
      </trkpt>
      <trkpt lat="42.78194" lon="1.87416">
        <ele>1251.4</ele>
        <time>2024-10-11T09:36:02Z</time>
      </trkpt>
      <trkpt lat="42.7819" lon="1.87413">
        <ele>1251.6</ele>
        <time>2024-10-11T09:36:03Z</time>
      </trkpt>
      <trkpt lat="42.78187" lon="1.87409">
        <ele>1251.6</ele>
        <time>2024-10-11T09:36:04Z</time>
      </trkpt>
      <trkpt lat="42.78183" lon="1.87406">
        <ele>1251.6</ele>
        <time>2024-10-11T09:36:05Z</time>
      </trkpt>
      <trkpt lat="42.78179" lon="1.87403">
        <ele>1252</ele>
        <time>2024-10-11T09:36:06Z</time>
      </trkpt>
      <trkpt lat="42.78175" lon="1.87399">
        <ele>1252</ele>
        <time>2024-10-11T09:36:07Z</time>
      </trkpt>
      <trkpt lat="42.78172" lon="1.87396">
        <ele>1252.8</ele>
        <time>2024-10-11T09:36:08Z</time>
      </trkpt>
      <trkpt lat="42.78168" lon="1.87392">
        <ele>1252.8</ele>
        <time>2024-10-11T09:36:09Z</time>
      </trkpt>
      <trkpt lat="42.78164" lon="1.87389">
        <ele>1252.8</ele>
        <time>2024-10-11T09:36:10Z</time>
      </trkpt>
      <trkpt lat="42.7816" lon="1.87386">
        <ele>1252.6</ele>
        <time>2024-10-11T09:36:11Z</time>
      </trkpt>
      <trkpt lat="42.78156" lon="1.87382">
        <ele>1252.4</ele>
        <time>2024-10-11T09:36:12Z</time>
      </trkpt>
      <trkpt lat="42.78152" lon="1.87378">
        <ele>1252.4</ele>
        <time>2024-10-11T09:36:13Z</time>
      </trkpt>
      <trkpt lat="42.78148" lon="1.87374">
        <ele>1252.4</ele>
        <time>2024-10-11T09:36:14Z</time>
      </trkpt>
      <trkpt lat="42.78145" lon="1.8737">
        <ele>1252.4</ele>
        <time>2024-10-11T09:36:15Z</time>
      </trkpt>
      <trkpt lat="42.78141" lon="1.87367">
        <ele>1253</ele>
        <time>2024-10-11T09:36:16Z</time>
      </trkpt>
      <trkpt lat="42.78137" lon="1.87363">
        <ele>1253</ele>
        <time>2024-10-11T09:36:17Z</time>
      </trkpt>
      <trkpt lat="42.78133" lon="1.87359">
        <ele>1253</ele>
        <time>2024-10-11T09:36:18Z</time>
      </trkpt>
      <trkpt lat="42.78129" lon="1.87355">
        <ele>1253</ele>
        <time>2024-10-11T09:36:19Z</time>
      </trkpt>
      <trkpt lat="42.78125" lon="1.87351">
        <ele>1253.2</ele>
        <time>2024-10-11T09:36:20Z</time>
      </trkpt>
      <trkpt lat="42.78121" lon="1.87348">
        <ele>1253.2</ele>
        <time>2024-10-11T09:36:21Z</time>
      </trkpt>
      <trkpt lat="42.78117" lon="1.87344">
        <ele>1253.2</ele>
        <time>2024-10-11T09:36:22Z</time>
      </trkpt>
      <trkpt lat="42.78113" lon="1.87341">
        <ele>1253.2</ele>
        <time>2024-10-11T09:36:23Z</time>
      </trkpt>
      <trkpt lat="42.7811" lon="1.87338">
        <ele>1253.2</ele>
        <time>2024-10-11T09:36:24Z</time>
      </trkpt>
      <trkpt lat="42.78106" lon="1.87334">
        <ele>1253.8</ele>
        <time>2024-10-11T09:36:25Z</time>
      </trkpt>
      <trkpt lat="42.78102" lon="1.87331">
        <ele>1253.8</ele>
        <time>2024-10-11T09:36:26Z</time>
      </trkpt>
      <trkpt lat="42.78098" lon="1.87327">
        <ele>1253.8</ele>
        <time>2024-10-11T09:36:27Z</time>
      </trkpt>
      <trkpt lat="42.78094" lon="1.87324">
        <ele>1254</ele>
        <time>2024-10-11T09:36:28Z</time>
      </trkpt>
      <trkpt lat="42.7809" lon="1.8732">
        <ele>1254</ele>
        <time>2024-10-11T09:36:29Z</time>
      </trkpt>
      <trkpt lat="42.78087" lon="1.87317">
        <ele>1254</ele>
        <time>2024-10-11T09:36:30Z</time>
      </trkpt>
      <trkpt lat="42.78083" lon="1.87313">
        <ele>1254</ele>
        <time>2024-10-11T09:36:31Z</time>
      </trkpt>
      <trkpt lat="42.7808" lon="1.8731">
        <ele>1254</ele>
        <time>2024-10-11T09:36:32Z</time>
      </trkpt>
      <trkpt lat="42.78076" lon="1.87306">
        <ele>1254.4</ele>
        <time>2024-10-11T09:36:33Z</time>
      </trkpt>
      <trkpt lat="42.78073" lon="1.87302">
        <ele>1254.8</ele>
        <time>2024-10-11T09:36:34Z</time>
      </trkpt>
      <trkpt lat="42.7807" lon="1.87298">
        <ele>1254.8</ele>
        <time>2024-10-11T09:36:35Z</time>
      </trkpt>
      <trkpt lat="42.78066" lon="1.87295">
        <ele>1254.8</ele>
        <time>2024-10-11T09:36:36Z</time>
      </trkpt>
      <trkpt lat="42.78063" lon="1.87291">
        <ele>1254.8</ele>
        <time>2024-10-11T09:36:37Z</time>
      </trkpt>
      <trkpt lat="42.7806" lon="1.87287">
        <ele>1255.6</ele>
        <time>2024-10-11T09:36:38Z</time>
      </trkpt>
      <trkpt lat="42.78056" lon="1.87283">
        <ele>1255.6</ele>
        <time>2024-10-11T09:36:39Z</time>
      </trkpt>
      <trkpt lat="42.78053" lon="1.87279">
        <ele>1255.6</ele>
        <time>2024-10-11T09:36:40Z</time>
      </trkpt>
      <trkpt lat="42.7805" lon="1.87275">
        <ele>1255.6</ele>
        <time>2024-10-11T09:36:41Z</time>
      </trkpt>
      <trkpt lat="42.78047" lon="1.87271">
        <ele>1255.6</ele>
        <time>2024-10-11T09:36:42Z</time>
      </trkpt>
      <trkpt lat="42.78043" lon="1.87267">
        <ele>1255.6</ele>
        <time>2024-10-11T09:36:43Z</time>
      </trkpt>
      <trkpt lat="42.7804" lon="1.87263">
        <ele>1255</ele>
        <time>2024-10-11T09:36:44Z</time>
      </trkpt>
      <trkpt lat="42.78036" lon="1.87259">
        <ele>1255</ele>
        <time>2024-10-11T09:36:45Z</time>
      </trkpt>
      <trkpt lat="42.78033" lon="1.87256">
        <ele>1255</ele>
        <time>2024-10-11T09:36:46Z</time>
      </trkpt>
      <trkpt lat="42.78029" lon="1.87252">
        <ele>1256</ele>
        <time>2024-10-11T09:36:47Z</time>
      </trkpt>
      <trkpt lat="42.78026" lon="1.87249">
        <ele>1256</ele>
        <time>2024-10-11T09:36:48Z</time>
      </trkpt>
      <trkpt lat="42.78022" lon="1.87245">
        <ele>1256</ele>
        <time>2024-10-11T09:36:49Z</time>
      </trkpt>
      <trkpt lat="42.78019" lon="1.87241">
        <ele>1256</ele>
        <time>2024-10-11T09:36:50Z</time>
      </trkpt>
      <trkpt lat="42.78016" lon="1.87237">
        <ele>1256</ele>
        <time>2024-10-11T09:36:51Z</time>
      </trkpt>
      <trkpt lat="42.78013" lon="1.87234">
        <ele>1256.6</ele>
        <time>2024-10-11T09:36:52Z</time>
      </trkpt>
      <trkpt lat="42.7801" lon="1.87231">
        <ele>1256.6</ele>
        <time>2024-10-11T09:36:53Z</time>
      </trkpt>
      <trkpt lat="42.78007" lon="1.87228">
        <ele>1256.6</ele>
        <time>2024-10-11T09:36:54Z</time>
      </trkpt>
      <trkpt lat="42.78003" lon="1.87226">
        <ele>1256.6</ele>
        <time>2024-10-11T09:36:55Z</time>
      </trkpt>
      <trkpt lat="42.78" lon="1.87225">
        <ele>1257.4</ele>
        <time>2024-10-11T09:36:56Z</time>
      </trkpt>
      <trkpt lat="42.77998" lon="1.87223">
        <ele>1257.4</ele>
        <time>2024-10-11T09:36:57Z</time>
      </trkpt>
      <trkpt lat="42.77997" lon="1.87222">
        <ele>1257.4</ele>
        <time>2024-10-11T09:36:58Z</time>
      </trkpt>
      <trkpt lat="42.77997" lon="1.87221">
        <ele>1257.4</ele>
        <time>2024-10-11T09:36:59Z</time>
      </trkpt>
      <trkpt lat="42.77997" lon="1.87221">
        <ele>1257.4</ele>
        <time>2024-10-11T09:37:00Z</time>
      </trkpt>
      <trkpt lat="42.77997" lon="1.87221">
        <ele>1257.6</ele>
        <time>2024-10-11T09:37:01Z</time>
      </trkpt>
      <trkpt lat="42.77995" lon="1.87216">
        <ele>1257.2</ele>
        <time>2024-10-11T09:37:24Z</time>
      </trkpt>
      <trkpt lat="42.77994" lon="1.87213">
        <ele>1257.2</ele>
        <time>2024-10-11T09:37:25Z</time>
      </trkpt>
      <trkpt lat="42.77992" lon="1.87209">
        <ele>1257.2</ele>
        <time>2024-10-11T09:37:26Z</time>
      </trkpt>
      <trkpt lat="42.77991" lon="1.87206">
        <ele>1257.2</ele>
        <time>2024-10-11T09:37:27Z</time>
      </trkpt>
      <trkpt lat="42.77989" lon="1.87203">
        <ele>1257.2</ele>
        <time>2024-10-11T09:37:28Z</time>
      </trkpt>
      <trkpt lat="42.77987" lon="1.872">
        <ele>1257.8</ele>
        <time>2024-10-11T09:37:29Z</time>
      </trkpt>
      <trkpt lat="42.77985" lon="1.87197">
        <ele>1257.8</ele>
        <time>2024-10-11T09:37:30Z</time>
      </trkpt>
      <trkpt lat="42.77984" lon="1.87193">
        <ele>1257.8</ele>
        <time>2024-10-11T09:37:31Z</time>
      </trkpt>
      <trkpt lat="42.77982" lon="1.8719">
        <ele>1257.8</ele>
        <time>2024-10-11T09:37:32Z</time>
      </trkpt>
      <trkpt lat="42.7798" lon="1.87187">
        <ele>1258.4</ele>
        <time>2024-10-11T09:37:33Z</time>
      </trkpt>
      <trkpt lat="42.77978" lon="1.87183">
        <ele>1258.4</ele>
        <time>2024-10-11T09:37:34Z</time>
      </trkpt>
      <trkpt lat="42.77976" lon="1.8718">
        <ele>1258.4</ele>
        <time>2024-10-11T09:37:35Z</time>
      </trkpt>
      <trkpt lat="42.77973" lon="1.87176">
        <ele>1258.4</ele>
        <time>2024-10-11T09:37:36Z</time>
      </trkpt>
      <trkpt lat="42.77971" lon="1.87173">
        <ele>1258.4</ele>
        <time>2024-10-11T09:37:37Z</time>
      </trkpt>
      <trkpt lat="42.77969" lon="1.87169">
        <ele>1258.6</ele>
        <time>2024-10-11T09:37:38Z</time>
      </trkpt>
      <trkpt lat="42.77967" lon="1.87165">
        <ele>1258.6</ele>
        <time>2024-10-11T09:37:39Z</time>
      </trkpt>
      <trkpt lat="42.77965" lon="1.87161">
        <ele>1258.6</ele>
        <time>2024-10-11T09:37:40Z</time>
      </trkpt>
      <trkpt lat="42.77963" lon="1.87158">
        <ele>1259</ele>
        <time>2024-10-11T09:37:41Z</time>
      </trkpt>
      <trkpt lat="42.77961" lon="1.87154">
        <ele>1259.2</ele>
        <time>2024-10-11T09:37:42Z</time>
      </trkpt>
      <trkpt lat="42.77958" lon="1.8715">
        <ele>1259.2</ele>
        <time>2024-10-11T09:37:43Z</time>
      </trkpt>
      <trkpt lat="42.77956" lon="1.87146">
        <ele>1259.2</ele>
        <time>2024-10-11T09:37:44Z</time>
      </trkpt>
      <trkpt lat="42.77954" lon="1.87142">
        <ele>1259.8</ele>
        <time>2024-10-11T09:37:45Z</time>
      </trkpt>
      <trkpt lat="42.77952" lon="1.87138">
        <ele>1259.8</ele>
        <time>2024-10-11T09:37:46Z</time>
      </trkpt>
      <trkpt lat="42.7795" lon="1.87134">
        <ele>1260.2</ele>
        <time>2024-10-11T09:37:47Z</time>
      </trkpt>
      <trkpt lat="42.77947" lon="1.87131">
        <ele>1260.2</ele>
        <time>2024-10-11T09:37:48Z</time>
      </trkpt>
      <trkpt lat="42.77945" lon="1.87127">
        <ele>1260.2</ele>
        <time>2024-10-11T09:37:49Z</time>
      </trkpt>
      <trkpt lat="42.77942" lon="1.87123">
        <ele>1260.2</ele>
        <time>2024-10-11T09:37:50Z</time>
      </trkpt>
      <trkpt lat="42.7794" lon="1.8712">
        <ele>1260.8</ele>
        <time>2024-10-11T09:37:51Z</time>
      </trkpt>
      <trkpt lat="42.77937" lon="1.87117">
        <ele>1260.8</ele>
        <time>2024-10-11T09:37:52Z</time>
      </trkpt>
      <trkpt lat="42.77935" lon="1.87113">
        <ele>1260.8</ele>
        <time>2024-10-11T09:37:53Z</time>
      </trkpt>
      <trkpt lat="42.77932" lon="1.8711">
        <ele>1261.2</ele>
        <time>2024-10-11T09:37:54Z</time>
      </trkpt>
      <trkpt lat="42.77929" lon="1.87106">
        <ele>1261.2</ele>
        <time>2024-10-11T09:37:55Z</time>
      </trkpt>
      <trkpt lat="42.77926" lon="1.87103">
        <ele>1261.4</ele>
        <time>2024-10-11T09:37:56Z</time>
      </trkpt>
      <trkpt lat="42.77924" lon="1.871">
        <ele>1261.4</ele>
        <time>2024-10-11T09:37:57Z</time>
      </trkpt>
      <trkpt lat="42.77921" lon="1.87096">
        <ele>1261.8</ele>
        <time>2024-10-11T09:37:58Z</time>
      </trkpt>
      <trkpt lat="42.77918" lon="1.87093">
        <ele>1261.8</ele>
        <time>2024-10-11T09:37:59Z</time>
      </trkpt>
      <trkpt lat="42.77916" lon="1.87089">
        <ele>1261.8</ele>
        <time>2024-10-11T09:38:00Z</time>
      </trkpt>
      <trkpt lat="42.77913" lon="1.87085">
        <ele>1261.8</ele>
        <time>2024-10-11T09:38:01Z</time>
      </trkpt>
      <trkpt lat="42.7791" lon="1.87082">
        <ele>1261.8</ele>
        <time>2024-10-11T09:38:02Z</time>
      </trkpt>
      <trkpt lat="42.77907" lon="1.87079">
        <ele>1262.8</ele>
        <time>2024-10-11T09:38:03Z</time>
      </trkpt>
      <trkpt lat="42.77904" lon="1.87075">
        <ele>1262.8</ele>
        <time>2024-10-11T09:38:04Z</time>
      </trkpt>
      <trkpt lat="42.77901" lon="1.87072">
        <ele>1262.8</ele>
        <time>2024-10-11T09:38:05Z</time>
      </trkpt>
      <trkpt lat="42.77898" lon="1.87068">
        <ele>1262.8</ele>
        <time>2024-10-11T09:38:06Z</time>
      </trkpt>
      <trkpt lat="42.77896" lon="1.87065">
        <ele>1263</ele>
        <time>2024-10-11T09:38:07Z</time>
      </trkpt>
      <trkpt lat="42.77893" lon="1.87061">
        <ele>1263</ele>
        <time>2024-10-11T09:38:08Z</time>
      </trkpt>
      <trkpt lat="42.77891" lon="1.87058">
        <ele>1263.4</ele>
        <time>2024-10-11T09:38:09Z</time>
      </trkpt>
      <trkpt lat="42.77889" lon="1.87054">
        <ele>1263.4</ele>
        <time>2024-10-11T09:38:10Z</time>
      </trkpt>
      <trkpt lat="42.77886" lon="1.87051">
        <ele>1263.4</ele>
        <time>2024-10-11T09:38:11Z</time>
      </trkpt>
      <trkpt lat="42.77884" lon="1.87048">
        <ele>1263.4</ele>
        <time>2024-10-11T09:38:12Z</time>
      </trkpt>
      <trkpt lat="42.77881" lon="1.87044">
        <ele>1263.4</ele>
        <time>2024-10-11T09:38:13Z</time>
      </trkpt>
      <trkpt lat="42.77879" lon="1.87041">
        <ele>1263.6</ele>
        <time>2024-10-11T09:38:14Z</time>
      </trkpt>
      <trkpt lat="42.77877" lon="1.87037">
        <ele>1263.6</ele>
        <time>2024-10-11T09:38:15Z</time>
      </trkpt>
      <trkpt lat="42.77875" lon="1.87034">
        <ele>1263.6</ele>
        <time>2024-10-11T09:38:16Z</time>
      </trkpt>
      <trkpt lat="42.77872" lon="1.8703">
        <ele>1264.4</ele>
        <time>2024-10-11T09:38:17Z</time>
      </trkpt>
      <trkpt lat="42.7787" lon="1.87026">
        <ele>1264.4</ele>
        <time>2024-10-11T09:38:18Z</time>
      </trkpt>
      <trkpt lat="42.77868" lon="1.87023">
        <ele>1264.4</ele>
        <time>2024-10-11T09:38:19Z</time>
      </trkpt>
      <trkpt lat="42.77865" lon="1.87019">
        <ele>1264.4</ele>
        <time>2024-10-11T09:38:20Z</time>
      </trkpt>
      <trkpt lat="42.77863" lon="1.87015">
        <ele>1264.4</ele>
        <time>2024-10-11T09:38:21Z</time>
      </trkpt>
      <trkpt lat="42.77861" lon="1.87012">
        <ele>1264.8</ele>
        <time>2024-10-11T09:38:22Z</time>
      </trkpt>
      <trkpt lat="42.77859" lon="1.87008">
        <ele>1264.8</ele>
        <time>2024-10-11T09:38:23Z</time>
      </trkpt>
      <trkpt lat="42.77856" lon="1.87004">
        <ele>1264.8</ele>
        <time>2024-10-11T09:38:24Z</time>
      </trkpt>
      <trkpt lat="42.77854" lon="1.87">
        <ele>1264.8</ele>
        <time>2024-10-11T09:38:25Z</time>
      </trkpt>
      <trkpt lat="42.77851" lon="1.86996">
        <ele>1265.4</ele>
        <time>2024-10-11T09:38:26Z</time>
      </trkpt>
      <trkpt lat="42.77849" lon="1.86992">
        <ele>1265.8</ele>
        <time>2024-10-11T09:38:27Z</time>
      </trkpt>
      <trkpt lat="42.77846" lon="1.86989">
        <ele>1265.8</ele>
        <time>2024-10-11T09:38:28Z</time>
      </trkpt>
      <trkpt lat="42.77844" lon="1.86985">
        <ele>1265.8</ele>
        <time>2024-10-11T09:38:29Z</time>
      </trkpt>
      <trkpt lat="42.77841" lon="1.86982">
        <ele>1265.8</ele>
        <time>2024-10-11T09:38:30Z</time>
      </trkpt>
      <trkpt lat="42.77838" lon="1.86978">
        <ele>1265.8</ele>
        <time>2024-10-11T09:38:31Z</time>
      </trkpt>
      <trkpt lat="42.77835" lon="1.86975">
        <ele>1266.4</ele>
        <time>2024-10-11T09:38:32Z</time>
      </trkpt>
      <trkpt lat="42.77833" lon="1.86971">
        <ele>1266.4</ele>
        <time>2024-10-11T09:38:33Z</time>
      </trkpt>
      <trkpt lat="42.7783" lon="1.86968">
        <ele>1266.4</ele>
        <time>2024-10-11T09:38:34Z</time>
      </trkpt>
      <trkpt lat="42.77828" lon="1.86965">
        <ele>1267</ele>
        <time>2024-10-11T09:38:35Z</time>
      </trkpt>
      <trkpt lat="42.77825" lon="1.86962">
        <ele>1266.8</ele>
        <time>2024-10-11T09:38:36Z</time>
      </trkpt>
      <trkpt lat="42.77822" lon="1.8696">
        <ele>1266.8</ele>
        <time>2024-10-11T09:38:37Z</time>
      </trkpt>
      <trkpt lat="42.77819" lon="1.86956">
        <ele>1266.8</ele>
        <time>2024-10-11T09:38:38Z</time>
      </trkpt>
      <trkpt lat="42.77816" lon="1.86953">
        <ele>1266.8</ele>
        <time>2024-10-11T09:38:39Z</time>
      </trkpt>
      <trkpt lat="42.77814" lon="1.8695">
        <ele>1267.6</ele>
        <time>2024-10-11T09:38:40Z</time>
      </trkpt>
      <trkpt lat="42.77811" lon="1.86947">
        <ele>1267.6</ele>
        <time>2024-10-11T09:38:41Z</time>
      </trkpt>
      <trkpt lat="42.77809" lon="1.86945">
        <ele>1267.6</ele>
        <time>2024-10-11T09:38:42Z</time>
      </trkpt>
      <trkpt lat="42.77806" lon="1.86942">
        <ele>1267.6</ele>
        <time>2024-10-11T09:38:43Z</time>
      </trkpt>
      <trkpt lat="42.77803" lon="1.86939">
        <ele>1268</ele>
        <time>2024-10-11T09:38:44Z</time>
      </trkpt>
      <trkpt lat="42.778" lon="1.86936">
        <ele>1268.2</ele>
        <time>2024-10-11T09:38:45Z</time>
      </trkpt>
      <trkpt lat="42.77797" lon="1.86932">
        <ele>1268.2</ele>
        <time>2024-10-11T09:38:46Z</time>
      </trkpt>
      <trkpt lat="42.77795" lon="1.86931">
        <ele>1268.2</ele>
        <time>2024-10-11T09:38:47Z</time>
      </trkpt>
      <trkpt lat="42.77793" lon="1.86928">
        <ele>1268.2</ele>
        <time>2024-10-11T09:38:48Z</time>
      </trkpt>
      <trkpt lat="42.7779" lon="1.86926">
        <ele>1268.8</ele>
        <time>2024-10-11T09:38:49Z</time>
      </trkpt>
      <trkpt lat="42.77787" lon="1.86923">
        <ele>1268.8</ele>
        <time>2024-10-11T09:38:50Z</time>
      </trkpt>
      <trkpt lat="42.77784" lon="1.8692">
        <ele>1268.8</ele>
        <time>2024-10-11T09:38:51Z</time>
      </trkpt>
      <trkpt lat="42.77782" lon="1.86918">
        <ele>1268.8</ele>
        <time>2024-10-11T09:38:52Z</time>
      </trkpt>
      <trkpt lat="42.77779" lon="1.86915">
        <ele>1268.8</ele>
        <time>2024-10-11T09:38:53Z</time>
      </trkpt>
      <trkpt lat="42.77776" lon="1.86912">
        <ele>1268.8</ele>
        <time>2024-10-11T09:38:54Z</time>
      </trkpt>
      <trkpt lat="42.77773" lon="1.8691">
        <ele>1269</ele>
        <time>2024-10-11T09:38:55Z</time>
      </trkpt>
      <trkpt lat="42.7777" lon="1.86907">
        <ele>1269</ele>
        <time>2024-10-11T09:38:56Z</time>
      </trkpt>
      <trkpt lat="42.77768" lon="1.86905">
        <ele>1269</ele>
        <time>2024-10-11T09:38:57Z</time>
      </trkpt>
      <trkpt lat="42.77765" lon="1.86902">
        <ele>1269.8</ele>
        <time>2024-10-11T09:38:58Z</time>
      </trkpt>
      <trkpt lat="42.77762" lon="1.869">
        <ele>1270</ele>
        <time>2024-10-11T09:38:59Z</time>
      </trkpt>
      <trkpt lat="42.77759" lon="1.86897">
        <ele>1270</ele>
        <time>2024-10-11T09:39:00Z</time>
      </trkpt>
      <trkpt lat="42.77756" lon="1.86895">
        <ele>1270</ele>
        <time>2024-10-11T09:39:01Z</time>
      </trkpt>
      <trkpt lat="42.77754" lon="1.86892">
        <ele>1270.6</ele>
        <time>2024-10-11T09:39:02Z</time>
      </trkpt>
      <trkpt lat="42.77751" lon="1.86889">
        <ele>1270.2</ele>
        <time>2024-10-11T09:39:03Z</time>
      </trkpt>
      <trkpt lat="42.77748" lon="1.86886">
        <ele>1270.2</ele>
        <time>2024-10-11T09:39:04Z</time>
      </trkpt>
      <trkpt lat="42.77745" lon="1.86884">
        <ele>1270.2</ele>
        <time>2024-10-11T09:39:05Z</time>
      </trkpt>
      <trkpt lat="42.77742" lon="1.86881">
        <ele>1270.2</ele>
        <time>2024-10-11T09:39:06Z</time>
      </trkpt>
      <trkpt lat="42.7774" lon="1.86879">
        <ele>1271.2</ele>
        <time>2024-10-11T09:39:07Z</time>
      </trkpt>
      <trkpt lat="42.77737" lon="1.86876">
        <ele>1271</ele>
        <time>2024-10-11T09:39:08Z</time>
      </trkpt>
      <trkpt lat="42.77734" lon="1.86874">
        <ele>1271</ele>
        <time>2024-10-11T09:39:09Z</time>
      </trkpt>
      <trkpt lat="42.77731" lon="1.86871">
        <ele>1271</ele>
        <time>2024-10-11T09:39:10Z</time>
      </trkpt>
      <trkpt lat="42.77728" lon="1.86868">
        <ele>1271.6</ele>
        <time>2024-10-11T09:39:11Z</time>
      </trkpt>
      <trkpt lat="42.77725" lon="1.86866">
        <ele>1271.8</ele>
        <time>2024-10-11T09:39:12Z</time>
      </trkpt>
      <trkpt lat="42.77722" lon="1.86864">
        <ele>1271.8</ele>
        <time>2024-10-11T09:39:13Z</time>
      </trkpt>
      <trkpt lat="42.77719" lon="1.86863">
        <ele>1271.8</ele>
        <time>2024-10-11T09:39:14Z</time>
      </trkpt>
      <trkpt lat="42.77716" lon="1.86861">
        <ele>1272.2</ele>
        <time>2024-10-11T09:39:15Z</time>
      </trkpt>
      <trkpt lat="42.77713" lon="1.86859">
        <ele>1272.6</ele>
        <time>2024-10-11T09:39:16Z</time>
      </trkpt>
      <trkpt lat="42.77709" lon="1.86856">
        <ele>1272.6</ele>
        <time>2024-10-11T09:39:17Z</time>
      </trkpt>
      <trkpt lat="42.77706" lon="1.86854">
        <ele>1272.6</ele>
        <time>2024-10-11T09:39:18Z</time>
      </trkpt>
      <trkpt lat="42.77703" lon="1.86852">
        <ele>1272.6</ele>
        <time>2024-10-11T09:39:19Z</time>
      </trkpt>
      <trkpt lat="42.777" lon="1.8685">
        <ele>1272.6</ele>
        <time>2024-10-11T09:39:20Z</time>
      </trkpt>
      <trkpt lat="42.77697" lon="1.86848">
        <ele>1273.2</ele>
        <time>2024-10-11T09:39:21Z</time>
      </trkpt>
      <trkpt lat="42.77694" lon="1.86846">
        <ele>1273.2</ele>
        <time>2024-10-11T09:39:22Z</time>
      </trkpt>
      <trkpt lat="42.77691" lon="1.86843">
        <ele>1273.2</ele>
        <time>2024-10-11T09:39:23Z</time>
      </trkpt>
      <trkpt lat="42.77688" lon="1.86841">
        <ele>1273.2</ele>
        <time>2024-10-11T09:39:24Z</time>
      </trkpt>
      <trkpt lat="42.77684" lon="1.86839">
        <ele>1274</ele>
        <time>2024-10-11T09:39:25Z</time>
      </trkpt>
      <trkpt lat="42.77681" lon="1.86838">
        <ele>1274</ele>
        <time>2024-10-11T09:39:26Z</time>
      </trkpt>
      <trkpt lat="42.77678" lon="1.86836">
        <ele>1274</ele>
        <time>2024-10-11T09:39:27Z</time>
      </trkpt>
      <trkpt lat="42.77675" lon="1.86834">
        <ele>1274</ele>
        <time>2024-10-11T09:39:28Z</time>
      </trkpt>
      <trkpt lat="42.7767" lon="1.86831">
        <ele>1274</ele>
        <time>2024-10-11T09:39:29Z</time>
      </trkpt>
      <trkpt lat="42.77669" lon="1.86829">
        <ele>1274</ele>
        <time>2024-10-11T09:39:30Z</time>
      </trkpt>
      <trkpt lat="42.77666" lon="1.86827">
        <ele>1274.4</ele>
        <time>2024-10-11T09:39:31Z</time>
      </trkpt>
      <trkpt lat="42.77663" lon="1.86825">
        <ele>1274.4</ele>
        <time>2024-10-11T09:39:32Z</time>
      </trkpt>
      <trkpt lat="42.7766" lon="1.86822">
        <ele>1275</ele>
        <time>2024-10-11T09:39:33Z</time>
      </trkpt>
      <trkpt lat="42.77657" lon="1.8682">
        <ele>1275</ele>
        <time>2024-10-11T09:39:34Z</time>
      </trkpt>
      <trkpt lat="42.77655" lon="1.86817">
        <ele>1275</ele>
        <time>2024-10-11T09:39:35Z</time>
      </trkpt>
      <trkpt lat="42.77652" lon="1.86814">
        <ele>1275</ele>
        <time>2024-10-11T09:39:36Z</time>
      </trkpt>
      <trkpt lat="42.7765" lon="1.86811">
        <ele>1275</ele>
        <time>2024-10-11T09:39:37Z</time>
      </trkpt>
      <trkpt lat="42.77648" lon="1.86807">
        <ele>1275.8</ele>
        <time>2024-10-11T09:39:38Z</time>
      </trkpt>
      <trkpt lat="42.77645" lon="1.86804">
        <ele>1275.8</ele>
        <time>2024-10-11T09:39:39Z</time>
      </trkpt>
      <trkpt lat="42.77643" lon="1.86801">
        <ele>1275.8</ele>
        <time>2024-10-11T09:39:40Z</time>
      </trkpt>
      <trkpt lat="42.77641" lon="1.86798">
        <ele>1275.8</ele>
        <time>2024-10-11T09:39:41Z</time>
      </trkpt>
      <trkpt lat="42.77638" lon="1.86792">
        <ele>1275.8</ele>
        <time>2024-10-11T09:39:42Z</time>
      </trkpt>
      <trkpt lat="42.77637" lon="1.8679">
        <ele>1275.8</ele>
        <time>2024-10-11T09:39:43Z</time>
      </trkpt>
      <trkpt lat="42.77635" lon="1.86787">
        <ele>1276</ele>
        <time>2024-10-11T09:39:44Z</time>
      </trkpt>
      <trkpt lat="42.77633" lon="1.86783">
        <ele>1276</ele>
        <time>2024-10-11T09:39:45Z</time>
      </trkpt>
      <trkpt lat="42.77632" lon="1.86779">
        <ele>1276</ele>
        <time>2024-10-11T09:39:46Z</time>
      </trkpt>
      <trkpt lat="42.7763" lon="1.86775">
        <ele>1276.6</ele>
        <time>2024-10-11T09:39:47Z</time>
      </trkpt>
      <trkpt lat="42.77629" lon="1.8677">
        <ele>1277</ele>
        <time>2024-10-11T09:39:48Z</time>
      </trkpt>
      <trkpt lat="42.77628" lon="1.86766">
        <ele>1277</ele>
        <time>2024-10-11T09:39:49Z</time>
      </trkpt>
      <trkpt lat="42.77626" lon="1.86761">
        <ele>1277</ele>
        <time>2024-10-11T09:39:50Z</time>
      </trkpt>
      <trkpt lat="42.77625" lon="1.86757">
        <ele>1277</ele>
        <time>2024-10-11T09:39:51Z</time>
      </trkpt>
      <trkpt lat="42.77624" lon="1.86752">
        <ele>1277.4</ele>
        <time>2024-10-11T09:39:52Z</time>
      </trkpt>
      <trkpt lat="42.77623" lon="1.86748">
        <ele>1277.4</ele>
        <time>2024-10-11T09:39:53Z</time>
      </trkpt>
      <trkpt lat="42.77622" lon="1.86743">
        <ele>1277.4</ele>
        <time>2024-10-11T09:39:54Z</time>
      </trkpt>
      <trkpt lat="42.7762" lon="1.86738">
        <ele>1277.4</ele>
        <time>2024-10-11T09:39:55Z</time>
      </trkpt>
      <trkpt lat="42.77619" lon="1.86734">
        <ele>1277.8</ele>
        <time>2024-10-11T09:39:56Z</time>
      </trkpt>
      <trkpt lat="42.77617" lon="1.86729">
        <ele>1277.8</ele>
        <time>2024-10-11T09:39:57Z</time>
      </trkpt>
      <trkpt lat="42.77615" lon="1.86725">
        <ele>1277.8</ele>
        <time>2024-10-11T09:39:58Z</time>
      </trkpt>
      <trkpt lat="42.77614" lon="1.86721">
        <ele>1277.8</ele>
        <time>2024-10-11T09:39:59Z</time>
      </trkpt>
      <trkpt lat="42.77612" lon="1.86717">
        <ele>1278.4</ele>
        <time>2024-10-11T09:40:00Z</time>
      </trkpt>
      <trkpt lat="42.7761" lon="1.86713">
        <ele>1278.4</ele>
        <time>2024-10-11T09:40:01Z</time>
      </trkpt>
      <trkpt lat="42.77608" lon="1.86709">
        <ele>1278.4</ele>
        <time>2024-10-11T09:40:02Z</time>
      </trkpt>
      <trkpt lat="42.77605" lon="1.86705">
        <ele>1278.4</ele>
        <time>2024-10-11T09:40:03Z</time>
      </trkpt>
      <trkpt lat="42.77603" lon="1.86702">
        <ele>1279.2</ele>
        <time>2024-10-11T09:40:04Z</time>
      </trkpt>
      <trkpt lat="42.77601" lon="1.86698">
        <ele>1279.2</ele>
        <time>2024-10-11T09:40:05Z</time>
      </trkpt>
      <trkpt lat="42.77599" lon="1.86694">
        <ele>1279.2</ele>
        <time>2024-10-11T09:40:06Z</time>
      </trkpt>
      <trkpt lat="42.77597" lon="1.8669">
        <ele>1279.2</ele>
        <time>2024-10-11T09:40:07Z</time>
      </trkpt>
      <trkpt lat="42.77595" lon="1.86687">
        <ele>1279.2</ele>
        <time>2024-10-11T09:40:08Z</time>
      </trkpt>
      <trkpt lat="42.77593" lon="1.86684">
        <ele>1279.4</ele>
        <time>2024-10-11T09:40:09Z</time>
      </trkpt>
      <trkpt lat="42.7759" lon="1.8668">
        <ele>1279.8</ele>
        <time>2024-10-11T09:40:10Z</time>
      </trkpt>
      <trkpt lat="42.77588" lon="1.86677">
        <ele>1279.8</ele>
        <time>2024-10-11T09:40:11Z</time>
      </trkpt>
      <trkpt lat="42.77585" lon="1.86672">
        <ele>1279.8</ele>
        <time>2024-10-11T09:40:12Z</time>
      </trkpt>
      <trkpt lat="42.77584" lon="1.8667">
        <ele>1279.8</ele>
        <time>2024-10-11T09:40:13Z</time>
      </trkpt>
      <trkpt lat="42.77581" lon="1.86667">
        <ele>1280.2</ele>
        <time>2024-10-11T09:40:14Z</time>
      </trkpt>
      <trkpt lat="42.77579" lon="1.86664">
        <ele>1280.6</ele>
        <time>2024-10-11T09:40:15Z</time>
      </trkpt>
      <trkpt lat="42.77576" lon="1.86661">
        <ele>1280.6</ele>
        <time>2024-10-11T09:40:16Z</time>
      </trkpt>
      <trkpt lat="42.77574" lon="1.86657">
        <ele>1280.6</ele>
        <time>2024-10-11T09:40:17Z</time>
      </trkpt>
      <trkpt lat="42.77572" lon="1.86654">
        <ele>1280.6</ele>
        <time>2024-10-11T09:40:18Z</time>
      </trkpt>
      <trkpt lat="42.7757" lon="1.8665">
        <ele>1280.6</ele>
        <time>2024-10-11T09:40:19Z</time>
      </trkpt>
      <trkpt lat="42.77568" lon="1.86647">
        <ele>1281</ele>
        <time>2024-10-11T09:40:20Z</time>
      </trkpt>
      <trkpt lat="42.77565" lon="1.86643">
        <ele>1281</ele>
        <time>2024-10-11T09:40:21Z</time>
      </trkpt>
      <trkpt lat="42.77563" lon="1.8664">
        <ele>1281</ele>
        <time>2024-10-11T09:40:22Z</time>
      </trkpt>
      <trkpt lat="42.77561" lon="1.86636">
        <ele>1281.2</ele>
        <time>2024-10-11T09:40:23Z</time>
      </trkpt>
      <trkpt lat="42.77558" lon="1.86633">
        <ele>1281.8</ele>
        <time>2024-10-11T09:40:24Z</time>
      </trkpt>
      <trkpt lat="42.77556" lon="1.8663">
        <ele>1281.8</ele>
        <time>2024-10-11T09:40:25Z</time>
      </trkpt>
      <trkpt lat="42.77553" lon="1.86627">
        <ele>1281.8</ele>
        <time>2024-10-11T09:40:26Z</time>
      </trkpt>
      <trkpt lat="42.7755" lon="1.86624">
        <ele>1282.6</ele>
        <time>2024-10-11T09:40:27Z</time>
      </trkpt>
      <trkpt lat="42.77548" lon="1.86621">
        <ele>1282.6</ele>
        <time>2024-10-11T09:40:28Z</time>
      </trkpt>
      <trkpt lat="42.77546" lon="1.86617">
        <ele>1282.4</ele>
        <time>2024-10-11T09:40:29Z</time>
      </trkpt>
      <trkpt lat="42.77544" lon="1.86614">
        <ele>1282.4</ele>
        <time>2024-10-11T09:40:30Z</time>
      </trkpt>
      <trkpt lat="42.77541" lon="1.86611">
        <ele>1282.4</ele>
        <time>2024-10-11T09:40:31Z</time>
      </trkpt>
      <trkpt lat="42.77538" lon="1.86608">
        <ele>1282.8</ele>
        <time>2024-10-11T09:40:32Z</time>
      </trkpt>
      <trkpt lat="42.77536" lon="1.86605">
        <ele>1283.2</ele>
        <time>2024-10-11T09:40:33Z</time>
      </trkpt>
      <trkpt lat="42.77533" lon="1.86602">
        <ele>1283.2</ele>
        <time>2024-10-11T09:40:34Z</time>
      </trkpt>
      <trkpt lat="42.77531" lon="1.86599">
        <ele>1283.2</ele>
        <time>2024-10-11T09:40:35Z</time>
      </trkpt>
      <trkpt lat="42.77528" lon="1.86597">
        <ele>1283.2</ele>
        <time>2024-10-11T09:40:36Z</time>
      </trkpt>
      <trkpt lat="42.77525" lon="1.86594">
        <ele>1283.8</ele>
        <time>2024-10-11T09:40:37Z</time>
      </trkpt>
      <trkpt lat="42.77523" lon="1.86591">
        <ele>1283.8</ele>
        <time>2024-10-11T09:40:38Z</time>
      </trkpt>
      <trkpt lat="42.7752" lon="1.86589">
        <ele>1283.8</ele>
        <time>2024-10-11T09:40:39Z</time>
      </trkpt>
      <trkpt lat="42.77517" lon="1.86586">
        <ele>1284.2</ele>
        <time>2024-10-11T09:40:40Z</time>
      </trkpt>
      <trkpt lat="42.77515" lon="1.86583">
        <ele>1284.2</ele>
        <time>2024-10-11T09:40:41Z</time>
      </trkpt>
      <trkpt lat="42.77512" lon="1.8658">
        <ele>1284.4</ele>
        <time>2024-10-11T09:40:42Z</time>
      </trkpt>
      <trkpt lat="42.7751" lon="1.86577">
        <ele>1284.4</ele>
        <time>2024-10-11T09:40:43Z</time>
      </trkpt>
      <trkpt lat="42.77507" lon="1.86574">
        <ele>1284.4</ele>
        <time>2024-10-11T09:40:44Z</time>
      </trkpt>
      <trkpt lat="42.77504" lon="1.86571">
        <ele>1284.8</ele>
        <time>2024-10-11T09:40:45Z</time>
      </trkpt>
      <trkpt lat="42.77502" lon="1.86568">
        <ele>1285</ele>
        <time>2024-10-11T09:40:46Z</time>
      </trkpt>
      <trkpt lat="42.77499" lon="1.86565">
        <ele>1285</ele>
        <time>2024-10-11T09:40:47Z</time>
      </trkpt>
      <trkpt lat="42.77496" lon="1.86562">
        <ele>1285</ele>
        <time>2024-10-11T09:40:48Z</time>
      </trkpt>
      <trkpt lat="42.77494" lon="1.86559">
        <ele>1285.6</ele>
        <time>2024-10-11T09:40:49Z</time>
      </trkpt>
      <trkpt lat="42.77491" lon="1.86556">
        <ele>1285.6</ele>
        <time>2024-10-11T09:40:50Z</time>
      </trkpt>
      <trkpt lat="42.77488" lon="1.86553">
        <ele>1285.6</ele>
        <time>2024-10-11T09:40:51Z</time>
      </trkpt>
      <trkpt lat="42.77484" lon="1.86549">
        <ele>1285.6</ele>
        <time>2024-10-11T09:40:52Z</time>
      </trkpt>
      <trkpt lat="42.77483" lon="1.86547">
        <ele>1285.6</ele>
        <time>2024-10-11T09:40:53Z</time>
      </trkpt>
      <trkpt lat="42.77479" lon="1.86545">
        <ele>1286</ele>
        <time>2024-10-11T09:40:54Z</time>
      </trkpt>
      <trkpt lat="42.77476" lon="1.86542">
        <ele>1286</ele>
        <time>2024-10-11T09:40:55Z</time>
      </trkpt>
      <trkpt lat="42.77473" lon="1.86539">
        <ele>1286.2</ele>
        <time>2024-10-11T09:40:56Z</time>
      </trkpt>
      <trkpt lat="42.7747" lon="1.86537">
        <ele>1286.2</ele>
        <time>2024-10-11T09:40:57Z</time>
      </trkpt>
      <trkpt lat="42.77467" lon="1.86534">
        <ele>1286.6</ele>
        <time>2024-10-11T09:40:58Z</time>
      </trkpt>
      <trkpt lat="42.77464" lon="1.86531">
        <ele>1286.6</ele>
        <time>2024-10-11T09:40:59Z</time>
      </trkpt>
      <trkpt lat="42.77461" lon="1.86529">
        <ele>1286.8</ele>
        <time>2024-10-11T09:41:00Z</time>
      </trkpt>
      <trkpt lat="42.77458" lon="1.86526">
        <ele>1286.8</ele>
        <time>2024-10-11T09:41:01Z</time>
      </trkpt>
      <trkpt lat="42.77455" lon="1.86523">
        <ele>1286.8</ele>
        <time>2024-10-11T09:41:02Z</time>
      </trkpt>
      <trkpt lat="42.77452" lon="1.86521">
        <ele>1287.4</ele>
        <time>2024-10-11T09:41:03Z</time>
      </trkpt>
      <trkpt lat="42.77449" lon="1.86518">
        <ele>1287.4</ele>
        <time>2024-10-11T09:41:04Z</time>
      </trkpt>
      <trkpt lat="42.77446" lon="1.86515">
        <ele>1287.4</ele>
        <time>2024-10-11T09:41:05Z</time>
      </trkpt>
      <trkpt lat="42.77444" lon="1.86512">
        <ele>1287.4</ele>
        <time>2024-10-11T09:41:06Z</time>
      </trkpt>
      <trkpt lat="42.77441" lon="1.86509">
        <ele>1287.4</ele>
        <time>2024-10-11T09:41:07Z</time>
      </trkpt>
      <trkpt lat="42.77438" lon="1.86506">
        <ele>1288</ele>
        <time>2024-10-11T09:41:08Z</time>
      </trkpt>
      <trkpt lat="42.77436" lon="1.86503">
        <ele>1288.2</ele>
        <time>2024-10-11T09:41:09Z</time>
      </trkpt>
      <trkpt lat="42.77433" lon="1.865">
        <ele>1288.2</ele>
        <time>2024-10-11T09:41:10Z</time>
      </trkpt>
      <trkpt lat="42.77431" lon="1.86497">
        <ele>1288.2</ele>
        <time>2024-10-11T09:41:11Z</time>
      </trkpt>
      <trkpt lat="42.77428" lon="1.86493">
        <ele>1288.8</ele>
        <time>2024-10-11T09:41:12Z</time>
      </trkpt>
      <trkpt lat="42.77425" lon="1.8649">
        <ele>1289.4</ele>
        <time>2024-10-11T09:41:13Z</time>
      </trkpt>
      <trkpt lat="42.77423" lon="1.86487">
        <ele>1289.4</ele>
        <time>2024-10-11T09:41:14Z</time>
      </trkpt>
      <trkpt lat="42.7742" lon="1.86485">
        <ele>1289.4</ele>
        <time>2024-10-11T09:41:15Z</time>
      </trkpt>
      <trkpt lat="42.77418" lon="1.86482">
        <ele>1289.4</ele>
        <time>2024-10-11T09:41:16Z</time>
      </trkpt>
      <trkpt lat="42.77415" lon="1.86479">
        <ele>1289.4</ele>
        <time>2024-10-11T09:41:17Z</time>
      </trkpt>
      <trkpt lat="42.77412" lon="1.86476">
        <ele>1289.2</ele>
        <time>2024-10-11T09:41:18Z</time>
      </trkpt>
      <trkpt lat="42.7741" lon="1.86473">
        <ele>1289.2</ele>
        <time>2024-10-11T09:41:19Z</time>
      </trkpt>
      <trkpt lat="42.77407" lon="1.8647">
        <ele>1289.2</ele>
        <time>2024-10-11T09:41:20Z</time>
      </trkpt>
      <trkpt lat="42.77404" lon="1.86467">
        <ele>1290</ele>
        <time>2024-10-11T09:41:21Z</time>
      </trkpt>
      <trkpt lat="42.77402" lon="1.86464">
        <ele>1290.6</ele>
        <time>2024-10-11T09:41:22Z</time>
      </trkpt>
      <trkpt lat="42.774" lon="1.86461">
        <ele>1290.6</ele>
        <time>2024-10-11T09:41:23Z</time>
      </trkpt>
      <trkpt lat="42.77397" lon="1.86457">
        <ele>1290.6</ele>
        <time>2024-10-11T09:41:24Z</time>
      </trkpt>
      <trkpt lat="42.77395" lon="1.86454">
        <ele>1290.6</ele>
        <time>2024-10-11T09:41:25Z</time>
      </trkpt>
      <trkpt lat="42.77392" lon="1.86452">
        <ele>1290.8</ele>
        <time>2024-10-11T09:41:26Z</time>
      </trkpt>
      <trkpt lat="42.77389" lon="1.86449">
        <ele>1290.8</ele>
        <time>2024-10-11T09:41:27Z</time>
      </trkpt>
      <trkpt lat="42.77387" lon="1.86446">
        <ele>1290.8</ele>
        <time>2024-10-11T09:41:28Z</time>
      </trkpt>
      <trkpt lat="42.77384" lon="1.86443">
        <ele>1291.6</ele>
        <time>2024-10-11T09:41:29Z</time>
      </trkpt>
      <trkpt lat="42.77381" lon="1.8644">
        <ele>1291.6</ele>
        <time>2024-10-11T09:41:30Z</time>
      </trkpt>
      <trkpt lat="42.77379" lon="1.86437">
        <ele>1291</ele>
        <time>2024-10-11T09:41:31Z</time>
      </trkpt>
      <trkpt lat="42.77377" lon="1.86434">
        <ele>1291</ele>
        <time>2024-10-11T09:41:32Z</time>
      </trkpt>
      <trkpt lat="42.77375" lon="1.86431">
        <ele>1291</ele>
        <time>2024-10-11T09:41:33Z</time>
      </trkpt>
      <trkpt lat="42.77373" lon="1.86428">
        <ele>1292</ele>
        <time>2024-10-11T09:41:34Z</time>
      </trkpt>
      <trkpt lat="42.77371" lon="1.86425">
        <ele>1292.2</ele>
        <time>2024-10-11T09:41:35Z</time>
      </trkpt>
      <trkpt lat="42.77369" lon="1.86422">
        <ele>1292.2</ele>
        <time>2024-10-11T09:41:36Z</time>
      </trkpt>
      <trkpt lat="42.77367" lon="1.86419">
        <ele>1292.2</ele>
        <time>2024-10-11T09:41:37Z</time>
      </trkpt>
      <trkpt lat="42.77365" lon="1.86416">
        <ele>1292.2</ele>
        <time>2024-10-11T09:41:38Z</time>
      </trkpt>
      <trkpt lat="42.77363" lon="1.86413">
        <ele>1292.8</ele>
        <time>2024-10-11T09:41:39Z</time>
      </trkpt>
      <trkpt lat="42.77361" lon="1.8641">
        <ele>1292.8</ele>
        <time>2024-10-11T09:41:40Z</time>
      </trkpt>
      <trkpt lat="42.77359" lon="1.86406">
        <ele>1292.8</ele>
        <time>2024-10-11T09:41:41Z</time>
      </trkpt>
      <trkpt lat="42.77358" lon="1.86403">
        <ele>1292.8</ele>
        <time>2024-10-11T09:41:42Z</time>
      </trkpt>
      <trkpt lat="42.77357" lon="1.86399">
        <ele>1292.8</ele>
        <time>2024-10-11T09:41:43Z</time>
      </trkpt>
      <trkpt lat="42.77355" lon="1.86396">
        <ele>1293.4</ele>
        <time>2024-10-11T09:41:44Z</time>
      </trkpt>
      <trkpt lat="42.77354" lon="1.86392">
        <ele>1293.6</ele>
        <time>2024-10-11T09:41:45Z</time>
      </trkpt>
      <trkpt lat="42.77353" lon="1.86389">
        <ele>1293.6</ele>
        <time>2024-10-11T09:41:46Z</time>
      </trkpt>
      <trkpt lat="42.77352" lon="1.86385">
        <ele>1293.6</ele>
        <time>2024-10-11T09:41:47Z</time>
      </trkpt>
      <trkpt lat="42.77351" lon="1.86382">
        <ele>1293.8</ele>
        <time>2024-10-11T09:41:48Z</time>
      </trkpt>
      <trkpt lat="42.77349" lon="1.86378">
        <ele>1293.8</ele>
        <time>2024-10-11T09:41:49Z</time>
      </trkpt>
      <trkpt lat="42.77348" lon="1.86375">
        <ele>1293.8</ele>
        <time>2024-10-11T09:41:50Z</time>
      </trkpt>
      <trkpt lat="42.77347" lon="1.86371">
        <ele>1293.8</ele>
        <time>2024-10-11T09:41:51Z</time>
      </trkpt>
      <trkpt lat="42.77345" lon="1.86368">
        <ele>1294.6</ele>
        <time>2024-10-11T09:41:52Z</time>
      </trkpt>
      <trkpt lat="42.77343" lon="1.86365">
        <ele>1294.8</ele>
        <time>2024-10-11T09:41:53Z</time>
      </trkpt>
      <trkpt lat="42.77341" lon="1.86362">
        <ele>1294.8</ele>
        <time>2024-10-11T09:41:54Z</time>
      </trkpt>
      <trkpt lat="42.77339" lon="1.86359">
        <ele>1294.8</ele>
        <time>2024-10-11T09:41:55Z</time>
      </trkpt>
      <trkpt lat="42.77336" lon="1.86356">
        <ele>1294.8</ele>
        <time>2024-10-11T09:41:56Z</time>
      </trkpt>
      <trkpt lat="42.77333" lon="1.86354">
        <ele>1295</ele>
        <time>2024-10-11T09:41:57Z</time>
      </trkpt>
      <trkpt lat="42.7733" lon="1.86353">
        <ele>1295.2</ele>
        <time>2024-10-11T09:41:58Z</time>
      </trkpt>
      <trkpt lat="42.77327" lon="1.86352">
        <ele>1295.2</ele>
        <time>2024-10-11T09:41:59Z</time>
      </trkpt>
      <trkpt lat="42.77324" lon="1.86352">
        <ele>1295.2</ele>
        <time>2024-10-11T09:42:00Z</time>
      </trkpt>
      <trkpt lat="42.77321" lon="1.86352">
        <ele>1296.2</ele>
        <time>2024-10-11T09:42:01Z</time>
      </trkpt>
      <trkpt lat="42.77318" lon="1.86352">
        <ele>1296</ele>
        <time>2024-10-11T09:42:02Z</time>
      </trkpt>
      <trkpt lat="42.77315" lon="1.86352">
        <ele>1296</ele>
        <time>2024-10-11T09:42:03Z</time>
      </trkpt>
      <trkpt lat="42.77312" lon="1.86352">
        <ele>1296</ele>
        <time>2024-10-11T09:42:04Z</time>
      </trkpt>
      <trkpt lat="42.77309" lon="1.86352">
        <ele>1296</ele>
        <time>2024-10-11T09:42:05Z</time>
      </trkpt>
      <trkpt lat="42.77305" lon="1.86352">
        <ele>1296.6</ele>
        <time>2024-10-11T09:42:06Z</time>
      </trkpt>
      <trkpt lat="42.77301" lon="1.86352">
        <ele>1296.8</ele>
        <time>2024-10-11T09:42:07Z</time>
      </trkpt>
      <trkpt lat="42.77298" lon="1.86351">
        <ele>1296.8</ele>
        <time>2024-10-11T09:42:08Z</time>
      </trkpt>
      <trkpt lat="42.77295" lon="1.86351">
        <ele>1296.8</ele>
        <time>2024-10-11T09:42:09Z</time>
      </trkpt>
      <trkpt lat="42.77292" lon="1.8635">
        <ele>1296.8</ele>
        <time>2024-10-11T09:42:10Z</time>
      </trkpt>
      <trkpt lat="42.77288" lon="1.86349">
        <ele>1297.2</ele>
        <time>2024-10-11T09:42:11Z</time>
      </trkpt>
      <trkpt lat="42.77285" lon="1.86349">
        <ele>1297.2</ele>
        <time>2024-10-11T09:42:12Z</time>
      </trkpt>
      <trkpt lat="42.77282" lon="1.86348">
        <ele>1297.2</ele>
        <time>2024-10-11T09:42:13Z</time>
      </trkpt>
      <trkpt lat="42.77278" lon="1.86346">
        <ele>1298</ele>
        <time>2024-10-11T09:42:14Z</time>
      </trkpt>
      <trkpt lat="42.77275" lon="1.86345">
        <ele>1298</ele>
        <time>2024-10-11T09:42:15Z</time>
      </trkpt>
      <trkpt lat="42.77272" lon="1.86343">
        <ele>1297.8</ele>
        <time>2024-10-11T09:42:16Z</time>
      </trkpt>
      <trkpt lat="42.77269" lon="1.86342">
        <ele>1297.8</ele>
        <time>2024-10-11T09:42:17Z</time>
      </trkpt>
      <trkpt lat="42.77264" lon="1.86339">
        <ele>1297.8</ele>
        <time>2024-10-11T09:42:18Z</time>
      </trkpt>
      <trkpt lat="42.77262" lon="1.86338">
        <ele>1298.2</ele>
        <time>2024-10-11T09:42:19Z</time>
      </trkpt>
      <trkpt lat="42.77257" lon="1.86335">
        <ele>1298.4</ele>
        <time>2024-10-11T09:42:20Z</time>
      </trkpt>
      <trkpt lat="42.77256" lon="1.86334">
        <ele>1298.4</ele>
        <time>2024-10-11T09:42:21Z</time>
      </trkpt>
      <trkpt lat="42.77252" lon="1.86332">
        <ele>1298.4</ele>
        <time>2024-10-11T09:42:22Z</time>
      </trkpt>
      <trkpt lat="42.77249" lon="1.8633">
        <ele>1298.4</ele>
        <time>2024-10-11T09:42:23Z</time>
      </trkpt>
      <trkpt lat="42.77246" lon="1.86327">
        <ele>1299</ele>
        <time>2024-10-11T09:42:24Z</time>
      </trkpt>
      <trkpt lat="42.77243" lon="1.86324">
        <ele>1299.2</ele>
        <time>2024-10-11T09:42:25Z</time>
      </trkpt>
      <trkpt lat="42.7724" lon="1.86321">
        <ele>1299.2</ele>
        <time>2024-10-11T09:42:26Z</time>
      </trkpt>
      <trkpt lat="42.77237" lon="1.86318">
        <ele>1299.2</ele>
        <time>2024-10-11T09:42:27Z</time>
      </trkpt>
      <trkpt lat="42.77234" lon="1.86316">
        <ele>1299.8</ele>
        <time>2024-10-11T09:42:28Z</time>
      </trkpt>
      <trkpt lat="42.77232" lon="1.86313">
        <ele>1299.8</ele>
        <time>2024-10-11T09:42:29Z</time>
      </trkpt>
      <trkpt lat="42.77228" lon="1.86308">
        <ele>1299.6</ele>
        <time>2024-10-11T09:42:30Z</time>
      </trkpt>
      <trkpt lat="42.77226" lon="1.86307">
        <ele>1299.6</ele>
        <time>2024-10-11T09:42:31Z</time>
      </trkpt>
      <trkpt lat="42.77224" lon="1.86303">
        <ele>1299.6</ele>
        <time>2024-10-11T09:42:32Z</time>
      </trkpt>
      <trkpt lat="42.77222" lon="1.863">
        <ele>1300.4</ele>
        <time>2024-10-11T09:42:33Z</time>
      </trkpt>
      <trkpt lat="42.77219" lon="1.86296">
        <ele>1300.2</ele>
        <time>2024-10-11T09:42:34Z</time>
      </trkpt>
      <trkpt lat="42.77217" lon="1.86293">
        <ele>1300.2</ele>
        <time>2024-10-11T09:42:35Z</time>
      </trkpt>
      <trkpt lat="42.77214" lon="1.8629">
        <ele>1300.2</ele>
        <time>2024-10-11T09:42:36Z</time>
      </trkpt>
      <trkpt lat="42.77212" lon="1.86286">
        <ele>1301</ele>
        <time>2024-10-11T09:42:37Z</time>
      </trkpt>
      <trkpt lat="42.7721" lon="1.86283">
        <ele>1301</ele>
        <time>2024-10-11T09:42:38Z</time>
      </trkpt>
      <trkpt lat="42.77207" lon="1.86281">
        <ele>1301</ele>
        <time>2024-10-11T09:42:39Z</time>
      </trkpt>
      <trkpt lat="42.77204" lon="1.86278">
        <ele>1301</ele>
        <time>2024-10-11T09:42:40Z</time>
      </trkpt>
      <trkpt lat="42.77201" lon="1.86275">
        <ele>1301</ele>
        <time>2024-10-11T09:42:41Z</time>
      </trkpt>
      <trkpt lat="42.77199" lon="1.86273">
        <ele>1301.6</ele>
        <time>2024-10-11T09:42:42Z</time>
      </trkpt>
      <trkpt lat="42.77196" lon="1.8627">
        <ele>1301.6</ele>
        <time>2024-10-11T09:42:43Z</time>
      </trkpt>
      <trkpt lat="42.77193" lon="1.86267">
        <ele>1301.6</ele>
        <time>2024-10-11T09:42:44Z</time>
      </trkpt>
      <trkpt lat="42.7719" lon="1.86264">
        <ele>1301.6</ele>
        <time>2024-10-11T09:42:45Z</time>
      </trkpt>
      <trkpt lat="42.77187" lon="1.86262">
        <ele>1302.2</ele>
        <time>2024-10-11T09:42:46Z</time>
      </trkpt>
      <trkpt lat="42.77184" lon="1.86259">
        <ele>1302.4</ele>
        <time>2024-10-11T09:42:47Z</time>
      </trkpt>
      <trkpt lat="42.77181" lon="1.86257">
        <ele>1302.4</ele>
        <time>2024-10-11T09:42:48Z</time>
      </trkpt>
      <trkpt lat="42.77179" lon="1.86254">
        <ele>1302.4</ele>
        <time>2024-10-11T09:42:49Z</time>
      </trkpt>
      <trkpt lat="42.77176" lon="1.86251">
        <ele>1302.8</ele>
        <time>2024-10-11T09:42:50Z</time>
      </trkpt>
      <trkpt lat="42.77173" lon="1.86248">
        <ele>1302.8</ele>
        <time>2024-10-11T09:42:51Z</time>
      </trkpt>
      <trkpt lat="42.7717" lon="1.86245">
        <ele>1302.8</ele>
        <time>2024-10-11T09:42:52Z</time>
      </trkpt>
      <trkpt lat="42.77168" lon="1.86243">
        <ele>1302.8</ele>
        <time>2024-10-11T09:42:53Z</time>
      </trkpt>
      <trkpt lat="42.77165" lon="1.86239">
        <ele>1302.8</ele>
        <time>2024-10-11T09:42:54Z</time>
      </trkpt>
      <trkpt lat="42.77162" lon="1.86236">
        <ele>1303.2</ele>
        <time>2024-10-11T09:42:55Z</time>
      </trkpt>
      <trkpt lat="42.7716" lon="1.86233">
        <ele>1303.2</ele>
        <time>2024-10-11T09:42:56Z</time>
      </trkpt>
      <trkpt lat="42.77158" lon="1.86229">
        <ele>1303.2</ele>
        <time>2024-10-11T09:42:57Z</time>
      </trkpt>
      <trkpt lat="42.77155" lon="1.86226">
        <ele>1303.2</ele>
        <time>2024-10-11T09:42:58Z</time>
      </trkpt>
      <trkpt lat="42.77153" lon="1.86223">
        <ele>1303.2</ele>
        <time>2024-10-11T09:42:59Z</time>
      </trkpt>
      <trkpt lat="42.7715" lon="1.86219">
        <ele>1304</ele>
        <time>2024-10-11T09:43:00Z</time>
      </trkpt>
      <trkpt lat="42.77148" lon="1.86216">
        <ele>1304</ele>
        <time>2024-10-11T09:43:01Z</time>
      </trkpt>
      <trkpt lat="42.77145" lon="1.86212">
        <ele>1304</ele>
        <time>2024-10-11T09:43:02Z</time>
      </trkpt>
      <trkpt lat="42.77143" lon="1.86209">
        <ele>1304</ele>
        <time>2024-10-11T09:43:03Z</time>
      </trkpt>
      <trkpt lat="42.77139" lon="1.86204">
        <ele>1304</ele>
        <time>2024-10-11T09:43:04Z</time>
      </trkpt>
      <trkpt lat="42.77138" lon="1.86202">
        <ele>1304.4</ele>
        <time>2024-10-11T09:43:05Z</time>
      </trkpt>
      <trkpt lat="42.77136" lon="1.86199">
        <ele>1304.8</ele>
        <time>2024-10-11T09:43:06Z</time>
      </trkpt>
      <trkpt lat="42.77133" lon="1.86195">
        <ele>1304.8</ele>
        <time>2024-10-11T09:43:07Z</time>
      </trkpt>
      <trkpt lat="42.77131" lon="1.86191">
        <ele>1304.8</ele>
        <time>2024-10-11T09:43:08Z</time>
      </trkpt>
      <trkpt lat="42.77129" lon="1.86188">
        <ele>1304.8</ele>
        <time>2024-10-11T09:43:09Z</time>
      </trkpt>
      <trkpt lat="42.77127" lon="1.86184">
        <ele>1305.2</ele>
        <time>2024-10-11T09:43:10Z</time>
      </trkpt>
      <trkpt lat="42.77124" lon="1.8618">
        <ele>1305.2</ele>
        <time>2024-10-11T09:43:11Z</time>
      </trkpt>
      <trkpt lat="42.77122" lon="1.86175">
        <ele>1305.2</ele>
        <time>2024-10-11T09:43:12Z</time>
      </trkpt>
      <trkpt lat="42.77119" lon="1.86169">
        <ele>1305.2</ele>
        <time>2024-10-11T09:43:13Z</time>
      </trkpt>
      <trkpt lat="42.77118" lon="1.86167">
        <ele>1305.6</ele>
        <time>2024-10-11T09:43:14Z</time>
      </trkpt>
      <trkpt lat="42.77116" lon="1.86163">
        <ele>1305.6</ele>
        <time>2024-10-11T09:43:15Z</time>
      </trkpt>
      <trkpt lat="42.77114" lon="1.86158">
        <ele>1305.6</ele>
        <time>2024-10-11T09:43:16Z</time>
      </trkpt>
      <trkpt lat="42.77112" lon="1.86154">
        <ele>1305.6</ele>
        <time>2024-10-11T09:43:17Z</time>
      </trkpt>
      <trkpt lat="42.7711" lon="1.8615">
        <ele>1306.4</ele>
        <time>2024-10-11T09:43:18Z</time>
      </trkpt>
      <trkpt lat="42.77108" lon="1.86145">
        <ele>1306.2</ele>
        <time>2024-10-11T09:43:19Z</time>
      </trkpt>
      <trkpt lat="42.77106" lon="1.86141">
        <ele>1306.2</ele>
        <time>2024-10-11T09:43:20Z</time>
      </trkpt>
      <trkpt lat="42.77104" lon="1.86137">
        <ele>1306.2</ele>
        <time>2024-10-11T09:43:21Z</time>
      </trkpt>
      <trkpt lat="42.77102" lon="1.86133">
        <ele>1306.8</ele>
        <time>2024-10-11T09:43:22Z</time>
      </trkpt>
      <trkpt lat="42.771" lon="1.86128">
        <ele>1307.2</ele>
        <time>2024-10-11T09:43:23Z</time>
      </trkpt>
      <trkpt lat="42.77098" lon="1.86124">
        <ele>1307.2</ele>
        <time>2024-10-11T09:43:24Z</time>
      </trkpt>
      <trkpt lat="42.77096" lon="1.8612">
        <ele>1307.2</ele>
        <time>2024-10-11T09:43:25Z</time>
      </trkpt>
      <trkpt lat="42.77094" lon="1.86116">
        <ele>1307.4</ele>
        <time>2024-10-11T09:43:26Z</time>
      </trkpt>
      <trkpt lat="42.77092" lon="1.86112">
        <ele>1307.4</ele>
        <time>2024-10-11T09:43:27Z</time>
      </trkpt>
      <trkpt lat="42.7709" lon="1.86108">
        <ele>1307.8</ele>
        <time>2024-10-11T09:43:28Z</time>
      </trkpt>
      <trkpt lat="42.77088" lon="1.86104">
        <ele>1307.8</ele>
        <time>2024-10-11T09:43:29Z</time>
      </trkpt>
      <trkpt lat="42.77086" lon="1.861">
        <ele>1307.8</ele>
        <time>2024-10-11T09:43:30Z</time>
      </trkpt>
      <trkpt lat="42.77084" lon="1.86096">
        <ele>1308.2</ele>
        <time>2024-10-11T09:43:31Z</time>
      </trkpt>
      <trkpt lat="42.77082" lon="1.86091">
        <ele>1308.6</ele>
        <time>2024-10-11T09:43:32Z</time>
      </trkpt>
      <trkpt lat="42.7708" lon="1.86087">
        <ele>1308.6</ele>
        <time>2024-10-11T09:43:33Z</time>
      </trkpt>
      <trkpt lat="42.77079" lon="1.86083">
        <ele>1308.6</ele>
        <time>2024-10-11T09:43:34Z</time>
      </trkpt>
      <trkpt lat="42.77077" lon="1.86079">
        <ele>1309</ele>
        <time>2024-10-11T09:43:35Z</time>
      </trkpt>
      <trkpt lat="42.77075" lon="1.86074">
        <ele>1309</ele>
        <time>2024-10-11T09:43:36Z</time>
      </trkpt>
      <trkpt lat="42.77073" lon="1.86071">
        <ele>1309</ele>
        <time>2024-10-11T09:43:37Z</time>
      </trkpt>
      <trkpt lat="42.77072" lon="1.86067">
        <ele>1309</ele>
        <time>2024-10-11T09:43:38Z</time>
      </trkpt>
      <trkpt lat="42.7707" lon="1.86063">
        <ele>1309</ele>
        <time>2024-10-11T09:43:39Z</time>
      </trkpt>
      <trkpt lat="42.77068" lon="1.86059">
        <ele>1310</ele>
        <time>2024-10-11T09:43:40Z</time>
      </trkpt>
      <trkpt lat="42.77067" lon="1.86055">
        <ele>1310.2</ele>
        <time>2024-10-11T09:43:41Z</time>
      </trkpt>
      <trkpt lat="42.77064" lon="1.86049">
        <ele>1310.2</ele>
        <time>2024-10-11T09:43:42Z</time>
      </trkpt>
      <trkpt lat="42.77064" lon="1.86047">
        <ele>1310.2</ele>
        <time>2024-10-11T09:43:43Z</time>
      </trkpt>
      <trkpt lat="42.77062" lon="1.86041">
        <ele>1310.8</ele>
        <time>2024-10-11T09:43:44Z</time>
      </trkpt>
      <trkpt lat="42.77061" lon="1.86039">
        <ele>1310.8</ele>
        <time>2024-10-11T09:43:45Z</time>
      </trkpt>
      <trkpt lat="42.77058" lon="1.86034">
        <ele>1310.8</ele>
        <time>2024-10-11T09:43:46Z</time>
      </trkpt>
      <trkpt lat="42.77057" lon="1.86033">
        <ele>1310.8</ele>
        <time>2024-10-11T09:43:47Z</time>
      </trkpt>
      <trkpt lat="42.77056" lon="1.8603">
        <ele>1310.8</ele>
        <time>2024-10-11T09:43:48Z</time>
      </trkpt>
      <trkpt lat="42.77054" lon="1.86026">
        <ele>1310.8</ele>
        <time>2024-10-11T09:43:49Z</time>
      </trkpt>
      <trkpt lat="42.77052" lon="1.86023">
        <ele>1310.8</ele>
        <time>2024-10-11T09:43:50Z</time>
      </trkpt>
      <trkpt lat="42.7705" lon="1.8602">
        <ele>1311.8</ele>
        <time>2024-10-11T09:43:51Z</time>
      </trkpt>
      <trkpt lat="42.77047" lon="1.86018">
        <ele>1311.8</ele>
        <time>2024-10-11T09:43:52Z</time>
      </trkpt>
      <trkpt lat="42.77044" lon="1.86016">
        <ele>1311.8</ele>
        <time>2024-10-11T09:43:53Z</time>
      </trkpt>
      <trkpt lat="42.77042" lon="1.86014">
        <ele>1312.2</ele>
        <time>2024-10-11T09:43:54Z</time>
      </trkpt>
      <trkpt lat="42.77039" lon="1.86013">
        <ele>1312.4</ele>
        <time>2024-10-11T09:43:55Z</time>
      </trkpt>
      <trkpt lat="42.77035" lon="1.86012">
        <ele>1312.4</ele>
        <time>2024-10-11T09:43:56Z</time>
      </trkpt>
      <trkpt lat="42.77032" lon="1.86011">
        <ele>1312.4</ele>
        <time>2024-10-11T09:43:57Z</time>
      </trkpt>
      <trkpt lat="42.77029" lon="1.86012">
        <ele>1312.4</ele>
        <time>2024-10-11T09:43:58Z</time>
      </trkpt>
      <trkpt lat="42.77026" lon="1.86012">
        <ele>1313.2</ele>
        <time>2024-10-11T09:43:59Z</time>
      </trkpt>
      <trkpt lat="42.77023" lon="1.86013">
        <ele>1313.2</ele>
        <time>2024-10-11T09:44:00Z</time>
      </trkpt>
      <trkpt lat="42.7702" lon="1.86015">
        <ele>1313.2</ele>
        <time>2024-10-11T09:44:01Z</time>
      </trkpt>
      <trkpt lat="42.77018" lon="1.86017">
        <ele>1313.2</ele>
        <time>2024-10-11T09:44:02Z</time>
      </trkpt>
      <trkpt lat="42.77015" lon="1.86019">
        <ele>1313.4</ele>
        <time>2024-10-11T09:44:03Z</time>
      </trkpt>
      <trkpt lat="42.77013" lon="1.86022">
        <ele>1313.8</ele>
        <time>2024-10-11T09:44:04Z</time>
      </trkpt>
      <trkpt lat="42.77011" lon="1.86025">
        <ele>1313.8</ele>
        <time>2024-10-11T09:44:05Z</time>
      </trkpt>
      <trkpt lat="42.77008" lon="1.86028">
        <ele>1313.8</ele>
        <time>2024-10-11T09:44:06Z</time>
      </trkpt>
      <trkpt lat="42.77006" lon="1.86031">
        <ele>1314.4</ele>
        <time>2024-10-11T09:44:07Z</time>
      </trkpt>
      <trkpt lat="42.77004" lon="1.86035">
        <ele>1314.6</ele>
        <time>2024-10-11T09:44:08Z</time>
      </trkpt>
      <trkpt lat="42.77002" lon="1.86038">
        <ele>1314.6</ele>
        <time>2024-10-11T09:44:09Z</time>
      </trkpt>
      <trkpt lat="42.77" lon="1.86041">
        <ele>1314.6</ele>
        <time>2024-10-11T09:44:10Z</time>
      </trkpt>
      <trkpt lat="42.76998" lon="1.86045">
        <ele>1314.6</ele>
        <time>2024-10-11T09:44:11Z</time>
      </trkpt>
      <trkpt lat="42.76996" lon="1.86048">
        <ele>1314.6</ele>
        <time>2024-10-11T09:44:12Z</time>
      </trkpt>
      <trkpt lat="42.76995" lon="1.86051">
        <ele>1315.4</ele>
        <time>2024-10-11T09:44:13Z</time>
      </trkpt>
      <trkpt lat="42.76993" lon="1.86055">
        <ele>1315.4</ele>
        <time>2024-10-11T09:44:14Z</time>
      </trkpt>
      <trkpt lat="42.76991" lon="1.86058">
        <ele>1315.4</ele>
        <time>2024-10-11T09:44:15Z</time>
      </trkpt>
      <trkpt lat="42.76989" lon="1.86061">
        <ele>1315.8</ele>
        <time>2024-10-11T09:44:16Z</time>
      </trkpt>
      <trkpt lat="42.76988" lon="1.86064">
        <ele>1315.6</ele>
        <time>2024-10-11T09:44:17Z</time>
      </trkpt>
      <trkpt lat="42.76986" lon="1.86068">
        <ele>1315.6</ele>
        <time>2024-10-11T09:44:18Z</time>
      </trkpt>
      <trkpt lat="42.76984" lon="1.86072">
        <ele>1315.6</ele>
        <time>2024-10-11T09:44:19Z</time>
      </trkpt>
      <trkpt lat="42.76982" lon="1.86076">
        <ele>1316.4</ele>
        <time>2024-10-11T09:44:20Z</time>
      </trkpt>
      <trkpt lat="42.7698" lon="1.86079">
        <ele>1316.4</ele>
        <time>2024-10-11T09:44:21Z</time>
      </trkpt>
      <trkpt lat="42.76979" lon="1.86082">
        <ele>1316.8</ele>
        <time>2024-10-11T09:44:22Z</time>
      </trkpt>
      <trkpt lat="42.76977" lon="1.86085">
        <ele>1316.8</ele>
        <time>2024-10-11T09:44:23Z</time>
      </trkpt>
      <trkpt lat="42.76975" lon="1.86089">
        <ele>1317.4</ele>
        <time>2024-10-11T09:44:24Z</time>
      </trkpt>
      <trkpt lat="42.76972" lon="1.86092">
        <ele>1317.4</ele>
        <time>2024-10-11T09:44:25Z</time>
      </trkpt>
      <trkpt lat="42.7697" lon="1.86094">
        <ele>1317.2</ele>
        <time>2024-10-11T09:44:26Z</time>
      </trkpt>
      <trkpt lat="42.76967" lon="1.86097">
        <ele>1317.2</ele>
        <time>2024-10-11T09:44:27Z</time>
      </trkpt>
      <trkpt lat="42.76965" lon="1.86099">
        <ele>1317.2</ele>
        <time>2024-10-11T09:44:28Z</time>
      </trkpt>
      <trkpt lat="42.76962" lon="1.86101">
        <ele>1317.2</ele>
        <time>2024-10-11T09:44:29Z</time>
      </trkpt>
      <trkpt lat="42.76959" lon="1.86103">
        <ele>1317.2</ele>
        <time>2024-10-11T09:44:30Z</time>
      </trkpt>
      <trkpt lat="42.76955" lon="1.86104">
        <ele>1318.2</ele>
        <time>2024-10-11T09:44:31Z</time>
      </trkpt>
      <trkpt lat="42.76952" lon="1.86104">
        <ele>1318.2</ele>
        <time>2024-10-11T09:44:32Z</time>
      </trkpt>
      <trkpt lat="42.76948" lon="1.86105">
        <ele>1318.2</ele>
        <time>2024-10-11T09:44:33Z</time>
      </trkpt>
      <trkpt lat="42.76945" lon="1.86105">
        <ele>1318.2</ele>
        <time>2024-10-11T09:44:34Z</time>
      </trkpt>
      <trkpt lat="42.76941" lon="1.86104">
        <ele>1318.4</ele>
        <time>2024-10-11T09:44:35Z</time>
      </trkpt>
      <trkpt lat="42.76938" lon="1.86102">
        <ele>1318.4</ele>
        <time>2024-10-11T09:44:36Z</time>
      </trkpt>
      <trkpt lat="42.76935" lon="1.861">
        <ele>1318.4</ele>
        <time>2024-10-11T09:44:37Z</time>
      </trkpt>
      <trkpt lat="42.76932" lon="1.86098">
        <ele>1318.4</ele>
        <time>2024-10-11T09:44:38Z</time>
      </trkpt>
      <trkpt lat="42.76927" lon="1.86095">
        <ele>1318.8</ele>
        <time>2024-10-11T09:44:39Z</time>
      </trkpt>
      <trkpt lat="42.76926" lon="1.86093">
        <ele>1319.2</ele>
        <time>2024-10-11T09:44:40Z</time>
      </trkpt>
      <trkpt lat="42.76922" lon="1.86088">
        <ele>1319.2</ele>
        <time>2024-10-11T09:44:41Z</time>
      </trkpt>
      <trkpt lat="42.76921" lon="1.86086">
        <ele>1319.2</ele>
        <time>2024-10-11T09:44:42Z</time>
      </trkpt>
      <trkpt lat="42.76919" lon="1.86083">
        <ele>1319.2</ele>
        <time>2024-10-11T09:44:43Z</time>
      </trkpt>
      <trkpt lat="42.76917" lon="1.86079">
        <ele>1319.4</ele>
        <time>2024-10-11T09:44:44Z</time>
      </trkpt>
      <trkpt lat="42.76916" lon="1.86074">
        <ele>1319.4</ele>
        <time>2024-10-11T09:44:45Z</time>
      </trkpt>
      <trkpt lat="42.76914" lon="1.8607">
        <ele>1319.4</ele>
        <time>2024-10-11T09:44:46Z</time>
      </trkpt>
      <trkpt lat="42.76912" lon="1.86066">
        <ele>1319.6</ele>
        <time>2024-10-11T09:44:47Z</time>
      </trkpt>
      <trkpt lat="42.76911" lon="1.86062">
        <ele>1319.6</ele>
        <time>2024-10-11T09:44:48Z</time>
      </trkpt>
      <trkpt lat="42.76909" lon="1.86058">
        <ele>1319.6</ele>
        <time>2024-10-11T09:44:49Z</time>
      </trkpt>
      <trkpt lat="42.76907" lon="1.86054">
        <ele>1319.6</ele>
        <time>2024-10-11T09:44:50Z</time>
      </trkpt>
      <trkpt lat="42.76905" lon="1.8605">
        <ele>1319.6</ele>
        <time>2024-10-11T09:44:51Z</time>
      </trkpt>
      <trkpt lat="42.76903" lon="1.86046">
        <ele>1320.4</ele>
        <time>2024-10-11T09:44:52Z</time>
      </trkpt>
      <trkpt lat="42.76901" lon="1.86042">
        <ele>1320.8</ele>
        <time>2024-10-11T09:44:53Z</time>
      </trkpt>
      <trkpt lat="42.76899" lon="1.86038">
        <ele>1320.8</ele>
        <time>2024-10-11T09:44:54Z</time>
      </trkpt>
      <trkpt lat="42.76897" lon="1.86034">
        <ele>1320.8</ele>
        <time>2024-10-11T09:44:55Z</time>
      </trkpt>
      <trkpt lat="42.76895" lon="1.8603">
        <ele>1320.8</ele>
        <time>2024-10-11T09:44:56Z</time>
      </trkpt>
      <trkpt lat="42.76893" lon="1.86026">
        <ele>1320.8</ele>
        <time>2024-10-11T09:44:57Z</time>
      </trkpt>
      <trkpt lat="42.76891" lon="1.86022">
        <ele>1321.2</ele>
        <time>2024-10-11T09:44:58Z</time>
      </trkpt>
      <trkpt lat="42.76889" lon="1.86019">
        <ele>1321.2</ele>
        <time>2024-10-11T09:44:59Z</time>
      </trkpt>
      <trkpt lat="42.76887" lon="1.86015">
        <ele>1321.2</ele>
        <time>2024-10-11T09:45:00Z</time>
      </trkpt>
      <trkpt lat="42.76885" lon="1.86012">
        <ele>1321.2</ele>
        <time>2024-10-11T09:45:01Z</time>
      </trkpt>
      <trkpt lat="42.76882" lon="1.86009">
        <ele>1321.8</ele>
        <time>2024-10-11T09:45:02Z</time>
      </trkpt>
      <trkpt lat="42.7688" lon="1.86006">
        <ele>1321.8</ele>
        <time>2024-10-11T09:45:03Z</time>
      </trkpt>
      <trkpt lat="42.76878" lon="1.86002">
        <ele>1321.8</ele>
        <time>2024-10-11T09:45:04Z</time>
      </trkpt>
      <trkpt lat="42.76876" lon="1.85999">
        <ele>1322.6</ele>
        <time>2024-10-11T09:45:05Z</time>
      </trkpt>
      <trkpt lat="42.76874" lon="1.85996">
        <ele>1322.6</ele>
        <time>2024-10-11T09:45:06Z</time>
      </trkpt>
      <trkpt lat="42.76871" lon="1.85992">
        <ele>1322.6</ele>
        <time>2024-10-11T09:45:07Z</time>
      </trkpt>
      <trkpt lat="42.76869" lon="1.85989">
        <ele>1322.6</ele>
        <time>2024-10-11T09:45:08Z</time>
      </trkpt>
      <trkpt lat="42.76867" lon="1.85986">
        <ele>1322.6</ele>
        <time>2024-10-11T09:45:09Z</time>
      </trkpt>
      <trkpt lat="42.76865" lon="1.85982">
        <ele>1323.2</ele>
        <time>2024-10-11T09:45:10Z</time>
      </trkpt>
      <trkpt lat="42.76863" lon="1.85978">
        <ele>1323.2</ele>
        <time>2024-10-11T09:45:11Z</time>
      </trkpt>
      <trkpt lat="42.7686" lon="1.85975">
        <ele>1323.2</ele>
        <time>2024-10-11T09:45:12Z</time>
      </trkpt>
      <trkpt lat="42.76857" lon="1.8597">
        <ele>1323.2</ele>
        <time>2024-10-11T09:45:13Z</time>
      </trkpt>
      <trkpt lat="42.76856" lon="1.85968">
        <ele>1323.2</ele>
        <time>2024-10-11T09:45:14Z</time>
      </trkpt>
      <trkpt lat="42.76854" lon="1.85964">
        <ele>1323.2</ele>
        <time>2024-10-11T09:45:15Z</time>
      </trkpt>
      <trkpt lat="42.76852" lon="1.85961">
        <ele>1323.6</ele>
        <time>2024-10-11T09:45:16Z</time>
      </trkpt>
      <trkpt lat="42.7685" lon="1.85957">
        <ele>1323.6</ele>
        <time>2024-10-11T09:45:17Z</time>
      </trkpt>
      <trkpt lat="42.76849" lon="1.85953">
        <ele>1323.6</ele>
        <time>2024-10-11T09:45:18Z</time>
      </trkpt>
      <trkpt lat="42.76846" lon="1.85948">
        <ele>1324</ele>
        <time>2024-10-11T09:45:19Z</time>
      </trkpt>
      <trkpt lat="42.76845" lon="1.85946">
        <ele>1324.2</ele>
        <time>2024-10-11T09:45:20Z</time>
      </trkpt>
      <trkpt lat="42.76843" lon="1.85942">
        <ele>1324.2</ele>
        <time>2024-10-11T09:45:21Z</time>
      </trkpt>
      <trkpt lat="42.76841" lon="1.85938">
        <ele>1324.2</ele>
        <time>2024-10-11T09:45:22Z</time>
      </trkpt>
      <trkpt lat="42.76838" lon="1.85933">
        <ele>1324.2</ele>
        <time>2024-10-11T09:45:23Z</time>
      </trkpt>
      <trkpt lat="42.76837" lon="1.85931">
        <ele>1324.6</ele>
        <time>2024-10-11T09:45:24Z</time>
      </trkpt>
      <trkpt lat="42.76835" lon="1.85928">
        <ele>1325</ele>
        <time>2024-10-11T09:45:25Z</time>
      </trkpt>
      <trkpt lat="42.76832" lon="1.85924">
        <ele>1325</ele>
        <time>2024-10-11T09:45:26Z</time>
      </trkpt>
      <trkpt lat="42.7683" lon="1.8592">
        <ele>1325</ele>
        <time>2024-10-11T09:45:27Z</time>
      </trkpt>
      <trkpt lat="42.76828" lon="1.85917">
        <ele>1325.2</ele>
        <time>2024-10-11T09:45:28Z</time>
      </trkpt>
      <trkpt lat="42.76826" lon="1.85913">
        <ele>1325.4</ele>
        <time>2024-10-11T09:45:29Z</time>
      </trkpt>
      <trkpt lat="42.76823" lon="1.8591">
        <ele>1325.4</ele>
        <time>2024-10-11T09:45:30Z</time>
      </trkpt>
      <trkpt lat="42.76821" lon="1.85906">
        <ele>1325.4</ele>
        <time>2024-10-11T09:45:31Z</time>
      </trkpt>
      <trkpt lat="42.76819" lon="1.85903">
        <ele>1325.4</ele>
        <time>2024-10-11T09:45:32Z</time>
      </trkpt>
      <trkpt lat="42.76817" lon="1.85899">
        <ele>1325.4</ele>
        <time>2024-10-11T09:45:33Z</time>
      </trkpt>
      <trkpt lat="42.76815" lon="1.85895">
        <ele>1325.4</ele>
        <time>2024-10-11T09:45:34Z</time>
      </trkpt>
      <trkpt lat="42.76812" lon="1.85891">
        <ele>1325.4</ele>
        <time>2024-10-11T09:45:35Z</time>
      </trkpt>
      <trkpt lat="42.7681" lon="1.85887">
        <ele>1325.4</ele>
        <time>2024-10-11T09:45:36Z</time>
      </trkpt>
      <trkpt lat="42.76808" lon="1.85884">
        <ele>1326.2</ele>
        <time>2024-10-11T09:45:37Z</time>
      </trkpt>
      <trkpt lat="42.76805" lon="1.8588">
        <ele>1326.4</ele>
        <time>2024-10-11T09:45:38Z</time>
      </trkpt>
      <trkpt lat="42.76804" lon="1.85877">
        <ele>1326.4</ele>
        <time>2024-10-11T09:45:39Z</time>
      </trkpt>
      <trkpt lat="42.76802" lon="1.85873">
        <ele>1326.4</ele>
        <time>2024-10-11T09:45:40Z</time>
      </trkpt>
      <trkpt lat="42.768" lon="1.8587">
        <ele>1327</ele>
        <time>2024-10-11T09:45:41Z</time>
      </trkpt>
      <trkpt lat="42.76798" lon="1.85866">
        <ele>1326.8</ele>
        <time>2024-10-11T09:45:42Z</time>
      </trkpt>
      <trkpt lat="42.76796" lon="1.85862">
        <ele>1326.8</ele>
        <time>2024-10-11T09:45:43Z</time>
      </trkpt>
      <trkpt lat="42.76794" lon="1.85859">
        <ele>1326.8</ele>
        <time>2024-10-11T09:45:44Z</time>
      </trkpt>
      <trkpt lat="42.76792" lon="1.85855">
        <ele>1327.4</ele>
        <time>2024-10-11T09:45:45Z</time>
      </trkpt>
      <trkpt lat="42.7679" lon="1.85852">
        <ele>1327.4</ele>
        <time>2024-10-11T09:45:46Z</time>
      </trkpt>
      <trkpt lat="42.76788" lon="1.85848">
        <ele>1327.6</ele>
        <time>2024-10-11T09:45:47Z</time>
      </trkpt>
      <trkpt lat="42.76786" lon="1.85845">
        <ele>1327.6</ele>
        <time>2024-10-11T09:45:48Z</time>
      </trkpt>
      <trkpt lat="42.76784" lon="1.85841">
        <ele>1327.6</ele>
        <time>2024-10-11T09:45:49Z</time>
      </trkpt>
      <trkpt lat="42.76782" lon="1.85838">
        <ele>1328</ele>
        <time>2024-10-11T09:45:50Z</time>
      </trkpt>
      <trkpt lat="42.7678" lon="1.85835">
        <ele>1328.2</ele>
        <time>2024-10-11T09:45:51Z</time>
      </trkpt>
      <trkpt lat="42.76778" lon="1.85831">
        <ele>1328.2</ele>
        <time>2024-10-11T09:45:52Z</time>
      </trkpt>
      <trkpt lat="42.76775" lon="1.85826">
        <ele>1328.2</ele>
        <time>2024-10-11T09:45:53Z</time>
      </trkpt>
      <trkpt lat="42.76774" lon="1.85824">
        <ele>1328.2</ele>
        <time>2024-10-11T09:45:54Z</time>
      </trkpt>
      <trkpt lat="42.76771" lon="1.85819">
        <ele>1328.6</ele>
        <time>2024-10-11T09:45:55Z</time>
      </trkpt>
      <trkpt lat="42.76771" lon="1.85817">
        <ele>1328.6</ele>
        <time>2024-10-11T09:45:56Z</time>
      </trkpt>
      <trkpt lat="42.76769" lon="1.85813">
        <ele>1328.6</ele>
        <time>2024-10-11T09:45:57Z</time>
      </trkpt>
      <trkpt lat="42.76767" lon="1.8581">
        <ele>1328.6</ele>
        <time>2024-10-11T09:45:58Z</time>
      </trkpt>
      <trkpt lat="42.76765" lon="1.85806">
        <ele>1329</ele>
        <time>2024-10-11T09:45:59Z</time>
      </trkpt>
      <trkpt lat="42.76763" lon="1.85803">
        <ele>1329.2</ele>
        <time>2024-10-11T09:46:00Z</time>
      </trkpt>
      <trkpt lat="42.76761" lon="1.85799">
        <ele>1329.2</ele>
        <time>2024-10-11T09:46:01Z</time>
      </trkpt>
      <trkpt lat="42.76759" lon="1.85796">
        <ele>1329.2</ele>
        <time>2024-10-11T09:46:02Z</time>
      </trkpt>
      <trkpt lat="42.76757" lon="1.85792">
        <ele>1329.2</ele>
        <time>2024-10-11T09:46:03Z</time>
      </trkpt>
      <trkpt lat="42.76754" lon="1.85787">
        <ele>1329.6</ele>
        <time>2024-10-11T09:46:04Z</time>
      </trkpt>
      <trkpt lat="42.76753" lon="1.85785">
        <ele>1329.8</ele>
        <time>2024-10-11T09:46:05Z</time>
      </trkpt>
      <trkpt lat="42.76751" lon="1.85782">
        <ele>1329.8</ele>
        <time>2024-10-11T09:46:06Z</time>
      </trkpt>
      <trkpt lat="42.76749" lon="1.85779">
        <ele>1329.8</ele>
        <time>2024-10-11T09:46:07Z</time>
      </trkpt>
      <trkpt lat="42.76746" lon="1.85776">
        <ele>1330.4</ele>
        <time>2024-10-11T09:46:08Z</time>
      </trkpt>
      <trkpt lat="42.76744" lon="1.85772">
        <ele>1330.6</ele>
        <time>2024-10-11T09:46:09Z</time>
      </trkpt>
      <trkpt lat="42.76742" lon="1.85769">
        <ele>1330.6</ele>
        <time>2024-10-11T09:46:10Z</time>
      </trkpt>
      <trkpt lat="42.7674" lon="1.85766">
        <ele>1330.6</ele>
        <time>2024-10-11T09:46:11Z</time>
      </trkpt>
      <trkpt lat="42.76738" lon="1.85762">
        <ele>1330.6</ele>
        <time>2024-10-11T09:46:12Z</time>
      </trkpt>
      <trkpt lat="42.76736" lon="1.85759">
        <ele>1330.6</ele>
        <time>2024-10-11T09:46:13Z</time>
      </trkpt>
      <trkpt lat="42.76734" lon="1.85755">
        <ele>1331.2</ele>
        <time>2024-10-11T09:46:14Z</time>
      </trkpt>
      <trkpt lat="42.76732" lon="1.85752">
        <ele>1331.2</ele>
        <time>2024-10-11T09:46:15Z</time>
      </trkpt>
      <trkpt lat="42.7673" lon="1.85748">
        <ele>1331.2</ele>
        <time>2024-10-11T09:46:16Z</time>
      </trkpt>
      <trkpt lat="42.76728" lon="1.85744">
        <ele>1331.2</ele>
        <time>2024-10-11T09:46:17Z</time>
      </trkpt>
      <trkpt lat="42.76726" lon="1.8574">
        <ele>1331.8</ele>
        <time>2024-10-11T09:46:18Z</time>
      </trkpt>
      <trkpt lat="42.76725" lon="1.85736">
        <ele>1331.8</ele>
        <time>2024-10-11T09:46:19Z</time>
      </trkpt>
      <trkpt lat="42.76723" lon="1.85732">
        <ele>1331.8</ele>
        <time>2024-10-11T09:46:20Z</time>
      </trkpt>
      <trkpt lat="42.76721" lon="1.85729">
        <ele>1332.4</ele>
        <time>2024-10-11T09:46:21Z</time>
      </trkpt>
      <trkpt lat="42.7672" lon="1.85725">
        <ele>1332.6</ele>
        <time>2024-10-11T09:46:22Z</time>
      </trkpt>
      <trkpt lat="42.76718" lon="1.85721">
        <ele>1332.6</ele>
        <time>2024-10-11T09:46:23Z</time>
      </trkpt>
      <trkpt lat="42.76717" lon="1.85717">
        <ele>1332.6</ele>
        <time>2024-10-11T09:46:24Z</time>
      </trkpt>
      <trkpt lat="42.76715" lon="1.85713">
        <ele>1332.6</ele>
        <time>2024-10-11T09:46:25Z</time>
      </trkpt>
      <trkpt lat="42.76714" lon="1.85709">
        <ele>1333</ele>
        <time>2024-10-11T09:46:26Z</time>
      </trkpt>
      <trkpt lat="42.76712" lon="1.85705">
        <ele>1333.2</ele>
        <time>2024-10-11T09:46:27Z</time>
      </trkpt>
      <trkpt lat="42.76711" lon="1.85701">
        <ele>1333.2</ele>
        <time>2024-10-11T09:46:28Z</time>
      </trkpt>
      <trkpt lat="42.76709" lon="1.85697">
        <ele>1333.2</ele>
        <time>2024-10-11T09:46:29Z</time>
      </trkpt>
      <trkpt lat="42.76708" lon="1.85693">
        <ele>1333.6</ele>
        <time>2024-10-11T09:46:30Z</time>
      </trkpt>
      <trkpt lat="42.76706" lon="1.85687">
        <ele>1333.8</ele>
        <time>2024-10-11T09:46:31Z</time>
      </trkpt>
      <trkpt lat="42.76705" lon="1.85685">
        <ele>1333.8</ele>
        <time>2024-10-11T09:46:32Z</time>
      </trkpt>
      <trkpt lat="42.76703" lon="1.85679">
        <ele>1333.8</ele>
        <time>2024-10-11T09:46:33Z</time>
      </trkpt>
      <trkpt lat="42.76702" lon="1.85677">
        <ele>1333.8</ele>
        <time>2024-10-11T09:46:34Z</time>
      </trkpt>
      <trkpt lat="42.76701" lon="1.85673">
        <ele>1334.4</ele>
        <time>2024-10-11T09:46:35Z</time>
      </trkpt>
      <trkpt lat="42.76699" lon="1.85667">
        <ele>1334.6</ele>
        <time>2024-10-11T09:46:36Z</time>
      </trkpt>
      <trkpt lat="42.76698" lon="1.85665">
        <ele>1334.6</ele>
        <time>2024-10-11T09:46:37Z</time>
      </trkpt>
      <trkpt lat="42.76697" lon="1.8566">
        <ele>1334.6</ele>
        <time>2024-10-11T09:46:38Z</time>
      </trkpt>
      <trkpt lat="42.76696" lon="1.85656">
        <ele>1334.6</ele>
        <time>2024-10-11T09:46:39Z</time>
      </trkpt>
      <trkpt lat="42.76695" lon="1.85652">
        <ele>1334.6</ele>
        <time>2024-10-11T09:46:40Z</time>
      </trkpt>
      <trkpt lat="42.76694" lon="1.85647">
        <ele>1335</ele>
        <time>2024-10-11T09:46:41Z</time>
      </trkpt>
      <trkpt lat="42.76694" lon="1.85643">
        <ele>1335</ele>
        <time>2024-10-11T09:46:42Z</time>
      </trkpt>
      <trkpt lat="42.76693" lon="1.85639">
        <ele>1335</ele>
        <time>2024-10-11T09:46:43Z</time>
      </trkpt>
      <trkpt lat="42.76693" lon="1.85635">
        <ele>1335</ele>
        <time>2024-10-11T09:46:44Z</time>
      </trkpt>
      <trkpt lat="42.76692" lon="1.8563">
        <ele>1336</ele>
        <time>2024-10-11T09:46:45Z</time>
      </trkpt>
      <trkpt lat="42.76692" lon="1.85626">
        <ele>1336</ele>
        <time>2024-10-11T09:46:46Z</time>
      </trkpt>
      <trkpt lat="42.76691" lon="1.85621">
        <ele>1336</ele>
        <time>2024-10-11T09:46:47Z</time>
      </trkpt>
      <trkpt lat="42.76691" lon="1.85615">
        <ele>1336</ele>
        <time>2024-10-11T09:46:48Z</time>
      </trkpt>
      <trkpt lat="42.76691" lon="1.85613">
        <ele>1336.8</ele>
        <time>2024-10-11T09:46:49Z</time>
      </trkpt>
      <trkpt lat="42.76692" lon="1.85609">
        <ele>1336.8</ele>
        <time>2024-10-11T09:46:50Z</time>
      </trkpt>
      <trkpt lat="42.76692" lon="1.85605">
        <ele>1336.8</ele>
        <time>2024-10-11T09:46:51Z</time>
      </trkpt>
      <trkpt lat="42.76692" lon="1.85601">
        <ele>1336.8</ele>
        <time>2024-10-11T09:46:52Z</time>
      </trkpt>
      <trkpt lat="42.76692" lon="1.85597">
        <ele>1337</ele>
        <time>2024-10-11T09:46:53Z</time>
      </trkpt>
      <trkpt lat="42.76692" lon="1.85593">
        <ele>1337.2</ele>
        <time>2024-10-11T09:46:54Z</time>
      </trkpt>
      <trkpt lat="42.76692" lon="1.85589">
        <ele>1337.2</ele>
        <time>2024-10-11T09:46:55Z</time>
      </trkpt>
      <trkpt lat="42.76692" lon="1.85584">
        <ele>1337.2</ele>
        <time>2024-10-11T09:46:56Z</time>
      </trkpt>
      <trkpt lat="42.76691" lon="1.8558">
        <ele>1337.2</ele>
        <time>2024-10-11T09:46:57Z</time>
      </trkpt>
      <trkpt lat="42.76692" lon="1.85576">
        <ele>1338</ele>
        <time>2024-10-11T09:46:58Z</time>
      </trkpt>
      <trkpt lat="42.76692" lon="1.85572">
        <ele>1338</ele>
        <time>2024-10-11T09:46:59Z</time>
      </trkpt>
      <trkpt lat="42.76692" lon="1.85568">
        <ele>1338</ele>
        <time>2024-10-11T09:47:00Z</time>
      </trkpt>
      <trkpt lat="42.76693" lon="1.85563">
        <ele>1338</ele>
        <time>2024-10-11T09:47:01Z</time>
      </trkpt>
      <trkpt lat="42.76693" lon="1.85559">
        <ele>1338</ele>
        <time>2024-10-11T09:47:02Z</time>
      </trkpt>
      <trkpt lat="42.76693" lon="1.85554">
        <ele>1338.6</ele>
        <time>2024-10-11T09:47:03Z</time>
      </trkpt>
      <trkpt lat="42.76694" lon="1.85551">
        <ele>1338.6</ele>
        <time>2024-10-11T09:47:04Z</time>
      </trkpt>
      <trkpt lat="42.76694" lon="1.85547">
        <ele>1338.6</ele>
        <time>2024-10-11T09:47:05Z</time>
      </trkpt>
      <trkpt lat="42.76695" lon="1.85543">
        <ele>1339.2</ele>
        <time>2024-10-11T09:47:06Z</time>
      </trkpt>
      <trkpt lat="42.76695" lon="1.85539">
        <ele>1339.2</ele>
        <time>2024-10-11T09:47:07Z</time>
      </trkpt>
      <trkpt lat="42.76696" lon="1.85534">
        <ele>1339.2</ele>
        <time>2024-10-11T09:47:08Z</time>
      </trkpt>
      <trkpt lat="42.76697" lon="1.8553">
        <ele>1339.2</ele>
        <time>2024-10-11T09:47:09Z</time>
      </trkpt>
      <trkpt lat="42.76698" lon="1.85526">
        <ele>1339.2</ele>
        <time>2024-10-11T09:47:10Z</time>
      </trkpt>
      <trkpt lat="42.76699" lon="1.85522">
        <ele>1339.2</ele>
        <time>2024-10-11T09:47:11Z</time>
      </trkpt>
      <trkpt lat="42.767" lon="1.85518">
        <ele>1340</ele>
        <time>2024-10-11T09:47:12Z</time>
      </trkpt>
      <trkpt lat="42.76702" lon="1.85512">
        <ele>1340</ele>
        <time>2024-10-11T09:47:13Z</time>
      </trkpt>
      <trkpt lat="42.76703" lon="1.85511">
        <ele>1340</ele>
        <time>2024-10-11T09:47:14Z</time>
      </trkpt>
      <trkpt lat="42.76705" lon="1.85505">
        <ele>1340.4</ele>
        <time>2024-10-11T09:47:15Z</time>
      </trkpt>
      <trkpt lat="42.76705" lon="1.85503">
        <ele>1340.6</ele>
        <time>2024-10-11T09:47:16Z</time>
      </trkpt>
      <trkpt lat="42.76707" lon="1.85497">
        <ele>1340.6</ele>
        <time>2024-10-11T09:47:17Z</time>
      </trkpt>
      <trkpt lat="42.76707" lon="1.85495">
        <ele>1340.6</ele>
        <time>2024-10-11T09:47:18Z</time>
      </trkpt>
      <trkpt lat="42.76709" lon="1.85492">
        <ele>1340.6</ele>
        <time>2024-10-11T09:47:19Z</time>
      </trkpt>
      <trkpt lat="42.7671" lon="1.85488">
        <ele>1341.2</ele>
        <time>2024-10-11T09:47:20Z</time>
      </trkpt>
      <trkpt lat="42.76711" lon="1.85484">
        <ele>1341.4</ele>
        <time>2024-10-11T09:47:21Z</time>
      </trkpt>
      <trkpt lat="42.76712" lon="1.8548">
        <ele>1341.4</ele>
        <time>2024-10-11T09:47:22Z</time>
      </trkpt>
      <trkpt lat="42.76712" lon="1.85476">
        <ele>1341.4</ele>
        <time>2024-10-11T09:47:23Z</time>
      </trkpt>
      <trkpt lat="42.76713" lon="1.85472">
        <ele>1341.4</ele>
        <time>2024-10-11T09:47:24Z</time>
      </trkpt>
      <trkpt lat="42.76715" lon="1.85465">
        <ele>1341.6</ele>
        <time>2024-10-11T09:47:25Z</time>
      </trkpt>
      <trkpt lat="42.76715" lon="1.85463">
        <ele>1342</ele>
        <time>2024-10-11T09:47:26Z</time>
      </trkpt>
      <trkpt lat="42.76717" lon="1.85457">
        <ele>1342</ele>
        <time>2024-10-11T09:47:27Z</time>
      </trkpt>
      <trkpt lat="42.76717" lon="1.85455">
        <ele>1342</ele>
        <time>2024-10-11T09:47:28Z</time>
      </trkpt>
      <trkpt lat="42.76718" lon="1.85448">
        <ele>1342</ele>
        <time>2024-10-11T09:47:29Z</time>
      </trkpt>
      <trkpt lat="42.76718" lon="1.85446">
        <ele>1343</ele>
        <time>2024-10-11T09:47:30Z</time>
      </trkpt>
      <trkpt lat="42.76719" lon="1.85442">
        <ele>1343</ele>
        <time>2024-10-11T09:47:31Z</time>
      </trkpt>
      <trkpt lat="42.7672" lon="1.85437">
        <ele>1343</ele>
        <time>2024-10-11T09:47:32Z</time>
      </trkpt>
      <trkpt lat="42.7672" lon="1.85433">
        <ele>1343</ele>
        <time>2024-10-11T09:47:33Z</time>
      </trkpt>
      <trkpt lat="42.76721" lon="1.85429">
        <ele>1343</ele>
        <time>2024-10-11T09:47:34Z</time>
      </trkpt>
      <trkpt lat="42.76721" lon="1.85424">
        <ele>1343.4</ele>
        <time>2024-10-11T09:47:35Z</time>
      </trkpt>
      <trkpt lat="42.76721" lon="1.8542">
        <ele>1343.4</ele>
        <time>2024-10-11T09:47:36Z</time>
      </trkpt>
      <trkpt lat="42.76721" lon="1.85416">
        <ele>1343.4</ele>
        <time>2024-10-11T09:47:37Z</time>
      </trkpt>
      <trkpt lat="42.76721" lon="1.85412">
        <ele>1343.4</ele>
        <time>2024-10-11T09:47:38Z</time>
      </trkpt>
      <trkpt lat="42.76721" lon="1.85407">
        <ele>1343.4</ele>
        <time>2024-10-11T09:47:39Z</time>
      </trkpt>
      <trkpt lat="42.7672" lon="1.85403">
        <ele>1343.4</ele>
        <time>2024-10-11T09:47:40Z</time>
      </trkpt>
      <trkpt lat="42.76719" lon="1.85398">
        <ele>1343.4</ele>
        <time>2024-10-11T09:47:41Z</time>
      </trkpt>
      <trkpt lat="42.76718" lon="1.85394">
        <ele>1344.4</ele>
        <time>2024-10-11T09:47:42Z</time>
      </trkpt>
      <trkpt lat="42.76717" lon="1.8539">
        <ele>1344.6</ele>
        <time>2024-10-11T09:47:43Z</time>
      </trkpt>
      <trkpt lat="42.76716" lon="1.85386">
        <ele>1344.6</ele>
        <time>2024-10-11T09:47:44Z</time>
      </trkpt>
      <trkpt lat="42.76714" lon="1.85382">
        <ele>1344.6</ele>
        <time>2024-10-11T09:47:45Z</time>
      </trkpt>
      <trkpt lat="42.76712" lon="1.85378">
        <ele>1344.6</ele>
        <time>2024-10-11T09:47:46Z</time>
      </trkpt>
      <trkpt lat="42.7671" lon="1.85374">
        <ele>1344.6</ele>
        <time>2024-10-11T09:47:47Z</time>
      </trkpt>
      <trkpt lat="42.76708" lon="1.85371">
        <ele>1345</ele>
        <time>2024-10-11T09:47:48Z</time>
      </trkpt>
      <trkpt lat="42.76706" lon="1.85367">
        <ele>1345</ele>
        <time>2024-10-11T09:47:49Z</time>
      </trkpt>
      <trkpt lat="42.76704" lon="1.85363">
        <ele>1345</ele>
        <time>2024-10-11T09:47:50Z</time>
      </trkpt>
      <trkpt lat="42.76701" lon="1.8536">
        <ele>1345</ele>
        <time>2024-10-11T09:47:51Z</time>
      </trkpt>
      <trkpt lat="42.76698" lon="1.85357">
        <ele>1345.4</ele>
        <time>2024-10-11T09:47:52Z</time>
      </trkpt>
      <trkpt lat="42.76695" lon="1.85354">
        <ele>1345.4</ele>
        <time>2024-10-11T09:47:53Z</time>
      </trkpt>
      <trkpt lat="42.76692" lon="1.85351">
        <ele>1345.4</ele>
        <time>2024-10-11T09:47:54Z</time>
      </trkpt>
      <trkpt lat="42.7669" lon="1.85348">
        <ele>1345.4</ele>
        <time>2024-10-11T09:47:55Z</time>
      </trkpt>
      <trkpt lat="42.76686" lon="1.85343">
        <ele>1345.8</ele>
        <time>2024-10-11T09:47:56Z</time>
      </trkpt>
      <trkpt lat="42.76685" lon="1.85342">
        <ele>1345.8</ele>
        <time>2024-10-11T09:47:57Z</time>
      </trkpt>
      <trkpt lat="42.76681" lon="1.85337">
        <ele>1345.8</ele>
        <time>2024-10-11T09:47:58Z</time>
      </trkpt>
      <trkpt lat="42.7668" lon="1.85335">
        <ele>1345.8</ele>
        <time>2024-10-11T09:47:59Z</time>
      </trkpt>
      <trkpt lat="42.76677" lon="1.8533">
        <ele>1346</ele>
        <time>2024-10-11T09:48:00Z</time>
      </trkpt>
      <trkpt lat="42.76676" lon="1.85328">
        <ele>1346</ele>
        <time>2024-10-11T09:48:01Z</time>
      </trkpt>
      <trkpt lat="42.76674" lon="1.85325">
        <ele>1346.6</ele>
        <time>2024-10-11T09:48:02Z</time>
      </trkpt>
      <trkpt lat="42.76672" lon="1.85321">
        <ele>1346.6</ele>
        <time>2024-10-11T09:48:03Z</time>
      </trkpt>
      <trkpt lat="42.7667" lon="1.85317">
        <ele>1346.6</ele>
        <time>2024-10-11T09:48:04Z</time>
      </trkpt>
      <trkpt lat="42.76669" lon="1.85313">
        <ele>1346.6</ele>
        <time>2024-10-11T09:48:05Z</time>
      </trkpt>
      <trkpt lat="42.76667" lon="1.85307">
        <ele>1347.2</ele>
        <time>2024-10-11T09:48:06Z</time>
      </trkpt>
      <trkpt lat="42.76666" lon="1.85305">
        <ele>1347.2</ele>
        <time>2024-10-11T09:48:07Z</time>
      </trkpt>
      <trkpt lat="42.76665" lon="1.85299">
        <ele>1347.2</ele>
        <time>2024-10-11T09:48:08Z</time>
      </trkpt>
      <trkpt lat="42.76664" lon="1.85297">
        <ele>1347.2</ele>
        <time>2024-10-11T09:48:09Z</time>
      </trkpt>
      <trkpt lat="42.76663" lon="1.85292">
        <ele>1347.6</ele>
        <time>2024-10-11T09:48:10Z</time>
      </trkpt>
      <trkpt lat="42.76662" lon="1.85288">
        <ele>1348</ele>
        <time>2024-10-11T09:48:11Z</time>
      </trkpt>
      <trkpt lat="42.76661" lon="1.85282">
        <ele>1348</ele>
        <time>2024-10-11T09:48:12Z</time>
      </trkpt>
      <trkpt lat="42.76661" lon="1.8528">
        <ele>1348</ele>
        <time>2024-10-11T09:48:13Z</time>
      </trkpt>
      <trkpt lat="42.7666" lon="1.85276">
        <ele>1348</ele>
        <time>2024-10-11T09:48:14Z</time>
      </trkpt>
      <trkpt lat="42.7666" lon="1.85272">
        <ele>1348.6</ele>
        <time>2024-10-11T09:48:15Z</time>
      </trkpt>
      <trkpt lat="42.76659" lon="1.85267">
        <ele>1348.6</ele>
        <time>2024-10-11T09:48:16Z</time>
      </trkpt>
      <trkpt lat="42.76659" lon="1.85263">
        <ele>1348.6</ele>
        <time>2024-10-11T09:48:17Z</time>
      </trkpt>
      <trkpt lat="42.76659" lon="1.85259">
        <ele>1349</ele>
        <time>2024-10-11T09:48:18Z</time>
      </trkpt>
      <trkpt lat="42.76658" lon="1.85254">
        <ele>1349</ele>
        <time>2024-10-11T09:48:19Z</time>
      </trkpt>
      <trkpt lat="42.76657" lon="1.8525">
        <ele>1349</ele>
        <time>2024-10-11T09:48:20Z</time>
      </trkpt>
      <trkpt lat="42.76657" lon="1.85247">
        <ele>1349</ele>
        <time>2024-10-11T09:48:21Z</time>
      </trkpt>
      <trkpt lat="42.76656" lon="1.85243">
        <ele>1349</ele>
        <time>2024-10-11T09:48:22Z</time>
      </trkpt>
      <trkpt lat="42.76655" lon="1.85239">
        <ele>1349.6</ele>
        <time>2024-10-11T09:48:23Z</time>
      </trkpt>
      <trkpt lat="42.76654" lon="1.85235">
        <ele>1350</ele>
        <time>2024-10-11T09:48:24Z</time>
      </trkpt>
      <trkpt lat="42.76654" lon="1.85231">
        <ele>1350</ele>
        <time>2024-10-11T09:48:25Z</time>
      </trkpt>
      <trkpt lat="42.76653" lon="1.85228">
        <ele>1350</ele>
        <time>2024-10-11T09:48:26Z</time>
      </trkpt>
      <trkpt lat="42.76653" lon="1.85224">
        <ele>1350</ele>
        <time>2024-10-11T09:48:27Z</time>
      </trkpt>
      <trkpt lat="42.76653" lon="1.85221">
        <ele>1350.6</ele>
        <time>2024-10-11T09:48:28Z</time>
      </trkpt>
      <trkpt lat="42.76652" lon="1.85218">
        <ele>1350.6</ele>
        <time>2024-10-11T09:48:29Z</time>
      </trkpt>
      <trkpt lat="42.76652" lon="1.85215">
        <ele>1350.6</ele>
        <time>2024-10-11T09:48:30Z</time>
      </trkpt>
      <trkpt lat="42.76651" lon="1.85212">
        <ele>1350.6</ele>
        <time>2024-10-11T09:48:31Z</time>
      </trkpt>
      <trkpt lat="42.76651" lon="1.85209">
        <ele>1351</ele>
        <time>2024-10-11T09:48:32Z</time>
      </trkpt>
      <trkpt lat="42.7665" lon="1.85205">
        <ele>1351</ele>
        <time>2024-10-11T09:48:33Z</time>
      </trkpt>
      <trkpt lat="42.7665" lon="1.85202">
        <ele>1351</ele>
        <time>2024-10-11T09:48:34Z</time>
      </trkpt>
      <trkpt lat="42.76649" lon="1.85199">
        <ele>1351</ele>
        <time>2024-10-11T09:48:35Z</time>
      </trkpt>
      <trkpt lat="42.76649" lon="1.85195">
        <ele>1351.4</ele>
        <time>2024-10-11T09:48:36Z</time>
      </trkpt>
      <trkpt lat="42.76648" lon="1.85192">
        <ele>1352</ele>
        <time>2024-10-11T09:48:37Z</time>
      </trkpt>
      <trkpt lat="42.76647" lon="1.85189">
        <ele>1352</ele>
        <time>2024-10-11T09:48:38Z</time>
      </trkpt>
      <trkpt lat="42.76646" lon="1.85184">
        <ele>1352</ele>
        <time>2024-10-11T09:48:39Z</time>
      </trkpt>
      <trkpt lat="42.76646" lon="1.85183">
        <ele>1352</ele>
        <time>2024-10-11T09:48:40Z</time>
      </trkpt>
      <trkpt lat="42.76645" lon="1.85178">
        <ele>1352</ele>
        <time>2024-10-11T09:48:41Z</time>
      </trkpt>
      <trkpt lat="42.76644" lon="1.85177">
        <ele>1352.8</ele>
        <time>2024-10-11T09:48:42Z</time>
      </trkpt>
      <trkpt lat="42.76644" lon="1.85172">
        <ele>1352.8</ele>
        <time>2024-10-11T09:48:43Z</time>
      </trkpt>
      <trkpt lat="42.76643" lon="1.8517">
        <ele>1352.8</ele>
        <time>2024-10-11T09:48:44Z</time>
      </trkpt>
      <trkpt lat="42.76643" lon="1.85167">
        <ele>1352.8</ele>
        <time>2024-10-11T09:48:45Z</time>
      </trkpt>
      <trkpt lat="42.76642" lon="1.85164">
        <ele>1353</ele>
        <time>2024-10-11T09:48:46Z</time>
      </trkpt>
      <trkpt lat="42.76642" lon="1.85162">
        <ele>1353.2</ele>
        <time>2024-10-11T09:48:47Z</time>
      </trkpt>
      <trkpt lat="42.76642" lon="1.8516">
        <ele>1353.2</ele>
        <time>2024-10-11T09:48:48Z</time>
      </trkpt>
      <trkpt lat="42.76642" lon="1.85159">
        <ele>1353.2</ele>
        <time>2024-10-11T09:48:49Z</time>
      </trkpt>
      <trkpt lat="42.76642" lon="1.85158">
        <ele>1353.6</ele>
        <time>2024-10-11T09:48:50Z</time>
      </trkpt>
      <trkpt lat="42.76642" lon="1.85158">
        <ele>1353.6</ele>
        <time>2024-10-11T09:48:51Z</time>
      </trkpt>
      <trkpt lat="42.7664" lon="1.85153">
        <ele>1353.8</ele>
        <time>2024-10-11T09:49:18Z</time>
      </trkpt>
      <trkpt lat="42.76639" lon="1.85151">
        <ele>1353.8</ele>
        <time>2024-10-11T09:49:19Z</time>
      </trkpt>
      <trkpt lat="42.76639" lon="1.85148">
        <ele>1353.8</ele>
        <time>2024-10-11T09:49:20Z</time>
      </trkpt>
      <trkpt lat="42.76637" lon="1.85144">
        <ele>1353.8</ele>
        <time>2024-10-11T09:49:21Z</time>
      </trkpt>
      <trkpt lat="42.76637" lon="1.85142">
        <ele>1354.4</ele>
        <time>2024-10-11T09:49:22Z</time>
      </trkpt>
      <trkpt lat="42.76636" lon="1.85139">
        <ele>1354.4</ele>
        <time>2024-10-11T09:49:23Z</time>
      </trkpt>
      <trkpt lat="42.76636" lon="1.85136">
        <ele>1354.4</ele>
        <time>2024-10-11T09:49:24Z</time>
      </trkpt>
      <trkpt lat="42.76634" lon="1.85132">
        <ele>1354.8</ele>
        <time>2024-10-11T09:49:25Z</time>
      </trkpt>
      <trkpt lat="42.76634" lon="1.85131">
        <ele>1355.2</ele>
        <time>2024-10-11T09:49:26Z</time>
      </trkpt>
      <trkpt lat="42.76632" lon="1.85127">
        <ele>1355.2</ele>
        <time>2024-10-11T09:49:27Z</time>
      </trkpt>
      <trkpt lat="42.76632" lon="1.85126">
        <ele>1355.2</ele>
        <time>2024-10-11T09:49:28Z</time>
      </trkpt>
      <trkpt lat="42.76631" lon="1.85123">
        <ele>1355.2</ele>
        <time>2024-10-11T09:49:29Z</time>
      </trkpt>
      <trkpt lat="42.76629" lon="1.8512">
        <ele>1355.2</ele>
        <time>2024-10-11T09:49:30Z</time>
      </trkpt>
      <trkpt lat="42.76627" lon="1.85116">
        <ele>1355.2</ele>
        <time>2024-10-11T09:49:31Z</time>
      </trkpt>
      <trkpt lat="42.76627" lon="1.85115">
        <ele>1355.6</ele>
        <time>2024-10-11T09:49:32Z</time>
      </trkpt>
      <trkpt lat="42.76625" lon="1.85111">
        <ele>1355.6</ele>
        <time>2024-10-11T09:49:33Z</time>
      </trkpt>
      <trkpt lat="42.76624" lon="1.8511">
        <ele>1355.6</ele>
        <time>2024-10-11T09:49:34Z</time>
      </trkpt>
      <trkpt lat="42.76623" lon="1.85108">
        <ele>1355.6</ele>
        <time>2024-10-11T09:49:35Z</time>
      </trkpt>
      <trkpt lat="42.76622" lon="1.85106">
        <ele>1356.2</ele>
        <time>2024-10-11T09:49:36Z</time>
      </trkpt>
      <trkpt lat="42.76621" lon="1.85106">
        <ele>1356.2</ele>
        <time>2024-10-11T09:49:37Z</time>
      </trkpt>
      <trkpt lat="42.7662" lon="1.85106">
        <ele>1356.2</ele>
        <time>2024-10-11T09:49:38Z</time>
      </trkpt>
      <trkpt lat="42.76618" lon="1.85106">
        <ele>1356.2</ele>
        <time>2024-10-11T09:49:39Z</time>
      </trkpt>
      <trkpt lat="42.76617" lon="1.85106">
        <ele>1356</ele>
        <time>2024-10-11T09:50:16Z</time>
      </trkpt>
      <trkpt lat="42.76616" lon="1.85106">
        <ele>1356.2</ele>
        <time>2024-10-11T09:50:17Z</time>
      </trkpt>
      <trkpt lat="42.76615" lon="1.85106">
        <ele>1356.2</ele>
        <time>2024-10-11T09:50:18Z</time>
      </trkpt>
      <trkpt lat="42.76613" lon="1.85107">
        <ele>1356.2</ele>
        <time>2024-10-11T09:50:19Z</time>
      </trkpt>
      <trkpt lat="42.76611" lon="1.85108">
        <ele>1357</ele>
        <time>2024-10-11T09:50:20Z</time>
      </trkpt>
      <trkpt lat="42.76609" lon="1.85108">
        <ele>1357</ele>
        <time>2024-10-11T09:50:21Z</time>
      </trkpt>
      <trkpt lat="42.76607" lon="1.85109">
        <ele>1357</ele>
        <time>2024-10-11T09:50:22Z</time>
      </trkpt>
      <trkpt lat="42.76604" lon="1.8511">
        <ele>1357</ele>
        <time>2024-10-11T09:50:23Z</time>
      </trkpt>
      <trkpt lat="42.76602" lon="1.85111">
        <ele>1357.4</ele>
        <time>2024-10-11T09:50:24Z</time>
      </trkpt>
      <trkpt lat="42.766" lon="1.85113">
        <ele>1357.8</ele>
        <time>2024-10-11T09:50:25Z</time>
      </trkpt>
      <trkpt lat="42.76598" lon="1.85115">
        <ele>1357.8</ele>
        <time>2024-10-11T09:50:26Z</time>
      </trkpt>
      <trkpt lat="42.76597" lon="1.85117">
        <ele>1357.8</ele>
        <time>2024-10-11T09:50:27Z</time>
      </trkpt>
      <trkpt lat="42.76595" lon="1.8512">
        <ele>1357.8</ele>
        <time>2024-10-11T09:50:28Z</time>
      </trkpt>
      <trkpt lat="42.76594" lon="1.85123">
        <ele>1358.6</ele>
        <time>2024-10-11T09:50:29Z</time>
      </trkpt>
      <trkpt lat="42.76593" lon="1.85126">
        <ele>1358.6</ele>
        <time>2024-10-11T09:50:30Z</time>
      </trkpt>
      <trkpt lat="42.76592" lon="1.8513">
        <ele>1358.6</ele>
        <time>2024-10-11T09:50:31Z</time>
      </trkpt>
      <trkpt lat="42.76591" lon="1.85133">
        <ele>1358.6</ele>
        <time>2024-10-11T09:50:32Z</time>
      </trkpt>
      <trkpt lat="42.7659" lon="1.85136">
        <ele>1359.6</ele>
        <time>2024-10-11T09:50:33Z</time>
      </trkpt>
      <trkpt lat="42.76589" lon="1.85139">
        <ele>1359.4</ele>
        <time>2024-10-11T09:50:34Z</time>
      </trkpt>
      <trkpt lat="42.76589" lon="1.85143">
        <ele>1359.4</ele>
        <time>2024-10-11T09:50:35Z</time>
      </trkpt>
      <trkpt lat="42.76588" lon="1.85146">
        <ele>1359.4</ele>
        <time>2024-10-11T09:50:36Z</time>
      </trkpt>
      <trkpt lat="42.76588" lon="1.85149">
        <ele>1359.4</ele>
        <time>2024-10-11T09:50:37Z</time>
      </trkpt>
      <trkpt lat="42.76587" lon="1.85153">
        <ele>1360</ele>
        <time>2024-10-11T09:50:38Z</time>
      </trkpt>
      <trkpt lat="42.76587" lon="1.85156">
        <ele>1360.4</ele>
        <time>2024-10-11T09:50:39Z</time>
      </trkpt>
      <trkpt lat="42.76587" lon="1.85159">
        <ele>1360.4</ele>
        <time>2024-10-11T09:50:40Z</time>
      </trkpt>
      <trkpt lat="42.76587" lon="1.85163">
        <ele>1360.4</ele>
        <time>2024-10-11T09:50:41Z</time>
      </trkpt>
      <trkpt lat="42.76587" lon="1.85166">
        <ele>1360.8</ele>
        <time>2024-10-11T09:50:42Z</time>
      </trkpt>
      <trkpt lat="42.76587" lon="1.8517">
        <ele>1361</ele>
        <time>2024-10-11T09:50:43Z</time>
      </trkpt>
      <trkpt lat="42.76587" lon="1.85173">
        <ele>1361</ele>
        <time>2024-10-11T09:50:44Z</time>
      </trkpt>
      <trkpt lat="42.76587" lon="1.85176">
        <ele>1361</ele>
        <time>2024-10-11T09:50:45Z</time>
      </trkpt>
      <trkpt lat="42.76586" lon="1.85179">
        <ele>1361</ele>
        <time>2024-10-11T09:50:46Z</time>
      </trkpt>
      <trkpt lat="42.76586" lon="1.85183">
        <ele>1362.2</ele>
        <time>2024-10-11T09:50:47Z</time>
      </trkpt>
      <trkpt lat="42.76586" lon="1.85188">
        <ele>1362.2</ele>
        <time>2024-10-11T09:50:48Z</time>
      </trkpt>
      <trkpt lat="42.76586" lon="1.85189">
        <ele>1362.2</ele>
        <time>2024-10-11T09:50:49Z</time>
      </trkpt>
      <trkpt lat="42.76585" lon="1.85194">
        <ele>1362.2</ele>
        <time>2024-10-11T09:50:50Z</time>
      </trkpt>
      <trkpt lat="42.76585" lon="1.85195">
        <ele>1362.6</ele>
        <time>2024-10-11T09:50:51Z</time>
      </trkpt>
      <trkpt lat="42.76585" lon="1.85198">
        <ele>1363</ele>
        <time>2024-10-11T09:50:52Z</time>
      </trkpt>
      <trkpt lat="42.76585" lon="1.85201">
        <ele>1363</ele>
        <time>2024-10-11T09:50:53Z</time>
      </trkpt>
      <trkpt lat="42.76585" lon="1.85205">
        <ele>1363</ele>
        <time>2024-10-11T09:50:54Z</time>
      </trkpt>
      <trkpt lat="42.76585" lon="1.85209">
        <ele>1363</ele>
        <time>2024-10-11T09:50:55Z</time>
      </trkpt>
      <trkpt lat="42.76585" lon="1.85211">
        <ele>1363.4</ele>
        <time>2024-10-11T09:50:56Z</time>
      </trkpt>
      <trkpt lat="42.76584" lon="1.85216">
        <ele>1363.4</ele>
        <time>2024-10-11T09:50:57Z</time>
      </trkpt>
      <trkpt lat="42.76584" lon="1.85217">
        <ele>1363.4</ele>
        <time>2024-10-11T09:50:58Z</time>
      </trkpt>
      <trkpt lat="42.76583" lon="1.8522">
        <ele>1363.4</ele>
        <time>2024-10-11T09:50:59Z</time>
      </trkpt>
      <trkpt lat="42.76583" lon="1.85223">
        <ele>1363.4</ele>
        <time>2024-10-11T09:51:00Z</time>
      </trkpt>
      <trkpt lat="42.76582" lon="1.85226">
        <ele>1364</ele>
        <time>2024-10-11T09:51:01Z</time>
      </trkpt>
      <trkpt lat="42.76581" lon="1.85229">
        <ele>1364.4</ele>
        <time>2024-10-11T09:51:02Z</time>
      </trkpt>
      <trkpt lat="42.7658" lon="1.85234">
        <ele>1364.4</ele>
        <time>2024-10-11T09:51:03Z</time>
      </trkpt>
      <trkpt lat="42.76579" lon="1.85235">
        <ele>1364.4</ele>
        <time>2024-10-11T09:51:04Z</time>
      </trkpt>
      <trkpt lat="42.76579" lon="1.85238">
        <ele>1364.8</ele>
        <time>2024-10-11T09:51:05Z</time>
      </trkpt>
      <trkpt lat="42.76578" lon="1.85241">
        <ele>1365.4</ele>
        <time>2024-10-11T09:51:06Z</time>
      </trkpt>
      <trkpt lat="42.76577" lon="1.85244">
        <ele>1365.4</ele>
        <time>2024-10-11T09:51:07Z</time>
      </trkpt>
      <trkpt lat="42.76575" lon="1.85247">
        <ele>1365.4</ele>
        <time>2024-10-11T09:51:08Z</time>
      </trkpt>
      <trkpt lat="42.76574" lon="1.85249">
        <ele>1365.8</ele>
        <time>2024-10-11T09:51:09Z</time>
      </trkpt>
      <trkpt lat="42.76573" lon="1.85252">
        <ele>1366.2</ele>
        <time>2024-10-11T09:51:10Z</time>
      </trkpt>
      <trkpt lat="42.76571" lon="1.85254">
        <ele>1366.2</ele>
        <time>2024-10-11T09:51:11Z</time>
      </trkpt>
      <trkpt lat="42.7657" lon="1.85256">
        <ele>1366.2</ele>
        <time>2024-10-11T09:51:12Z</time>
      </trkpt>
      <trkpt lat="42.76568" lon="1.85258">
        <ele>1366.2</ele>
        <time>2024-10-11T09:51:13Z</time>
      </trkpt>
      <trkpt lat="42.76567" lon="1.8526">
        <ele>1367</ele>
        <time>2024-10-11T09:51:14Z</time>
      </trkpt>
      <trkpt lat="42.76564" lon="1.85264">
        <ele>1367.2</ele>
        <time>2024-10-11T09:51:15Z</time>
      </trkpt>
      <trkpt lat="42.76563" lon="1.85265">
        <ele>1367.2</ele>
        <time>2024-10-11T09:51:16Z</time>
      </trkpt>
      <trkpt lat="42.76562" lon="1.85267">
        <ele>1367.2</ele>
        <time>2024-10-11T09:51:17Z</time>
      </trkpt>
      <trkpt lat="42.7656" lon="1.85269">
        <ele>1367.6</ele>
        <time>2024-10-11T09:51:18Z</time>
      </trkpt>
      <trkpt lat="42.76558" lon="1.8527">
        <ele>1367.8</ele>
        <time>2024-10-11T09:51:19Z</time>
      </trkpt>
      <trkpt lat="42.76556" lon="1.85272">
        <ele>1367.8</ele>
        <time>2024-10-11T09:51:20Z</time>
      </trkpt>
      <trkpt lat="42.76554" lon="1.85273">
        <ele>1367.8</ele>
        <time>2024-10-11T09:51:21Z</time>
      </trkpt>
      <trkpt lat="42.76552" lon="1.85275">
        <ele>1368.6</ele>
        <time>2024-10-11T09:51:22Z</time>
      </trkpt>
      <trkpt lat="42.7655" lon="1.85276">
        <ele>1369</ele>
        <time>2024-10-11T09:51:23Z</time>
      </trkpt>
      <trkpt lat="42.76548" lon="1.85277">
        <ele>1369</ele>
        <time>2024-10-11T09:51:24Z</time>
      </trkpt>
      <trkpt lat="42.76546" lon="1.85278">
        <ele>1369</ele>
        <time>2024-10-11T09:51:25Z</time>
      </trkpt>
      <trkpt lat="42.76543" lon="1.85278">
        <ele>1369</ele>
        <time>2024-10-11T09:51:26Z</time>
      </trkpt>
      <trkpt lat="42.76541" lon="1.85278">
        <ele>1369.6</ele>
        <time>2024-10-11T09:51:27Z</time>
      </trkpt>
      <trkpt lat="42.76539" lon="1.85279">
        <ele>1369.8</ele>
        <time>2024-10-11T09:51:28Z</time>
      </trkpt>
      <trkpt lat="42.76536" lon="1.85279">
        <ele>1369.8</ele>
        <time>2024-10-11T09:51:29Z</time>
      </trkpt>
      <trkpt lat="42.76533" lon="1.85279">
        <ele>1369.8</ele>
        <time>2024-10-11T09:51:30Z</time>
      </trkpt>
      <trkpt lat="42.76532" lon="1.85279">
        <ele>1370.6</ele>
        <time>2024-10-11T09:51:31Z</time>
      </trkpt>
      <trkpt lat="42.76529" lon="1.85278">
        <ele>1370.6</ele>
        <time>2024-10-11T09:51:32Z</time>
      </trkpt>
      <trkpt lat="42.76527" lon="1.85278">
        <ele>1370.8</ele>
        <time>2024-10-11T09:51:33Z</time>
      </trkpt>
      <trkpt lat="42.76525" lon="1.85277">
        <ele>1370.8</ele>
        <time>2024-10-11T09:51:34Z</time>
      </trkpt>
      <trkpt lat="42.76523" lon="1.85276">
        <ele>1370.8</ele>
        <time>2024-10-11T09:51:35Z</time>
      </trkpt>
      <trkpt lat="42.76521" lon="1.85274">
        <ele>1371.2</ele>
        <time>2024-10-11T09:51:36Z</time>
      </trkpt>
      <trkpt lat="42.76519" lon="1.85273">
        <ele>1371.2</ele>
        <time>2024-10-11T09:51:37Z</time>
      </trkpt>
      <trkpt lat="42.76517" lon="1.85271">
        <ele>1371.6</ele>
        <time>2024-10-11T09:51:38Z</time>
      </trkpt>
      <trkpt lat="42.76516" lon="1.8527">
        <ele>1371.6</ele>
        <time>2024-10-11T09:51:39Z</time>
      </trkpt>
      <trkpt lat="42.76514" lon="1.85268">
        <ele>1371.6</ele>
        <time>2024-10-11T09:51:40Z</time>
      </trkpt>
      <trkpt lat="42.76513" lon="1.85267">
        <ele>1372.4</ele>
        <time>2024-10-11T09:51:41Z</time>
      </trkpt>
      <trkpt lat="42.76512" lon="1.85265">
        <ele>1372.6</ele>
        <time>2024-10-11T09:51:42Z</time>
      </trkpt>
      <trkpt lat="42.76511" lon="1.85263">
        <ele>1372.6</ele>
        <time>2024-10-11T09:51:43Z</time>
      </trkpt>
      <trkpt lat="42.76509" lon="1.8526">
        <ele>1372.6</ele>
        <time>2024-10-11T09:51:44Z</time>
      </trkpt>
      <trkpt lat="42.76508" lon="1.8526">
        <ele>1373.2</ele>
        <time>2024-10-11T09:51:45Z</time>
      </trkpt>
      <trkpt lat="42.76507" lon="1.85257">
        <ele>1373.4</ele>
        <time>2024-10-11T09:51:46Z</time>
      </trkpt>
      <trkpt lat="42.76506" lon="1.85255">
        <ele>1373.4</ele>
        <time>2024-10-11T09:51:47Z</time>
      </trkpt>
      <trkpt lat="42.76505" lon="1.85252">
        <ele>1373.4</ele>
        <time>2024-10-11T09:51:48Z</time>
      </trkpt>
      <trkpt lat="42.76504" lon="1.8525">
        <ele>1373.4</ele>
        <time>2024-10-11T09:51:49Z</time>
      </trkpt>
      <trkpt lat="42.76504" lon="1.85248">
        <ele>1374</ele>
        <time>2024-10-11T09:51:50Z</time>
      </trkpt>
      <trkpt lat="42.76502" lon="1.85245">
        <ele>1374.2</ele>
        <time>2024-10-11T09:51:51Z</time>
      </trkpt>
      <trkpt lat="42.76501" lon="1.85243">
        <ele>1374.2</ele>
        <time>2024-10-11T09:51:52Z</time>
      </trkpt>
      <trkpt lat="42.765" lon="1.85241">
        <ele>1374.2</ele>
        <time>2024-10-11T09:51:53Z</time>
      </trkpt>
      <trkpt lat="42.76499" lon="1.85238">
        <ele>1374.2</ele>
        <time>2024-10-11T09:51:54Z</time>
      </trkpt>
      <trkpt lat="42.76498" lon="1.85235">
        <ele>1374.8</ele>
        <time>2024-10-11T09:51:55Z</time>
      </trkpt>
      <trkpt lat="42.76497" lon="1.85233">
        <ele>1374.8</ele>
        <time>2024-10-11T09:51:56Z</time>
      </trkpt>
      <trkpt lat="42.76495" lon="1.85231">
        <ele>1374.8</ele>
        <time>2024-10-11T09:51:57Z</time>
      </trkpt>
      <trkpt lat="42.76494" lon="1.85228">
        <ele>1374.8</ele>
        <time>2024-10-11T09:51:58Z</time>
      </trkpt>
      <trkpt lat="42.76492" lon="1.85226">
        <ele>1375.2</ele>
        <time>2024-10-11T09:51:59Z</time>
      </trkpt>
      <trkpt lat="42.7649" lon="1.85223">
        <ele>1375.2</ele>
        <time>2024-10-11T09:52:00Z</time>
      </trkpt>
      <trkpt lat="42.76488" lon="1.85221">
        <ele>1375.2</ele>
        <time>2024-10-11T09:52:01Z</time>
      </trkpt>
      <trkpt lat="42.76486" lon="1.85219">
        <ele>1375.2</ele>
        <time>2024-10-11T09:52:02Z</time>
      </trkpt>
      <trkpt lat="42.76484" lon="1.85217">
        <ele>1375.6</ele>
        <time>2024-10-11T09:52:03Z</time>
      </trkpt>
      <trkpt lat="42.76482" lon="1.85215">
        <ele>1375.8</ele>
        <time>2024-10-11T09:52:04Z</time>
      </trkpt>
      <trkpt lat="42.7648" lon="1.85214">
        <ele>1375.8</ele>
        <time>2024-10-11T09:52:05Z</time>
      </trkpt>
      <trkpt lat="42.76478" lon="1.85212">
        <ele>1375.8</ele>
        <time>2024-10-11T09:52:06Z</time>
      </trkpt>
      <trkpt lat="42.76476" lon="1.85211">
        <ele>1376.4</ele>
        <time>2024-10-11T09:52:07Z</time>
      </trkpt>
      <trkpt lat="42.76473" lon="1.85209">
        <ele>1376.4</ele>
        <time>2024-10-11T09:52:08Z</time>
      </trkpt>
      <trkpt lat="42.76472" lon="1.85208">
        <ele>1376.6</ele>
        <time>2024-10-11T09:52:09Z</time>
      </trkpt>
      <trkpt lat="42.76469" lon="1.85206">
        <ele>1376.6</ele>
        <time>2024-10-11T09:52:10Z</time>
      </trkpt>
      <trkpt lat="42.76468" lon="1.85205">
        <ele>1376.6</ele>
        <time>2024-10-11T09:52:11Z</time>
      </trkpt>
      <trkpt lat="42.76465" lon="1.85203">
        <ele>1377</ele>
        <time>2024-10-11T09:52:12Z</time>
      </trkpt>
      <trkpt lat="42.76464" lon="1.85203">
        <ele>1377.4</ele>
        <time>2024-10-11T09:52:13Z</time>
      </trkpt>
      <trkpt lat="42.76462" lon="1.85202">
        <ele>1377.4</ele>
        <time>2024-10-11T09:52:14Z</time>
      </trkpt>
      <trkpt lat="42.7646" lon="1.85202">
        <ele>1377.4</ele>
        <time>2024-10-11T09:52:15Z</time>
      </trkpt>
      <trkpt lat="42.76457" lon="1.852">
        <ele>1377.4</ele>
        <time>2024-10-11T09:52:16Z</time>
      </trkpt>
      <trkpt lat="42.76456" lon="1.852">
        <ele>1378.2</ele>
        <time>2024-10-11T09:52:17Z</time>
      </trkpt>
      <trkpt lat="42.76454" lon="1.85198">
        <ele>1378.2</ele>
        <time>2024-10-11T09:52:18Z</time>
      </trkpt>
      <trkpt lat="42.76452" lon="1.85198">
        <ele>1378.2</ele>
        <time>2024-10-11T09:52:19Z</time>
      </trkpt>
      <trkpt lat="42.76449" lon="1.85196">
        <ele>1378.2</ele>
        <time>2024-10-11T09:52:20Z</time>
      </trkpt>
      <trkpt lat="42.76448" lon="1.85195">
        <ele>1378.2</ele>
        <time>2024-10-11T09:52:21Z</time>
      </trkpt>
      <trkpt lat="42.76446" lon="1.85194">
        <ele>1378.8</ele>
        <time>2024-10-11T09:52:22Z</time>
      </trkpt>
      <trkpt lat="42.76444" lon="1.85193">
        <ele>1379.2</ele>
        <time>2024-10-11T09:52:23Z</time>
      </trkpt>
      <trkpt lat="42.76441" lon="1.85191">
        <ele>1379.2</ele>
        <time>2024-10-11T09:52:24Z</time>
      </trkpt>
      <trkpt lat="42.7644" lon="1.85191">
        <ele>1379.2</ele>
        <time>2024-10-11T09:52:25Z</time>
      </trkpt>
      <trkpt lat="42.76437" lon="1.85188">
        <ele>1379.6</ele>
        <time>2024-10-11T09:52:26Z</time>
      </trkpt>
      <trkpt lat="42.76436" lon="1.85187">
        <ele>1379.8</ele>
        <time>2024-10-11T09:52:27Z</time>
      </trkpt>
      <trkpt lat="42.76433" lon="1.85185">
        <ele>1379.8</ele>
        <time>2024-10-11T09:52:28Z</time>
      </trkpt>
      <trkpt lat="42.76433" lon="1.85185">
        <ele>1379.8</ele>
        <time>2024-10-11T09:52:29Z</time>
      </trkpt>
      <trkpt lat="42.76431" lon="1.85183">
        <ele>1379.8</ele>
        <time>2024-10-11T09:52:30Z</time>
      </trkpt>
      <trkpt lat="42.76429" lon="1.85181">
        <ele>1380.6</ele>
        <time>2024-10-11T09:52:31Z</time>
      </trkpt>
      <trkpt lat="42.76427" lon="1.85179">
        <ele>1380.6</ele>
        <time>2024-10-11T09:52:32Z</time>
      </trkpt>
      <trkpt lat="42.76425" lon="1.85177">
        <ele>1380.6</ele>
        <time>2024-10-11T09:52:33Z</time>
      </trkpt>
      <trkpt lat="42.76423" lon="1.85175">
        <ele>1381.4</ele>
        <time>2024-10-11T09:52:34Z</time>
      </trkpt>
      <trkpt lat="42.76422" lon="1.85173">
        <ele>1381.4</ele>
        <time>2024-10-11T09:52:35Z</time>
      </trkpt>
      <trkpt lat="42.7642" lon="1.85171">
        <ele>1381.4</ele>
        <time>2024-10-11T09:52:36Z</time>
      </trkpt>
      <trkpt lat="42.76419" lon="1.85168">
        <ele>1381.4</ele>
        <time>2024-10-11T09:52:37Z</time>
      </trkpt>
      <trkpt lat="42.76418" lon="1.85166">
        <ele>1381.4</ele>
        <time>2024-10-11T09:52:38Z</time>
      </trkpt>
      <trkpt lat="42.76416" lon="1.85164">
        <ele>1382</ele>
        <time>2024-10-11T09:52:39Z</time>
      </trkpt>
      <trkpt lat="42.76415" lon="1.85162">
        <ele>1382.2</ele>
        <time>2024-10-11T09:52:40Z</time>
      </trkpt>
      <trkpt lat="42.76414" lon="1.85158">
        <ele>1382.2</ele>
        <time>2024-10-11T09:52:41Z</time>
      </trkpt>
      <trkpt lat="42.76412" lon="1.85156">
        <ele>1382.2</ele>
        <time>2024-10-11T09:52:42Z</time>
      </trkpt>
      <trkpt lat="42.7641" lon="1.85154">
        <ele>1382.8</ele>
        <time>2024-10-11T09:52:43Z</time>
      </trkpt>
      <trkpt lat="42.76409" lon="1.85152">
        <ele>1382.8</ele>
        <time>2024-10-11T09:52:44Z</time>
      </trkpt>
      <trkpt lat="42.76407" lon="1.8515">
        <ele>1382.8</ele>
        <time>2024-10-11T09:52:45Z</time>
      </trkpt>
      <trkpt lat="42.76405" lon="1.85148">
        <ele>1382.8</ele>
        <time>2024-10-11T09:52:46Z</time>
      </trkpt>
      <trkpt lat="42.76403" lon="1.85146">
        <ele>1382.8</ele>
        <time>2024-10-11T09:52:47Z</time>
      </trkpt>
      <trkpt lat="42.76401" lon="1.85144">
        <ele>1383.4</ele>
        <time>2024-10-11T09:52:48Z</time>
      </trkpt>
      <trkpt lat="42.76399" lon="1.85141">
        <ele>1383.8</ele>
        <time>2024-10-11T09:52:49Z</time>
      </trkpt>
      <trkpt lat="42.76398" lon="1.85139">
        <ele>1383.8</ele>
        <time>2024-10-11T09:52:50Z</time>
      </trkpt>
      <trkpt lat="42.76396" lon="1.85137">
        <ele>1383.8</ele>
        <time>2024-10-11T09:52:51Z</time>
      </trkpt>
      <trkpt lat="42.76395" lon="1.85135">
        <ele>1384.4</ele>
        <time>2024-10-11T09:52:52Z</time>
      </trkpt>
      <trkpt lat="42.76393" lon="1.85133">
        <ele>1384.4</ele>
        <time>2024-10-11T09:52:53Z</time>
      </trkpt>
      <trkpt lat="42.76391" lon="1.85131">
        <ele>1384.4</ele>
        <time>2024-10-11T09:52:54Z</time>
      </trkpt>
      <trkpt lat="42.76388" lon="1.85129">
        <ele>1384.4</ele>
        <time>2024-10-11T09:52:55Z</time>
      </trkpt>
      <trkpt lat="42.76386" lon="1.85128">
        <ele>1384.8</ele>
        <time>2024-10-11T09:52:56Z</time>
      </trkpt>
      <trkpt lat="42.76383" lon="1.85126">
        <ele>1384.8</ele>
        <time>2024-10-11T09:52:57Z</time>
      </trkpt>
      <trkpt lat="42.76381" lon="1.85126">
        <ele>1385</ele>
        <time>2024-10-11T09:52:58Z</time>
      </trkpt>
      <trkpt lat="42.76378" lon="1.85125">
        <ele>1385</ele>
        <time>2024-10-11T09:52:59Z</time>
      </trkpt>
      <trkpt lat="42.76376" lon="1.85125">
        <ele>1385</ele>
        <time>2024-10-11T09:53:00Z</time>
      </trkpt>
      <trkpt lat="42.76372" lon="1.85125">
        <ele>1385</ele>
        <time>2024-10-11T09:53:01Z</time>
      </trkpt>
      <trkpt lat="42.76371" lon="1.85125">
        <ele>1385.6</ele>
        <time>2024-10-11T09:53:02Z</time>
      </trkpt>
      <trkpt lat="42.76369" lon="1.85126">
        <ele>1385.8</ele>
        <time>2024-10-11T09:53:03Z</time>
      </trkpt>
      <trkpt lat="42.76366" lon="1.85127">
        <ele>1385.8</ele>
        <time>2024-10-11T09:53:04Z</time>
      </trkpt>
      <trkpt lat="42.76364" lon="1.85128">
        <ele>1385.8</ele>
        <time>2024-10-11T09:53:05Z</time>
      </trkpt>
      <trkpt lat="42.76361" lon="1.85129">
        <ele>1386.4</ele>
        <time>2024-10-11T09:53:06Z</time>
      </trkpt>
      <trkpt lat="42.76359" lon="1.8513">
        <ele>1386.4</ele>
        <time>2024-10-11T09:53:07Z</time>
      </trkpt>
      <trkpt lat="42.76357" lon="1.85132">
        <ele>1386.4</ele>
        <time>2024-10-11T09:53:08Z</time>
      </trkpt>
      <trkpt lat="42.76353" lon="1.85134">
        <ele>1386.4</ele>
        <time>2024-10-11T09:53:09Z</time>
      </trkpt>
      <trkpt lat="42.76352" lon="1.85135">
        <ele>1386.4</ele>
        <time>2024-10-11T09:53:10Z</time>
      </trkpt>
      <trkpt lat="42.7635" lon="1.85137">
        <ele>1386.8</ele>
        <time>2024-10-11T09:53:11Z</time>
      </trkpt>
      <trkpt lat="42.76348" lon="1.85139">
        <ele>1387</ele>
        <time>2024-10-11T09:53:12Z</time>
      </trkpt>
      <trkpt lat="42.76346" lon="1.85141">
        <ele>1387</ele>
        <time>2024-10-11T09:53:13Z</time>
      </trkpt>
      <trkpt lat="42.76344" lon="1.85144">
        <ele>1387</ele>
        <time>2024-10-11T09:53:14Z</time>
      </trkpt>
      <trkpt lat="42.76342" lon="1.85147">
        <ele>1387.4</ele>
        <time>2024-10-11T09:53:15Z</time>
      </trkpt>
      <trkpt lat="42.7634" lon="1.85148">
        <ele>1387.6</ele>
        <time>2024-10-11T09:53:16Z</time>
      </trkpt>
      <trkpt lat="42.76339" lon="1.8515">
        <ele>1387.6</ele>
        <time>2024-10-11T09:53:17Z</time>
      </trkpt>
      <trkpt lat="42.76337" lon="1.85152">
        <ele>1387.6</ele>
        <time>2024-10-11T09:53:18Z</time>
      </trkpt>
      <trkpt lat="42.76335" lon="1.85154">
        <ele>1388.2</ele>
        <time>2024-10-11T09:53:19Z</time>
      </trkpt>
      <trkpt lat="42.76333" lon="1.85156">
        <ele>1388.2</ele>
        <time>2024-10-11T09:53:20Z</time>
      </trkpt>
      <trkpt lat="42.76331" lon="1.85158">
        <ele>1388.2</ele>
        <time>2024-10-11T09:53:21Z</time>
      </trkpt>
      <trkpt lat="42.76329" lon="1.8516">
        <ele>1388.2</ele>
        <time>2024-10-11T09:53:22Z</time>
      </trkpt>
      <trkpt lat="42.76327" lon="1.85163">
        <ele>1388.2</ele>
        <time>2024-10-11T09:53:23Z</time>
      </trkpt>
      <trkpt lat="42.76325" lon="1.85165">
        <ele>1389</ele>
        <time>2024-10-11T09:53:24Z</time>
      </trkpt>
      <trkpt lat="42.76323" lon="1.85167">
        <ele>1389.4</ele>
        <time>2024-10-11T09:53:25Z</time>
      </trkpt>
      <trkpt lat="42.76322" lon="1.85169">
        <ele>1389.4</ele>
        <time>2024-10-11T09:53:26Z</time>
      </trkpt>
      <trkpt lat="42.7632" lon="1.85171">
        <ele>1389.4</ele>
        <time>2024-10-11T09:53:27Z</time>
      </trkpt>
      <trkpt lat="42.76318" lon="1.85173">
        <ele>1389.8</ele>
        <time>2024-10-11T09:53:28Z</time>
      </trkpt>
      <trkpt lat="42.76317" lon="1.85175">
        <ele>1390.2</ele>
        <time>2024-10-11T09:53:29Z</time>
      </trkpt>
      <trkpt lat="42.76315" lon="1.85178">
        <ele>1390.2</ele>
        <time>2024-10-11T09:53:30Z</time>
      </trkpt>
      <trkpt lat="42.76313" lon="1.8518">
        <ele>1390.2</ele>
        <time>2024-10-11T09:53:31Z</time>
      </trkpt>
      <trkpt lat="42.76312" lon="1.85183">
        <ele>1390.2</ele>
        <time>2024-10-11T09:53:32Z</time>
      </trkpt>
      <trkpt lat="42.7631" lon="1.85185">
        <ele>1390.6</ele>
        <time>2024-10-11T09:53:33Z</time>
      </trkpt>
      <trkpt lat="42.76308" lon="1.85187">
        <ele>1391</ele>
        <time>2024-10-11T09:53:34Z</time>
      </trkpt>
      <trkpt lat="42.76306" lon="1.85189">
        <ele>1391</ele>
        <time>2024-10-11T09:53:35Z</time>
      </trkpt>
      <trkpt lat="42.76305" lon="1.85191">
        <ele>1391</ele>
        <time>2024-10-11T09:53:36Z</time>
      </trkpt>
      <trkpt lat="42.76303" lon="1.85193">
        <ele>1391.6</ele>
        <time>2024-10-11T09:53:37Z</time>
      </trkpt>
      <trkpt lat="42.76301" lon="1.85197">
        <ele>1391.6</ele>
        <time>2024-10-11T09:53:38Z</time>
      </trkpt>
      <trkpt lat="42.763" lon="1.85198">
        <ele>1391.8</ele>
        <time>2024-10-11T09:53:39Z</time>
      </trkpt>
      <trkpt lat="42.76298" lon="1.85201">
        <ele>1391.8</ele>
        <time>2024-10-11T09:53:40Z</time>
      </trkpt>
      <trkpt lat="42.76297" lon="1.85203">
        <ele>1392.2</ele>
        <time>2024-10-11T09:53:41Z</time>
      </trkpt>
      <trkpt lat="42.76296" lon="1.85206">
        <ele>1392.2</ele>
        <time>2024-10-11T09:53:42Z</time>
      </trkpt>
      <trkpt lat="42.76294" lon="1.85208">
        <ele>1392.2</ele>
        <time>2024-10-11T09:53:43Z</time>
      </trkpt>
      <trkpt lat="42.76292" lon="1.85211">
        <ele>1392.6</ele>
        <time>2024-10-11T09:53:44Z</time>
      </trkpt>
      <trkpt lat="42.76291" lon="1.85212">
        <ele>1392.6</ele>
        <time>2024-10-11T09:53:45Z</time>
      </trkpt>
      <trkpt lat="42.76289" lon="1.85216">
        <ele>1392.6</ele>
        <time>2024-10-11T09:53:46Z</time>
      </trkpt>
      <trkpt lat="42.76288" lon="1.85217">
        <ele>1393.2</ele>
        <time>2024-10-11T09:53:47Z</time>
      </trkpt>
      <trkpt lat="42.76286" lon="1.85221">
        <ele>1393.4</ele>
        <time>2024-10-11T09:53:48Z</time>
      </trkpt>
      <trkpt lat="42.76286" lon="1.85222">
        <ele>1393.4</ele>
        <time>2024-10-11T09:53:49Z</time>
      </trkpt>
      <trkpt lat="42.76283" lon="1.85226">
        <ele>1393.4</ele>
        <time>2024-10-11T09:53:50Z</time>
      </trkpt>
      <trkpt lat="42.76283" lon="1.85227">
        <ele>1394.2</ele>
        <time>2024-10-11T09:53:51Z</time>
      </trkpt>
      <trkpt lat="42.76281" lon="1.85229">
        <ele>1394.2</ele>
        <time>2024-10-11T09:53:52Z</time>
      </trkpt>
      <trkpt lat="42.76279" lon="1.85231">
        <ele>1394.2</ele>
        <time>2024-10-11T09:53:53Z</time>
      </trkpt>
      <trkpt lat="42.76278" lon="1.85233">
        <ele>1394.2</ele>
        <time>2024-10-11T09:53:54Z</time>
      </trkpt>
      <trkpt lat="42.76276" lon="1.85236">
        <ele>1394.2</ele>
        <time>2024-10-11T09:53:55Z</time>
      </trkpt>
      <trkpt lat="42.76274" lon="1.85238">
        <ele>1395</ele>
        <time>2024-10-11T09:53:56Z</time>
      </trkpt>
      <trkpt lat="42.76272" lon="1.8524">
        <ele>1395</ele>
        <time>2024-10-11T09:53:57Z</time>
      </trkpt>
      <trkpt lat="42.76271" lon="1.85242">
        <ele>1395</ele>
        <time>2024-10-11T09:53:58Z</time>
      </trkpt>
      <trkpt lat="42.76269" lon="1.85244">
        <ele>1395</ele>
        <time>2024-10-11T09:53:59Z</time>
      </trkpt>
      <trkpt lat="42.76267" lon="1.85246">
        <ele>1395.6</ele>
        <time>2024-10-11T09:54:00Z</time>
      </trkpt>
      <trkpt lat="42.76265" lon="1.85247">
        <ele>1396</ele>
        <time>2024-10-11T09:54:01Z</time>
      </trkpt>
      <trkpt lat="42.76263" lon="1.85249">
        <ele>1396</ele>
        <time>2024-10-11T09:54:02Z</time>
      </trkpt>
      <trkpt lat="42.76261" lon="1.85251">
        <ele>1396</ele>
        <time>2024-10-11T09:54:03Z</time>
      </trkpt>
      <trkpt lat="42.76259" lon="1.85253">
        <ele>1396.6</ele>
        <time>2024-10-11T09:54:04Z</time>
      </trkpt>
      <trkpt lat="42.76258" lon="1.85256">
        <ele>1396.8</ele>
        <time>2024-10-11T09:54:05Z</time>
      </trkpt>
      <trkpt lat="42.76256" lon="1.85257">
        <ele>1396.8</ele>
        <time>2024-10-11T09:54:06Z</time>
      </trkpt>
      <trkpt lat="42.76254" lon="1.85259">
        <ele>1396.8</ele>
        <time>2024-10-11T09:54:07Z</time>
      </trkpt>
      <trkpt lat="42.76252" lon="1.85261">
        <ele>1396.8</ele>
        <time>2024-10-11T09:54:08Z</time>
      </trkpt>
      <trkpt lat="42.7625" lon="1.85262">
        <ele>1397.6</ele>
        <time>2024-10-11T09:54:09Z</time>
      </trkpt>
      <trkpt lat="42.76248" lon="1.85264">
        <ele>1397.6</ele>
        <time>2024-10-11T09:54:10Z</time>
      </trkpt>
      <trkpt lat="42.76246" lon="1.85265">
        <ele>1397.6</ele>
        <time>2024-10-11T09:54:11Z</time>
      </trkpt>
      <trkpt lat="42.76244" lon="1.85267">
        <ele>1397.6</ele>
        <time>2024-10-11T09:54:12Z</time>
      </trkpt>
      <trkpt lat="42.76242" lon="1.85269">
        <ele>1398.6</ele>
        <time>2024-10-11T09:54:13Z</time>
      </trkpt>
      <trkpt lat="42.7624" lon="1.85269">
        <ele>1399</ele>
        <time>2024-10-11T09:54:14Z</time>
      </trkpt>
      <trkpt lat="42.76237" lon="1.8527">
        <ele>1399</ele>
        <time>2024-10-11T09:54:15Z</time>
      </trkpt>
      <trkpt lat="42.76235" lon="1.8527">
        <ele>1399</ele>
        <time>2024-10-11T09:54:16Z</time>
      </trkpt>
      <trkpt lat="42.76233" lon="1.85269">
        <ele>1399</ele>
        <time>2024-10-11T09:54:17Z</time>
      </trkpt>
      <trkpt lat="42.7623" lon="1.85268">
        <ele>1399.6</ele>
        <time>2024-10-11T09:54:18Z</time>
      </trkpt>
      <trkpt lat="42.76228" lon="1.85266">
        <ele>1399.8</ele>
        <time>2024-10-11T09:54:19Z</time>
      </trkpt>
      <trkpt lat="42.76226" lon="1.85264">
        <ele>1399.8</ele>
        <time>2024-10-11T09:54:20Z</time>
      </trkpt>
      <trkpt lat="42.76223" lon="1.85261">
        <ele>1399.8</ele>
        <time>2024-10-11T09:54:21Z</time>
      </trkpt>
      <trkpt lat="42.76223" lon="1.8526">
        <ele>1400.6</ele>
        <time>2024-10-11T09:54:22Z</time>
      </trkpt>
      <trkpt lat="42.76221" lon="1.85256">
        <ele>1400.6</ele>
        <time>2024-10-11T09:54:23Z</time>
      </trkpt>
      <trkpt lat="42.7622" lon="1.85255">
        <ele>1400.6</ele>
        <time>2024-10-11T09:54:24Z</time>
      </trkpt>
      <trkpt lat="42.76218" lon="1.85252">
        <ele>1400.6</ele>
        <time>2024-10-11T09:54:25Z</time>
      </trkpt>
      <trkpt lat="42.76217" lon="1.8525">
        <ele>1400.6</ele>
        <time>2024-10-11T09:54:26Z</time>
      </trkpt>
      <trkpt lat="42.76215" lon="1.85248">
        <ele>1401.4</ele>
        <time>2024-10-11T09:54:27Z</time>
      </trkpt>
      <trkpt lat="42.76214" lon="1.85246">
        <ele>1401.4</ele>
        <time>2024-10-11T09:54:28Z</time>
      </trkpt>
      <trkpt lat="42.76212" lon="1.85244">
        <ele>1401.4</ele>
        <time>2024-10-11T09:54:29Z</time>
      </trkpt>
      <trkpt lat="42.7621" lon="1.85242">
        <ele>1401.4</ele>
        <time>2024-10-11T09:54:30Z</time>
      </trkpt>
      <trkpt lat="42.76208" lon="1.85238">
        <ele>1401.4</ele>
        <time>2024-10-11T09:54:31Z</time>
      </trkpt>
      <trkpt lat="42.76207" lon="1.85237">
        <ele>1402</ele>
        <time>2024-10-11T09:54:32Z</time>
      </trkpt>
      <trkpt lat="42.76204" lon="1.85234">
        <ele>1402</ele>
        <time>2024-10-11T09:54:33Z</time>
      </trkpt>
      <trkpt lat="42.76204" lon="1.85233">
        <ele>1402</ele>
        <time>2024-10-11T09:54:34Z</time>
      </trkpt>
      <trkpt lat="42.76201" lon="1.85231">
        <ele>1402</ele>
        <time>2024-10-11T09:54:35Z</time>
      </trkpt>
      <trkpt lat="42.762" lon="1.8523">
        <ele>1402.6</ele>
        <time>2024-10-11T09:54:36Z</time>
      </trkpt>
      <trkpt lat="42.76197" lon="1.85227">
        <ele>1402.6</ele>
        <time>2024-10-11T09:54:37Z</time>
      </trkpt>
      <trkpt lat="42.76196" lon="1.85226">
        <ele>1402.6</ele>
        <time>2024-10-11T09:54:38Z</time>
      </trkpt>
      <trkpt lat="42.76194" lon="1.85224">
        <ele>1402.6</ele>
        <time>2024-10-11T09:54:39Z</time>
      </trkpt>
      <trkpt lat="42.76193" lon="1.85222">
        <ele>1403.2</ele>
        <time>2024-10-11T09:54:40Z</time>
      </trkpt>
      <trkpt lat="42.76191" lon="1.85221">
        <ele>1403.4</ele>
        <time>2024-10-11T09:54:41Z</time>
      </trkpt>
      <trkpt lat="42.76189" lon="1.85219">
        <ele>1403.4</ele>
        <time>2024-10-11T09:54:42Z</time>
      </trkpt>
      <trkpt lat="42.76186" lon="1.85217">
        <ele>1403.4</ele>
        <time>2024-10-11T09:54:43Z</time>
      </trkpt>
      <trkpt lat="42.76184" lon="1.85216">
        <ele>1403.4</ele>
        <time>2024-10-11T09:54:44Z</time>
      </trkpt>
      <trkpt lat="42.76182" lon="1.85214">
        <ele>1404</ele>
        <time>2024-10-11T09:54:45Z</time>
      </trkpt>
      <trkpt lat="42.76181" lon="1.85213">
        <ele>1404.2</ele>
        <time>2024-10-11T09:54:46Z</time>
      </trkpt>
      <trkpt lat="42.76179" lon="1.85211">
        <ele>1404.2</ele>
        <time>2024-10-11T09:54:47Z</time>
      </trkpt>
      <trkpt lat="42.76177" lon="1.8521">
        <ele>1404.2</ele>
        <time>2024-10-11T09:54:48Z</time>
      </trkpt>
      <trkpt lat="42.76174" lon="1.85209">
        <ele>1405</ele>
        <time>2024-10-11T09:54:49Z</time>
      </trkpt>
      <trkpt lat="42.76172" lon="1.85208">
        <ele>1405.2</ele>
        <time>2024-10-11T09:54:50Z</time>
      </trkpt>
      <trkpt lat="42.7617" lon="1.85207">
        <ele>1405.2</ele>
        <time>2024-10-11T09:54:51Z</time>
      </trkpt>
      <trkpt lat="42.76168" lon="1.85206">
        <ele>1405.2</ele>
        <time>2024-10-11T09:54:52Z</time>
      </trkpt>
      <trkpt lat="42.76166" lon="1.85205">
        <ele>1405.8</ele>
        <time>2024-10-11T09:54:53Z</time>
      </trkpt>
      <trkpt lat="42.76164" lon="1.85203">
        <ele>1406</ele>
        <time>2024-10-11T09:54:54Z</time>
      </trkpt>
      <trkpt lat="42.76162" lon="1.85201">
        <ele>1406</ele>
        <time>2024-10-11T09:54:55Z</time>
      </trkpt>
      <trkpt lat="42.7616" lon="1.852">
        <ele>1406</ele>
        <time>2024-10-11T09:54:56Z</time>
      </trkpt>
      <trkpt lat="42.76158" lon="1.85198">
        <ele>1406</ele>
        <time>2024-10-11T09:54:57Z</time>
      </trkpt>
      <trkpt lat="42.76156" lon="1.85196">
        <ele>1406.6</ele>
        <time>2024-10-11T09:54:58Z</time>
      </trkpt>
      <trkpt lat="42.76154" lon="1.85195">
        <ele>1406.8</ele>
        <time>2024-10-11T09:54:59Z</time>
      </trkpt>
      <trkpt lat="42.76153" lon="1.85193">
        <ele>1406.8</ele>
        <time>2024-10-11T09:55:00Z</time>
      </trkpt>
      <trkpt lat="42.76151" lon="1.85191">
        <ele>1406.8</ele>
        <time>2024-10-11T09:55:01Z</time>
      </trkpt>
      <trkpt lat="42.76149" lon="1.8519">
        <ele>1407.4</ele>
        <time>2024-10-11T09:55:02Z</time>
      </trkpt>
      <trkpt lat="42.76146" lon="1.85187">
        <ele>1407.4</ele>
        <time>2024-10-11T09:55:03Z</time>
      </trkpt>
      <trkpt lat="42.76145" lon="1.85186">
        <ele>1407.8</ele>
        <time>2024-10-11T09:55:04Z</time>
      </trkpt>
      <trkpt lat="42.76143" lon="1.85183">
        <ele>1407.8</ele>
        <time>2024-10-11T09:55:05Z</time>
      </trkpt>
      <trkpt lat="42.76142" lon="1.85182">
        <ele>1407.8</ele>
        <time>2024-10-11T09:55:06Z</time>
      </trkpt>
      <trkpt lat="42.76139" lon="1.85179">
        <ele>1407.8</ele>
        <time>2024-10-11T09:55:07Z</time>
      </trkpt>
      <trkpt lat="42.76138" lon="1.85178">
        <ele>1408.4</ele>
        <time>2024-10-11T09:55:08Z</time>
      </trkpt>
      <trkpt lat="42.76136" lon="1.85175">
        <ele>1408.6</ele>
        <time>2024-10-11T09:55:09Z</time>
      </trkpt>
      <trkpt lat="42.76135" lon="1.85174">
        <ele>1408.6</ele>
        <time>2024-10-11T09:55:10Z</time>
      </trkpt>
      <trkpt lat="42.76132" lon="1.85172">
        <ele>1408.6</ele>
        <time>2024-10-11T09:55:11Z</time>
      </trkpt>
      <trkpt lat="42.76131" lon="1.85171">
        <ele>1409.4</ele>
        <time>2024-10-11T09:55:12Z</time>
      </trkpt>
      <trkpt lat="42.76129" lon="1.85168">
        <ele>1409.6</ele>
        <time>2024-10-11T09:55:13Z</time>
      </trkpt>
      <trkpt lat="42.76128" lon="1.85167">
        <ele>1409.6</ele>
        <time>2024-10-11T09:55:14Z</time>
      </trkpt>
      <trkpt lat="42.76124" lon="1.85164">
        <ele>1409.6</ele>
        <time>2024-10-11T09:55:15Z</time>
      </trkpt>
      <trkpt lat="42.76123" lon="1.85164">
        <ele>1409.6</ele>
        <time>2024-10-11T09:55:16Z</time>
      </trkpt>
      <trkpt lat="42.7612" lon="1.85162">
        <ele>1410</ele>
        <time>2024-10-11T09:55:17Z</time>
      </trkpt>
      <trkpt lat="42.76119" lon="1.85161">
        <ele>1410.4</ele>
        <time>2024-10-11T09:55:18Z</time>
      </trkpt>
      <trkpt lat="42.76117" lon="1.8516">
        <ele>1410.4</ele>
        <time>2024-10-11T09:55:19Z</time>
      </trkpt>
      <trkpt lat="42.76115" lon="1.85158">
        <ele>1410.4</ele>
        <time>2024-10-11T09:55:20Z</time>
      </trkpt>
      <trkpt lat="42.76113" lon="1.85156">
        <ele>1410.8</ele>
        <time>2024-10-11T09:55:21Z</time>
      </trkpt>
      <trkpt lat="42.7611" lon="1.85154">
        <ele>1411</ele>
        <time>2024-10-11T09:55:22Z</time>
      </trkpt>
      <trkpt lat="42.76108" lon="1.85153">
        <ele>1411</ele>
        <time>2024-10-11T09:55:23Z</time>
      </trkpt>
      <trkpt lat="42.76105" lon="1.85151">
        <ele>1411</ele>
        <time>2024-10-11T09:55:24Z</time>
      </trkpt>
      <trkpt lat="42.76103" lon="1.85149">
        <ele>1411.4</ele>
        <time>2024-10-11T09:55:25Z</time>
      </trkpt>
      <trkpt lat="42.76101" lon="1.85148">
        <ele>1411.4</ele>
        <time>2024-10-11T09:55:26Z</time>
      </trkpt>
      <trkpt lat="42.76099" lon="1.85146">
        <ele>1411.6</ele>
        <time>2024-10-11T09:55:27Z</time>
      </trkpt>
      <trkpt lat="42.76097" lon="1.85144">
        <ele>1411.6</ele>
        <time>2024-10-11T09:55:28Z</time>
      </trkpt>
      <trkpt lat="42.76095" lon="1.85142">
        <ele>1411.6</ele>
        <time>2024-10-11T09:55:29Z</time>
      </trkpt>
      <trkpt lat="42.76093" lon="1.8514">
        <ele>1411.6</ele>
        <time>2024-10-11T09:55:30Z</time>
      </trkpt>
      <trkpt lat="42.76091" lon="1.85138">
        <ele>1412</ele>
        <time>2024-10-11T09:55:31Z</time>
      </trkpt>
      <trkpt lat="42.76089" lon="1.85136">
        <ele>1412</ele>
        <time>2024-10-11T09:55:32Z</time>
      </trkpt>
      <trkpt lat="42.76087" lon="1.85134">
        <ele>1412</ele>
        <time>2024-10-11T09:55:33Z</time>
      </trkpt>
      <trkpt lat="42.76085" lon="1.85132">
        <ele>1412.2</ele>
        <time>2024-10-11T09:55:34Z</time>
      </trkpt>
      <trkpt lat="42.76083" lon="1.8513">
        <ele>1412.2</ele>
        <time>2024-10-11T09:55:35Z</time>
      </trkpt>
      <trkpt lat="42.76081" lon="1.85128">
        <ele>1412.2</ele>
        <time>2024-10-11T09:55:36Z</time>
      </trkpt>
      <trkpt lat="42.76079" lon="1.85126">
        <ele>1412.2</ele>
        <time>2024-10-11T09:55:37Z</time>
      </trkpt>
      <trkpt lat="42.76077" lon="1.85125">
        <ele>1412.2</ele>
        <time>2024-10-11T09:55:38Z</time>
      </trkpt>
      <trkpt lat="42.76075" lon="1.85123">
        <ele>1413</ele>
        <time>2024-10-11T09:55:39Z</time>
      </trkpt>
      <trkpt lat="42.76072" lon="1.85122">
        <ele>1413.2</ele>
        <time>2024-10-11T09:55:40Z</time>
      </trkpt>
      <trkpt lat="42.7607" lon="1.85121">
        <ele>1413.2</ele>
        <time>2024-10-11T09:55:41Z</time>
      </trkpt>
      <trkpt lat="42.76068" lon="1.8512">
        <ele>1413.2</ele>
        <time>2024-10-11T09:55:42Z</time>
      </trkpt>
      <trkpt lat="42.76066" lon="1.85119">
        <ele>1414</ele>
        <time>2024-10-11T09:55:43Z</time>
      </trkpt>
      <trkpt lat="42.76063" lon="1.85118">
        <ele>1414</ele>
        <time>2024-10-11T09:55:44Z</time>
      </trkpt>
      <trkpt lat="42.7606" lon="1.85116">
        <ele>1414</ele>
        <time>2024-10-11T09:55:45Z</time>
      </trkpt>
      <trkpt lat="42.76058" lon="1.85116">
        <ele>1414</ele>
        <time>2024-10-11T09:55:46Z</time>
      </trkpt>
      <trkpt lat="42.76055" lon="1.85114">
        <ele>1414</ele>
        <time>2024-10-11T09:55:47Z</time>
      </trkpt>
      <trkpt lat="42.76054" lon="1.85113">
        <ele>1414.4</ele>
        <time>2024-10-11T09:55:48Z</time>
      </trkpt>
      <trkpt lat="42.76049" lon="1.85111">
        <ele>1414.4</ele>
        <time>2024-10-11T09:55:49Z</time>
      </trkpt>
      <trkpt lat="42.76048" lon="1.85111">
        <ele>1414.4</ele>
        <time>2024-10-11T09:55:50Z</time>
      </trkpt>
      <trkpt lat="42.76045" lon="1.85109">
        <ele>1414.4</ele>
        <time>2024-10-11T09:55:51Z</time>
      </trkpt>
      <trkpt lat="42.76042" lon="1.85108">
        <ele>1414.4</ele>
        <time>2024-10-11T09:55:52Z</time>
      </trkpt>
      <trkpt lat="42.7604" lon="1.85107">
        <ele>1414.8</ele>
        <time>2024-10-11T09:55:53Z</time>
      </trkpt>
      <trkpt lat="42.76037" lon="1.85105">
        <ele>1415</ele>
        <time>2024-10-11T09:55:54Z</time>
      </trkpt>
      <trkpt lat="42.76032" lon="1.85103">
        <ele>1415</ele>
        <time>2024-10-11T09:55:55Z</time>
      </trkpt>
      <trkpt lat="42.76031" lon="1.85102">
        <ele>1415</ele>
        <time>2024-10-11T09:55:56Z</time>
      </trkpt>
      <trkpt lat="42.76027" lon="1.85099">
        <ele>1415.4</ele>
        <time>2024-10-11T09:55:57Z</time>
      </trkpt>
      <trkpt lat="42.76026" lon="1.85098">
        <ele>1415.4</ele>
        <time>2024-10-11T09:55:58Z</time>
      </trkpt>
      <trkpt lat="42.76022" lon="1.85094">
        <ele>1415.4</ele>
        <time>2024-10-11T09:55:59Z</time>
      </trkpt>
      <trkpt lat="42.76021" lon="1.85093">
        <ele>1415.4</ele>
        <time>2024-10-11T09:56:00Z</time>
      </trkpt>
      <trkpt lat="42.76017" lon="1.85089">
        <ele>1415.4</ele>
        <time>2024-10-11T09:56:01Z</time>
      </trkpt>
      <trkpt lat="42.76016" lon="1.85088">
        <ele>1416</ele>
        <time>2024-10-11T09:56:02Z</time>
      </trkpt>
      <trkpt lat="42.76013" lon="1.85085">
        <ele>1416.2</ele>
        <time>2024-10-11T09:56:03Z</time>
      </trkpt>
      <trkpt lat="42.7601" lon="1.85082">
        <ele>1416.2</ele>
        <time>2024-10-11T09:56:04Z</time>
      </trkpt>
      <trkpt lat="42.76007" lon="1.85079">
        <ele>1416.2</ele>
        <time>2024-10-11T09:56:05Z</time>
      </trkpt>
      <trkpt lat="42.76005" lon="1.85075">
        <ele>1417</ele>
        <time>2024-10-11T09:56:06Z</time>
      </trkpt>
      <trkpt lat="42.76003" lon="1.85071">
        <ele>1417</ele>
        <time>2024-10-11T09:56:07Z</time>
      </trkpt>
      <trkpt lat="42.76" lon="1.85067">
        <ele>1417</ele>
        <time>2024-10-11T09:56:08Z</time>
      </trkpt>
      <trkpt lat="42.75997" lon="1.85065">
        <ele>1417</ele>
        <time>2024-10-11T09:56:09Z</time>
      </trkpt>
      <trkpt lat="42.75994" lon="1.85062">
        <ele>1417</ele>
        <time>2024-10-11T09:56:10Z</time>
      </trkpt>
      <trkpt lat="42.75992" lon="1.85059">
        <ele>1417.6</ele>
        <time>2024-10-11T09:56:11Z</time>
      </trkpt>
      <trkpt lat="42.75989" lon="1.85055">
        <ele>1417.8</ele>
        <time>2024-10-11T09:56:12Z</time>
      </trkpt>
      <trkpt lat="42.75986" lon="1.85052">
        <ele>1417.8</ele>
        <time>2024-10-11T09:56:13Z</time>
      </trkpt>
      <trkpt lat="42.75982" lon="1.8505">
        <ele>1417.8</ele>
        <time>2024-10-11T09:56:14Z</time>
      </trkpt>
      <trkpt lat="42.7598" lon="1.85046">
        <ele>1418.2</ele>
        <time>2024-10-11T09:56:15Z</time>
      </trkpt>
      <trkpt lat="42.75977" lon="1.85043">
        <ele>1418.6</ele>
        <time>2024-10-11T09:56:16Z</time>
      </trkpt>
      <trkpt lat="42.75974" lon="1.85041">
        <ele>1418.6</ele>
        <time>2024-10-11T09:56:17Z</time>
      </trkpt>
      <trkpt lat="42.7597" lon="1.85038">
        <ele>1418.6</ele>
        <time>2024-10-11T09:56:18Z</time>
      </trkpt>
      <trkpt lat="42.75967" lon="1.85035">
        <ele>1418.6</ele>
        <time>2024-10-11T09:56:19Z</time>
      </trkpt>
      <trkpt lat="42.75963" lon="1.85033">
        <ele>1419</ele>
        <time>2024-10-11T09:56:20Z</time>
      </trkpt>
      <trkpt lat="42.75959" lon="1.85031">
        <ele>1419</ele>
        <time>2024-10-11T09:56:21Z</time>
      </trkpt>
      <trkpt lat="42.75956" lon="1.8503">
        <ele>1419</ele>
        <time>2024-10-11T09:56:22Z</time>
      </trkpt>
      <trkpt lat="42.75952" lon="1.85029">
        <ele>1419</ele>
        <time>2024-10-11T09:56:23Z</time>
      </trkpt>
      <trkpt lat="42.75948" lon="1.85028">
        <ele>1419.2</ele>
        <time>2024-10-11T09:56:24Z</time>
      </trkpt>
      <trkpt lat="42.75944" lon="1.85027">
        <ele>1419.2</ele>
        <time>2024-10-11T09:56:25Z</time>
      </trkpt>
      <trkpt lat="42.7594" lon="1.85027">
        <ele>1419.2</ele>
        <time>2024-10-11T09:56:26Z</time>
      </trkpt>
      <trkpt lat="42.75936" lon="1.85027">
        <ele>1419.2</ele>
        <time>2024-10-11T09:56:27Z</time>
      </trkpt>
      <trkpt lat="42.7593" lon="1.85026">
        <ele>1419.6</ele>
        <time>2024-10-11T09:56:28Z</time>
      </trkpt>
      <trkpt lat="42.75928" lon="1.85026">
        <ele>1419.6</ele>
        <time>2024-10-11T09:56:29Z</time>
      </trkpt>
      <trkpt lat="42.75924" lon="1.85025">
        <ele>1419.6</ele>
        <time>2024-10-11T09:56:30Z</time>
      </trkpt>
      <trkpt lat="42.7592" lon="1.85025">
        <ele>1419.6</ele>
        <time>2024-10-11T09:56:31Z</time>
      </trkpt>
      <trkpt lat="42.75913" lon="1.85024">
        <ele>1419.6</ele>
        <time>2024-10-11T09:56:32Z</time>
      </trkpt>
      <trkpt lat="42.75911" lon="1.85023">
        <ele>1419.6</ele>
        <time>2024-10-11T09:56:33Z</time>
      </trkpt>
      <trkpt lat="42.75905" lon="1.85023">
        <ele>1420.2</ele>
        <time>2024-10-11T09:56:34Z</time>
      </trkpt>
      <trkpt lat="42.75903" lon="1.85023">
        <ele>1420.2</ele>
        <time>2024-10-11T09:56:35Z</time>
      </trkpt>
      <trkpt lat="42.75897" lon="1.85022">
        <ele>1420.2</ele>
        <time>2024-10-11T09:56:36Z</time>
      </trkpt>
      <trkpt lat="42.75895" lon="1.85022">
        <ele>1420.2</ele>
        <time>2024-10-11T09:56:37Z</time>
      </trkpt>
      <trkpt lat="42.75889" lon="1.85022">
        <ele>1420.6</ele>
        <time>2024-10-11T09:56:38Z</time>
      </trkpt>
      <trkpt lat="42.75887" lon="1.85021">
        <ele>1420.6</ele>
        <time>2024-10-11T09:56:39Z</time>
      </trkpt>
      <trkpt lat="42.75883" lon="1.85021">
        <ele>1420.6</ele>
        <time>2024-10-11T09:56:40Z</time>
      </trkpt>
      <trkpt lat="42.75878" lon="1.85021">
        <ele>1420.6</ele>
        <time>2024-10-11T09:56:41Z</time>
      </trkpt>
      <trkpt lat="42.75874" lon="1.8502">
        <ele>1421</ele>
        <time>2024-10-11T09:56:42Z</time>
      </trkpt>
      <trkpt lat="42.75869" lon="1.8502">
        <ele>1421.2</ele>
        <time>2024-10-11T09:56:43Z</time>
      </trkpt>
      <trkpt lat="42.75865" lon="1.85019">
        <ele>1421.2</ele>
        <time>2024-10-11T09:56:44Z</time>
      </trkpt>
      <trkpt lat="42.75861" lon="1.85019">
        <ele>1421.2</ele>
        <time>2024-10-11T09:56:45Z</time>
      </trkpt>
      <trkpt lat="42.75856" lon="1.85018">
        <ele>1421.2</ele>
        <time>2024-10-11T09:56:46Z</time>
      </trkpt>
      <trkpt lat="42.75852" lon="1.85017">
        <ele>1421.6</ele>
        <time>2024-10-11T09:56:47Z</time>
      </trkpt>
      <trkpt lat="42.75848" lon="1.85017">
        <ele>1421.8</ele>
        <time>2024-10-11T09:56:48Z</time>
      </trkpt>
      <trkpt lat="42.75844" lon="1.85016">
        <ele>1421.8</ele>
        <time>2024-10-11T09:56:49Z</time>
      </trkpt>
      <trkpt lat="42.7584" lon="1.85015">
        <ele>1421.8</ele>
        <time>2024-10-11T09:56:50Z</time>
      </trkpt>
      <trkpt lat="42.75836" lon="1.85015">
        <ele>1421.8</ele>
        <time>2024-10-11T09:56:51Z</time>
      </trkpt>
      <trkpt lat="42.75832" lon="1.85014">
        <ele>1422.4</ele>
        <time>2024-10-11T09:56:52Z</time>
      </trkpt>
      <trkpt lat="42.75828" lon="1.85013">
        <ele>1422.4</ele>
        <time>2024-10-11T09:56:53Z</time>
      </trkpt>
      <trkpt lat="42.75823" lon="1.85012">
        <ele>1422.4</ele>
        <time>2024-10-11T09:56:54Z</time>
      </trkpt>
      <trkpt lat="42.7582" lon="1.85011">
        <ele>1422.4</ele>
        <time>2024-10-11T09:56:55Z</time>
      </trkpt>
      <trkpt lat="42.75816" lon="1.85009">
        <ele>1422.8</ele>
        <time>2024-10-11T09:56:56Z</time>
      </trkpt>
      <trkpt lat="42.75812" lon="1.85007">
        <ele>1422.8</ele>
        <time>2024-10-11T09:56:57Z</time>
      </trkpt>
      <trkpt lat="42.75808" lon="1.85005">
        <ele>1422.8</ele>
        <time>2024-10-11T09:56:58Z</time>
      </trkpt>
      <trkpt lat="42.75804" lon="1.85003">
        <ele>1422.8</ele>
        <time>2024-10-11T09:56:59Z</time>
      </trkpt>
      <trkpt lat="42.758" lon="1.85">
        <ele>1423.6</ele>
        <time>2024-10-11T09:57:00Z</time>
      </trkpt>
      <trkpt lat="42.75796" lon="1.84997">
        <ele>1423.6</ele>
        <time>2024-10-11T09:57:01Z</time>
      </trkpt>
      <trkpt lat="42.75793" lon="1.84995">
        <ele>1423.6</ele>
        <time>2024-10-11T09:57:02Z</time>
      </trkpt>
      <trkpt lat="42.75789" lon="1.84992">
        <ele>1423.6</ele>
        <time>2024-10-11T09:57:03Z</time>
      </trkpt>
      <trkpt lat="42.75785" lon="1.84989">
        <ele>1423.6</ele>
        <time>2024-10-11T09:57:04Z</time>
      </trkpt>
      <trkpt lat="42.75782" lon="1.84986">
        <ele>1424</ele>
        <time>2024-10-11T09:57:05Z</time>
      </trkpt>
      <trkpt lat="42.75779" lon="1.84983">
        <ele>1424</ele>
        <time>2024-10-11T09:57:06Z</time>
      </trkpt>
      <trkpt lat="42.75775" lon="1.84979">
        <ele>1424</ele>
        <time>2024-10-11T09:57:07Z</time>
      </trkpt>
      <trkpt lat="42.75772" lon="1.84976">
        <ele>1424</ele>
        <time>2024-10-11T09:57:08Z</time>
      </trkpt>
      <trkpt lat="42.75769" lon="1.84973">
        <ele>1424.6</ele>
        <time>2024-10-11T09:57:09Z</time>
      </trkpt>
      <trkpt lat="42.75764" lon="1.84967">
        <ele>1424.4</ele>
        <time>2024-10-11T09:57:10Z</time>
      </trkpt>
      <trkpt lat="42.75762" lon="1.84966">
        <ele>1424.4</ele>
        <time>2024-10-11T09:57:11Z</time>
      </trkpt>
      <trkpt lat="42.7576" lon="1.84962">
        <ele>1424.4</ele>
        <time>2024-10-11T09:57:12Z</time>
      </trkpt>
      <trkpt lat="42.75756" lon="1.84959">
        <ele>1425</ele>
        <time>2024-10-11T09:57:13Z</time>
      </trkpt>
      <trkpt lat="42.75752" lon="1.84953">
        <ele>1425</ele>
        <time>2024-10-11T09:57:14Z</time>
      </trkpt>
      <trkpt lat="42.7575" lon="1.84951">
        <ele>1425</ele>
        <time>2024-10-11T09:57:15Z</time>
      </trkpt>
      <trkpt lat="42.75746" lon="1.84945">
        <ele>1425.2</ele>
        <time>2024-10-11T09:57:16Z</time>
      </trkpt>
      <trkpt lat="42.75745" lon="1.84944">
        <ele>1425.2</ele>
        <time>2024-10-11T09:57:17Z</time>
      </trkpt>
      <trkpt lat="42.7574" lon="1.84938">
        <ele>1425.2</ele>
        <time>2024-10-11T09:57:18Z</time>
      </trkpt>
      <trkpt lat="42.75739" lon="1.84937">
        <ele>1425.2</ele>
        <time>2024-10-11T09:57:19Z</time>
      </trkpt>
      <trkpt lat="42.75737" lon="1.84932">
        <ele>1425.4</ele>
        <time>2024-10-11T09:57:20Z</time>
      </trkpt>
      <trkpt lat="42.75734" lon="1.84927">
        <ele>1425.4</ele>
        <time>2024-10-11T09:57:21Z</time>
      </trkpt>
      <trkpt lat="42.75731" lon="1.8492">
        <ele>1425.4</ele>
        <time>2024-10-11T09:57:22Z</time>
      </trkpt>
      <trkpt lat="42.7573" lon="1.84917">
        <ele>1426</ele>
        <time>2024-10-11T09:57:23Z</time>
      </trkpt>
      <trkpt lat="42.75726" lon="1.8491">
        <ele>1426</ele>
        <time>2024-10-11T09:57:24Z</time>
      </trkpt>
      <trkpt lat="42.75724" lon="1.84908">
        <ele>1426</ele>
        <time>2024-10-11T09:57:25Z</time>
      </trkpt>
      <trkpt lat="42.75723" lon="1.84903">
        <ele>1426</ele>
        <time>2024-10-11T09:57:26Z</time>
      </trkpt>
      <trkpt lat="42.75721" lon="1.84898">
        <ele>1426.4</ele>
        <time>2024-10-11T09:57:27Z</time>
      </trkpt>
      <trkpt lat="42.75719" lon="1.84893">
        <ele>1426.4</ele>
        <time>2024-10-11T09:57:28Z</time>
      </trkpt>
      <trkpt lat="42.75717" lon="1.84888">
        <ele>1426.6</ele>
        <time>2024-10-11T09:57:29Z</time>
      </trkpt>
      <trkpt lat="42.75715" lon="1.84882">
        <ele>1426.6</ele>
        <time>2024-10-11T09:57:30Z</time>
      </trkpt>
      <trkpt lat="42.75714" lon="1.84877">
        <ele>1426.6</ele>
        <time>2024-10-11T09:57:31Z</time>
      </trkpt>
      <trkpt lat="42.75711" lon="1.84872">
        <ele>1427</ele>
        <time>2024-10-11T09:57:32Z</time>
      </trkpt>
      <trkpt lat="42.75709" lon="1.84867">
        <ele>1427.2</ele>
        <time>2024-10-11T09:57:33Z</time>
      </trkpt>
      <trkpt lat="42.75708" lon="1.84861">
        <ele>1427.2</ele>
        <time>2024-10-11T09:57:34Z</time>
      </trkpt>
      <trkpt lat="42.75706" lon="1.84856">
        <ele>1427.2</ele>
        <time>2024-10-11T09:57:35Z</time>
      </trkpt>
      <trkpt lat="42.75704" lon="1.84851">
        <ele>1427.2</ele>
        <time>2024-10-11T09:57:36Z</time>
      </trkpt>
      <trkpt lat="42.75702" lon="1.84846">
        <ele>1427.6</ele>
        <time>2024-10-11T09:57:37Z</time>
      </trkpt>
      <trkpt lat="42.757" lon="1.84841">
        <ele>1427.6</ele>
        <time>2024-10-11T09:57:38Z</time>
      </trkpt>
      <trkpt lat="42.75698" lon="1.84836">
        <ele>1427.6</ele>
        <time>2024-10-11T09:57:39Z</time>
      </trkpt>
      <trkpt lat="42.75696" lon="1.84831">
        <ele>1427.6</ele>
        <time>2024-10-11T09:57:40Z</time>
      </trkpt>
      <trkpt lat="42.75694" lon="1.84826">
        <ele>1427.6</ele>
        <time>2024-10-11T09:57:41Z</time>
      </trkpt>
      <trkpt lat="42.75692" lon="1.84821">
        <ele>1428</ele>
        <time>2024-10-11T09:57:42Z</time>
      </trkpt>
      <trkpt lat="42.7569" lon="1.84816">
        <ele>1428</ele>
        <time>2024-10-11T09:57:43Z</time>
      </trkpt>
      <trkpt lat="42.75688" lon="1.84811">
        <ele>1428</ele>
        <time>2024-10-11T09:57:44Z</time>
      </trkpt>
      <trkpt lat="42.75687" lon="1.84805">
        <ele>1428</ele>
        <time>2024-10-11T09:57:45Z</time>
      </trkpt>
      <trkpt lat="42.75685" lon="1.848">
        <ele>1428.6</ele>
        <time>2024-10-11T09:57:46Z</time>
      </trkpt>
      <trkpt lat="42.75683" lon="1.84795">
        <ele>1428.6</ele>
        <time>2024-10-11T09:57:47Z</time>
      </trkpt>
      <trkpt lat="42.75682" lon="1.84789">
        <ele>1428.6</ele>
        <time>2024-10-11T09:57:48Z</time>
      </trkpt>
      <trkpt lat="42.7568" lon="1.84784">
        <ele>1428.8</ele>
        <time>2024-10-11T09:57:49Z</time>
      </trkpt>
      <trkpt lat="42.75678" lon="1.84778">
        <ele>1429.2</ele>
        <time>2024-10-11T09:57:50Z</time>
      </trkpt>
      <trkpt lat="42.75676" lon="1.84769">
        <ele>1429.2</ele>
        <time>2024-10-11T09:57:51Z</time>
      </trkpt>
      <trkpt lat="42.75675" lon="1.84766">
        <ele>1429.2</ele>
        <time>2024-10-11T09:57:52Z</time>
      </trkpt>
      <trkpt lat="42.75673" lon="1.84757">
        <ele>1429.2</ele>
        <time>2024-10-11T09:57:53Z</time>
      </trkpt>
      <trkpt lat="42.75672" lon="1.84754">
        <ele>1429.2</ele>
        <time>2024-10-11T09:57:54Z</time>
      </trkpt>
      <trkpt lat="42.7567" lon="1.84744">
        <ele>1429.6</ele>
        <time>2024-10-11T09:57:55Z</time>
      </trkpt>
      <trkpt lat="42.75669" lon="1.84742">
        <ele>1429.6</ele>
        <time>2024-10-11T09:57:56Z</time>
      </trkpt>
      <trkpt lat="42.75668" lon="1.84735">
        <ele>1429.6</ele>
        <time>2024-10-11T09:57:57Z</time>
      </trkpt>
      <trkpt lat="42.75668" lon="1.84729">
        <ele>1429.6</ele>
        <time>2024-10-11T09:57:58Z</time>
      </trkpt>
      <trkpt lat="42.75667" lon="1.8472">
        <ele>1430.2</ele>
        <time>2024-10-11T09:57:59Z</time>
      </trkpt>
      <trkpt lat="42.75667" lon="1.84717">
        <ele>1430.4</ele>
        <time>2024-10-11T09:58:00Z</time>
      </trkpt>
      <trkpt lat="42.75666" lon="1.84708">
        <ele>1430.4</ele>
        <time>2024-10-11T09:58:01Z</time>
      </trkpt>
      <trkpt lat="42.75666" lon="1.84705">
        <ele>1430.4</ele>
        <time>2024-10-11T09:58:02Z</time>
      </trkpt>
      <trkpt lat="42.75665" lon="1.84699">
        <ele>1431</ele>
        <time>2024-10-11T09:58:03Z</time>
      </trkpt>
      <trkpt lat="42.75665" lon="1.84694">
        <ele>1431.2</ele>
        <time>2024-10-11T09:58:04Z</time>
      </trkpt>
      <trkpt lat="42.75664" lon="1.84685">
        <ele>1431.2</ele>
        <time>2024-10-11T09:58:05Z</time>
      </trkpt>
      <trkpt lat="42.75664" lon="1.84682">
        <ele>1431.2</ele>
        <time>2024-10-11T09:58:06Z</time>
      </trkpt>
      <trkpt lat="42.75662" lon="1.84673">
        <ele>1431.2</ele>
        <time>2024-10-11T09:58:07Z</time>
      </trkpt>
      <trkpt lat="42.75662" lon="1.8467">
        <ele>1431.6</ele>
        <time>2024-10-11T09:58:08Z</time>
      </trkpt>
      <trkpt lat="42.75661" lon="1.84661">
        <ele>1431.6</ele>
        <time>2024-10-11T09:58:09Z</time>
      </trkpt>
      <trkpt lat="42.7566" lon="1.84658">
        <ele>1431.6</ele>
        <time>2024-10-11T09:58:10Z</time>
      </trkpt>
      <trkpt lat="42.75659" lon="1.84653">
        <ele>1431.6</ele>
        <time>2024-10-11T09:58:11Z</time>
      </trkpt>
      <trkpt lat="42.75659" lon="1.84646">
        <ele>1432.2</ele>
        <time>2024-10-11T09:58:12Z</time>
      </trkpt>
      <trkpt lat="42.75657" lon="1.84641">
        <ele>1432.2</ele>
        <time>2024-10-11T09:58:13Z</time>
      </trkpt>
      <trkpt lat="42.75656" lon="1.84635">
        <ele>1432.2</ele>
        <time>2024-10-11T09:58:14Z</time>
      </trkpt>
      <trkpt lat="42.75656" lon="1.84629">
        <ele>1432.2</ele>
        <time>2024-10-11T09:58:15Z</time>
      </trkpt>
      <trkpt lat="42.75655" lon="1.84623">
        <ele>1432.2</ele>
        <time>2024-10-11T09:58:16Z</time>
      </trkpt>
      <trkpt lat="42.75654" lon="1.84617">
        <ele>1432.8</ele>
        <time>2024-10-11T09:58:17Z</time>
      </trkpt>
      <trkpt lat="42.75653" lon="1.84611">
        <ele>1433</ele>
        <time>2024-10-11T09:58:18Z</time>
      </trkpt>
      <trkpt lat="42.75652" lon="1.84605">
        <ele>1433</ele>
        <time>2024-10-11T09:58:19Z</time>
      </trkpt>
      <trkpt lat="42.75651" lon="1.846">
        <ele>1433</ele>
        <time>2024-10-11T09:58:20Z</time>
      </trkpt>
      <trkpt lat="42.75651" lon="1.84594">
        <ele>1433.6</ele>
        <time>2024-10-11T09:58:21Z</time>
      </trkpt>
      <trkpt lat="42.7565" lon="1.84588">
        <ele>1433.8</ele>
        <time>2024-10-11T09:58:22Z</time>
      </trkpt>
      <trkpt lat="42.75649" lon="1.84582">
        <ele>1433.8</ele>
        <time>2024-10-11T09:58:23Z</time>
      </trkpt>
      <trkpt lat="42.75648" lon="1.84576">
        <ele>1433.8</ele>
        <time>2024-10-11T09:58:24Z</time>
      </trkpt>
      <trkpt lat="42.75647" lon="1.8457">
        <ele>1434.2</ele>
        <time>2024-10-11T09:58:25Z</time>
      </trkpt>
      <trkpt lat="42.75646" lon="1.84564">
        <ele>1434.4</ele>
        <time>2024-10-11T09:58:26Z</time>
      </trkpt>
      <trkpt lat="42.75645" lon="1.84558">
        <ele>1434.4</ele>
        <time>2024-10-11T09:58:27Z</time>
      </trkpt>
      <trkpt lat="42.75644" lon="1.84552">
        <ele>1434.4</ele>
        <time>2024-10-11T09:58:28Z</time>
      </trkpt>
      <trkpt lat="42.75643" lon="1.84546">
        <ele>1434.8</ele>
        <time>2024-10-11T09:58:29Z</time>
      </trkpt>
      <trkpt lat="42.75642" lon="1.8454">
        <ele>1434.8</ele>
        <time>2024-10-11T09:58:30Z</time>
      </trkpt>
      <trkpt lat="42.75642" lon="1.84534">
        <ele>1435</ele>
        <time>2024-10-11T09:58:31Z</time>
      </trkpt>
      <trkpt lat="42.75642" lon="1.84528">
        <ele>1435</ele>
        <time>2024-10-11T09:58:32Z</time>
      </trkpt>
      <trkpt lat="42.75642" lon="1.84522">
        <ele>1435</ele>
        <time>2024-10-11T09:58:33Z</time>
      </trkpt>
      <trkpt lat="42.75643" lon="1.84517">
        <ele>1435.4</ele>
        <time>2024-10-11T09:58:34Z</time>
      </trkpt>
      <trkpt lat="42.75643" lon="1.84511">
        <ele>1435.6</ele>
        <time>2024-10-11T09:58:35Z</time>
      </trkpt>
      <trkpt lat="42.75642" lon="1.84504">
        <ele>1435.6</ele>
        <time>2024-10-11T09:58:36Z</time>
      </trkpt>
      <trkpt lat="42.75642" lon="1.84501">
        <ele>1435.6</ele>
        <time>2024-10-11T09:58:37Z</time>
      </trkpt>
      <trkpt lat="42.75641" lon="1.84494">
        <ele>1435.6</ele>
        <time>2024-10-11T09:58:38Z</time>
      </trkpt>
      <trkpt lat="42.7564" lon="1.84491">
        <ele>1436.4</ele>
        <time>2024-10-11T09:58:39Z</time>
      </trkpt>
      <trkpt lat="42.75639" lon="1.84484">
        <ele>1436.4</ele>
        <time>2024-10-11T09:58:40Z</time>
      </trkpt>
      <trkpt lat="42.75639" lon="1.84481">
        <ele>1436.4</ele>
        <time>2024-10-11T09:58:41Z</time>
      </trkpt>
      <trkpt lat="42.75638" lon="1.84474">
        <ele>1436.4</ele>
        <time>2024-10-11T09:58:42Z</time>
      </trkpt>
      <trkpt lat="42.75637" lon="1.84471">
        <ele>1436.4</ele>
        <time>2024-10-11T09:58:43Z</time>
      </trkpt>
      <trkpt lat="42.75636" lon="1.84467">
        <ele>1436.8</ele>
        <time>2024-10-11T09:58:44Z</time>
      </trkpt>
      <trkpt lat="42.75635" lon="1.84462">
        <ele>1436.8</ele>
        <time>2024-10-11T09:58:45Z</time>
      </trkpt>
      <trkpt lat="42.75635" lon="1.84457">
        <ele>1436.8</ele>
        <time>2024-10-11T09:58:46Z</time>
      </trkpt>
      <trkpt lat="42.75634" lon="1.84451">
        <ele>1436.8</ele>
        <time>2024-10-11T09:58:47Z</time>
      </trkpt>
      <trkpt lat="42.75633" lon="1.84446">
        <ele>1437.2</ele>
        <time>2024-10-11T09:58:48Z</time>
      </trkpt>
      <trkpt lat="42.75632" lon="1.84441">
        <ele>1437.2</ele>
        <time>2024-10-11T09:58:49Z</time>
      </trkpt>
      <trkpt lat="42.75631" lon="1.84434">
        <ele>1437.2</ele>
        <time>2024-10-11T09:58:50Z</time>
      </trkpt>
      <trkpt lat="42.7563" lon="1.84431">
        <ele>1437.2</ele>
        <time>2024-10-11T09:58:51Z</time>
      </trkpt>
      <trkpt lat="42.75629" lon="1.84423">
        <ele>1437.6</ele>
        <time>2024-10-11T09:58:52Z</time>
      </trkpt>
      <trkpt lat="42.75629" lon="1.84421">
        <ele>1437.6</ele>
        <time>2024-10-11T09:58:53Z</time>
      </trkpt>
      <trkpt lat="42.75628" lon="1.84416">
        <ele>1437.6</ele>
        <time>2024-10-11T09:58:54Z</time>
      </trkpt>
      <trkpt lat="42.75627" lon="1.84411">
        <ele>1437.6</ele>
        <time>2024-10-11T09:58:55Z</time>
      </trkpt>
      <trkpt lat="42.75626" lon="1.84405">
        <ele>1437.6</ele>
        <time>2024-10-11T09:58:56Z</time>
      </trkpt>
      <trkpt lat="42.75625" lon="1.84399">
        <ele>1437.8</ele>
        <time>2024-10-11T09:58:57Z</time>
      </trkpt>
      <trkpt lat="42.75625" lon="1.84393">
        <ele>1437.8</ele>
        <time>2024-10-11T09:58:58Z</time>
      </trkpt>
      <trkpt lat="42.75625" lon="1.84388">
        <ele>1437.8</ele>
        <time>2024-10-11T09:58:59Z</time>
      </trkpt>
      <trkpt lat="42.75625" lon="1.84382">
        <ele>1437.8</ele>
        <time>2024-10-11T09:59:00Z</time>
      </trkpt>
      <trkpt lat="42.75625" lon="1.84377">
        <ele>1438.2</ele>
        <time>2024-10-11T09:59:01Z</time>
      </trkpt>
      <trkpt lat="42.75625" lon="1.84371">
        <ele>1438.4</ele>
        <time>2024-10-11T09:59:02Z</time>
      </trkpt>
      <trkpt lat="42.75626" lon="1.84365">
        <ele>1438.4</ele>
        <time>2024-10-11T09:59:03Z</time>
      </trkpt>
      <trkpt lat="42.75627" lon="1.8436">
        <ele>1438.4</ele>
        <time>2024-10-11T09:59:04Z</time>
      </trkpt>
      <trkpt lat="42.75627" lon="1.84354">
        <ele>1438.8</ele>
        <time>2024-10-11T09:59:05Z</time>
      </trkpt>
      <trkpt lat="42.75628" lon="1.84349">
        <ele>1439</ele>
        <time>2024-10-11T09:59:06Z</time>
      </trkpt>
      <trkpt lat="42.75628" lon="1.84343">
        <ele>1439</ele>
        <time>2024-10-11T09:59:07Z</time>
      </trkpt>
      <trkpt lat="42.75629" lon="1.84338">
        <ele>1439</ele>
        <time>2024-10-11T09:59:08Z</time>
      </trkpt>
      <trkpt lat="42.75629" lon="1.84332">
        <ele>1439</ele>
        <time>2024-10-11T09:59:09Z</time>
      </trkpt>
      <trkpt lat="42.7563" lon="1.84327">
        <ele>1439.6</ele>
        <time>2024-10-11T09:59:10Z</time>
      </trkpt>
      <trkpt lat="42.75631" lon="1.84321">
        <ele>1439.4</ele>
        <time>2024-10-11T09:59:11Z</time>
      </trkpt>
      <trkpt lat="42.75631" lon="1.84316">
        <ele>1439.4</ele>
        <time>2024-10-11T09:59:12Z</time>
      </trkpt>
      <trkpt lat="42.75631" lon="1.8431">
        <ele>1439.4</ele>
        <time>2024-10-11T09:59:13Z</time>
      </trkpt>
      <trkpt lat="42.75631" lon="1.84304">
        <ele>1439.8</ele>
        <time>2024-10-11T09:59:14Z</time>
      </trkpt>
      <trkpt lat="42.75631" lon="1.84298">
        <ele>1440</ele>
        <time>2024-10-11T09:59:15Z</time>
      </trkpt>
      <trkpt lat="42.75631" lon="1.84292">
        <ele>1440</ele>
        <time>2024-10-11T09:59:16Z</time>
      </trkpt>
      <trkpt lat="42.75631" lon="1.84286">
        <ele>1440</ele>
        <time>2024-10-11T09:59:17Z</time>
      </trkpt>
      <trkpt lat="42.75632" lon="1.84278">
        <ele>1440</ele>
        <time>2024-10-11T09:59:18Z</time>
      </trkpt>
      <trkpt lat="42.75632" lon="1.84275">
        <ele>1440.2</ele>
        <time>2024-10-11T09:59:19Z</time>
      </trkpt>
      <trkpt lat="42.75632" lon="1.84269">
        <ele>1440.2</ele>
        <time>2024-10-11T09:59:20Z</time>
      </trkpt>
      <trkpt lat="42.75632" lon="1.84263">
        <ele>1440.2</ele>
        <time>2024-10-11T09:59:21Z</time>
      </trkpt>
      <trkpt lat="42.75632" lon="1.84254">
        <ele>1440.2</ele>
        <time>2024-10-11T09:59:22Z</time>
      </trkpt>
      <trkpt lat="42.75632" lon="1.84251">
        <ele>1440.4</ele>
        <time>2024-10-11T09:59:23Z</time>
      </trkpt>
      <trkpt lat="42.75632" lon="1.84242">
        <ele>1440.4</ele>
        <time>2024-10-11T09:59:24Z</time>
      </trkpt>
      <trkpt lat="42.75633" lon="1.84238">
        <ele>1440.4</ele>
        <time>2024-10-11T09:59:25Z</time>
      </trkpt>
      <trkpt lat="42.75633" lon="1.84228">
        <ele>1440.4</ele>
        <time>2024-10-11T09:59:26Z</time>
      </trkpt>
      <trkpt lat="42.75634" lon="1.84225">
        <ele>1440.4</ele>
        <time>2024-10-11T09:59:27Z</time>
      </trkpt>
      <trkpt lat="42.75634" lon="1.84215">
        <ele>1440.4</ele>
        <time>2024-10-11T09:59:28Z</time>
      </trkpt>
      <trkpt lat="42.75634" lon="1.84212">
        <ele>1440.4</ele>
        <time>2024-10-11T09:59:29Z</time>
      </trkpt>
      <trkpt lat="42.75635" lon="1.84202">
        <ele>1440.4</ele>
        <time>2024-10-11T09:59:30Z</time>
      </trkpt>
      <trkpt lat="42.75636" lon="1.84199">
        <ele>1440.4</ele>
        <time>2024-10-11T09:59:31Z</time>
      </trkpt>
      <trkpt lat="42.75636" lon="1.8419">
        <ele>1440.4</ele>
        <time>2024-10-11T09:59:32Z</time>
      </trkpt>
      <trkpt lat="42.75636" lon="1.84187">
        <ele>1440.6</ele>
        <time>2024-10-11T09:59:33Z</time>
      </trkpt>
      <trkpt lat="42.75636" lon="1.84178">
        <ele>1440.8</ele>
        <time>2024-10-11T09:59:34Z</time>
      </trkpt>
      <trkpt lat="42.75637" lon="1.84175">
        <ele>1440.8</ele>
        <time>2024-10-11T09:59:35Z</time>
      </trkpt>
      <trkpt lat="42.75637" lon="1.8417">
        <ele>1440.8</ele>
        <time>2024-10-11T09:59:36Z</time>
      </trkpt>
      <trkpt lat="42.75637" lon="1.84165">
        <ele>1441.2</ele>
        <time>2024-10-11T09:59:37Z</time>
      </trkpt>
      <trkpt lat="42.75637" lon="1.8416">
        <ele>1441.4</ele>
        <time>2024-10-11T09:59:38Z</time>
      </trkpt>
      <trkpt lat="42.75638" lon="1.84155">
        <ele>1441.4</ele>
        <time>2024-10-11T09:59:39Z</time>
      </trkpt>
      <trkpt lat="42.75638" lon="1.84149">
        <ele>1441.4</ele>
        <time>2024-10-11T09:59:40Z</time>
      </trkpt>
      <trkpt lat="42.75638" lon="1.84144">
        <ele>1441.4</ele>
        <time>2024-10-11T09:59:41Z</time>
      </trkpt>
      <trkpt lat="42.75638" lon="1.84139">
        <ele>1441.4</ele>
        <time>2024-10-11T09:59:42Z</time>
      </trkpt>
      <trkpt lat="42.75638" lon="1.84134">
        <ele>1441.4</ele>
        <time>2024-10-11T09:59:43Z</time>
      </trkpt>
      <trkpt lat="42.75638" lon="1.84128">
        <ele>1441.4</ele>
        <time>2024-10-11T09:59:44Z</time>
      </trkpt>
      <trkpt lat="42.75638" lon="1.84124">
        <ele>1441.4</ele>
        <time>2024-10-11T09:59:45Z</time>
      </trkpt>
      <trkpt lat="42.75638" lon="1.8412">
        <ele>1441.2</ele>
        <time>2024-10-11T09:59:46Z</time>
      </trkpt>
      <trkpt lat="42.75638" lon="1.84116">
        <ele>1441</ele>
        <time>2024-10-11T09:59:47Z</time>
      </trkpt>
      <trkpt lat="42.75637" lon="1.84112">
        <ele>1441</ele>
        <time>2024-10-11T09:59:48Z</time>
      </trkpt>
      <trkpt lat="42.75637" lon="1.84109">
        <ele>1441</ele>
        <time>2024-10-11T09:59:49Z</time>
      </trkpt>
      <trkpt lat="42.75637" lon="1.84108">
        <ele>1441</ele>
        <time>2024-10-11T09:59:50Z</time>
      </trkpt>
      <trkpt lat="42.75637" lon="1.84107">
        <ele>1440.8</ele>
        <time>2024-10-11T09:59:51Z</time>
      </trkpt>
      <trkpt lat="42.75637" lon="1.84107">
        <ele>1440.8</ele>
        <time>2024-10-11T09:59:52Z</time>
      </trkpt>
      <trkpt lat="42.75641" lon="1.84104">
        <ele>1440</ele>
        <time>2024-10-11T10:00:19Z</time>
      </trkpt>
      <trkpt lat="42.75643" lon="1.84104">
        <ele>1440</ele>
        <time>2024-10-11T10:00:20Z</time>
      </trkpt>
      <trkpt lat="42.75644" lon="1.84103">
        <ele>1440</ele>
        <time>2024-10-11T10:00:21Z</time>
      </trkpt>
      <trkpt lat="42.75646" lon="1.84103">
        <ele>1439.6</ele>
        <time>2024-10-11T10:00:22Z</time>
      </trkpt>
      <trkpt lat="42.75648" lon="1.84103">
        <ele>1439.4</ele>
        <time>2024-10-11T10:00:23Z</time>
      </trkpt>
      <trkpt lat="42.75648" lon="1.84103">
        <ele>1439.4</ele>
        <time>2024-10-11T10:00:24Z</time>
      </trkpt>
      <trkpt lat="42.75648" lon="1.84102">
        <ele>1439.4</ele>
        <time>2024-10-11T10:00:25Z</time>
      </trkpt>
      <trkpt lat="42.75647" lon="1.84102">
        <ele>1439.4</ele>
        <time>2024-10-11T10:00:26Z</time>
      </trkpt>
      <trkpt lat="42.75647" lon="1.84102">
        <ele>1439.8</ele>
        <time>2024-10-11T10:00:27Z</time>
      </trkpt>
      <trkpt lat="42.75647" lon="1.84102">
        <ele>1439.8</ele>
        <time>2024-10-11T10:00:28Z</time>
      </trkpt>
      <trkpt lat="42.75647" lon="1.84101">
        <ele>1439.8</ele>
        <time>2024-10-11T10:00:29Z</time>
      </trkpt>
      <trkpt lat="42.75647" lon="1.84101">
        <ele>1439.8</ele>
        <time>2024-10-11T10:00:55Z</time>
      </trkpt>
      <trkpt lat="42.75647" lon="1.84101">
        <ele>1439.8</ele>
        <time>2024-10-11T10:00:56Z</time>
      </trkpt>
      <trkpt lat="42.75647" lon="1.84101">
        <ele>1439.8</ele>
        <time>2024-10-11T10:00:57Z</time>
      </trkpt>
      <trkpt lat="42.75647" lon="1.841">
        <ele>1439.8</ele>
        <time>2024-10-11T10:00:58Z</time>
      </trkpt>
      <trkpt lat="42.75647" lon="1.841">
        <ele>1440.8</ele>
        <time>2024-10-11T10:14:20Z</time>
      </trkpt>
      <trkpt lat="42.75647" lon="1.841">
        <ele>1440.8</ele>
        <time>2024-10-11T10:14:21Z</time>
      </trkpt>
      <trkpt lat="42.75647" lon="1.841">
        <ele>1440.6</ele>
        <time>2024-10-11T10:14:22Z</time>
      </trkpt>
      <trkpt lat="42.75644" lon="1.841">
        <ele>1440.8</ele>
        <time>2024-10-11T10:14:23Z</time>
      </trkpt>
      <trkpt lat="42.75643" lon="1.841">
        <ele>1440.8</ele>
        <time>2024-10-11T10:14:24Z</time>
      </trkpt>
      <trkpt lat="42.75641" lon="1.841">
        <ele>1440.8</ele>
        <time>2024-10-11T10:14:25Z</time>
      </trkpt>
      <trkpt lat="42.75639" lon="1.84098">
        <ele>1440.8</ele>
        <time>2024-10-11T10:14:26Z</time>
      </trkpt>
      <trkpt lat="42.75638" lon="1.84095">
        <ele>1440.8</ele>
        <time>2024-10-11T10:14:27Z</time>
      </trkpt>
      <trkpt lat="42.75637" lon="1.84092">
        <ele>1440.6</ele>
        <time>2024-10-11T10:14:28Z</time>
      </trkpt>
      <trkpt lat="42.75636" lon="1.8409">
        <ele>1440.6</ele>
        <time>2024-10-11T10:14:29Z</time>
      </trkpt>
      <trkpt lat="42.75636" lon="1.84088">
        <ele>1440.6</ele>
        <time>2024-10-11T10:14:30Z</time>
      </trkpt>
      <trkpt lat="42.75635" lon="1.84086">
        <ele>1440</ele>
        <time>2024-10-11T10:15:04Z</time>
      </trkpt>
      <trkpt lat="42.75635" lon="1.84084">
        <ele>1440</ele>
        <time>2024-10-11T10:15:05Z</time>
      </trkpt>
      <trkpt lat="42.75633" lon="1.84077">
        <ele>1440</ele>
        <time>2024-10-11T10:15:06Z</time>
      </trkpt>
      <trkpt lat="42.75632" lon="1.84074">
        <ele>1439.4</ele>
        <time>2024-10-11T10:15:07Z</time>
      </trkpt>
      <trkpt lat="42.75628" lon="1.84066">
        <ele>1439.4</ele>
        <time>2024-10-11T10:15:08Z</time>
      </trkpt>
      <trkpt lat="42.75627" lon="1.84063">
        <ele>1439.2</ele>
        <time>2024-10-11T10:15:09Z</time>
      </trkpt>
      <trkpt lat="42.75624" lon="1.84057">
        <ele>1439.2</ele>
        <time>2024-10-11T10:15:10Z</time>
      </trkpt>
      <trkpt lat="42.75621" lon="1.8405">
        <ele>1438.2</ele>
        <time>2024-10-11T10:15:11Z</time>
      </trkpt>
      <trkpt lat="42.75618" lon="1.84043">
        <ele>1438.2</ele>
        <time>2024-10-11T10:15:12Z</time>
      </trkpt>
      <trkpt lat="42.75615" lon="1.84036">
        <ele>1438.4</ele>
        <time>2024-10-11T10:15:13Z</time>
      </trkpt>
      <trkpt lat="42.75612" lon="1.84028">
        <ele>1438.4</ele>
        <time>2024-10-11T10:15:14Z</time>
      </trkpt>
      <trkpt lat="42.75608" lon="1.84019">
        <ele>1438.4</ele>
        <time>2024-10-11T10:15:15Z</time>
      </trkpt>
      <trkpt lat="42.75604" lon="1.8401">
        <ele>1437.4</ele>
        <time>2024-10-11T10:15:16Z</time>
      </trkpt>
      <trkpt lat="42.756" lon="1.84">
        <ele>1436.4</ele>
        <time>2024-10-11T10:15:17Z</time>
      </trkpt>
      <trkpt lat="42.75596" lon="1.8399">
        <ele>1436.4</ele>
        <time>2024-10-11T10:15:18Z</time>
      </trkpt>
      <trkpt lat="42.75592" lon="1.8398">
        <ele>1436.4</ele>
        <time>2024-10-11T10:15:19Z</time>
      </trkpt>
      <trkpt lat="42.75588" lon="1.8397">
        <ele>1435.4</ele>
        <time>2024-10-11T10:15:20Z</time>
      </trkpt>
      <trkpt lat="42.75583" lon="1.83959">
        <ele>1432.8</ele>
        <time>2024-10-11T10:15:21Z</time>
      </trkpt>
      <trkpt lat="42.75579" lon="1.83949">
        <ele>1432.8</ele>
        <time>2024-10-11T10:15:22Z</time>
      </trkpt>
      <trkpt lat="42.75574" lon="1.83938">
        <ele>1432.8</ele>
        <time>2024-10-11T10:15:23Z</time>
      </trkpt>
      <trkpt lat="42.75569" lon="1.83927">
        <ele>1432.8</ele>
        <time>2024-10-11T10:15:24Z</time>
      </trkpt>
      <trkpt lat="42.75565" lon="1.83916">
        <ele>1431.8</ele>
        <time>2024-10-11T10:15:25Z</time>
      </trkpt>
      <trkpt lat="42.7556" lon="1.83905">
        <ele>1429.6</ele>
        <time>2024-10-11T10:15:26Z</time>
      </trkpt>
      <trkpt lat="42.75555" lon="1.83894">
        <ele>1429.6</ele>
        <time>2024-10-11T10:15:27Z</time>
      </trkpt>
      <trkpt lat="42.75551" lon="1.83883">
        <ele>1429.6</ele>
        <time>2024-10-11T10:15:28Z</time>
      </trkpt>
      <trkpt lat="42.75546" lon="1.83872">
        <ele>1428.6</ele>
        <time>2024-10-11T10:15:29Z</time>
      </trkpt>
      <trkpt lat="42.75542" lon="1.83861">
        <ele>1427.6</ele>
        <time>2024-10-11T10:15:30Z</time>
      </trkpt>
      <trkpt lat="42.75537" lon="1.8385">
        <ele>1427.6</ele>
        <time>2024-10-11T10:15:31Z</time>
      </trkpt>
      <trkpt lat="42.75532" lon="1.83839">
        <ele>1427.6</ele>
        <time>2024-10-11T10:15:32Z</time>
      </trkpt>
      <trkpt lat="42.75528" lon="1.83828">
        <ele>1427.6</ele>
        <time>2024-10-11T10:15:33Z</time>
      </trkpt>
      <trkpt lat="42.75523" lon="1.83817">
        <ele>1426.6</ele>
        <time>2024-10-11T10:15:34Z</time>
      </trkpt>
      <trkpt lat="42.75516" lon="1.83803">
        <ele>1426.6</ele>
        <time>2024-10-11T10:15:35Z</time>
      </trkpt>
      <trkpt lat="42.75514" lon="1.83798">
        <ele>1426.6</ele>
        <time>2024-10-11T10:15:36Z</time>
      </trkpt>
      <trkpt lat="42.75506" lon="1.83786">
        <ele>1426.6</ele>
        <time>2024-10-11T10:15:37Z</time>
      </trkpt>
      <trkpt lat="42.75502" lon="1.83783">
        <ele>1425.8</ele>
        <time>2024-10-11T10:15:38Z</time>
      </trkpt>
      <trkpt lat="42.75492" lon="1.83775">
        <ele>1425.8</ele>
        <time>2024-10-11T10:15:39Z</time>
      </trkpt>
      <trkpt lat="42.75489" lon="1.83773">
        <ele>1425.4</ele>
        <time>2024-10-11T10:15:40Z</time>
      </trkpt>
      <trkpt lat="42.75478" lon="1.83769">
        <ele>1425.4</ele>
        <time>2024-10-11T10:15:41Z</time>
      </trkpt>
      <trkpt lat="42.75474" lon="1.83768">
        <ele>1425.4</ele>
        <time>2024-10-11T10:15:42Z</time>
      </trkpt>
      <trkpt lat="42.75463" lon="1.83766">
        <ele>1425.4</ele>
        <time>2024-10-11T10:15:43Z</time>
      </trkpt>
      <trkpt lat="42.75459" lon="1.83765">
        <ele>1424.2</ele>
        <time>2024-10-11T10:15:44Z</time>
      </trkpt>
      <trkpt lat="42.75446" lon="1.83764">
        <ele>1424.2</ele>
        <time>2024-10-11T10:15:45Z</time>
      </trkpt>
      <trkpt lat="42.75442" lon="1.83764">
        <ele>1424.2</ele>
        <time>2024-10-11T10:15:46Z</time>
      </trkpt>
      <trkpt lat="42.75428" lon="1.83766">
        <ele>1424.2</ele>
        <time>2024-10-11T10:15:47Z</time>
      </trkpt>
      <trkpt lat="42.75423" lon="1.83768">
        <ele>1423.2</ele>
        <time>2024-10-11T10:15:48Z</time>
      </trkpt>
      <trkpt lat="42.75409" lon="1.83773">
        <ele>1420.8</ele>
        <time>2024-10-11T10:15:49Z</time>
      </trkpt>
      <trkpt lat="42.75404" lon="1.83775">
        <ele>1420.8</ele>
        <time>2024-10-11T10:15:50Z</time>
      </trkpt>
      <trkpt lat="42.75391" lon="1.83783">
        <ele>1420.8</ele>
        <time>2024-10-11T10:15:51Z</time>
      </trkpt>
      <trkpt lat="42.75386" lon="1.83787">
        <ele>1420</ele>
        <time>2024-10-11T10:15:52Z</time>
      </trkpt>
      <trkpt lat="42.75378" lon="1.83794">
        <ele>1418.6</ele>
        <time>2024-10-11T10:15:53Z</time>
      </trkpt>
      <trkpt lat="42.7537" lon="1.83803">
        <ele>1418.6</ele>
        <time>2024-10-11T10:15:54Z</time>
      </trkpt>
      <trkpt lat="42.75363" lon="1.83812">
        <ele>1418.6</ele>
        <time>2024-10-11T10:15:55Z</time>
      </trkpt>
      <trkpt lat="42.75357" lon="1.83823">
        <ele>1417.6</ele>
        <time>2024-10-11T10:15:56Z</time>
      </trkpt>
      <trkpt lat="42.75352" lon="1.83835">
        <ele>1414.6</ele>
        <time>2024-10-11T10:15:57Z</time>
      </trkpt>
      <trkpt lat="42.75348" lon="1.83848">
        <ele>1414.6</ele>
        <time>2024-10-11T10:15:58Z</time>
      </trkpt>
      <trkpt lat="42.75347" lon="1.83862">
        <ele>1414.6</ele>
        <time>2024-10-11T10:15:59Z</time>
      </trkpt>
      <trkpt lat="42.75348" lon="1.83877">
        <ele>1413.6</ele>
        <time>2024-10-11T10:16:00Z</time>
      </trkpt>
      <trkpt lat="42.75351" lon="1.83892">
        <ele>1413.6</ele>
        <time>2024-10-11T10:16:01Z</time>
      </trkpt>
      <trkpt lat="42.75352" lon="1.83908">
        <ele>1409.2</ele>
        <time>2024-10-11T10:16:02Z</time>
      </trkpt>
      <trkpt lat="42.75353" lon="1.83923">
        <ele>1409.2</ele>
        <time>2024-10-11T10:16:03Z</time>
      </trkpt>
      <trkpt lat="42.75356" lon="1.83937">
        <ele>1409.2</ele>
        <time>2024-10-11T10:16:04Z</time>
      </trkpt>
      <trkpt lat="42.7536" lon="1.8395">
        <ele>1408.2</ele>
        <time>2024-10-11T10:16:05Z</time>
      </trkpt>
      <trkpt lat="42.75362" lon="1.83964">
        <ele>1404.4</ele>
        <time>2024-10-11T10:16:06Z</time>
      </trkpt>
      <trkpt lat="42.7536" lon="1.83977">
        <ele>1404.4</ele>
        <time>2024-10-11T10:16:07Z</time>
      </trkpt>
      <trkpt lat="42.75355" lon="1.8399">
        <ele>1404.4</ele>
        <time>2024-10-11T10:16:08Z</time>
      </trkpt>
      <trkpt lat="42.7535" lon="1.84002">
        <ele>1403.4</ele>
        <time>2024-10-11T10:16:09Z</time>
      </trkpt>
      <trkpt lat="42.75344" lon="1.84014">
        <ele>1401.6</ele>
        <time>2024-10-11T10:16:10Z</time>
      </trkpt>
      <trkpt lat="42.75337" lon="1.84026">
        <ele>1401.6</ele>
        <time>2024-10-11T10:16:11Z</time>
      </trkpt>
      <trkpt lat="42.75329" lon="1.84036">
        <ele>1401.6</ele>
        <time>2024-10-11T10:16:12Z</time>
      </trkpt>
      <trkpt lat="42.7532" lon="1.84045">
        <ele>1400.6</ele>
        <time>2024-10-11T10:16:13Z</time>
      </trkpt>
      <trkpt lat="42.75312" lon="1.84055">
        <ele>1400.6</ele>
        <time>2024-10-11T10:16:14Z</time>
      </trkpt>
      <trkpt lat="42.75304" lon="1.84067">
        <ele>1396.4</ele>
        <time>2024-10-11T10:16:15Z</time>
      </trkpt>
      <trkpt lat="42.75293" lon="1.84085">
        <ele>1396.4</ele>
        <time>2024-10-11T10:16:16Z</time>
      </trkpt>
      <trkpt lat="42.7529" lon="1.84091">
        <ele>1396.4</ele>
        <time>2024-10-11T10:16:17Z</time>
      </trkpt>
      <trkpt lat="42.75279" lon="1.8411">
        <ele>1395.4</ele>
        <time>2024-10-11T10:16:18Z</time>
      </trkpt>
      <trkpt lat="42.75276" lon="1.84117">
        <ele>1392</ele>
        <time>2024-10-11T10:16:19Z</time>
      </trkpt>
      <trkpt lat="42.75269" lon="1.84129">
        <ele>1392</ele>
        <time>2024-10-11T10:16:20Z</time>
      </trkpt>
      <trkpt lat="42.75263" lon="1.84143">
        <ele>1392</ele>
        <time>2024-10-11T10:16:21Z</time>
      </trkpt>
      <trkpt lat="42.75257" lon="1.84158">
        <ele>1391</ele>
        <time>2024-10-11T10:16:22Z</time>
      </trkpt>
      <trkpt lat="42.75249" lon="1.84181">
        <ele>1391</ele>
        <time>2024-10-11T10:16:23Z</time>
      </trkpt>
      <trkpt lat="42.75246" lon="1.84189">
        <ele>1385.8</ele>
        <time>2024-10-11T10:16:24Z</time>
      </trkpt>
      <trkpt lat="42.75238" lon="1.84213">
        <ele>1385.8</ele>
        <time>2024-10-11T10:16:25Z</time>
      </trkpt>
      <trkpt lat="42.75236" lon="1.8422">
        <ele>1385.8</ele>
        <time>2024-10-11T10:16:26Z</time>
      </trkpt>
      <trkpt lat="42.75231" lon="1.84244">
        <ele>1385.8</ele>
        <time>2024-10-11T10:16:27Z</time>
      </trkpt>
      <trkpt lat="42.75229" lon="1.84252">
        <ele>1385.8</ele>
        <time>2024-10-11T10:16:28Z</time>
      </trkpt>
      <trkpt lat="42.75226" lon="1.84275">
        <ele>1381</ele>
        <time>2024-10-11T10:16:29Z</time>
      </trkpt>
      <trkpt lat="42.75225" lon="1.84282">
        <ele>1381</ele>
        <time>2024-10-11T10:16:30Z</time>
      </trkpt>
      <trkpt lat="42.75225" lon="1.84304">
        <ele>1381</ele>
        <time>2024-10-11T10:16:31Z</time>
      </trkpt>
      <trkpt lat="42.75225" lon="1.84311">
        <ele>1380</ele>
        <time>2024-10-11T10:16:32Z</time>
      </trkpt>
      <trkpt lat="42.75228" lon="1.84332">
        <ele>1375.2</ele>
        <time>2024-10-11T10:16:33Z</time>
      </trkpt>
      <trkpt lat="42.75229" lon="1.8434">
        <ele>1375.2</ele>
        <time>2024-10-11T10:16:34Z</time>
      </trkpt>
      <trkpt lat="42.75231" lon="1.84355">
        <ele>1375.2</ele>
        <time>2024-10-11T10:16:35Z</time>
      </trkpt>
      <trkpt lat="42.75233" lon="1.8437">
        <ele>1374.2</ele>
        <time>2024-10-11T10:16:36Z</time>
      </trkpt>
      <trkpt lat="42.75235" lon="1.84385">
        <ele>1369.8</ele>
        <time>2024-10-11T10:16:37Z</time>
      </trkpt>
      <trkpt lat="42.75236" lon="1.844">
        <ele>1369.8</ele>
        <time>2024-10-11T10:16:38Z</time>
      </trkpt>
      <trkpt lat="42.75234" lon="1.84415">
        <ele>1369.8</ele>
        <time>2024-10-11T10:16:39Z</time>
      </trkpt>
      <trkpt lat="42.75229" lon="1.84428">
        <ele>1369.8</ele>
        <time>2024-10-11T10:16:40Z</time>
      </trkpt>
      <trkpt lat="42.75221" lon="1.84438">
        <ele>1368.8</ele>
        <time>2024-10-11T10:16:41Z</time>
      </trkpt>
      <trkpt lat="42.75212" lon="1.84447">
        <ele>1365.8</ele>
        <time>2024-10-11T10:16:42Z</time>
      </trkpt>
      <trkpt lat="42.75204" lon="1.84455">
        <ele>1365.8</ele>
        <time>2024-10-11T10:16:43Z</time>
      </trkpt>
      <trkpt lat="42.75195" lon="1.84462">
        <ele>1365.8</ele>
        <time>2024-10-11T10:16:44Z</time>
      </trkpt>
      <trkpt lat="42.75186" lon="1.8447">
        <ele>1364.8</ele>
        <time>2024-10-11T10:16:45Z</time>
      </trkpt>
      <trkpt lat="42.75178" lon="1.84478">
        <ele>1361.6</ele>
        <time>2024-10-11T10:16:46Z</time>
      </trkpt>
      <trkpt lat="42.75171" lon="1.84489">
        <ele>1361.6</ele>
        <time>2024-10-11T10:16:47Z</time>
      </trkpt>
      <trkpt lat="42.75164" lon="1.845">
        <ele>1361.6</ele>
        <time>2024-10-11T10:16:48Z</time>
      </trkpt>
      <trkpt lat="42.75159" lon="1.84512">
        <ele>1360.6</ele>
        <time>2024-10-11T10:16:49Z</time>
      </trkpt>
      <trkpt lat="42.75155" lon="1.84525">
        <ele>1355.8</ele>
        <time>2024-10-11T10:16:50Z</time>
      </trkpt>
      <trkpt lat="42.75152" lon="1.84539">
        <ele>1355.8</ele>
        <time>2024-10-11T10:16:51Z</time>
      </trkpt>
      <trkpt lat="42.7515" lon="1.84553">
        <ele>1355.8</ele>
        <time>2024-10-11T10:16:52Z</time>
      </trkpt>
      <trkpt lat="42.75148" lon="1.84568">
        <ele>1355.8</ele>
        <time>2024-10-11T10:16:53Z</time>
      </trkpt>
      <trkpt lat="42.75144" lon="1.84591">
        <ele>1354.8</ele>
        <time>2024-10-11T10:16:54Z</time>
      </trkpt>
      <trkpt lat="42.75143" lon="1.84599">
        <ele>1352</ele>
        <time>2024-10-11T10:16:55Z</time>
      </trkpt>
      <trkpt lat="42.75141" lon="1.84614">
        <ele>1352</ele>
        <time>2024-10-11T10:16:56Z</time>
      </trkpt>
      <trkpt lat="42.75139" lon="1.8463">
        <ele>1352</ele>
        <time>2024-10-11T10:16:57Z</time>
      </trkpt>
      <trkpt lat="42.75137" lon="1.84655">
        <ele>1351</ele>
        <time>2024-10-11T10:16:58Z</time>
      </trkpt>
      <trkpt lat="42.75136" lon="1.84663">
        <ele>1347</ele>
        <time>2024-10-11T10:16:59Z</time>
      </trkpt>
      <trkpt lat="42.75133" lon="1.84687">
        <ele>1347</ele>
        <time>2024-10-11T10:17:00Z</time>
      </trkpt>
      <trkpt lat="42.75133" lon="1.84695">
        <ele>1347</ele>
        <time>2024-10-11T10:17:01Z</time>
      </trkpt>
      <trkpt lat="42.75132" lon="1.84716">
        <ele>1347</ele>
        <time>2024-10-11T10:17:02Z</time>
      </trkpt>
      <trkpt lat="42.75131" lon="1.84722">
        <ele>1346</ele>
        <time>2024-10-11T10:17:03Z</time>
      </trkpt>
      <trkpt lat="42.7513" lon="1.84734">
        <ele>1342.6</ele>
        <time>2024-10-11T10:17:04Z</time>
      </trkpt>
      <trkpt lat="42.75126" lon="1.8474">
        <ele>1342.6</ele>
        <time>2024-10-11T10:17:05Z</time>
      </trkpt>
      <trkpt lat="42.75118" lon="1.84736">
        <ele>1342.6</ele>
        <time>2024-10-11T10:17:06Z</time>
      </trkpt>
      <trkpt lat="42.75117" lon="1.84732">
        <ele>1342.6</ele>
        <time>2024-10-11T10:17:07Z</time>
      </trkpt>
      <trkpt lat="42.75115" lon="1.8472">
        <ele>1341.6</ele>
        <time>2024-10-11T10:17:08Z</time>
      </trkpt>
      <trkpt lat="42.75117" lon="1.84716">
        <ele>1340.2</ele>
        <time>2024-10-11T10:17:09Z</time>
      </trkpt>
      <trkpt lat="42.7512" lon="1.84702">
        <ele>1340.2</ele>
        <time>2024-10-11T10:17:10Z</time>
      </trkpt>
      <trkpt lat="42.7512" lon="1.84696">
        <ele>1340.2</ele>
        <time>2024-10-11T10:17:11Z</time>
      </trkpt>
      <trkpt lat="42.75122" lon="1.8468">
        <ele>1340.2</ele>
        <time>2024-10-11T10:17:12Z</time>
      </trkpt>
      <trkpt lat="42.75121" lon="1.84675">
        <ele>1339.2</ele>
        <time>2024-10-11T10:17:13Z</time>
      </trkpt>
      <trkpt lat="42.75121" lon="1.84663">
        <ele>1337.8</ele>
        <time>2024-10-11T10:17:14Z</time>
      </trkpt>
      <trkpt lat="42.75119" lon="1.84644">
        <ele>1337.8</ele>
        <time>2024-10-11T10:17:15Z</time>
      </trkpt>
      <trkpt lat="42.75118" lon="1.84638">
        <ele>1337.8</ele>
        <time>2024-10-11T10:17:16Z</time>
      </trkpt>
      <trkpt lat="42.75117" lon="1.84625">
        <ele>1336.8</ele>
        <time>2024-10-11T10:17:17Z</time>
      </trkpt>
      <trkpt lat="42.75115" lon="1.84611">
        <ele>1333.8</ele>
        <time>2024-10-11T10:17:18Z</time>
      </trkpt>
      <trkpt lat="42.75113" lon="1.84597">
        <ele>1333.8</ele>
        <time>2024-10-11T10:17:19Z</time>
      </trkpt>
      <trkpt lat="42.75111" lon="1.84582">
        <ele>1333.8</ele>
        <time>2024-10-11T10:17:20Z</time>
      </trkpt>
      <trkpt lat="42.75111" lon="1.84568">
        <ele>1332.8</ele>
        <time>2024-10-11T10:17:21Z</time>
      </trkpt>
      <trkpt lat="42.75111" lon="1.84553">
        <ele>1330.2</ele>
        <time>2024-10-11T10:17:22Z</time>
      </trkpt>
      <trkpt lat="42.75111" lon="1.84537">
        <ele>1330.2</ele>
        <time>2024-10-11T10:17:23Z</time>
      </trkpt>
      <trkpt lat="42.75109" lon="1.84523">
        <ele>1330.2</ele>
        <time>2024-10-11T10:17:24Z</time>
      </trkpt>
      <trkpt lat="42.75106" lon="1.84507">
        <ele>1330.2</ele>
        <time>2024-10-11T10:17:25Z</time>
      </trkpt>
      <trkpt lat="42.75104" lon="1.84492">
        <ele>1329.2</ele>
        <time>2024-10-11T10:17:26Z</time>
      </trkpt>
      <trkpt lat="42.75102" lon="1.84476">
        <ele>1324.6</ele>
        <time>2024-10-11T10:17:27Z</time>
      </trkpt>
      <trkpt lat="42.75101" lon="1.8446">
        <ele>1324.6</ele>
        <time>2024-10-11T10:17:28Z</time>
      </trkpt>
      <trkpt lat="42.75104" lon="1.84443">
        <ele>1324.6</ele>
        <time>2024-10-11T10:17:29Z</time>
      </trkpt>
      <trkpt lat="42.75107" lon="1.84428">
        <ele>1323.6</ele>
        <time>2024-10-11T10:17:30Z</time>
      </trkpt>
      <trkpt lat="42.75111" lon="1.84413">
        <ele>1320</ele>
        <time>2024-10-11T10:17:31Z</time>
      </trkpt>
      <trkpt lat="42.75116" lon="1.84398">
        <ele>1320</ele>
        <time>2024-10-11T10:17:32Z</time>
      </trkpt>
      <trkpt lat="42.75119" lon="1.84382">
        <ele>1320</ele>
        <time>2024-10-11T10:17:33Z</time>
      </trkpt>
      <trkpt lat="42.75119" lon="1.84368">
        <ele>1320</ele>
        <time>2024-10-11T10:17:34Z</time>
      </trkpt>
      <trkpt lat="42.75116" lon="1.84354">
        <ele>1319</ele>
        <time>2024-10-11T10:17:35Z</time>
      </trkpt>
      <trkpt lat="42.75112" lon="1.84342">
        <ele>1315.2</ele>
        <time>2024-10-11T10:17:36Z</time>
      </trkpt>
      <trkpt lat="42.75105" lon="1.84333">
        <ele>1315.2</ele>
        <time>2024-10-11T10:17:37Z</time>
      </trkpt>
      <trkpt lat="42.75096" lon="1.8433">
        <ele>1315.2</ele>
        <time>2024-10-11T10:17:38Z</time>
      </trkpt>
      <trkpt lat="42.7509" lon="1.84335">
        <ele>1314.2</ele>
        <time>2024-10-11T10:17:39Z</time>
      </trkpt>
      <trkpt lat="42.75088" lon="1.84343">
        <ele>1312.8</ele>
        <time>2024-10-11T10:17:40Z</time>
      </trkpt>
      <trkpt lat="42.7509" lon="1.84358">
        <ele>1312.8</ele>
        <time>2024-10-11T10:17:41Z</time>
      </trkpt>
      <trkpt lat="42.7509" lon="1.84364">
        <ele>1312.8</ele>
        <time>2024-10-11T10:17:42Z</time>
      </trkpt>
      <trkpt lat="42.75091" lon="1.84374">
        <ele>1311.8</ele>
        <time>2024-10-11T10:17:43Z</time>
      </trkpt>
      <trkpt lat="42.7509" lon="1.84386">
        <ele>1309.2</ele>
        <time>2024-10-11T10:17:44Z</time>
      </trkpt>
      <trkpt lat="42.75085" lon="1.84397">
        <ele>1309.2</ele>
        <time>2024-10-11T10:17:45Z</time>
      </trkpt>
      <trkpt lat="42.7508" lon="1.84408">
        <ele>1309.2</ele>
        <time>2024-10-11T10:17:46Z</time>
      </trkpt>
      <trkpt lat="42.75075" lon="1.84419">
        <ele>1309.2</ele>
        <time>2024-10-11T10:17:47Z</time>
      </trkpt>
      <trkpt lat="42.75071" lon="1.84439">
        <ele>1309.2</ele>
        <time>2024-10-11T10:17:48Z</time>
      </trkpt>
      <trkpt lat="42.7507" lon="1.84446">
        <ele>1308.2</ele>
        <time>2024-10-11T10:17:49Z</time>
      </trkpt>
      <trkpt lat="42.75068" lon="1.84468">
        <ele>1304.8</ele>
        <time>2024-10-11T10:17:50Z</time>
      </trkpt>
      <trkpt lat="42.75068" lon="1.84475">
        <ele>1304.8</ele>
        <time>2024-10-11T10:17:51Z</time>
      </trkpt>
      <trkpt lat="42.75066" lon="1.84495">
        <ele>1304.8</ele>
        <time>2024-10-11T10:17:52Z</time>
      </trkpt>
      <trkpt lat="42.75065" lon="1.84499">
        <ele>1303.8</ele>
        <time>2024-10-11T10:17:53Z</time>
      </trkpt>
      <trkpt lat="42.75058" lon="1.84507">
        <ele>1299.6</ele>
        <time>2024-10-11T10:17:54Z</time>
      </trkpt>
      <trkpt lat="42.75055" lon="1.84505">
        <ele>1299.6</ele>
        <time>2024-10-11T10:17:55Z</time>
      </trkpt>
      <trkpt lat="42.75049" lon="1.84496">
        <ele>1299.6</ele>
        <time>2024-10-11T10:17:56Z</time>
      </trkpt>
      <trkpt lat="42.75049" lon="1.8449">
        <ele>1298.6</ele>
        <time>2024-10-11T10:17:57Z</time>
      </trkpt>
      <trkpt lat="42.75048" lon="1.84474">
        <ele>1296.8</ele>
        <time>2024-10-11T10:17:58Z</time>
      </trkpt>
      <trkpt lat="42.75048" lon="1.84468">
        <ele>1296.8</ele>
        <time>2024-10-11T10:17:59Z</time>
      </trkpt>
      <trkpt lat="42.75049" lon="1.84457">
        <ele>1296.8</ele>
        <time>2024-10-11T10:18:00Z</time>
      </trkpt>
      <trkpt lat="42.75047" lon="1.84444">
        <ele>1296.8</ele>
        <time>2024-10-11T10:18:01Z</time>
      </trkpt>
      <trkpt lat="42.75045" lon="1.84431">
        <ele>1295.8</ele>
        <time>2024-10-11T10:18:02Z</time>
      </trkpt>
      <trkpt lat="42.75043" lon="1.84418">
        <ele>1293</ele>
        <time>2024-10-11T10:18:03Z</time>
      </trkpt>
      <trkpt lat="42.75043" lon="1.84404">
        <ele>1293</ele>
        <time>2024-10-11T10:18:04Z</time>
      </trkpt>
      <trkpt lat="42.75045" lon="1.8439">
        <ele>1293</ele>
        <time>2024-10-11T10:18:05Z</time>
      </trkpt>
      <trkpt lat="42.75046" lon="1.84376">
        <ele>1292</ele>
        <time>2024-10-11T10:18:06Z</time>
      </trkpt>
      <trkpt lat="42.75045" lon="1.84365">
        <ele>1292</ele>
        <time>2024-10-11T10:18:07Z</time>
      </trkpt>
      <trkpt lat="42.75039" lon="1.84359">
        <ele>1288.6</ele>
        <time>2024-10-11T10:18:08Z</time>
      </trkpt>
      <trkpt lat="42.75032" lon="1.84356">
        <ele>1288.6</ele>
        <time>2024-10-11T10:18:09Z</time>
      </trkpt>
      <trkpt lat="42.75025" lon="1.84359">
        <ele>1288.6</ele>
        <time>2024-10-11T10:18:10Z</time>
      </trkpt>
      <trkpt lat="42.7502" lon="1.84366">
        <ele>1288.6</ele>
        <time>2024-10-11T10:18:11Z</time>
      </trkpt>
      <trkpt lat="42.75019" lon="1.84376">
        <ele>1287.2</ele>
        <time>2024-10-11T10:18:12Z</time>
      </trkpt>
      <trkpt lat="42.75019" lon="1.84386">
        <ele>1287.2</ele>
        <time>2024-10-11T10:18:13Z</time>
      </trkpt>
      <trkpt lat="42.7502" lon="1.84395">
        <ele>1287.2</ele>
        <time>2024-10-11T10:18:14Z</time>
      </trkpt>
      <trkpt lat="42.75022" lon="1.84405">
        <ele>1286.2</ele>
        <time>2024-10-11T10:18:15Z</time>
      </trkpt>
      <trkpt lat="42.75023" lon="1.84415">
        <ele>1285.4</ele>
        <time>2024-10-11T10:18:16Z</time>
      </trkpt>
      <trkpt lat="42.75025" lon="1.84425">
        <ele>1285.4</ele>
        <time>2024-10-11T10:18:17Z</time>
      </trkpt>
      <trkpt lat="42.75024" lon="1.84434">
        <ele>1285.4</ele>
        <time>2024-10-11T10:18:18Z</time>
      </trkpt>
      <trkpt lat="42.7502" lon="1.8444">
        <ele>1285.4</ele>
        <time>2024-10-11T10:18:19Z</time>
      </trkpt>
      <trkpt lat="42.75014" lon="1.84441">
        <ele>1283.6</ele>
        <time>2024-10-11T10:18:20Z</time>
      </trkpt>
      <trkpt lat="42.75009" lon="1.84436">
        <ele>1283.6</ele>
        <time>2024-10-11T10:18:21Z</time>
      </trkpt>
      <trkpt lat="42.75006" lon="1.84428">
        <ele>1283.6</ele>
        <time>2024-10-11T10:18:22Z</time>
      </trkpt>
      <trkpt lat="42.75006" lon="1.84418">
        <ele>1283.6</ele>
        <time>2024-10-11T10:18:23Z</time>
      </trkpt>
      <trkpt lat="42.75006" lon="1.84409">
        <ele>1282.6</ele>
        <time>2024-10-11T10:18:24Z</time>
      </trkpt>
      <trkpt lat="42.75001" lon="1.84395">
        <ele>1281.2</ele>
        <time>2024-10-11T10:18:25Z</time>
      </trkpt>
      <trkpt lat="42.74998" lon="1.84392">
        <ele>1281.2</ele>
        <time>2024-10-11T10:18:26Z</time>
      </trkpt>
      <trkpt lat="42.74988" lon="1.84385">
        <ele>1281.2</ele>
        <time>2024-10-11T10:18:27Z</time>
      </trkpt>
      <trkpt lat="42.74984" lon="1.84385">
        <ele>1280.2</ele>
        <time>2024-10-11T10:18:28Z</time>
      </trkpt>
      <trkpt lat="42.74972" lon="1.84384">
        <ele>1280.2</ele>
        <time>2024-10-11T10:18:29Z</time>
      </trkpt>
      <trkpt lat="42.74967" lon="1.84385">
        <ele>1280.2</ele>
        <time>2024-10-11T10:18:30Z</time>
      </trkpt>
      <trkpt lat="42.74954" lon="1.84385">
        <ele>1278.4</ele>
        <time>2024-10-11T10:18:31Z</time>
      </trkpt>
      <trkpt lat="42.74949" lon="1.84384">
        <ele>1278.4</ele>
        <time>2024-10-11T10:18:32Z</time>
      </trkpt>
      <trkpt lat="42.74933" lon="1.84383">
        <ele>1277.4</ele>
        <time>2024-10-11T10:18:33Z</time>
      </trkpt>
      <trkpt lat="42.74928" lon="1.84383">
        <ele>1273.6</ele>
        <time>2024-10-11T10:18:34Z</time>
      </trkpt>
      <trkpt lat="42.74911" lon="1.84381">
        <ele>1273.6</ele>
        <time>2024-10-11T10:18:35Z</time>
      </trkpt>
      <trkpt lat="42.74905" lon="1.8438">
        <ele>1273.6</ele>
        <time>2024-10-11T10:18:36Z</time>
      </trkpt>
      <trkpt lat="42.74887" lon="1.84379">
        <ele>1273.6</ele>
        <time>2024-10-11T10:18:37Z</time>
      </trkpt>
      <trkpt lat="42.74881" lon="1.84378">
        <ele>1272.6</ele>
        <time>2024-10-11T10:18:38Z</time>
      </trkpt>
      <trkpt lat="42.74863" lon="1.84375">
        <ele>1268.6</ele>
        <time>2024-10-11T10:18:39Z</time>
      </trkpt>
      <trkpt lat="42.74857" lon="1.84374">
        <ele>1268.6</ele>
        <time>2024-10-11T10:18:40Z</time>
      </trkpt>
      <trkpt lat="42.74839" lon="1.84367">
        <ele>1268.6</ele>
        <time>2024-10-11T10:18:41Z</time>
      </trkpt>
      <trkpt lat="42.74833" lon="1.84364">
        <ele>1267.6</ele>
        <time>2024-10-11T10:18:42Z</time>
      </trkpt>
      <trkpt lat="42.74816" lon="1.84355">
        <ele>1262.2</ele>
        <time>2024-10-11T10:18:43Z</time>
      </trkpt>
      <trkpt lat="42.74811" lon="1.84352">
        <ele>1262.2</ele>
        <time>2024-10-11T10:18:44Z</time>
      </trkpt>
      <trkpt lat="42.74801" lon="1.84345">
        <ele>1262.2</ele>
        <time>2024-10-11T10:18:45Z</time>
      </trkpt>
      <trkpt lat="42.74792" lon="1.84334">
        <ele>1261.2</ele>
        <time>2024-10-11T10:18:46Z</time>
      </trkpt>
      <trkpt lat="42.74782" lon="1.84323">
        <ele>1261.2</ele>
        <time>2024-10-11T10:18:47Z</time>
      </trkpt>
      <trkpt lat="42.74772" lon="1.84311">
        <ele>1255.6</ele>
        <time>2024-10-11T10:18:48Z</time>
      </trkpt>
      <trkpt lat="42.74762" lon="1.84299">
        <ele>1255.6</ele>
        <time>2024-10-11T10:18:49Z</time>
      </trkpt>
      <trkpt lat="42.74751" lon="1.84287">
        <ele>1255.6</ele>
        <time>2024-10-11T10:18:50Z</time>
      </trkpt>
      <trkpt lat="42.7474" lon="1.84274">
        <ele>1254.6</ele>
        <time>2024-10-11T10:18:51Z</time>
      </trkpt>
      <trkpt lat="42.74729" lon="1.84261">
        <ele>1248.4</ele>
        <time>2024-10-11T10:18:52Z</time>
      </trkpt>
      <trkpt lat="42.74717" lon="1.84248">
        <ele>1248.4</ele>
        <time>2024-10-11T10:18:53Z</time>
      </trkpt>
      <trkpt lat="42.74706" lon="1.84237">
        <ele>1248.4</ele>
        <time>2024-10-11T10:18:54Z</time>
      </trkpt>
      <trkpt lat="42.74696" lon="1.84224">
        <ele>1247.4</ele>
        <time>2024-10-11T10:18:55Z</time>
      </trkpt>
      <trkpt lat="42.74686" lon="1.84211">
        <ele>1244</ele>
        <time>2024-10-11T10:18:56Z</time>
      </trkpt>
      <trkpt lat="42.74677" lon="1.84197">
        <ele>1244</ele>
        <time>2024-10-11T10:18:57Z</time>
      </trkpt>
      <trkpt lat="42.74668" lon="1.84183">
        <ele>1244</ele>
        <time>2024-10-11T10:18:58Z</time>
      </trkpt>
      <trkpt lat="42.74661" lon="1.84167">
        <ele>1244</ele>
        <time>2024-10-11T10:18:59Z</time>
      </trkpt>
      <trkpt lat="42.74654" lon="1.8415">
        <ele>1243</ele>
        <time>2024-10-11T10:19:00Z</time>
      </trkpt>
      <trkpt lat="42.74649" lon="1.84133">
        <ele>1238</ele>
        <time>2024-10-11T10:19:01Z</time>
      </trkpt>
      <trkpt lat="42.74644" lon="1.84116">
        <ele>1238</ele>
        <time>2024-10-11T10:19:02Z</time>
      </trkpt>
      <trkpt lat="42.74639" lon="1.84098">
        <ele>1238</ele>
        <time>2024-10-11T10:19:03Z</time>
      </trkpt>
      <trkpt lat="42.74634" lon="1.84081">
        <ele>1237</ele>
        <time>2024-10-11T10:19:04Z</time>
      </trkpt>
      <trkpt lat="42.74629" lon="1.84064">
        <ele>1234.4</ele>
        <time>2024-10-11T10:19:05Z</time>
      </trkpt>
      <trkpt lat="42.74625" lon="1.84046">
        <ele>1234.4</ele>
        <time>2024-10-11T10:19:06Z</time>
      </trkpt>
      <trkpt lat="42.74622" lon="1.84028">
        <ele>1234.4</ele>
        <time>2024-10-11T10:19:07Z</time>
      </trkpt>
      <trkpt lat="42.74616" lon="1.84002">
        <ele>1234.4</ele>
        <time>2024-10-11T10:19:08Z</time>
      </trkpt>
      <trkpt lat="42.74614" lon="1.83993">
        <ele>1229.8</ele>
        <time>2024-10-11T10:19:09Z</time>
      </trkpt>
      <trkpt lat="42.74606" lon="1.83967">
        <ele>1229.8</ele>
        <time>2024-10-11T10:19:10Z</time>
      </trkpt>
      <trkpt lat="42.74603" lon="1.83959">
        <ele>1229.8</ele>
        <time>2024-10-11T10:19:11Z</time>
      </trkpt>
      <trkpt lat="42.74596" lon="1.83943">
        <ele>1229.8</ele>
        <time>2024-10-11T10:19:12Z</time>
      </trkpt>
      <trkpt lat="42.74585" lon="1.83919">
        <ele>1229.8</ele>
        <time>2024-10-11T10:19:13Z</time>
      </trkpt>
      <trkpt lat="42.74581" lon="1.83912">
        <ele>1228.8</ele>
        <time>2024-10-11T10:19:14Z</time>
      </trkpt>
      <trkpt lat="42.74573" lon="1.83896">
        <ele>1225.2</ele>
        <time>2024-10-11T10:19:15Z</time>
      </trkpt>
      <trkpt lat="42.74565" lon="1.83881">
        <ele>1225.2</ele>
        <time>2024-10-11T10:19:16Z</time>
      </trkpt>
      <trkpt lat="42.74554" lon="1.83858">
        <ele>1225.2</ele>
        <time>2024-10-11T10:19:17Z</time>
      </trkpt>
      <trkpt lat="42.74551" lon="1.8385">
        <ele>1224.2</ele>
        <time>2024-10-11T10:19:18Z</time>
      </trkpt>
      <trkpt lat="42.74539" lon="1.83827">
        <ele>1220.8</ele>
        <time>2024-10-11T10:19:19Z</time>
      </trkpt>
      <trkpt lat="42.74535" lon="1.8382">
        <ele>1220.8</ele>
        <time>2024-10-11T10:19:20Z</time>
      </trkpt>
      <trkpt lat="42.74523" lon="1.83798">
        <ele>1220.8</ele>
        <time>2024-10-11T10:19:21Z</time>
      </trkpt>
      <trkpt lat="42.74518" lon="1.83791">
        <ele>1220.8</ele>
        <time>2024-10-11T10:19:22Z</time>
      </trkpt>
      <trkpt lat="42.74504" lon="1.83772">
        <ele>1217</ele>
        <time>2024-10-11T10:19:23Z</time>
      </trkpt>
      <trkpt lat="42.74499" lon="1.83766">
        <ele>1217</ele>
        <time>2024-10-11T10:19:24Z</time>
      </trkpt>
      <trkpt lat="42.74488" lon="1.83755">
        <ele>1217</ele>
        <time>2024-10-11T10:19:25Z</time>
      </trkpt>
      <trkpt lat="42.74477" lon="1.83744">
        <ele>1217</ele>
        <time>2024-10-11T10:19:26Z</time>
      </trkpt>
      <trkpt lat="42.74467" lon="1.83734">
        <ele>1216</ele>
        <time>2024-10-11T10:19:27Z</time>
      </trkpt>
      <trkpt lat="42.74456" lon="1.83725">
        <ele>1212.8</ele>
        <time>2024-10-11T10:19:28Z</time>
      </trkpt>
      <trkpt lat="42.74444" lon="1.83717">
        <ele>1212.8</ele>
        <time>2024-10-11T10:19:29Z</time>
      </trkpt>
      <trkpt lat="42.74432" lon="1.83709">
        <ele>1212.8</ele>
        <time>2024-10-11T10:19:30Z</time>
      </trkpt>
      <trkpt lat="42.7442" lon="1.83702">
        <ele>1211.8</ele>
        <time>2024-10-11T10:19:31Z</time>
      </trkpt>
      <trkpt lat="42.74409" lon="1.83696">
        <ele>1211.8</ele>
        <time>2024-10-11T10:19:32Z</time>
      </trkpt>
      <trkpt lat="42.74397" lon="1.83689">
        <ele>1208.6</ele>
        <time>2024-10-11T10:19:33Z</time>
      </trkpt>
      <trkpt lat="42.74385" lon="1.83682">
        <ele>1208.6</ele>
        <time>2024-10-11T10:19:34Z</time>
      </trkpt>
      <trkpt lat="42.74373" lon="1.83676">
        <ele>1208.6</ele>
        <time>2024-10-11T10:19:35Z</time>
      </trkpt>
      <trkpt lat="42.74362" lon="1.83669">
        <ele>1207.6</ele>
        <time>2024-10-11T10:19:36Z</time>
      </trkpt>
      <trkpt lat="42.74349" lon="1.83663">
        <ele>1204.4</ele>
        <time>2024-10-11T10:19:37Z</time>
      </trkpt>
      <trkpt lat="42.74337" lon="1.83657">
        <ele>1204.4</ele>
        <time>2024-10-11T10:19:38Z</time>
      </trkpt>
      <trkpt lat="42.74326" lon="1.83648">
        <ele>1204.4</ele>
        <time>2024-10-11T10:19:39Z</time>
      </trkpt>
      <trkpt lat="42.74315" lon="1.83639">
        <ele>1203.4</ele>
        <time>2024-10-11T10:19:40Z</time>
      </trkpt>
      <trkpt lat="42.74305" lon="1.8363">
        <ele>1199.6</ele>
        <time>2024-10-11T10:19:41Z</time>
      </trkpt>
      <trkpt lat="42.74295" lon="1.83618">
        <ele>1199.6</ele>
        <time>2024-10-11T10:19:42Z</time>
      </trkpt>
      <trkpt lat="42.74288" lon="1.83605">
        <ele>1199.6</ele>
        <time>2024-10-11T10:19:43Z</time>
      </trkpt>
      <trkpt lat="42.74282" lon="1.83592">
        <ele>1198.6</ele>
        <time>2024-10-11T10:19:44Z</time>
      </trkpt>
      <trkpt lat="42.74278" lon="1.83579">
        <ele>1195</ele>
        <time>2024-10-11T10:19:45Z</time>
      </trkpt>
      <trkpt lat="42.74272" lon="1.83566">
        <ele>1195</ele>
        <time>2024-10-11T10:19:46Z</time>
      </trkpt>
      <trkpt lat="42.74266" lon="1.83555">
        <ele>1195</ele>
        <time>2024-10-11T10:19:47Z</time>
      </trkpt>
      <trkpt lat="42.74258" lon="1.83544">
        <ele>1195</ele>
        <time>2024-10-11T10:19:48Z</time>
      </trkpt>
      <trkpt lat="42.74245" lon="1.83532">
        <ele>1194</ele>
        <time>2024-10-11T10:19:49Z</time>
      </trkpt>
      <trkpt lat="42.74241" lon="1.83528">
        <ele>1191</ele>
        <time>2024-10-11T10:19:50Z</time>
      </trkpt>
      <trkpt lat="42.74228" lon="1.83516">
        <ele>1191</ele>
        <time>2024-10-11T10:19:51Z</time>
      </trkpt>
      <trkpt lat="42.74224" lon="1.83512">
        <ele>1191</ele>
        <time>2024-10-11T10:19:52Z</time>
      </trkpt>
      <trkpt lat="42.7421" lon="1.83501">
        <ele>1190</ele>
        <time>2024-10-11T10:19:53Z</time>
      </trkpt>
      <trkpt lat="42.74205" lon="1.83497">
        <ele>1186.8</ele>
        <time>2024-10-11T10:19:54Z</time>
      </trkpt>
      <trkpt lat="42.74191" lon="1.83485">
        <ele>1186.8</ele>
        <time>2024-10-11T10:19:55Z</time>
      </trkpt>
      <trkpt lat="42.74186" lon="1.83481">
        <ele>1186.8</ele>
        <time>2024-10-11T10:19:56Z</time>
      </trkpt>
      <trkpt lat="42.74171" lon="1.83467">
        <ele>1186.8</ele>
        <time>2024-10-11T10:19:57Z</time>
      </trkpt>
      <trkpt lat="42.74166" lon="1.83462">
        <ele>1185.8</ele>
        <time>2024-10-11T10:19:58Z</time>
      </trkpt>
      <trkpt lat="42.74152" lon="1.83448">
        <ele>1183</ele>
        <time>2024-10-11T10:19:59Z</time>
      </trkpt>
      <trkpt lat="42.74147" lon="1.83443">
        <ele>1183</ele>
        <time>2024-10-11T10:20:00Z</time>
      </trkpt>
      <trkpt lat="42.74132" lon="1.83428">
        <ele>1183</ele>
        <time>2024-10-11T10:20:01Z</time>
      </trkpt>
      <trkpt lat="42.74127" lon="1.83424">
        <ele>1183</ele>
        <time>2024-10-11T10:20:02Z</time>
      </trkpt>
      <trkpt lat="42.7411" lon="1.83411">
        <ele>1182</ele>
        <time>2024-10-11T10:20:03Z</time>
      </trkpt>
      <trkpt lat="42.74104" lon="1.83408">
        <ele>1177.6</ele>
        <time>2024-10-11T10:20:04Z</time>
      </trkpt>
      <trkpt lat="42.74093" lon="1.83402">
        <ele>1177.6</ele>
        <time>2024-10-11T10:20:05Z</time>
      </trkpt>
      <trkpt lat="42.74079" lon="1.83397">
        <ele>1177.6</ele>
        <time>2024-10-11T10:20:06Z</time>
      </trkpt>
      <trkpt lat="42.7406" lon="1.8339">
        <ele>1176.6</ele>
        <time>2024-10-11T10:20:07Z</time>
      </trkpt>
      <trkpt lat="42.74053" lon="1.83388">
        <ele>1173</ele>
        <time>2024-10-11T10:20:08Z</time>
      </trkpt>
      <trkpt lat="42.7404" lon="1.83384">
        <ele>1173</ele>
        <time>2024-10-11T10:20:09Z</time>
      </trkpt>
      <trkpt lat="42.74027" lon="1.83382">
        <ele>1173</ele>
        <time>2024-10-11T10:20:10Z</time>
      </trkpt>
      <trkpt lat="42.74014" lon="1.8338">
        <ele>1172</ele>
        <time>2024-10-11T10:20:11Z</time>
      </trkpt>
      <trkpt lat="42.74" lon="1.83379">
        <ele>1168.2</ele>
        <time>2024-10-11T10:20:12Z</time>
      </trkpt>
      <trkpt lat="42.73986" lon="1.83377">
        <ele>1168.2</ele>
        <time>2024-10-11T10:20:13Z</time>
      </trkpt>
      <trkpt lat="42.73973" lon="1.83376">
        <ele>1168.2</ele>
        <time>2024-10-11T10:20:14Z</time>
      </trkpt>
      <trkpt lat="42.73959" lon="1.83374">
        <ele>1168.2</ele>
        <time>2024-10-11T10:20:15Z</time>
      </trkpt>
      <trkpt lat="42.73946" lon="1.83374">
        <ele>1167.2</ele>
        <time>2024-10-11T10:20:16Z</time>
      </trkpt>
      <trkpt lat="42.73933" lon="1.83375">
        <ele>1163</ele>
        <time>2024-10-11T10:20:17Z</time>
      </trkpt>
      <trkpt lat="42.73919" lon="1.83377">
        <ele>1163</ele>
        <time>2024-10-11T10:20:18Z</time>
      </trkpt>
      <trkpt lat="42.73906" lon="1.83376">
        <ele>1163</ele>
        <time>2024-10-11T10:20:19Z</time>
      </trkpt>
      <trkpt lat="42.73894" lon="1.8337">
        <ele>1162</ele>
        <time>2024-10-11T10:20:20Z</time>
      </trkpt>
      <trkpt lat="42.73878" lon="1.83369">
        <ele>1156.8</ele>
        <time>2024-10-11T10:20:21Z</time>
      </trkpt>
      <trkpt lat="42.73863" lon="1.83368">
        <ele>1156.8</ele>
        <time>2024-10-11T10:20:22Z</time>
      </trkpt>
      <trkpt lat="42.73843" lon="1.83366">
        <ele>1156.8</ele>
        <time>2024-10-11T10:20:23Z</time>
      </trkpt>
      <trkpt lat="42.73836" lon="1.83366">
        <ele>1155.8</ele>
        <time>2024-10-11T10:20:24Z</time>
      </trkpt>
      <trkpt lat="42.73817" lon="1.83368">
        <ele>1152.6</ele>
        <time>2024-10-11T10:20:25Z</time>
      </trkpt>
      <trkpt lat="42.73812" lon="1.8337">
        <ele>1152.6</ele>
        <time>2024-10-11T10:20:26Z</time>
      </trkpt>
      <trkpt lat="42.73796" lon="1.83376">
        <ele>1152.6</ele>
        <time>2024-10-11T10:20:27Z</time>
      </trkpt>
      <trkpt lat="42.73792" lon="1.83378">
        <ele>1151.6</ele>
        <time>2024-10-11T10:20:28Z</time>
      </trkpt>
      <trkpt lat="42.73779" lon="1.83387">
        <ele>1148.2</ele>
        <time>2024-10-11T10:20:29Z</time>
      </trkpt>
      <trkpt lat="42.73775" lon="1.8339">
        <ele>1148.2</ele>
        <time>2024-10-11T10:20:30Z</time>
      </trkpt>
      <trkpt lat="42.73762" lon="1.83398">
        <ele>1148.2</ele>
        <time>2024-10-11T10:20:31Z</time>
      </trkpt>
      <trkpt lat="42.73758" lon="1.83401">
        <ele>1148.2</ele>
        <time>2024-10-11T10:20:32Z</time>
      </trkpt>
      <trkpt lat="42.73744" lon="1.83407">
        <ele>1147.2</ele>
        <time>2024-10-11T10:20:33Z</time>
      </trkpt>
      <trkpt lat="42.73738" lon="1.83409">
        <ele>1144.8</ele>
        <time>2024-10-11T10:20:34Z</time>
      </trkpt>
      <trkpt lat="42.73723" lon="1.83414">
        <ele>1144.8</ele>
        <time>2024-10-11T10:20:35Z</time>
      </trkpt>
      <trkpt lat="42.73718" lon="1.83415">
        <ele>1144.8</ele>
        <time>2024-10-11T10:20:36Z</time>
      </trkpt>
      <trkpt lat="42.73701" lon="1.83422">
        <ele>1143.8</ele>
        <time>2024-10-11T10:20:37Z</time>
      </trkpt>
      <trkpt lat="42.73696" lon="1.83424">
        <ele>1143.8</ele>
        <time>2024-10-11T10:20:38Z</time>
      </trkpt>
      <trkpt lat="42.7368" lon="1.83434">
        <ele>1140.6</ele>
        <time>2024-10-11T10:20:39Z</time>
      </trkpt>
      <trkpt lat="42.73675" lon="1.83438">
        <ele>1140.6</ele>
        <time>2024-10-11T10:20:40Z</time>
      </trkpt>
      <trkpt lat="42.73661" lon="1.83453">
        <ele>1140.6</ele>
        <time>2024-10-11T10:20:41Z</time>
      </trkpt>
      <trkpt lat="42.73657" lon="1.83459">
        <ele>1140.6</ele>
        <time>2024-10-11T10:20:42Z</time>
      </trkpt>
      <trkpt lat="42.73649" lon="1.83476">
        <ele>1139.6</ele>
        <time>2024-10-11T10:20:43Z</time>
      </trkpt>
      <trkpt lat="42.73648" lon="1.83482">
        <ele>1136.2</ele>
        <time>2024-10-11T10:20:44Z</time>
      </trkpt>
      <trkpt lat="42.73646" lon="1.83493">
        <ele>1136.2</ele>
        <time>2024-10-11T10:20:45Z</time>
      </trkpt>
      <trkpt lat="42.73645" lon="1.83502">
        <ele>1136.2</ele>
        <time>2024-10-11T10:20:46Z</time>
      </trkpt>
      <trkpt lat="42.73645" lon="1.83505">
        <ele>1135.2</ele>
        <time>2024-10-11T10:20:47Z</time>
      </trkpt>
      <trkpt lat="42.73646" lon="1.83507">
        <ele>1133.2</ele>
        <time>2024-10-11T10:20:48Z</time>
      </trkpt>
      <trkpt lat="42.73646" lon="1.8351">
        <ele>1133.2</ele>
        <time>2024-10-11T10:20:49Z</time>
      </trkpt>
      <trkpt lat="42.73646" lon="1.83513">
        <ele>1132</ele>
        <time>2024-10-11T10:21:46Z</time>
      </trkpt>
      <trkpt lat="42.73646" lon="1.83515">
        <ele>1132</ele>
        <time>2024-10-11T10:21:47Z</time>
      </trkpt>
      <trkpt lat="42.73646" lon="1.83518">
        <ele>1132</ele>
        <time>2024-10-11T10:21:48Z</time>
      </trkpt>
      <trkpt lat="42.73646" lon="1.83525">
        <ele>1132</ele>
        <time>2024-10-11T10:21:49Z</time>
      </trkpt>
      <trkpt lat="42.73647" lon="1.83533">
        <ele>1130.8</ele>
        <time>2024-10-11T10:21:50Z</time>
      </trkpt>
      <trkpt lat="42.73648" lon="1.83542">
        <ele>1130.8</ele>
        <time>2024-10-11T10:21:51Z</time>
      </trkpt>
      <trkpt lat="42.73649" lon="1.83552">
        <ele>1130.8</ele>
        <time>2024-10-11T10:21:52Z</time>
      </trkpt>
      <trkpt lat="42.7365" lon="1.8356">
        <ele>1129.8</ele>
        <time>2024-10-11T10:21:53Z</time>
      </trkpt>
      <trkpt lat="42.7365" lon="1.83571">
        <ele>1129.8</ele>
        <time>2024-10-11T10:21:54Z</time>
      </trkpt>
      <trkpt lat="42.7365" lon="1.83583">
        <ele>1128.6</ele>
        <time>2024-10-11T10:21:55Z</time>
      </trkpt>
      <trkpt lat="42.7365" lon="1.83595">
        <ele>1128.6</ele>
        <time>2024-10-11T10:21:56Z</time>
      </trkpt>
      <trkpt lat="42.73649" lon="1.83608">
        <ele>1128.6</ele>
        <time>2024-10-11T10:21:57Z</time>
      </trkpt>
      <trkpt lat="42.73648" lon="1.83621">
        <ele>1127.6</ele>
        <time>2024-10-11T10:21:58Z</time>
      </trkpt>
      <trkpt lat="42.73646" lon="1.83634">
        <ele>1125.6</ele>
        <time>2024-10-11T10:21:59Z</time>
      </trkpt>
      <trkpt lat="42.73644" lon="1.83647">
        <ele>1125.6</ele>
        <time>2024-10-11T10:22:00Z</time>
      </trkpt>
      <trkpt lat="42.73641" lon="1.83661">
        <ele>1125.6</ele>
        <time>2024-10-11T10:22:01Z</time>
      </trkpt>
      <trkpt lat="42.7364" lon="1.83675">
        <ele>1124.6</ele>
        <time>2024-10-11T10:22:02Z</time>
      </trkpt>
      <trkpt lat="42.73637" lon="1.8369">
        <ele>1121.8</ele>
        <time>2024-10-11T10:22:03Z</time>
      </trkpt>
      <trkpt lat="42.73633" lon="1.83704">
        <ele>1121.8</ele>
        <time>2024-10-11T10:22:04Z</time>
      </trkpt>
      <trkpt lat="42.73629" lon="1.83719">
        <ele>1121.8</ele>
        <time>2024-10-11T10:22:05Z</time>
      </trkpt>
      <trkpt lat="42.73624" lon="1.83734">
        <ele>1121.8</ele>
        <time>2024-10-11T10:22:06Z</time>
      </trkpt>
      <trkpt lat="42.73619" lon="1.83749">
        <ele>1120.8</ele>
        <time>2024-10-11T10:22:07Z</time>
      </trkpt>
      <trkpt lat="42.73614" lon="1.83764">
        <ele>1120.8</ele>
        <time>2024-10-11T10:22:08Z</time>
      </trkpt>
      <trkpt lat="42.73609" lon="1.83778">
        <ele>1118</ele>
        <time>2024-10-11T10:22:09Z</time>
      </trkpt>
      <trkpt lat="42.736" lon="1.83801">
        <ele>1118</ele>
        <time>2024-10-11T10:22:10Z</time>
      </trkpt>
      <trkpt lat="42.73598" lon="1.83809">
        <ele>1118</ele>
        <time>2024-10-11T10:22:11Z</time>
      </trkpt>
      <trkpt lat="42.73592" lon="1.83824">
        <ele>1118</ele>
        <time>2024-10-11T10:22:12Z</time>
      </trkpt>
      <trkpt lat="42.73586" lon="1.83839">
        <ele>1113.4</ele>
        <time>2024-10-11T10:22:13Z</time>
      </trkpt>
      <trkpt lat="42.7358" lon="1.83855">
        <ele>1113.4</ele>
        <time>2024-10-11T10:22:14Z</time>
      </trkpt>
      <trkpt lat="42.73574" lon="1.83871">
        <ele>1113.4</ele>
        <time>2024-10-11T10:22:15Z</time>
      </trkpt>
      <trkpt lat="42.73563" lon="1.83894">
        <ele>1113.4</ele>
        <time>2024-10-11T10:22:16Z</time>
      </trkpt>
      <trkpt lat="42.7356" lon="1.83901">
        <ele>1109.2</ele>
        <time>2024-10-11T10:22:17Z</time>
      </trkpt>
      <trkpt lat="42.73553" lon="1.83917">
        <ele>1109.2</ele>
        <time>2024-10-11T10:22:18Z</time>
      </trkpt>
      <trkpt lat="42.73548" lon="1.83934">
        <ele>1109.2</ele>
        <time>2024-10-11T10:22:19Z</time>
      </trkpt>
      <trkpt lat="42.73545" lon="1.83961">
        <ele>1109.2</ele>
        <time>2024-10-11T10:22:20Z</time>
      </trkpt>
      <trkpt lat="42.73543" lon="1.8397">
        <ele>1108.2</ele>
        <time>2024-10-11T10:22:21Z</time>
      </trkpt>
      <trkpt lat="42.73539" lon="1.83998">
        <ele>1104</ele>
        <time>2024-10-11T10:22:22Z</time>
      </trkpt>
      <trkpt lat="42.73538" lon="1.84007">
        <ele>1104</ele>
        <time>2024-10-11T10:22:23Z</time>
      </trkpt>
      <trkpt lat="42.73534" lon="1.84026">
        <ele>1104</ele>
        <time>2024-10-11T10:22:24Z</time>
      </trkpt>
      <trkpt lat="42.73531" lon="1.84044">
        <ele>1103</ele>
        <time>2024-10-11T10:22:25Z</time>
      </trkpt>
      <trkpt lat="42.73528" lon="1.84064">
        <ele>1099</ele>
        <time>2024-10-11T10:22:26Z</time>
      </trkpt>
      <trkpt lat="42.73525" lon="1.84082">
        <ele>1099</ele>
        <time>2024-10-11T10:22:27Z</time>
      </trkpt>
      <trkpt lat="42.73518" lon="1.84099">
        <ele>1099</ele>
        <time>2024-10-11T10:22:28Z</time>
      </trkpt>
      <trkpt lat="42.73507" lon="1.84123">
        <ele>1098</ele>
        <time>2024-10-11T10:22:29Z</time>
      </trkpt>
      <trkpt lat="42.73504" lon="1.84132">
        <ele>1098</ele>
        <time>2024-10-11T10:22:30Z</time>
      </trkpt>
      <trkpt lat="42.73492" lon="1.84157">
        <ele>1093.4</ele>
        <time>2024-10-11T10:22:31Z</time>
      </trkpt>
      <trkpt lat="42.73488" lon="1.84165">
        <ele>1093.4</ele>
        <time>2024-10-11T10:22:32Z</time>
      </trkpt>
      <trkpt lat="42.73476" lon="1.84189">
        <ele>1093.4</ele>
        <time>2024-10-11T10:22:33Z</time>
      </trkpt>
      <trkpt lat="42.73472" lon="1.84198">
        <ele>1092.4</ele>
        <time>2024-10-11T10:22:34Z</time>
      </trkpt>
      <trkpt lat="42.7346" lon="1.84222">
        <ele>1088.2</ele>
        <time>2024-10-11T10:22:35Z</time>
      </trkpt>
      <trkpt lat="42.73456" lon="1.8423">
        <ele>1088.2</ele>
        <time>2024-10-11T10:22:36Z</time>
      </trkpt>
      <trkpt lat="42.73448" lon="1.84247">
        <ele>1088.2</ele>
        <time>2024-10-11T10:22:37Z</time>
      </trkpt>
      <trkpt lat="42.7344" lon="1.84263">
        <ele>1087.2</ele>
        <time>2024-10-11T10:22:38Z</time>
      </trkpt>
      <trkpt lat="42.7343" lon="1.84277">
        <ele>1087.2</ele>
        <time>2024-10-11T10:22:39Z</time>
      </trkpt>
      <trkpt lat="42.73419" lon="1.84289">
        <ele>1082.4</ele>
        <time>2024-10-11T10:22:40Z</time>
      </trkpt>
      <trkpt lat="42.73409" lon="1.84303">
        <ele>1082.4</ele>
        <time>2024-10-11T10:22:41Z</time>
      </trkpt>
      <trkpt lat="42.734" lon="1.84318">
        <ele>1081.4</ele>
        <time>2024-10-11T10:22:42Z</time>
      </trkpt>
      <trkpt lat="42.73391" lon="1.84334">
        <ele>1081.4</ele>
        <time>2024-10-11T10:22:43Z</time>
      </trkpt>
      <trkpt lat="42.73381" lon="1.84348">
        <ele>1076.6</ele>
        <time>2024-10-11T10:22:44Z</time>
      </trkpt>
      <trkpt lat="42.73371" lon="1.84363">
        <ele>1076.6</ele>
        <time>2024-10-11T10:22:45Z</time>
      </trkpt>
      <trkpt lat="42.73362" lon="1.84378">
        <ele>1076.6</ele>
        <time>2024-10-11T10:22:46Z</time>
      </trkpt>
      <trkpt lat="42.73355" lon="1.84396">
        <ele>1076.6</ele>
        <time>2024-10-11T10:22:47Z</time>
      </trkpt>
      <trkpt lat="42.73348" lon="1.84413">
        <ele>1071</ele>
        <time>2024-10-11T10:22:48Z</time>
      </trkpt>
      <trkpt lat="42.73341" lon="1.84431">
        <ele>1071</ele>
        <time>2024-10-11T10:22:49Z</time>
      </trkpt>
      <trkpt lat="42.73332" lon="1.84448">
        <ele>1071</ele>
        <time>2024-10-11T10:22:50Z</time>
      </trkpt>
      <trkpt lat="42.73324" lon="1.84464">
        <ele>1071</ele>
        <time>2024-10-11T10:22:51Z</time>
      </trkpt>
      <trkpt lat="42.73315" lon="1.8448">
        <ele>1070</ele>
        <time>2024-10-11T10:22:52Z</time>
      </trkpt>
      <trkpt lat="42.73305" lon="1.84497">
        <ele>1065.6</ele>
        <time>2024-10-11T10:22:53Z</time>
      </trkpt>
      <trkpt lat="42.73296" lon="1.84513">
        <ele>1065.6</ele>
        <time>2024-10-11T10:22:54Z</time>
      </trkpt>
      <trkpt lat="42.73286" lon="1.84528">
        <ele>1065.6</ele>
        <time>2024-10-11T10:22:55Z</time>
      </trkpt>
      <trkpt lat="42.73274" lon="1.84541">
        <ele>1064.6</ele>
        <time>2024-10-11T10:22:56Z</time>
      </trkpt>
      <trkpt lat="42.73261" lon="1.84552">
        <ele>1064.6</ele>
        <time>2024-10-11T10:22:57Z</time>
      </trkpt>
      <trkpt lat="42.73247" lon="1.84562">
        <ele>1060</ele>
        <time>2024-10-11T10:22:58Z</time>
      </trkpt>
      <trkpt lat="42.73227" lon="1.84576">
        <ele>1060</ele>
        <time>2024-10-11T10:22:59Z</time>
      </trkpt>
      <trkpt lat="42.7322" lon="1.84581">
        <ele>1060</ele>
        <time>2024-10-11T10:23:00Z</time>
      </trkpt>
      <trkpt lat="42.732" lon="1.84595">
        <ele>1060</ele>
        <time>2024-10-11T10:23:01Z</time>
      </trkpt>
      <trkpt lat="42.73193" lon="1.846">
        <ele>1055.2</ele>
        <time>2024-10-11T10:23:02Z</time>
      </trkpt>
      <trkpt lat="42.73173" lon="1.84614">
        <ele>1055.2</ele>
        <time>2024-10-11T10:23:03Z</time>
      </trkpt>
      <trkpt lat="42.73166" lon="1.84618">
        <ele>1055.2</ele>
        <time>2024-10-11T10:23:04Z</time>
      </trkpt>
      <trkpt lat="42.73146" lon="1.84632">
        <ele>1054.2</ele>
        <time>2024-10-11T10:23:05Z</time>
      </trkpt>
      <trkpt lat="42.7314" lon="1.84636">
        <ele>1049.8</ele>
        <time>2024-10-11T10:23:06Z</time>
      </trkpt>
      <trkpt lat="42.7312" lon="1.84651">
        <ele>1049.8</ele>
        <time>2024-10-11T10:23:07Z</time>
      </trkpt>
      <trkpt lat="42.73114" lon="1.84656">
        <ele>1049.8</ele>
        <time>2024-10-11T10:23:08Z</time>
      </trkpt>
      <trkpt lat="42.73095" lon="1.84672">
        <ele>1049.8</ele>
        <time>2024-10-11T10:23:09Z</time>
      </trkpt>
      <trkpt lat="42.73088" lon="1.84677">
        <ele>1049.8</ele>
        <time>2024-10-11T10:23:10Z</time>
      </trkpt>
      <trkpt lat="42.7307" lon="1.84695">
        <ele>1044.2</ele>
        <time>2024-10-11T10:23:11Z</time>
      </trkpt>
      <trkpt lat="42.73065" lon="1.84702">
        <ele>1044.2</ele>
        <time>2024-10-11T10:23:12Z</time>
      </trkpt>
      <trkpt lat="42.73049" lon="1.84723">
        <ele>1044.2</ele>
        <time>2024-10-11T10:23:13Z</time>
      </trkpt>
      <trkpt lat="42.73044" lon="1.84731">
        <ele>1043.2</ele>
        <time>2024-10-11T10:23:14Z</time>
      </trkpt>
      <trkpt lat="42.7303" lon="1.84754">
        <ele>1038.6</ele>
        <time>2024-10-11T10:23:15Z</time>
      </trkpt>
      <trkpt lat="42.73026" lon="1.84761">
        <ele>1038.6</ele>
        <time>2024-10-11T10:23:16Z</time>
      </trkpt>
      <trkpt lat="42.73017" lon="1.84775">
        <ele>1038.6</ele>
        <time>2024-10-11T10:23:17Z</time>
      </trkpt>
      <trkpt lat="42.7301" lon="1.84788">
        <ele>1037.6</ele>
        <time>2024-10-11T10:23:18Z</time>
      </trkpt>
      <trkpt lat="42.73002" lon="1.848">
        <ele>1037.6</ele>
        <time>2024-10-11T10:23:19Z</time>
      </trkpt>
      <trkpt lat="42.72995" lon="1.84808">
        <ele>1035.8</ele>
        <time>2024-10-11T10:23:20Z</time>
      </trkpt>
      <trkpt lat="42.72986" lon="1.84813">
        <ele>1035.8</ele>
        <time>2024-10-11T10:23:21Z</time>
      </trkpt>
      <trkpt lat="42.72978" lon="1.84813">
        <ele>1035.8</ele>
        <time>2024-10-11T10:23:22Z</time>
      </trkpt>
      <trkpt lat="42.72972" lon="1.84812">
        <ele>1034.8</ele>
        <time>2024-10-11T10:23:23Z</time>
      </trkpt>
      <trkpt lat="42.72968" lon="1.8481">
        <ele>1034.4</ele>
        <time>2024-10-11T10:23:24Z</time>
      </trkpt>
      <trkpt lat="42.72965" lon="1.84808">
        <ele>1034.4</ele>
        <time>2024-10-11T10:23:25Z</time>
      </trkpt>
      <trkpt lat="42.72962" lon="1.84808">
        <ele>1034.4</ele>
        <time>2024-10-11T10:23:26Z</time>
      </trkpt>
      <trkpt lat="42.7296" lon="1.84807">
        <ele>1034</ele>
        <time>2024-10-11T10:23:27Z</time>
      </trkpt>
      <trkpt lat="42.7296" lon="1.84806">
        <ele>1034</ele>
        <time>2024-10-11T10:23:28Z</time>
      </trkpt>
      <trkpt lat="42.72959" lon="1.84807">
        <ele>1034</ele>
        <time>2024-10-11T10:23:29Z</time>
      </trkpt>
      <trkpt lat="42.72959" lon="1.84807">
        <ele>1034</ele>
        <time>2024-10-11T10:23:30Z</time>
      </trkpt>
      <trkpt lat="42.72955" lon="1.84808">
        <ele>1033.2</ele>
        <time>2024-10-11T10:24:37Z</time>
      </trkpt>
      <trkpt lat="42.72953" lon="1.84808">
        <ele>1033.2</ele>
        <time>2024-10-11T10:24:38Z</time>
      </trkpt>
      <trkpt lat="42.7295" lon="1.84808">
        <ele>1033</ele>
        <time>2024-10-11T10:24:39Z</time>
      </trkpt>
      <trkpt lat="42.72947" lon="1.84807">
        <ele>1033</ele>
        <time>2024-10-11T10:24:40Z</time>
      </trkpt>
      <trkpt lat="42.72944" lon="1.84805">
        <ele>1032.8</ele>
        <time>2024-10-11T10:24:41Z</time>
      </trkpt>
      <trkpt lat="42.7294" lon="1.84803">
        <ele>1032.8</ele>
        <time>2024-10-11T10:24:42Z</time>
      </trkpt>
      <trkpt lat="42.72935" lon="1.84804">
        <ele>1032.4</ele>
        <time>2024-10-11T10:24:43Z</time>
      </trkpt>
      <trkpt lat="42.72929" lon="1.84803">
        <ele>1032.2</ele>
        <time>2024-10-11T10:24:44Z</time>
      </trkpt>
      <trkpt lat="42.72923" lon="1.84802">
        <ele>1032.2</ele>
        <time>2024-10-11T10:24:45Z</time>
      </trkpt>
      <trkpt lat="42.72913" lon="1.84802">
        <ele>1032.2</ele>
        <time>2024-10-11T10:24:46Z</time>
      </trkpt>
      <trkpt lat="42.72909" lon="1.84803">
        <ele>1032.2</ele>
        <time>2024-10-11T10:24:47Z</time>
      </trkpt>
      <trkpt lat="42.72898" lon="1.84808">
        <ele>1031.2</ele>
        <time>2024-10-11T10:24:48Z</time>
      </trkpt>
      <trkpt lat="42.72895" lon="1.84811">
        <ele>1030.4</ele>
        <time>2024-10-11T10:24:49Z</time>
      </trkpt>
      <trkpt lat="42.72885" lon="1.8482">
        <ele>1030.4</ele>
        <time>2024-10-11T10:24:50Z</time>
      </trkpt>
      <trkpt lat="42.72881" lon="1.84824">
        <ele>1030.4</ele>
        <time>2024-10-11T10:24:51Z</time>
      </trkpt>
      <trkpt lat="42.72871" lon="1.84836">
        <ele>1029.4</ele>
        <time>2024-10-11T10:24:52Z</time>
      </trkpt>
      <trkpt lat="42.72867" lon="1.8484">
        <ele>1027.6</ele>
        <time>2024-10-11T10:24:53Z</time>
      </trkpt>
      <trkpt lat="42.72857" lon="1.84854">
        <ele>1027.6</ele>
        <time>2024-10-11T10:24:54Z</time>
      </trkpt>
      <trkpt lat="42.72854" lon="1.84859">
        <ele>1027.6</ele>
        <time>2024-10-11T10:24:55Z</time>
      </trkpt>
      <trkpt lat="42.72844" lon="1.84875">
        <ele>1027.6</ele>
        <time>2024-10-11T10:24:56Z</time>
      </trkpt>
      <trkpt lat="42.72841" lon="1.8488">
        <ele>1026.6</ele>
        <time>2024-10-11T10:24:57Z</time>
      </trkpt>
      <trkpt lat="42.72834" lon="1.8489">
        <ele>1025</ele>
        <time>2024-10-11T10:24:58Z</time>
      </trkpt>
      <trkpt lat="42.72827" lon="1.84901">
        <ele>1025</ele>
        <time>2024-10-11T10:24:59Z</time>
      </trkpt>
      <trkpt lat="42.72821" lon="1.84912">
        <ele>1025</ele>
        <time>2024-10-11T10:25:00Z</time>
      </trkpt>
      <trkpt lat="42.7281" lon="1.84928">
        <ele>1024</ele>
        <time>2024-10-11T10:25:01Z</time>
      </trkpt>
      <trkpt lat="42.72806" lon="1.84934">
        <ele>1021</ele>
        <time>2024-10-11T10:25:02Z</time>
      </trkpt>
      <trkpt lat="42.72799" lon="1.84945">
        <ele>1021</ele>
        <time>2024-10-11T10:25:03Z</time>
      </trkpt>
      <trkpt lat="42.7279" lon="1.84955">
        <ele>1021</ele>
        <time>2024-10-11T10:25:04Z</time>
      </trkpt>
      <trkpt lat="42.72781" lon="1.84963">
        <ele>1020</ele>
        <time>2024-10-11T10:25:05Z</time>
      </trkpt>
      <trkpt lat="42.72771" lon="1.84972">
        <ele>1020</ele>
        <time>2024-10-11T10:25:06Z</time>
      </trkpt>
      <trkpt lat="42.72761" lon="1.84981">
        <ele>1016.6</ele>
        <time>2024-10-11T10:25:07Z</time>
      </trkpt>
      <trkpt lat="42.72751" lon="1.8499">
        <ele>1016.6</ele>
        <time>2024-10-11T10:25:08Z</time>
      </trkpt>
      <trkpt lat="42.72742" lon="1.84999">
        <ele>1016.6</ele>
        <time>2024-10-11T10:25:09Z</time>
      </trkpt>
      <trkpt lat="42.72733" lon="1.85008">
        <ele>1015.6</ele>
        <time>2024-10-11T10:25:10Z</time>
      </trkpt>
      <trkpt lat="42.72724" lon="1.85019">
        <ele>1013.2</ele>
        <time>2024-10-11T10:25:11Z</time>
      </trkpt>
      <trkpt lat="42.72717" lon="1.8503">
        <ele>1013.2</ele>
        <time>2024-10-11T10:25:12Z</time>
      </trkpt>
      <trkpt lat="42.72709" lon="1.85041">
        <ele>1013.2</ele>
        <time>2024-10-11T10:25:13Z</time>
      </trkpt>
      <trkpt lat="42.72701" lon="1.85053">
        <ele>1012.2</ele>
        <time>2024-10-11T10:25:14Z</time>
      </trkpt>
      <trkpt lat="42.72693" lon="1.85066">
        <ele>1008.8</ele>
        <time>2024-10-11T10:25:15Z</time>
      </trkpt>
      <trkpt lat="42.72685" lon="1.85079">
        <ele>1008.8</ele>
        <time>2024-10-11T10:25:16Z</time>
      </trkpt>
      <trkpt lat="42.72678" lon="1.85092">
        <ele>1008.8</ele>
        <time>2024-10-11T10:25:17Z</time>
      </trkpt>
      <trkpt lat="42.7267" lon="1.85106">
        <ele>1008.8</ele>
        <time>2024-10-11T10:25:18Z</time>
      </trkpt>
      <trkpt lat="42.72662" lon="1.85119">
        <ele>1008.8</ele>
        <time>2024-10-11T10:25:19Z</time>
      </trkpt>
      <trkpt lat="42.72655" lon="1.85133">
        <ele>1007.8</ele>
        <time>2024-10-11T10:25:20Z</time>
      </trkpt>
      <trkpt lat="42.72647" lon="1.85147">
        <ele>1007.8</ele>
        <time>2024-10-11T10:25:21Z</time>
      </trkpt>
      <trkpt lat="42.72639" lon="1.8516">
        <ele>1004.8</ele>
        <time>2024-10-11T10:25:22Z</time>
      </trkpt>
      <trkpt lat="42.7263" lon="1.85172">
        <ele>1004.8</ele>
        <time>2024-10-11T10:25:23Z</time>
      </trkpt>
      <trkpt lat="42.72619" lon="1.85184">
        <ele>1003.8</ele>
        <time>2024-10-11T10:25:24Z</time>
      </trkpt>
      <trkpt lat="42.72608" lon="1.85192">
        <ele>1000.8</ele>
        <time>2024-10-11T10:25:25Z</time>
      </trkpt>
      <trkpt lat="42.72595" lon="1.852">
        <ele>1000.8</ele>
        <time>2024-10-11T10:25:26Z</time>
      </trkpt>
      <trkpt lat="42.72583" lon="1.85207">
        <ele>1000.8</ele>
        <time>2024-10-11T10:25:27Z</time>
      </trkpt>
      <trkpt lat="42.7257" lon="1.85215">
        <ele>999.8</ele>
        <time>2024-10-11T10:25:28Z</time>
      </trkpt>
      <trkpt lat="42.72558" lon="1.85223">
        <ele>994.6</ele>
        <time>2024-10-11T10:25:29Z</time>
      </trkpt>
      <trkpt lat="42.72545" lon="1.85234">
        <ele>994.6</ele>
        <time>2024-10-11T10:25:30Z</time>
      </trkpt>
      <trkpt lat="42.72532" lon="1.85254">
        <ele>994.6</ele>
        <time>2024-10-11T10:25:31Z</time>
      </trkpt>
      <trkpt lat="42.72528" lon="1.85261">
        <ele>994.6</ele>
        <time>2024-10-11T10:25:32Z</time>
      </trkpt>
      <trkpt lat="42.72516" lon="1.85283">
        <ele>993.6</ele>
        <time>2024-10-11T10:25:33Z</time>
      </trkpt>
      <trkpt lat="42.72512" lon="1.8529">
        <ele>990.4</ele>
        <time>2024-10-11T10:25:34Z</time>
      </trkpt>
      <trkpt lat="42.725" lon="1.85313">
        <ele>990.4</ele>
        <time>2024-10-11T10:25:35Z</time>
      </trkpt>
      <trkpt lat="42.72497" lon="1.85321">
        <ele>990.4</ele>
        <time>2024-10-11T10:25:36Z</time>
      </trkpt>
      <trkpt lat="42.72484" lon="1.85343">
        <ele>989.4</ele>
        <time>2024-10-11T10:25:37Z</time>
      </trkpt>
      <trkpt lat="42.72479" lon="1.85349">
        <ele>989.4</ele>
        <time>2024-10-11T10:25:38Z</time>
      </trkpt>
      <trkpt lat="42.72465" lon="1.85368">
        <ele>986</ele>
        <time>2024-10-11T10:25:39Z</time>
      </trkpt>
      <trkpt lat="42.7246" lon="1.85373">
        <ele>986</ele>
        <time>2024-10-11T10:25:40Z</time>
      </trkpt>
      <trkpt lat="42.72445" lon="1.8539">
        <ele>986</ele>
        <time>2024-10-11T10:25:41Z</time>
      </trkpt>
      <trkpt lat="42.7244" lon="1.85396">
        <ele>986</ele>
        <time>2024-10-11T10:25:42Z</time>
      </trkpt>
      <trkpt lat="42.72425" lon="1.85416">
        <ele>980.4</ele>
        <time>2024-10-11T10:25:43Z</time>
      </trkpt>
      <trkpt lat="42.7242" lon="1.85424">
        <ele>980.4</ele>
        <time>2024-10-11T10:25:44Z</time>
      </trkpt>
      <trkpt lat="42.72407" lon="1.85447">
        <ele>980.4</ele>
        <time>2024-10-11T10:25:45Z</time>
      </trkpt>
      <trkpt lat="42.72403" lon="1.85455">
        <ele>979.4</ele>
        <time>2024-10-11T10:25:46Z</time>
      </trkpt>
      <trkpt lat="42.72395" lon="1.85471">
        <ele>976.4</ele>
        <time>2024-10-11T10:25:47Z</time>
      </trkpt>
      <trkpt lat="42.72385" lon="1.85486">
        <ele>976.4</ele>
        <time>2024-10-11T10:25:48Z</time>
      </trkpt>
      <trkpt lat="42.72376" lon="1.855">
        <ele>976.4</ele>
        <time>2024-10-11T10:25:49Z</time>
      </trkpt>
      <trkpt lat="42.72366" lon="1.85515">
        <ele>976.4</ele>
        <time>2024-10-11T10:25:50Z</time>
      </trkpt>
      <trkpt lat="42.72357" lon="1.85529">
        <ele>975.4</ele>
        <time>2024-10-11T10:25:51Z</time>
      </trkpt>
      <trkpt lat="42.72349" lon="1.85544">
        <ele>970.2</ele>
        <time>2024-10-11T10:25:52Z</time>
      </trkpt>
      <trkpt lat="42.72342" lon="1.85559">
        <ele>970.2</ele>
        <time>2024-10-11T10:25:53Z</time>
      </trkpt>
      <trkpt lat="42.72339" lon="1.85577">
        <ele>970.2</ele>
        <time>2024-10-11T10:25:54Z</time>
      </trkpt>
      <trkpt lat="42.72339" lon="1.85594">
        <ele>970.2</ele>
        <time>2024-10-11T10:25:55Z</time>
      </trkpt>
      <trkpt lat="42.7234" lon="1.85611">
        <ele>966.2</ele>
        <time>2024-10-11T10:25:56Z</time>
      </trkpt>
      <trkpt lat="42.72338" lon="1.85629">
        <ele>966.2</ele>
        <time>2024-10-11T10:25:57Z</time>
      </trkpt>
      <trkpt lat="42.72335" lon="1.85645">
        <ele>966.2</ele>
        <time>2024-10-11T10:25:58Z</time>
      </trkpt>
      <trkpt lat="42.72329" lon="1.85662">
        <ele>965.2</ele>
        <time>2024-10-11T10:25:59Z</time>
      </trkpt>
      <trkpt lat="42.72323" lon="1.85678">
        <ele>965.2</ele>
        <time>2024-10-11T10:26:00Z</time>
      </trkpt>
      <trkpt lat="42.72317" lon="1.85693">
        <ele>965.2</ele>
        <time>2024-10-11T10:26:01Z</time>
      </trkpt>
      <trkpt lat="42.72309" lon="1.85707">
        <ele>961</ele>
        <time>2024-10-11T10:26:02Z</time>
      </trkpt>
      <trkpt lat="42.72299" lon="1.85718">
        <ele>961</ele>
        <time>2024-10-11T10:26:03Z</time>
      </trkpt>
      <trkpt lat="42.72288" lon="1.85727">
        <ele>961</ele>
        <time>2024-10-11T10:26:04Z</time>
      </trkpt>
      <trkpt lat="42.72279" lon="1.85734">
        <ele>961</ele>
        <time>2024-10-11T10:26:05Z</time>
      </trkpt>
      <trkpt lat="42.72273" lon="1.85743">
        <ele>961</ele>
        <time>2024-10-11T10:26:06Z</time>
      </trkpt>
      <trkpt lat="42.72272" lon="1.85755">
        <ele>956.6</ele>
        <time>2024-10-11T10:26:07Z</time>
      </trkpt>
      <trkpt lat="42.72278" lon="1.85768">
        <ele>956.6</ele>
        <time>2024-10-11T10:26:08Z</time>
      </trkpt>
      <trkpt lat="42.7228" lon="1.85771">
        <ele>955.6</ele>
        <time>2024-10-11T10:26:09Z</time>
      </trkpt>
      <trkpt lat="42.72284" lon="1.85778">
        <ele>953.8</ele>
        <time>2024-10-11T10:26:10Z</time>
      </trkpt>
      <trkpt lat="42.72283" lon="1.85786">
        <ele>953.8</ele>
        <time>2024-10-11T10:26:11Z</time>
      </trkpt>
      <trkpt lat="42.72276" lon="1.85793">
        <ele>953.8</ele>
        <time>2024-10-11T10:26:12Z</time>
      </trkpt>
      <trkpt lat="42.72273" lon="1.85795">
        <ele>953.8</ele>
        <time>2024-10-11T10:26:13Z</time>
      </trkpt>
      <trkpt lat="42.72267" lon="1.85798">
        <ele>953.8</ele>
        <time>2024-10-11T10:26:14Z</time>
      </trkpt>
      <trkpt lat="42.72262" lon="1.85803">
        <ele>953.4</ele>
        <time>2024-10-11T10:26:15Z</time>
      </trkpt>
      <trkpt lat="42.72257" lon="1.8581">
        <ele>953.4</ele>
        <time>2024-10-11T10:26:16Z</time>
      </trkpt>
      <trkpt lat="42.72255" lon="1.85813">
        <ele>953.4</ele>
        <time>2024-10-11T10:26:17Z</time>
      </trkpt>
      <trkpt lat="42.7225" lon="1.8582">
        <ele>953.4</ele>
        <time>2024-10-11T10:26:18Z</time>
      </trkpt>
      <trkpt lat="42.72248" lon="1.85822">
        <ele>954.2</ele>
        <time>2024-10-11T10:26:19Z</time>
      </trkpt>
      <trkpt lat="42.72243" lon="1.85828">
        <ele>954.2</ele>
        <time>2024-10-11T10:26:20Z</time>
      </trkpt>
      <trkpt lat="42.72241" lon="1.8583">
        <ele>954.2</ele>
        <time>2024-10-11T10:26:21Z</time>
      </trkpt>
      <trkpt lat="42.72236" lon="1.85835">
        <ele>954.2</ele>
        <time>2024-10-11T10:26:22Z</time>
      </trkpt>
      <trkpt lat="42.72235" lon="1.85836">
        <ele>954.2</ele>
        <time>2024-10-11T10:26:23Z</time>
      </trkpt>
      <trkpt lat="42.7223" lon="1.85841">
        <ele>955.4</ele>
        <time>2024-10-11T10:26:24Z</time>
      </trkpt>
      <trkpt lat="42.72229" lon="1.85843">
        <ele>955.4</ele>
        <time>2024-10-11T10:26:25Z</time>
      </trkpt>
      <trkpt lat="42.72224" lon="1.85847">
        <ele>955.4</ele>
        <time>2024-10-11T10:26:26Z</time>
      </trkpt>
      <trkpt lat="42.72223" lon="1.85848">
        <ele>955.4</ele>
        <time>2024-10-11T10:26:27Z</time>
      </trkpt>
      <trkpt lat="42.72219" lon="1.85851">
        <ele>956.4</ele>
        <time>2024-10-11T10:26:28Z</time>
      </trkpt>
      <trkpt lat="42.72216" lon="1.85853">
        <ele>956.4</ele>
        <time>2024-10-11T10:26:29Z</time>
      </trkpt>
      <trkpt lat="42.72213" lon="1.85856">
        <ele>956.4</ele>
        <time>2024-10-11T10:26:30Z</time>
      </trkpt>
      <trkpt lat="42.7221" lon="1.85859">
        <ele>956.4</ele>
        <time>2024-10-11T10:26:31Z</time>
      </trkpt>
      <trkpt lat="42.72207" lon="1.85861">
        <ele>956.6</ele>
        <time>2024-10-11T10:26:32Z</time>
      </trkpt>
      <trkpt lat="42.72204" lon="1.85864">
        <ele>956.6</ele>
        <time>2024-10-11T10:26:33Z</time>
      </trkpt>
      <trkpt lat="42.72201" lon="1.85866">
        <ele>956.6</ele>
        <time>2024-10-11T10:26:34Z</time>
      </trkpt>
      <trkpt lat="42.72198" lon="1.85868">
        <ele>956.6</ele>
        <time>2024-10-11T10:26:35Z</time>
      </trkpt>
      <trkpt lat="42.72195" lon="1.8587">
        <ele>957.2</ele>
        <time>2024-10-11T10:26:36Z</time>
      </trkpt>
      <trkpt lat="42.72192" lon="1.85872">
        <ele>957.4</ele>
        <time>2024-10-11T10:26:37Z</time>
      </trkpt>
      <trkpt lat="42.72189" lon="1.85874">
        <ele>957.4</ele>
        <time>2024-10-11T10:26:38Z</time>
      </trkpt>
      <trkpt lat="42.72187" lon="1.85876">
        <ele>957.4</ele>
        <time>2024-10-11T10:26:39Z</time>
      </trkpt>
      <trkpt lat="42.72184" lon="1.85879">
        <ele>958</ele>
        <time>2024-10-11T10:26:40Z</time>
      </trkpt>
      <trkpt lat="42.72182" lon="1.85881">
        <ele>958.2</ele>
        <time>2024-10-11T10:26:41Z</time>
      </trkpt>
      <trkpt lat="42.72179" lon="1.85883">
        <ele>958.2</ele>
        <time>2024-10-11T10:26:42Z</time>
      </trkpt>
      <trkpt lat="42.72176" lon="1.85885">
        <ele>958.2</ele>
        <time>2024-10-11T10:26:43Z</time>
      </trkpt>
      <trkpt lat="42.72174" lon="1.85887">
        <ele>958.2</ele>
        <time>2024-10-11T10:26:44Z</time>
      </trkpt>
      <trkpt lat="42.72171" lon="1.85889">
        <ele>958.2</ele>
        <time>2024-10-11T10:26:45Z</time>
      </trkpt>
      <trkpt lat="42.72169" lon="1.85891">
        <ele>958.8</ele>
        <time>2024-10-11T10:26:46Z</time>
      </trkpt>
      <trkpt lat="42.72167" lon="1.85893">
        <ele>959</ele>
        <time>2024-10-11T10:26:47Z</time>
      </trkpt>
      <trkpt lat="42.72164" lon="1.85894">
        <ele>959</ele>
        <time>2024-10-11T10:26:48Z</time>
      </trkpt>
      <trkpt lat="42.72162" lon="1.85896">
        <ele>959</ele>
        <time>2024-10-11T10:26:49Z</time>
      </trkpt>
      <trkpt lat="42.72159" lon="1.85897">
        <ele>959.4</ele>
        <time>2024-10-11T10:26:50Z</time>
      </trkpt>
      <trkpt lat="42.72157" lon="1.85898">
        <ele>959.8</ele>
        <time>2024-10-11T10:26:51Z</time>
      </trkpt>
      <trkpt lat="42.72155" lon="1.85899">
        <ele>959.8</ele>
        <time>2024-10-11T10:26:52Z</time>
      </trkpt>
      <trkpt lat="42.72153" lon="1.85901">
        <ele>959.8</ele>
        <time>2024-10-11T10:26:53Z</time>
      </trkpt>
      <trkpt lat="42.7215" lon="1.85902">
        <ele>960</ele>
        <time>2024-10-11T10:26:54Z</time>
      </trkpt>
      <trkpt lat="42.72147" lon="1.85903">
        <ele>960.4</ele>
        <time>2024-10-11T10:26:55Z</time>
      </trkpt>
      <trkpt lat="42.72145" lon="1.85905">
        <ele>960.4</ele>
        <time>2024-10-11T10:26:56Z</time>
      </trkpt>
      <trkpt lat="42.72141" lon="1.85907">
        <ele>960.4</ele>
        <time>2024-10-11T10:26:57Z</time>
      </trkpt>
      <trkpt lat="42.7214" lon="1.85908">
        <ele>960.4</ele>
        <time>2024-10-11T10:26:58Z</time>
      </trkpt>
      <trkpt lat="42.72136" lon="1.8591">
        <ele>961</ele>
        <time>2024-10-11T10:26:59Z</time>
      </trkpt>
      <trkpt lat="42.72135" lon="1.85911">
        <ele>961</ele>
        <time>2024-10-11T10:27:00Z</time>
      </trkpt>
      <trkpt lat="42.72132" lon="1.85913">
        <ele>961</ele>
        <time>2024-10-11T10:27:01Z</time>
      </trkpt>
      <trkpt lat="42.72132" lon="1.85913">
        <ele>961</ele>
        <time>2024-10-11T10:27:02Z</time>
      </trkpt>
      <trkpt lat="42.72129" lon="1.85916">
        <ele>961.6</ele>
        <time>2024-10-11T10:27:03Z</time>
      </trkpt>
      <trkpt lat="42.72129" lon="1.85917">
        <ele>961.8</ele>
        <time>2024-10-11T10:27:04Z</time>
      </trkpt>
      <trkpt lat="42.72126" lon="1.8592">
        <ele>961.8</ele>
        <time>2024-10-11T10:27:05Z</time>
      </trkpt>
      <trkpt lat="42.72126" lon="1.85921">
        <ele>961.8</ele>
        <time>2024-10-11T10:27:06Z</time>
      </trkpt>
      <trkpt lat="42.72122" lon="1.85922">
        <ele>962.4</ele>
        <time>2024-10-11T10:27:07Z</time>
      </trkpt>
      <trkpt lat="42.72121" lon="1.85923">
        <ele>962.4</ele>
        <time>2024-10-11T10:27:08Z</time>
      </trkpt>
      <trkpt lat="42.72119" lon="1.85925">
        <ele>962.6</ele>
        <time>2024-10-11T10:27:09Z</time>
      </trkpt>
      <trkpt lat="42.72118" lon="1.85926">
        <ele>962.6</ele>
        <time>2024-10-11T10:27:10Z</time>
      </trkpt>
      <trkpt lat="42.72116" lon="1.85928">
        <ele>962.6</ele>
        <time>2024-10-11T10:27:11Z</time>
      </trkpt>
      <trkpt lat="42.72114" lon="1.85931">
        <ele>963.2</ele>
        <time>2024-10-11T10:27:12Z</time>
      </trkpt>
      <trkpt lat="42.72113" lon="1.85933">
        <ele>963.2</ele>
        <time>2024-10-11T10:27:13Z</time>
      </trkpt>
      <trkpt lat="42.72112" lon="1.85935">
        <ele>963.6</ele>
        <time>2024-10-11T10:27:14Z</time>
      </trkpt>
      <trkpt lat="42.72111" lon="1.85938">
        <ele>963.6</ele>
        <time>2024-10-11T10:27:15Z</time>
      </trkpt>
      <trkpt lat="42.7211" lon="1.85941">
        <ele>964</ele>
        <time>2024-10-11T10:27:16Z</time>
      </trkpt>
      <trkpt lat="42.72109" lon="1.85944">
        <ele>964.2</ele>
        <time>2024-10-11T10:27:17Z</time>
      </trkpt>
      <trkpt lat="42.72108" lon="1.85947">
        <ele>964.2</ele>
        <time>2024-10-11T10:27:18Z</time>
      </trkpt>
      <trkpt lat="42.72107" lon="1.8595">
        <ele>964.2</ele>
        <time>2024-10-11T10:27:19Z</time>
      </trkpt>
      <trkpt lat="42.72106" lon="1.85952">
        <ele>964.8</ele>
        <time>2024-10-11T10:27:20Z</time>
      </trkpt>
      <trkpt lat="42.72105" lon="1.85955">
        <ele>964.8</ele>
        <time>2024-10-11T10:27:21Z</time>
      </trkpt>
      <trkpt lat="42.72103" lon="1.85958">
        <ele>965.4</ele>
        <time>2024-10-11T10:27:22Z</time>
      </trkpt>
      <trkpt lat="42.72103" lon="1.85961">
        <ele>965.4</ele>
        <time>2024-10-11T10:27:23Z</time>
      </trkpt>
      <trkpt lat="42.72102" lon="1.85964">
        <ele>965.4</ele>
        <time>2024-10-11T10:27:24Z</time>
      </trkpt>
      <trkpt lat="42.72101" lon="1.85967">
        <ele>965.8</ele>
        <time>2024-10-11T10:27:25Z</time>
      </trkpt>
      <trkpt lat="42.721" lon="1.8597">
        <ele>965.8</ele>
        <time>2024-10-11T10:27:26Z</time>
      </trkpt>
      <trkpt lat="42.721" lon="1.85972">
        <ele>966</ele>
        <time>2024-10-11T10:27:27Z</time>
      </trkpt>
      <trkpt lat="42.72099" lon="1.85975">
        <ele>966</ele>
        <time>2024-10-11T10:27:28Z</time>
      </trkpt>
      <trkpt lat="42.72098" lon="1.85977">
        <ele>966</ele>
        <time>2024-10-11T10:27:29Z</time>
      </trkpt>
      <trkpt lat="42.72096" lon="1.8598">
        <ele>966</ele>
        <time>2024-10-11T10:27:30Z</time>
      </trkpt>
      <trkpt lat="42.72095" lon="1.85982">
        <ele>966</ele>
        <time>2024-10-11T10:27:31Z</time>
      </trkpt>
      <trkpt lat="42.72093" lon="1.85984">
        <ele>967.2</ele>
        <time>2024-10-11T10:27:32Z</time>
      </trkpt>
      <trkpt lat="42.72092" lon="1.85986">
        <ele>967.2</ele>
        <time>2024-10-11T10:27:33Z</time>
      </trkpt>
      <trkpt lat="42.7209" lon="1.85988">
        <ele>967.2</ele>
        <time>2024-10-11T10:27:34Z</time>
      </trkpt>
      <trkpt lat="42.72089" lon="1.85991">
        <ele>967.2</ele>
        <time>2024-10-11T10:27:35Z</time>
      </trkpt>
      <trkpt lat="42.72088" lon="1.85993">
        <ele>967.8</ele>
        <time>2024-10-11T10:27:36Z</time>
      </trkpt>
      <trkpt lat="42.72086" lon="1.85996">
        <ele>967.8</ele>
        <time>2024-10-11T10:27:37Z</time>
      </trkpt>
      <trkpt lat="42.72085" lon="1.85997">
        <ele>967.8</ele>
        <time>2024-10-11T10:27:38Z</time>
      </trkpt>
      <trkpt lat="42.72083" lon="1.86001">
        <ele>967.8</ele>
        <time>2024-10-11T10:27:39Z</time>
      </trkpt>
      <trkpt lat="42.72082" lon="1.86002">
        <ele>968.8</ele>
        <time>2024-10-11T10:27:40Z</time>
      </trkpt>
      <trkpt lat="42.7208" lon="1.86005">
        <ele>968.8</ele>
        <time>2024-10-11T10:27:41Z</time>
      </trkpt>
      <trkpt lat="42.72079" lon="1.86006">
        <ele>968.8</ele>
        <time>2024-10-11T10:27:42Z</time>
      </trkpt>
      <trkpt lat="42.72077" lon="1.86009">
        <ele>968.8</ele>
        <time>2024-10-11T10:27:43Z</time>
      </trkpt>
      <trkpt lat="42.72076" lon="1.86011">
        <ele>969.4</ele>
        <time>2024-10-11T10:27:44Z</time>
      </trkpt>
      <trkpt lat="42.72075" lon="1.86014">
        <ele>969.6</ele>
        <time>2024-10-11T10:27:45Z</time>
      </trkpt>
      <trkpt lat="42.72074" lon="1.86016">
        <ele>969.6</ele>
        <time>2024-10-11T10:27:46Z</time>
      </trkpt>
      <trkpt lat="42.72072" lon="1.86019">
        <ele>969.6</ele>
        <time>2024-10-11T10:27:47Z</time>
      </trkpt>
      <trkpt lat="42.72072" lon="1.86021">
        <ele>969.6</ele>
        <time>2024-10-11T10:27:48Z</time>
      </trkpt>
      <trkpt lat="42.7207" lon="1.86024">
        <ele>970.4</ele>
        <time>2024-10-11T10:27:49Z</time>
      </trkpt>
      <trkpt lat="42.7207" lon="1.86025">
        <ele>970.4</ele>
        <time>2024-10-11T10:27:50Z</time>
      </trkpt>
      <trkpt lat="42.72068" lon="1.86029">
        <ele>970.4</ele>
        <time>2024-10-11T10:27:51Z</time>
      </trkpt>
      <trkpt lat="42.72068" lon="1.86031">
        <ele>970.4</ele>
        <time>2024-10-11T10:27:52Z</time>
      </trkpt>
      <trkpt lat="42.72067" lon="1.86035">
        <ele>971.2</ele>
        <time>2024-10-11T10:27:53Z</time>
      </trkpt>
      <trkpt lat="42.72067" lon="1.86036">
        <ele>971.2</ele>
        <time>2024-10-11T10:27:54Z</time>
      </trkpt>
      <trkpt lat="42.72066" lon="1.86039">
        <ele>971.2</ele>
        <time>2024-10-11T10:27:55Z</time>
      </trkpt>
      <trkpt lat="42.72065" lon="1.86041">
        <ele>971.2</ele>
        <time>2024-10-11T10:27:56Z</time>
      </trkpt>
      <trkpt lat="42.72064" lon="1.86044">
        <ele>971.2</ele>
        <time>2024-10-11T10:27:57Z</time>
      </trkpt>
      <trkpt lat="42.72063" lon="1.86046">
        <ele>971.6</ele>
        <time>2024-10-11T10:27:58Z</time>
      </trkpt>
      <trkpt lat="42.72063" lon="1.86049">
        <ele>971.6</ele>
        <time>2024-10-11T10:27:59Z</time>
      </trkpt>
      <trkpt lat="42.72063" lon="1.86052">
        <ele>971.6</ele>
        <time>2024-10-11T10:28:00Z</time>
      </trkpt>
      <trkpt lat="42.72062" lon="1.86055">
        <ele>972.4</ele>
        <time>2024-10-11T10:28:01Z</time>
      </trkpt>
      <trkpt lat="42.72062" lon="1.86058">
        <ele>972.6</ele>
        <time>2024-10-11T10:28:02Z</time>
      </trkpt>
      <trkpt lat="42.72061" lon="1.86061">
        <ele>972.6</ele>
        <time>2024-10-11T10:28:03Z</time>
      </trkpt>
      <trkpt lat="42.72061" lon="1.86063">
        <ele>972.6</ele>
        <time>2024-10-11T10:28:04Z</time>
      </trkpt>
      <trkpt lat="42.7206" lon="1.86066">
        <ele>973.2</ele>
        <time>2024-10-11T10:28:05Z</time>
      </trkpt>
      <trkpt lat="42.72059" lon="1.86069">
        <ele>973.4</ele>
        <time>2024-10-11T10:28:06Z</time>
      </trkpt>
      <trkpt lat="42.72058" lon="1.86072">
        <ele>973.4</ele>
        <time>2024-10-11T10:28:07Z</time>
      </trkpt>
      <trkpt lat="42.72057" lon="1.86074">
        <ele>973.4</ele>
        <time>2024-10-11T10:28:08Z</time>
      </trkpt>
      <trkpt lat="42.72056" lon="1.86077">
        <ele>973.4</ele>
        <time>2024-10-11T10:28:09Z</time>
      </trkpt>
      <trkpt lat="42.72056" lon="1.86079">
        <ele>973.4</ele>
        <time>2024-10-11T10:28:10Z</time>
      </trkpt>
      <trkpt lat="42.72054" lon="1.86081">
        <ele>974</ele>
        <time>2024-10-11T10:28:11Z</time>
      </trkpt>
      <trkpt lat="42.72053" lon="1.86084">
        <ele>974</ele>
        <time>2024-10-11T10:28:12Z</time>
      </trkpt>
      <trkpt lat="42.72052" lon="1.86087">
        <ele>974</ele>
        <time>2024-10-11T10:28:13Z</time>
      </trkpt>
      <trkpt lat="42.7205" lon="1.8609">
        <ele>974</ele>
        <time>2024-10-11T10:28:14Z</time>
      </trkpt>
      <trkpt lat="42.72049" lon="1.86091">
        <ele>974.6</ele>
        <time>2024-10-11T10:28:15Z</time>
      </trkpt>
      <trkpt lat="42.72048" lon="1.86095">
        <ele>974.6</ele>
        <time>2024-10-11T10:28:16Z</time>
      </trkpt>
      <trkpt lat="42.72047" lon="1.86096">
        <ele>975</ele>
        <time>2024-10-11T10:28:17Z</time>
      </trkpt>
      <trkpt lat="42.72047" lon="1.86099">
        <ele>975</ele>
        <time>2024-10-11T10:28:18Z</time>
      </trkpt>
      <trkpt lat="42.72046" lon="1.86101">
        <ele>975</ele>
        <time>2024-10-11T10:28:19Z</time>
      </trkpt>
      <trkpt lat="42.72045" lon="1.86105">
        <ele>975</ele>
        <time>2024-10-11T10:28:20Z</time>
      </trkpt>
      <trkpt lat="42.72045" lon="1.86106">
        <ele>975.8</ele>
        <time>2024-10-11T10:28:21Z</time>
      </trkpt>
      <trkpt lat="42.72044" lon="1.8611">
        <ele>975.8</ele>
        <time>2024-10-11T10:28:22Z</time>
      </trkpt>
      <trkpt lat="42.72044" lon="1.86112">
        <ele>975.8</ele>
        <time>2024-10-11T10:28:23Z</time>
      </trkpt>
      <trkpt lat="42.72043" lon="1.86116">
        <ele>976.6</ele>
        <time>2024-10-11T10:28:24Z</time>
      </trkpt>
      <trkpt lat="42.72043" lon="1.86117">
        <ele>976.8</ele>
        <time>2024-10-11T10:28:25Z</time>
      </trkpt>
      <trkpt lat="42.72042" lon="1.86121">
        <ele>976.8</ele>
        <time>2024-10-11T10:28:26Z</time>
      </trkpt>
      <trkpt lat="42.72041" lon="1.86123">
        <ele>976.8</ele>
        <time>2024-10-11T10:28:27Z</time>
      </trkpt>
      <trkpt lat="42.7204" lon="1.86127">
        <ele>976.8</ele>
        <time>2024-10-11T10:28:28Z</time>
      </trkpt>
      <trkpt lat="42.7204" lon="1.86128">
        <ele>977.4</ele>
        <time>2024-10-11T10:28:29Z</time>
      </trkpt>
      <trkpt lat="42.7204" lon="1.86131">
        <ele>977.4</ele>
        <time>2024-10-11T10:28:30Z</time>
      </trkpt>
      <trkpt lat="42.7204" lon="1.86133">
        <ele>977.4</ele>
        <time>2024-10-11T10:28:31Z</time>
      </trkpt>
      <trkpt lat="42.7204" lon="1.86137">
        <ele>977.4</ele>
        <time>2024-10-11T10:28:32Z</time>
      </trkpt>
      <trkpt lat="42.7204" lon="1.86138">
        <ele>977.4</ele>
        <time>2024-10-11T10:28:33Z</time>
      </trkpt>
      <trkpt lat="42.7204" lon="1.86142">
        <ele>978.4</ele>
        <time>2024-10-11T10:28:34Z</time>
      </trkpt>
      <trkpt lat="42.7204" lon="1.86144">
        <ele>978.4</ele>
        <time>2024-10-11T10:28:35Z</time>
      </trkpt>
      <trkpt lat="42.7204" lon="1.86148">
        <ele>978.4</ele>
        <time>2024-10-11T10:28:36Z</time>
      </trkpt>
      <trkpt lat="42.7204" lon="1.8615">
        <ele>978.4</ele>
        <time>2024-10-11T10:28:37Z</time>
      </trkpt>
      <trkpt lat="42.7204" lon="1.86153">
        <ele>978.8</ele>
        <time>2024-10-11T10:28:38Z</time>
      </trkpt>
      <trkpt lat="42.7204" lon="1.86156">
        <ele>978.8</ele>
        <time>2024-10-11T10:28:39Z</time>
      </trkpt>
      <trkpt lat="42.7204" lon="1.86159">
        <ele>978.8</ele>
        <time>2024-10-11T10:28:40Z</time>
      </trkpt>
      <trkpt lat="42.72041" lon="1.86162">
        <ele>978.8</ele>
        <time>2024-10-11T10:28:41Z</time>
      </trkpt>
      <trkpt lat="42.72041" lon="1.86165">
        <ele>978.8</ele>
        <time>2024-10-11T10:28:42Z</time>
      </trkpt>
      <trkpt lat="42.72041" lon="1.86168">
        <ele>979.4</ele>
        <time>2024-10-11T10:28:43Z</time>
      </trkpt>
      <trkpt lat="42.72041" lon="1.86171">
        <ele>979.4</ele>
        <time>2024-10-11T10:28:44Z</time>
      </trkpt>
      <trkpt lat="42.72041" lon="1.86175">
        <ele>979.4</ele>
        <time>2024-10-11T10:28:45Z</time>
      </trkpt>
      <trkpt lat="42.72041" lon="1.86178">
        <ele>979.8</ele>
        <time>2024-10-11T10:28:46Z</time>
      </trkpt>
      <trkpt lat="42.72042" lon="1.86182">
        <ele>980</ele>
        <time>2024-10-11T10:28:47Z</time>
      </trkpt>
      <trkpt lat="42.72042" lon="1.86185">
        <ele>980</ele>
        <time>2024-10-11T10:28:48Z</time>
      </trkpt>
      <trkpt lat="42.72043" lon="1.86188">
        <ele>980</ele>
        <time>2024-10-11T10:28:49Z</time>
      </trkpt>
      <trkpt lat="42.72044" lon="1.86191">
        <ele>980</ele>
        <time>2024-10-11T10:28:50Z</time>
      </trkpt>
      <trkpt lat="42.72045" lon="1.86194">
        <ele>980</ele>
        <time>2024-10-11T10:28:51Z</time>
      </trkpt>
      <trkpt lat="42.72046" lon="1.86197">
        <ele>980.4</ele>
        <time>2024-10-11T10:28:52Z</time>
      </trkpt>
      <trkpt lat="42.72046" lon="1.862">
        <ele>980.6</ele>
        <time>2024-10-11T10:28:53Z</time>
      </trkpt>
      <trkpt lat="42.72047" lon="1.86203">
        <ele>980.6</ele>
        <time>2024-10-11T10:28:54Z</time>
      </trkpt>
      <trkpt lat="42.72048" lon="1.86207">
        <ele>980.6</ele>
        <time>2024-10-11T10:28:55Z</time>
      </trkpt>
      <trkpt lat="42.72048" lon="1.8621">
        <ele>980.6</ele>
        <time>2024-10-11T10:28:56Z</time>
      </trkpt>
      <trkpt lat="42.72049" lon="1.86213">
        <ele>981.2</ele>
        <time>2024-10-11T10:28:57Z</time>
      </trkpt>
      <trkpt lat="42.72049" lon="1.86216">
        <ele>981.2</ele>
        <time>2024-10-11T10:28:58Z</time>
      </trkpt>
      <trkpt lat="42.7205" lon="1.8622">
        <ele>981.2</ele>
        <time>2024-10-11T10:28:59Z</time>
      </trkpt>
      <trkpt lat="42.7205" lon="1.86223">
        <ele>981.8</ele>
        <time>2024-10-11T10:29:00Z</time>
      </trkpt>
      <trkpt lat="42.72051" lon="1.86226">
        <ele>981.8</ele>
        <time>2024-10-11T10:29:01Z</time>
      </trkpt>
      <trkpt lat="42.72051" lon="1.86229">
        <ele>981.8</ele>
        <time>2024-10-11T10:29:02Z</time>
      </trkpt>
      <trkpt lat="42.72052" lon="1.86234">
        <ele>981.8</ele>
        <time>2024-10-11T10:29:03Z</time>
      </trkpt>
      <trkpt lat="42.72052" lon="1.86236">
        <ele>981.8</ele>
        <time>2024-10-11T10:29:04Z</time>
      </trkpt>
      <trkpt lat="42.72052" lon="1.8624">
        <ele>982.4</ele>
        <time>2024-10-11T10:29:05Z</time>
      </trkpt>
      <trkpt lat="42.72052" lon="1.86242">
        <ele>982.4</ele>
        <time>2024-10-11T10:29:06Z</time>
      </trkpt>
      <trkpt lat="42.72052" lon="1.86246">
        <ele>982.4</ele>
        <time>2024-10-11T10:29:07Z</time>
      </trkpt>
      <trkpt lat="42.72052" lon="1.86248">
        <ele>982.4</ele>
        <time>2024-10-11T10:29:08Z</time>
      </trkpt>
      <trkpt lat="42.72053" lon="1.86251">
        <ele>983.2</ele>
        <time>2024-10-11T10:29:09Z</time>
      </trkpt>
      <trkpt lat="42.72053" lon="1.86254">
        <ele>983.4</ele>
        <time>2024-10-11T10:29:10Z</time>
      </trkpt>
      <trkpt lat="42.72054" lon="1.86258">
        <ele>983.4</ele>
        <time>2024-10-11T10:29:11Z</time>
      </trkpt>
      <trkpt lat="42.72055" lon="1.86259">
        <ele>983.4</ele>
        <time>2024-10-11T10:29:12Z</time>
      </trkpt>
      <trkpt lat="42.72056" lon="1.86263">
        <ele>983.4</ele>
        <time>2024-10-11T10:29:13Z</time>
      </trkpt>
      <trkpt lat="42.72056" lon="1.86265">
        <ele>983.4</ele>
        <time>2024-10-11T10:29:14Z</time>
      </trkpt>
      <trkpt lat="42.72057" lon="1.86268">
        <ele>983.8</ele>
        <time>2024-10-11T10:29:15Z</time>
      </trkpt>
      <trkpt lat="42.72057" lon="1.8627">
        <ele>983.8</ele>
        <time>2024-10-11T10:29:16Z</time>
      </trkpt>
      <trkpt lat="42.72058" lon="1.86273">
        <ele>983.8</ele>
        <time>2024-10-11T10:29:17Z</time>
      </trkpt>
      <trkpt lat="42.72059" lon="1.86276">
        <ele>984.4</ele>
        <time>2024-10-11T10:29:18Z</time>
      </trkpt>
      <trkpt lat="42.72059" lon="1.8628">
        <ele>984.4</ele>
        <time>2024-10-11T10:29:19Z</time>
      </trkpt>
      <trkpt lat="42.7206" lon="1.86282">
        <ele>984.4</ele>
        <time>2024-10-11T10:29:20Z</time>
      </trkpt>
      <trkpt lat="42.7206" lon="1.86285">
        <ele>984.4</ele>
        <time>2024-10-11T10:29:21Z</time>
      </trkpt>
      <trkpt lat="42.72061" lon="1.86287">
        <ele>985</ele>
        <time>2024-10-11T10:29:22Z</time>
      </trkpt>
      <trkpt lat="42.72061" lon="1.8629">
        <ele>985.2</ele>
        <time>2024-10-11T10:29:23Z</time>
      </trkpt>
      <trkpt lat="42.72062" lon="1.86293">
        <ele>985.2</ele>
        <time>2024-10-11T10:29:24Z</time>
      </trkpt>
      <trkpt lat="42.72062" lon="1.86297">
        <ele>985.2</ele>
        <time>2024-10-11T10:29:25Z</time>
      </trkpt>
      <trkpt lat="42.72062" lon="1.863">
        <ele>985.6</ele>
        <time>2024-10-11T10:29:26Z</time>
      </trkpt>
      <trkpt lat="42.72062" lon="1.86303">
        <ele>985.6</ele>
        <time>2024-10-11T10:29:27Z</time>
      </trkpt>
      <trkpt lat="42.72062" lon="1.86306">
        <ele>985.6</ele>
        <time>2024-10-11T10:29:28Z</time>
      </trkpt>
      <trkpt lat="42.72063" lon="1.86309">
        <ele>985.6</ele>
        <time>2024-10-11T10:29:29Z</time>
      </trkpt>
      <trkpt lat="42.72063" lon="1.86312">
        <ele>985.6</ele>
        <time>2024-10-11T10:29:30Z</time>
      </trkpt>
      <trkpt lat="42.72063" lon="1.86315">
        <ele>986.2</ele>
        <time>2024-10-11T10:29:31Z</time>
      </trkpt>
      <trkpt lat="42.72062" lon="1.86319">
        <ele>986.4</ele>
        <time>2024-10-11T10:29:32Z</time>
      </trkpt>
      <trkpt lat="42.72062" lon="1.86321">
        <ele>986.4</ele>
        <time>2024-10-11T10:29:33Z</time>
      </trkpt>
      <trkpt lat="42.72062" lon="1.86324">
        <ele>986.4</ele>
        <time>2024-10-11T10:29:34Z</time>
      </trkpt>
      <trkpt lat="42.72062" lon="1.86327">
        <ele>986.4</ele>
        <time>2024-10-11T10:29:35Z</time>
      </trkpt>
      <trkpt lat="42.72062" lon="1.8633">
        <ele>986.4</ele>
        <time>2024-10-11T10:29:36Z</time>
      </trkpt>
      <trkpt lat="42.72061" lon="1.86333">
        <ele>987.2</ele>
        <time>2024-10-11T10:29:37Z</time>
      </trkpt>
      <trkpt lat="42.7206" lon="1.86335">
        <ele>987.2</ele>
        <time>2024-10-11T10:29:38Z</time>
      </trkpt>
      <trkpt lat="42.72059" lon="1.86338">
        <ele>987.2</ele>
        <time>2024-10-11T10:29:39Z</time>
      </trkpt>
      <trkpt lat="42.72059" lon="1.86341">
        <ele>987.2</ele>
        <time>2024-10-11T10:29:40Z</time>
      </trkpt>
      <trkpt lat="42.72058" lon="1.86344">
        <ele>987.8</ele>
        <time>2024-10-11T10:29:41Z</time>
      </trkpt>
      <trkpt lat="42.72056" lon="1.86346">
        <ele>987.8</ele>
        <time>2024-10-11T10:29:42Z</time>
      </trkpt>
      <trkpt lat="42.72055" lon="1.86349">
        <ele>987.8</ele>
        <time>2024-10-11T10:29:43Z</time>
      </trkpt>
      <trkpt lat="42.72055" lon="1.86352">
        <ele>987.8</ele>
        <time>2024-10-11T10:29:44Z</time>
      </trkpt>
      <trkpt lat="42.72054" lon="1.86355">
        <ele>988.2</ele>
        <time>2024-10-11T10:29:45Z</time>
      </trkpt>
      <trkpt lat="42.72053" lon="1.86359">
        <ele>988.2</ele>
        <time>2024-10-11T10:29:46Z</time>
      </trkpt>
      <trkpt lat="42.72052" lon="1.86361">
        <ele>988.4</ele>
        <time>2024-10-11T10:29:47Z</time>
      </trkpt>
      <trkpt lat="42.72051" lon="1.86365">
        <ele>988.4</ele>
        <time>2024-10-11T10:29:48Z</time>
      </trkpt>
      <trkpt lat="42.72051" lon="1.86367">
        <ele>988.4</ele>
        <time>2024-10-11T10:29:49Z</time>
      </trkpt>
      <trkpt lat="42.72049" lon="1.86372">
        <ele>988.4</ele>
        <time>2024-10-11T10:29:50Z</time>
      </trkpt>
      <trkpt lat="42.72049" lon="1.86373">
        <ele>988.8</ele>
        <time>2024-10-11T10:29:51Z</time>
      </trkpt>
      <trkpt lat="42.72047" lon="1.86376">
        <ele>988.8</ele>
        <time>2024-10-11T10:29:52Z</time>
      </trkpt>
      <trkpt lat="42.72046" lon="1.86377">
        <ele>988.8</ele>
        <time>2024-10-11T10:29:53Z</time>
      </trkpt>
      <trkpt lat="42.72044" lon="1.86379">
        <ele>988.8</ele>
        <time>2024-10-11T10:29:54Z</time>
      </trkpt>
      <trkpt lat="42.72042" lon="1.86379">
        <ele>989</ele>
        <time>2024-10-11T10:29:55Z</time>
      </trkpt>
      <trkpt lat="42.72042" lon="1.86378">
        <ele>989</ele>
        <time>2024-10-11T10:29:56Z</time>
      </trkpt>
      <trkpt lat="42.72042" lon="1.86378">
        <ele>989</ele>
        <time>2024-10-11T10:29:57Z</time>
      </trkpt>
      <trkpt lat="42.72042" lon="1.86378">
        <ele>989</ele>
        <time>2024-10-11T10:29:58Z</time>
      </trkpt>
      <trkpt lat="42.72038" lon="1.86391">
        <ele>989.8</ele>
        <time>2024-10-11T10:40:14Z</time>
      </trkpt>
      <trkpt lat="42.72038" lon="1.86393">
        <ele>989.8</ele>
        <time>2024-10-11T10:40:15Z</time>
      </trkpt>
      <trkpt lat="42.72039" lon="1.86394">
        <ele>989.8</ele>
        <time>2024-10-11T10:40:16Z</time>
      </trkpt>
      <trkpt lat="42.72039" lon="1.86396">
        <ele>989.8</ele>
        <time>2024-10-11T10:40:17Z</time>
      </trkpt>
      <trkpt lat="42.72038" lon="1.86399">
        <ele>989.8</ele>
        <time>2024-10-11T10:40:18Z</time>
      </trkpt>
      <trkpt lat="42.72038" lon="1.86401">
        <ele>989.8</ele>
        <time>2024-10-11T10:40:19Z</time>
      </trkpt>
      <trkpt lat="42.72037" lon="1.86403">
        <ele>990.4</ele>
        <time>2024-10-11T10:40:20Z</time>
      </trkpt>
      <trkpt lat="42.72036" lon="1.86405">
        <ele>990.8</ele>
        <time>2024-10-11T10:40:21Z</time>
      </trkpt>
      <trkpt lat="42.72034" lon="1.86407">
        <ele>990.8</ele>
        <time>2024-10-11T10:40:22Z</time>
      </trkpt>
      <trkpt lat="42.72033" lon="1.8641">
        <ele>990.8</ele>
        <time>2024-10-11T10:40:23Z</time>
      </trkpt>
      <trkpt lat="42.72032" lon="1.86414">
        <ele>990.8</ele>
        <time>2024-10-11T10:40:24Z</time>
      </trkpt>
      <trkpt lat="42.72032" lon="1.86415">
        <ele>990.8</ele>
        <time>2024-10-11T10:40:25Z</time>
      </trkpt>
      <trkpt lat="42.72032" lon="1.86419">
        <ele>991</ele>
        <time>2024-10-11T10:40:26Z</time>
      </trkpt>
      <trkpt lat="42.72032" lon="1.8642">
        <ele>991</ele>
        <time>2024-10-11T10:40:27Z</time>
      </trkpt>
      <trkpt lat="42.72031" lon="1.86423">
        <ele>991</ele>
        <time>2024-10-11T10:40:28Z</time>
      </trkpt>
      <trkpt lat="42.7203" lon="1.86426">
        <ele>991.4</ele>
        <time>2024-10-11T10:40:29Z</time>
      </trkpt>
      <trkpt lat="42.7203" lon="1.86429">
        <ele>991.4</ele>
        <time>2024-10-11T10:40:30Z</time>
      </trkpt>
      <trkpt lat="42.72029" lon="1.86432">
        <ele>991.4</ele>
        <time>2024-10-11T10:40:31Z</time>
      </trkpt>
      <trkpt lat="42.72028" lon="1.86435">
        <ele>991.4</ele>
        <time>2024-10-11T10:40:32Z</time>
      </trkpt>
      <trkpt lat="42.72028" lon="1.86437">
        <ele>991.4</ele>
        <time>2024-10-11T10:40:33Z</time>
      </trkpt>
      <trkpt lat="42.72027" lon="1.8644">
        <ele>992.2</ele>
        <time>2024-10-11T10:40:34Z</time>
      </trkpt>
      <trkpt lat="42.72026" lon="1.86443">
        <ele>992.2</ele>
        <time>2024-10-11T10:40:35Z</time>
      </trkpt>
      <trkpt lat="42.72026" lon="1.86446">
        <ele>992.2</ele>
        <time>2024-10-11T10:40:36Z</time>
      </trkpt>
      <trkpt lat="42.72024" lon="1.86451">
        <ele>992.2</ele>
        <time>2024-10-11T10:40:37Z</time>
      </trkpt>
      <trkpt lat="42.72024" lon="1.86453">
        <ele>992.6</ele>
        <time>2024-10-11T10:40:38Z</time>
      </trkpt>
      <trkpt lat="42.72023" lon="1.86456">
        <ele>992.6</ele>
        <time>2024-10-11T10:40:39Z</time>
      </trkpt>
      <trkpt lat="42.72022" lon="1.86459">
        <ele>992.6</ele>
        <time>2024-10-11T10:40:40Z</time>
      </trkpt>
      <trkpt lat="42.72022" lon="1.86462">
        <ele>992.6</ele>
        <time>2024-10-11T10:40:41Z</time>
      </trkpt>
      <trkpt lat="42.72021" lon="1.86465">
        <ele>993</ele>
        <time>2024-10-11T10:40:42Z</time>
      </trkpt>
      <trkpt lat="42.72021" lon="1.86469">
        <ele>993.2</ele>
        <time>2024-10-11T10:40:43Z</time>
      </trkpt>
      <trkpt lat="42.7202" lon="1.86472">
        <ele>993.2</ele>
        <time>2024-10-11T10:40:44Z</time>
      </trkpt>
      <trkpt lat="42.7202" lon="1.86475">
        <ele>993.2</ele>
        <time>2024-10-11T10:40:45Z</time>
      </trkpt>
      <trkpt lat="42.7202" lon="1.86478">
        <ele>993.2</ele>
        <time>2024-10-11T10:40:46Z</time>
      </trkpt>
      <trkpt lat="42.7202" lon="1.86482">
        <ele>993.8</ele>
        <time>2024-10-11T10:40:47Z</time>
      </trkpt>
      <trkpt lat="42.7202" lon="1.86485">
        <ele>993.8</ele>
        <time>2024-10-11T10:40:48Z</time>
      </trkpt>
      <trkpt lat="42.7202" lon="1.86488">
        <ele>993.8</ele>
        <time>2024-10-11T10:40:49Z</time>
      </trkpt>
      <trkpt lat="42.7202" lon="1.86492">
        <ele>994.2</ele>
        <time>2024-10-11T10:40:50Z</time>
      </trkpt>
      <trkpt lat="42.7202" lon="1.86495">
        <ele>994.2</ele>
        <time>2024-10-11T10:40:51Z</time>
      </trkpt>
      <trkpt lat="42.7202" lon="1.86499">
        <ele>994.2</ele>
        <time>2024-10-11T10:40:52Z</time>
      </trkpt>
      <trkpt lat="42.72021" lon="1.86502">
        <ele>994.4</ele>
        <time>2024-10-11T10:40:53Z</time>
      </trkpt>
      <trkpt lat="42.72021" lon="1.86505">
        <ele>994.4</ele>
        <time>2024-10-11T10:40:54Z</time>
      </trkpt>
      <trkpt lat="42.72021" lon="1.86508">
        <ele>994.4</ele>
        <time>2024-10-11T10:40:55Z</time>
      </trkpt>
      <trkpt lat="42.72022" lon="1.86512">
        <ele>994.4</ele>
        <time>2024-10-11T10:40:56Z</time>
      </trkpt>
      <trkpt lat="42.72022" lon="1.86515">
        <ele>994.2</ele>
        <time>2024-10-11T10:40:57Z</time>
      </trkpt>
      <trkpt lat="42.72023" lon="1.86519">
        <ele>994.2</ele>
        <time>2024-10-11T10:40:58Z</time>
      </trkpt>
      <trkpt lat="42.72023" lon="1.86522">
        <ele>994.2</ele>
        <time>2024-10-11T10:40:59Z</time>
      </trkpt>
      <trkpt lat="42.72024" lon="1.86525">
        <ele>995</ele>
        <time>2024-10-11T10:41:00Z</time>
      </trkpt>
      <trkpt lat="42.72024" lon="1.86529">
        <ele>995.2</ele>
        <time>2024-10-11T10:41:01Z</time>
      </trkpt>
      <trkpt lat="42.72024" lon="1.86533">
        <ele>995.2</ele>
        <time>2024-10-11T10:41:02Z</time>
      </trkpt>
      <trkpt lat="42.72025" lon="1.86538">
        <ele>995.2</ele>
        <time>2024-10-11T10:41:03Z</time>
      </trkpt>
      <trkpt lat="42.72025" lon="1.86539">
        <ele>995.2</ele>
        <time>2024-10-11T10:41:04Z</time>
      </trkpt>
      <trkpt lat="42.72025" lon="1.86544">
        <ele>995.2</ele>
        <time>2024-10-11T10:41:05Z</time>
      </trkpt>
      <trkpt lat="42.72026" lon="1.86546">
        <ele>995.4</ele>
        <time>2024-10-11T10:41:06Z</time>
      </trkpt>
      <trkpt lat="42.72026" lon="1.86551">
        <ele>995.4</ele>
        <time>2024-10-11T10:41:07Z</time>
      </trkpt>
      <trkpt lat="42.72026" lon="1.86553">
        <ele>995.4</ele>
        <time>2024-10-11T10:41:08Z</time>
      </trkpt>
      <trkpt lat="42.72026" lon="1.86558">
        <ele>995.8</ele>
        <time>2024-10-11T10:41:09Z</time>
      </trkpt>
      <trkpt lat="42.72026" lon="1.86559">
        <ele>996</ele>
        <time>2024-10-11T10:41:10Z</time>
      </trkpt>
      <trkpt lat="42.72025" lon="1.86564">
        <ele>996</ele>
        <time>2024-10-11T10:41:11Z</time>
      </trkpt>
      <trkpt lat="42.72025" lon="1.86566">
        <ele>996</ele>
        <time>2024-10-11T10:41:12Z</time>
      </trkpt>
      <trkpt lat="42.72025" lon="1.86571">
        <ele>996.6</ele>
        <time>2024-10-11T10:41:13Z</time>
      </trkpt>
      <trkpt lat="42.72024" lon="1.86573">
        <ele>996.6</ele>
        <time>2024-10-11T10:41:14Z</time>
      </trkpt>
      <trkpt lat="42.72024" lon="1.86578">
        <ele>996.4</ele>
        <time>2024-10-11T10:41:15Z</time>
      </trkpt>
      <trkpt lat="42.72024" lon="1.8658">
        <ele>996.4</ele>
        <time>2024-10-11T10:41:16Z</time>
      </trkpt>
      <trkpt lat="42.72024" lon="1.86585">
        <ele>996.4</ele>
        <time>2024-10-11T10:41:17Z</time>
      </trkpt>
      <trkpt lat="42.72024" lon="1.86586">
        <ele>997</ele>
        <time>2024-10-11T10:41:18Z</time>
      </trkpt>
      <trkpt lat="42.72023" lon="1.86592">
        <ele>997</ele>
        <time>2024-10-11T10:41:19Z</time>
      </trkpt>
      <trkpt lat="42.72023" lon="1.86594">
        <ele>997</ele>
        <time>2024-10-11T10:41:20Z</time>
      </trkpt>
      <trkpt lat="42.72024" lon="1.86597">
        <ele>997</ele>
        <time>2024-10-11T10:41:21Z</time>
      </trkpt>
      <trkpt lat="42.72024" lon="1.866">
        <ele>997.4</ele>
        <time>2024-10-11T10:41:22Z</time>
      </trkpt>
      <trkpt lat="42.72024" lon="1.86604">
        <ele>997.6</ele>
        <time>2024-10-11T10:41:23Z</time>
      </trkpt>
      <trkpt lat="42.72024" lon="1.86607">
        <ele>997.6</ele>
        <time>2024-10-11T10:41:24Z</time>
      </trkpt>
      <trkpt lat="42.72024" lon="1.8661">
        <ele>997.6</ele>
        <time>2024-10-11T10:41:25Z</time>
      </trkpt>
      <trkpt lat="42.72025" lon="1.86613">
        <ele>997.6</ele>
        <time>2024-10-11T10:41:26Z</time>
      </trkpt>
      <trkpt lat="42.72025" lon="1.86617">
        <ele>997.8</ele>
        <time>2024-10-11T10:41:27Z</time>
      </trkpt>
      <trkpt lat="42.72026" lon="1.8662">
        <ele>998.2</ele>
        <time>2024-10-11T10:41:28Z</time>
      </trkpt>
      <trkpt lat="42.72027" lon="1.86623">
        <ele>998.2</ele>
        <time>2024-10-11T10:41:29Z</time>
      </trkpt>
      <trkpt lat="42.72028" lon="1.86626">
        <ele>998.2</ele>
        <time>2024-10-11T10:41:30Z</time>
      </trkpt>
      <trkpt lat="42.72028" lon="1.86629">
        <ele>998.2</ele>
        <time>2024-10-11T10:41:31Z</time>
      </trkpt>
      <trkpt lat="42.72029" lon="1.86631">
        <ele>998.4</ele>
        <time>2024-10-11T10:41:32Z</time>
      </trkpt>
      <trkpt lat="42.7203" lon="1.86634">
        <ele>998.4</ele>
        <time>2024-10-11T10:41:33Z</time>
      </trkpt>
      <trkpt lat="42.72031" lon="1.86637">
        <ele>998.4</ele>
        <time>2024-10-11T10:41:34Z</time>
      </trkpt>
      <trkpt lat="42.72032" lon="1.8664">
        <ele>998.4</ele>
        <time>2024-10-11T10:41:35Z</time>
      </trkpt>
      <trkpt lat="42.72032" lon="1.86643">
        <ele>998.4</ele>
        <time>2024-10-11T10:41:36Z</time>
      </trkpt>
      <trkpt lat="42.72032" lon="1.86646">
        <ele>999.2</ele>
        <time>2024-10-11T10:41:37Z</time>
      </trkpt>
      <trkpt lat="42.72033" lon="1.86649">
        <ele>999.2</ele>
        <time>2024-10-11T10:41:38Z</time>
      </trkpt>
      <trkpt lat="42.72034" lon="1.86651">
        <ele>999.2</ele>
        <time>2024-10-11T10:41:39Z</time>
      </trkpt>
      <trkpt lat="42.72035" lon="1.86654">
        <ele>999.2</ele>
        <time>2024-10-11T10:41:40Z</time>
      </trkpt>
      <trkpt lat="42.72035" lon="1.86657">
        <ele>999.8</ele>
        <time>2024-10-11T10:41:41Z</time>
      </trkpt>
      <trkpt lat="42.72035" lon="1.86661">
        <ele>999.8</ele>
        <time>2024-10-11T10:41:42Z</time>
      </trkpt>
      <trkpt lat="42.72036" lon="1.86662">
        <ele>1000</ele>
        <time>2024-10-11T10:41:43Z</time>
      </trkpt>
      <trkpt lat="42.72036" lon="1.86665">
        <ele>1000</ele>
        <time>2024-10-11T10:41:44Z</time>
      </trkpt>
      <trkpt lat="42.72036" lon="1.86668">
        <ele>1000.4</ele>
        <time>2024-10-11T10:41:45Z</time>
      </trkpt>
      <trkpt lat="42.72036" lon="1.86671">
        <ele>1000.6</ele>
        <time>2024-10-11T10:41:46Z</time>
      </trkpt>
      <trkpt lat="42.72036" lon="1.86675">
        <ele>1000.6</ele>
        <time>2024-10-11T10:41:47Z</time>
      </trkpt>
      <trkpt lat="42.72037" lon="1.86679">
        <ele>1000.6</ele>
        <time>2024-10-11T10:41:48Z</time>
      </trkpt>
      <trkpt lat="42.72037" lon="1.86681">
        <ele>1000.6</ele>
        <time>2024-10-11T10:41:49Z</time>
      </trkpt>
      <trkpt lat="42.72037" lon="1.86685">
        <ele>1001</ele>
        <time>2024-10-11T10:41:50Z</time>
      </trkpt>
      <trkpt lat="42.72037" lon="1.86687">
        <ele>1000.8</ele>
        <time>2024-10-11T10:41:51Z</time>
      </trkpt>
      <trkpt lat="42.72037" lon="1.86693">
        <ele>1000.8</ele>
        <time>2024-10-11T10:41:52Z</time>
      </trkpt>
      <trkpt lat="42.72037" lon="1.86694">
        <ele>1000.8</ele>
        <time>2024-10-11T10:41:53Z</time>
      </trkpt>
      <trkpt lat="42.72036" lon="1.867">
        <ele>1001.4</ele>
        <time>2024-10-11T10:41:54Z</time>
      </trkpt>
      <trkpt lat="42.72036" lon="1.86702">
        <ele>1001.4</ele>
        <time>2024-10-11T10:41:55Z</time>
      </trkpt>
      <trkpt lat="42.72036" lon="1.86707">
        <ele>1001.4</ele>
        <time>2024-10-11T10:41:56Z</time>
      </trkpt>
      <trkpt lat="42.72036" lon="1.86709">
        <ele>1001.4</ele>
        <time>2024-10-11T10:41:57Z</time>
      </trkpt>
      <trkpt lat="42.72036" lon="1.86713">
        <ele>1001.8</ele>
        <time>2024-10-11T10:41:58Z</time>
      </trkpt>
      <trkpt lat="42.72035" lon="1.86719">
        <ele>1002</ele>
        <time>2024-10-11T10:41:59Z</time>
      </trkpt>
      <trkpt lat="42.72034" lon="1.86721">
        <ele>1002</ele>
        <time>2024-10-11T10:42:00Z</time>
      </trkpt>
      <trkpt lat="42.72033" lon="1.86726">
        <ele>1002</ele>
        <time>2024-10-11T10:42:01Z</time>
      </trkpt>
      <trkpt lat="42.72033" lon="1.86728">
        <ele>1002</ele>
        <time>2024-10-11T10:42:02Z</time>
      </trkpt>
      <trkpt lat="42.72032" lon="1.86732">
        <ele>1002.4</ele>
        <time>2024-10-11T10:42:03Z</time>
      </trkpt>
      <trkpt lat="42.72031" lon="1.86735">
        <ele>1002.6</ele>
        <time>2024-10-11T10:42:04Z</time>
      </trkpt>
      <trkpt lat="42.7203" lon="1.86738">
        <ele>1002.6</ele>
        <time>2024-10-11T10:42:05Z</time>
      </trkpt>
      <trkpt lat="42.72029" lon="1.86742">
        <ele>1002.6</ele>
        <time>2024-10-11T10:42:06Z</time>
      </trkpt>
      <trkpt lat="42.72027" lon="1.86745">
        <ele>1003.2</ele>
        <time>2024-10-11T10:42:07Z</time>
      </trkpt>
      <trkpt lat="42.72026" lon="1.8675">
        <ele>1003</ele>
        <time>2024-10-11T10:42:08Z</time>
      </trkpt>
      <trkpt lat="42.72025" lon="1.86754">
        <ele>1003</ele>
        <time>2024-10-11T10:42:09Z</time>
      </trkpt>
      <trkpt lat="42.72022" lon="1.86757">
        <ele>1003</ele>
        <time>2024-10-11T10:42:10Z</time>
      </trkpt>
      <trkpt lat="42.72021" lon="1.8676">
        <ele>1003</ele>
        <time>2024-10-11T10:42:11Z</time>
      </trkpt>
      <trkpt lat="42.7202" lon="1.86762">
        <ele>1003.8</ele>
        <time>2024-10-11T10:42:12Z</time>
      </trkpt>
      <trkpt lat="42.72019" lon="1.86765">
        <ele>1004</ele>
        <time>2024-10-11T10:42:13Z</time>
      </trkpt>
      <trkpt lat="42.72017" lon="1.86768">
        <ele>1004</ele>
        <time>2024-10-11T10:42:14Z</time>
      </trkpt>
      <trkpt lat="42.72016" lon="1.86771">
        <ele>1004</ele>
        <time>2024-10-11T10:42:15Z</time>
      </trkpt>
      <trkpt lat="42.72014" lon="1.86775">
        <ele>1004.2</ele>
        <time>2024-10-11T10:42:16Z</time>
      </trkpt>
      <trkpt lat="42.72012" lon="1.86779">
        <ele>1004.2</ele>
        <time>2024-10-11T10:42:17Z</time>
      </trkpt>
      <trkpt lat="42.7201" lon="1.86782">
        <ele>1004.2</ele>
        <time>2024-10-11T10:42:18Z</time>
      </trkpt>
      <trkpt lat="42.72009" lon="1.86786">
        <ele>1004.2</ele>
        <time>2024-10-11T10:42:19Z</time>
      </trkpt>
      <trkpt lat="42.72008" lon="1.86789">
        <ele>1004.2</ele>
        <time>2024-10-11T10:42:20Z</time>
      </trkpt>
      <trkpt lat="42.72007" lon="1.86793">
        <ele>1005</ele>
        <time>2024-10-11T10:42:21Z</time>
      </trkpt>
      <trkpt lat="42.72007" lon="1.86797">
        <ele>1004.8</ele>
        <time>2024-10-11T10:42:22Z</time>
      </trkpt>
      <trkpt lat="42.72006" lon="1.86801">
        <ele>1004.8</ele>
        <time>2024-10-11T10:42:23Z</time>
      </trkpt>
      <trkpt lat="42.72006" lon="1.86805">
        <ele>1004.8</ele>
        <time>2024-10-11T10:42:24Z</time>
      </trkpt>
      <trkpt lat="42.72005" lon="1.8681">
        <ele>1005.2</ele>
        <time>2024-10-11T10:42:25Z</time>
      </trkpt>
      <trkpt lat="42.72003" lon="1.86817">
        <ele>1005.2</ele>
        <time>2024-10-11T10:42:26Z</time>
      </trkpt>
      <trkpt lat="42.72003" lon="1.86819">
        <ele>1005.4</ele>
        <time>2024-10-11T10:42:27Z</time>
      </trkpt>
      <trkpt lat="42.72002" lon="1.86826">
        <ele>1005.4</ele>
        <time>2024-10-11T10:42:28Z</time>
      </trkpt>
      <trkpt lat="42.72001" lon="1.86828">
        <ele>1005.4</ele>
        <time>2024-10-11T10:42:29Z</time>
      </trkpt>
      <trkpt lat="42.72" lon="1.86835">
        <ele>1005.4</ele>
        <time>2024-10-11T10:42:30Z</time>
      </trkpt>
      <trkpt lat="42.72" lon="1.86837">
        <ele>1005.8</ele>
        <time>2024-10-11T10:42:31Z</time>
      </trkpt>
      <trkpt lat="42.72" lon="1.86842">
        <ele>1005.8</ele>
        <time>2024-10-11T10:42:32Z</time>
      </trkpt>
      <trkpt lat="42.71999" lon="1.86847">
        <ele>1005.8</ele>
        <time>2024-10-11T10:42:33Z</time>
      </trkpt>
      <trkpt lat="42.71999" lon="1.86853">
        <ele>1006.2</ele>
        <time>2024-10-11T10:42:34Z</time>
      </trkpt>
      <trkpt lat="42.71999" lon="1.86855">
        <ele>1006.4</ele>
        <time>2024-10-11T10:42:35Z</time>
      </trkpt>
      <trkpt lat="42.71998" lon="1.8686">
        <ele>1006.4</ele>
        <time>2024-10-11T10:42:36Z</time>
      </trkpt>
      <trkpt lat="42.71997" lon="1.86864">
        <ele>1006.4</ele>
        <time>2024-10-11T10:42:37Z</time>
      </trkpt>
      <trkpt lat="42.71996" lon="1.86871">
        <ele>1006.4</ele>
        <time>2024-10-11T10:42:38Z</time>
      </trkpt>
      <trkpt lat="42.71996" lon="1.86874">
        <ele>1006.4</ele>
        <time>2024-10-11T10:42:39Z</time>
      </trkpt>
      <trkpt lat="42.71993" lon="1.86881">
        <ele>1006.8</ele>
        <time>2024-10-11T10:42:40Z</time>
      </trkpt>
      <trkpt lat="42.71993" lon="1.86883">
        <ele>1006.8</ele>
        <time>2024-10-11T10:42:41Z</time>
      </trkpt>
      <trkpt lat="42.7199" lon="1.86889">
        <ele>1006.8</ele>
        <time>2024-10-11T10:42:42Z</time>
      </trkpt>
      <trkpt lat="42.71989" lon="1.86891">
        <ele>1007.4</ele>
        <time>2024-10-11T10:42:43Z</time>
      </trkpt>
      <trkpt lat="42.71986" lon="1.86897">
        <ele>1007.4</ele>
        <time>2024-10-11T10:42:44Z</time>
      </trkpt>
      <trkpt lat="42.71985" lon="1.86899">
        <ele>1007.4</ele>
        <time>2024-10-11T10:42:45Z</time>
      </trkpt>
      <trkpt lat="42.71982" lon="1.86904">
        <ele>1007.4</ele>
        <time>2024-10-11T10:42:46Z</time>
      </trkpt>
      <trkpt lat="42.71982" lon="1.86906">
        <ele>1007.4</ele>
        <time>2024-10-11T10:42:47Z</time>
      </trkpt>
      <trkpt lat="42.7198" lon="1.86909">
        <ele>1008</ele>
        <time>2024-10-11T10:42:48Z</time>
      </trkpt>
      <trkpt lat="42.71978" lon="1.86913">
        <ele>1008.2</ele>
        <time>2024-10-11T10:42:49Z</time>
      </trkpt>
      <trkpt lat="42.71976" lon="1.86916">
        <ele>1008.2</ele>
        <time>2024-10-11T10:42:50Z</time>
      </trkpt>
      <trkpt lat="42.71974" lon="1.86919">
        <ele>1008.2</ele>
        <time>2024-10-11T10:42:51Z</time>
      </trkpt>
      <trkpt lat="42.71973" lon="1.86923">
        <ele>1008.2</ele>
        <time>2024-10-11T10:42:52Z</time>
      </trkpt>
      <trkpt lat="42.71971" lon="1.86926">
        <ele>1008.6</ele>
        <time>2024-10-11T10:42:53Z</time>
      </trkpt>
      <trkpt lat="42.71969" lon="1.8693">
        <ele>1008.6</ele>
        <time>2024-10-11T10:42:54Z</time>
      </trkpt>
      <trkpt lat="42.71968" lon="1.86933">
        <ele>1008.6</ele>
        <time>2024-10-11T10:42:55Z</time>
      </trkpt>
      <trkpt lat="42.71966" lon="1.86936">
        <ele>1009</ele>
        <time>2024-10-11T10:42:56Z</time>
      </trkpt>
      <trkpt lat="42.71965" lon="1.8694">
        <ele>1009</ele>
        <time>2024-10-11T10:42:57Z</time>
      </trkpt>
      <trkpt lat="42.71963" lon="1.86943">
        <ele>1009</ele>
        <time>2024-10-11T10:42:58Z</time>
      </trkpt>
      <trkpt lat="42.71961" lon="1.86946">
        <ele>1009</ele>
        <time>2024-10-11T10:42:59Z</time>
      </trkpt>
      <trkpt lat="42.7196" lon="1.8695">
        <ele>1009</ele>
        <time>2024-10-11T10:43:00Z</time>
      </trkpt>
      <trkpt lat="42.71958" lon="1.86953">
        <ele>1009</ele>
        <time>2024-10-11T10:43:01Z</time>
      </trkpt>
      <trkpt lat="42.71957" lon="1.86957">
        <ele>1009.2</ele>
        <time>2024-10-11T10:43:02Z</time>
      </trkpt>
      <trkpt lat="42.71955" lon="1.8696">
        <ele>1009.2</ele>
        <time>2024-10-11T10:43:03Z</time>
      </trkpt>
      <trkpt lat="42.71954" lon="1.86964">
        <ele>1009.2</ele>
        <time>2024-10-11T10:43:04Z</time>
      </trkpt>
      <trkpt lat="42.71953" lon="1.86967">
        <ele>1009.2</ele>
        <time>2024-10-11T10:43:05Z</time>
      </trkpt>
      <trkpt lat="42.71953" lon="1.86971">
        <ele>1009.2</ele>
        <time>2024-10-11T10:43:06Z</time>
      </trkpt>
      <trkpt lat="42.71952" lon="1.86975">
        <ele>1010.2</ele>
        <time>2024-10-11T10:43:07Z</time>
      </trkpt>
      <trkpt lat="42.71952" lon="1.86978">
        <ele>1010.2</ele>
        <time>2024-10-11T10:43:08Z</time>
      </trkpt>
      <trkpt lat="42.71951" lon="1.86982">
        <ele>1010.2</ele>
        <time>2024-10-11T10:43:09Z</time>
      </trkpt>
      <trkpt lat="42.71951" lon="1.86986">
        <ele>1010.2</ele>
        <time>2024-10-11T10:43:10Z</time>
      </trkpt>
      <trkpt lat="42.71951" lon="1.86989">
        <ele>1010.8</ele>
        <time>2024-10-11T10:43:11Z</time>
      </trkpt>
      <trkpt lat="42.71952" lon="1.86995">
        <ele>1010.8</ele>
        <time>2024-10-11T10:43:12Z</time>
      </trkpt>
      <trkpt lat="42.71952" lon="1.86997">
        <ele>1010.8</ele>
        <time>2024-10-11T10:43:13Z</time>
      </trkpt>
      <trkpt lat="42.71953" lon="1.87003">
        <ele>1010.8</ele>
        <time>2024-10-11T10:43:14Z</time>
      </trkpt>
      <trkpt lat="42.71953" lon="1.87005">
        <ele>1011</ele>
        <time>2024-10-11T10:43:15Z</time>
      </trkpt>
      <trkpt lat="42.71954" lon="1.87011">
        <ele>1011.2</ele>
        <time>2024-10-11T10:43:16Z</time>
      </trkpt>
      <trkpt lat="42.71954" lon="1.87013">
        <ele>1011.2</ele>
        <time>2024-10-11T10:43:17Z</time>
      </trkpt>
      <trkpt lat="42.71955" lon="1.87018">
        <ele>1011.2</ele>
        <time>2024-10-11T10:43:18Z</time>
      </trkpt>
      <trkpt lat="42.71955" lon="1.8702">
        <ele>1011.8</ele>
        <time>2024-10-11T10:43:19Z</time>
      </trkpt>
      <trkpt lat="42.71956" lon="1.87026">
        <ele>1011.8</ele>
        <time>2024-10-11T10:43:20Z</time>
      </trkpt>
      <trkpt lat="42.71956" lon="1.87028">
        <ele>1011.8</ele>
        <time>2024-10-11T10:43:21Z</time>
      </trkpt>
      <trkpt lat="42.71957" lon="1.87034">
        <ele>1011.8</ele>
        <time>2024-10-11T10:43:22Z</time>
      </trkpt>
      <trkpt lat="42.71957" lon="1.87035">
        <ele>1011.8</ele>
        <time>2024-10-11T10:43:23Z</time>
      </trkpt>
      <trkpt lat="42.71957" lon="1.87041">
        <ele>1012</ele>
        <time>2024-10-11T10:43:24Z</time>
      </trkpt>
      <trkpt lat="42.71957" lon="1.87043">
        <ele>1012.2</ele>
        <time>2024-10-11T10:43:25Z</time>
      </trkpt>
      <trkpt lat="42.71957" lon="1.87048">
        <ele>1012.2</ele>
        <time>2024-10-11T10:43:26Z</time>
      </trkpt>
      <trkpt lat="42.71957" lon="1.8705">
        <ele>1012.2</ele>
        <time>2024-10-11T10:43:27Z</time>
      </trkpt>
      <trkpt lat="42.71958" lon="1.87054">
        <ele>1013</ele>
        <time>2024-10-11T10:43:28Z</time>
      </trkpt>
      <trkpt lat="42.71958" lon="1.87057">
        <ele>1013.2</ele>
        <time>2024-10-11T10:43:29Z</time>
      </trkpt>
      <trkpt lat="42.71958" lon="1.87063">
        <ele>1013.2</ele>
        <time>2024-10-11T10:43:30Z</time>
      </trkpt>
      <trkpt lat="42.71958" lon="1.87064">
        <ele>1013.2</ele>
        <time>2024-10-11T10:43:31Z</time>
      </trkpt>
      <trkpt lat="42.71958" lon="1.87068">
        <ele>1013.2</ele>
        <time>2024-10-11T10:43:32Z</time>
      </trkpt>
      <trkpt lat="42.71957" lon="1.87072">
        <ele>1013.4</ele>
        <time>2024-10-11T10:43:33Z</time>
      </trkpt>
      <trkpt lat="42.71957" lon="1.87075">
        <ele>1013.4</ele>
        <time>2024-10-11T10:43:34Z</time>
      </trkpt>
      <trkpt lat="42.71957" lon="1.87079">
        <ele>1013.4</ele>
        <time>2024-10-11T10:43:35Z</time>
      </trkpt>
      <trkpt lat="42.71957" lon="1.87082">
        <ele>1013.4</ele>
        <time>2024-10-11T10:43:36Z</time>
      </trkpt>
      <trkpt lat="42.71957" lon="1.87086">
        <ele>1014.2</ele>
        <time>2024-10-11T10:43:37Z</time>
      </trkpt>
      <trkpt lat="42.71957" lon="1.87089">
        <ele>1014.2</ele>
        <time>2024-10-11T10:43:38Z</time>
      </trkpt>
      <trkpt lat="42.71957" lon="1.87093">
        <ele>1014.4</ele>
        <time>2024-10-11T10:43:39Z</time>
      </trkpt>
      <trkpt lat="42.71957" lon="1.87096">
        <ele>1014.4</ele>
        <time>2024-10-11T10:43:40Z</time>
      </trkpt>
      <trkpt lat="42.71957" lon="1.871">
        <ele>1014.4</ele>
        <time>2024-10-11T10:43:41Z</time>
      </trkpt>
      <trkpt lat="42.71957" lon="1.87103">
        <ele>1014.6</ele>
        <time>2024-10-11T10:43:42Z</time>
      </trkpt>
      <trkpt lat="42.71957" lon="1.87107">
        <ele>1014.6</ele>
        <time>2024-10-11T10:43:43Z</time>
      </trkpt>
      <trkpt lat="42.71958" lon="1.87111">
        <ele>1014.6</ele>
        <time>2024-10-11T10:43:44Z</time>
      </trkpt>
      <trkpt lat="42.71959" lon="1.87115">
        <ele>1014.6</ele>
        <time>2024-10-11T10:43:45Z</time>
      </trkpt>
      <trkpt lat="42.7196" lon="1.87119">
        <ele>1014.6</ele>
        <time>2024-10-11T10:43:46Z</time>
      </trkpt>
      <trkpt lat="42.7196" lon="1.87122">
        <ele>1014.6</ele>
        <time>2024-10-11T10:43:47Z</time>
      </trkpt>
      <trkpt lat="42.7196" lon="1.87126">
        <ele>1015.6</ele>
        <time>2024-10-11T10:43:48Z</time>
      </trkpt>
      <trkpt lat="42.71961" lon="1.8713">
        <ele>1015.6</ele>
        <time>2024-10-11T10:43:49Z</time>
      </trkpt>
      <trkpt lat="42.71961" lon="1.87133">
        <ele>1015.6</ele>
        <time>2024-10-11T10:43:50Z</time>
      </trkpt>
      <trkpt lat="42.71962" lon="1.87137">
        <ele>1016.4</ele>
        <time>2024-10-11T10:43:51Z</time>
      </trkpt>
      <trkpt lat="42.71962" lon="1.8714">
        <ele>1016.8</ele>
        <time>2024-10-11T10:43:52Z</time>
      </trkpt>
      <trkpt lat="42.71962" lon="1.87143">
        <ele>1016.8</ele>
        <time>2024-10-11T10:43:53Z</time>
      </trkpt>
      <trkpt lat="42.71962" lon="1.87147">
        <ele>1016.8</ele>
        <time>2024-10-11T10:43:54Z</time>
      </trkpt>
      <trkpt lat="42.71962" lon="1.8715">
        <ele>1017.2</ele>
        <time>2024-10-11T10:43:55Z</time>
      </trkpt>
      <trkpt lat="42.71962" lon="1.87154">
        <ele>1017.2</ele>
        <time>2024-10-11T10:43:56Z</time>
      </trkpt>
      <trkpt lat="42.71962" lon="1.8716">
        <ele>1017</ele>
        <time>2024-10-11T10:43:57Z</time>
      </trkpt>
      <trkpt lat="42.71962" lon="1.87162">
        <ele>1017</ele>
        <time>2024-10-11T10:43:58Z</time>
      </trkpt>
      <trkpt lat="42.71962" lon="1.87167">
        <ele>1017</ele>
        <time>2024-10-11T10:43:59Z</time>
      </trkpt>
      <trkpt lat="42.71961" lon="1.87169">
        <ele>1018</ele>
        <time>2024-10-11T10:44:00Z</time>
      </trkpt>
      <trkpt lat="42.71961" lon="1.87174">
        <ele>1018.2</ele>
        <time>2024-10-11T10:44:01Z</time>
      </trkpt>
      <trkpt lat="42.71961" lon="1.87176">
        <ele>1018.2</ele>
        <time>2024-10-11T10:44:02Z</time>
      </trkpt>
      <trkpt lat="42.71961" lon="1.87181">
        <ele>1018.2</ele>
        <time>2024-10-11T10:44:03Z</time>
      </trkpt>
      <trkpt lat="42.71961" lon="1.87183">
        <ele>1018.6</ele>
        <time>2024-10-11T10:44:04Z</time>
      </trkpt>
      <trkpt lat="42.71961" lon="1.87188">
        <ele>1018.6</ele>
        <time>2024-10-11T10:44:05Z</time>
      </trkpt>
      <trkpt lat="42.71961" lon="1.8719">
        <ele>1018.6</ele>
        <time>2024-10-11T10:44:06Z</time>
      </trkpt>
      <trkpt lat="42.7196" lon="1.87195">
        <ele>1018.6</ele>
        <time>2024-10-11T10:44:07Z</time>
      </trkpt>
      <trkpt lat="42.7196" lon="1.87197">
        <ele>1018.6</ele>
        <time>2024-10-11T10:44:08Z</time>
      </trkpt>
      <trkpt lat="42.7196" lon="1.87201">
        <ele>1019.4</ele>
        <time>2024-10-11T10:44:09Z</time>
      </trkpt>
      <trkpt lat="42.7196" lon="1.87203">
        <ele>1019.2</ele>
        <time>2024-10-11T10:44:10Z</time>
      </trkpt>
      <trkpt lat="42.7196" lon="1.87208">
        <ele>1019.2</ele>
        <time>2024-10-11T10:44:11Z</time>
      </trkpt>
      <trkpt lat="42.7196" lon="1.87209">
        <ele>1019.2</ele>
        <time>2024-10-11T10:44:12Z</time>
      </trkpt>
      <trkpt lat="42.7196" lon="1.87214">
        <ele>1020</ele>
        <time>2024-10-11T10:44:13Z</time>
      </trkpt>
      <trkpt lat="42.71961" lon="1.87216">
        <ele>1019.8</ele>
        <time>2024-10-11T10:44:14Z</time>
      </trkpt>
      <trkpt lat="42.7196" lon="1.8722">
        <ele>1019.8</ele>
        <time>2024-10-11T10:44:15Z</time>
      </trkpt>
      <trkpt lat="42.7196" lon="1.87223">
        <ele>1019.8</ele>
        <time>2024-10-11T10:44:16Z</time>
      </trkpt>
      <trkpt lat="42.7196" lon="1.87227">
        <ele>1019.8</ele>
        <time>2024-10-11T10:44:17Z</time>
      </trkpt>
      <trkpt lat="42.7196" lon="1.8723">
        <ele>1020.4</ele>
        <time>2024-10-11T10:44:18Z</time>
      </trkpt>
      <trkpt lat="42.71961" lon="1.87233">
        <ele>1021.2</ele>
        <time>2024-10-11T10:44:19Z</time>
      </trkpt>
      <trkpt lat="42.71961" lon="1.87236">
        <ele>1021.2</ele>
        <time>2024-10-11T10:44:20Z</time>
      </trkpt>
      <trkpt lat="42.71961" lon="1.87239">
        <ele>1021.2</ele>
        <time>2024-10-11T10:44:21Z</time>
      </trkpt>
      <trkpt lat="42.71961" lon="1.87243">
        <ele>1020.8</ele>
        <time>2024-10-11T10:44:22Z</time>
      </trkpt>
      <trkpt lat="42.71961" lon="1.87247">
        <ele>1021</ele>
        <time>2024-10-11T10:44:23Z</time>
      </trkpt>
      <trkpt lat="42.71962" lon="1.8725">
        <ele>1021</ele>
        <time>2024-10-11T10:44:24Z</time>
      </trkpt>
      <trkpt lat="42.71962" lon="1.87256">
        <ele>1021</ele>
        <time>2024-10-11T10:44:25Z</time>
      </trkpt>
      <trkpt lat="42.71962" lon="1.87257">
        <ele>1021</ele>
        <time>2024-10-11T10:44:26Z</time>
      </trkpt>
      <trkpt lat="42.71962" lon="1.87261">
        <ele>1021.2</ele>
        <time>2024-10-11T10:44:27Z</time>
      </trkpt>
      <trkpt lat="42.71963" lon="1.87265">
        <ele>1021.4</ele>
        <time>2024-10-11T10:44:28Z</time>
      </trkpt>
      <trkpt lat="42.71963" lon="1.87268">
        <ele>1021.4</ele>
        <time>2024-10-11T10:44:29Z</time>
      </trkpt>
      <trkpt lat="42.71963" lon="1.87272">
        <ele>1021.4</ele>
        <time>2024-10-11T10:44:30Z</time>
      </trkpt>
      <trkpt lat="42.71963" lon="1.87275">
        <ele>1021.4</ele>
        <time>2024-10-11T10:44:31Z</time>
      </trkpt>
      <trkpt lat="42.71963" lon="1.87279">
        <ele>1022.4</ele>
        <time>2024-10-11T10:44:32Z</time>
      </trkpt>
      <trkpt lat="42.71964" lon="1.87282">
        <ele>1022.2</ele>
        <time>2024-10-11T10:44:33Z</time>
      </trkpt>
      <trkpt lat="42.71964" lon="1.87286">
        <ele>1022.2</ele>
        <time>2024-10-11T10:44:34Z</time>
      </trkpt>
      <trkpt lat="42.71964" lon="1.8729">
        <ele>1022.2</ele>
        <time>2024-10-11T10:44:35Z</time>
      </trkpt>
      <trkpt lat="42.71963" lon="1.87294">
        <ele>1022.2</ele>
        <time>2024-10-11T10:44:36Z</time>
      </trkpt>
      <trkpt lat="42.71963" lon="1.87297">
        <ele>1022.8</ele>
        <time>2024-10-11T10:44:37Z</time>
      </trkpt>
      <trkpt lat="42.71963" lon="1.873">
        <ele>1022.8</ele>
        <time>2024-10-11T10:44:38Z</time>
      </trkpt>
      <trkpt lat="42.71963" lon="1.87305">
        <ele>1022.8</ele>
        <time>2024-10-11T10:44:39Z</time>
      </trkpt>
      <trkpt lat="42.71963" lon="1.87307">
        <ele>1023.2</ele>
        <time>2024-10-11T10:44:40Z</time>
      </trkpt>
      <trkpt lat="42.71963" lon="1.87312">
        <ele>1023.2</ele>
        <time>2024-10-11T10:44:41Z</time>
      </trkpt>
      <trkpt lat="42.71963" lon="1.87314">
        <ele>1023.4</ele>
        <time>2024-10-11T10:44:42Z</time>
      </trkpt>
      <trkpt lat="42.71963" lon="1.87319">
        <ele>1023.4</ele>
        <time>2024-10-11T10:44:43Z</time>
      </trkpt>
      <trkpt lat="42.71963" lon="1.87321">
        <ele>1023.4</ele>
        <time>2024-10-11T10:44:44Z</time>
      </trkpt>
      <trkpt lat="42.71963" lon="1.87327">
        <ele>1023.6</ele>
        <time>2024-10-11T10:44:45Z</time>
      </trkpt>
      <trkpt lat="42.71963" lon="1.87329">
        <ele>1024</ele>
        <time>2024-10-11T10:44:46Z</time>
      </trkpt>
      <trkpt lat="42.71964" lon="1.87334">
        <ele>1024</ele>
        <time>2024-10-11T10:44:47Z</time>
      </trkpt>
      <trkpt lat="42.71964" lon="1.87336">
        <ele>1024</ele>
        <time>2024-10-11T10:44:48Z</time>
      </trkpt>
      <trkpt lat="42.71964" lon="1.8734">
        <ele>1024.2</ele>
        <time>2024-10-11T10:44:49Z</time>
      </trkpt>
      <trkpt lat="42.71965" lon="1.87344">
        <ele>1024.2</ele>
        <time>2024-10-11T10:44:50Z</time>
      </trkpt>
      <trkpt lat="42.71966" lon="1.8735">
        <ele>1024.4</ele>
        <time>2024-10-11T10:44:51Z</time>
      </trkpt>
      <trkpt lat="42.71966" lon="1.87352">
        <ele>1024.4</ele>
        <time>2024-10-11T10:44:52Z</time>
      </trkpt>
      <trkpt lat="42.71968" lon="1.87357">
        <ele>1024.4</ele>
        <time>2024-10-11T10:44:53Z</time>
      </trkpt>
      <trkpt lat="42.71968" lon="1.87359">
        <ele>1024.4</ele>
        <time>2024-10-11T10:44:54Z</time>
      </trkpt>
      <trkpt lat="42.7197" lon="1.87364">
        <ele>1024.4</ele>
        <time>2024-10-11T10:44:55Z</time>
      </trkpt>
      <trkpt lat="42.71971" lon="1.87366">
        <ele>1024.4</ele>
        <time>2024-10-11T10:44:56Z</time>
      </trkpt>
      <trkpt lat="42.71972" lon="1.8737">
        <ele>1024.4</ele>
        <time>2024-10-11T10:44:57Z</time>
      </trkpt>
      <trkpt lat="42.71973" lon="1.87373">
        <ele>1025</ele>
        <time>2024-10-11T10:44:58Z</time>
      </trkpt>
      <trkpt lat="42.71973" lon="1.87377">
        <ele>1025.4</ele>
        <time>2024-10-11T10:44:59Z</time>
      </trkpt>
      <trkpt lat="42.71974" lon="1.87381">
        <ele>1025.4</ele>
        <time>2024-10-11T10:45:00Z</time>
      </trkpt>
      <trkpt lat="42.71975" lon="1.87384">
        <ele>1025.4</ele>
        <time>2024-10-11T10:45:01Z</time>
      </trkpt>
      <trkpt lat="42.71975" lon="1.87388">
        <ele>1025.4</ele>
        <time>2024-10-11T10:45:02Z</time>
      </trkpt>
      <trkpt lat="42.71975" lon="1.87391">
        <ele>1025.6</ele>
        <time>2024-10-11T10:45:03Z</time>
      </trkpt>
      <trkpt lat="42.71975" lon="1.87393">
        <ele>1025.6</ele>
        <time>2024-10-11T10:45:04Z</time>
      </trkpt>
      <trkpt lat="42.71975" lon="1.87397">
        <ele>1025.6</ele>
        <time>2024-10-11T10:45:05Z</time>
      </trkpt>
      <trkpt lat="42.71975" lon="1.874">
        <ele>1025.6</ele>
        <time>2024-10-11T10:45:06Z</time>
      </trkpt>
      <trkpt lat="42.71974" lon="1.87404">
        <ele>1026</ele>
        <time>2024-10-11T10:45:07Z</time>
      </trkpt>
      <trkpt lat="42.71972" lon="1.87409">
        <ele>1026</ele>
        <time>2024-10-11T10:45:08Z</time>
      </trkpt>
      <trkpt lat="42.71971" lon="1.8741">
        <ele>1026.6</ele>
        <time>2024-10-11T10:45:09Z</time>
      </trkpt>
      <trkpt lat="42.7197" lon="1.87414">
        <ele>1026.6</ele>
        <time>2024-10-11T10:45:10Z</time>
      </trkpt>
      <trkpt lat="42.71969" lon="1.87418">
        <ele>1026.6</ele>
        <time>2024-10-11T10:45:11Z</time>
      </trkpt>
      <trkpt lat="42.71968" lon="1.87421">
        <ele>1026.6</ele>
        <time>2024-10-11T10:45:12Z</time>
      </trkpt>
      <trkpt lat="42.71967" lon="1.87425">
        <ele>1027.2</ele>
        <time>2024-10-11T10:45:13Z</time>
      </trkpt>
      <trkpt lat="42.71966" lon="1.87429">
        <ele>1027.2</ele>
        <time>2024-10-11T10:45:14Z</time>
      </trkpt>
      <trkpt lat="42.71964" lon="1.87432">
        <ele>1027.2</ele>
        <time>2024-10-11T10:45:15Z</time>
      </trkpt>
      <trkpt lat="42.71963" lon="1.87436">
        <ele>1027.2</ele>
        <time>2024-10-11T10:45:16Z</time>
      </trkpt>
      <trkpt lat="42.71962" lon="1.87439">
        <ele>1027.8</ele>
        <time>2024-10-11T10:45:17Z</time>
      </trkpt>
      <trkpt lat="42.71961" lon="1.87442">
        <ele>1027.8</ele>
        <time>2024-10-11T10:45:18Z</time>
      </trkpt>
      <trkpt lat="42.7196" lon="1.87446">
        <ele>1027.8</ele>
        <time>2024-10-11T10:45:19Z</time>
      </trkpt>
      <trkpt lat="42.71958" lon="1.87449">
        <ele>1027.8</ele>
        <time>2024-10-11T10:45:20Z</time>
      </trkpt>
      <trkpt lat="42.71957" lon="1.87453">
        <ele>1028.2</ele>
        <time>2024-10-11T10:45:21Z</time>
      </trkpt>
      <trkpt lat="42.71956" lon="1.87455">
        <ele>1028.6</ele>
        <time>2024-10-11T10:45:22Z</time>
      </trkpt>
      <trkpt lat="42.71956" lon="1.87456">
        <ele>1028.6</ele>
        <time>2024-10-11T10:45:23Z</time>
      </trkpt>
      <trkpt lat="42.71955" lon="1.87459">
        <ele>1028.6</ele>
        <time>2024-10-11T10:45:24Z</time>
      </trkpt>
      <trkpt lat="42.71955" lon="1.87462">
        <ele>1028.6</ele>
        <time>2024-10-11T10:45:25Z</time>
      </trkpt>
      <trkpt lat="42.71954" lon="1.87465">
        <ele>1029.2</ele>
        <time>2024-10-11T10:45:26Z</time>
      </trkpt>
      <trkpt lat="42.71954" lon="1.87467">
        <ele>1029.2</ele>
        <time>2024-10-11T10:45:27Z</time>
      </trkpt>
      <trkpt lat="42.71954" lon="1.8747">
        <ele>1029.2</ele>
        <time>2024-10-11T10:45:28Z</time>
      </trkpt>
      <trkpt lat="42.71954" lon="1.87471">
        <ele>1029.2</ele>
        <time>2024-10-11T10:45:29Z</time>
      </trkpt>
      <trkpt lat="42.71954" lon="1.87476">
        <ele>1029.2</ele>
        <time>2024-10-11T10:45:30Z</time>
      </trkpt>
      <trkpt lat="42.71955" lon="1.87477">
        <ele>1029.2</ele>
        <time>2024-10-11T10:45:31Z</time>
      </trkpt>
      <trkpt lat="42.71955" lon="1.87482">
        <ele>1029.6</ele>
        <time>2024-10-11T10:45:32Z</time>
      </trkpt>
      <trkpt lat="42.71955" lon="1.87483">
        <ele>1029.6</ele>
        <time>2024-10-11T10:45:33Z</time>
      </trkpt>
      <trkpt lat="42.71955" lon="1.87486">
        <ele>1030.2</ele>
        <time>2024-10-11T10:45:34Z</time>
      </trkpt>
      <trkpt lat="42.71955" lon="1.87489">
        <ele>1030.2</ele>
        <time>2024-10-11T10:45:35Z</time>
      </trkpt>
      <trkpt lat="42.71955" lon="1.87494">
        <ele>1030.4</ele>
        <time>2024-10-11T10:45:36Z</time>
      </trkpt>
      <trkpt lat="42.71955" lon="1.87495">
        <ele>1030.4</ele>
        <time>2024-10-11T10:45:37Z</time>
      </trkpt>
      <trkpt lat="42.71954" lon="1.875">
        <ele>1031</ele>
        <time>2024-10-11T10:45:38Z</time>
      </trkpt>
      <trkpt lat="42.71954" lon="1.87502">
        <ele>1031.2</ele>
        <time>2024-10-11T10:45:39Z</time>
      </trkpt>
      <trkpt lat="42.71953" lon="1.87507">
        <ele>1031.2</ele>
        <time>2024-10-11T10:45:40Z</time>
      </trkpt>
      <trkpt lat="42.71953" lon="1.87509">
        <ele>1031.2</ele>
        <time>2024-10-11T10:45:41Z</time>
      </trkpt>
      <trkpt lat="42.71953" lon="1.87514">
        <ele>1031.2</ele>
        <time>2024-10-11T10:45:42Z</time>
      </trkpt>
      <trkpt lat="42.71953" lon="1.87516">
        <ele>1031.2</ele>
        <time>2024-10-11T10:45:43Z</time>
      </trkpt>
      <trkpt lat="42.71952" lon="1.8752">
        <ele>1031.8</ele>
        <time>2024-10-11T10:45:44Z</time>
      </trkpt>
      <trkpt lat="42.71952" lon="1.87523">
        <ele>1031.8</ele>
        <time>2024-10-11T10:45:45Z</time>
      </trkpt>
      <trkpt lat="42.71951" lon="1.87527">
        <ele>1031.8</ele>
        <time>2024-10-11T10:45:46Z</time>
      </trkpt>
      <trkpt lat="42.7195" lon="1.8753">
        <ele>1031.8</ele>
        <time>2024-10-11T10:45:47Z</time>
      </trkpt>
      <trkpt lat="42.71949" lon="1.87534">
        <ele>1032.2</ele>
        <time>2024-10-11T10:45:48Z</time>
      </trkpt>
      <trkpt lat="42.71948" lon="1.87537">
        <ele>1032.2</ele>
        <time>2024-10-11T10:45:49Z</time>
      </trkpt>
      <trkpt lat="42.71947" lon="1.87541">
        <ele>1032.2</ele>
        <time>2024-10-11T10:45:50Z</time>
      </trkpt>
      <trkpt lat="42.71947" lon="1.87543">
        <ele>1033.2</ele>
        <time>2024-10-11T10:45:51Z</time>
      </trkpt>
      <trkpt lat="42.71946" lon="1.87546">
        <ele>1033.2</ele>
        <time>2024-10-11T10:45:52Z</time>
      </trkpt>
      <trkpt lat="42.71945" lon="1.87549">
        <ele>1033.2</ele>
        <time>2024-10-11T10:45:53Z</time>
      </trkpt>
      <trkpt lat="42.71945" lon="1.87553">
        <ele>1033.2</ele>
        <time>2024-10-11T10:45:54Z</time>
      </trkpt>
      <trkpt lat="42.71945" lon="1.87556">
        <ele>1033.2</ele>
        <time>2024-10-11T10:45:55Z</time>
      </trkpt>
      <trkpt lat="42.71944" lon="1.87559">
        <ele>1033.2</ele>
        <time>2024-10-11T10:45:56Z</time>
      </trkpt>
      <trkpt lat="42.71944" lon="1.87562">
        <ele>1033.6</ele>
        <time>2024-10-11T10:45:57Z</time>
      </trkpt>
      <trkpt lat="42.71944" lon="1.87565">
        <ele>1034</ele>
        <time>2024-10-11T10:45:58Z</time>
      </trkpt>
      <trkpt lat="42.71944" lon="1.87568">
        <ele>1034</ele>
        <time>2024-10-11T10:45:59Z</time>
      </trkpt>
      <trkpt lat="42.71945" lon="1.87571">
        <ele>1034</ele>
        <time>2024-10-11T10:46:00Z</time>
      </trkpt>
      <trkpt lat="42.71945" lon="1.87574">
        <ele>1034.6</ele>
        <time>2024-10-11T10:46:01Z</time>
      </trkpt>
      <trkpt lat="42.71947" lon="1.87578">
        <ele>1034.6</ele>
        <time>2024-10-11T10:46:02Z</time>
      </trkpt>
      <trkpt lat="42.71947" lon="1.8758">
        <ele>1034.6</ele>
        <time>2024-10-11T10:46:03Z</time>
      </trkpt>
      <trkpt lat="42.71948" lon="1.87583">
        <ele>1034.6</ele>
        <time>2024-10-11T10:46:04Z</time>
      </trkpt>
      <trkpt lat="42.71949" lon="1.87586">
        <ele>1035</ele>
        <time>2024-10-11T10:46:05Z</time>
      </trkpt>
      <trkpt lat="42.7195" lon="1.8759">
        <ele>1035.2</ele>
        <time>2024-10-11T10:46:06Z</time>
      </trkpt>
      <trkpt lat="42.7195" lon="1.87592">
        <ele>1035.2</ele>
        <time>2024-10-11T10:46:07Z</time>
      </trkpt>
      <trkpt lat="42.71951" lon="1.87597">
        <ele>1035.2</ele>
        <time>2024-10-11T10:46:08Z</time>
      </trkpt>
      <trkpt lat="42.71951" lon="1.87599">
        <ele>1035.2</ele>
        <time>2024-10-11T10:46:09Z</time>
      </trkpt>
      <trkpt lat="42.71951" lon="1.87604">
        <ele>1035.6</ele>
        <time>2024-10-11T10:46:10Z</time>
      </trkpt>
      <trkpt lat="42.71951" lon="1.87606">
        <ele>1035.6</ele>
        <time>2024-10-11T10:46:11Z</time>
      </trkpt>
      <trkpt lat="42.71952" lon="1.8761">
        <ele>1035.6</ele>
        <time>2024-10-11T10:46:12Z</time>
      </trkpt>
      <trkpt lat="42.71952" lon="1.87612">
        <ele>1035.6</ele>
        <time>2024-10-11T10:46:13Z</time>
      </trkpt>
      <trkpt lat="42.71953" lon="1.87617">
        <ele>1035.8</ele>
        <time>2024-10-11T10:46:14Z</time>
      </trkpt>
      <trkpt lat="42.71953" lon="1.87619">
        <ele>1035.8</ele>
        <time>2024-10-11T10:46:15Z</time>
      </trkpt>
      <trkpt lat="42.71953" lon="1.87624">
        <ele>1036</ele>
        <time>2024-10-11T10:46:16Z</time>
      </trkpt>
      <trkpt lat="42.71953" lon="1.87626">
        <ele>1036</ele>
        <time>2024-10-11T10:46:17Z</time>
      </trkpt>
      <trkpt lat="42.71953" lon="1.87631">
        <ele>1036.4</ele>
        <time>2024-10-11T10:46:18Z</time>
      </trkpt>
      <trkpt lat="42.71953" lon="1.87633">
        <ele>1036.8</ele>
        <time>2024-10-11T10:46:19Z</time>
      </trkpt>
      <trkpt lat="42.71954" lon="1.87636">
        <ele>1036.8</ele>
        <time>2024-10-11T10:46:20Z</time>
      </trkpt>
      <trkpt lat="42.71954" lon="1.87639">
        <ele>1036.8</ele>
        <time>2024-10-11T10:46:21Z</time>
      </trkpt>
      <trkpt lat="42.71954" lon="1.87643">
        <ele>1036.8</ele>
        <time>2024-10-11T10:46:22Z</time>
      </trkpt>
      <trkpt lat="42.71954" lon="1.87646">
        <ele>1037</ele>
        <time>2024-10-11T10:46:23Z</time>
      </trkpt>
      <trkpt lat="42.71954" lon="1.87648">
        <ele>1037.6</ele>
        <time>2024-10-11T10:46:24Z</time>
      </trkpt>
      <trkpt lat="42.71954" lon="1.87652">
        <ele>1037.6</ele>
        <time>2024-10-11T10:46:25Z</time>
      </trkpt>
      <trkpt lat="42.71954" lon="1.87655">
        <ele>1037.6</ele>
        <time>2024-10-11T10:46:26Z</time>
      </trkpt>
      <trkpt lat="42.71955" lon="1.87658">
        <ele>1037.6</ele>
        <time>2024-10-11T10:46:27Z</time>
      </trkpt>
      <trkpt lat="42.71955" lon="1.87661">
        <ele>1037.6</ele>
        <time>2024-10-11T10:46:28Z</time>
      </trkpt>
      <trkpt lat="42.71955" lon="1.87664">
        <ele>1038.2</ele>
        <time>2024-10-11T10:46:29Z</time>
      </trkpt>
      <trkpt lat="42.71955" lon="1.87667">
        <ele>1038.2</ele>
        <time>2024-10-11T10:46:30Z</time>
      </trkpt>
      <trkpt lat="42.71955" lon="1.87671">
        <ele>1038.2</ele>
        <time>2024-10-11T10:46:31Z</time>
      </trkpt>
      <trkpt lat="42.71955" lon="1.87675">
        <ele>1038.2</ele>
        <time>2024-10-11T10:46:32Z</time>
      </trkpt>
      <trkpt lat="42.71956" lon="1.87678">
        <ele>1038.6</ele>
        <time>2024-10-11T10:46:33Z</time>
      </trkpt>
      <trkpt lat="42.71956" lon="1.87681">
        <ele>1038.6</ele>
        <time>2024-10-11T10:46:34Z</time>
      </trkpt>
      <trkpt lat="42.71957" lon="1.87684">
        <ele>1038.6</ele>
        <time>2024-10-11T10:46:35Z</time>
      </trkpt>
      <trkpt lat="42.71957" lon="1.87687">
        <ele>1038.6</ele>
        <time>2024-10-11T10:46:36Z</time>
      </trkpt>
      <trkpt lat="42.71957" lon="1.8769">
        <ele>1038.6</ele>
        <time>2024-10-11T10:46:37Z</time>
      </trkpt>
      <trkpt lat="42.71957" lon="1.87694">
        <ele>1039</ele>
        <time>2024-10-11T10:46:38Z</time>
      </trkpt>
      <trkpt lat="42.71958" lon="1.87697">
        <ele>1039</ele>
        <time>2024-10-11T10:46:39Z</time>
      </trkpt>
      <trkpt lat="42.71958" lon="1.877">
        <ele>1039</ele>
        <time>2024-10-11T10:46:40Z</time>
      </trkpt>
      <trkpt lat="42.71958" lon="1.87703">
        <ele>1039.6</ele>
        <time>2024-10-11T10:46:41Z</time>
      </trkpt>
      <trkpt lat="42.71958" lon="1.87707">
        <ele>1039.8</ele>
        <time>2024-10-11T10:46:42Z</time>
      </trkpt>
      <trkpt lat="42.7196" lon="1.8771">
        <ele>1039.8</ele>
        <time>2024-10-11T10:46:43Z</time>
      </trkpt>
      <trkpt lat="42.7196" lon="1.87713">
        <ele>1039.8</ele>
        <time>2024-10-11T10:46:44Z</time>
      </trkpt>
      <trkpt lat="42.71961" lon="1.87716">
        <ele>1039.8</ele>
        <time>2024-10-11T10:46:45Z</time>
      </trkpt>
      <trkpt lat="42.71961" lon="1.87719">
        <ele>1040</ele>
        <time>2024-10-11T10:46:46Z</time>
      </trkpt>
      <trkpt lat="42.71962" lon="1.87722">
        <ele>1040.4</ele>
        <time>2024-10-11T10:46:47Z</time>
      </trkpt>
      <trkpt lat="42.71963" lon="1.87727">
        <ele>1040.4</ele>
        <time>2024-10-11T10:46:48Z</time>
      </trkpt>
      <trkpt lat="42.71963" lon="1.87729">
        <ele>1040.4</ele>
        <time>2024-10-11T10:46:49Z</time>
      </trkpt>
      <trkpt lat="42.71964" lon="1.87734">
        <ele>1040.4</ele>
        <time>2024-10-11T10:46:50Z</time>
      </trkpt>
      <trkpt lat="42.71965" lon="1.87736">
        <ele>1041.2</ele>
        <time>2024-10-11T10:46:51Z</time>
      </trkpt>
      <trkpt lat="42.71966" lon="1.87741">
        <ele>1041.2</ele>
        <time>2024-10-11T10:46:52Z</time>
      </trkpt>
      <trkpt lat="42.71967" lon="1.87741">
        <ele>1041.2</ele>
        <time>2024-10-11T10:46:53Z</time>
      </trkpt>
      <trkpt lat="42.71969" lon="1.87746">
        <ele>1041.8</ele>
        <time>2024-10-11T10:46:54Z</time>
      </trkpt>
      <trkpt lat="42.71969" lon="1.87748">
        <ele>1041.8</ele>
        <time>2024-10-11T10:46:55Z</time>
      </trkpt>
      <trkpt lat="42.7197" lon="1.87753">
        <ele>1042.4</ele>
        <time>2024-10-11T10:46:56Z</time>
      </trkpt>
      <trkpt lat="42.7197" lon="1.87754">
        <ele>1042.4</ele>
        <time>2024-10-11T10:46:57Z</time>
      </trkpt>
      <trkpt lat="42.71971" lon="1.87758">
        <ele>1042.4</ele>
        <time>2024-10-11T10:46:58Z</time>
      </trkpt>
      <trkpt lat="42.71972" lon="1.8776">
        <ele>1042.4</ele>
        <time>2024-10-11T10:46:59Z</time>
      </trkpt>
      <trkpt lat="42.71973" lon="1.87765">
        <ele>1043.2</ele>
        <time>2024-10-11T10:47:00Z</time>
      </trkpt>
      <trkpt lat="42.71973" lon="1.87767">
        <ele>1043.2</ele>
        <time>2024-10-11T10:47:01Z</time>
      </trkpt>
      <trkpt lat="42.71974" lon="1.8777">
        <ele>1043.2</ele>
        <time>2024-10-11T10:47:02Z</time>
      </trkpt>
      <trkpt lat="42.71975" lon="1.87776">
        <ele>1043.2</ele>
        <time>2024-10-11T10:47:03Z</time>
      </trkpt>
      <trkpt lat="42.71976" lon="1.87777">
        <ele>1043.6</ele>
        <time>2024-10-11T10:47:04Z</time>
      </trkpt>
      <trkpt lat="42.71977" lon="1.87782">
        <ele>1043.6</ele>
        <time>2024-10-11T10:47:05Z</time>
      </trkpt>
      <trkpt lat="42.71977" lon="1.87784">
        <ele>1043.6</ele>
        <time>2024-10-11T10:47:06Z</time>
      </trkpt>
      <trkpt lat="42.71978" lon="1.87787">
        <ele>1043.6</ele>
        <time>2024-10-11T10:47:07Z</time>
      </trkpt>
      <trkpt lat="42.71979" lon="1.8779">
        <ele>1043.8</ele>
        <time>2024-10-11T10:47:08Z</time>
      </trkpt>
      <trkpt lat="42.71979" lon="1.87794">
        <ele>1044.8</ele>
        <time>2024-10-11T10:47:09Z</time>
      </trkpt>
      <trkpt lat="42.7198" lon="1.87797">
        <ele>1044.8</ele>
        <time>2024-10-11T10:47:10Z</time>
      </trkpt>
      <trkpt lat="42.7198" lon="1.87801">
        <ele>1044.8</ele>
        <time>2024-10-11T10:47:11Z</time>
      </trkpt>
      <trkpt lat="42.71979" lon="1.87805">
        <ele>1044.8</ele>
        <time>2024-10-11T10:47:12Z</time>
      </trkpt>
      <trkpt lat="42.71979" lon="1.87808">
        <ele>1044.8</ele>
        <time>2024-10-11T10:47:13Z</time>
      </trkpt>
      <trkpt lat="42.71979" lon="1.87812">
        <ele>1045</ele>
        <time>2024-10-11T10:47:14Z</time>
      </trkpt>
      <trkpt lat="42.71979" lon="1.87817">
        <ele>1045</ele>
        <time>2024-10-11T10:47:15Z</time>
      </trkpt>
      <trkpt lat="42.71979" lon="1.87818">
        <ele>1045.8</ele>
        <time>2024-10-11T10:47:16Z</time>
      </trkpt>
      <trkpt lat="42.71979" lon="1.87822">
        <ele>1046.2</ele>
        <time>2024-10-11T10:47:17Z</time>
      </trkpt>
      <trkpt lat="42.71979" lon="1.87826">
        <ele>1046.2</ele>
        <time>2024-10-11T10:47:18Z</time>
      </trkpt>
      <trkpt lat="42.71979" lon="1.87829">
        <ele>1046.2</ele>
        <time>2024-10-11T10:47:19Z</time>
      </trkpt>
      <trkpt lat="42.71979" lon="1.87833">
        <ele>1046.2</ele>
        <time>2024-10-11T10:47:20Z</time>
      </trkpt>
      <trkpt lat="42.7198" lon="1.87836">
        <ele>1046.2</ele>
        <time>2024-10-11T10:47:21Z</time>
      </trkpt>
      <trkpt lat="42.71981" lon="1.87839">
        <ele>1046.2</ele>
        <time>2024-10-11T10:47:22Z</time>
      </trkpt>
      <trkpt lat="42.71981" lon="1.87842">
        <ele>1046.8</ele>
        <time>2024-10-11T10:47:23Z</time>
      </trkpt>
      <trkpt lat="42.71982" lon="1.87846">
        <ele>1046.8</ele>
        <time>2024-10-11T10:47:24Z</time>
      </trkpt>
      <trkpt lat="42.71982" lon="1.87849">
        <ele>1046.8</ele>
        <time>2024-10-11T10:47:25Z</time>
      </trkpt>
      <trkpt lat="42.71983" lon="1.87853">
        <ele>1047</ele>
        <time>2024-10-11T10:47:26Z</time>
      </trkpt>
      <trkpt lat="42.71984" lon="1.87856">
        <ele>1047.2</ele>
        <time>2024-10-11T10:47:27Z</time>
      </trkpt>
      <trkpt lat="42.71985" lon="1.87859">
        <ele>1047.2</ele>
        <time>2024-10-11T10:47:28Z</time>
      </trkpt>
      <trkpt lat="42.71986" lon="1.87862">
        <ele>1047.2</ele>
        <time>2024-10-11T10:47:29Z</time>
      </trkpt>
      <trkpt lat="42.71988" lon="1.87865">
        <ele>1047.6</ele>
        <time>2024-10-11T10:47:30Z</time>
      </trkpt>
      <trkpt lat="42.71989" lon="1.87867">
        <ele>1048</ele>
        <time>2024-10-11T10:47:31Z</time>
      </trkpt>
      <trkpt lat="42.71991" lon="1.8787">
        <ele>1048</ele>
        <time>2024-10-11T10:47:32Z</time>
      </trkpt>
      <trkpt lat="42.71993" lon="1.87872">
        <ele>1048</ele>
        <time>2024-10-11T10:47:33Z</time>
      </trkpt>
      <trkpt lat="42.71995" lon="1.87874">
        <ele>1048</ele>
        <time>2024-10-11T10:47:34Z</time>
      </trkpt>
      <trkpt lat="42.71998" lon="1.87876">
        <ele>1048</ele>
        <time>2024-10-11T10:47:35Z</time>
      </trkpt>
      <trkpt lat="42.72001" lon="1.87879">
        <ele>1048.6</ele>
        <time>2024-10-11T10:47:36Z</time>
      </trkpt>
      <trkpt lat="42.72002" lon="1.87879">
        <ele>1048.6</ele>
        <time>2024-10-11T10:47:37Z</time>
      </trkpt>
      <trkpt lat="42.72005" lon="1.87881">
        <ele>1048.6</ele>
        <time>2024-10-11T10:47:38Z</time>
      </trkpt>
      <trkpt lat="42.72006" lon="1.87882">
        <ele>1049</ele>
        <time>2024-10-11T10:47:39Z</time>
      </trkpt>
      <trkpt lat="42.72009" lon="1.87883">
        <ele>1049.4</ele>
        <time>2024-10-11T10:47:40Z</time>
      </trkpt>
      <trkpt lat="42.7201" lon="1.87883">
        <ele>1049.4</ele>
        <time>2024-10-11T10:47:41Z</time>
      </trkpt>
      <trkpt lat="42.72014" lon="1.87884">
        <ele>1049.4</ele>
        <time>2024-10-11T10:47:42Z</time>
      </trkpt>
      <trkpt lat="42.72015" lon="1.87885">
        <ele>1049.4</ele>
        <time>2024-10-11T10:47:43Z</time>
      </trkpt>
      <trkpt lat="42.72018" lon="1.87887">
        <ele>1049.4</ele>
        <time>2024-10-11T10:47:44Z</time>
      </trkpt>
      <trkpt lat="42.72019" lon="1.87888">
        <ele>1049.8</ele>
        <time>2024-10-11T10:47:45Z</time>
      </trkpt>
      <trkpt lat="42.72023" lon="1.87891">
        <ele>1049.8</ele>
        <time>2024-10-11T10:47:46Z</time>
      </trkpt>
      <trkpt lat="42.72024" lon="1.87892">
        <ele>1049.8</ele>
        <time>2024-10-11T10:47:47Z</time>
      </trkpt>
      <trkpt lat="42.72027" lon="1.87894">
        <ele>1050.2</ele>
        <time>2024-10-11T10:47:48Z</time>
      </trkpt>
      <trkpt lat="42.72028" lon="1.87895">
        <ele>1050.8</ele>
        <time>2024-10-11T10:47:49Z</time>
      </trkpt>
      <trkpt lat="42.7203" lon="1.87897">
        <ele>1050.8</ele>
        <time>2024-10-11T10:47:50Z</time>
      </trkpt>
      <trkpt lat="42.72032" lon="1.87899">
        <ele>1050.8</ele>
        <time>2024-10-11T10:47:51Z</time>
      </trkpt>
      <trkpt lat="42.72034" lon="1.87901">
        <ele>1050.8</ele>
        <time>2024-10-11T10:47:52Z</time>
      </trkpt>
      <trkpt lat="42.72036" lon="1.87903">
        <ele>1050.8</ele>
        <time>2024-10-11T10:47:53Z</time>
      </trkpt>
      <trkpt lat="42.72037" lon="1.87906">
        <ele>1050.8</ele>
        <time>2024-10-11T10:47:54Z</time>
      </trkpt>
      <trkpt lat="42.72039" lon="1.87908">
        <ele>1051.4</ele>
        <time>2024-10-11T10:47:55Z</time>
      </trkpt>
      <trkpt lat="42.72041" lon="1.87911">
        <ele>1051.4</ele>
        <time>2024-10-11T10:47:56Z</time>
      </trkpt>
      <trkpt lat="42.72043" lon="1.87914">
        <ele>1051.4</ele>
        <time>2024-10-11T10:47:57Z</time>
      </trkpt>
      <trkpt lat="42.72044" lon="1.87917">
        <ele>1051.8</ele>
        <time>2024-10-11T10:47:58Z</time>
      </trkpt>
      <trkpt lat="42.72046" lon="1.87919">
        <ele>1051.8</ele>
        <time>2024-10-11T10:47:59Z</time>
      </trkpt>
      <trkpt lat="42.72048" lon="1.87921">
        <ele>1051.8</ele>
        <time>2024-10-11T10:48:00Z</time>
      </trkpt>
      <trkpt lat="42.7205" lon="1.87924">
        <ele>1052.4</ele>
        <time>2024-10-11T10:48:01Z</time>
      </trkpt>
      <trkpt lat="42.72052" lon="1.87926">
        <ele>1052.4</ele>
        <time>2024-10-11T10:48:02Z</time>
      </trkpt>
      <trkpt lat="42.72054" lon="1.87929">
        <ele>1052.6</ele>
        <time>2024-10-11T10:48:03Z</time>
      </trkpt>
      <trkpt lat="42.72056" lon="1.87931">
        <ele>1052.6</ele>
        <time>2024-10-11T10:48:04Z</time>
      </trkpt>
      <trkpt lat="42.72058" lon="1.87934">
        <ele>1052.6</ele>
        <time>2024-10-11T10:48:05Z</time>
      </trkpt>
      <trkpt lat="42.72059" lon="1.87936">
        <ele>1052.6</ele>
        <time>2024-10-11T10:48:06Z</time>
      </trkpt>
      <trkpt lat="42.72061" lon="1.87938">
        <ele>1053.4</ele>
        <time>2024-10-11T10:48:07Z</time>
      </trkpt>
      <trkpt lat="42.72063" lon="1.87941">
        <ele>1053.4</ele>
        <time>2024-10-11T10:48:08Z</time>
      </trkpt>
      <trkpt lat="42.72065" lon="1.87943">
        <ele>1053.4</ele>
        <time>2024-10-11T10:48:09Z</time>
      </trkpt>
      <trkpt lat="42.72067" lon="1.87946">
        <ele>1053.4</ele>
        <time>2024-10-11T10:48:10Z</time>
      </trkpt>
      <trkpt lat="42.72069" lon="1.87948">
        <ele>1053.6</ele>
        <time>2024-10-11T10:48:11Z</time>
      </trkpt>
      <trkpt lat="42.72072" lon="1.8795">
        <ele>1053.8</ele>
        <time>2024-10-11T10:48:12Z</time>
      </trkpt>
      <trkpt lat="42.72074" lon="1.87953">
        <ele>1053.8</ele>
        <time>2024-10-11T10:48:13Z</time>
      </trkpt>
      <trkpt lat="42.72075" lon="1.87955">
        <ele>1053.8</ele>
        <time>2024-10-11T10:48:14Z</time>
      </trkpt>
      <trkpt lat="42.72078" lon="1.87959">
        <ele>1053.8</ele>
        <time>2024-10-11T10:48:15Z</time>
      </trkpt>
      <trkpt lat="42.72079" lon="1.87961">
        <ele>1054.6</ele>
        <time>2024-10-11T10:48:16Z</time>
      </trkpt>
      <trkpt lat="42.72082" lon="1.87965">
        <ele>1054.6</ele>
        <time>2024-10-11T10:48:17Z</time>
      </trkpt>
      <trkpt lat="42.72083" lon="1.87966">
        <ele>1054.6</ele>
        <time>2024-10-11T10:48:18Z</time>
      </trkpt>
      <trkpt lat="42.72086" lon="1.87969">
        <ele>1054.6</ele>
        <time>2024-10-11T10:48:19Z</time>
      </trkpt>
      <trkpt lat="42.72087" lon="1.87971">
        <ele>1055.4</ele>
        <time>2024-10-11T10:48:20Z</time>
      </trkpt>
      <trkpt lat="42.7209" lon="1.87974">
        <ele>1055.2</ele>
        <time>2024-10-11T10:48:21Z</time>
      </trkpt>
      <trkpt lat="42.72091" lon="1.87976">
        <ele>1055.2</ele>
        <time>2024-10-11T10:48:22Z</time>
      </trkpt>
      <trkpt lat="42.72094" lon="1.8798">
        <ele>1055.2</ele>
        <time>2024-10-11T10:48:23Z</time>
      </trkpt>
      <trkpt lat="42.72095" lon="1.87981">
        <ele>1055.2</ele>
        <time>2024-10-11T10:48:24Z</time>
      </trkpt>
      <trkpt lat="42.72098" lon="1.87985">
        <ele>1055.4</ele>
        <time>2024-10-11T10:48:25Z</time>
      </trkpt>
      <trkpt lat="42.72099" lon="1.87987">
        <ele>1055.4</ele>
        <time>2024-10-11T10:48:26Z</time>
      </trkpt>
      <trkpt lat="42.72102" lon="1.87991">
        <ele>1055.4</ele>
        <time>2024-10-11T10:48:27Z</time>
      </trkpt>
      <trkpt lat="42.72103" lon="1.87992">
        <ele>1056</ele>
        <time>2024-10-11T10:48:28Z</time>
      </trkpt>
      <trkpt lat="42.72107" lon="1.87996">
        <ele>1056</ele>
        <time>2024-10-11T10:48:29Z</time>
      </trkpt>
      <trkpt lat="42.72108" lon="1.87997">
        <ele>1056</ele>
        <time>2024-10-11T10:48:30Z</time>
      </trkpt>
      <trkpt lat="42.7211" lon="1.88">
        <ele>1056</ele>
        <time>2024-10-11T10:48:31Z</time>
      </trkpt>
      <trkpt lat="42.72112" lon="1.88002">
        <ele>1056</ele>
        <time>2024-10-11T10:48:32Z</time>
      </trkpt>
      <trkpt lat="42.72114" lon="1.88005">
        <ele>1056.4</ele>
        <time>2024-10-11T10:48:33Z</time>
      </trkpt>
      <trkpt lat="42.72116" lon="1.88007">
        <ele>1056.6</ele>
        <time>2024-10-11T10:48:34Z</time>
      </trkpt>
      <trkpt lat="42.72117" lon="1.8801">
        <ele>1056.6</ele>
        <time>2024-10-11T10:48:35Z</time>
      </trkpt>
      <trkpt lat="42.72119" lon="1.88013">
        <ele>1056.6</ele>
        <time>2024-10-11T10:48:36Z</time>
      </trkpt>
      <trkpt lat="42.72121" lon="1.88015">
        <ele>1057</ele>
        <time>2024-10-11T10:48:37Z</time>
      </trkpt>
      <trkpt lat="42.72123" lon="1.88019">
        <ele>1057.2</ele>
        <time>2024-10-11T10:48:38Z</time>
      </trkpt>
      <trkpt lat="42.72125" lon="1.88022">
        <ele>1057.2</ele>
        <time>2024-10-11T10:48:39Z</time>
      </trkpt>
      <trkpt lat="42.72126" lon="1.88025">
        <ele>1057.2</ele>
        <time>2024-10-11T10:48:40Z</time>
      </trkpt>
      <trkpt lat="42.72126" lon="1.88028">
        <ele>1057.2</ele>
        <time>2024-10-11T10:48:41Z</time>
      </trkpt>
      <trkpt lat="42.72127" lon="1.88032">
        <ele>1057.8</ele>
        <time>2024-10-11T10:48:42Z</time>
      </trkpt>
      <trkpt lat="42.72128" lon="1.88035">
        <ele>1057.8</ele>
        <time>2024-10-11T10:48:43Z</time>
      </trkpt>
      <trkpt lat="42.72128" lon="1.88038">
        <ele>1057.8</ele>
        <time>2024-10-11T10:48:44Z</time>
      </trkpt>
      <trkpt lat="42.72128" lon="1.88041">
        <ele>1057.8</ele>
        <time>2024-10-11T10:48:45Z</time>
      </trkpt>
      <trkpt lat="42.72128" lon="1.88044">
        <ele>1057.8</ele>
        <time>2024-10-11T10:48:46Z</time>
      </trkpt>
      <trkpt lat="42.72128" lon="1.88048">
        <ele>1058.6</ele>
        <time>2024-10-11T10:48:47Z</time>
      </trkpt>
      <trkpt lat="42.72127" lon="1.88051">
        <ele>1058.6</ele>
        <time>2024-10-11T10:48:48Z</time>
      </trkpt>
      <trkpt lat="42.72126" lon="1.88055">
        <ele>1058.6</ele>
        <time>2024-10-11T10:48:49Z</time>
      </trkpt>
      <trkpt lat="42.72126" lon="1.88058">
        <ele>1058.6</ele>
        <time>2024-10-11T10:48:50Z</time>
      </trkpt>
      <trkpt lat="42.72126" lon="1.88061">
        <ele>1058.6</ele>
        <time>2024-10-11T10:48:51Z</time>
      </trkpt>
      <trkpt lat="42.72125" lon="1.88064">
        <ele>1059.4</ele>
        <time>2024-10-11T10:48:52Z</time>
      </trkpt>
      <trkpt lat="42.72123" lon="1.88067">
        <ele>1059.4</ele>
        <time>2024-10-11T10:48:53Z</time>
      </trkpt>
      <trkpt lat="42.72122" lon="1.8807">
        <ele>1059.4</ele>
        <time>2024-10-11T10:48:54Z</time>
      </trkpt>
      <trkpt lat="42.72122" lon="1.88073">
        <ele>1059.4</ele>
        <time>2024-10-11T10:48:55Z</time>
      </trkpt>
      <trkpt lat="42.72121" lon="1.88076">
        <ele>1059.8</ele>
        <time>2024-10-11T10:48:56Z</time>
      </trkpt>
      <trkpt lat="42.72121" lon="1.8808">
        <ele>1059.8</ele>
        <time>2024-10-11T10:48:57Z</time>
      </trkpt>
      <trkpt lat="42.7212" lon="1.88082">
        <ele>1059.8</ele>
        <time>2024-10-11T10:48:58Z</time>
      </trkpt>
      <trkpt lat="42.7212" lon="1.88087">
        <ele>1059.8</ele>
        <time>2024-10-11T10:48:59Z</time>
      </trkpt>
      <trkpt lat="42.7212" lon="1.88089">
        <ele>1059.8</ele>
        <time>2024-10-11T10:49:00Z</time>
      </trkpt>
      <trkpt lat="42.72121" lon="1.88093">
        <ele>1060.4</ele>
        <time>2024-10-11T10:49:01Z</time>
      </trkpt>
      <trkpt lat="42.72121" lon="1.88095">
        <ele>1060.4</ele>
        <time>2024-10-11T10:49:02Z</time>
      </trkpt>
      <trkpt lat="42.72122" lon="1.88099">
        <ele>1060.4</ele>
        <time>2024-10-11T10:49:03Z</time>
      </trkpt>
      <trkpt lat="42.72123" lon="1.881">
        <ele>1060.4</ele>
        <time>2024-10-11T10:49:04Z</time>
      </trkpt>
      <trkpt lat="42.72125" lon="1.88103">
        <ele>1060.8</ele>
        <time>2024-10-11T10:49:05Z</time>
      </trkpt>
      <trkpt lat="42.72126" lon="1.88104">
        <ele>1061.2</ele>
        <time>2024-10-11T10:49:06Z</time>
      </trkpt>
      <trkpt lat="42.72128" lon="1.88107">
        <ele>1061.2</ele>
        <time>2024-10-11T10:49:07Z</time>
      </trkpt>
      <trkpt lat="42.72129" lon="1.88108">
        <ele>1061.2</ele>
        <time>2024-10-11T10:49:08Z</time>
      </trkpt>
      <trkpt lat="42.72132" lon="1.88111">
        <ele>1062</ele>
        <time>2024-10-11T10:49:09Z</time>
      </trkpt>
      <trkpt lat="42.72133" lon="1.88112">
        <ele>1062</ele>
        <time>2024-10-11T10:49:10Z</time>
      </trkpt>
      <trkpt lat="42.72136" lon="1.88115">
        <ele>1062</ele>
        <time>2024-10-11T10:49:11Z</time>
      </trkpt>
      <trkpt lat="42.72137" lon="1.88116">
        <ele>1062</ele>
        <time>2024-10-11T10:49:12Z</time>
      </trkpt>
      <trkpt lat="42.7214" lon="1.88118">
        <ele>1062.4</ele>
        <time>2024-10-11T10:49:13Z</time>
      </trkpt>
      <trkpt lat="42.72141" lon="1.88118">
        <ele>1062.4</ele>
        <time>2024-10-11T10:49:14Z</time>
      </trkpt>
      <trkpt lat="42.72143" lon="1.88121">
        <ele>1062.6</ele>
        <time>2024-10-11T10:49:15Z</time>
      </trkpt>
      <trkpt lat="42.72144" lon="1.88122">
        <ele>1062.6</ele>
        <time>2024-10-11T10:49:16Z</time>
      </trkpt>
      <trkpt lat="42.72146" lon="1.88123">
        <ele>1062.6</ele>
        <time>2024-10-11T10:49:17Z</time>
      </trkpt>
      <trkpt lat="42.72148" lon="1.88125">
        <ele>1063</ele>
        <time>2024-10-11T10:49:18Z</time>
      </trkpt>
      <trkpt lat="42.72149" lon="1.88127">
        <ele>1063.2</ele>
        <time>2024-10-11T10:49:19Z</time>
      </trkpt>
      <trkpt lat="42.72151" lon="1.88129">
        <ele>1063.2</ele>
        <time>2024-10-11T10:49:20Z</time>
      </trkpt>
      <trkpt lat="42.72153" lon="1.88131">
        <ele>1063.2</ele>
        <time>2024-10-11T10:49:21Z</time>
      </trkpt>
      <trkpt lat="42.72154" lon="1.88133">
        <ele>1063.6</ele>
        <time>2024-10-11T10:49:22Z</time>
      </trkpt>
      <trkpt lat="42.72156" lon="1.88135">
        <ele>1064</ele>
        <time>2024-10-11T10:49:23Z</time>
      </trkpt>
      <trkpt lat="42.72158" lon="1.88137">
        <ele>1064</ele>
        <time>2024-10-11T10:49:24Z</time>
      </trkpt>
      <trkpt lat="42.7216" lon="1.8814">
        <ele>1064</ele>
        <time>2024-10-11T10:49:25Z</time>
      </trkpt>
      <trkpt lat="42.72161" lon="1.88142">
        <ele>1064</ele>
        <time>2024-10-11T10:49:26Z</time>
      </trkpt>
      <trkpt lat="42.72163" lon="1.88145">
        <ele>1064.4</ele>
        <time>2024-10-11T10:49:27Z</time>
      </trkpt>
      <trkpt lat="42.72164" lon="1.88147">
        <ele>1064.4</ele>
        <time>2024-10-11T10:49:28Z</time>
      </trkpt>
      <trkpt lat="42.72165" lon="1.8815">
        <ele>1064.4</ele>
        <time>2024-10-11T10:49:29Z</time>
      </trkpt>
      <trkpt lat="42.72167" lon="1.88153">
        <ele>1064.4</ele>
        <time>2024-10-11T10:49:30Z</time>
      </trkpt>
      <trkpt lat="42.72169" lon="1.88155">
        <ele>1064.4</ele>
        <time>2024-10-11T10:49:31Z</time>
      </trkpt>
      <trkpt lat="42.7217" lon="1.88158">
        <ele>1064.4</ele>
        <time>2024-10-11T10:49:32Z</time>
      </trkpt>
      <trkpt lat="42.72171" lon="1.8816">
        <ele>1064.8</ele>
        <time>2024-10-11T10:49:33Z</time>
      </trkpt>
      <trkpt lat="42.72172" lon="1.88163">
        <ele>1064.8</ele>
        <time>2024-10-11T10:49:34Z</time>
      </trkpt>
      <trkpt lat="42.72174" lon="1.88166">
        <ele>1064.8</ele>
        <time>2024-10-11T10:49:35Z</time>
      </trkpt>
      <trkpt lat="42.72175" lon="1.88169">
        <ele>1065.4</ele>
        <time>2024-10-11T10:49:36Z</time>
      </trkpt>
      <trkpt lat="42.72176" lon="1.88172">
        <ele>1065.4</ele>
        <time>2024-10-11T10:49:37Z</time>
      </trkpt>
      <trkpt lat="42.72177" lon="1.88176">
        <ele>1065.4</ele>
        <time>2024-10-11T10:49:38Z</time>
      </trkpt>
      <trkpt lat="42.72178" lon="1.88179">
        <ele>1065.4</ele>
        <time>2024-10-11T10:49:39Z</time>
      </trkpt>
      <trkpt lat="42.72179" lon="1.88182">
        <ele>1065.4</ele>
        <time>2024-10-11T10:49:40Z</time>
      </trkpt>
      <trkpt lat="42.7218" lon="1.88185">
        <ele>1065.6</ele>
        <time>2024-10-11T10:49:41Z</time>
      </trkpt>
      <trkpt lat="42.72181" lon="1.88188">
        <ele>1065.8</ele>
        <time>2024-10-11T10:49:42Z</time>
      </trkpt>
      <trkpt lat="42.72182" lon="1.88192">
        <ele>1065.8</ele>
        <time>2024-10-11T10:49:43Z</time>
      </trkpt>
      <trkpt lat="42.72183" lon="1.88197">
        <ele>1065.8</ele>
        <time>2024-10-11T10:49:44Z</time>
      </trkpt>
      <trkpt lat="42.72183" lon="1.88199">
        <ele>1066.6</ele>
        <time>2024-10-11T10:49:45Z</time>
      </trkpt>
      <trkpt lat="42.72184" lon="1.88204">
        <ele>1066.4</ele>
        <time>2024-10-11T10:49:46Z</time>
      </trkpt>
      <trkpt lat="42.72184" lon="1.88205">
        <ele>1066.4</ele>
        <time>2024-10-11T10:49:47Z</time>
      </trkpt>
      <trkpt lat="42.72185" lon="1.88208">
        <ele>1066.4</ele>
        <time>2024-10-11T10:49:48Z</time>
      </trkpt>
      <trkpt lat="42.72186" lon="1.88211">
        <ele>1066.4</ele>
        <time>2024-10-11T10:49:49Z</time>
      </trkpt>
      <trkpt lat="42.72186" lon="1.88214">
        <ele>1066.4</ele>
        <time>2024-10-11T10:49:50Z</time>
      </trkpt>
      <trkpt lat="42.72186" lon="1.88215">
        <ele>1067</ele>
        <time>2024-10-11T10:49:51Z</time>
      </trkpt>
      <trkpt lat="42.72186" lon="1.88215">
        <ele>1067</ele>
        <time>2024-10-11T10:49:52Z</time>
      </trkpt>
      <trkpt lat="42.72186" lon="1.88215">
        <ele>1067</ele>
        <time>2024-10-11T10:49:53Z</time>
      </trkpt>
      <trkpt lat="42.72189" lon="1.88227">
        <ele>1067.4</ele>
        <time>2024-10-11T10:50:19Z</time>
      </trkpt>
      <trkpt lat="42.72191" lon="1.88229">
        <ele>1067.4</ele>
        <time>2024-10-11T10:50:20Z</time>
      </trkpt>
      <trkpt lat="42.72192" lon="1.88231">
        <ele>1067.4</ele>
        <time>2024-10-11T10:50:21Z</time>
      </trkpt>
      <trkpt lat="42.72192" lon="1.88232">
        <ele>1067.6</ele>
        <time>2024-10-11T10:50:22Z</time>
      </trkpt>
      <trkpt lat="42.72193" lon="1.88234">
        <ele>1067.6</ele>
        <time>2024-10-11T10:50:23Z</time>
      </trkpt>
      <trkpt lat="42.72195" lon="1.88237">
        <ele>1067.6</ele>
        <time>2024-10-11T10:50:24Z</time>
      </trkpt>
      <trkpt lat="42.72196" lon="1.88239">
        <ele>1067.6</ele>
        <time>2024-10-11T10:50:25Z</time>
      </trkpt>
      <trkpt lat="42.72197" lon="1.88242">
        <ele>1067.6</ele>
        <time>2024-10-11T10:50:26Z</time>
      </trkpt>
      <trkpt lat="42.72198" lon="1.88245">
        <ele>1068</ele>
        <time>2024-10-11T10:50:27Z</time>
      </trkpt>
      <trkpt lat="42.72199" lon="1.88247">
        <ele>1068</ele>
        <time>2024-10-11T10:50:28Z</time>
      </trkpt>
      <trkpt lat="42.72201" lon="1.88251">
        <ele>1068</ele>
        <time>2024-10-11T10:50:29Z</time>
      </trkpt>
      <trkpt lat="42.72202" lon="1.88253">
        <ele>1068.6</ele>
        <time>2024-10-11T10:50:30Z</time>
      </trkpt>
      <trkpt lat="42.72204" lon="1.88256">
        <ele>1068.8</ele>
        <time>2024-10-11T10:50:31Z</time>
      </trkpt>
      <trkpt lat="42.72205" lon="1.88258">
        <ele>1068.8</ele>
        <time>2024-10-11T10:50:32Z</time>
      </trkpt>
      <trkpt lat="42.72207" lon="1.88261">
        <ele>1068.8</ele>
        <time>2024-10-11T10:50:33Z</time>
      </trkpt>
      <trkpt lat="42.72207" lon="1.88262">
        <ele>1068.8</ele>
        <time>2024-10-11T10:50:34Z</time>
      </trkpt>
      <trkpt lat="42.72209" lon="1.88265">
        <ele>1069.2</ele>
        <time>2024-10-11T10:50:35Z</time>
      </trkpt>
      <trkpt lat="42.7221" lon="1.88267">
        <ele>1069.4</ele>
        <time>2024-10-11T10:50:36Z</time>
      </trkpt>
      <trkpt lat="42.72213" lon="1.8827">
        <ele>1069.4</ele>
        <time>2024-10-11T10:50:37Z</time>
      </trkpt>
      <trkpt lat="42.72213" lon="1.88271">
        <ele>1069.4</ele>
        <time>2024-10-11T10:50:38Z</time>
      </trkpt>
      <trkpt lat="42.72216" lon="1.88274">
        <ele>1070</ele>
        <time>2024-10-11T10:50:39Z</time>
      </trkpt>
      <trkpt lat="42.72217" lon="1.88275">
        <ele>1070</ele>
        <time>2024-10-11T10:50:40Z</time>
      </trkpt>
      <trkpt lat="42.7222" lon="1.88277">
        <ele>1070</ele>
        <time>2024-10-11T10:50:41Z</time>
      </trkpt>
      <trkpt lat="42.72221" lon="1.88278">
        <ele>1070</ele>
        <time>2024-10-11T10:50:42Z</time>
      </trkpt>
      <trkpt lat="42.72223" lon="1.88279">
        <ele>1070</ele>
        <time>2024-10-11T10:50:43Z</time>
      </trkpt>
      <trkpt lat="42.72224" lon="1.88281">
        <ele>1071</ele>
        <time>2024-10-11T10:50:44Z</time>
      </trkpt>
      <trkpt lat="42.72226" lon="1.88282">
        <ele>1071</ele>
        <time>2024-10-11T10:50:45Z</time>
      </trkpt>
      <trkpt lat="42.72228" lon="1.88284">
        <ele>1071</ele>
        <time>2024-10-11T10:50:46Z</time>
      </trkpt>
      <trkpt lat="42.7223" lon="1.88285">
        <ele>1071</ele>
        <time>2024-10-11T10:50:47Z</time>
      </trkpt>
      <trkpt lat="42.72232" lon="1.88285">
        <ele>1071</ele>
        <time>2024-10-11T10:50:48Z</time>
      </trkpt>
      <trkpt lat="42.72233" lon="1.88286">
        <ele>1071</ele>
        <time>2024-10-11T10:50:49Z</time>
      </trkpt>
      <trkpt lat="42.72235" lon="1.88288">
        <ele>1071.8</ele>
        <time>2024-10-11T10:50:50Z</time>
      </trkpt>
      <trkpt lat="42.72237" lon="1.88289">
        <ele>1071.8</ele>
        <time>2024-10-11T10:50:51Z</time>
      </trkpt>
      <trkpt lat="42.72238" lon="1.8829">
        <ele>1072.8</ele>
        <time>2024-10-11T10:50:52Z</time>
      </trkpt>
      <trkpt lat="42.72241" lon="1.88292">
        <ele>1073</ele>
        <time>2024-10-11T10:50:53Z</time>
      </trkpt>
      <trkpt lat="42.72242" lon="1.88293">
        <ele>1073</ele>
        <time>2024-10-11T10:50:54Z</time>
      </trkpt>
      <trkpt lat="42.72244" lon="1.88293">
        <ele>1073</ele>
        <time>2024-10-11T10:50:55Z</time>
      </trkpt>
      <trkpt lat="42.72245" lon="1.88294">
        <ele>1073</ele>
        <time>2024-10-11T10:50:56Z</time>
      </trkpt>
      <trkpt lat="42.72247" lon="1.88295">
        <ele>1073</ele>
        <time>2024-10-11T10:50:57Z</time>
      </trkpt>
      <trkpt lat="42.72249" lon="1.88297">
        <ele>1073.4</ele>
        <time>2024-10-11T10:50:58Z</time>
      </trkpt>
      <trkpt lat="42.72251" lon="1.88298">
        <ele>1073.4</ele>
        <time>2024-10-11T10:50:59Z</time>
      </trkpt>
      <trkpt lat="42.72253" lon="1.88299">
        <ele>1073.4</ele>
        <time>2024-10-11T10:51:00Z</time>
      </trkpt>
      <trkpt lat="42.72255" lon="1.88301">
        <ele>1073.4</ele>
        <time>2024-10-11T10:51:01Z</time>
      </trkpt>
      <trkpt lat="42.72258" lon="1.88302">
        <ele>1074</ele>
        <time>2024-10-11T10:51:02Z</time>
      </trkpt>
      <trkpt lat="42.7226" lon="1.88304">
        <ele>1074</ele>
        <time>2024-10-11T10:51:03Z</time>
      </trkpt>
      <trkpt lat="42.72262" lon="1.88306">
        <ele>1074</ele>
        <time>2024-10-11T10:51:04Z</time>
      </trkpt>
      <trkpt lat="42.72264" lon="1.88308">
        <ele>1074</ele>
        <time>2024-10-11T10:51:05Z</time>
      </trkpt>
      <trkpt lat="42.72266" lon="1.8831">
        <ele>1074.4</ele>
        <time>2024-10-11T10:51:06Z</time>
      </trkpt>
      <trkpt lat="42.72267" lon="1.88311">
        <ele>1074.6</ele>
        <time>2024-10-11T10:51:07Z</time>
      </trkpt>
      <trkpt lat="42.72269" lon="1.88313">
        <ele>1074.6</ele>
        <time>2024-10-11T10:51:08Z</time>
      </trkpt>
      <trkpt lat="42.72271" lon="1.88315">
        <ele>1074.6</ele>
        <time>2024-10-11T10:51:09Z</time>
      </trkpt>
      <trkpt lat="42.72272" lon="1.88317">
        <ele>1074.6</ele>
        <time>2024-10-11T10:51:10Z</time>
      </trkpt>
      <trkpt lat="42.72275" lon="1.8832">
        <ele>1074.8</ele>
        <time>2024-10-11T10:51:11Z</time>
      </trkpt>
      <trkpt lat="42.72276" lon="1.88321">
        <ele>1075.2</ele>
        <time>2024-10-11T10:51:12Z</time>
      </trkpt>
      <trkpt lat="42.72278" lon="1.88325">
        <ele>1075.2</ele>
        <time>2024-10-11T10:51:13Z</time>
      </trkpt>
      <trkpt lat="42.72279" lon="1.88326">
        <ele>1075.2</ele>
        <time>2024-10-11T10:51:14Z</time>
      </trkpt>
      <trkpt lat="42.72281" lon="1.8833">
        <ele>1075.4</ele>
        <time>2024-10-11T10:51:15Z</time>
      </trkpt>
      <trkpt lat="42.72282" lon="1.88331">
        <ele>1075.6</ele>
        <time>2024-10-11T10:51:16Z</time>
      </trkpt>
      <trkpt lat="42.72284" lon="1.88335">
        <ele>1075.6</ele>
        <time>2024-10-11T10:51:17Z</time>
      </trkpt>
      <trkpt lat="42.72285" lon="1.88336">
        <ele>1075.6</ele>
        <time>2024-10-11T10:51:18Z</time>
      </trkpt>
      <trkpt lat="42.72286" lon="1.8834">
        <ele>1075.6</ele>
        <time>2024-10-11T10:51:19Z</time>
      </trkpt>
      <trkpt lat="42.72287" lon="1.88341">
        <ele>1076.2</ele>
        <time>2024-10-11T10:51:20Z</time>
      </trkpt>
      <trkpt lat="42.72288" lon="1.88346">
        <ele>1076.4</ele>
        <time>2024-10-11T10:51:21Z</time>
      </trkpt>
      <trkpt lat="42.72288" lon="1.88347">
        <ele>1076.4</ele>
        <time>2024-10-11T10:51:22Z</time>
      </trkpt>
      <trkpt lat="42.7229" lon="1.88351">
        <ele>1076.4</ele>
        <time>2024-10-11T10:51:23Z</time>
      </trkpt>
      <trkpt lat="42.7229" lon="1.88352">
        <ele>1076.4</ele>
        <time>2024-10-11T10:51:24Z</time>
      </trkpt>
      <trkpt lat="42.72291" lon="1.88356">
        <ele>1077</ele>
        <time>2024-10-11T10:51:25Z</time>
      </trkpt>
      <trkpt lat="42.72292" lon="1.88357">
        <ele>1077</ele>
        <time>2024-10-11T10:51:26Z</time>
      </trkpt>
      <trkpt lat="42.72291" lon="1.8836">
        <ele>1077</ele>
        <time>2024-10-11T10:51:27Z</time>
      </trkpt>
      <trkpt lat="42.72291" lon="1.88363">
        <ele>1077</ele>
        <time>2024-10-11T10:51:28Z</time>
      </trkpt>
      <trkpt lat="42.72291" lon="1.88366">
        <ele>1077</ele>
        <time>2024-10-11T10:51:29Z</time>
      </trkpt>
      <trkpt lat="42.7229" lon="1.88369">
        <ele>1077.4</ele>
        <time>2024-10-11T10:51:30Z</time>
      </trkpt>
      <trkpt lat="42.72289" lon="1.88372">
        <ele>1077.4</ele>
        <time>2024-10-11T10:51:31Z</time>
      </trkpt>
      <trkpt lat="42.72288" lon="1.88375">
        <ele>1077.4</ele>
        <time>2024-10-11T10:51:32Z</time>
      </trkpt>
      <trkpt lat="42.72287" lon="1.88378">
        <ele>1077.4</ele>
        <time>2024-10-11T10:51:33Z</time>
      </trkpt>
      <trkpt lat="42.72286" lon="1.88381">
        <ele>1078.4</ele>
        <time>2024-10-11T10:51:34Z</time>
      </trkpt>
      <trkpt lat="42.72285" lon="1.88383">
        <ele>1078.4</ele>
        <time>2024-10-11T10:51:35Z</time>
      </trkpt>
      <trkpt lat="42.72284" lon="1.88386">
        <ele>1078.4</ele>
        <time>2024-10-11T10:51:36Z</time>
      </trkpt>
      <trkpt lat="42.72282" lon="1.88389">
        <ele>1078.6</ele>
        <time>2024-10-11T10:51:37Z</time>
      </trkpt>
      <trkpt lat="42.72281" lon="1.88391">
        <ele>1078.6</ele>
        <time>2024-10-11T10:51:38Z</time>
      </trkpt>
      <trkpt lat="42.7228" lon="1.88394">
        <ele>1078.8</ele>
        <time>2024-10-11T10:51:39Z</time>
      </trkpt>
      <trkpt lat="42.72279" lon="1.88397">
        <ele>1078.8</ele>
        <time>2024-10-11T10:51:40Z</time>
      </trkpt>
      <trkpt lat="42.72279" lon="1.88401">
        <ele>1078.8</ele>
        <time>2024-10-11T10:51:41Z</time>
      </trkpt>
      <trkpt lat="42.72278" lon="1.88405">
        <ele>1078.8</ele>
        <time>2024-10-11T10:51:42Z</time>
      </trkpt>
      <trkpt lat="42.72278" lon="1.88408">
        <ele>1079.2</ele>
        <time>2024-10-11T10:51:43Z</time>
      </trkpt>
      <trkpt lat="42.72277" lon="1.88412">
        <ele>1079.4</ele>
        <time>2024-10-11T10:51:44Z</time>
      </trkpt>
      <trkpt lat="42.72279" lon="1.88415">
        <ele>1079.4</ele>
        <time>2024-10-11T10:51:45Z</time>
      </trkpt>
      <trkpt lat="42.72279" lon="1.88419">
        <ele>1079.4</ele>
        <time>2024-10-11T10:51:46Z</time>
      </trkpt>
      <trkpt lat="42.7228" lon="1.88423">
        <ele>1079.4</ele>
        <time>2024-10-11T10:51:47Z</time>
      </trkpt>
      <trkpt lat="42.72281" lon="1.88425">
        <ele>1079.8</ele>
        <time>2024-10-11T10:51:48Z</time>
      </trkpt>
      <trkpt lat="42.72282" lon="1.88429">
        <ele>1079.8</ele>
        <time>2024-10-11T10:51:49Z</time>
      </trkpt>
      <trkpt lat="42.72284" lon="1.88432">
        <ele>1079.8</ele>
        <time>2024-10-11T10:51:50Z</time>
      </trkpt>
      <trkpt lat="42.72286" lon="1.88434">
        <ele>1080.4</ele>
        <time>2024-10-11T10:51:51Z</time>
      </trkpt>
      <trkpt lat="42.72288" lon="1.88436">
        <ele>1080.6</ele>
        <time>2024-10-11T10:51:52Z</time>
      </trkpt>
      <trkpt lat="42.7229" lon="1.8844">
        <ele>1080.6</ele>
        <time>2024-10-11T10:51:53Z</time>
      </trkpt>
      <trkpt lat="42.72291" lon="1.88441">
        <ele>1080.6</ele>
        <time>2024-10-11T10:51:54Z</time>
      </trkpt>
      <trkpt lat="42.72294" lon="1.88444">
        <ele>1080.6</ele>
        <time>2024-10-11T10:51:55Z</time>
      </trkpt>
      <trkpt lat="42.72295" lon="1.88445">
        <ele>1080.8</ele>
        <time>2024-10-11T10:51:56Z</time>
      </trkpt>
      <trkpt lat="42.72298" lon="1.88449">
        <ele>1080.8</ele>
        <time>2024-10-11T10:51:57Z</time>
      </trkpt>
      <trkpt lat="42.72299" lon="1.8845">
        <ele>1080.8</ele>
        <time>2024-10-11T10:51:58Z</time>
      </trkpt>
      <trkpt lat="42.72301" lon="1.88453">
        <ele>1080.8</ele>
        <time>2024-10-11T10:51:59Z</time>
      </trkpt>
      <trkpt lat="42.72302" lon="1.88454">
        <ele>1080.8</ele>
        <time>2024-10-11T10:52:00Z</time>
      </trkpt>
      <trkpt lat="42.72305" lon="1.88457">
        <ele>1081.8</ele>
        <time>2024-10-11T10:52:01Z</time>
      </trkpt>
      <trkpt lat="42.72306" lon="1.88458">
        <ele>1081.8</ele>
        <time>2024-10-11T10:52:02Z</time>
      </trkpt>
      <trkpt lat="42.72309" lon="1.88461">
        <ele>1081.8</ele>
        <time>2024-10-11T10:52:03Z</time>
      </trkpt>
      <trkpt lat="42.7231" lon="1.88462">
        <ele>1082.4</ele>
        <time>2024-10-11T10:52:04Z</time>
      </trkpt>
      <trkpt lat="42.72313" lon="1.88465">
        <ele>1082.4</ele>
        <time>2024-10-11T10:52:05Z</time>
      </trkpt>
      <trkpt lat="42.72314" lon="1.88466">
        <ele>1082.4</ele>
        <time>2024-10-11T10:52:06Z</time>
      </trkpt>
      <trkpt lat="42.72317" lon="1.88468">
        <ele>1082.4</ele>
        <time>2024-10-11T10:52:07Z</time>
      </trkpt>
      <trkpt lat="42.72318" lon="1.88469">
        <ele>1082.4</ele>
        <time>2024-10-11T10:52:08Z</time>
      </trkpt>
      <trkpt lat="42.7232" lon="1.88471">
        <ele>1083</ele>
        <time>2024-10-11T10:52:09Z</time>
      </trkpt>
      <trkpt lat="42.72322" lon="1.88473">
        <ele>1083</ele>
        <time>2024-10-11T10:52:10Z</time>
      </trkpt>
      <trkpt lat="42.72324" lon="1.88474">
        <ele>1083</ele>
        <time>2024-10-11T10:52:11Z</time>
      </trkpt>
      <trkpt lat="42.72326" lon="1.88476">
        <ele>1083</ele>
        <time>2024-10-11T10:52:12Z</time>
      </trkpt>
      <trkpt lat="42.72329" lon="1.88477">
        <ele>1083</ele>
        <time>2024-10-11T10:52:13Z</time>
      </trkpt>
      <trkpt lat="42.72331" lon="1.88479">
        <ele>1083.4</ele>
        <time>2024-10-11T10:52:14Z</time>
      </trkpt>
      <trkpt lat="42.72335" lon="1.8848">
        <ele>1083.4</ele>
        <time>2024-10-11T10:52:15Z</time>
      </trkpt>
      <trkpt lat="42.72336" lon="1.88481">
        <ele>1083.4</ele>
        <time>2024-10-11T10:52:16Z</time>
      </trkpt>
      <trkpt lat="42.7234" lon="1.88482">
        <ele>1083.4</ele>
        <time>2024-10-11T10:52:17Z</time>
      </trkpt>
      <trkpt lat="42.72341" lon="1.88483">
        <ele>1083.4</ele>
        <time>2024-10-11T10:52:18Z</time>
      </trkpt>
      <trkpt lat="42.72344" lon="1.88483">
        <ele>1083.6</ele>
        <time>2024-10-11T10:52:19Z</time>
      </trkpt>
      <trkpt lat="42.72346" lon="1.88484">
        <ele>1083.6</ele>
        <time>2024-10-11T10:52:20Z</time>
      </trkpt>
      <trkpt lat="42.72349" lon="1.88486">
        <ele>1083.6</ele>
        <time>2024-10-11T10:52:21Z</time>
      </trkpt>
      <trkpt lat="42.72351" lon="1.88488">
        <ele>1083.6</ele>
        <time>2024-10-11T10:52:22Z</time>
      </trkpt>
      <trkpt lat="42.72354" lon="1.88489">
        <ele>1083.6</ele>
        <time>2024-10-11T10:52:23Z</time>
      </trkpt>
      <trkpt lat="42.72356" lon="1.8849">
        <ele>1083.8</ele>
        <time>2024-10-11T10:52:24Z</time>
      </trkpt>
      <trkpt lat="42.72358" lon="1.88492">
        <ele>1083.8</ele>
        <time>2024-10-11T10:52:25Z</time>
      </trkpt>
      <trkpt lat="42.72361" lon="1.88493">
        <ele>1083.8</ele>
        <time>2024-10-11T10:52:26Z</time>
      </trkpt>
      <trkpt lat="42.72363" lon="1.88495">
        <ele>1084.2</ele>
        <time>2024-10-11T10:52:27Z</time>
      </trkpt>
      <trkpt lat="42.72365" lon="1.88498">
        <ele>1084.2</ele>
        <time>2024-10-11T10:52:28Z</time>
      </trkpt>
      <trkpt lat="42.72367" lon="1.885">
        <ele>1084.2</ele>
        <time>2024-10-11T10:52:29Z</time>
      </trkpt>
      <trkpt lat="42.72369" lon="1.88503">
        <ele>1084.2</ele>
        <time>2024-10-11T10:52:30Z</time>
      </trkpt>
      <trkpt lat="42.72371" lon="1.88506">
        <ele>1084.2</ele>
        <time>2024-10-11T10:52:31Z</time>
      </trkpt>
      <trkpt lat="42.72373" lon="1.88509">
        <ele>1085</ele>
        <time>2024-10-11T10:52:32Z</time>
      </trkpt>
      <trkpt lat="42.72375" lon="1.88512">
        <ele>1084.6</ele>
        <time>2024-10-11T10:52:33Z</time>
      </trkpt>
      <trkpt lat="42.72377" lon="1.88515">
        <ele>1084.6</ele>
        <time>2024-10-11T10:52:34Z</time>
      </trkpt>
      <trkpt lat="42.72379" lon="1.88518">
        <ele>1084.6</ele>
        <time>2024-10-11T10:52:35Z</time>
      </trkpt>
      <trkpt lat="42.72381" lon="1.88521">
        <ele>1085.2</ele>
        <time>2024-10-11T10:52:36Z</time>
      </trkpt>
      <trkpt lat="42.72383" lon="1.88524">
        <ele>1085.4</ele>
        <time>2024-10-11T10:52:37Z</time>
      </trkpt>
      <trkpt lat="42.72386" lon="1.88528">
        <ele>1085.4</ele>
        <time>2024-10-11T10:52:38Z</time>
      </trkpt>
      <trkpt lat="42.72387" lon="1.88529">
        <ele>1085.4</ele>
        <time>2024-10-11T10:52:39Z</time>
      </trkpt>
      <trkpt lat="42.72389" lon="1.88533">
        <ele>1085.6</ele>
        <time>2024-10-11T10:52:40Z</time>
      </trkpt>
      <trkpt lat="42.7239" lon="1.88535">
        <ele>1085.6</ele>
        <time>2024-10-11T10:52:41Z</time>
      </trkpt>
      <trkpt lat="42.72393" lon="1.88539">
        <ele>1086.2</ele>
        <time>2024-10-11T10:52:42Z</time>
      </trkpt>
      <trkpt lat="42.72394" lon="1.88541">
        <ele>1086.2</ele>
        <time>2024-10-11T10:52:43Z</time>
      </trkpt>
      <trkpt lat="42.72396" lon="1.88545">
        <ele>1086.2</ele>
        <time>2024-10-11T10:52:44Z</time>
      </trkpt>
      <trkpt lat="42.72397" lon="1.88547">
        <ele>1086.2</ele>
        <time>2024-10-11T10:52:45Z</time>
      </trkpt>
      <trkpt lat="42.724" lon="1.88552">
        <ele>1086.6</ele>
        <time>2024-10-11T10:52:46Z</time>
      </trkpt>
      <trkpt lat="42.72401" lon="1.88554">
        <ele>1086.6</ele>
        <time>2024-10-11T10:52:47Z</time>
      </trkpt>
      <trkpt lat="42.72403" lon="1.88559">
        <ele>1086.6</ele>
        <time>2024-10-11T10:52:48Z</time>
      </trkpt>
      <trkpt lat="42.72404" lon="1.88561">
        <ele>1086.8</ele>
        <time>2024-10-11T10:52:49Z</time>
      </trkpt>
      <trkpt lat="42.72407" lon="1.88566">
        <ele>1087.2</ele>
        <time>2024-10-11T10:52:50Z</time>
      </trkpt>
      <trkpt lat="42.72407" lon="1.88568">
        <ele>1087.2</ele>
        <time>2024-10-11T10:52:51Z</time>
      </trkpt>
      <trkpt lat="42.72409" lon="1.88572">
        <ele>1087.2</ele>
        <time>2024-10-11T10:52:52Z</time>
      </trkpt>
      <trkpt lat="42.72411" lon="1.88575">
        <ele>1087.2</ele>
        <time>2024-10-11T10:52:53Z</time>
      </trkpt>
      <trkpt lat="42.72413" lon="1.88579">
        <ele>1087.2</ele>
        <time>2024-10-11T10:52:54Z</time>
      </trkpt>
      <trkpt lat="42.72414" lon="1.88582">
        <ele>1087.4</ele>
        <time>2024-10-11T10:52:55Z</time>
      </trkpt>
      <trkpt lat="42.72416" lon="1.88586">
        <ele>1087.4</ele>
        <time>2024-10-11T10:52:56Z</time>
      </trkpt>
      <trkpt lat="42.72418" lon="1.88589">
        <ele>1087.4</ele>
        <time>2024-10-11T10:52:57Z</time>
      </trkpt>
      <trkpt lat="42.72419" lon="1.88592">
        <ele>1087.4</ele>
        <time>2024-10-11T10:52:58Z</time>
      </trkpt>
      <trkpt lat="42.72421" lon="1.88596">
        <ele>1087.8</ele>
        <time>2024-10-11T10:52:59Z</time>
      </trkpt>
      <trkpt lat="42.72423" lon="1.88599">
        <ele>1087.8</ele>
        <time>2024-10-11T10:53:00Z</time>
      </trkpt>
      <trkpt lat="42.72424" lon="1.88603">
        <ele>1087.8</ele>
        <time>2024-10-11T10:53:01Z</time>
      </trkpt>
      <trkpt lat="42.72426" lon="1.88608">
        <ele>1087.8</ele>
        <time>2024-10-11T10:53:02Z</time>
      </trkpt>
      <trkpt lat="42.72427" lon="1.88612">
        <ele>1087.8</ele>
        <time>2024-10-11T10:53:03Z</time>
      </trkpt>
      <trkpt lat="42.72429" lon="1.88616">
        <ele>1088</ele>
        <time>2024-10-11T10:53:04Z</time>
      </trkpt>
      <trkpt lat="42.7243" lon="1.8862">
        <ele>1088</ele>
        <time>2024-10-11T10:53:05Z</time>
      </trkpt>
      <trkpt lat="42.72432" lon="1.88624">
        <ele>1088</ele>
        <time>2024-10-11T10:53:06Z</time>
      </trkpt>
      <trkpt lat="42.72433" lon="1.88628">
        <ele>1088</ele>
        <time>2024-10-11T10:53:07Z</time>
      </trkpt>
      <trkpt lat="42.72434" lon="1.88632">
        <ele>1088</ele>
        <time>2024-10-11T10:53:08Z</time>
      </trkpt>
      <trkpt lat="42.72435" lon="1.88635">
        <ele>1088</ele>
        <time>2024-10-11T10:53:09Z</time>
      </trkpt>
      <trkpt lat="42.72437" lon="1.88639">
        <ele>1088.4</ele>
        <time>2024-10-11T10:53:10Z</time>
      </trkpt>
      <trkpt lat="42.72438" lon="1.88643">
        <ele>1088.4</ele>
        <time>2024-10-11T10:53:11Z</time>
      </trkpt>
      <trkpt lat="42.72439" lon="1.88647">
        <ele>1088.8</ele>
        <time>2024-10-11T10:53:12Z</time>
      </trkpt>
      <trkpt lat="42.7244" lon="1.8865">
        <ele>1089.4</ele>
        <time>2024-10-11T10:53:13Z</time>
      </trkpt>
      <trkpt lat="42.72441" lon="1.88654">
        <ele>1089.4</ele>
        <time>2024-10-11T10:53:14Z</time>
      </trkpt>
      <trkpt lat="42.72443" lon="1.88658">
        <ele>1089.4</ele>
        <time>2024-10-11T10:53:15Z</time>
      </trkpt>
      <trkpt lat="42.72444" lon="1.88662">
        <ele>1089.4</ele>
        <time>2024-10-11T10:53:16Z</time>
      </trkpt>
      <trkpt lat="42.72445" lon="1.88665">
        <ele>1089.4</ele>
        <time>2024-10-11T10:53:17Z</time>
      </trkpt>
      <trkpt lat="42.72446" lon="1.88671">
        <ele>1089.6</ele>
        <time>2024-10-11T10:53:18Z</time>
      </trkpt>
      <trkpt lat="42.72447" lon="1.88674">
        <ele>1089.6</ele>
        <time>2024-10-11T10:53:19Z</time>
      </trkpt>
      <trkpt lat="42.72449" lon="1.8868">
        <ele>1089.6</ele>
        <time>2024-10-11T10:53:20Z</time>
      </trkpt>
      <trkpt lat="42.72449" lon="1.88682">
        <ele>1089.2</ele>
        <time>2024-10-11T10:53:21Z</time>
      </trkpt>
      <trkpt lat="42.72451" lon="1.88688">
        <ele>1089.8</ele>
        <time>2024-10-11T10:53:22Z</time>
      </trkpt>
      <trkpt lat="42.72452" lon="1.8869">
        <ele>1089.8</ele>
        <time>2024-10-11T10:53:23Z</time>
      </trkpt>
      <trkpt lat="42.72453" lon="1.88697">
        <ele>1089.8</ele>
        <time>2024-10-11T10:53:24Z</time>
      </trkpt>
      <trkpt lat="42.72454" lon="1.88699">
        <ele>1089.8</ele>
        <time>2024-10-11T10:53:25Z</time>
      </trkpt>
      <trkpt lat="42.72455" lon="1.88706">
        <ele>1089.8</ele>
        <time>2024-10-11T10:53:26Z</time>
      </trkpt>
      <trkpt lat="42.72456" lon="1.88708">
        <ele>1089.8</ele>
        <time>2024-10-11T10:53:27Z</time>
      </trkpt>
      <trkpt lat="42.72457" lon="1.88716">
        <ele>1089.6</ele>
        <time>2024-10-11T10:53:28Z</time>
      </trkpt>
      <trkpt lat="42.72458" lon="1.88718">
        <ele>1089.6</ele>
        <time>2024-10-11T10:53:29Z</time>
      </trkpt>
      <trkpt lat="42.7246" lon="1.88726">
        <ele>1089.6</ele>
        <time>2024-10-11T10:53:30Z</time>
      </trkpt>
      <trkpt lat="42.7246" lon="1.88728">
        <ele>1090</ele>
        <time>2024-10-11T10:53:31Z</time>
      </trkpt>
      <trkpt lat="42.72462" lon="1.88733">
        <ele>1090</ele>
        <time>2024-10-11T10:53:32Z</time>
      </trkpt>
      <trkpt lat="42.72463" lon="1.88739">
        <ele>1090</ele>
        <time>2024-10-11T10:53:33Z</time>
      </trkpt>
      <trkpt lat="42.72464" lon="1.88747">
        <ele>1090</ele>
        <time>2024-10-11T10:53:34Z</time>
      </trkpt>
      <trkpt lat="42.72465" lon="1.8875">
        <ele>1089.8</ele>
        <time>2024-10-11T10:53:35Z</time>
      </trkpt>
      <trkpt lat="42.72466" lon="1.88756">
        <ele>1089.8</ele>
        <time>2024-10-11T10:53:36Z</time>
      </trkpt>
      <trkpt lat="42.72468" lon="1.88761">
        <ele>1089.8</ele>
        <time>2024-10-11T10:53:37Z</time>
      </trkpt>
      <trkpt lat="42.72469" lon="1.88766">
        <ele>1089.8</ele>
        <time>2024-10-11T10:53:38Z</time>
      </trkpt>
      <trkpt lat="42.72471" lon="1.88771">
        <ele>1090</ele>
        <time>2024-10-11T10:53:39Z</time>
      </trkpt>
      <trkpt lat="42.72472" lon="1.88776">
        <ele>1090</ele>
        <time>2024-10-11T10:53:40Z</time>
      </trkpt>
      <trkpt lat="42.72474" lon="1.88781">
        <ele>1089.8</ele>
        <time>2024-10-11T10:53:41Z</time>
      </trkpt>
      <trkpt lat="42.72476" lon="1.88786">
        <ele>1089.8</ele>
        <time>2024-10-11T10:53:42Z</time>
      </trkpt>
      <trkpt lat="42.72478" lon="1.88791">
        <ele>1090</ele>
        <time>2024-10-11T10:53:43Z</time>
      </trkpt>
      <trkpt lat="42.7248" lon="1.88795">
        <ele>1090.8</ele>
        <time>2024-10-11T10:53:44Z</time>
      </trkpt>
      <trkpt lat="42.72482" lon="1.888">
        <ele>1090.8</ele>
        <time>2024-10-11T10:53:45Z</time>
      </trkpt>
      <trkpt lat="42.72484" lon="1.88805">
        <ele>1090.8</ele>
        <time>2024-10-11T10:53:46Z</time>
      </trkpt>
      <trkpt lat="42.72486" lon="1.88809">
        <ele>1090.8</ele>
        <time>2024-10-11T10:53:47Z</time>
      </trkpt>
      <trkpt lat="42.72488" lon="1.88813">
        <ele>1090.2</ele>
        <time>2024-10-11T10:53:48Z</time>
      </trkpt>
      <trkpt lat="42.7249" lon="1.88818">
        <ele>1090.4</ele>
        <time>2024-10-11T10:53:49Z</time>
      </trkpt>
      <trkpt lat="42.72492" lon="1.88822">
        <ele>1090.4</ele>
        <time>2024-10-11T10:53:50Z</time>
      </trkpt>
      <trkpt lat="42.72495" lon="1.88826">
        <ele>1090.4</ele>
        <time>2024-10-11T10:53:51Z</time>
      </trkpt>
      <trkpt lat="42.72498" lon="1.8883">
        <ele>1090.4</ele>
        <time>2024-10-11T10:53:52Z</time>
      </trkpt>
      <trkpt lat="42.72502" lon="1.88835">
        <ele>1090.4</ele>
        <time>2024-10-11T10:53:53Z</time>
      </trkpt>
      <trkpt lat="42.72505" lon="1.8884">
        <ele>1089.8</ele>
        <time>2024-10-11T10:53:54Z</time>
      </trkpt>
      <trkpt lat="42.72508" lon="1.88845">
        <ele>1089.8</ele>
        <time>2024-10-11T10:53:55Z</time>
      </trkpt>
      <trkpt lat="42.72511" lon="1.88851">
        <ele>1089.8</ele>
        <time>2024-10-11T10:53:56Z</time>
      </trkpt>
      <trkpt lat="42.72514" lon="1.88857">
        <ele>1089.8</ele>
        <time>2024-10-11T10:53:57Z</time>
      </trkpt>
      <trkpt lat="42.72518" lon="1.88864">
        <ele>1089.8</ele>
        <time>2024-10-11T10:53:58Z</time>
      </trkpt>
      <trkpt lat="42.72521" lon="1.88871">
        <ele>1089.8</ele>
        <time>2024-10-11T10:53:59Z</time>
      </trkpt>
      <trkpt lat="42.72525" lon="1.88878">
        <ele>1089.8</ele>
        <time>2024-10-11T10:54:00Z</time>
      </trkpt>
      <trkpt lat="42.7253" lon="1.88885">
        <ele>1088.8</ele>
        <time>2024-10-11T10:54:01Z</time>
      </trkpt>
      <trkpt lat="42.72538" lon="1.88896">
        <ele>1087</ele>
        <time>2024-10-11T10:54:02Z</time>
      </trkpt>
      <trkpt lat="42.7254" lon="1.889">
        <ele>1087</ele>
        <time>2024-10-11T10:54:03Z</time>
      </trkpt>
      <trkpt lat="42.72547" lon="1.88913">
        <ele>1087</ele>
        <time>2024-10-11T10:54:04Z</time>
      </trkpt>
      <trkpt lat="42.72548" lon="1.88918">
        <ele>1087</ele>
        <time>2024-10-11T10:54:05Z</time>
      </trkpt>
      <trkpt lat="42.72548" lon="1.88931">
        <ele>1086</ele>
        <time>2024-10-11T10:54:06Z</time>
      </trkpt>
      <trkpt lat="42.72546" lon="1.88935">
        <ele>1085.4</ele>
        <time>2024-10-11T10:54:07Z</time>
      </trkpt>
      <trkpt lat="42.7254" lon="1.88944">
        <ele>1085.4</ele>
        <time>2024-10-11T10:54:08Z</time>
      </trkpt>
      <trkpt lat="42.72537" lon="1.88946">
        <ele>1085.4</ele>
        <time>2024-10-11T10:54:09Z</time>
      </trkpt>
      <trkpt lat="42.72528" lon="1.8895">
        <ele>1085.4</ele>
        <time>2024-10-11T10:54:10Z</time>
      </trkpt>
      <trkpt lat="42.72526" lon="1.88952">
        <ele>1085.4</ele>
        <time>2024-10-11T10:54:11Z</time>
      </trkpt>
      <trkpt lat="42.72518" lon="1.88956">
        <ele>1085</ele>
        <time>2024-10-11T10:54:12Z</time>
      </trkpt>
      <trkpt lat="42.72516" lon="1.88957">
        <ele>1085</ele>
        <time>2024-10-11T10:54:13Z</time>
      </trkpt>
      <trkpt lat="42.72508" lon="1.88962">
        <ele>1085.4</ele>
        <time>2024-10-11T10:54:14Z</time>
      </trkpt>
      <trkpt lat="42.72505" lon="1.88963">
        <ele>1085.2</ele>
        <time>2024-10-11T10:54:15Z</time>
      </trkpt>
      <trkpt lat="42.72498" lon="1.88968">
        <ele>1085.2</ele>
        <time>2024-10-11T10:54:16Z</time>
      </trkpt>
      <trkpt lat="42.72495" lon="1.88969">
        <ele>1085.2</ele>
        <time>2024-10-11T10:54:17Z</time>
      </trkpt>
      <trkpt lat="42.7249" lon="1.88971">
        <ele>1085.2</ele>
        <time>2024-10-11T10:54:18Z</time>
      </trkpt>
      <trkpt lat="42.72486" lon="1.88973">
        <ele>1085.2</ele>
        <time>2024-10-11T10:54:19Z</time>
      </trkpt>
      <trkpt lat="42.72481" lon="1.88975">
        <ele>1085.8</ele>
        <time>2024-10-11T10:54:20Z</time>
      </trkpt>
      <trkpt lat="42.72476" lon="1.88978">
        <ele>1085.8</ele>
        <time>2024-10-11T10:54:21Z</time>
      </trkpt>
      <trkpt lat="42.72471" lon="1.88978">
        <ele>1085.8</ele>
        <time>2024-10-11T10:54:22Z</time>
      </trkpt>
      <trkpt lat="42.72466" lon="1.8898">
        <ele>1085.8</ele>
        <time>2024-10-11T10:54:23Z</time>
      </trkpt>
      <trkpt lat="42.72462" lon="1.88981">
        <ele>1085.8</ele>
        <time>2024-10-11T10:54:24Z</time>
      </trkpt>
      <trkpt lat="42.72459" lon="1.88981">
        <ele>1086.2</ele>
        <time>2024-10-11T10:54:25Z</time>
      </trkpt>
      <trkpt lat="42.72456" lon="1.88983">
        <ele>1086.2</ele>
        <time>2024-10-11T10:54:26Z</time>
      </trkpt>
      <trkpt lat="42.72453" lon="1.88984">
        <ele>1087</ele>
        <time>2024-10-11T10:54:27Z</time>
      </trkpt>
      <trkpt lat="42.72451" lon="1.88986">
        <ele>1087</ele>
        <time>2024-10-11T10:54:28Z</time>
      </trkpt>
      <trkpt lat="42.72449" lon="1.88988">
        <ele>1087.2</ele>
        <time>2024-10-11T10:54:29Z</time>
      </trkpt>
      <trkpt lat="42.72447" lon="1.88991">
        <ele>1087.2</ele>
        <time>2024-10-11T10:54:30Z</time>
      </trkpt>
      <trkpt lat="42.72446" lon="1.88994">
        <ele>1087.2</ele>
        <time>2024-10-11T10:54:31Z</time>
      </trkpt>
      <trkpt lat="42.72444" lon="1.88996">
        <ele>1087.2</ele>
        <time>2024-10-11T10:54:32Z</time>
      </trkpt>
      <trkpt lat="42.72443" lon="1.88999">
        <ele>1087.2</ele>
        <time>2024-10-11T10:54:33Z</time>
      </trkpt>
      <trkpt lat="42.72442" lon="1.89003">
        <ele>1088</ele>
        <time>2024-10-11T10:54:34Z</time>
      </trkpt>
      <trkpt lat="42.72441" lon="1.89006">
        <ele>1088</ele>
        <time>2024-10-11T10:54:35Z</time>
      </trkpt>
      <trkpt lat="42.7244" lon="1.89009">
        <ele>1088</ele>
        <time>2024-10-11T10:54:36Z</time>
      </trkpt>
      <trkpt lat="42.7244" lon="1.89013">
        <ele>1088.4</ele>
        <time>2024-10-11T10:54:37Z</time>
      </trkpt>
      <trkpt lat="42.72439" lon="1.89016">
        <ele>1088.4</ele>
        <time>2024-10-11T10:54:38Z</time>
      </trkpt>
      <trkpt lat="42.72439" lon="1.89019">
        <ele>1088.4</ele>
        <time>2024-10-11T10:54:39Z</time>
      </trkpt>
      <trkpt lat="42.7244" lon="1.89024">
        <ele>1088.4</ele>
        <time>2024-10-11T10:54:40Z</time>
      </trkpt>
      <trkpt lat="42.72441" lon="1.89028">
        <ele>1088.6</ele>
        <time>2024-10-11T10:54:41Z</time>
      </trkpt>
      <trkpt lat="42.72441" lon="1.89032">
        <ele>1088.6</ele>
        <time>2024-10-11T10:54:42Z</time>
      </trkpt>
      <trkpt lat="42.72443" lon="1.89036">
        <ele>1088.8</ele>
        <time>2024-10-11T10:54:43Z</time>
      </trkpt>
      <trkpt lat="42.72444" lon="1.89042">
        <ele>1088.8</ele>
        <time>2024-10-11T10:54:44Z</time>
      </trkpt>
      <trkpt lat="42.72445" lon="1.89045">
        <ele>1088.8</ele>
        <time>2024-10-11T10:54:45Z</time>
      </trkpt>
      <trkpt lat="42.72446" lon="1.89049">
        <ele>1088.8</ele>
        <time>2024-10-11T10:54:46Z</time>
      </trkpt>
      <trkpt lat="42.72446" lon="1.89054">
        <ele>1088.8</ele>
        <time>2024-10-11T10:54:47Z</time>
      </trkpt>
      <trkpt lat="42.72448" lon="1.89061">
        <ele>1088.8</ele>
        <time>2024-10-11T10:54:48Z</time>
      </trkpt>
      <trkpt lat="42.72448" lon="1.89064">
        <ele>1088.8</ele>
        <time>2024-10-11T10:54:49Z</time>
      </trkpt>
      <trkpt lat="42.72451" lon="1.8907">
        <ele>1088.8</ele>
        <time>2024-10-11T10:54:50Z</time>
      </trkpt>
      <trkpt lat="42.72451" lon="1.89072">
        <ele>1088.8</ele>
        <time>2024-10-11T10:54:51Z</time>
      </trkpt>
      <trkpt lat="42.72453" lon="1.89079">
        <ele>1088.4</ele>
        <time>2024-10-11T10:54:52Z</time>
      </trkpt>
      <trkpt lat="42.72454" lon="1.89082">
        <ele>1088.4</ele>
        <time>2024-10-11T10:54:53Z</time>
      </trkpt>
      <trkpt lat="42.72456" lon="1.89089">
        <ele>1088.4</ele>
        <time>2024-10-11T10:54:54Z</time>
      </trkpt>
      <trkpt lat="42.72457" lon="1.89091">
        <ele>1088.4</ele>
        <time>2024-10-11T10:54:55Z</time>
      </trkpt>
      <trkpt lat="42.72459" lon="1.89098">
        <ele>1088.4</ele>
        <time>2024-10-11T10:54:56Z</time>
      </trkpt>
      <trkpt lat="42.72459" lon="1.891">
        <ele>1088.4</ele>
        <time>2024-10-11T10:54:57Z</time>
      </trkpt>
      <trkpt lat="42.72461" lon="1.89105">
        <ele>1088.4</ele>
        <time>2024-10-11T10:54:58Z</time>
      </trkpt>
      <trkpt lat="42.72463" lon="1.89111">
        <ele>1089.2</ele>
        <time>2024-10-11T10:54:59Z</time>
      </trkpt>
      <trkpt lat="42.72463" lon="1.89113">
        <ele>1089.2</ele>
        <time>2024-10-11T10:55:00Z</time>
      </trkpt>
      <trkpt lat="42.72465" lon="1.8912">
        <ele>1089.2</ele>
        <time>2024-10-11T10:55:01Z</time>
      </trkpt>
      <trkpt lat="42.72466" lon="1.89122">
        <ele>1089.2</ele>
        <time>2024-10-11T10:55:02Z</time>
      </trkpt>
      <trkpt lat="42.72467" lon="1.89126">
        <ele>1089.2</ele>
        <time>2024-10-11T10:55:03Z</time>
      </trkpt>
      <trkpt lat="42.72468" lon="1.89131">
        <ele>1089.2</ele>
        <time>2024-10-11T10:55:04Z</time>
      </trkpt>
      <trkpt lat="42.72468" lon="1.89135">
        <ele>1089.2</ele>
        <time>2024-10-11T10:55:05Z</time>
      </trkpt>
      <trkpt lat="42.72469" lon="1.89139">
        <ele>1089.6</ele>
        <time>2024-10-11T10:55:06Z</time>
      </trkpt>
      <trkpt lat="42.7247" lon="1.89143">
        <ele>1089.6</ele>
        <time>2024-10-11T10:55:07Z</time>
      </trkpt>
      <trkpt lat="42.72471" lon="1.89146">
        <ele>1090</ele>
        <time>2024-10-11T10:55:08Z</time>
      </trkpt>
      <trkpt lat="42.72471" lon="1.8915">
        <ele>1090</ele>
        <time>2024-10-11T10:55:09Z</time>
      </trkpt>
      <trkpt lat="42.72471" lon="1.89154">
        <ele>1090</ele>
        <time>2024-10-11T10:55:10Z</time>
      </trkpt>
      <trkpt lat="42.72471" lon="1.89157">
        <ele>1090</ele>
        <time>2024-10-11T10:55:11Z</time>
      </trkpt>
      <trkpt lat="42.72471" lon="1.8916">
        <ele>1090</ele>
        <time>2024-10-11T10:55:12Z</time>
      </trkpt>
      <trkpt lat="42.72471" lon="1.89164">
        <ele>1091.4</ele>
        <time>2024-10-11T10:55:13Z</time>
      </trkpt>
      <trkpt lat="42.72472" lon="1.89166">
        <ele>1091.4</ele>
        <time>2024-10-11T10:55:14Z</time>
      </trkpt>
      <trkpt lat="42.72472" lon="1.89169">
        <ele>1091.4</ele>
        <time>2024-10-11T10:55:15Z</time>
      </trkpt>
      <trkpt lat="42.72472" lon="1.89171">
        <ele>1091.4</ele>
        <time>2024-10-11T10:55:16Z</time>
      </trkpt>
      <trkpt lat="42.72473" lon="1.89174">
        <ele>1091.4</ele>
        <time>2024-10-11T10:55:17Z</time>
      </trkpt>
      <trkpt lat="42.72473" lon="1.89177">
        <ele>1092</ele>
        <time>2024-10-11T10:55:18Z</time>
      </trkpt>
      <trkpt lat="42.72474" lon="1.89181">
        <ele>1092</ele>
        <time>2024-10-11T10:55:19Z</time>
      </trkpt>
      <trkpt lat="42.72474" lon="1.89184">
        <ele>1092.2</ele>
        <time>2024-10-11T10:55:20Z</time>
      </trkpt>
      <trkpt lat="42.72474" lon="1.89188">
        <ele>1092.2</ele>
        <time>2024-10-11T10:55:21Z</time>
      </trkpt>
      <trkpt lat="42.72474" lon="1.89193">
        <ele>1092.6</ele>
        <time>2024-10-11T10:55:22Z</time>
      </trkpt>
      <trkpt lat="42.72474" lon="1.89197">
        <ele>1092.6</ele>
        <time>2024-10-11T10:55:23Z</time>
      </trkpt>
      <trkpt lat="42.72474" lon="1.89202">
        <ele>1092.6</ele>
        <time>2024-10-11T10:55:24Z</time>
      </trkpt>
      <trkpt lat="42.72474" lon="1.89206">
        <ele>1092.6</ele>
        <time>2024-10-11T10:55:25Z</time>
      </trkpt>
      <trkpt lat="42.72474" lon="1.89211">
        <ele>1092.8</ele>
        <time>2024-10-11T10:55:26Z</time>
      </trkpt>
      <trkpt lat="42.72474" lon="1.89216">
        <ele>1092.6</ele>
        <time>2024-10-11T10:55:27Z</time>
      </trkpt>
      <trkpt lat="42.72473" lon="1.89224">
        <ele>1092.6</ele>
        <time>2024-10-11T10:55:28Z</time>
      </trkpt>
      <trkpt lat="42.72472" lon="1.89227">
        <ele>1092.6</ele>
        <time>2024-10-11T10:55:29Z</time>
      </trkpt>
      <trkpt lat="42.7247" lon="1.89236">
        <ele>1092.6</ele>
        <time>2024-10-11T10:55:30Z</time>
      </trkpt>
      <trkpt lat="42.7247" lon="1.89239">
        <ele>1092.6</ele>
        <time>2024-10-11T10:55:31Z</time>
      </trkpt>
      <trkpt lat="42.72467" lon="1.89248">
        <ele>1092.4</ele>
        <time>2024-10-11T10:55:32Z</time>
      </trkpt>
      <trkpt lat="42.72466" lon="1.89251">
        <ele>1092.4</ele>
        <time>2024-10-11T10:55:33Z</time>
      </trkpt>
      <trkpt lat="42.72462" lon="1.8926">
        <ele>1092.4</ele>
        <time>2024-10-11T10:55:34Z</time>
      </trkpt>
      <trkpt lat="42.72461" lon="1.89263">
        <ele>1092.8</ele>
        <time>2024-10-11T10:55:35Z</time>
      </trkpt>
      <trkpt lat="42.72457" lon="1.89271">
        <ele>1092.4</ele>
        <time>2024-10-11T10:55:36Z</time>
      </trkpt>
      <trkpt lat="42.72456" lon="1.89273">
        <ele>1092.4</ele>
        <time>2024-10-11T10:55:37Z</time>
      </trkpt>
      <trkpt lat="42.72451" lon="1.89281">
        <ele>1092.4</ele>
        <time>2024-10-11T10:55:38Z</time>
      </trkpt>
      <trkpt lat="42.7245" lon="1.89283">
        <ele>1092.4</ele>
        <time>2024-10-11T10:55:39Z</time>
      </trkpt>
      <trkpt lat="42.72446" lon="1.89289">
        <ele>1092.4</ele>
        <time>2024-10-11T10:55:40Z</time>
      </trkpt>
      <trkpt lat="42.72444" lon="1.89291">
        <ele>1092.8</ele>
        <time>2024-10-11T10:55:41Z</time>
      </trkpt>
      <trkpt lat="42.72442" lon="1.89295">
        <ele>1092.8</ele>
        <time>2024-10-11T10:55:42Z</time>
      </trkpt>
      <trkpt lat="42.7244" lon="1.89297">
        <ele>1092.8</ele>
        <time>2024-10-11T10:55:43Z</time>
      </trkpt>
      <trkpt lat="42.72438" lon="1.89299">
        <ele>1092.6</ele>
        <time>2024-10-11T10:55:44Z</time>
      </trkpt>
      <trkpt lat="42.72436" lon="1.893">
        <ele>1092.8</ele>
        <time>2024-10-11T10:55:45Z</time>
      </trkpt>
      <trkpt lat="42.72435" lon="1.89302">
        <ele>1092.8</ele>
        <time>2024-10-11T10:55:46Z</time>
      </trkpt>
      <trkpt lat="42.72433" lon="1.89304">
        <ele>1092.8</ele>
        <time>2024-10-11T10:55:47Z</time>
      </trkpt>
      <trkpt lat="42.72432" lon="1.89306">
        <ele>1092.8</ele>
        <time>2024-10-11T10:55:48Z</time>
      </trkpt>
      <trkpt lat="42.7243" lon="1.89311">
        <ele>1092.4</ele>
        <time>2024-10-11T10:55:49Z</time>
      </trkpt>
      <trkpt lat="42.72429" lon="1.89315">
        <ele>1092.4</ele>
        <time>2024-10-11T10:55:50Z</time>
      </trkpt>
      <trkpt lat="42.72428" lon="1.89318">
        <ele>1092.4</ele>
        <time>2024-10-11T10:55:51Z</time>
      </trkpt>
      <trkpt lat="42.72428" lon="1.89321">
        <ele>1092.4</ele>
        <time>2024-10-11T10:55:52Z</time>
      </trkpt>
      <trkpt lat="42.72427" lon="1.89325">
        <ele>1093.6</ele>
        <time>2024-10-11T11:07:57Z</time>
      </trkpt>
      <trkpt lat="42.72426" lon="1.89328">
        <ele>1093.6</ele>
        <time>2024-10-11T11:07:58Z</time>
      </trkpt>
      <trkpt lat="42.72426" lon="1.89332">
        <ele>1093.6</ele>
        <time>2024-10-11T11:07:59Z</time>
      </trkpt>
      <trkpt lat="42.72425" lon="1.89335">
        <ele>1093.6</ele>
        <time>2024-10-11T11:08:00Z</time>
      </trkpt>
      <trkpt lat="42.72424" lon="1.89341">
        <ele>1093.6</ele>
        <time>2024-10-11T11:08:01Z</time>
      </trkpt>
      <trkpt lat="42.72424" lon="1.89343">
        <ele>1093.6</ele>
        <time>2024-10-11T11:08:02Z</time>
      </trkpt>
      <trkpt lat="42.72423" lon="1.89347">
        <ele>1093.6</ele>
        <time>2024-10-11T11:08:03Z</time>
      </trkpt>
      <trkpt lat="42.72422" lon="1.89352">
        <ele>1093.6</ele>
        <time>2024-10-11T11:08:04Z</time>
      </trkpt>
      <trkpt lat="42.72421" lon="1.89356">
        <ele>1093.6</ele>
        <time>2024-10-11T11:08:05Z</time>
      </trkpt>
      <trkpt lat="42.72421" lon="1.8936">
        <ele>1094</ele>
        <time>2024-10-11T11:08:06Z</time>
      </trkpt>
      <trkpt lat="42.7242" lon="1.89365">
        <ele>1094</ele>
        <time>2024-10-11T11:08:07Z</time>
      </trkpt>
      <trkpt lat="42.72419" lon="1.8937">
        <ele>1094</ele>
        <time>2024-10-11T11:08:08Z</time>
      </trkpt>
      <trkpt lat="42.72418" lon="1.89375">
        <ele>1094.6</ele>
        <time>2024-10-11T11:08:09Z</time>
      </trkpt>
      <trkpt lat="42.72417" lon="1.89379">
        <ele>1094.6</ele>
        <time>2024-10-11T11:08:10Z</time>
      </trkpt>
      <trkpt lat="42.72416" lon="1.89384">
        <ele>1094.6</ele>
        <time>2024-10-11T11:08:11Z</time>
      </trkpt>
      <trkpt lat="42.72415" lon="1.89389">
        <ele>1094.6</ele>
        <time>2024-10-11T11:08:12Z</time>
      </trkpt>
      <trkpt lat="42.72414" lon="1.89394">
        <ele>1094.6</ele>
        <time>2024-10-11T11:08:13Z</time>
      </trkpt>
      <trkpt lat="42.72413" lon="1.89399">
        <ele>1094.6</ele>
        <time>2024-10-11T11:08:14Z</time>
      </trkpt>
      <trkpt lat="42.72411" lon="1.89404">
        <ele>1094.8</ele>
        <time>2024-10-11T11:08:15Z</time>
      </trkpt>
      <trkpt lat="42.7241" lon="1.89409">
        <ele>1094.8</ele>
        <time>2024-10-11T11:08:16Z</time>
      </trkpt>
      <trkpt lat="42.72408" lon="1.89413">
        <ele>1094.8</ele>
        <time>2024-10-11T11:08:17Z</time>
      </trkpt>
      <trkpt lat="42.72406" lon="1.89417">
        <ele>1094.8</ele>
        <time>2024-10-11T11:08:18Z</time>
      </trkpt>
      <trkpt lat="42.72403" lon="1.89423">
        <ele>1095.2</ele>
        <time>2024-10-11T11:08:19Z</time>
      </trkpt>
      <trkpt lat="42.72402" lon="1.89425">
        <ele>1095.2</ele>
        <time>2024-10-11T11:08:20Z</time>
      </trkpt>
      <trkpt lat="42.72398" lon="1.8943">
        <ele>1095.2</ele>
        <time>2024-10-11T11:08:21Z</time>
      </trkpt>
      <trkpt lat="42.72397" lon="1.89431">
        <ele>1095.2</ele>
        <time>2024-10-11T11:08:22Z</time>
      </trkpt>
      <trkpt lat="42.72393" lon="1.89436">
        <ele>1095.8</ele>
        <time>2024-10-11T11:08:23Z</time>
      </trkpt>
      <trkpt lat="42.72391" lon="1.89437">
        <ele>1096</ele>
        <time>2024-10-11T11:08:24Z</time>
      </trkpt>
      <trkpt lat="42.72388" lon="1.89442">
        <ele>1096</ele>
        <time>2024-10-11T11:08:25Z</time>
      </trkpt>
      <trkpt lat="42.72388" lon="1.89443">
        <ele>1096</ele>
        <time>2024-10-11T11:08:26Z</time>
      </trkpt>
      <trkpt lat="42.72385" lon="1.89448">
        <ele>1096.4</ele>
        <time>2024-10-11T11:08:27Z</time>
      </trkpt>
      <trkpt lat="42.72384" lon="1.8945">
        <ele>1096.4</ele>
        <time>2024-10-11T11:08:28Z</time>
      </trkpt>
      <trkpt lat="42.72382" lon="1.89455">
        <ele>1097</ele>
        <time>2024-10-11T11:08:29Z</time>
      </trkpt>
      <trkpt lat="42.72381" lon="1.89457">
        <ele>1097</ele>
        <time>2024-10-11T11:08:30Z</time>
      </trkpt>
      <trkpt lat="42.72379" lon="1.89462">
        <ele>1097</ele>
        <time>2024-10-11T11:08:31Z</time>
      </trkpt>
      <trkpt lat="42.72378" lon="1.89464">
        <ele>1097.2</ele>
        <time>2024-10-11T11:08:32Z</time>
      </trkpt>
      <trkpt lat="42.72377" lon="1.89468">
        <ele>1097.2</ele>
        <time>2024-10-11T11:08:33Z</time>
      </trkpt>
      <trkpt lat="42.72375" lon="1.89471">
        <ele>1097.2</ele>
        <time>2024-10-11T11:08:34Z</time>
      </trkpt>
      <trkpt lat="42.72374" lon="1.89475">
        <ele>1097.2</ele>
        <time>2024-10-11T11:08:35Z</time>
      </trkpt>
      <trkpt lat="42.72372" lon="1.89479">
        <ele>1097.2</ele>
        <time>2024-10-11T11:08:36Z</time>
      </trkpt>
      <trkpt lat="42.72371" lon="1.89483">
        <ele>1098</ele>
        <time>2024-10-11T11:08:37Z</time>
      </trkpt>
      <trkpt lat="42.7237" lon="1.89486">
        <ele>1098</ele>
        <time>2024-10-11T11:08:38Z</time>
      </trkpt>
      <trkpt lat="42.72369" lon="1.8949">
        <ele>1098</ele>
        <time>2024-10-11T11:08:39Z</time>
      </trkpt>
      <trkpt lat="42.7237" lon="1.89494">
        <ele>1098.4</ele>
        <time>2024-10-11T11:08:40Z</time>
      </trkpt>
      <trkpt lat="42.72369" lon="1.89498">
        <ele>1098.4</ele>
        <time>2024-10-11T11:08:41Z</time>
      </trkpt>
      <trkpt lat="42.72368" lon="1.89504">
        <ele>1098.4</ele>
        <time>2024-10-11T11:08:42Z</time>
      </trkpt>
      <trkpt lat="42.72367" lon="1.89507">
        <ele>1098.4</ele>
        <time>2024-10-11T11:08:43Z</time>
      </trkpt>
      <trkpt lat="42.72367" lon="1.89511">
        <ele>1098.4</ele>
        <time>2024-10-11T11:08:44Z</time>
      </trkpt>
      <trkpt lat="42.72366" lon="1.89514">
        <ele>1098.4</ele>
        <time>2024-10-11T11:08:45Z</time>
      </trkpt>
      <trkpt lat="42.72366" lon="1.89518">
        <ele>1098.8</ele>
        <time>2024-10-11T11:08:46Z</time>
      </trkpt>
      <trkpt lat="42.72365" lon="1.89521">
        <ele>1098.8</ele>
        <time>2024-10-11T11:08:47Z</time>
      </trkpt>
      <trkpt lat="42.72365" lon="1.89524">
        <ele>1098.8</ele>
        <time>2024-10-11T11:08:48Z</time>
      </trkpt>
      <trkpt lat="42.72365" lon="1.89527">
        <ele>1098.8</ele>
        <time>2024-10-11T11:08:49Z</time>
      </trkpt>
      <trkpt lat="42.72365" lon="1.89531">
        <ele>1098.8</ele>
        <time>2024-10-11T11:08:50Z</time>
      </trkpt>
      <trkpt lat="42.72365" lon="1.89534">
        <ele>1099.8</ele>
        <time>2024-10-11T11:08:51Z</time>
      </trkpt>
      <trkpt lat="42.72366" lon="1.89537">
        <ele>1099.8</ele>
        <time>2024-10-11T11:08:52Z</time>
      </trkpt>
      <trkpt lat="42.72366" lon="1.89541">
        <ele>1099.8</ele>
        <time>2024-10-11T11:08:53Z</time>
      </trkpt>
      <trkpt lat="42.72367" lon="1.89544">
        <ele>1100</ele>
        <time>2024-10-11T11:08:54Z</time>
      </trkpt>
      <trkpt lat="42.72367" lon="1.89547">
        <ele>1100.4</ele>
        <time>2024-10-11T11:08:55Z</time>
      </trkpt>
      <trkpt lat="42.72367" lon="1.8955">
        <ele>1100.4</ele>
        <time>2024-10-11T11:08:56Z</time>
      </trkpt>
      <trkpt lat="42.72368" lon="1.89554">
        <ele>1100.4</ele>
        <time>2024-10-11T11:08:57Z</time>
      </trkpt>
      <trkpt lat="42.72368" lon="1.89557">
        <ele>1101</ele>
        <time>2024-10-11T11:08:58Z</time>
      </trkpt>
      <trkpt lat="42.72368" lon="1.89562">
        <ele>1101</ele>
        <time>2024-10-11T11:08:59Z</time>
      </trkpt>
      <trkpt lat="42.72369" lon="1.89564">
        <ele>1101.6</ele>
        <time>2024-10-11T11:09:00Z</time>
      </trkpt>
      <trkpt lat="42.72369" lon="1.89567">
        <ele>1101.6</ele>
        <time>2024-10-11T11:09:01Z</time>
      </trkpt>
      <trkpt lat="42.7237" lon="1.8957">
        <ele>1101.6</ele>
        <time>2024-10-11T11:09:02Z</time>
      </trkpt>
      <trkpt lat="42.7237" lon="1.89573">
        <ele>1102.4</ele>
        <time>2024-10-11T11:09:03Z</time>
      </trkpt>
      <trkpt lat="42.72371" lon="1.89576">
        <ele>1102.4</ele>
        <time>2024-10-11T11:09:04Z</time>
      </trkpt>
      <trkpt lat="42.72371" lon="1.89579">
        <ele>1102.4</ele>
        <time>2024-10-11T11:09:05Z</time>
      </trkpt>
      <trkpt lat="42.72372" lon="1.89584">
        <ele>1102.4</ele>
        <time>2024-10-11T11:09:06Z</time>
      </trkpt>
      <trkpt lat="42.72373" lon="1.89585">
        <ele>1103</ele>
        <time>2024-10-11T11:09:07Z</time>
      </trkpt>
      <trkpt lat="42.72374" lon="1.89589">
        <ele>1103.2</ele>
        <time>2024-10-11T11:09:08Z</time>
      </trkpt>
      <trkpt lat="42.72374" lon="1.89591">
        <ele>1103.2</ele>
        <time>2024-10-11T11:09:09Z</time>
      </trkpt>
      <trkpt lat="42.72375" lon="1.89595">
        <ele>1103.2</ele>
        <time>2024-10-11T11:09:10Z</time>
      </trkpt>
      <trkpt lat="42.72375" lon="1.89597">
        <ele>1103.2</ele>
        <time>2024-10-11T11:09:11Z</time>
      </trkpt>
      <trkpt lat="42.72376" lon="1.89601">
        <ele>1104</ele>
        <time>2024-10-11T11:09:12Z</time>
      </trkpt>
      <trkpt lat="42.72376" lon="1.89602">
        <ele>1104.2</ele>
        <time>2024-10-11T11:09:13Z</time>
      </trkpt>
      <trkpt lat="42.72377" lon="1.89607">
        <ele>1104.2</ele>
        <time>2024-10-11T11:09:14Z</time>
      </trkpt>
      <trkpt lat="42.72377" lon="1.89608">
        <ele>1104.2</ele>
        <time>2024-10-11T11:09:15Z</time>
      </trkpt>
      <trkpt lat="42.72378" lon="1.89611">
        <ele>1104.4</ele>
        <time>2024-10-11T11:09:16Z</time>
      </trkpt>
      <trkpt lat="42.72378" lon="1.89614">
        <ele>1104.6</ele>
        <time>2024-10-11T11:09:17Z</time>
      </trkpt>
      <trkpt lat="42.72378" lon="1.89617">
        <ele>1104.6</ele>
        <time>2024-10-11T11:09:18Z</time>
      </trkpt>
      <trkpt lat="42.72379" lon="1.8962">
        <ele>1104.6</ele>
        <time>2024-10-11T11:09:19Z</time>
      </trkpt>
      <trkpt lat="42.72379" lon="1.89622">
        <ele>1104.6</ele>
        <time>2024-10-11T11:09:20Z</time>
      </trkpt>
      <trkpt lat="42.72379" lon="1.89625">
        <ele>1105.4</ele>
        <time>2024-10-11T11:09:21Z</time>
      </trkpt>
      <trkpt lat="42.72379" lon="1.8963">
        <ele>1105.4</ele>
        <time>2024-10-11T11:09:22Z</time>
      </trkpt>
      <trkpt lat="42.72379" lon="1.89631">
        <ele>1105.4</ele>
        <time>2024-10-11T11:09:23Z</time>
      </trkpt>
      <trkpt lat="42.72379" lon="1.89634">
        <ele>1105.4</ele>
        <time>2024-10-11T11:09:24Z</time>
      </trkpt>
      <trkpt lat="42.72379" lon="1.89637">
        <ele>1105.4</ele>
        <time>2024-10-11T11:09:25Z</time>
      </trkpt>
      <trkpt lat="42.72379" lon="1.8964">
        <ele>1105.8</ele>
        <time>2024-10-11T11:09:26Z</time>
      </trkpt>
      <trkpt lat="42.72379" lon="1.89645">
        <ele>1106.2</ele>
        <time>2024-10-11T11:09:27Z</time>
      </trkpt>
      <trkpt lat="42.72378" lon="1.89646">
        <ele>1106.2</ele>
        <time>2024-10-11T11:09:28Z</time>
      </trkpt>
      <trkpt lat="42.72378" lon="1.89651">
        <ele>1106.2</ele>
        <time>2024-10-11T11:09:29Z</time>
      </trkpt>
      <trkpt lat="42.72378" lon="1.89652">
        <ele>1106.8</ele>
        <time>2024-10-11T11:09:30Z</time>
      </trkpt>
      <trkpt lat="42.72377" lon="1.89655">
        <ele>1107</ele>
        <time>2024-10-11T11:09:31Z</time>
      </trkpt>
      <trkpt lat="42.72377" lon="1.89658">
        <ele>1107</ele>
        <time>2024-10-11T11:09:32Z</time>
      </trkpt>
      <trkpt lat="42.72377" lon="1.89661">
        <ele>1107</ele>
        <time>2024-10-11T11:09:33Z</time>
      </trkpt>
      <trkpt lat="42.72377" lon="1.89664">
        <ele>1107</ele>
        <time>2024-10-11T11:09:34Z</time>
      </trkpt>
      <trkpt lat="42.72377" lon="1.89667">
        <ele>1107</ele>
        <time>2024-10-11T11:09:35Z</time>
      </trkpt>
      <trkpt lat="42.72377" lon="1.89669">
        <ele>1107.6</ele>
        <time>2024-10-11T11:09:36Z</time>
      </trkpt>
      <trkpt lat="42.72377" lon="1.89673">
        <ele>1107.6</ele>
        <time>2024-10-11T11:09:37Z</time>
      </trkpt>
      <trkpt lat="42.72378" lon="1.89674">
        <ele>1107.6</ele>
        <time>2024-10-11T11:09:38Z</time>
      </trkpt>
      <trkpt lat="42.72378" lon="1.89676">
        <ele>1108.2</ele>
        <time>2024-10-11T11:09:39Z</time>
      </trkpt>
      <trkpt lat="42.72378" lon="1.89679">
        <ele>1108.2</ele>
        <time>2024-10-11T11:09:40Z</time>
      </trkpt>
      <trkpt lat="42.72379" lon="1.89681">
        <ele>1108.2</ele>
        <time>2024-10-11T11:09:41Z</time>
      </trkpt>
      <trkpt lat="42.7238" lon="1.89685">
        <ele>1108.2</ele>
        <time>2024-10-11T11:09:42Z</time>
      </trkpt>
      <trkpt lat="42.72381" lon="1.89686">
        <ele>1108.2</ele>
        <time>2024-10-11T11:09:43Z</time>
      </trkpt>
      <trkpt lat="42.72382" lon="1.89688">
        <ele>1108.6</ele>
        <time>2024-10-11T11:09:44Z</time>
      </trkpt>
      <trkpt lat="42.72382" lon="1.8969">
        <ele>1108.8</ele>
        <time>2024-10-11T11:09:45Z</time>
      </trkpt>
      <trkpt lat="42.72383" lon="1.89691">
        <ele>1108.8</ele>
        <time>2024-10-11T11:09:46Z</time>
      </trkpt>
      <trkpt lat="42.72384" lon="1.89693">
        <ele>1108.8</ele>
        <time>2024-10-11T11:09:47Z</time>
      </trkpt>
      <trkpt lat="42.72385" lon="1.89695">
        <ele>1109.2</ele>
        <time>2024-10-11T11:09:48Z</time>
      </trkpt>
      <trkpt lat="42.72386" lon="1.89697">
        <ele>1109.6</ele>
        <time>2024-10-11T11:09:49Z</time>
      </trkpt>
      <trkpt lat="42.72387" lon="1.89699">
        <ele>1109.6</ele>
        <time>2024-10-11T11:09:50Z</time>
      </trkpt>
      <trkpt lat="42.72387" lon="1.897">
        <ele>1109.6</ele>
        <time>2024-10-11T11:09:51Z</time>
      </trkpt>
      <trkpt lat="42.72388" lon="1.89703">
        <ele>1109.6</ele>
        <time>2024-10-11T11:09:52Z</time>
      </trkpt>
      <trkpt lat="42.72389" lon="1.89705">
        <ele>1110</ele>
        <time>2024-10-11T11:09:53Z</time>
      </trkpt>
      <trkpt lat="42.72389" lon="1.89707">
        <ele>1110.2</ele>
        <time>2024-10-11T11:09:54Z</time>
      </trkpt>
      <trkpt lat="42.7239" lon="1.89709">
        <ele>1110.2</ele>
        <time>2024-10-11T11:09:55Z</time>
      </trkpt>
      <trkpt lat="42.72391" lon="1.89711">
        <ele>1110.2</ele>
        <time>2024-10-11T11:09:56Z</time>
      </trkpt>
      <trkpt lat="42.72391" lon="1.89713">
        <ele>1110.8</ele>
        <time>2024-10-11T11:09:57Z</time>
      </trkpt>
      <trkpt lat="42.72392" lon="1.89715">
        <ele>1111.2</ele>
        <time>2024-10-11T11:09:58Z</time>
      </trkpt>
      <trkpt lat="42.72392" lon="1.89717">
        <ele>1111.2</ele>
        <time>2024-10-11T11:09:59Z</time>
      </trkpt>
      <trkpt lat="42.72393" lon="1.89719">
        <ele>1111.2</ele>
        <time>2024-10-11T11:10:00Z</time>
      </trkpt>
      <trkpt lat="42.72393" lon="1.89721">
        <ele>1111.2</ele>
        <time>2024-10-11T11:10:01Z</time>
      </trkpt>
      <trkpt lat="42.72394" lon="1.89722">
        <ele>1111.8</ele>
        <time>2024-10-11T11:10:02Z</time>
      </trkpt>
      <trkpt lat="42.72394" lon="1.89724">
        <ele>1111.8</ele>
        <time>2024-10-11T11:10:03Z</time>
      </trkpt>
      <trkpt lat="42.72395" lon="1.89726">
        <ele>1111.8</ele>
        <time>2024-10-11T11:10:04Z</time>
      </trkpt>
      <trkpt lat="42.72395" lon="1.89729">
        <ele>1111.8</ele>
        <time>2024-10-11T11:10:05Z</time>
      </trkpt>
      <trkpt lat="42.72395" lon="1.89731">
        <ele>1112.4</ele>
        <time>2024-10-11T11:10:06Z</time>
      </trkpt>
      <trkpt lat="42.72395" lon="1.89733">
        <ele>1112.4</ele>
        <time>2024-10-11T11:10:07Z</time>
      </trkpt>
      <trkpt lat="42.72396" lon="1.89735">
        <ele>1112.8</ele>
        <time>2024-10-11T11:10:08Z</time>
      </trkpt>
      <trkpt lat="42.72396" lon="1.89737">
        <ele>1112.8</ele>
        <time>2024-10-11T11:10:09Z</time>
      </trkpt>
      <trkpt lat="42.72396" lon="1.89739">
        <ele>1112.8</ele>
        <time>2024-10-11T11:10:10Z</time>
      </trkpt>
      <trkpt lat="42.72396" lon="1.89741">
        <ele>1113.4</ele>
        <time>2024-10-11T11:10:11Z</time>
      </trkpt>
      <trkpt lat="42.72396" lon="1.89743">
        <ele>1113.8</ele>
        <time>2024-10-11T11:10:12Z</time>
      </trkpt>
      <trkpt lat="42.72396" lon="1.89746">
        <ele>1113.8</ele>
        <time>2024-10-11T11:10:13Z</time>
      </trkpt>
      <trkpt lat="42.72396" lon="1.89748">
        <ele>1113.8</ele>
        <time>2024-10-11T11:10:14Z</time>
      </trkpt>
      <trkpt lat="42.72396" lon="1.8975">
        <ele>1113.8</ele>
        <time>2024-10-11T11:10:15Z</time>
      </trkpt>
      <trkpt lat="42.72396" lon="1.89752">
        <ele>1114.2</ele>
        <time>2024-10-11T11:10:16Z</time>
      </trkpt>
      <trkpt lat="42.72396" lon="1.89754">
        <ele>1114.2</ele>
        <time>2024-10-11T11:10:17Z</time>
      </trkpt>
      <trkpt lat="42.72396" lon="1.89757">
        <ele>1114.2</ele>
        <time>2024-10-11T11:10:18Z</time>
      </trkpt>
      <trkpt lat="42.72396" lon="1.89759">
        <ele>1114.2</ele>
        <time>2024-10-11T11:10:19Z</time>
      </trkpt>
      <trkpt lat="42.72396" lon="1.89761">
        <ele>1114.8</ele>
        <time>2024-10-11T11:10:20Z</time>
      </trkpt>
      <trkpt lat="42.72396" lon="1.89763">
        <ele>1115</ele>
        <time>2024-10-11T11:10:21Z</time>
      </trkpt>
      <trkpt lat="42.72396" lon="1.89765">
        <ele>1115</ele>
        <time>2024-10-11T11:10:22Z</time>
      </trkpt>
      <trkpt lat="42.72396" lon="1.89767">
        <ele>1115</ele>
        <time>2024-10-11T11:10:23Z</time>
      </trkpt>
      <trkpt lat="42.72396" lon="1.89769">
        <ele>1115.6</ele>
        <time>2024-10-11T11:10:24Z</time>
      </trkpt>
      <trkpt lat="42.72397" lon="1.89771">
        <ele>1115.6</ele>
        <time>2024-10-11T11:10:25Z</time>
      </trkpt>
      <trkpt lat="42.72396" lon="1.89773">
        <ele>1115.6</ele>
        <time>2024-10-11T11:10:26Z</time>
      </trkpt>
      <trkpt lat="42.72396" lon="1.89776">
        <ele>1115.6</ele>
        <time>2024-10-11T11:10:27Z</time>
      </trkpt>
      <trkpt lat="42.72396" lon="1.89778">
        <ele>1116.2</ele>
        <time>2024-10-11T11:10:28Z</time>
      </trkpt>
      <trkpt lat="42.72396" lon="1.8978">
        <ele>1116.2</ele>
        <time>2024-10-11T11:10:29Z</time>
      </trkpt>
      <trkpt lat="42.72396" lon="1.89782">
        <ele>1116.2</ele>
        <time>2024-10-11T11:10:30Z</time>
      </trkpt>
      <trkpt lat="42.72396" lon="1.89784">
        <ele>1116.2</ele>
        <time>2024-10-11T11:10:31Z</time>
      </trkpt>
      <trkpt lat="42.72395" lon="1.89786">
        <ele>1116.2</ele>
        <time>2024-10-11T11:10:32Z</time>
      </trkpt>
      <trkpt lat="42.72395" lon="1.89788">
        <ele>1116.2</ele>
        <time>2024-10-11T11:10:33Z</time>
      </trkpt>
      <trkpt lat="42.72395" lon="1.8979">
        <ele>1117</ele>
        <time>2024-10-11T11:10:34Z</time>
      </trkpt>
      <trkpt lat="42.72395" lon="1.89792">
        <ele>1117</ele>
        <time>2024-10-11T11:10:35Z</time>
      </trkpt>
      <trkpt lat="42.72395" lon="1.89795">
        <ele>1117</ele>
        <time>2024-10-11T11:10:36Z</time>
      </trkpt>
      <trkpt lat="42.72395" lon="1.89796">
        <ele>1117</ele>
        <time>2024-10-11T11:10:37Z</time>
      </trkpt>
      <trkpt lat="42.72394" lon="1.89799">
        <ele>1117.8</ele>
        <time>2024-10-11T11:10:38Z</time>
      </trkpt>
      <trkpt lat="42.72394" lon="1.89802">
        <ele>1117.8</ele>
        <time>2024-10-11T11:10:39Z</time>
      </trkpt>
      <trkpt lat="42.72394" lon="1.89804">
        <ele>1117.8</ele>
        <time>2024-10-11T11:10:40Z</time>
      </trkpt>
      <trkpt lat="42.72394" lon="1.89806">
        <ele>1117.8</ele>
        <time>2024-10-11T11:10:41Z</time>
      </trkpt>
      <trkpt lat="42.72394" lon="1.89808">
        <ele>1118.2</ele>
        <time>2024-10-11T11:10:42Z</time>
      </trkpt>
      <trkpt lat="42.72394" lon="1.8981">
        <ele>1118.4</ele>
        <time>2024-10-11T11:10:43Z</time>
      </trkpt>
      <trkpt lat="42.72394" lon="1.89812">
        <ele>1118.4</ele>
        <time>2024-10-11T11:10:44Z</time>
      </trkpt>
      <trkpt lat="42.72394" lon="1.89814">
        <ele>1118.4</ele>
        <time>2024-10-11T11:10:45Z</time>
      </trkpt>
      <trkpt lat="42.72393" lon="1.89817">
        <ele>1118.4</ele>
        <time>2024-10-11T11:10:46Z</time>
      </trkpt>
      <trkpt lat="42.72393" lon="1.89819">
        <ele>1119.4</ele>
        <time>2024-10-11T11:10:47Z</time>
      </trkpt>
      <trkpt lat="42.72394" lon="1.89821">
        <ele>1119.4</ele>
        <time>2024-10-11T11:10:48Z</time>
      </trkpt>
      <trkpt lat="42.72394" lon="1.89823">
        <ele>1119.4</ele>
        <time>2024-10-11T11:10:49Z</time>
      </trkpt>
      <trkpt lat="42.72394" lon="1.89825">
        <ele>1119.4</ele>
        <time>2024-10-11T11:10:50Z</time>
      </trkpt>
      <trkpt lat="42.72394" lon="1.89827">
        <ele>1119.4</ele>
        <time>2024-10-11T11:10:51Z</time>
      </trkpt>
      <trkpt lat="42.72394" lon="1.89829">
        <ele>1120.2</ele>
        <time>2024-10-11T11:10:52Z</time>
      </trkpt>
      <trkpt lat="42.72394" lon="1.89831">
        <ele>1120.2</ele>
        <time>2024-10-11T11:10:53Z</time>
      </trkpt>
      <trkpt lat="42.72394" lon="1.89833">
        <ele>1120.2</ele>
        <time>2024-10-11T11:10:54Z</time>
      </trkpt>
      <trkpt lat="42.72394" lon="1.89835">
        <ele>1120.2</ele>
        <time>2024-10-11T11:10:55Z</time>
      </trkpt>
      <trkpt lat="42.72394" lon="1.89837">
        <ele>1120.6</ele>
        <time>2024-10-11T11:10:56Z</time>
      </trkpt>
      <trkpt lat="42.72394" lon="1.89839">
        <ele>1120.8</ele>
        <time>2024-10-11T11:10:57Z</time>
      </trkpt>
      <trkpt lat="42.72393" lon="1.89841">
        <ele>1120.8</ele>
        <time>2024-10-11T11:10:58Z</time>
      </trkpt>
      <trkpt lat="42.72393" lon="1.89843">
        <ele>1120.8</ele>
        <time>2024-10-11T11:10:59Z</time>
      </trkpt>
      <trkpt lat="42.72393" lon="1.89844">
        <ele>1121.4</ele>
        <time>2024-10-11T11:11:00Z</time>
      </trkpt>
      <trkpt lat="42.72393" lon="1.89846">
        <ele>1121.4</ele>
        <time>2024-10-11T11:11:01Z</time>
      </trkpt>
      <trkpt lat="42.72393" lon="1.89848">
        <ele>1121.4</ele>
        <time>2024-10-11T11:11:02Z</time>
      </trkpt>
      <trkpt lat="42.72393" lon="1.8985">
        <ele>1121.4</ele>
        <time>2024-10-11T11:11:03Z</time>
      </trkpt>
      <trkpt lat="42.72393" lon="1.89852">
        <ele>1121.8</ele>
        <time>2024-10-11T11:11:04Z</time>
      </trkpt>
      <trkpt lat="42.72393" lon="1.89854">
        <ele>1121.8</ele>
        <time>2024-10-11T11:11:05Z</time>
      </trkpt>
      <trkpt lat="42.72393" lon="1.89857">
        <ele>1122</ele>
        <time>2024-10-11T11:11:06Z</time>
      </trkpt>
      <trkpt lat="42.72393" lon="1.89858">
        <ele>1122</ele>
        <time>2024-10-11T11:11:07Z</time>
      </trkpt>
      <trkpt lat="42.72393" lon="1.89861">
        <ele>1122</ele>
        <time>2024-10-11T11:11:08Z</time>
      </trkpt>
      <trkpt lat="42.72393" lon="1.89863">
        <ele>1122.6</ele>
        <time>2024-10-11T11:11:09Z</time>
      </trkpt>
      <trkpt lat="42.72393" lon="1.89865">
        <ele>1122.8</ele>
        <time>2024-10-11T11:11:10Z</time>
      </trkpt>
      <trkpt lat="42.72393" lon="1.89867">
        <ele>1122.8</ele>
        <time>2024-10-11T11:11:11Z</time>
      </trkpt>
      <trkpt lat="42.72393" lon="1.89869">
        <ele>1122.8</ele>
        <time>2024-10-11T11:11:12Z</time>
      </trkpt>
      <trkpt lat="42.72393" lon="1.89871">
        <ele>1123.2</ele>
        <time>2024-10-11T11:11:13Z</time>
      </trkpt>
      <trkpt lat="42.72394" lon="1.89873">
        <ele>1123.4</ele>
        <time>2024-10-11T11:11:14Z</time>
      </trkpt>
      <trkpt lat="42.72394" lon="1.89875">
        <ele>1123.4</ele>
        <time>2024-10-11T11:11:15Z</time>
      </trkpt>
      <trkpt lat="42.72394" lon="1.89877">
        <ele>1123.4</ele>
        <time>2024-10-11T11:11:16Z</time>
      </trkpt>
      <trkpt lat="42.72394" lon="1.89879">
        <ele>1123.4</ele>
        <time>2024-10-11T11:11:17Z</time>
      </trkpt>
      <trkpt lat="42.72395" lon="1.89882">
        <ele>1124</ele>
        <time>2024-10-11T11:11:18Z</time>
      </trkpt>
      <trkpt lat="42.72395" lon="1.89884">
        <ele>1124.2</ele>
        <time>2024-10-11T11:11:19Z</time>
      </trkpt>
      <trkpt lat="42.72395" lon="1.89886">
        <ele>1124.2</ele>
        <time>2024-10-11T11:11:20Z</time>
      </trkpt>
      <trkpt lat="42.72395" lon="1.89888">
        <ele>1124.2</ele>
        <time>2024-10-11T11:11:21Z</time>
      </trkpt>
      <trkpt lat="42.72395" lon="1.8989">
        <ele>1125</ele>
        <time>2024-10-11T11:11:22Z</time>
      </trkpt>
      <trkpt lat="42.72395" lon="1.89892">
        <ele>1125</ele>
        <time>2024-10-11T11:11:23Z</time>
      </trkpt>
      <trkpt lat="42.72396" lon="1.89894">
        <ele>1125</ele>
        <time>2024-10-11T11:11:24Z</time>
      </trkpt>
      <trkpt lat="42.72396" lon="1.89896">
        <ele>1125</ele>
        <time>2024-10-11T11:11:25Z</time>
      </trkpt>
      <trkpt lat="42.72396" lon="1.89898">
        <ele>1126</ele>
        <time>2024-10-11T11:11:26Z</time>
      </trkpt>
      <trkpt lat="42.72396" lon="1.89901">
        <ele>1126</ele>
        <time>2024-10-11T11:11:27Z</time>
      </trkpt>
      <trkpt lat="42.72396" lon="1.89903">
        <ele>1126</ele>
        <time>2024-10-11T11:11:28Z</time>
      </trkpt>
      <trkpt lat="42.72397" lon="1.89905">
        <ele>1126</ele>
        <time>2024-10-11T11:11:29Z</time>
      </trkpt>
      <trkpt lat="42.72397" lon="1.89907">
        <ele>1126</ele>
        <time>2024-10-11T11:11:30Z</time>
      </trkpt>
      <trkpt lat="42.72397" lon="1.89909">
        <ele>1126</ele>
        <time>2024-10-11T11:11:31Z</time>
      </trkpt>
      <trkpt lat="42.72397" lon="1.89911">
        <ele>1126.8</ele>
        <time>2024-10-11T11:11:32Z</time>
      </trkpt>
      <trkpt lat="42.72397" lon="1.89913">
        <ele>1126.8</ele>
        <time>2024-10-11T11:11:33Z</time>
      </trkpt>
      <trkpt lat="42.72397" lon="1.89915">
        <ele>1126.8</ele>
        <time>2024-10-11T11:11:34Z</time>
      </trkpt>
      <trkpt lat="42.72398" lon="1.89917">
        <ele>1126.8</ele>
        <time>2024-10-11T11:11:35Z</time>
      </trkpt>
      <trkpt lat="42.72398" lon="1.89919">
        <ele>1127.2</ele>
        <time>2024-10-11T11:11:36Z</time>
      </trkpt>
      <trkpt lat="42.72398" lon="1.89921">
        <ele>1127.6</ele>
        <time>2024-10-11T11:11:37Z</time>
      </trkpt>
      <trkpt lat="42.72398" lon="1.89923">
        <ele>1127.6</ele>
        <time>2024-10-11T11:11:38Z</time>
      </trkpt>
      <trkpt lat="42.72399" lon="1.89925">
        <ele>1127.6</ele>
        <time>2024-10-11T11:11:39Z</time>
      </trkpt>
      <trkpt lat="42.72399" lon="1.89928">
        <ele>1128</ele>
        <time>2024-10-11T11:11:40Z</time>
      </trkpt>
      <trkpt lat="42.72399" lon="1.8993">
        <ele>1128</ele>
        <time>2024-10-11T11:11:41Z</time>
      </trkpt>
      <trkpt lat="42.72398" lon="1.89932">
        <ele>1128.4</ele>
        <time>2024-10-11T11:11:42Z</time>
      </trkpt>
      <trkpt lat="42.72399" lon="1.89934">
        <ele>1128.4</ele>
        <time>2024-10-11T11:11:43Z</time>
      </trkpt>
      <trkpt lat="42.72399" lon="1.89936">
        <ele>1128.4</ele>
        <time>2024-10-11T11:11:44Z</time>
      </trkpt>
      <trkpt lat="42.72399" lon="1.89938">
        <ele>1128.4</ele>
        <time>2024-10-11T11:11:45Z</time>
      </trkpt>
      <trkpt lat="42.72399" lon="1.8994">
        <ele>1129</ele>
        <time>2024-10-11T11:11:46Z</time>
      </trkpt>
      <trkpt lat="42.72399" lon="1.89942">
        <ele>1129</ele>
        <time>2024-10-11T11:11:47Z</time>
      </trkpt>
      <trkpt lat="42.72399" lon="1.89944">
        <ele>1129</ele>
        <time>2024-10-11T11:11:48Z</time>
      </trkpt>
      <trkpt lat="42.72399" lon="1.89946">
        <ele>1129.6</ele>
        <time>2024-10-11T11:11:49Z</time>
      </trkpt>
      <trkpt lat="42.72399" lon="1.89948">
        <ele>1129.8</ele>
        <time>2024-10-11T11:11:50Z</time>
      </trkpt>
      <trkpt lat="42.72399" lon="1.8995">
        <ele>1129.8</ele>
        <time>2024-10-11T11:11:51Z</time>
      </trkpt>
      <trkpt lat="42.72399" lon="1.89952">
        <ele>1129.8</ele>
        <time>2024-10-11T11:11:52Z</time>
      </trkpt>
      <trkpt lat="42.724" lon="1.89954">
        <ele>1129.8</ele>
        <time>2024-10-11T11:11:53Z</time>
      </trkpt>
      <trkpt lat="42.72399" lon="1.89956">
        <ele>1130.4</ele>
        <time>2024-10-11T11:11:54Z</time>
      </trkpt>
      <trkpt lat="42.72399" lon="1.89958">
        <ele>1130.6</ele>
        <time>2024-10-11T11:11:55Z</time>
      </trkpt>
      <trkpt lat="42.72399" lon="1.8996">
        <ele>1130.6</ele>
        <time>2024-10-11T11:11:56Z</time>
      </trkpt>
      <trkpt lat="42.72399" lon="1.89962">
        <ele>1130.6</ele>
        <time>2024-10-11T11:11:57Z</time>
      </trkpt>
      <trkpt lat="42.72399" lon="1.89964">
        <ele>1131.4</ele>
        <time>2024-10-11T11:11:58Z</time>
      </trkpt>
      <trkpt lat="42.72399" lon="1.89966">
        <ele>1131.6</ele>
        <time>2024-10-11T11:11:59Z</time>
      </trkpt>
      <trkpt lat="42.72398" lon="1.89968">
        <ele>1131.6</ele>
        <time>2024-10-11T11:12:00Z</time>
      </trkpt>
      <trkpt lat="42.72398" lon="1.8997">
        <ele>1131.6</ele>
        <time>2024-10-11T11:12:01Z</time>
      </trkpt>
      <trkpt lat="42.72398" lon="1.89973">
        <ele>1131.6</ele>
        <time>2024-10-11T11:12:02Z</time>
      </trkpt>
      <trkpt lat="42.72398" lon="1.89975">
        <ele>1131.6</ele>
        <time>2024-10-11T11:12:03Z</time>
      </trkpt>
      <trkpt lat="42.72397" lon="1.89977">
        <ele>1132.4</ele>
        <time>2024-10-11T11:12:04Z</time>
      </trkpt>
      <trkpt lat="42.72397" lon="1.89979">
        <ele>1132.4</ele>
        <time>2024-10-11T11:12:05Z</time>
      </trkpt>
      <trkpt lat="42.72397" lon="1.89981">
        <ele>1132.4</ele>
        <time>2024-10-11T11:12:06Z</time>
      </trkpt>
      <trkpt lat="42.72396" lon="1.89982">
        <ele>1133.2</ele>
        <time>2024-10-11T11:12:07Z</time>
      </trkpt>
      <trkpt lat="42.72395" lon="1.89984">
        <ele>1133.8</ele>
        <time>2024-10-11T11:12:08Z</time>
      </trkpt>
      <trkpt lat="42.72395" lon="1.89986">
        <ele>1133.8</ele>
        <time>2024-10-11T11:12:09Z</time>
      </trkpt>
      <trkpt lat="42.72394" lon="1.89988">
        <ele>1133.8</ele>
        <time>2024-10-11T11:12:10Z</time>
      </trkpt>
      <trkpt lat="42.72394" lon="1.8999">
        <ele>1133.8</ele>
        <time>2024-10-11T11:12:11Z</time>
      </trkpt>
      <trkpt lat="42.72393" lon="1.89992">
        <ele>1134.2</ele>
        <time>2024-10-11T11:12:12Z</time>
      </trkpt>
      <trkpt lat="42.72393" lon="1.89994">
        <ele>1134.6</ele>
        <time>2024-10-11T11:12:13Z</time>
      </trkpt>
      <trkpt lat="42.72392" lon="1.89996">
        <ele>1134.6</ele>
        <time>2024-10-11T11:12:14Z</time>
      </trkpt>
      <trkpt lat="42.72391" lon="1.89998">
        <ele>1134.6</ele>
        <time>2024-10-11T11:12:15Z</time>
      </trkpt>
      <trkpt lat="42.72391" lon="1.9">
        <ele>1134.6</ele>
        <time>2024-10-11T11:12:16Z</time>
      </trkpt>
      <trkpt lat="42.72391" lon="1.90002">
        <ele>1135.6</ele>
        <time>2024-10-11T11:12:17Z</time>
      </trkpt>
      <trkpt lat="42.7239" lon="1.90004">
        <ele>1135.6</ele>
        <time>2024-10-11T11:12:18Z</time>
      </trkpt>
      <trkpt lat="42.7239" lon="1.90006">
        <ele>1135.6</ele>
        <time>2024-10-11T11:12:19Z</time>
      </trkpt>
      <trkpt lat="42.7239" lon="1.90008">
        <ele>1135.6</ele>
        <time>2024-10-11T11:12:20Z</time>
      </trkpt>
      <trkpt lat="42.7239" lon="1.9001">
        <ele>1136</ele>
        <time>2024-10-11T11:12:21Z</time>
      </trkpt>
      <trkpt lat="42.7239" lon="1.90013">
        <ele>1136</ele>
        <time>2024-10-11T11:12:22Z</time>
      </trkpt>
      <trkpt lat="42.72391" lon="1.90015">
        <ele>1136</ele>
        <time>2024-10-11T11:12:23Z</time>
      </trkpt>
      <trkpt lat="42.72391" lon="1.90017">
        <ele>1136</ele>
        <time>2024-10-11T11:12:24Z</time>
      </trkpt>
      <trkpt lat="42.72392" lon="1.90019">
        <ele>1136</ele>
        <time>2024-10-11T11:12:25Z</time>
      </trkpt>
      <trkpt lat="42.72394" lon="1.9002">
        <ele>1136.4</ele>
        <time>2024-10-11T11:12:26Z</time>
      </trkpt>
      <trkpt lat="42.72395" lon="1.90021">
        <ele>1136.6</ele>
        <time>2024-10-11T11:12:27Z</time>
      </trkpt>
      <trkpt lat="42.72396" lon="1.90022">
        <ele>1136.6</ele>
        <time>2024-10-11T11:12:28Z</time>
      </trkpt>
      <trkpt lat="42.72398" lon="1.90022">
        <ele>1136.6</ele>
        <time>2024-10-11T11:12:29Z</time>
      </trkpt>
      <trkpt lat="42.72399" lon="1.90021">
        <ele>1137.2</ele>
        <time>2024-10-11T11:12:30Z</time>
      </trkpt>
      <trkpt lat="42.72401" lon="1.9002">
        <ele>1137.2</ele>
        <time>2024-10-11T11:12:31Z</time>
      </trkpt>
      <trkpt lat="42.72402" lon="1.90019">
        <ele>1137.2</ele>
        <time>2024-10-11T11:12:32Z</time>
      </trkpt>
      <trkpt lat="42.72404" lon="1.90018">
        <ele>1137.2</ele>
        <time>2024-10-11T11:12:33Z</time>
      </trkpt>
      <trkpt lat="42.72405" lon="1.90017">
        <ele>1137.8</ele>
        <time>2024-10-11T11:12:34Z</time>
      </trkpt>
      <trkpt lat="42.72406" lon="1.90016">
        <ele>1137.8</ele>
        <time>2024-10-11T11:12:35Z</time>
      </trkpt>
      <trkpt lat="42.72408" lon="1.90015">
        <ele>1137.8</ele>
        <time>2024-10-11T11:12:36Z</time>
      </trkpt>
      <trkpt lat="42.72409" lon="1.90014">
        <ele>1137.8</ele>
        <time>2024-10-11T11:12:37Z</time>
      </trkpt>
      <trkpt lat="42.7241" lon="1.90013">
        <ele>1137.8</ele>
        <time>2024-10-11T11:12:38Z</time>
      </trkpt>
      <trkpt lat="42.72412" lon="1.90012">
        <ele>1138.4</ele>
        <time>2024-10-11T11:12:39Z</time>
      </trkpt>
      <trkpt lat="42.72413" lon="1.90011">
        <ele>1138.4</ele>
        <time>2024-10-11T11:12:40Z</time>
      </trkpt>
      <trkpt lat="42.72414" lon="1.9001">
        <ele>1138.4</ele>
        <time>2024-10-11T11:12:41Z</time>
      </trkpt>
      <trkpt lat="42.72415" lon="1.90008">
        <ele>1138.4</ele>
        <time>2024-10-11T11:12:42Z</time>
      </trkpt>
      <trkpt lat="42.72417" lon="1.90008">
        <ele>1138.4</ele>
        <time>2024-10-11T11:12:43Z</time>
      </trkpt>
      <trkpt lat="42.72418" lon="1.90007">
        <ele>1139.2</ele>
        <time>2024-10-11T11:12:44Z</time>
      </trkpt>
      <trkpt lat="42.7242" lon="1.90006">
        <ele>1139.2</ele>
        <time>2024-10-11T11:12:45Z</time>
      </trkpt>
      <trkpt lat="42.72422" lon="1.90005">
        <ele>1139.2</ele>
        <time>2024-10-11T11:12:46Z</time>
      </trkpt>
      <trkpt lat="42.72423" lon="1.90004">
        <ele>1139.2</ele>
        <time>2024-10-11T11:12:47Z</time>
      </trkpt>
      <trkpt lat="42.72424" lon="1.90003">
        <ele>1139.8</ele>
        <time>2024-10-11T11:12:48Z</time>
      </trkpt>
      <trkpt lat="42.72425" lon="1.90001">
        <ele>1139.8</ele>
        <time>2024-10-11T11:12:49Z</time>
      </trkpt>
      <trkpt lat="42.72427" lon="1.9">
        <ele>1139.8</ele>
        <time>2024-10-11T11:12:50Z</time>
      </trkpt>
      <trkpt lat="42.72428" lon="1.89999">
        <ele>1139.8</ele>
        <time>2024-10-11T11:12:51Z</time>
      </trkpt>
      <trkpt lat="42.7243" lon="1.89998">
        <ele>1140.4</ele>
        <time>2024-10-11T11:12:52Z</time>
      </trkpt>
      <trkpt lat="42.72431" lon="1.89996">
        <ele>1140.4</ele>
        <time>2024-10-11T11:12:53Z</time>
      </trkpt>
      <trkpt lat="42.72433" lon="1.89995">
        <ele>1140.4</ele>
        <time>2024-10-11T11:12:54Z</time>
      </trkpt>
      <trkpt lat="42.72434" lon="1.89993">
        <ele>1140.4</ele>
        <time>2024-10-11T11:12:55Z</time>
      </trkpt>
      <trkpt lat="42.72436" lon="1.8999">
        <ele>1140.4</ele>
        <time>2024-10-11T11:12:56Z</time>
      </trkpt>
      <trkpt lat="42.72436" lon="1.89989">
        <ele>1140.8</ele>
        <time>2024-10-11T11:12:57Z</time>
      </trkpt>
      <trkpt lat="42.72438" lon="1.89986">
        <ele>1140.8</ele>
        <time>2024-10-11T11:12:58Z</time>
      </trkpt>
      <trkpt lat="42.72438" lon="1.89985">
        <ele>1140.8</ele>
        <time>2024-10-11T11:12:59Z</time>
      </trkpt>
      <trkpt lat="42.72439" lon="1.89981">
        <ele>1141</ele>
        <time>2024-10-11T11:13:00Z</time>
      </trkpt>
      <trkpt lat="42.72439" lon="1.8998">
        <ele>1141</ele>
        <time>2024-10-11T11:13:01Z</time>
      </trkpt>
      <trkpt lat="42.7244" lon="1.89978">
        <ele>1141.6</ele>
        <time>2024-10-11T11:13:02Z</time>
      </trkpt>
      <trkpt lat="42.72441" lon="1.89974">
        <ele>1141.8</ele>
        <time>2024-10-11T11:13:03Z</time>
      </trkpt>
      <trkpt lat="42.72441" lon="1.89973">
        <ele>1141.8</ele>
        <time>2024-10-11T11:13:04Z</time>
      </trkpt>
      <trkpt lat="42.72441" lon="1.89969">
        <ele>1141.8</ele>
        <time>2024-10-11T11:13:05Z</time>
      </trkpt>
      <trkpt lat="42.72441" lon="1.89968">
        <ele>1141.8</ele>
        <time>2024-10-11T11:13:06Z</time>
      </trkpt>
      <trkpt lat="42.72441" lon="1.89965">
        <ele>1142.2</ele>
        <time>2024-10-11T11:13:07Z</time>
      </trkpt>
      <trkpt lat="42.72441" lon="1.89963">
        <ele>1142.2</ele>
        <time>2024-10-11T11:13:08Z</time>
      </trkpt>
      <trkpt lat="42.72441" lon="1.8996">
        <ele>1142.2</ele>
        <time>2024-10-11T11:13:09Z</time>
      </trkpt>
      <trkpt lat="42.72441" lon="1.89958">
        <ele>1142.2</ele>
        <time>2024-10-11T11:13:10Z</time>
      </trkpt>
      <trkpt lat="42.72441" lon="1.89956">
        <ele>1143</ele>
        <time>2024-10-11T11:13:11Z</time>
      </trkpt>
      <trkpt lat="42.72442" lon="1.89953">
        <ele>1143</ele>
        <time>2024-10-11T11:13:12Z</time>
      </trkpt>
      <trkpt lat="42.72442" lon="1.89951">
        <ele>1143</ele>
        <time>2024-10-11T11:13:13Z</time>
      </trkpt>
      <trkpt lat="42.72442" lon="1.89949">
        <ele>1143</ele>
        <time>2024-10-11T11:13:14Z</time>
      </trkpt>
      <trkpt lat="42.72442" lon="1.89947">
        <ele>1143</ele>
        <time>2024-10-11T11:13:15Z</time>
      </trkpt>
      <trkpt lat="42.72443" lon="1.89945">
        <ele>1143.6</ele>
        <time>2024-10-11T11:13:16Z</time>
      </trkpt>
      <trkpt lat="42.72444" lon="1.89943">
        <ele>1143.6</ele>
        <time>2024-10-11T11:13:17Z</time>
      </trkpt>
      <trkpt lat="42.72445" lon="1.89941">
        <ele>1143.6</ele>
        <time>2024-10-11T11:13:18Z</time>
      </trkpt>
      <trkpt lat="42.72446" lon="1.8994">
        <ele>1143.6</ele>
        <time>2024-10-11T11:13:19Z</time>
      </trkpt>
      <trkpt lat="42.72447" lon="1.89939">
        <ele>1144.4</ele>
        <time>2024-10-11T11:13:20Z</time>
      </trkpt>
      <trkpt lat="42.72449" lon="1.89939">
        <ele>1144.8</ele>
        <time>2024-10-11T11:13:21Z</time>
      </trkpt>
      <trkpt lat="42.7245" lon="1.8994">
        <ele>1144.8</ele>
        <time>2024-10-11T11:13:22Z</time>
      </trkpt>
      <trkpt lat="42.72451" lon="1.89941">
        <ele>1144.8</ele>
        <time>2024-10-11T11:13:23Z</time>
      </trkpt>
      <trkpt lat="42.72451" lon="1.89943">
        <ele>1144.8</ele>
        <time>2024-10-11T11:13:24Z</time>
      </trkpt>
      <trkpt lat="42.72451" lon="1.89945">
        <ele>1144.8</ele>
        <time>2024-10-11T11:13:25Z</time>
      </trkpt>
      <trkpt lat="42.72451" lon="1.89947">
        <ele>1145</ele>
        <time>2024-10-11T11:13:26Z</time>
      </trkpt>
      <trkpt lat="42.72451" lon="1.89949">
        <ele>1145</ele>
        <time>2024-10-11T11:13:27Z</time>
      </trkpt>
      <trkpt lat="42.72451" lon="1.89951">
        <ele>1145</ele>
        <time>2024-10-11T11:13:28Z</time>
      </trkpt>
      <trkpt lat="42.72451" lon="1.89954">
        <ele>1145.4</ele>
        <time>2024-10-11T11:13:29Z</time>
      </trkpt>
      <trkpt lat="42.72452" lon="1.89955">
        <ele>1145.6</ele>
        <time>2024-10-11T11:13:30Z</time>
      </trkpt>
      <trkpt lat="42.72452" lon="1.89958">
        <ele>1145.6</ele>
        <time>2024-10-11T11:13:31Z</time>
      </trkpt>
      <trkpt lat="42.72452" lon="1.8996">
        <ele>1145.6</ele>
        <time>2024-10-11T11:13:32Z</time>
      </trkpt>
      <trkpt lat="42.72452" lon="1.89962">
        <ele>1146.2</ele>
        <time>2024-10-11T11:13:33Z</time>
      </trkpt>
      <trkpt lat="42.72452" lon="1.89964">
        <ele>1146.2</ele>
        <time>2024-10-11T11:13:34Z</time>
      </trkpt>
      <trkpt lat="42.72452" lon="1.89966">
        <ele>1146.2</ele>
        <time>2024-10-11T11:13:35Z</time>
      </trkpt>
      <trkpt lat="42.72453" lon="1.89968">
        <ele>1146.2</ele>
        <time>2024-10-11T11:13:36Z</time>
      </trkpt>
      <trkpt lat="42.72453" lon="1.89969">
        <ele>1146.2</ele>
        <time>2024-10-11T11:13:37Z</time>
      </trkpt>
      <trkpt lat="42.72453" lon="1.89972">
        <ele>1146.8</ele>
        <time>2024-10-11T11:13:38Z</time>
      </trkpt>
      <trkpt lat="42.72453" lon="1.89974">
        <ele>1147</ele>
        <time>2024-10-11T11:13:39Z</time>
      </trkpt>
      <trkpt lat="42.72453" lon="1.89976">
        <ele>1147</ele>
        <time>2024-10-11T11:13:40Z</time>
      </trkpt>
      <trkpt lat="42.72453" lon="1.89977">
        <ele>1147</ele>
        <time>2024-10-11T11:13:41Z</time>
      </trkpt>
      <trkpt lat="42.72453" lon="1.89979">
        <ele>1147</ele>
        <time>2024-10-11T11:13:42Z</time>
      </trkpt>
      <trkpt lat="42.72453" lon="1.89981">
        <ele>1147.4</ele>
        <time>2024-10-11T11:13:43Z</time>
      </trkpt>
      <trkpt lat="42.72453" lon="1.89983">
        <ele>1147.6</ele>
        <time>2024-10-11T11:13:44Z</time>
      </trkpt>
      <trkpt lat="42.72453" lon="1.89985">
        <ele>1147.6</ele>
        <time>2024-10-11T11:13:45Z</time>
      </trkpt>
      <trkpt lat="42.72453" lon="1.89987">
        <ele>1147.6</ele>
        <time>2024-10-11T11:13:46Z</time>
      </trkpt>
      <trkpt lat="42.72453" lon="1.89989">
        <ele>1148</ele>
        <time>2024-10-11T11:13:47Z</time>
      </trkpt>
      <trkpt lat="42.72454" lon="1.89991">
        <ele>1148</ele>
        <time>2024-10-11T11:13:48Z</time>
      </trkpt>
      <trkpt lat="42.72454" lon="1.89993">
        <ele>1148</ele>
        <time>2024-10-11T11:13:49Z</time>
      </trkpt>
      <trkpt lat="42.72454" lon="1.89995">
        <ele>1148</ele>
        <time>2024-10-11T11:13:50Z</time>
      </trkpt>
      <trkpt lat="42.72454" lon="1.89997">
        <ele>1148</ele>
        <time>2024-10-11T11:13:51Z</time>
      </trkpt>
      <trkpt lat="42.72454" lon="1.89999">
        <ele>1148.6</ele>
        <time>2024-10-11T11:13:52Z</time>
      </trkpt>
      <trkpt lat="42.72455" lon="1.90001">
        <ele>1149</ele>
        <time>2024-10-11T11:13:53Z</time>
      </trkpt>
      <trkpt lat="42.72455" lon="1.90003">
        <ele>1149</ele>
        <time>2024-10-11T11:13:54Z</time>
      </trkpt>
      <trkpt lat="42.72454" lon="1.90005">
        <ele>1149</ele>
        <time>2024-10-11T11:13:55Z</time>
      </trkpt>
      <trkpt lat="42.72455" lon="1.90008">
        <ele>1149</ele>
        <time>2024-10-11T11:13:56Z</time>
      </trkpt>
      <trkpt lat="42.72455" lon="1.9001">
        <ele>1149.8</ele>
        <time>2024-10-11T11:13:57Z</time>
      </trkpt>
      <trkpt lat="42.72455" lon="1.90012">
        <ele>1149.8</ele>
        <time>2024-10-11T11:13:58Z</time>
      </trkpt>
      <trkpt lat="42.72455" lon="1.90014">
        <ele>1149.8</ele>
        <time>2024-10-11T11:13:59Z</time>
      </trkpt>
      <trkpt lat="42.72455" lon="1.90016">
        <ele>1149.8</ele>
        <time>2024-10-11T11:14:00Z</time>
      </trkpt>
      <trkpt lat="42.72455" lon="1.90018">
        <ele>1150</ele>
        <time>2024-10-11T11:14:01Z</time>
      </trkpt>
      <trkpt lat="42.72456" lon="1.90021">
        <ele>1150.4</ele>
        <time>2024-10-11T11:14:02Z</time>
      </trkpt>
      <trkpt lat="42.72456" lon="1.90023">
        <ele>1150.4</ele>
        <time>2024-10-11T11:14:03Z</time>
      </trkpt>
      <trkpt lat="42.72456" lon="1.90025">
        <ele>1150.4</ele>
        <time>2024-10-11T11:14:04Z</time>
      </trkpt>
      <trkpt lat="42.72456" lon="1.90027">
        <ele>1150.8</ele>
        <time>2024-10-11T11:14:05Z</time>
      </trkpt>
      <trkpt lat="42.72456" lon="1.90029">
        <ele>1151</ele>
        <time>2024-10-11T11:14:06Z</time>
      </trkpt>
      <trkpt lat="42.72456" lon="1.90031">
        <ele>1151</ele>
        <time>2024-10-11T11:14:07Z</time>
      </trkpt>
      <trkpt lat="42.72456" lon="1.90033">
        <ele>1151</ele>
        <time>2024-10-11T11:14:08Z</time>
      </trkpt>
      <trkpt lat="42.72456" lon="1.90033">
        <ele>1151</ele>
        <time>2024-10-11T11:14:09Z</time>
      </trkpt>
      <trkpt lat="42.72456" lon="1.90034">
        <ele>1151.4</ele>
        <time>2024-10-11T11:14:10Z</time>
      </trkpt>
      <trkpt lat="42.72456" lon="1.90034">
        <ele>1151.6</ele>
        <time>2024-10-11T11:14:11Z</time>
      </trkpt>
      <trkpt lat="42.72456" lon="1.90039">
        <ele>1152.2</ele>
        <time>2024-10-11T11:15:19Z</time>
      </trkpt>
      <trkpt lat="42.72456" lon="1.90042">
        <ele>1152.2</ele>
        <time>2024-10-11T11:15:20Z</time>
      </trkpt>
      <trkpt lat="42.72456" lon="1.90044">
        <ele>1152.2</ele>
        <time>2024-10-11T11:15:21Z</time>
      </trkpt>
      <trkpt lat="42.72456" lon="1.90047">
        <ele>1152.2</ele>
        <time>2024-10-11T11:15:22Z</time>
      </trkpt>
      <trkpt lat="42.72456" lon="1.90049">
        <ele>1152.8</ele>
        <time>2024-10-11T11:15:23Z</time>
      </trkpt>
      <trkpt lat="42.72456" lon="1.90051">
        <ele>1152.8</ele>
        <time>2024-10-11T11:15:24Z</time>
      </trkpt>
      <trkpt lat="42.72456" lon="1.90053">
        <ele>1152.8</ele>
        <time>2024-10-11T11:15:25Z</time>
      </trkpt>
      <trkpt lat="42.72456" lon="1.90056">
        <ele>1152.8</ele>
        <time>2024-10-11T11:15:26Z</time>
      </trkpt>
      <trkpt lat="42.72456" lon="1.90058">
        <ele>1153.4</ele>
        <time>2024-10-11T11:15:27Z</time>
      </trkpt>
      <trkpt lat="42.72456" lon="1.9006">
        <ele>1153.6</ele>
        <time>2024-10-11T11:15:28Z</time>
      </trkpt>
      <trkpt lat="42.72456" lon="1.90062">
        <ele>1153.6</ele>
        <time>2024-10-11T11:15:29Z</time>
      </trkpt>
      <trkpt lat="42.72456" lon="1.90065">
        <ele>1153.6</ele>
        <time>2024-10-11T11:15:30Z</time>
      </trkpt>
      <trkpt lat="42.72456" lon="1.90067">
        <ele>1154.2</ele>
        <time>2024-10-11T11:15:31Z</time>
      </trkpt>
      <trkpt lat="42.72455" lon="1.90069">
        <ele>1154.2</ele>
        <time>2024-10-11T11:15:32Z</time>
      </trkpt>
      <trkpt lat="42.72455" lon="1.90071">
        <ele>1154.2</ele>
        <time>2024-10-11T11:15:33Z</time>
      </trkpt>
      <trkpt lat="42.72455" lon="1.90073">
        <ele>1154.2</ele>
        <time>2024-10-11T11:15:34Z</time>
      </trkpt>
      <trkpt lat="42.72454" lon="1.90075">
        <ele>1154.2</ele>
        <time>2024-10-11T11:15:35Z</time>
      </trkpt>
      <trkpt lat="42.72454" lon="1.90078">
        <ele>1154.2</ele>
        <time>2024-10-11T11:15:36Z</time>
      </trkpt>
      <trkpt lat="42.72454" lon="1.9008">
        <ele>1155</ele>
        <time>2024-10-11T11:15:37Z</time>
      </trkpt>
      <trkpt lat="42.72454" lon="1.90082">
        <ele>1155</ele>
        <time>2024-10-11T11:15:38Z</time>
      </trkpt>
      <trkpt lat="42.72453" lon="1.90086">
        <ele>1155</ele>
        <time>2024-10-11T11:15:39Z</time>
      </trkpt>
      <trkpt lat="42.72453" lon="1.90087">
        <ele>1155</ele>
        <time>2024-10-11T11:15:40Z</time>
      </trkpt>
      <trkpt lat="42.72453" lon="1.9009">
        <ele>1155.6</ele>
        <time>2024-10-11T11:15:41Z</time>
      </trkpt>
      <trkpt lat="42.72453" lon="1.90092">
        <ele>1155.6</ele>
        <time>2024-10-11T11:15:42Z</time>
      </trkpt>
      <trkpt lat="42.72452" lon="1.90094">
        <ele>1155.6</ele>
        <time>2024-10-11T11:15:43Z</time>
      </trkpt>
      <trkpt lat="42.72452" lon="1.90096">
        <ele>1155.6</ele>
        <time>2024-10-11T11:15:44Z</time>
      </trkpt>
      <trkpt lat="42.72452" lon="1.90099">
        <ele>1156.2</ele>
        <time>2024-10-11T11:15:45Z</time>
      </trkpt>
      <trkpt lat="42.72451" lon="1.90101">
        <ele>1156.6</ele>
        <time>2024-10-11T11:15:46Z</time>
      </trkpt>
      <trkpt lat="42.7245" lon="1.90103">
        <ele>1156.6</ele>
        <time>2024-10-11T11:15:47Z</time>
      </trkpt>
      <trkpt lat="42.7245" lon="1.90105">
        <ele>1156.6</ele>
        <time>2024-10-11T11:15:48Z</time>
      </trkpt>
      <trkpt lat="42.72449" lon="1.90107">
        <ele>1156.8</ele>
        <time>2024-10-11T11:15:49Z</time>
      </trkpt>
      <trkpt lat="42.72449" lon="1.90109">
        <ele>1156.8</ele>
        <time>2024-10-11T11:15:50Z</time>
      </trkpt>
      <trkpt lat="42.72448" lon="1.90112">
        <ele>1157.2</ele>
        <time>2024-10-11T11:15:51Z</time>
      </trkpt>
      <trkpt lat="42.72448" lon="1.90114">
        <ele>1157.2</ele>
        <time>2024-10-11T11:15:52Z</time>
      </trkpt>
      <trkpt lat="42.72448" lon="1.90116">
        <ele>1157.2</ele>
        <time>2024-10-11T11:15:53Z</time>
      </trkpt>
      <trkpt lat="42.72447" lon="1.90119">
        <ele>1157.2</ele>
        <time>2024-10-11T11:15:54Z</time>
      </trkpt>
      <trkpt lat="42.72447" lon="1.90121">
        <ele>1158</ele>
        <time>2024-10-11T11:15:55Z</time>
      </trkpt>
      <trkpt lat="42.72447" lon="1.90123">
        <ele>1158</ele>
        <time>2024-10-11T11:15:56Z</time>
      </trkpt>
      <trkpt lat="42.72447" lon="1.90125">
        <ele>1158</ele>
        <time>2024-10-11T11:15:57Z</time>
      </trkpt>
      <trkpt lat="42.72447" lon="1.90128">
        <ele>1158</ele>
        <time>2024-10-11T11:15:58Z</time>
      </trkpt>
      <trkpt lat="42.72446" lon="1.9013">
        <ele>1158.6</ele>
        <time>2024-10-11T11:15:59Z</time>
      </trkpt>
      <trkpt lat="42.72446" lon="1.90132">
        <ele>1159</ele>
        <time>2024-10-11T11:16:00Z</time>
      </trkpt>
      <trkpt lat="42.72446" lon="1.90134">
        <ele>1159</ele>
        <time>2024-10-11T11:16:01Z</time>
      </trkpt>
      <trkpt lat="42.72446" lon="1.90137">
        <ele>1159</ele>
        <time>2024-10-11T11:16:02Z</time>
      </trkpt>
      <trkpt lat="42.72446" lon="1.90139">
        <ele>1159.4</ele>
        <time>2024-10-11T11:16:03Z</time>
      </trkpt>
      <trkpt lat="42.72445" lon="1.90141">
        <ele>1159.6</ele>
        <time>2024-10-11T11:16:04Z</time>
      </trkpt>
      <trkpt lat="42.72445" lon="1.90143">
        <ele>1159.6</ele>
        <time>2024-10-11T11:16:05Z</time>
      </trkpt>
      <trkpt lat="42.72445" lon="1.90145">
        <ele>1159.6</ele>
        <time>2024-10-11T11:16:06Z</time>
      </trkpt>
      <trkpt lat="42.72445" lon="1.90147">
        <ele>1159.6</ele>
        <time>2024-10-11T11:16:07Z</time>
      </trkpt>
      <trkpt lat="42.72445" lon="1.90149">
        <ele>1160</ele>
        <time>2024-10-11T11:16:08Z</time>
      </trkpt>
      <trkpt lat="42.72445" lon="1.90151">
        <ele>1160.2</ele>
        <time>2024-10-11T11:16:09Z</time>
      </trkpt>
      <trkpt lat="42.72445" lon="1.90154">
        <ele>1160.2</ele>
        <time>2024-10-11T11:16:10Z</time>
      </trkpt>
      <trkpt lat="42.72445" lon="1.90156">
        <ele>1160.2</ele>
        <time>2024-10-11T11:16:11Z</time>
      </trkpt>
      <trkpt lat="42.72445" lon="1.90158">
        <ele>1160.8</ele>
        <time>2024-10-11T11:16:12Z</time>
      </trkpt>
      <trkpt lat="42.72445" lon="1.9016">
        <ele>1160.8</ele>
        <time>2024-10-11T11:16:13Z</time>
      </trkpt>
      <trkpt lat="42.72445" lon="1.90162">
        <ele>1160.8</ele>
        <time>2024-10-11T11:16:14Z</time>
      </trkpt>
      <trkpt lat="42.72445" lon="1.90165">
        <ele>1160.8</ele>
        <time>2024-10-11T11:16:15Z</time>
      </trkpt>
      <trkpt lat="42.72445" lon="1.90167">
        <ele>1160.8</ele>
        <time>2024-10-11T11:16:16Z</time>
      </trkpt>
      <trkpt lat="42.72446" lon="1.90169">
        <ele>1161.4</ele>
        <time>2024-10-11T11:16:17Z</time>
      </trkpt>
      <trkpt lat="42.72446" lon="1.90171">
        <ele>1161.4</ele>
        <time>2024-10-11T11:16:18Z</time>
      </trkpt>
      <trkpt lat="42.72446" lon="1.90174">
        <ele>1161.4</ele>
        <time>2024-10-11T11:16:19Z</time>
      </trkpt>
      <trkpt lat="42.72447" lon="1.90176">
        <ele>1161.4</ele>
        <time>2024-10-11T11:16:20Z</time>
      </trkpt>
      <trkpt lat="42.72447" lon="1.90178">
        <ele>1162</ele>
        <time>2024-10-11T11:16:21Z</time>
      </trkpt>
      <trkpt lat="42.72447" lon="1.90181">
        <ele>1162.2</ele>
        <time>2024-10-11T11:16:22Z</time>
      </trkpt>
      <trkpt lat="42.72447" lon="1.90183">
        <ele>1162.2</ele>
        <time>2024-10-11T11:16:23Z</time>
      </trkpt>
      <trkpt lat="42.72447" lon="1.90185">
        <ele>1162.2</ele>
        <time>2024-10-11T11:16:24Z</time>
      </trkpt>
      <trkpt lat="42.72447" lon="1.90188">
        <ele>1162.6</ele>
        <time>2024-10-11T11:16:25Z</time>
      </trkpt>
      <trkpt lat="42.72447" lon="1.9019">
        <ele>1162.6</ele>
        <time>2024-10-11T11:16:26Z</time>
      </trkpt>
      <trkpt lat="42.72447" lon="1.90193">
        <ele>1162.6</ele>
        <time>2024-10-11T11:16:27Z</time>
      </trkpt>
      <trkpt lat="42.72447" lon="1.90195">
        <ele>1162.6</ele>
        <time>2024-10-11T11:16:28Z</time>
      </trkpt>
      <trkpt lat="42.72446" lon="1.90198">
        <ele>1162.6</ele>
        <time>2024-10-11T11:16:29Z</time>
      </trkpt>
      <trkpt lat="42.72446" lon="1.902">
        <ele>1163.4</ele>
        <time>2024-10-11T11:16:30Z</time>
      </trkpt>
      <trkpt lat="42.72447" lon="1.90202">
        <ele>1163.4</ele>
        <time>2024-10-11T11:16:31Z</time>
      </trkpt>
      <trkpt lat="42.72447" lon="1.90205">
        <ele>1163.4</ele>
        <time>2024-10-11T11:16:32Z</time>
      </trkpt>
      <trkpt lat="42.72447" lon="1.90207">
        <ele>1163.4</ele>
        <time>2024-10-11T11:16:33Z</time>
      </trkpt>
      <trkpt lat="42.72447" lon="1.90209">
        <ele>1163.4</ele>
        <time>2024-10-11T11:16:34Z</time>
      </trkpt>
      <trkpt lat="42.72447" lon="1.90211">
        <ele>1164</ele>
        <time>2024-10-11T11:16:35Z</time>
      </trkpt>
      <trkpt lat="42.72447" lon="1.90214">
        <ele>1164.2</ele>
        <time>2024-10-11T11:16:36Z</time>
      </trkpt>
      <trkpt lat="42.72447" lon="1.90216">
        <ele>1164.2</ele>
        <time>2024-10-11T11:16:37Z</time>
      </trkpt>
      <trkpt lat="42.72447" lon="1.90218">
        <ele>1164.2</ele>
        <time>2024-10-11T11:16:38Z</time>
      </trkpt>
      <trkpt lat="42.72446" lon="1.90221">
        <ele>1164.2</ele>
        <time>2024-10-11T11:16:39Z</time>
      </trkpt>
      <trkpt lat="42.72446" lon="1.90223">
        <ele>1164.8</ele>
        <time>2024-10-11T11:16:40Z</time>
      </trkpt>
      <trkpt lat="42.72446" lon="1.90225">
        <ele>1164.8</ele>
        <time>2024-10-11T11:16:41Z</time>
      </trkpt>
      <trkpt lat="42.72446" lon="1.90228">
        <ele>1164.8</ele>
        <time>2024-10-11T11:16:42Z</time>
      </trkpt>
      <trkpt lat="42.72445" lon="1.9023">
        <ele>1164.8</ele>
        <time>2024-10-11T11:16:43Z</time>
      </trkpt>
      <trkpt lat="42.72445" lon="1.90232">
        <ele>1165.4</ele>
        <time>2024-10-11T11:16:44Z</time>
      </trkpt>
      <trkpt lat="42.72445" lon="1.90235">
        <ele>1165.8</ele>
        <time>2024-10-11T11:16:45Z</time>
      </trkpt>
      <trkpt lat="42.72445" lon="1.90237">
        <ele>1165.8</ele>
        <time>2024-10-11T11:16:46Z</time>
      </trkpt>
      <trkpt lat="42.72445" lon="1.90239">
        <ele>1165.8</ele>
        <time>2024-10-11T11:16:47Z</time>
      </trkpt>
      <trkpt lat="42.72445" lon="1.90241">
        <ele>1165.8</ele>
        <time>2024-10-11T11:16:48Z</time>
      </trkpt>
      <trkpt lat="42.72445" lon="1.90244">
        <ele>1166.2</ele>
        <time>2024-10-11T11:16:49Z</time>
      </trkpt>
      <trkpt lat="42.72445" lon="1.90246">
        <ele>1166.4</ele>
        <time>2024-10-11T11:16:50Z</time>
      </trkpt>
      <trkpt lat="42.72445" lon="1.90248">
        <ele>1166.4</ele>
        <time>2024-10-11T11:16:51Z</time>
      </trkpt>
      <trkpt lat="42.72445" lon="1.9025">
        <ele>1166.4</ele>
        <time>2024-10-11T11:16:52Z</time>
      </trkpt>
      <trkpt lat="42.72445" lon="1.90253">
        <ele>1167</ele>
        <time>2024-10-11T11:16:53Z</time>
      </trkpt>
      <trkpt lat="42.72445" lon="1.90255">
        <ele>1167.2</ele>
        <time>2024-10-11T11:16:54Z</time>
      </trkpt>
      <trkpt lat="42.72445" lon="1.90257">
        <ele>1167.2</ele>
        <time>2024-10-11T11:16:55Z</time>
      </trkpt>
      <trkpt lat="42.72445" lon="1.9026">
        <ele>1167.2</ele>
        <time>2024-10-11T11:16:56Z</time>
      </trkpt>
      <trkpt lat="42.72445" lon="1.90262">
        <ele>1167.2</ele>
        <time>2024-10-11T11:16:57Z</time>
      </trkpt>
      <trkpt lat="42.72445" lon="1.90264">
        <ele>1167.8</ele>
        <time>2024-10-11T11:16:58Z</time>
      </trkpt>
      <trkpt lat="42.72445" lon="1.90266">
        <ele>1167.8</ele>
        <time>2024-10-11T11:16:59Z</time>
      </trkpt>
      <trkpt lat="42.72445" lon="1.90269">
        <ele>1167.8</ele>
        <time>2024-10-11T11:17:00Z</time>
      </trkpt>
      <trkpt lat="42.72445" lon="1.90271">
        <ele>1167.8</ele>
        <time>2024-10-11T11:17:01Z</time>
      </trkpt>
      <trkpt lat="42.72445" lon="1.90273">
        <ele>1168.4</ele>
        <time>2024-10-11T11:17:02Z</time>
      </trkpt>
      <trkpt lat="42.72444" lon="1.90276">
        <ele>1168.6</ele>
        <time>2024-10-11T11:17:03Z</time>
      </trkpt>
      <trkpt lat="42.72444" lon="1.90278">
        <ele>1168.6</ele>
        <time>2024-10-11T11:17:04Z</time>
      </trkpt>
      <trkpt lat="42.72444" lon="1.9028">
        <ele>1168.6</ele>
        <time>2024-10-11T11:17:05Z</time>
      </trkpt>
      <trkpt lat="42.72443" lon="1.90282">
        <ele>1169.2</ele>
        <time>2024-10-11T11:17:06Z</time>
      </trkpt>
      <trkpt lat="42.72443" lon="1.90284">
        <ele>1169.4</ele>
        <time>2024-10-11T11:17:07Z</time>
      </trkpt>
      <trkpt lat="42.72443" lon="1.90287">
        <ele>1169.4</ele>
        <time>2024-10-11T11:17:08Z</time>
      </trkpt>
      <trkpt lat="42.72443" lon="1.90289">
        <ele>1169.4</ele>
        <time>2024-10-11T11:17:09Z</time>
      </trkpt>
      <trkpt lat="42.72443" lon="1.90291">
        <ele>1169.4</ele>
        <time>2024-10-11T11:17:10Z</time>
      </trkpt>
      <trkpt lat="42.72443" lon="1.90293">
        <ele>1169.4</ele>
        <time>2024-10-11T11:17:11Z</time>
      </trkpt>
      <trkpt lat="42.72442" lon="1.90296">
        <ele>1169.4</ele>
        <time>2024-10-11T11:17:12Z</time>
      </trkpt>
      <trkpt lat="42.72442" lon="1.903">
        <ele>1170</ele>
        <time>2024-10-11T11:17:13Z</time>
      </trkpt>
      <trkpt lat="42.72441" lon="1.90302">
        <ele>1170</ele>
        <time>2024-10-11T11:17:14Z</time>
      </trkpt>
      <trkpt lat="42.72441" lon="1.90303">
        <ele>1170.6</ele>
        <time>2024-10-11T11:17:15Z</time>
      </trkpt>
      <trkpt lat="42.7244" lon="1.90306">
        <ele>1170.6</ele>
        <time>2024-10-11T11:17:16Z</time>
      </trkpt>
      <trkpt lat="42.7244" lon="1.90308">
        <ele>1170.8</ele>
        <time>2024-10-11T11:17:17Z</time>
      </trkpt>
      <trkpt lat="42.7244" lon="1.9031">
        <ele>1170.8</ele>
        <time>2024-10-11T11:17:18Z</time>
      </trkpt>
      <trkpt lat="42.72439" lon="1.90313">
        <ele>1170.8</ele>
        <time>2024-10-11T11:17:19Z</time>
      </trkpt>
      <trkpt lat="42.72438" lon="1.90316">
        <ele>1171.2</ele>
        <time>2024-10-11T11:17:20Z</time>
      </trkpt>
      <trkpt lat="42.72438" lon="1.90317">
        <ele>1171.6</ele>
        <time>2024-10-11T11:17:21Z</time>
      </trkpt>
      <trkpt lat="42.72437" lon="1.9032">
        <ele>1171.6</ele>
        <time>2024-10-11T11:17:22Z</time>
      </trkpt>
      <trkpt lat="42.72436" lon="1.90322">
        <ele>1171.6</ele>
        <time>2024-10-11T11:17:23Z</time>
      </trkpt>
      <trkpt lat="42.72435" lon="1.90325">
        <ele>1171.6</ele>
        <time>2024-10-11T11:17:24Z</time>
      </trkpt>
      <trkpt lat="42.72435" lon="1.90327">
        <ele>1171.6</ele>
        <time>2024-10-11T11:17:25Z</time>
      </trkpt>
      <trkpt lat="42.72435" lon="1.9033">
        <ele>1172</ele>
        <time>2024-10-11T11:17:26Z</time>
      </trkpt>
      <trkpt lat="42.72435" lon="1.90332">
        <ele>1172</ele>
        <time>2024-10-11T11:17:27Z</time>
      </trkpt>
      <trkpt lat="42.72434" lon="1.90334">
        <ele>1172</ele>
        <time>2024-10-11T11:17:28Z</time>
      </trkpt>
      <trkpt lat="42.72434" lon="1.90337">
        <ele>1172.8</ele>
        <time>2024-10-11T11:17:29Z</time>
      </trkpt>
      <trkpt lat="42.72433" lon="1.90339">
        <ele>1172.8</ele>
        <time>2024-10-11T11:17:30Z</time>
      </trkpt>
      <trkpt lat="42.72433" lon="1.90341">
        <ele>1172.6</ele>
        <time>2024-10-11T11:17:31Z</time>
      </trkpt>
      <trkpt lat="42.72432" lon="1.90343">
        <ele>1172.6</ele>
        <time>2024-10-11T11:17:32Z</time>
      </trkpt>
      <trkpt lat="42.72432" lon="1.90346">
        <ele>1172.6</ele>
        <time>2024-10-11T11:17:33Z</time>
      </trkpt>
      <trkpt lat="42.72431" lon="1.90348">
        <ele>1173.4</ele>
        <time>2024-10-11T11:17:34Z</time>
      </trkpt>
      <trkpt lat="42.7243" lon="1.9035">
        <ele>1173.6</ele>
        <time>2024-10-11T11:17:35Z</time>
      </trkpt>
      <trkpt lat="42.7243" lon="1.90353">
        <ele>1173.6</ele>
        <time>2024-10-11T11:17:36Z</time>
      </trkpt>
      <trkpt lat="42.72429" lon="1.90355">
        <ele>1173.6</ele>
        <time>2024-10-11T11:17:37Z</time>
      </trkpt>
      <trkpt lat="42.72428" lon="1.90358">
        <ele>1174</ele>
        <time>2024-10-11T11:17:38Z</time>
      </trkpt>
      <trkpt lat="42.72428" lon="1.9036">
        <ele>1174.2</ele>
        <time>2024-10-11T11:17:39Z</time>
      </trkpt>
      <trkpt lat="42.72427" lon="1.90363">
        <ele>1174.2</ele>
        <time>2024-10-11T11:17:40Z</time>
      </trkpt>
      <trkpt lat="42.72426" lon="1.90364">
        <ele>1174.2</ele>
        <time>2024-10-11T11:17:41Z</time>
      </trkpt>
      <trkpt lat="42.72425" lon="1.90368">
        <ele>1174.2</ele>
        <time>2024-10-11T11:17:42Z</time>
      </trkpt>
      <trkpt lat="42.72425" lon="1.90369">
        <ele>1174.8</ele>
        <time>2024-10-11T11:17:43Z</time>
      </trkpt>
      <trkpt lat="42.72424" lon="1.90372">
        <ele>1174.8</ele>
        <time>2024-10-11T11:17:44Z</time>
      </trkpt>
      <trkpt lat="42.72423" lon="1.90373">
        <ele>1174.8</ele>
        <time>2024-10-11T11:17:45Z</time>
      </trkpt>
      <trkpt lat="42.72422" lon="1.90377">
        <ele>1174.8</ele>
        <time>2024-10-11T11:17:46Z</time>
      </trkpt>
      <trkpt lat="42.72422" lon="1.90378">
        <ele>1175.2</ele>
        <time>2024-10-11T11:17:47Z</time>
      </trkpt>
      <trkpt lat="42.72421" lon="1.90382">
        <ele>1175.4</ele>
        <time>2024-10-11T11:17:48Z</time>
      </trkpt>
      <trkpt lat="42.7242" lon="1.90383">
        <ele>1175.4</ele>
        <time>2024-10-11T11:17:49Z</time>
      </trkpt>
      <trkpt lat="42.72419" lon="1.90387">
        <ele>1175.4</ele>
        <time>2024-10-11T11:17:50Z</time>
      </trkpt>
      <trkpt lat="42.72419" lon="1.90389">
        <ele>1175.4</ele>
        <time>2024-10-11T11:17:51Z</time>
      </trkpt>
      <trkpt lat="42.72419" lon="1.90392">
        <ele>1175.4</ele>
        <time>2024-10-11T11:17:52Z</time>
      </trkpt>
      <trkpt lat="42.72418" lon="1.90395">
        <ele>1176.2</ele>
        <time>2024-10-11T11:17:53Z</time>
      </trkpt>
      <trkpt lat="42.72417" lon="1.90398">
        <ele>1176.2</ele>
        <time>2024-10-11T11:17:54Z</time>
      </trkpt>
      <trkpt lat="42.72417" lon="1.90401">
        <ele>1176.2</ele>
        <time>2024-10-11T11:17:55Z</time>
      </trkpt>
      <trkpt lat="42.72416" lon="1.90406">
        <ele>1176.2</ele>
        <time>2024-10-11T11:17:56Z</time>
      </trkpt>
      <trkpt lat="42.72416" lon="1.90407">
        <ele>1176.6</ele>
        <time>2024-10-11T11:17:57Z</time>
      </trkpt>
      <trkpt lat="42.72415" lon="1.90411">
        <ele>1176.6</ele>
        <time>2024-10-11T11:17:58Z</time>
      </trkpt>
      <trkpt lat="42.72415" lon="1.90414">
        <ele>1176.6</ele>
        <time>2024-10-11T11:17:59Z</time>
      </trkpt>
      <trkpt lat="42.72414" lon="1.90418">
        <ele>1176.6</ele>
        <time>2024-10-11T11:18:00Z</time>
      </trkpt>
      <trkpt lat="42.72414" lon="1.9042">
        <ele>1176.8</ele>
        <time>2024-10-11T11:18:01Z</time>
      </trkpt>
      <trkpt lat="42.72413" lon="1.90425">
        <ele>1177.2</ele>
        <time>2024-10-11T11:18:02Z</time>
      </trkpt>
      <trkpt lat="42.72413" lon="1.90427">
        <ele>1177.2</ele>
        <time>2024-10-11T11:18:03Z</time>
      </trkpt>
      <trkpt lat="42.72412" lon="1.90431">
        <ele>1177.2</ele>
        <time>2024-10-11T11:18:04Z</time>
      </trkpt>
      <trkpt lat="42.72412" lon="1.90433">
        <ele>1177.2</ele>
        <time>2024-10-11T11:18:05Z</time>
      </trkpt>
      <trkpt lat="42.72411" lon="1.90436">
        <ele>1177.8</ele>
        <time>2024-10-11T11:18:06Z</time>
      </trkpt>
      <trkpt lat="42.7241" lon="1.90439">
        <ele>1178</ele>
        <time>2024-10-11T11:18:07Z</time>
      </trkpt>
      <trkpt lat="42.72409" lon="1.90443">
        <ele>1178</ele>
        <time>2024-10-11T11:18:08Z</time>
      </trkpt>
      <trkpt lat="42.72408" lon="1.90445">
        <ele>1178</ele>
        <time>2024-10-11T11:18:09Z</time>
      </trkpt>
      <trkpt lat="42.72408" lon="1.90449">
        <ele>1178</ele>
        <time>2024-10-11T11:18:10Z</time>
      </trkpt>
      <trkpt lat="42.72408" lon="1.9045">
        <ele>1178.2</ele>
        <time>2024-10-11T11:18:11Z</time>
      </trkpt>
      <trkpt lat="42.72407" lon="1.90455">
        <ele>1178.2</ele>
        <time>2024-10-11T11:18:12Z</time>
      </trkpt>
      <trkpt lat="42.72407" lon="1.90456">
        <ele>1178.2</ele>
        <time>2024-10-11T11:18:13Z</time>
      </trkpt>
      <trkpt lat="42.72406" lon="1.90459">
        <ele>1178.2</ele>
        <time>2024-10-11T11:18:14Z</time>
      </trkpt>
      <trkpt lat="42.72406" lon="1.90462">
        <ele>1178.8</ele>
        <time>2024-10-11T11:18:15Z</time>
      </trkpt>
      <trkpt lat="42.72406" lon="1.90465">
        <ele>1178.6</ele>
        <time>2024-10-11T11:18:16Z</time>
      </trkpt>
      <trkpt lat="42.72405" lon="1.90468">
        <ele>1178.6</ele>
        <time>2024-10-11T11:18:17Z</time>
      </trkpt>
      <trkpt lat="42.72404" lon="1.90472">
        <ele>1178.6</ele>
        <time>2024-10-11T11:18:18Z</time>
      </trkpt>
      <trkpt lat="42.72404" lon="1.90474">
        <ele>1179.4</ele>
        <time>2024-10-11T11:18:19Z</time>
      </trkpt>
      <trkpt lat="42.72403" lon="1.90478">
        <ele>1179.6</ele>
        <time>2024-10-11T11:18:20Z</time>
      </trkpt>
      <trkpt lat="42.72403" lon="1.9048">
        <ele>1179.6</ele>
        <time>2024-10-11T11:18:21Z</time>
      </trkpt>
      <trkpt lat="42.72403" lon="1.90484">
        <ele>1179.6</ele>
        <time>2024-10-11T11:18:22Z</time>
      </trkpt>
      <trkpt lat="42.72403" lon="1.90486">
        <ele>1179.6</ele>
        <time>2024-10-11T11:18:23Z</time>
      </trkpt>
      <trkpt lat="42.72402" lon="1.90491">
        <ele>1180</ele>
        <time>2024-10-11T11:18:24Z</time>
      </trkpt>
      <trkpt lat="42.72402" lon="1.90492">
        <ele>1180</ele>
        <time>2024-10-11T11:18:25Z</time>
      </trkpt>
      <trkpt lat="42.72401" lon="1.90497">
        <ele>1180</ele>
        <time>2024-10-11T11:18:26Z</time>
      </trkpt>
      <trkpt lat="42.72401" lon="1.90499">
        <ele>1180</ele>
        <time>2024-10-11T11:18:27Z</time>
      </trkpt>
      <trkpt lat="42.724" lon="1.90504">
        <ele>1180.4</ele>
        <time>2024-10-11T11:18:28Z</time>
      </trkpt>
      <trkpt lat="42.724" lon="1.90505">
        <ele>1180.6</ele>
        <time>2024-10-11T11:18:29Z</time>
      </trkpt>
      <trkpt lat="42.72399" lon="1.9051">
        <ele>1180.6</ele>
        <time>2024-10-11T11:18:30Z</time>
      </trkpt>
      <trkpt lat="42.72399" lon="1.90511">
        <ele>1180.6</ele>
        <time>2024-10-11T11:18:31Z</time>
      </trkpt>
      <trkpt lat="42.72399" lon="1.90516">
        <ele>1181.2</ele>
        <time>2024-10-11T11:18:32Z</time>
      </trkpt>
      <trkpt lat="42.72399" lon="1.90517">
        <ele>1181.4</ele>
        <time>2024-10-11T11:18:33Z</time>
      </trkpt>
      <trkpt lat="42.72399" lon="1.90521">
        <ele>1181.4</ele>
        <time>2024-10-11T11:18:34Z</time>
      </trkpt>
      <trkpt lat="42.72398" lon="1.90524">
        <ele>1181.4</ele>
        <time>2024-10-11T11:18:35Z</time>
      </trkpt>
      <trkpt lat="42.72398" lon="1.90526">
        <ele>1181.4</ele>
        <time>2024-10-11T11:18:36Z</time>
      </trkpt>
      <trkpt lat="42.72398" lon="1.90529">
        <ele>1181.6</ele>
        <time>2024-10-11T11:18:37Z</time>
      </trkpt>
      <trkpt lat="42.72397" lon="1.90534">
        <ele>1181.6</ele>
        <time>2024-10-11T11:18:38Z</time>
      </trkpt>
      <trkpt lat="42.72397" lon="1.90535">
        <ele>1181.6</ele>
        <time>2024-10-11T11:18:39Z</time>
      </trkpt>
      <trkpt lat="42.72396" lon="1.90538">
        <ele>1181.6</ele>
        <time>2024-10-11T11:18:40Z</time>
      </trkpt>
      <trkpt lat="42.72396" lon="1.90541">
        <ele>1182</ele>
        <time>2024-10-11T11:18:41Z</time>
      </trkpt>
      <trkpt lat="42.72396" lon="1.90544">
        <ele>1182</ele>
        <time>2024-10-11T11:18:42Z</time>
      </trkpt>
      <trkpt lat="42.72396" lon="1.90548">
        <ele>1182.2</ele>
        <time>2024-10-11T11:18:43Z</time>
      </trkpt>
      <trkpt lat="42.72395" lon="1.90552">
        <ele>1182.2</ele>
        <time>2024-10-11T11:18:44Z</time>
      </trkpt>
      <trkpt lat="42.72395" lon="1.90554">
        <ele>1182.2</ele>
        <time>2024-10-11T11:18:45Z</time>
      </trkpt>
      <trkpt lat="42.72394" lon="1.90559">
        <ele>1182.2</ele>
        <time>2024-10-11T11:18:46Z</time>
      </trkpt>
      <trkpt lat="42.72394" lon="1.9056">
        <ele>1182.6</ele>
        <time>2024-10-11T11:18:47Z</time>
      </trkpt>
      <trkpt lat="42.72393" lon="1.90566">
        <ele>1182.6</ele>
        <time>2024-10-11T11:18:48Z</time>
      </trkpt>
      <trkpt lat="42.72393" lon="1.90567">
        <ele>1182.6</ele>
        <time>2024-10-11T11:18:49Z</time>
      </trkpt>
      <trkpt lat="42.72392" lon="1.90572">
        <ele>1182.6</ele>
        <time>2024-10-11T11:18:50Z</time>
      </trkpt>
      <trkpt lat="42.72392" lon="1.90574">
        <ele>1182.6</ele>
        <time>2024-10-11T11:18:51Z</time>
      </trkpt>
      <trkpt lat="42.72391" lon="1.9058">
        <ele>1183.2</ele>
        <time>2024-10-11T11:18:52Z</time>
      </trkpt>
      <trkpt lat="42.72391" lon="1.90582">
        <ele>1183.2</ele>
        <time>2024-10-11T11:18:53Z</time>
      </trkpt>
      <trkpt lat="42.7239" lon="1.90587">
        <ele>1183.2</ele>
        <time>2024-10-11T11:18:54Z</time>
      </trkpt>
      <trkpt lat="42.7239" lon="1.90589">
        <ele>1183.8</ele>
        <time>2024-10-11T11:18:55Z</time>
      </trkpt>
      <trkpt lat="42.72389" lon="1.90595">
        <ele>1183.8</ele>
        <time>2024-10-11T11:18:56Z</time>
      </trkpt>
      <trkpt lat="42.72389" lon="1.90597">
        <ele>1184</ele>
        <time>2024-10-11T11:18:57Z</time>
      </trkpt>
      <trkpt lat="42.72388" lon="1.906">
        <ele>1184</ele>
        <time>2024-10-11T11:18:58Z</time>
      </trkpt>
      <trkpt lat="42.72387" lon="1.90603">
        <ele>1184</ele>
        <time>2024-10-11T11:18:59Z</time>
      </trkpt>
      <trkpt lat="42.72386" lon="1.90608">
        <ele>1184</ele>
        <time>2024-10-11T11:19:00Z</time>
      </trkpt>
      <trkpt lat="42.72385" lon="1.9061">
        <ele>1184.4</ele>
        <time>2024-10-11T11:19:01Z</time>
      </trkpt>
      <trkpt lat="42.72384" lon="1.90614">
        <ele>1184.4</ele>
        <time>2024-10-11T11:19:02Z</time>
      </trkpt>
      <trkpt lat="42.72383" lon="1.90616">
        <ele>1184.4</ele>
        <time>2024-10-11T11:19:03Z</time>
      </trkpt>
      <trkpt lat="42.7238" lon="1.9062">
        <ele>1185</ele>
        <time>2024-10-11T11:19:04Z</time>
      </trkpt>
      <trkpt lat="42.7238" lon="1.90621">
        <ele>1185</ele>
        <time>2024-10-11T11:19:05Z</time>
      </trkpt>
      <trkpt lat="42.72378" lon="1.90624">
        <ele>1185</ele>
        <time>2024-10-11T11:19:06Z</time>
      </trkpt>
      <trkpt lat="42.72376" lon="1.90626">
        <ele>1185</ele>
        <time>2024-10-11T11:19:07Z</time>
      </trkpt>
      <trkpt lat="42.72374" lon="1.90629">
        <ele>1185.8</ele>
        <time>2024-10-11T11:19:08Z</time>
      </trkpt>
      <trkpt lat="42.72373" lon="1.9063">
        <ele>1185.8</ele>
        <time>2024-10-11T11:19:09Z</time>
      </trkpt>
      <trkpt lat="42.72371" lon="1.90634">
        <ele>1186.6</ele>
        <time>2024-10-11T11:19:10Z</time>
      </trkpt>
      <trkpt lat="42.7237" lon="1.90635">
        <ele>1186.6</ele>
        <time>2024-10-11T11:19:11Z</time>
      </trkpt>
      <trkpt lat="42.72367" lon="1.90639">
        <ele>1186.6</ele>
        <time>2024-10-11T11:19:12Z</time>
      </trkpt>
      <trkpt lat="42.72367" lon="1.9064">
        <ele>1186.6</ele>
        <time>2024-10-11T11:19:13Z</time>
      </trkpt>
      <trkpt lat="42.72365" lon="1.90644">
        <ele>1186.8</ele>
        <time>2024-10-11T11:19:14Z</time>
      </trkpt>
      <trkpt lat="42.72364" lon="1.90645">
        <ele>1186.8</ele>
        <time>2024-10-11T11:19:15Z</time>
      </trkpt>
      <trkpt lat="42.72362" lon="1.9065">
        <ele>1186.8</ele>
        <time>2024-10-11T11:19:16Z</time>
      </trkpt>
      <trkpt lat="42.72362" lon="1.90651">
        <ele>1187.4</ele>
        <time>2024-10-11T11:19:17Z</time>
      </trkpt>
      <trkpt lat="42.72362" lon="1.90655">
        <ele>1187.4</ele>
        <time>2024-10-11T11:19:18Z</time>
      </trkpt>
      <trkpt lat="42.72361" lon="1.90658">
        <ele>1187.4</ele>
        <time>2024-10-11T11:19:19Z</time>
      </trkpt>
      <trkpt lat="42.72361" lon="1.90661">
        <ele>1187.4</ele>
        <time>2024-10-11T11:19:20Z</time>
      </trkpt>
      <trkpt lat="42.7236" lon="1.90664">
        <ele>1187.4</ele>
        <time>2024-10-11T11:19:21Z</time>
      </trkpt>
      <trkpt lat="42.7236" lon="1.90669">
        <ele>1187.4</ele>
        <time>2024-10-11T11:19:22Z</time>
      </trkpt>
      <trkpt lat="42.7236" lon="1.9067">
        <ele>1188</ele>
        <time>2024-10-11T11:19:23Z</time>
      </trkpt>
      <trkpt lat="42.7236" lon="1.90673">
        <ele>1188</ele>
        <time>2024-10-11T11:19:24Z</time>
      </trkpt>
      <trkpt lat="42.72361" lon="1.90676">
        <ele>1188</ele>
        <time>2024-10-11T11:19:25Z</time>
      </trkpt>
      <trkpt lat="42.72362" lon="1.9068">
        <ele>1188</ele>
        <time>2024-10-11T11:19:26Z</time>
      </trkpt>
      <trkpt lat="42.72362" lon="1.90681">
        <ele>1188.4</ele>
        <time>2024-10-11T11:19:27Z</time>
      </trkpt>
      <trkpt lat="42.72363" lon="1.90683">
        <ele>1188.8</ele>
        <time>2024-10-11T11:19:28Z</time>
      </trkpt>
      <trkpt lat="42.72363" lon="1.90686">
        <ele>1188.8</ele>
        <time>2024-10-11T11:19:29Z</time>
      </trkpt>
      <trkpt lat="42.72364" lon="1.90688">
        <ele>1188.8</ele>
        <time>2024-10-11T11:19:30Z</time>
      </trkpt>
      <trkpt lat="42.72364" lon="1.9069">
        <ele>1188.8</ele>
        <time>2024-10-11T11:19:31Z</time>
      </trkpt>
      <trkpt lat="42.72365" lon="1.90692">
        <ele>1189.4</ele>
        <time>2024-10-11T11:19:32Z</time>
      </trkpt>
      <trkpt lat="42.72365" lon="1.90694">
        <ele>1189.8</ele>
        <time>2024-10-11T11:19:33Z</time>
      </trkpt>
      <trkpt lat="42.72366" lon="1.90695">
        <ele>1189.8</ele>
        <time>2024-10-11T11:19:34Z</time>
      </trkpt>
      <trkpt lat="42.72366" lon="1.90697">
        <ele>1189.8</ele>
        <time>2024-10-11T11:19:35Z</time>
      </trkpt>
      <trkpt lat="42.72366" lon="1.90699">
        <ele>1190.6</ele>
        <time>2024-10-11T11:19:36Z</time>
      </trkpt>
      <trkpt lat="42.72367" lon="1.90701">
        <ele>1191</ele>
        <time>2024-10-11T11:19:37Z</time>
      </trkpt>
      <trkpt lat="42.72367" lon="1.90703">
        <ele>1191</ele>
        <time>2024-10-11T11:19:38Z</time>
      </trkpt>
      <trkpt lat="42.72367" lon="1.90705">
        <ele>1191</ele>
        <time>2024-10-11T11:19:39Z</time>
      </trkpt>
      <trkpt lat="42.72367" lon="1.90707">
        <ele>1191</ele>
        <time>2024-10-11T11:19:40Z</time>
      </trkpt>
      <trkpt lat="42.72367" lon="1.9071">
        <ele>1192.2</ele>
        <time>2024-10-11T11:19:41Z</time>
      </trkpt>
      <trkpt lat="42.72367" lon="1.90712">
        <ele>1192.2</ele>
        <time>2024-10-11T11:19:42Z</time>
      </trkpt>
      <trkpt lat="42.72367" lon="1.90713">
        <ele>1192.2</ele>
        <time>2024-10-11T11:19:43Z</time>
      </trkpt>
      <trkpt lat="42.72368" lon="1.90715">
        <ele>1192.2</ele>
        <time>2024-10-11T11:19:44Z</time>
      </trkpt>
      <trkpt lat="42.72368" lon="1.90718">
        <ele>1193</ele>
        <time>2024-10-11T11:19:45Z</time>
      </trkpt>
      <trkpt lat="42.72368" lon="1.9072">
        <ele>1193</ele>
        <time>2024-10-11T11:19:46Z</time>
      </trkpt>
      <trkpt lat="42.72368" lon="1.90722">
        <ele>1193</ele>
        <time>2024-10-11T11:19:47Z</time>
      </trkpt>
      <trkpt lat="42.72368" lon="1.90724">
        <ele>1193</ele>
        <time>2024-10-11T11:19:48Z</time>
      </trkpt>
      <trkpt lat="42.72368" lon="1.90726">
        <ele>1193</ele>
        <time>2024-10-11T11:19:49Z</time>
      </trkpt>
      <trkpt lat="42.72368" lon="1.90728">
        <ele>1193.6</ele>
        <time>2024-10-11T11:19:50Z</time>
      </trkpt>
      <trkpt lat="42.72368" lon="1.9073">
        <ele>1193.6</ele>
        <time>2024-10-11T11:19:51Z</time>
      </trkpt>
      <trkpt lat="42.72369" lon="1.90732">
        <ele>1193.6</ele>
        <time>2024-10-11T11:19:52Z</time>
      </trkpt>
      <trkpt lat="42.72369" lon="1.90734">
        <ele>1193.6</ele>
        <time>2024-10-11T11:19:53Z</time>
      </trkpt>
      <trkpt lat="42.72369" lon="1.90737">
        <ele>1194.2</ele>
        <time>2024-10-11T11:19:54Z</time>
      </trkpt>
      <trkpt lat="42.72368" lon="1.90739">
        <ele>1194.2</ele>
        <time>2024-10-11T11:19:55Z</time>
      </trkpt>
      <trkpt lat="42.72368" lon="1.90741">
        <ele>1194.2</ele>
        <time>2024-10-11T11:19:56Z</time>
      </trkpt>
      <trkpt lat="42.72368" lon="1.90744">
        <ele>1194.2</ele>
        <time>2024-10-11T11:19:57Z</time>
      </trkpt>
      <trkpt lat="42.72368" lon="1.90746">
        <ele>1194.2</ele>
        <time>2024-10-11T11:19:58Z</time>
      </trkpt>
      <trkpt lat="42.72368" lon="1.90749">
        <ele>1194.6</ele>
        <time>2024-10-11T11:19:59Z</time>
      </trkpt>
      <trkpt lat="42.72368" lon="1.90751">
        <ele>1194.6</ele>
        <time>2024-10-11T11:20:00Z</time>
      </trkpt>
      <trkpt lat="42.72368" lon="1.90753">
        <ele>1194.6</ele>
        <time>2024-10-11T11:20:01Z</time>
      </trkpt>
      <trkpt lat="42.72368" lon="1.90756">
        <ele>1194.8</ele>
        <time>2024-10-11T11:20:02Z</time>
      </trkpt>
      <trkpt lat="42.72368" lon="1.90758">
        <ele>1194.8</ele>
        <time>2024-10-11T11:20:03Z</time>
      </trkpt>
      <trkpt lat="42.72369" lon="1.90761">
        <ele>1194.8</ele>
        <time>2024-10-11T11:20:04Z</time>
      </trkpt>
      <trkpt lat="42.72369" lon="1.90764">
        <ele>1194.8</ele>
        <time>2024-10-11T11:20:05Z</time>
      </trkpt>
      <trkpt lat="42.72369" lon="1.90766">
        <ele>1194.8</ele>
        <time>2024-10-11T11:20:06Z</time>
      </trkpt>
      <trkpt lat="42.72369" lon="1.90768">
        <ele>1195.4</ele>
        <time>2024-10-11T11:20:07Z</time>
      </trkpt>
      <trkpt lat="42.72369" lon="1.90772">
        <ele>1195.4</ele>
        <time>2024-10-11T11:20:08Z</time>
      </trkpt>
      <trkpt lat="42.72369" lon="1.90774">
        <ele>1195.4</ele>
        <time>2024-10-11T11:20:09Z</time>
      </trkpt>
      <trkpt lat="42.72369" lon="1.90778">
        <ele>1195.4</ele>
        <time>2024-10-11T11:20:10Z</time>
      </trkpt>
      <trkpt lat="42.72369" lon="1.90779">
        <ele>1195.4</ele>
        <time>2024-10-11T11:20:11Z</time>
      </trkpt>
      <trkpt lat="42.72369" lon="1.90784">
        <ele>1195.8</ele>
        <time>2024-10-11T11:20:12Z</time>
      </trkpt>
      <trkpt lat="42.72369" lon="1.90785">
        <ele>1196</ele>
        <time>2024-10-11T11:20:13Z</time>
      </trkpt>
      <trkpt lat="42.72369" lon="1.90789">
        <ele>1196</ele>
        <time>2024-10-11T11:20:14Z</time>
      </trkpt>
      <trkpt lat="42.72369" lon="1.9079">
        <ele>1196</ele>
        <time>2024-10-11T11:20:15Z</time>
      </trkpt>
      <trkpt lat="42.72369" lon="1.90795">
        <ele>1196.4</ele>
        <time>2024-10-11T11:20:16Z</time>
      </trkpt>
      <trkpt lat="42.7237" lon="1.90796">
        <ele>1196.6</ele>
        <time>2024-10-11T11:20:17Z</time>
      </trkpt>
      <trkpt lat="42.7237" lon="1.908">
        <ele>1196.6</ele>
        <time>2024-10-11T11:20:18Z</time>
      </trkpt>
      <trkpt lat="42.7237" lon="1.90802">
        <ele>1196.6</ele>
        <time>2024-10-11T11:20:19Z</time>
      </trkpt>
      <trkpt lat="42.72371" lon="1.90806">
        <ele>1196.6</ele>
        <time>2024-10-11T11:20:20Z</time>
      </trkpt>
      <trkpt lat="42.72371" lon="1.90807">
        <ele>1196.8</ele>
        <time>2024-10-11T11:20:21Z</time>
      </trkpt>
      <trkpt lat="42.72371" lon="1.9081">
        <ele>1196.8</ele>
        <time>2024-10-11T11:20:22Z</time>
      </trkpt>
      <trkpt lat="42.72371" lon="1.90813">
        <ele>1197.2</ele>
        <time>2024-10-11T11:20:23Z</time>
      </trkpt>
      <trkpt lat="42.72371" lon="1.90816">
        <ele>1197.2</ele>
        <time>2024-10-11T11:20:24Z</time>
      </trkpt>
      <trkpt lat="42.72372" lon="1.90818">
        <ele>1198</ele>
        <time>2024-10-11T11:20:25Z</time>
      </trkpt>
      <trkpt lat="42.72372" lon="1.90823">
        <ele>1198</ele>
        <time>2024-10-11T11:20:26Z</time>
      </trkpt>
      <trkpt lat="42.72372" lon="1.90824">
        <ele>1198</ele>
        <time>2024-10-11T11:20:27Z</time>
      </trkpt>
      <trkpt lat="42.72373" lon="1.90828">
        <ele>1198</ele>
        <time>2024-10-11T11:20:28Z</time>
      </trkpt>
      <trkpt lat="42.72373" lon="1.90829">
        <ele>1198</ele>
        <time>2024-10-11T11:20:29Z</time>
      </trkpt>
      <trkpt lat="42.72373" lon="1.90834">
        <ele>1198.6</ele>
        <time>2024-10-11T11:20:30Z</time>
      </trkpt>
      <trkpt lat="42.72374" lon="1.90835">
        <ele>1198.6</ele>
        <time>2024-10-11T11:20:31Z</time>
      </trkpt>
      <trkpt lat="42.72374" lon="1.90839">
        <ele>1198.6</ele>
        <time>2024-10-11T11:20:32Z</time>
      </trkpt>
      <trkpt lat="42.72374" lon="1.90841">
        <ele>1198.6</ele>
        <time>2024-10-11T11:20:33Z</time>
      </trkpt>
      <trkpt lat="42.72374" lon="1.90845">
        <ele>1199.4</ele>
        <time>2024-10-11T11:20:34Z</time>
      </trkpt>
      <trkpt lat="42.72374" lon="1.90846">
        <ele>1199.6</ele>
        <time>2024-10-11T11:20:35Z</time>
      </trkpt>
      <trkpt lat="42.72375" lon="1.90849">
        <ele>1199.6</ele>
        <time>2024-10-11T11:20:36Z</time>
      </trkpt>
      <trkpt lat="42.72375" lon="1.90852">
        <ele>1199.6</ele>
        <time>2024-10-11T11:20:37Z</time>
      </trkpt>
      <trkpt lat="42.72376" lon="1.90856">
        <ele>1200.2</ele>
        <time>2024-10-11T11:20:38Z</time>
      </trkpt>
      <trkpt lat="42.72376" lon="1.90857">
        <ele>1200.2</ele>
        <time>2024-10-11T11:20:39Z</time>
      </trkpt>
      <trkpt lat="42.72376" lon="1.90861">
        <ele>1200.8</ele>
        <time>2024-10-11T11:20:40Z</time>
      </trkpt>
      <trkpt lat="42.72376" lon="1.90862">
        <ele>1200.8</ele>
        <time>2024-10-11T11:20:41Z</time>
      </trkpt>
      <trkpt lat="42.72377" lon="1.90866">
        <ele>1200.8</ele>
        <time>2024-10-11T11:20:42Z</time>
      </trkpt>
      <trkpt lat="42.72377" lon="1.90868">
        <ele>1201.8</ele>
        <time>2024-10-11T11:20:43Z</time>
      </trkpt>
      <trkpt lat="42.72377" lon="1.9087">
        <ele>1201.8</ele>
        <time>2024-10-11T11:20:44Z</time>
      </trkpt>
      <trkpt lat="42.72377" lon="1.90873">
        <ele>1201.8</ele>
        <time>2024-10-11T11:20:45Z</time>
      </trkpt>
      <trkpt lat="42.72377" lon="1.90875">
        <ele>1201.8</ele>
        <time>2024-10-11T11:20:46Z</time>
      </trkpt>
      <trkpt lat="42.72377" lon="1.90878">
        <ele>1202.2</ele>
        <time>2024-10-11T11:20:47Z</time>
      </trkpt>
      <trkpt lat="42.72378" lon="1.90882">
        <ele>1202.2</ele>
        <time>2024-10-11T11:20:48Z</time>
      </trkpt>
      <trkpt lat="42.72378" lon="1.90883">
        <ele>1202.4</ele>
        <time>2024-10-11T11:20:49Z</time>
      </trkpt>
      <trkpt lat="42.72378" lon="1.90885">
        <ele>1202.4</ele>
        <time>2024-10-11T11:20:50Z</time>
      </trkpt>
      <trkpt lat="42.72379" lon="1.90888">
        <ele>1202.4</ele>
        <time>2024-10-11T11:20:51Z</time>
      </trkpt>
      <trkpt lat="42.72379" lon="1.9089">
        <ele>1202.4</ele>
        <time>2024-10-11T11:20:52Z</time>
      </trkpt>
      <trkpt lat="42.7238" lon="1.90892">
        <ele>1203</ele>
        <time>2024-10-11T11:20:53Z</time>
      </trkpt>
      <trkpt lat="42.72381" lon="1.90896">
        <ele>1203.2</ele>
        <time>2024-10-11T11:20:54Z</time>
      </trkpt>
      <trkpt lat="42.72381" lon="1.90897">
        <ele>1203.2</ele>
        <time>2024-10-11T11:20:55Z</time>
      </trkpt>
      <trkpt lat="42.72382" lon="1.90901">
        <ele>1203.2</ele>
        <time>2024-10-11T11:20:56Z</time>
      </trkpt>
      <trkpt lat="42.72382" lon="1.90902">
        <ele>1203.2</ele>
        <time>2024-10-11T11:20:57Z</time>
      </trkpt>
      <trkpt lat="42.72383" lon="1.90906">
        <ele>1204</ele>
        <time>2024-10-11T11:20:58Z</time>
      </trkpt>
      <trkpt lat="42.72383" lon="1.90907">
        <ele>1204</ele>
        <time>2024-10-11T11:20:59Z</time>
      </trkpt>
      <trkpt lat="42.72384" lon="1.9091">
        <ele>1204</ele>
        <time>2024-10-11T11:21:00Z</time>
      </trkpt>
      <trkpt lat="42.72384" lon="1.90911">
        <ele>1204.4</ele>
        <time>2024-10-11T11:21:01Z</time>
      </trkpt>
      <trkpt lat="42.72385" lon="1.90915">
        <ele>1204.4</ele>
        <time>2024-10-11T11:21:02Z</time>
      </trkpt>
      <trkpt lat="42.72386" lon="1.90916">
        <ele>1204.8</ele>
        <time>2024-10-11T11:21:03Z</time>
      </trkpt>
      <trkpt lat="42.72387" lon="1.9092">
        <ele>1204.8</ele>
        <time>2024-10-11T11:21:04Z</time>
      </trkpt>
      <trkpt lat="42.72387" lon="1.90921">
        <ele>1204.8</ele>
        <time>2024-10-11T11:21:05Z</time>
      </trkpt>
      <trkpt lat="42.72388" lon="1.90924">
        <ele>1205.6</ele>
        <time>2024-10-11T11:21:06Z</time>
      </trkpt>
      <trkpt lat="42.72388" lon="1.90926">
        <ele>1205.6</ele>
        <time>2024-10-11T11:21:07Z</time>
      </trkpt>
      <trkpt lat="42.72389" lon="1.9093">
        <ele>1205.6</ele>
        <time>2024-10-11T11:21:08Z</time>
      </trkpt>
      <trkpt lat="42.72389" lon="1.90931">
        <ele>1205.6</ele>
        <time>2024-10-11T11:21:09Z</time>
      </trkpt>
      <trkpt lat="42.7239" lon="1.90935">
        <ele>1206.2</ele>
        <time>2024-10-11T11:21:10Z</time>
      </trkpt>
      <trkpt lat="42.72391" lon="1.90936">
        <ele>1206.2</ele>
        <time>2024-10-11T11:21:11Z</time>
      </trkpt>
      <trkpt lat="42.72392" lon="1.9094">
        <ele>1206.2</ele>
        <time>2024-10-11T11:21:12Z</time>
      </trkpt>
      <trkpt lat="42.72392" lon="1.90941">
        <ele>1206.2</ele>
        <time>2024-10-11T11:21:13Z</time>
      </trkpt>
      <trkpt lat="42.72393" lon="1.90945">
        <ele>1206.2</ele>
        <time>2024-10-11T11:21:14Z</time>
      </trkpt>
      <trkpt lat="42.72393" lon="1.90946">
        <ele>1206.2</ele>
        <time>2024-10-11T11:21:15Z</time>
      </trkpt>
      <trkpt lat="42.72394" lon="1.9095">
        <ele>1207.2</ele>
        <time>2024-10-11T11:21:16Z</time>
      </trkpt>
      <trkpt lat="42.72394" lon="1.90952">
        <ele>1207.2</ele>
        <time>2024-10-11T11:21:17Z</time>
      </trkpt>
      <trkpt lat="42.72394" lon="1.90956">
        <ele>1207.2</ele>
        <time>2024-10-11T11:21:18Z</time>
      </trkpt>
      <trkpt lat="42.72395" lon="1.90957">
        <ele>1207.2</ele>
        <time>2024-10-11T11:21:19Z</time>
      </trkpt>
      <trkpt lat="42.72395" lon="1.90961">
        <ele>1208.4</ele>
        <time>2024-10-11T11:21:20Z</time>
      </trkpt>
      <trkpt lat="42.72396" lon="1.90963">
        <ele>1208.4</ele>
        <time>2024-10-11T11:21:21Z</time>
      </trkpt>
      <trkpt lat="42.72396" lon="1.90966">
        <ele>1208.4</ele>
        <time>2024-10-11T11:21:22Z</time>
      </trkpt>
      <trkpt lat="42.72396" lon="1.90968">
        <ele>1208.4</ele>
        <time>2024-10-11T11:21:23Z</time>
      </trkpt>
      <trkpt lat="42.72397" lon="1.9097">
        <ele>1208.4</ele>
        <time>2024-10-11T11:21:24Z</time>
      </trkpt>
      <trkpt lat="42.72398" lon="1.90972">
        <ele>1209.2</ele>
        <time>2024-10-11T11:21:25Z</time>
      </trkpt>
      <trkpt lat="42.72398" lon="1.90974">
        <ele>1209.2</ele>
        <time>2024-10-11T11:21:26Z</time>
      </trkpt>
      <trkpt lat="42.72399" lon="1.90977">
        <ele>1209.2</ele>
        <time>2024-10-11T11:21:27Z</time>
      </trkpt>
      <trkpt lat="42.72399" lon="1.90979">
        <ele>1209.8</ele>
        <time>2024-10-11T11:21:28Z</time>
      </trkpt>
      <trkpt lat="42.724" lon="1.90981">
        <ele>1209.8</ele>
        <time>2024-10-11T11:21:29Z</time>
      </trkpt>
      <trkpt lat="42.724" lon="1.90983">
        <ele>1209.8</ele>
        <time>2024-10-11T11:21:30Z</time>
      </trkpt>
      <trkpt lat="42.72401" lon="1.90985">
        <ele>1209.8</ele>
        <time>2024-10-11T11:21:31Z</time>
      </trkpt>
      <trkpt lat="42.72401" lon="1.90987">
        <ele>1210.2</ele>
        <time>2024-10-11T11:21:32Z</time>
      </trkpt>
      <trkpt lat="42.72402" lon="1.90989">
        <ele>1210.6</ele>
        <time>2024-10-11T11:21:33Z</time>
      </trkpt>
      <trkpt lat="42.72402" lon="1.90991">
        <ele>1210.6</ele>
        <time>2024-10-11T11:21:34Z</time>
      </trkpt>
      <trkpt lat="42.72403" lon="1.90993">
        <ele>1210.6</ele>
        <time>2024-10-11T11:21:35Z</time>
      </trkpt>
      <trkpt lat="42.72404" lon="1.90995">
        <ele>1210.6</ele>
        <time>2024-10-11T11:21:36Z</time>
      </trkpt>
      <trkpt lat="42.72404" lon="1.90997">
        <ele>1210.6</ele>
        <time>2024-10-11T11:21:37Z</time>
      </trkpt>
      <trkpt lat="42.72405" lon="1.90998">
        <ele>1211.2</ele>
        <time>2024-10-11T11:21:38Z</time>
      </trkpt>
      <trkpt lat="42.72406" lon="1.91">
        <ele>1211.6</ele>
        <time>2024-10-11T11:21:39Z</time>
      </trkpt>
      <trkpt lat="42.72407" lon="1.91002">
        <ele>1211.6</ele>
        <time>2024-10-11T11:21:40Z</time>
      </trkpt>
      <trkpt lat="42.72407" lon="1.91003">
        <ele>1211.6</ele>
        <time>2024-10-11T11:21:41Z</time>
      </trkpt>
      <trkpt lat="42.72408" lon="1.91005">
        <ele>1212.2</ele>
        <time>2024-10-11T11:21:42Z</time>
      </trkpt>
      <trkpt lat="42.72408" lon="1.91007">
        <ele>1212.6</ele>
        <time>2024-10-11T11:21:43Z</time>
      </trkpt>
      <trkpt lat="42.72409" lon="1.91008">
        <ele>1212.6</ele>
        <time>2024-10-11T11:21:44Z</time>
      </trkpt>
      <trkpt lat="42.7241" lon="1.9101">
        <ele>1212.6</ele>
        <time>2024-10-11T11:21:45Z</time>
      </trkpt>
      <trkpt lat="42.7241" lon="1.91012">
        <ele>1212.6</ele>
        <time>2024-10-11T11:21:46Z</time>
      </trkpt>
      <trkpt lat="42.72411" lon="1.91014">
        <ele>1213.2</ele>
        <time>2024-10-11T11:21:47Z</time>
      </trkpt>
      <trkpt lat="42.72411" lon="1.91016">
        <ele>1213.2</ele>
        <time>2024-10-11T11:21:48Z</time>
      </trkpt>
      <trkpt lat="42.72412" lon="1.91017">
        <ele>1213.4</ele>
        <time>2024-10-11T11:21:49Z</time>
      </trkpt>
      <trkpt lat="42.72412" lon="1.91019">
        <ele>1213.4</ele>
        <time>2024-10-11T11:21:50Z</time>
      </trkpt>
      <trkpt lat="42.72413" lon="1.9102">
        <ele>1213.4</ele>
        <time>2024-10-11T11:21:51Z</time>
      </trkpt>
      <trkpt lat="42.72414" lon="1.91022">
        <ele>1214.2</ele>
        <time>2024-10-11T11:21:52Z</time>
      </trkpt>
      <trkpt lat="42.72414" lon="1.91023">
        <ele>1214.2</ele>
        <time>2024-10-11T11:21:53Z</time>
      </trkpt>
      <trkpt lat="42.72415" lon="1.91025">
        <ele>1214.2</ele>
        <time>2024-10-11T11:21:54Z</time>
      </trkpt>
      <trkpt lat="42.72416" lon="1.91026">
        <ele>1214.8</ele>
        <time>2024-10-11T11:21:55Z</time>
      </trkpt>
      <trkpt lat="42.72417" lon="1.91028">
        <ele>1215.4</ele>
        <time>2024-10-11T11:21:56Z</time>
      </trkpt>
      <trkpt lat="42.72417" lon="1.9103">
        <ele>1215.4</ele>
        <time>2024-10-11T11:21:57Z</time>
      </trkpt>
      <trkpt lat="42.72418" lon="1.91031">
        <ele>1215.4</ele>
        <time>2024-10-11T11:21:58Z</time>
      </trkpt>
      <trkpt lat="42.72419" lon="1.91033">
        <ele>1215.4</ele>
        <time>2024-10-11T11:21:59Z</time>
      </trkpt>
      <trkpt lat="42.72419" lon="1.91035">
        <ele>1216</ele>
        <time>2024-10-11T11:22:00Z</time>
      </trkpt>
      <trkpt lat="42.7242" lon="1.91036">
        <ele>1216</ele>
        <time>2024-10-11T11:22:01Z</time>
      </trkpt>
      <trkpt lat="42.7242" lon="1.91038">
        <ele>1216.2</ele>
        <time>2024-10-11T11:22:02Z</time>
      </trkpt>
      <trkpt lat="42.72421" lon="1.91039">
        <ele>1216.2</ele>
        <time>2024-10-11T11:22:03Z</time>
      </trkpt>
      <trkpt lat="42.72422" lon="1.9104">
        <ele>1217</ele>
        <time>2024-10-11T11:22:04Z</time>
      </trkpt>
      <trkpt lat="42.72423" lon="1.91042">
        <ele>1217.8</ele>
        <time>2024-10-11T11:22:05Z</time>
      </trkpt>
      <trkpt lat="42.72425" lon="1.91044">
        <ele>1217.8</ele>
        <time>2024-10-11T11:22:06Z</time>
      </trkpt>
      <trkpt lat="42.72426" lon="1.91045">
        <ele>1217.8</ele>
        <time>2024-10-11T11:22:07Z</time>
      </trkpt>
      <trkpt lat="42.72427" lon="1.91046">
        <ele>1217.8</ele>
        <time>2024-10-11T11:22:08Z</time>
      </trkpt>
      <trkpt lat="42.72427" lon="1.91047">
        <ele>1218.2</ele>
        <time>2024-10-11T11:22:09Z</time>
      </trkpt>
      <trkpt lat="42.72428" lon="1.91049">
        <ele>1218.2</ele>
        <time>2024-10-11T11:22:10Z</time>
      </trkpt>
      <trkpt lat="42.72429" lon="1.9105">
        <ele>1218.2</ele>
        <time>2024-10-11T11:22:11Z</time>
      </trkpt>
      <trkpt lat="42.72429" lon="1.91051">
        <ele>1218.2</ele>
        <time>2024-10-11T11:22:12Z</time>
      </trkpt>
      <trkpt lat="42.7243" lon="1.91053">
        <ele>1219</ele>
        <time>2024-10-11T11:22:13Z</time>
      </trkpt>
      <trkpt lat="42.72431" lon="1.91054">
        <ele>1219</ele>
        <time>2024-10-11T11:22:14Z</time>
      </trkpt>
      <trkpt lat="42.72431" lon="1.91055">
        <ele>1219</ele>
        <time>2024-10-11T11:22:15Z</time>
      </trkpt>
      <trkpt lat="42.72431" lon="1.91057">
        <ele>1219</ele>
        <time>2024-10-11T11:22:16Z</time>
      </trkpt>
      <trkpt lat="42.72432" lon="1.91059">
        <ele>1219</ele>
        <time>2024-10-11T11:22:17Z</time>
      </trkpt>
      <trkpt lat="42.72433" lon="1.9106">
        <ele>1219.6</ele>
        <time>2024-10-11T11:22:18Z</time>
      </trkpt>
      <trkpt lat="42.72433" lon="1.91062">
        <ele>1220</ele>
        <time>2024-10-11T11:22:19Z</time>
      </trkpt>
      <trkpt lat="42.72434" lon="1.91064">
        <ele>1220</ele>
        <time>2024-10-11T11:22:20Z</time>
      </trkpt>
      <trkpt lat="42.72435" lon="1.91065">
        <ele>1220</ele>
        <time>2024-10-11T11:22:21Z</time>
      </trkpt>
      <trkpt lat="42.72436" lon="1.91067">
        <ele>1220.6</ele>
        <time>2024-10-11T11:22:22Z</time>
      </trkpt>
      <trkpt lat="42.72436" lon="1.91068">
        <ele>1220.6</ele>
        <time>2024-10-11T11:22:23Z</time>
      </trkpt>
      <trkpt lat="42.72437" lon="1.91069">
        <ele>1221</ele>
        <time>2024-10-11T11:22:24Z</time>
      </trkpt>
      <trkpt lat="42.72437" lon="1.91071">
        <ele>1221</ele>
        <time>2024-10-11T11:22:25Z</time>
      </trkpt>
      <trkpt lat="42.72438" lon="1.91073">
        <ele>1221</ele>
        <time>2024-10-11T11:22:26Z</time>
      </trkpt>
      <trkpt lat="42.72438" lon="1.91074">
        <ele>1221.8</ele>
        <time>2024-10-11T11:22:27Z</time>
      </trkpt>
      <trkpt lat="42.72438" lon="1.91076">
        <ele>1221.8</ele>
        <time>2024-10-11T11:22:28Z</time>
      </trkpt>
      <trkpt lat="42.72439" lon="1.91078">
        <ele>1221.8</ele>
        <time>2024-10-11T11:22:29Z</time>
      </trkpt>
      <trkpt lat="42.7244" lon="1.91079">
        <ele>1221.8</ele>
        <time>2024-10-11T11:22:30Z</time>
      </trkpt>
      <trkpt lat="42.7244" lon="1.91081">
        <ele>1222.4</ele>
        <time>2024-10-11T11:22:31Z</time>
      </trkpt>
      <trkpt lat="42.7244" lon="1.91083">
        <ele>1222.8</ele>
        <time>2024-10-11T11:22:32Z</time>
      </trkpt>
      <trkpt lat="42.72441" lon="1.91085">
        <ele>1222.8</ele>
        <time>2024-10-11T11:22:33Z</time>
      </trkpt>
      <trkpt lat="42.72442" lon="1.91086">
        <ele>1222.8</ele>
        <time>2024-10-11T11:22:34Z</time>
      </trkpt>
      <trkpt lat="42.72443" lon="1.91088">
        <ele>1222.8</ele>
        <time>2024-10-11T11:22:35Z</time>
      </trkpt>
      <trkpt lat="42.72444" lon="1.9109">
        <ele>1223.4</ele>
        <time>2024-10-11T11:22:36Z</time>
      </trkpt>
      <trkpt lat="42.72445" lon="1.91092">
        <ele>1223.2</ele>
        <time>2024-10-11T11:22:37Z</time>
      </trkpt>
      <trkpt lat="42.72445" lon="1.91094">
        <ele>1223.2</ele>
        <time>2024-10-11T11:22:38Z</time>
      </trkpt>
      <trkpt lat="42.72446" lon="1.91096">
        <ele>1223.2</ele>
        <time>2024-10-11T11:22:39Z</time>
      </trkpt>
      <trkpt lat="42.72446" lon="1.91097">
        <ele>1224</ele>
        <time>2024-10-11T11:22:40Z</time>
      </trkpt>
      <trkpt lat="42.72447" lon="1.91099">
        <ele>1224.6</ele>
        <time>2024-10-11T11:22:41Z</time>
      </trkpt>
      <trkpt lat="42.72447" lon="1.91101">
        <ele>1224.6</ele>
        <time>2024-10-11T11:22:42Z</time>
      </trkpt>
      <trkpt lat="42.72448" lon="1.91103">
        <ele>1224.6</ele>
        <time>2024-10-11T11:22:43Z</time>
      </trkpt>
      <trkpt lat="42.72448" lon="1.91104">
        <ele>1224.6</ele>
        <time>2024-10-11T11:22:44Z</time>
      </trkpt>
      <trkpt lat="42.72449" lon="1.91106">
        <ele>1225.4</ele>
        <time>2024-10-11T11:22:45Z</time>
      </trkpt>
      <trkpt lat="42.72449" lon="1.91107">
        <ele>1225.4</ele>
        <time>2024-10-11T11:22:46Z</time>
      </trkpt>
      <trkpt lat="42.7245" lon="1.91109">
        <ele>1225.4</ele>
        <time>2024-10-11T11:22:47Z</time>
      </trkpt>
      <trkpt lat="42.72451" lon="1.91112">
        <ele>1225.4</ele>
        <time>2024-10-11T11:22:48Z</time>
      </trkpt>
      <trkpt lat="42.72452" lon="1.91113">
        <ele>1226</ele>
        <time>2024-10-11T11:22:49Z</time>
      </trkpt>
      <trkpt lat="42.72453" lon="1.91115">
        <ele>1226.2</ele>
        <time>2024-10-11T11:22:50Z</time>
      </trkpt>
      <trkpt lat="42.72453" lon="1.91117">
        <ele>1226.2</ele>
        <time>2024-10-11T11:22:51Z</time>
      </trkpt>
      <trkpt lat="42.72454" lon="1.91119">
        <ele>1226.2</ele>
        <time>2024-10-11T11:22:52Z</time>
      </trkpt>
      <trkpt lat="42.72455" lon="1.91121">
        <ele>1227</ele>
        <time>2024-10-11T11:22:53Z</time>
      </trkpt>
      <trkpt lat="42.72455" lon="1.91122">
        <ele>1227.4</ele>
        <time>2024-10-11T11:22:54Z</time>
      </trkpt>
      <trkpt lat="42.72455" lon="1.91124">
        <ele>1227.4</ele>
        <time>2024-10-11T11:22:55Z</time>
      </trkpt>
      <trkpt lat="42.72456" lon="1.91126">
        <ele>1227.4</ele>
        <time>2024-10-11T11:22:56Z</time>
      </trkpt>
      <trkpt lat="42.72456" lon="1.91128">
        <ele>1227.4</ele>
        <time>2024-10-11T11:22:57Z</time>
      </trkpt>
      <trkpt lat="42.72457" lon="1.9113">
        <ele>1228.2</ele>
        <time>2024-10-11T11:22:58Z</time>
      </trkpt>
      <trkpt lat="42.72458" lon="1.91132">
        <ele>1228.4</ele>
        <time>2024-10-11T11:22:59Z</time>
      </trkpt>
      <trkpt lat="42.72458" lon="1.91134">
        <ele>1228.4</ele>
        <time>2024-10-11T11:23:00Z</time>
      </trkpt>
      <trkpt lat="42.72459" lon="1.91136">
        <ele>1228.4</ele>
        <time>2024-10-11T11:23:01Z</time>
      </trkpt>
      <trkpt lat="42.72459" lon="1.91137">
        <ele>1228.4</ele>
        <time>2024-10-11T11:23:02Z</time>
      </trkpt>
      <trkpt lat="42.7246" lon="1.91139">
        <ele>1229</ele>
        <time>2024-10-11T11:23:03Z</time>
      </trkpt>
      <trkpt lat="42.72461" lon="1.91141">
        <ele>1229.2</ele>
        <time>2024-10-11T11:23:04Z</time>
      </trkpt>
      <trkpt lat="42.72462" lon="1.91142">
        <ele>1229.2</ele>
        <time>2024-10-11T11:23:05Z</time>
      </trkpt>
      <trkpt lat="42.72463" lon="1.91144">
        <ele>1229.2</ele>
        <time>2024-10-11T11:23:06Z</time>
      </trkpt>
      <trkpt lat="42.72464" lon="1.91145">
        <ele>1229.2</ele>
        <time>2024-10-11T11:23:07Z</time>
      </trkpt>
      <trkpt lat="42.72465" lon="1.91147">
        <ele>1229.6</ele>
        <time>2024-10-11T11:23:08Z</time>
      </trkpt>
      <trkpt lat="42.72466" lon="1.91149">
        <ele>1229.6</ele>
        <time>2024-10-11T11:23:09Z</time>
      </trkpt>
      <trkpt lat="42.72467" lon="1.9115">
        <ele>1229.6</ele>
        <time>2024-10-11T11:23:10Z</time>
      </trkpt>
      <trkpt lat="42.72468" lon="1.91151">
        <ele>1229.6</ele>
        <time>2024-10-11T11:23:11Z</time>
      </trkpt>
      <trkpt lat="42.72469" lon="1.91153">
        <ele>1230</ele>
        <time>2024-10-11T11:23:12Z</time>
      </trkpt>
      <trkpt lat="42.7247" lon="1.91154">
        <ele>1230</ele>
        <time>2024-10-11T11:23:13Z</time>
      </trkpt>
      <trkpt lat="42.72471" lon="1.91156">
        <ele>1230</ele>
        <time>2024-10-11T11:23:14Z</time>
      </trkpt>
      <trkpt lat="42.72472" lon="1.91157">
        <ele>1230</ele>
        <time>2024-10-11T11:23:15Z</time>
      </trkpt>
      <trkpt lat="42.72473" lon="1.91159">
        <ele>1230.8</ele>
        <time>2024-10-11T11:23:16Z</time>
      </trkpt>
      <trkpt lat="42.72473" lon="1.91159">
        <ele>1231</ele>
        <time>2024-10-11T11:23:17Z</time>
      </trkpt>
      <trkpt lat="42.72475" lon="1.9116">
        <ele>1231</ele>
        <time>2024-10-11T11:23:18Z</time>
      </trkpt>
      <trkpt lat="42.72476" lon="1.91161">
        <ele>1231</ele>
        <time>2024-10-11T11:23:19Z</time>
      </trkpt>
      <trkpt lat="42.72477" lon="1.91163">
        <ele>1231.4</ele>
        <time>2024-10-11T11:23:20Z</time>
      </trkpt>
      <trkpt lat="42.72478" lon="1.91164">
        <ele>1231.6</ele>
        <time>2024-10-11T11:23:21Z</time>
      </trkpt>
      <trkpt lat="42.7248" lon="1.91165">
        <ele>1231.6</ele>
        <time>2024-10-11T11:23:22Z</time>
      </trkpt>
      <trkpt lat="42.72481" lon="1.91167">
        <ele>1231.6</ele>
        <time>2024-10-11T11:23:23Z</time>
      </trkpt>
      <trkpt lat="42.72482" lon="1.91168">
        <ele>1232.4</ele>
        <time>2024-10-11T11:23:24Z</time>
      </trkpt>
      <trkpt lat="42.72483" lon="1.9117">
        <ele>1232.4</ele>
        <time>2024-10-11T11:23:25Z</time>
      </trkpt>
      <trkpt lat="42.72484" lon="1.91171">
        <ele>1232.2</ele>
        <time>2024-10-11T11:23:26Z</time>
      </trkpt>
      <trkpt lat="42.72485" lon="1.91173">
        <ele>1232.2</ele>
        <time>2024-10-11T11:23:27Z</time>
      </trkpt>
      <trkpt lat="42.72485" lon="1.91175">
        <ele>1232.2</ele>
        <time>2024-10-11T11:23:28Z</time>
      </trkpt>
      <trkpt lat="42.72486" lon="1.91177">
        <ele>1233</ele>
        <time>2024-10-11T11:23:29Z</time>
      </trkpt>
      <trkpt lat="42.72487" lon="1.91179">
        <ele>1233</ele>
        <time>2024-10-11T11:23:30Z</time>
      </trkpt>
      <trkpt lat="42.72487" lon="1.91181">
        <ele>1233</ele>
        <time>2024-10-11T11:23:31Z</time>
      </trkpt>
      <trkpt lat="42.72488" lon="1.91183">
        <ele>1233</ele>
        <time>2024-10-11T11:23:32Z</time>
      </trkpt>
      <trkpt lat="42.72489" lon="1.91185">
        <ele>1233.6</ele>
        <time>2024-10-11T11:23:33Z</time>
      </trkpt>
      <trkpt lat="42.7249" lon="1.91187">
        <ele>1234</ele>
        <time>2024-10-11T11:23:34Z</time>
      </trkpt>
      <trkpt lat="42.72491" lon="1.91189">
        <ele>1234</ele>
        <time>2024-10-11T11:23:35Z</time>
      </trkpt>
      <trkpt lat="42.72492" lon="1.9119">
        <ele>1234</ele>
        <time>2024-10-11T11:23:36Z</time>
      </trkpt>
      <trkpt lat="42.72493" lon="1.91192">
        <ele>1234</ele>
        <time>2024-10-11T11:23:37Z</time>
      </trkpt>
      <trkpt lat="42.72494" lon="1.91193">
        <ele>1234</ele>
        <time>2024-10-11T11:23:38Z</time>
      </trkpt>
      <trkpt lat="42.72495" lon="1.91195">
        <ele>1234.6</ele>
        <time>2024-10-11T11:23:39Z</time>
      </trkpt>
      <trkpt lat="42.72497" lon="1.91196">
        <ele>1234.6</ele>
        <time>2024-10-11T11:23:40Z</time>
      </trkpt>
      <trkpt lat="42.72498" lon="1.91198">
        <ele>1234.6</ele>
        <time>2024-10-11T11:23:41Z</time>
      </trkpt>
      <trkpt lat="42.72499" lon="1.91199">
        <ele>1235</ele>
        <time>2024-10-11T11:23:42Z</time>
      </trkpt>
      <trkpt lat="42.72501" lon="1.912">
        <ele>1235.2</ele>
        <time>2024-10-11T11:23:43Z</time>
      </trkpt>
      <trkpt lat="42.72502" lon="1.91202">
        <ele>1235.2</ele>
        <time>2024-10-11T11:23:44Z</time>
      </trkpt>
      <trkpt lat="42.72503" lon="1.91203">
        <ele>1235.2</ele>
        <time>2024-10-11T11:23:45Z</time>
      </trkpt>
      <trkpt lat="42.72504" lon="1.91205">
        <ele>1235.2</ele>
        <time>2024-10-11T11:23:46Z</time>
      </trkpt>
      <trkpt lat="42.72505" lon="1.91206">
        <ele>1235.8</ele>
        <time>2024-10-11T11:23:47Z</time>
      </trkpt>
      <trkpt lat="42.72506" lon="1.91207">
        <ele>1235.8</ele>
        <time>2024-10-11T11:23:48Z</time>
      </trkpt>
      <trkpt lat="42.72507" lon="1.91207">
        <ele>1235.8</ele>
        <time>2024-10-11T11:23:49Z</time>
      </trkpt>
      <trkpt lat="42.72508" lon="1.91209">
        <ele>1235.8</ele>
        <time>2024-10-11T11:23:50Z</time>
      </trkpt>
      <trkpt lat="42.72509" lon="1.9121">
        <ele>1235.8</ele>
        <time>2024-10-11T11:23:51Z</time>
      </trkpt>
      <trkpt lat="42.7251" lon="1.91211">
        <ele>1236.6</ele>
        <time>2024-10-11T11:23:52Z</time>
      </trkpt>
      <trkpt lat="42.72511" lon="1.91212">
        <ele>1236.6</ele>
        <time>2024-10-11T11:23:53Z</time>
      </trkpt>
      <trkpt lat="42.72512" lon="1.91213">
        <ele>1236.6</ele>
        <time>2024-10-11T11:23:54Z</time>
      </trkpt>
      <trkpt lat="42.72514" lon="1.91215">
        <ele>1236.6</ele>
        <time>2024-10-11T11:23:55Z</time>
      </trkpt>
      <trkpt lat="42.72515" lon="1.91216">
        <ele>1236.6</ele>
        <time>2024-10-11T11:23:56Z</time>
      </trkpt>
      <trkpt lat="42.72516" lon="1.91217">
        <ele>1237.6</ele>
        <time>2024-10-11T11:23:57Z</time>
      </trkpt>
      <trkpt lat="42.72517" lon="1.91219">
        <ele>1237.6</ele>
        <time>2024-10-11T11:23:58Z</time>
      </trkpt>
      <trkpt lat="42.72518" lon="1.91221">
        <ele>1237.6</ele>
        <time>2024-10-11T11:23:59Z</time>
      </trkpt>
      <trkpt lat="42.72519" lon="1.91222">
        <ele>1237.6</ele>
        <time>2024-10-11T11:24:00Z</time>
      </trkpt>
      <trkpt lat="42.72521" lon="1.91224">
        <ele>1238.2</ele>
        <time>2024-10-11T11:24:01Z</time>
      </trkpt>
      <trkpt lat="42.72522" lon="1.91225">
        <ele>1238.4</ele>
        <time>2024-10-11T11:24:02Z</time>
      </trkpt>
      <trkpt lat="42.72523" lon="1.91227">
        <ele>1238.4</ele>
        <time>2024-10-11T11:24:03Z</time>
      </trkpt>
      <trkpt lat="42.72524" lon="1.91228">
        <ele>1238.4</ele>
        <time>2024-10-11T11:24:04Z</time>
      </trkpt>
      <trkpt lat="42.72526" lon="1.9123">
        <ele>1238.8</ele>
        <time>2024-10-11T11:24:05Z</time>
      </trkpt>
      <trkpt lat="42.72527" lon="1.91232">
        <ele>1238.8</ele>
        <time>2024-10-11T11:24:06Z</time>
      </trkpt>
      <trkpt lat="42.72528" lon="1.91233">
        <ele>1238.8</ele>
        <time>2024-10-11T11:24:07Z</time>
      </trkpt>
      <trkpt lat="42.72528" lon="1.91235">
        <ele>1238.8</ele>
        <time>2024-10-11T11:24:08Z</time>
      </trkpt>
      <trkpt lat="42.7253" lon="1.91237">
        <ele>1238.8</ele>
        <time>2024-10-11T11:24:09Z</time>
      </trkpt>
      <trkpt lat="42.72531" lon="1.91239">
        <ele>1239.4</ele>
        <time>2024-10-11T11:24:10Z</time>
      </trkpt>
      <trkpt lat="42.72532" lon="1.9124">
        <ele>1239.4</ele>
        <time>2024-10-11T11:24:11Z</time>
      </trkpt>
      <trkpt lat="42.72533" lon="1.91243">
        <ele>1239.8</ele>
        <time>2024-10-11T11:24:12Z</time>
      </trkpt>
      <trkpt lat="42.72534" lon="1.91244">
        <ele>1239.8</ele>
        <time>2024-10-11T11:24:13Z</time>
      </trkpt>
      <trkpt lat="42.72535" lon="1.91245">
        <ele>1240.2</ele>
        <time>2024-10-11T11:24:14Z</time>
      </trkpt>
      <trkpt lat="42.72536" lon="1.91247">
        <ele>1240.6</ele>
        <time>2024-10-11T11:24:15Z</time>
      </trkpt>
      <trkpt lat="42.72538" lon="1.91249">
        <ele>1240.6</ele>
        <time>2024-10-11T11:24:16Z</time>
      </trkpt>
      <trkpt lat="42.72538" lon="1.9125">
        <ele>1240.6</ele>
        <time>2024-10-11T11:24:17Z</time>
      </trkpt>
      <trkpt lat="42.72539" lon="1.91251">
        <ele>1240.6</ele>
        <time>2024-10-11T11:24:18Z</time>
      </trkpt>
      <trkpt lat="42.7254" lon="1.91253">
        <ele>1241.2</ele>
        <time>2024-10-11T11:24:19Z</time>
      </trkpt>
      <trkpt lat="42.72541" lon="1.91255">
        <ele>1241.2</ele>
        <time>2024-10-11T11:24:20Z</time>
      </trkpt>
      <trkpt lat="42.72542" lon="1.91256">
        <ele>1241.2</ele>
        <time>2024-10-11T11:24:21Z</time>
      </trkpt>
      <trkpt lat="42.72543" lon="1.91258">
        <ele>1241.2</ele>
        <time>2024-10-11T11:24:22Z</time>
      </trkpt>
      <trkpt lat="42.72544" lon="1.9126">
        <ele>1241.2</ele>
        <time>2024-10-11T11:24:23Z</time>
      </trkpt>
      <trkpt lat="42.72545" lon="1.91261">
        <ele>1242</ele>
        <time>2024-10-11T11:24:24Z</time>
      </trkpt>
      <trkpt lat="42.72547" lon="1.91263">
        <ele>1242</ele>
        <time>2024-10-11T11:24:25Z</time>
      </trkpt>
      <trkpt lat="42.72548" lon="1.91264">
        <ele>1242</ele>
        <time>2024-10-11T11:24:26Z</time>
      </trkpt>
      <trkpt lat="42.7255" lon="1.91265">
        <ele>1242</ele>
        <time>2024-10-11T11:24:27Z</time>
      </trkpt>
      <trkpt lat="42.72551" lon="1.91266">
        <ele>1243</ele>
        <time>2024-10-11T11:24:28Z</time>
      </trkpt>
      <trkpt lat="42.72552" lon="1.91266">
        <ele>1243.2</ele>
        <time>2024-10-11T11:24:29Z</time>
      </trkpt>
      <trkpt lat="42.72554" lon="1.91267">
        <ele>1243.2</ele>
        <time>2024-10-11T11:24:30Z</time>
      </trkpt>
      <trkpt lat="42.72555" lon="1.91268">
        <ele>1243.2</ele>
        <time>2024-10-11T11:24:31Z</time>
      </trkpt>
      <trkpt lat="42.72556" lon="1.91269">
        <ele>1243.2</ele>
        <time>2024-10-11T11:24:32Z</time>
      </trkpt>
      <trkpt lat="42.72558" lon="1.91269">
        <ele>1243.6</ele>
        <time>2024-10-11T11:24:33Z</time>
      </trkpt>
      <trkpt lat="42.72559" lon="1.9127">
        <ele>1243.8</ele>
        <time>2024-10-11T11:24:34Z</time>
      </trkpt>
      <trkpt lat="42.7256" lon="1.9127">
        <ele>1243.8</ele>
        <time>2024-10-11T11:24:35Z</time>
      </trkpt>
      <trkpt lat="42.72561" lon="1.9127">
        <ele>1243.8</ele>
        <time>2024-10-11T11:24:36Z</time>
      </trkpt>
      <trkpt lat="42.72562" lon="1.91271">
        <ele>1244.4</ele>
        <time>2024-10-11T11:24:37Z</time>
      </trkpt>
      <trkpt lat="42.72564" lon="1.91272">
        <ele>1244.4</ele>
        <time>2024-10-11T11:24:38Z</time>
      </trkpt>
      <trkpt lat="42.72565" lon="1.91272">
        <ele>1244.8</ele>
        <time>2024-10-11T11:24:39Z</time>
      </trkpt>
      <trkpt lat="42.72566" lon="1.91273">
        <ele>1244.8</ele>
        <time>2024-10-11T11:24:40Z</time>
      </trkpt>
      <trkpt lat="42.72568" lon="1.91274">
        <ele>1244.8</ele>
        <time>2024-10-11T11:24:41Z</time>
      </trkpt>
      <trkpt lat="42.72569" lon="1.91275">
        <ele>1245.2</ele>
        <time>2024-10-11T11:24:42Z</time>
      </trkpt>
      <trkpt lat="42.72571" lon="1.91275">
        <ele>1245.2</ele>
        <time>2024-10-11T11:24:43Z</time>
      </trkpt>
      <trkpt lat="42.72572" lon="1.91276">
        <ele>1245.2</ele>
        <time>2024-10-11T11:24:44Z</time>
      </trkpt>
      <trkpt lat="42.72574" lon="1.91277">
        <ele>1245.2</ele>
        <time>2024-10-11T11:24:45Z</time>
      </trkpt>
      <trkpt lat="42.72575" lon="1.91278">
        <ele>1245.6</ele>
        <time>2024-10-11T11:24:46Z</time>
      </trkpt>
      <trkpt lat="42.72575" lon="1.9128">
        <ele>1246.2</ele>
        <time>2024-10-11T11:24:47Z</time>
      </trkpt>
      <trkpt lat="42.72577" lon="1.91281">
        <ele>1246.2</ele>
        <time>2024-10-11T11:24:48Z</time>
      </trkpt>
      <trkpt lat="42.72578" lon="1.91282">
        <ele>1246.2</ele>
        <time>2024-10-11T11:24:49Z</time>
      </trkpt>
      <trkpt lat="42.72579" lon="1.91284">
        <ele>1246.2</ele>
        <time>2024-10-11T11:24:50Z</time>
      </trkpt>
      <trkpt lat="42.72581" lon="1.91285">
        <ele>1246.6</ele>
        <time>2024-10-11T11:24:51Z</time>
      </trkpt>
      <trkpt lat="42.72583" lon="1.91287">
        <ele>1246.6</ele>
        <time>2024-10-11T11:24:52Z</time>
      </trkpt>
      <trkpt lat="42.72584" lon="1.91288">
        <ele>1246.6</ele>
        <time>2024-10-11T11:24:53Z</time>
      </trkpt>
      <trkpt lat="42.72587" lon="1.9129">
        <ele>1247.2</ele>
        <time>2024-10-11T11:24:54Z</time>
      </trkpt>
      <trkpt lat="42.72588" lon="1.91291">
        <ele>1247.2</ele>
        <time>2024-10-11T11:24:55Z</time>
      </trkpt>
      <trkpt lat="42.7259" lon="1.91292">
        <ele>1247.2</ele>
        <time>2024-10-11T11:24:56Z</time>
      </trkpt>
      <trkpt lat="42.72591" lon="1.91292">
        <ele>1247.2</ele>
        <time>2024-10-11T11:24:57Z</time>
      </trkpt>
      <trkpt lat="42.72593" lon="1.91293">
        <ele>1247.6</ele>
        <time>2024-10-11T11:24:58Z</time>
      </trkpt>
      <trkpt lat="42.72594" lon="1.91294">
        <ele>1247.6</ele>
        <time>2024-10-11T11:24:59Z</time>
      </trkpt>
      <trkpt lat="42.72596" lon="1.91295">
        <ele>1248</ele>
        <time>2024-10-11T11:25:00Z</time>
      </trkpt>
      <trkpt lat="42.72598" lon="1.91295">
        <ele>1248</ele>
        <time>2024-10-11T11:25:01Z</time>
      </trkpt>
      <trkpt lat="42.72599" lon="1.91297">
        <ele>1248</ele>
        <time>2024-10-11T11:25:02Z</time>
      </trkpt>
      <trkpt lat="42.726" lon="1.91297">
        <ele>1248.4</ele>
        <time>2024-10-11T11:25:03Z</time>
      </trkpt>
      <trkpt lat="42.72602" lon="1.91298">
        <ele>1248.4</ele>
        <time>2024-10-11T11:25:04Z</time>
      </trkpt>
      <trkpt lat="42.72603" lon="1.91298">
        <ele>1248.4</ele>
        <time>2024-10-11T11:25:05Z</time>
      </trkpt>
      <trkpt lat="42.72605" lon="1.91299">
        <ele>1248.4</ele>
        <time>2024-10-11T11:25:06Z</time>
      </trkpt>
      <trkpt lat="42.72607" lon="1.913">
        <ele>1249</ele>
        <time>2024-10-11T11:25:07Z</time>
      </trkpt>
      <trkpt lat="42.72608" lon="1.91301">
        <ele>1249</ele>
        <time>2024-10-11T11:25:08Z</time>
      </trkpt>
      <trkpt lat="42.72611" lon="1.91302">
        <ele>1249.2</ele>
        <time>2024-10-11T11:25:09Z</time>
      </trkpt>
      <trkpt lat="42.72612" lon="1.91303">
        <ele>1249.2</ele>
        <time>2024-10-11T11:25:10Z</time>
      </trkpt>
      <trkpt lat="42.72614" lon="1.91305">
        <ele>1249.2</ele>
        <time>2024-10-11T11:25:11Z</time>
      </trkpt>
      <trkpt lat="42.72615" lon="1.91306">
        <ele>1249.2</ele>
        <time>2024-10-11T11:25:12Z</time>
      </trkpt>
      <trkpt lat="42.72617" lon="1.91308">
        <ele>1249.2</ele>
        <time>2024-10-11T11:25:13Z</time>
      </trkpt>
      <trkpt lat="42.72618" lon="1.91309">
        <ele>1250</ele>
        <time>2024-10-11T11:25:14Z</time>
      </trkpt>
      <trkpt lat="42.7262" lon="1.91311">
        <ele>1250</ele>
        <time>2024-10-11T11:25:15Z</time>
      </trkpt>
      <trkpt lat="42.72621" lon="1.91312">
        <ele>1250</ele>
        <time>2024-10-11T11:25:16Z</time>
      </trkpt>
      <trkpt lat="42.72623" lon="1.91314">
        <ele>1250.4</ele>
        <time>2024-10-11T11:25:17Z</time>
      </trkpt>
      <trkpt lat="42.72624" lon="1.91315">
        <ele>1250.8</ele>
        <time>2024-10-11T11:25:18Z</time>
      </trkpt>
      <trkpt lat="42.72626" lon="1.91318">
        <ele>1250.8</ele>
        <time>2024-10-11T11:25:19Z</time>
      </trkpt>
      <trkpt lat="42.72626" lon="1.91319">
        <ele>1250.8</ele>
        <time>2024-10-11T11:25:20Z</time>
      </trkpt>
      <trkpt lat="42.72628" lon="1.9132">
        <ele>1250.8</ele>
        <time>2024-10-11T11:25:21Z</time>
      </trkpt>
      <trkpt lat="42.72629" lon="1.91322">
        <ele>1250.8</ele>
        <time>2024-10-11T11:25:22Z</time>
      </trkpt>
      <trkpt lat="42.72631" lon="1.91323">
        <ele>1251.4</ele>
        <time>2024-10-11T11:25:23Z</time>
      </trkpt>
      <trkpt lat="42.72633" lon="1.91325">
        <ele>1251.4</ele>
        <time>2024-10-11T11:25:24Z</time>
      </trkpt>
      <trkpt lat="42.72635" lon="1.91327">
        <ele>1251.4</ele>
        <time>2024-10-11T11:25:25Z</time>
      </trkpt>
      <trkpt lat="42.72636" lon="1.91328">
        <ele>1251.6</ele>
        <time>2024-10-11T11:25:26Z</time>
      </trkpt>
      <trkpt lat="42.72637" lon="1.9133">
        <ele>1251.6</ele>
        <time>2024-10-11T11:25:27Z</time>
      </trkpt>
      <trkpt lat="42.72639" lon="1.91331">
        <ele>1251.6</ele>
        <time>2024-10-11T11:25:28Z</time>
      </trkpt>
      <trkpt lat="42.72639" lon="1.91332">
        <ele>1251.6</ele>
        <time>2024-10-11T11:25:29Z</time>
      </trkpt>
      <trkpt lat="42.72639" lon="1.91332">
        <ele>1252</ele>
        <time>2024-10-11T11:25:30Z</time>
      </trkpt>
      <trkpt lat="42.72639" lon="1.91332">
        <ele>1252</ele>
        <time>2024-10-11T11:25:31Z</time>
      </trkpt>
      <trkpt lat="42.72646" lon="1.9134">
        <ele>1252</ele>
        <time>2024-10-11T11:25:51Z</time>
      </trkpt>
      <trkpt lat="42.72647" lon="1.91341">
        <ele>1252</ele>
        <time>2024-10-11T11:25:52Z</time>
      </trkpt>
      <trkpt lat="42.72649" lon="1.91342">
        <ele>1252</ele>
        <time>2024-10-11T11:25:53Z</time>
      </trkpt>
      <trkpt lat="42.7265" lon="1.91343">
        <ele>1252</ele>
        <time>2024-10-11T11:25:54Z</time>
      </trkpt>
      <trkpt lat="42.72652" lon="1.91345">
        <ele>1252.6</ele>
        <time>2024-10-11T11:25:55Z</time>
      </trkpt>
      <trkpt lat="42.72653" lon="1.91346">
        <ele>1252.6</ele>
        <time>2024-10-11T11:25:56Z</time>
      </trkpt>
      <trkpt lat="42.72655" lon="1.91349">
        <ele>1252.6</ele>
        <time>2024-10-11T11:25:57Z</time>
      </trkpt>
      <trkpt lat="42.72656" lon="1.9135">
        <ele>1252.6</ele>
        <time>2024-10-11T11:25:58Z</time>
      </trkpt>
      <trkpt lat="42.72658" lon="1.91352">
        <ele>1253.2</ele>
        <time>2024-10-11T11:25:59Z</time>
      </trkpt>
      <trkpt lat="42.72659" lon="1.91353">
        <ele>1253.2</ele>
        <time>2024-10-11T11:26:00Z</time>
      </trkpt>
      <trkpt lat="42.72661" lon="1.91356">
        <ele>1253.2</ele>
        <time>2024-10-11T11:26:01Z</time>
      </trkpt>
      <trkpt lat="42.72661" lon="1.91357">
        <ele>1253.2</ele>
        <time>2024-10-11T11:26:02Z</time>
      </trkpt>
      <trkpt lat="42.72663" lon="1.91361">
        <ele>1253.6</ele>
        <time>2024-10-11T11:26:03Z</time>
      </trkpt>
      <trkpt lat="42.72664" lon="1.91362">
        <ele>1253.6</ele>
        <time>2024-10-11T11:26:04Z</time>
      </trkpt>
      <trkpt lat="42.72665" lon="1.91365">
        <ele>1253.6</ele>
        <time>2024-10-11T11:26:05Z</time>
      </trkpt>
      <trkpt lat="42.72667" lon="1.91367">
        <ele>1253.6</ele>
        <time>2024-10-11T11:26:06Z</time>
      </trkpt>
      <trkpt lat="42.72668" lon="1.9137">
        <ele>1253.8</ele>
        <time>2024-10-11T11:26:07Z</time>
      </trkpt>
      <trkpt lat="42.7267" lon="1.91373">
        <ele>1254.2</ele>
        <time>2024-10-11T11:26:08Z</time>
      </trkpt>
      <trkpt lat="42.72672" lon="1.91377">
        <ele>1254.2</ele>
        <time>2024-10-11T11:26:09Z</time>
      </trkpt>
      <trkpt lat="42.72672" lon="1.91378">
        <ele>1254.2</ele>
        <time>2024-10-11T11:26:10Z</time>
      </trkpt>
      <trkpt lat="42.72674" lon="1.91381">
        <ele>1254.8</ele>
        <time>2024-10-11T11:26:11Z</time>
      </trkpt>
      <trkpt lat="42.72675" lon="1.91384">
        <ele>1254.8</ele>
        <time>2024-10-11T11:26:12Z</time>
      </trkpt>
      <trkpt lat="42.72677" lon="1.91389">
        <ele>1254.8</ele>
        <time>2024-10-11T11:26:13Z</time>
      </trkpt>
      <trkpt lat="42.72678" lon="1.9139">
        <ele>1254.8</ele>
        <time>2024-10-11T11:26:14Z</time>
      </trkpt>
      <trkpt lat="42.72679" lon="1.91395">
        <ele>1255.4</ele>
        <time>2024-10-11T11:26:15Z</time>
      </trkpt>
      <trkpt lat="42.7268" lon="1.91397">
        <ele>1255.4</ele>
        <time>2024-10-11T11:26:16Z</time>
      </trkpt>
      <trkpt lat="42.72681" lon="1.91403">
        <ele>1255.2</ele>
        <time>2024-10-11T11:26:17Z</time>
      </trkpt>
      <trkpt lat="42.72682" lon="1.91405">
        <ele>1255.2</ele>
        <time>2024-10-11T11:26:18Z</time>
      </trkpt>
      <trkpt lat="42.72684" lon="1.9141">
        <ele>1255.2</ele>
        <time>2024-10-11T11:26:19Z</time>
      </trkpt>
      <trkpt lat="42.72684" lon="1.91412">
        <ele>1255.2</ele>
        <time>2024-10-11T11:26:20Z</time>
      </trkpt>
      <trkpt lat="42.72686" lon="1.91418">
        <ele>1255.4</ele>
        <time>2024-10-11T11:26:21Z</time>
      </trkpt>
      <trkpt lat="42.72687" lon="1.9142">
        <ele>1255.4</ele>
        <time>2024-10-11T11:26:22Z</time>
      </trkpt>
      <trkpt lat="42.72689" lon="1.91426">
        <ele>1255.4</ele>
        <time>2024-10-11T11:26:23Z</time>
      </trkpt>
      <trkpt lat="42.7269" lon="1.91428">
        <ele>1255.4</ele>
        <time>2024-10-11T11:26:24Z</time>
      </trkpt>
      <trkpt lat="42.72692" lon="1.91434">
        <ele>1255.8</ele>
        <time>2024-10-11T11:26:25Z</time>
      </trkpt>
      <trkpt lat="42.72693" lon="1.91436">
        <ele>1255.8</ele>
        <time>2024-10-11T11:26:26Z</time>
      </trkpt>
      <trkpt lat="42.72694" lon="1.9144">
        <ele>1255.8</ele>
        <time>2024-10-11T11:26:27Z</time>
      </trkpt>
      <trkpt lat="42.72696" lon="1.91444">
        <ele>1255.8</ele>
        <time>2024-10-11T11:26:28Z</time>
      </trkpt>
      <trkpt lat="42.72698" lon="1.91448">
        <ele>1256.2</ele>
        <time>2024-10-11T11:26:29Z</time>
      </trkpt>
      <trkpt lat="42.727" lon="1.91452">
        <ele>1256.2</ele>
        <time>2024-10-11T11:26:30Z</time>
      </trkpt>
      <trkpt lat="42.72703" lon="1.91459">
        <ele>1256.2</ele>
        <time>2024-10-11T11:26:31Z</time>
      </trkpt>
      <trkpt lat="42.72704" lon="1.91461">
        <ele>1256.2</ele>
        <time>2024-10-11T11:26:32Z</time>
      </trkpt>
      <trkpt lat="42.72707" lon="1.91465">
        <ele>1256.2</ele>
        <time>2024-10-11T11:26:33Z</time>
      </trkpt>
      <trkpt lat="42.72709" lon="1.91469">
        <ele>1256.2</ele>
        <time>2024-10-11T11:26:34Z</time>
      </trkpt>
      <trkpt lat="42.72713" lon="1.91475">
        <ele>1256.2</ele>
        <time>2024-10-11T11:26:35Z</time>
      </trkpt>
      <trkpt lat="42.72715" lon="1.91477">
        <ele>1256.2</ele>
        <time>2024-10-11T11:26:36Z</time>
      </trkpt>
      <trkpt lat="42.72719" lon="1.91482">
        <ele>1256.2</ele>
        <time>2024-10-11T11:26:37Z</time>
      </trkpt>
      <trkpt lat="42.7272" lon="1.91484">
        <ele>1256.2</ele>
        <time>2024-10-11T11:26:38Z</time>
      </trkpt>
      <trkpt lat="42.72723" lon="1.9149">
        <ele>1256.2</ele>
        <time>2024-10-11T11:26:39Z</time>
      </trkpt>
      <trkpt lat="42.72725" lon="1.91492">
        <ele>1256.2</ele>
        <time>2024-10-11T11:26:40Z</time>
      </trkpt>
      <trkpt lat="42.72728" lon="1.91498">
        <ele>1256.2</ele>
        <time>2024-10-11T11:26:41Z</time>
      </trkpt>
      <trkpt lat="42.72729" lon="1.915">
        <ele>1256.2</ele>
        <time>2024-10-11T11:26:42Z</time>
      </trkpt>
      <trkpt lat="42.72733" lon="1.91505">
        <ele>1256.8</ele>
        <time>2024-10-11T11:26:43Z</time>
      </trkpt>
      <trkpt lat="42.72734" lon="1.91507">
        <ele>1256.4</ele>
        <time>2024-10-11T11:26:44Z</time>
      </trkpt>
      <trkpt lat="42.72737" lon="1.91512">
        <ele>1256.4</ele>
        <time>2024-10-11T11:26:45Z</time>
      </trkpt>
      <trkpt lat="42.72738" lon="1.91514">
        <ele>1256.4</ele>
        <time>2024-10-11T11:26:46Z</time>
      </trkpt>
      <trkpt lat="42.7274" lon="1.91517">
        <ele>1256.4</ele>
        <time>2024-10-11T11:26:47Z</time>
      </trkpt>
      <trkpt lat="42.72743" lon="1.91521">
        <ele>1257.4</ele>
        <time>2024-10-11T11:26:48Z</time>
      </trkpt>
      <trkpt lat="42.72745" lon="1.91524">
        <ele>1257.4</ele>
        <time>2024-10-11T11:26:49Z</time>
      </trkpt>
      <trkpt lat="42.72747" lon="1.91527">
        <ele>1257.4</ele>
        <time>2024-10-11T11:26:50Z</time>
      </trkpt>
      <trkpt lat="42.72749" lon="1.9153">
        <ele>1257.4</ele>
        <time>2024-10-11T11:26:51Z</time>
      </trkpt>
      <trkpt lat="42.72751" lon="1.91533">
        <ele>1258.2</ele>
        <time>2024-10-11T11:26:52Z</time>
      </trkpt>
      <trkpt lat="42.72754" lon="1.91537">
        <ele>1258.4</ele>
        <time>2024-10-11T11:26:53Z</time>
      </trkpt>
      <trkpt lat="42.72755" lon="1.91539">
        <ele>1258.4</ele>
        <time>2024-10-11T11:26:54Z</time>
      </trkpt>
      <trkpt lat="42.72759" lon="1.91543">
        <ele>1258.4</ele>
        <time>2024-10-11T11:26:55Z</time>
      </trkpt>
      <trkpt lat="42.7276" lon="1.91544">
        <ele>1259.2</ele>
        <time>2024-10-11T11:26:56Z</time>
      </trkpt>
      <trkpt lat="42.72763" lon="1.91547">
        <ele>1259.4</ele>
        <time>2024-10-11T11:26:57Z</time>
      </trkpt>
      <trkpt lat="42.72764" lon="1.91548">
        <ele>1259.4</ele>
        <time>2024-10-11T11:26:58Z</time>
      </trkpt>
      <trkpt lat="42.72768" lon="1.91551">
        <ele>1259.4</ele>
        <time>2024-10-11T11:26:59Z</time>
      </trkpt>
      <trkpt lat="42.72769" lon="1.91552">
        <ele>1259.4</ele>
        <time>2024-10-11T11:27:00Z</time>
      </trkpt>
      <trkpt lat="42.72773" lon="1.91556">
        <ele>1260</ele>
        <time>2024-10-11T11:27:01Z</time>
      </trkpt>
      <trkpt lat="42.72774" lon="1.91557">
        <ele>1260</ele>
        <time>2024-10-11T11:27:02Z</time>
      </trkpt>
      <trkpt lat="42.72777" lon="1.91562">
        <ele>1260</ele>
        <time>2024-10-11T11:27:03Z</time>
      </trkpt>
      <trkpt lat="42.72778" lon="1.91563">
        <ele>1260</ele>
        <time>2024-10-11T11:27:04Z</time>
      </trkpt>
      <trkpt lat="42.72782" lon="1.91568">
        <ele>1260</ele>
        <time>2024-10-11T11:27:05Z</time>
      </trkpt>
      <trkpt lat="42.72783" lon="1.91569">
        <ele>1260.4</ele>
        <time>2024-10-11T11:27:06Z</time>
      </trkpt>
      <trkpt lat="42.72785" lon="1.91575">
        <ele>1260.4</ele>
        <time>2024-10-11T11:27:07Z</time>
      </trkpt>
      <trkpt lat="42.72786" lon="1.91577">
        <ele>1260.4</ele>
        <time>2024-10-11T11:27:08Z</time>
      </trkpt>
      <trkpt lat="42.72787" lon="1.91581">
        <ele>1260.6</ele>
        <time>2024-10-11T11:27:09Z</time>
      </trkpt>
      <trkpt lat="42.72788" lon="1.91585">
        <ele>1260.6</ele>
        <time>2024-10-11T11:27:10Z</time>
      </trkpt>
      <trkpt lat="42.7279" lon="1.91589">
        <ele>1260.6</ele>
        <time>2024-10-11T11:27:11Z</time>
      </trkpt>
      <trkpt lat="42.72791" lon="1.91593">
        <ele>1260.6</ele>
        <time>2024-10-11T11:27:12Z</time>
      </trkpt>
      <trkpt lat="42.72791" lon="1.91597">
        <ele>1260.6</ele>
        <time>2024-10-11T11:27:13Z</time>
      </trkpt>
      <trkpt lat="42.72792" lon="1.91601">
        <ele>1261.6</ele>
        <time>2024-10-11T11:27:14Z</time>
      </trkpt>
      <trkpt lat="42.72794" lon="1.91607">
        <ele>1261.6</ele>
        <time>2024-10-11T11:27:15Z</time>
      </trkpt>
      <trkpt lat="42.72794" lon="1.91608">
        <ele>1261.6</ele>
        <time>2024-10-11T11:27:16Z</time>
      </trkpt>
      <trkpt lat="42.72796" lon="1.91614">
        <ele>1261.6</ele>
        <time>2024-10-11T11:27:17Z</time>
      </trkpt>
      <trkpt lat="42.72796" lon="1.91616">
        <ele>1261.6</ele>
        <time>2024-10-11T11:27:18Z</time>
      </trkpt>
      <trkpt lat="42.72797" lon="1.91621">
        <ele>1262.6</ele>
        <time>2024-10-11T11:27:19Z</time>
      </trkpt>
      <trkpt lat="42.72798" lon="1.91623">
        <ele>1262.6</ele>
        <time>2024-10-11T11:27:20Z</time>
      </trkpt>
      <trkpt lat="42.72799" lon="1.91629">
        <ele>1262.6</ele>
        <time>2024-10-11T11:27:21Z</time>
      </trkpt>
      <trkpt lat="42.728" lon="1.91631">
        <ele>1262.6</ele>
        <time>2024-10-11T11:27:22Z</time>
      </trkpt>
      <trkpt lat="42.72802" lon="1.91636">
        <ele>1262.6</ele>
        <time>2024-10-11T11:27:23Z</time>
      </trkpt>
      <trkpt lat="42.72803" lon="1.91638">
        <ele>1262.6</ele>
        <time>2024-10-11T11:27:24Z</time>
      </trkpt>
      <trkpt lat="42.72806" lon="1.91643">
        <ele>1263.2</ele>
        <time>2024-10-11T11:27:25Z</time>
      </trkpt>
      <trkpt lat="42.72807" lon="1.91645">
        <ele>1263.2</ele>
        <time>2024-10-11T11:27:26Z</time>
      </trkpt>
      <trkpt lat="42.72808" lon="1.91648">
        <ele>1263.2</ele>
        <time>2024-10-11T11:27:27Z</time>
      </trkpt>
      <trkpt lat="42.7281" lon="1.91651">
        <ele>1263.4</ele>
        <time>2024-10-11T11:27:28Z</time>
      </trkpt>
      <trkpt lat="42.72815" lon="1.91655">
        <ele>1263</ele>
        <time>2024-10-11T11:27:29Z</time>
      </trkpt>
      <trkpt lat="42.72816" lon="1.91656">
        <ele>1263</ele>
        <time>2024-10-11T11:27:30Z</time>
      </trkpt>
      <trkpt lat="42.7282" lon="1.91658">
        <ele>1263</ele>
        <time>2024-10-11T11:27:31Z</time>
      </trkpt>
      <trkpt lat="42.72822" lon="1.9166">
        <ele>1263.4</ele>
        <time>2024-10-11T11:27:32Z</time>
      </trkpt>
      <trkpt lat="42.72825" lon="1.91663">
        <ele>1263.8</ele>
        <time>2024-10-11T11:27:33Z</time>
      </trkpt>
      <trkpt lat="42.72828" lon="1.91664">
        <ele>1263.8</ele>
        <time>2024-10-11T11:27:34Z</time>
      </trkpt>
      <trkpt lat="42.7283" lon="1.91666">
        <ele>1263.8</ele>
        <time>2024-10-11T11:27:35Z</time>
      </trkpt>
      <trkpt lat="42.72833" lon="1.91667">
        <ele>1263.8</ele>
        <time>2024-10-11T11:27:36Z</time>
      </trkpt>
      <trkpt lat="42.72835" lon="1.91669">
        <ele>1263.8</ele>
        <time>2024-10-11T11:27:37Z</time>
      </trkpt>
      <trkpt lat="42.72838" lon="1.91671">
        <ele>1264.2</ele>
        <time>2024-10-11T11:27:38Z</time>
      </trkpt>
      <trkpt lat="42.72841" lon="1.91672">
        <ele>1264.2</ele>
        <time>2024-10-11T11:27:39Z</time>
      </trkpt>
      <trkpt lat="42.72843" lon="1.91674">
        <ele>1264.2</ele>
        <time>2024-10-11T11:27:40Z</time>
      </trkpt>
      <trkpt lat="42.72845" lon="1.91675">
        <ele>1264.2</ele>
        <time>2024-10-11T11:27:41Z</time>
      </trkpt>
      <trkpt lat="42.72847" lon="1.91677">
        <ele>1264.4</ele>
        <time>2024-10-11T11:27:42Z</time>
      </trkpt>
      <trkpt lat="42.72848" lon="1.91678">
        <ele>1264.4</ele>
        <time>2024-10-11T11:27:43Z</time>
      </trkpt>
      <trkpt lat="42.72851" lon="1.9168">
        <ele>1264.4</ele>
        <time>2024-10-11T11:27:44Z</time>
      </trkpt>
      <trkpt lat="42.72854" lon="1.91681">
        <ele>1264.4</ele>
        <time>2024-10-11T11:27:45Z</time>
      </trkpt>
      <trkpt lat="42.7286" lon="1.91684">
        <ele>1264.4</ele>
        <time>2024-10-11T11:27:46Z</time>
      </trkpt>
      <trkpt lat="42.72862" lon="1.91685">
        <ele>1264.4</ele>
        <time>2024-10-11T11:27:47Z</time>
      </trkpt>
      <trkpt lat="42.72867" lon="1.91689">
        <ele>1264.4</ele>
        <time>2024-10-11T11:27:48Z</time>
      </trkpt>
      <trkpt lat="42.72869" lon="1.91691">
        <ele>1264.4</ele>
        <time>2024-10-11T11:27:49Z</time>
      </trkpt>
      <trkpt lat="42.72873" lon="1.91695">
        <ele>1264.4</ele>
        <time>2024-10-11T11:27:50Z</time>
      </trkpt>
      <trkpt lat="42.72875" lon="1.91697">
        <ele>1265</ele>
        <time>2024-10-11T11:27:51Z</time>
      </trkpt>
      <trkpt lat="42.72878" lon="1.917">
        <ele>1265</ele>
        <time>2024-10-11T11:27:52Z</time>
      </trkpt>
      <trkpt lat="42.72881" lon="1.91704">
        <ele>1265</ele>
        <time>2024-10-11T11:27:53Z</time>
      </trkpt>
      <trkpt lat="42.72884" lon="1.91707">
        <ele>1265</ele>
        <time>2024-10-11T11:27:54Z</time>
      </trkpt>
      <trkpt lat="42.72889" lon="1.9171">
        <ele>1265.2</ele>
        <time>2024-10-11T11:27:55Z</time>
      </trkpt>
      <trkpt lat="42.72893" lon="1.91715">
        <ele>1265.2</ele>
        <time>2024-10-11T11:27:56Z</time>
      </trkpt>
      <trkpt lat="42.72894" lon="1.91717">
        <ele>1265.2</ele>
        <time>2024-10-11T11:27:57Z</time>
      </trkpt>
      <trkpt lat="42.72895" lon="1.91721">
        <ele>1265.2</ele>
        <time>2024-10-11T11:27:58Z</time>
      </trkpt>
      <trkpt lat="42.72897" lon="1.91725">
        <ele>1265.2</ele>
        <time>2024-10-11T11:27:59Z</time>
      </trkpt>
      <trkpt lat="42.72898" lon="1.91728">
        <ele>1266</ele>
        <time>2024-10-11T11:28:00Z</time>
      </trkpt>
      <trkpt lat="42.72898" lon="1.91731">
        <ele>1266</ele>
        <time>2024-10-11T11:28:01Z</time>
      </trkpt>
      <trkpt lat="42.72899" lon="1.91732">
        <ele>1266</ele>
        <time>2024-10-11T11:28:02Z</time>
      </trkpt>
      <trkpt lat="42.72899" lon="1.91732">
        <ele>1266</ele>
        <time>2024-10-11T11:28:03Z</time>
      </trkpt>
      <trkpt lat="42.72899" lon="1.91732">
        <ele>1266</ele>
        <time>2024-10-11T11:28:04Z</time>
      </trkpt>
      <trkpt lat="42.72906" lon="1.91736">
        <ele>1265.8</ele>
        <time>2024-10-11T11:28:38Z</time>
      </trkpt>
      <trkpt lat="42.72907" lon="1.91736">
        <ele>1266.4</ele>
        <time>2024-10-11T11:28:39Z</time>
      </trkpt>
      <trkpt lat="42.72909" lon="1.91738">
        <ele>1266.4</ele>
        <time>2024-10-11T11:28:40Z</time>
      </trkpt>
      <trkpt lat="42.7291" lon="1.91738">
        <ele>1266.4</ele>
        <time>2024-10-11T11:28:41Z</time>
      </trkpt>
      <trkpt lat="42.72911" lon="1.9174">
        <ele>1266.4</ele>
        <time>2024-10-11T11:28:42Z</time>
      </trkpt>
      <trkpt lat="42.72912" lon="1.91743">
        <ele>1266.4</ele>
        <time>2024-10-11T11:28:43Z</time>
      </trkpt>
      <trkpt lat="42.72913" lon="1.91744">
        <ele>1266.4</ele>
        <time>2024-10-11T11:28:44Z</time>
      </trkpt>
      <trkpt lat="42.72915" lon="1.91748">
        <ele>1266.4</ele>
        <time>2024-10-11T11:28:45Z</time>
      </trkpt>
      <trkpt lat="42.72915" lon="1.91749">
        <ele>1267</ele>
        <time>2024-10-11T11:28:46Z</time>
      </trkpt>
      <trkpt lat="42.72918" lon="1.91752">
        <ele>1267</ele>
        <time>2024-10-11T11:28:47Z</time>
      </trkpt>
      <trkpt lat="42.72919" lon="1.91753">
        <ele>1267</ele>
        <time>2024-10-11T11:28:48Z</time>
      </trkpt>
      <trkpt lat="42.72921" lon="1.91756">
        <ele>1267</ele>
        <time>2024-10-11T11:28:49Z</time>
      </trkpt>
      <trkpt lat="42.72922" lon="1.91757">
        <ele>1267.6</ele>
        <time>2024-10-11T11:28:50Z</time>
      </trkpt>
      <trkpt lat="42.72924" lon="1.9176">
        <ele>1267.6</ele>
        <time>2024-10-11T11:28:51Z</time>
      </trkpt>
      <trkpt lat="42.72925" lon="1.91761">
        <ele>1267.6</ele>
        <time>2024-10-11T11:28:52Z</time>
      </trkpt>
      <trkpt lat="42.72927" lon="1.91764">
        <ele>1267.6</ele>
        <time>2024-10-11T11:28:53Z</time>
      </trkpt>
      <trkpt lat="42.72928" lon="1.91765">
        <ele>1268</ele>
        <time>2024-10-11T11:28:54Z</time>
      </trkpt>
      <trkpt lat="42.72929" lon="1.91767">
        <ele>1268</ele>
        <time>2024-10-11T11:28:55Z</time>
      </trkpt>
      <trkpt lat="42.72931" lon="1.91769">
        <ele>1268.6</ele>
        <time>2024-10-11T11:28:56Z</time>
      </trkpt>
      <trkpt lat="42.72933" lon="1.9177">
        <ele>1268.6</ele>
        <time>2024-10-11T11:28:57Z</time>
      </trkpt>
      <trkpt lat="42.72935" lon="1.91772">
        <ele>1269.2</ele>
        <time>2024-10-11T11:28:58Z</time>
      </trkpt>
      <trkpt lat="42.72936" lon="1.91774">
        <ele>1269.8</ele>
        <time>2024-10-11T11:28:59Z</time>
      </trkpt>
      <trkpt lat="42.72938" lon="1.91777">
        <ele>1269.8</ele>
        <time>2024-10-11T11:29:00Z</time>
      </trkpt>
      <trkpt lat="42.72939" lon="1.91779">
        <ele>1269.8</ele>
        <time>2024-10-11T11:29:01Z</time>
      </trkpt>
      <trkpt lat="42.72941" lon="1.91781">
        <ele>1269.8</ele>
        <time>2024-10-11T11:29:02Z</time>
      </trkpt>
      <trkpt lat="42.72942" lon="1.91782">
        <ele>1270.4</ele>
        <time>2024-10-11T11:29:03Z</time>
      </trkpt>
      <trkpt lat="42.72944" lon="1.91784">
        <ele>1270.4</ele>
        <time>2024-10-11T11:29:04Z</time>
      </trkpt>
      <trkpt lat="42.72946" lon="1.91788">
        <ele>1270.4</ele>
        <time>2024-10-11T11:29:05Z</time>
      </trkpt>
      <trkpt lat="42.72947" lon="1.91789">
        <ele>1270.4</ele>
        <time>2024-10-11T11:29:06Z</time>
      </trkpt>
      <trkpt lat="42.7295" lon="1.91792">
        <ele>1271</ele>
        <time>2024-10-11T11:29:07Z</time>
      </trkpt>
      <trkpt lat="42.72951" lon="1.91793">
        <ele>1271</ele>
        <time>2024-10-11T11:29:08Z</time>
      </trkpt>
      <trkpt lat="42.72953" lon="1.91796">
        <ele>1270.8</ele>
        <time>2024-10-11T11:29:09Z</time>
      </trkpt>
      <trkpt lat="42.72953" lon="1.91797">
        <ele>1270.8</ele>
        <time>2024-10-11T11:29:10Z</time>
      </trkpt>
      <trkpt lat="42.72955" lon="1.918">
        <ele>1271.8</ele>
        <time>2024-10-11T11:29:11Z</time>
      </trkpt>
      <trkpt lat="42.72956" lon="1.91801">
        <ele>1272</ele>
        <time>2024-10-11T11:29:12Z</time>
      </trkpt>
      <trkpt lat="42.72959" lon="1.91801">
        <ele>1272</ele>
        <time>2024-10-11T11:29:13Z</time>
      </trkpt>
      <trkpt lat="42.72961" lon="1.91802">
        <ele>1272</ele>
        <time>2024-10-11T11:29:14Z</time>
      </trkpt>
      <trkpt lat="42.72963" lon="1.91804">
        <ele>1272</ele>
        <time>2024-10-11T11:29:15Z</time>
      </trkpt>
      <trkpt lat="42.72964" lon="1.91805">
        <ele>1272.6</ele>
        <time>2024-10-11T11:29:16Z</time>
      </trkpt>
      <trkpt lat="42.72965" lon="1.91806">
        <ele>1272.6</ele>
        <time>2024-10-11T11:29:17Z</time>
      </trkpt>
      <trkpt lat="42.72966" lon="1.91807">
        <ele>1272.6</ele>
        <time>2024-10-11T11:29:18Z</time>
      </trkpt>
      <trkpt lat="42.72968" lon="1.91809">
        <ele>1272.6</ele>
        <time>2024-10-11T11:29:19Z</time>
      </trkpt>
      <trkpt lat="42.7297" lon="1.9181">
        <ele>1272.6</ele>
        <time>2024-10-11T11:29:20Z</time>
      </trkpt>
      <trkpt lat="42.72971" lon="1.91812">
        <ele>1273.2</ele>
        <time>2024-10-11T11:29:21Z</time>
      </trkpt>
      <trkpt lat="42.72974" lon="1.91814">
        <ele>1273.2</ele>
        <time>2024-10-11T11:29:22Z</time>
      </trkpt>
      <trkpt lat="42.72975" lon="1.91815">
        <ele>1273.2</ele>
        <time>2024-10-11T11:29:23Z</time>
      </trkpt>
      <trkpt lat="42.72978" lon="1.91817">
        <ele>1273.2</ele>
        <time>2024-10-11T11:29:24Z</time>
      </trkpt>
      <trkpt lat="42.7298" lon="1.91818">
        <ele>1273.8</ele>
        <time>2024-10-11T11:29:25Z</time>
      </trkpt>
      <trkpt lat="42.72981" lon="1.91819">
        <ele>1273.8</ele>
        <time>2024-10-11T11:29:26Z</time>
      </trkpt>
      <trkpt lat="42.72982" lon="1.9182">
        <ele>1273.8</ele>
        <time>2024-10-11T11:29:27Z</time>
      </trkpt>
      <trkpt lat="42.72985" lon="1.91822">
        <ele>1273.8</ele>
        <time>2024-10-11T11:29:28Z</time>
      </trkpt>
      <trkpt lat="42.72986" lon="1.91823">
        <ele>1273.8</ele>
        <time>2024-10-11T11:29:29Z</time>
      </trkpt>
      <trkpt lat="42.72987" lon="1.91824">
        <ele>1274.6</ele>
        <time>2024-10-11T11:29:30Z</time>
      </trkpt>
      <trkpt lat="42.72989" lon="1.91826">
        <ele>1274.8</ele>
        <time>2024-10-11T11:29:31Z</time>
      </trkpt>
      <trkpt lat="42.7299" lon="1.91828">
        <ele>1274.8</ele>
        <time>2024-10-11T11:29:32Z</time>
      </trkpt>
      <trkpt lat="42.72991" lon="1.91829">
        <ele>1274.8</ele>
        <time>2024-10-11T11:29:33Z</time>
      </trkpt>
      <trkpt lat="42.72993" lon="1.91832">
        <ele>1275.2</ele>
        <time>2024-10-11T11:29:34Z</time>
      </trkpt>
      <trkpt lat="42.72994" lon="1.91833">
        <ele>1274.6</ele>
        <time>2024-10-11T11:29:35Z</time>
      </trkpt>
      <trkpt lat="42.72996" lon="1.91837">
        <ele>1274.6</ele>
        <time>2024-10-11T11:29:36Z</time>
      </trkpt>
      <trkpt lat="42.72996" lon="1.91838">
        <ele>1274.6</ele>
        <time>2024-10-11T11:29:37Z</time>
      </trkpt>
      <trkpt lat="42.72997" lon="1.9184">
        <ele>1274.6</ele>
        <time>2024-10-11T11:29:38Z</time>
      </trkpt>
      <trkpt lat="42.72999" lon="1.91843">
        <ele>1275.6</ele>
        <time>2024-10-11T11:29:39Z</time>
      </trkpt>
      <trkpt lat="42.73" lon="1.91846">
        <ele>1276</ele>
        <time>2024-10-11T11:29:40Z</time>
      </trkpt>
      <trkpt lat="42.73001" lon="1.91848">
        <ele>1276</ele>
        <time>2024-10-11T11:29:41Z</time>
      </trkpt>
      <trkpt lat="42.73002" lon="1.91851">
        <ele>1276</ele>
        <time>2024-10-11T11:29:42Z</time>
      </trkpt>
      <trkpt lat="42.73003" lon="1.91853">
        <ele>1276.4</ele>
        <time>2024-10-11T11:29:43Z</time>
      </trkpt>
      <trkpt lat="42.73004" lon="1.91856">
        <ele>1276.8</ele>
        <time>2024-10-11T11:29:44Z</time>
      </trkpt>
      <trkpt lat="42.73004" lon="1.91858">
        <ele>1276.8</ele>
        <time>2024-10-11T11:29:45Z</time>
      </trkpt>
      <trkpt lat="42.73006" lon="1.91861">
        <ele>1276.8</ele>
        <time>2024-10-11T11:29:46Z</time>
      </trkpt>
      <trkpt lat="42.73007" lon="1.91863">
        <ele>1276.8</ele>
        <time>2024-10-11T11:29:47Z</time>
      </trkpt>
      <trkpt lat="42.73008" lon="1.91866">
        <ele>1277.6</ele>
        <time>2024-10-11T11:29:48Z</time>
      </trkpt>
      <trkpt lat="42.73009" lon="1.91868">
        <ele>1277.6</ele>
        <time>2024-10-11T11:29:49Z</time>
      </trkpt>
      <trkpt lat="42.73011" lon="1.9187">
        <ele>1277.6</ele>
        <time>2024-10-11T11:29:50Z</time>
      </trkpt>
      <trkpt lat="42.73011" lon="1.91872">
        <ele>1277.6</ele>
        <time>2024-10-11T11:29:51Z</time>
      </trkpt>
      <trkpt lat="42.73012" lon="1.91873">
        <ele>1278.4</ele>
        <time>2024-10-11T11:29:52Z</time>
      </trkpt>
      <trkpt lat="42.73012" lon="1.91876">
        <ele>1278.4</ele>
        <time>2024-10-11T11:29:53Z</time>
      </trkpt>
      <trkpt lat="42.73013" lon="1.91877">
        <ele>1278.4</ele>
        <time>2024-10-11T11:29:54Z</time>
      </trkpt>
      <trkpt lat="42.73013" lon="1.9188">
        <ele>1278.4</ele>
        <time>2024-10-11T11:29:55Z</time>
      </trkpt>
      <trkpt lat="42.73014" lon="1.91881">
        <ele>1278.8</ele>
        <time>2024-10-11T11:29:56Z</time>
      </trkpt>
      <trkpt lat="42.73015" lon="1.91883">
        <ele>1279.4</ele>
        <time>2024-10-11T11:29:57Z</time>
      </trkpt>
      <trkpt lat="42.73015" lon="1.91885">
        <ele>1279.4</ele>
        <time>2024-10-11T11:29:58Z</time>
      </trkpt>
      <trkpt lat="42.73016" lon="1.91886">
        <ele>1279.4</ele>
        <time>2024-10-11T11:29:59Z</time>
      </trkpt>
      <trkpt lat="42.73018" lon="1.91888">
        <ele>1280</ele>
        <time>2024-10-11T11:30:00Z</time>
      </trkpt>
      <trkpt lat="42.73018" lon="1.9189">
        <ele>1280</ele>
        <time>2024-10-11T11:30:01Z</time>
      </trkpt>
      <trkpt lat="42.73019" lon="1.91892">
        <ele>1280</ele>
        <time>2024-10-11T11:30:02Z</time>
      </trkpt>
      <trkpt lat="42.7302" lon="1.91894">
        <ele>1280</ele>
        <time>2024-10-11T11:30:03Z</time>
      </trkpt>
      <trkpt lat="42.73021" lon="1.91896">
        <ele>1280</ele>
        <time>2024-10-11T11:30:04Z</time>
      </trkpt>
      <trkpt lat="42.73022" lon="1.91897">
        <ele>1281</ele>
        <time>2024-10-11T11:30:05Z</time>
      </trkpt>
      <trkpt lat="42.73023" lon="1.91898">
        <ele>1281.6</ele>
        <time>2024-10-11T11:30:06Z</time>
      </trkpt>
      <trkpt lat="42.73025" lon="1.91899">
        <ele>1281.6</ele>
        <time>2024-10-11T11:30:07Z</time>
      </trkpt>
      <trkpt lat="42.73026" lon="1.91901">
        <ele>1281.6</ele>
        <time>2024-10-11T11:30:08Z</time>
      </trkpt>
      <trkpt lat="42.73028" lon="1.91901">
        <ele>1281.6</ele>
        <time>2024-10-11T11:30:09Z</time>
      </trkpt>
      <trkpt lat="42.73028" lon="1.91902">
        <ele>1281.6</ele>
        <time>2024-10-11T11:30:10Z</time>
      </trkpt>
      <trkpt lat="42.73029" lon="1.91903">
        <ele>1282</ele>
        <time>2024-10-11T11:30:11Z</time>
      </trkpt>
      <trkpt lat="42.7303" lon="1.91904">
        <ele>1282</ele>
        <time>2024-10-11T11:30:12Z</time>
      </trkpt>
      <trkpt lat="42.73031" lon="1.91905">
        <ele>1282</ele>
        <time>2024-10-11T11:30:13Z</time>
      </trkpt>
      <trkpt lat="42.73031" lon="1.91906">
        <ele>1282.8</ele>
        <time>2024-10-11T11:30:14Z</time>
      </trkpt>
      <trkpt lat="42.73032" lon="1.91906">
        <ele>1282.8</ele>
        <time>2024-10-11T11:30:15Z</time>
      </trkpt>
      <trkpt lat="42.73034" lon="1.91907">
        <ele>1282.8</ele>
        <time>2024-10-11T11:30:16Z</time>
      </trkpt>
      <trkpt lat="42.73035" lon="1.91908">
        <ele>1282.8</ele>
        <time>2024-10-11T11:30:17Z</time>
      </trkpt>
      <trkpt lat="42.73036" lon="1.91909">
        <ele>1282.8</ele>
        <time>2024-10-11T11:30:18Z</time>
      </trkpt>
      <trkpt lat="42.73038" lon="1.9191">
        <ele>1283.8</ele>
        <time>2024-10-11T11:30:19Z</time>
      </trkpt>
      <trkpt lat="42.73039" lon="1.9191">
        <ele>1284</ele>
        <time>2024-10-11T11:30:20Z</time>
      </trkpt>
      <trkpt lat="42.73041" lon="1.91911">
        <ele>1284</ele>
        <time>2024-10-11T11:30:21Z</time>
      </trkpt>
      <trkpt lat="42.73042" lon="1.91913">
        <ele>1284</ele>
        <time>2024-10-11T11:30:22Z</time>
      </trkpt>
      <trkpt lat="42.73044" lon="1.91915">
        <ele>1284</ele>
        <time>2024-10-11T11:30:23Z</time>
      </trkpt>
      <trkpt lat="42.73045" lon="1.91916">
        <ele>1284.6</ele>
        <time>2024-10-11T11:30:24Z</time>
      </trkpt>
      <trkpt lat="42.73046" lon="1.91917">
        <ele>1284.6</ele>
        <time>2024-10-11T11:30:25Z</time>
      </trkpt>
      <trkpt lat="42.73048" lon="1.91919">
        <ele>1284.6</ele>
        <time>2024-10-11T11:30:26Z</time>
      </trkpt>
      <trkpt lat="42.73049" lon="1.91921">
        <ele>1284.6</ele>
        <time>2024-10-11T11:30:27Z</time>
      </trkpt>
      <trkpt lat="42.73051" lon="1.91922">
        <ele>1284.6</ele>
        <time>2024-10-11T11:30:28Z</time>
      </trkpt>
      <trkpt lat="42.73052" lon="1.91925">
        <ele>1285.2</ele>
        <time>2024-10-11T11:30:29Z</time>
      </trkpt>
      <trkpt lat="42.73053" lon="1.91927">
        <ele>1285.2</ele>
        <time>2024-10-11T11:30:30Z</time>
      </trkpt>
      <trkpt lat="42.73055" lon="1.91929">
        <ele>1285.2</ele>
        <time>2024-10-11T11:30:31Z</time>
      </trkpt>
      <trkpt lat="42.73056" lon="1.91931">
        <ele>1285.2</ele>
        <time>2024-10-11T11:30:32Z</time>
      </trkpt>
      <trkpt lat="42.73057" lon="1.91934">
        <ele>1285.6</ele>
        <time>2024-10-11T11:30:33Z</time>
      </trkpt>
      <trkpt lat="42.73058" lon="1.91936">
        <ele>1285.6</ele>
        <time>2024-10-11T11:30:34Z</time>
      </trkpt>
      <trkpt lat="42.7306" lon="1.91938">
        <ele>1285.6</ele>
        <time>2024-10-11T11:30:35Z</time>
      </trkpt>
      <trkpt lat="42.73061" lon="1.91941">
        <ele>1285.6</ele>
        <time>2024-10-11T11:30:36Z</time>
      </trkpt>
      <trkpt lat="42.73063" lon="1.91944">
        <ele>1286.2</ele>
        <time>2024-10-11T11:30:37Z</time>
      </trkpt>
      <trkpt lat="42.73063" lon="1.91945">
        <ele>1286.2</ele>
        <time>2024-10-11T11:30:38Z</time>
      </trkpt>
      <trkpt lat="42.73065" lon="1.91949">
        <ele>1286.2</ele>
        <time>2024-10-11T11:30:39Z</time>
      </trkpt>
      <trkpt lat="42.73066" lon="1.91951">
        <ele>1286.2</ele>
        <time>2024-10-11T11:30:40Z</time>
      </trkpt>
      <trkpt lat="42.73068" lon="1.91954">
        <ele>1286.2</ele>
        <time>2024-10-11T11:30:41Z</time>
      </trkpt>
      <trkpt lat="42.73068" lon="1.91955">
        <ele>1286.2</ele>
        <time>2024-10-11T11:30:42Z</time>
      </trkpt>
      <trkpt lat="42.7307" lon="1.91958">
        <ele>1286.2</ele>
        <time>2024-10-11T11:30:43Z</time>
      </trkpt>
      <trkpt lat="42.7307" lon="1.9196">
        <ele>1286.2</ele>
        <time>2024-10-11T11:30:44Z</time>
      </trkpt>
      <trkpt lat="42.73071" lon="1.91963">
        <ele>1287</ele>
        <time>2024-10-11T11:30:45Z</time>
      </trkpt>
      <trkpt lat="42.73071" lon="1.91965">
        <ele>1287.4</ele>
        <time>2024-10-11T11:30:46Z</time>
      </trkpt>
      <trkpt lat="42.73073" lon="1.91969">
        <ele>1287.4</ele>
        <time>2024-10-11T11:30:47Z</time>
      </trkpt>
      <trkpt lat="42.73074" lon="1.9197">
        <ele>1287.4</ele>
        <time>2024-10-11T11:30:48Z</time>
      </trkpt>
      <trkpt lat="42.73075" lon="1.91973">
        <ele>1287.4</ele>
        <time>2024-10-11T11:30:49Z</time>
      </trkpt>
      <trkpt lat="42.73076" lon="1.91975">
        <ele>1288</ele>
        <time>2024-10-11T11:30:50Z</time>
      </trkpt>
      <trkpt lat="42.73077" lon="1.91978">
        <ele>1288</ele>
        <time>2024-10-11T11:30:51Z</time>
      </trkpt>
      <trkpt lat="42.73078" lon="1.9198">
        <ele>1287.8</ele>
        <time>2024-10-11T11:30:52Z</time>
      </trkpt>
      <trkpt lat="42.7308" lon="1.91982">
        <ele>1287.8</ele>
        <time>2024-10-11T11:30:53Z</time>
      </trkpt>
      <trkpt lat="42.7308" lon="1.91983">
        <ele>1287.8</ele>
        <time>2024-10-11T11:30:54Z</time>
      </trkpt>
      <trkpt lat="42.73082" lon="1.91987">
        <ele>1287.8</ele>
        <time>2024-10-11T11:30:55Z</time>
      </trkpt>
      <trkpt lat="42.73082" lon="1.91988">
        <ele>1288.4</ele>
        <time>2024-10-11T11:30:56Z</time>
      </trkpt>
      <trkpt lat="42.73084" lon="1.91992">
        <ele>1288.4</ele>
        <time>2024-10-11T11:30:57Z</time>
      </trkpt>
      <trkpt lat="42.73085" lon="1.91993">
        <ele>1288.4</ele>
        <time>2024-10-11T11:30:58Z</time>
      </trkpt>
      <trkpt lat="42.73087" lon="1.91997">
        <ele>1288.8</ele>
        <time>2024-10-11T11:30:59Z</time>
      </trkpt>
      <trkpt lat="42.73088" lon="1.91998">
        <ele>1288.8</ele>
        <time>2024-10-11T11:31:00Z</time>
      </trkpt>
      <trkpt lat="42.73089" lon="1.92002">
        <ele>1288.8</ele>
        <time>2024-10-11T11:31:01Z</time>
      </trkpt>
      <trkpt lat="42.7309" lon="1.92003">
        <ele>1288.8</ele>
        <time>2024-10-11T11:31:02Z</time>
      </trkpt>
      <trkpt lat="42.73091" lon="1.92006">
        <ele>1288.8</ele>
        <time>2024-10-11T11:31:03Z</time>
      </trkpt>
      <trkpt lat="42.73092" lon="1.92009">
        <ele>1289.6</ele>
        <time>2024-10-11T11:31:04Z</time>
      </trkpt>
      <trkpt lat="42.73093" lon="1.92012">
        <ele>1289.6</ele>
        <time>2024-10-11T11:31:05Z</time>
      </trkpt>
      <trkpt lat="42.73093" lon="1.92015">
        <ele>1289.6</ele>
        <time>2024-10-11T11:31:06Z</time>
      </trkpt>
      <trkpt lat="42.73094" lon="1.92018">
        <ele>1289.6</ele>
        <time>2024-10-11T11:31:07Z</time>
      </trkpt>
      <trkpt lat="42.73096" lon="1.9202">
        <ele>1290.2</ele>
        <time>2024-10-11T11:31:08Z</time>
      </trkpt>
      <trkpt lat="42.73097" lon="1.92023">
        <ele>1290.2</ele>
        <time>2024-10-11T11:31:09Z</time>
      </trkpt>
      <trkpt lat="42.73098" lon="1.92025">
        <ele>1290.2</ele>
        <time>2024-10-11T11:31:10Z</time>
      </trkpt>
      <trkpt lat="42.73099" lon="1.92028">
        <ele>1290.2</ele>
        <time>2024-10-11T11:31:11Z</time>
      </trkpt>
      <trkpt lat="42.731" lon="1.9203">
        <ele>1290.2</ele>
        <time>2024-10-11T11:31:12Z</time>
      </trkpt>
      <trkpt lat="42.73102" lon="1.92034">
        <ele>1290.8</ele>
        <time>2024-10-11T11:31:13Z</time>
      </trkpt>
      <trkpt lat="42.73102" lon="1.92035">
        <ele>1291</ele>
        <time>2024-10-11T11:31:14Z</time>
      </trkpt>
      <trkpt lat="42.73103" lon="1.92038">
        <ele>1291</ele>
        <time>2024-10-11T11:31:15Z</time>
      </trkpt>
      <trkpt lat="42.73104" lon="1.92041">
        <ele>1291</ele>
        <time>2024-10-11T11:31:16Z</time>
      </trkpt>
      <trkpt lat="42.73105" lon="1.92044">
        <ele>1291.4</ele>
        <time>2024-10-11T11:31:17Z</time>
      </trkpt>
      <trkpt lat="42.73105" lon="1.92046">
        <ele>1291.8</ele>
        <time>2024-10-11T11:31:18Z</time>
      </trkpt>
      <trkpt lat="42.73106" lon="1.92049">
        <ele>1291.8</ele>
        <time>2024-10-11T11:31:19Z</time>
      </trkpt>
      <trkpt lat="42.73107" lon="1.92051">
        <ele>1291.8</ele>
        <time>2024-10-11T11:31:20Z</time>
      </trkpt>
      <trkpt lat="42.73108" lon="1.92055">
        <ele>1291.8</ele>
        <time>2024-10-11T11:31:21Z</time>
      </trkpt>
      <trkpt lat="42.73108" lon="1.92057">
        <ele>1291.8</ele>
        <time>2024-10-11T11:31:22Z</time>
      </trkpt>
      <trkpt lat="42.73109" lon="1.92061">
        <ele>1292.4</ele>
        <time>2024-10-11T11:31:23Z</time>
      </trkpt>
      <trkpt lat="42.7311" lon="1.92062">
        <ele>1292.4</ele>
        <time>2024-10-11T11:31:24Z</time>
      </trkpt>
      <trkpt lat="42.73111" lon="1.92065">
        <ele>1292.4</ele>
        <time>2024-10-11T11:31:25Z</time>
      </trkpt>
      <trkpt lat="42.73111" lon="1.92067">
        <ele>1292.8</ele>
        <time>2024-10-11T11:31:26Z</time>
      </trkpt>
      <trkpt lat="42.73112" lon="1.9207">
        <ele>1292.8</ele>
        <time>2024-10-11T11:31:27Z</time>
      </trkpt>
      <trkpt lat="42.73113" lon="1.92072">
        <ele>1292.8</ele>
        <time>2024-10-11T11:31:28Z</time>
      </trkpt>
      <trkpt lat="42.73114" lon="1.92074">
        <ele>1292.8</ele>
        <time>2024-10-11T11:31:29Z</time>
      </trkpt>
      <trkpt lat="42.73115" lon="1.92077">
        <ele>1293.4</ele>
        <time>2024-10-11T11:31:30Z</time>
      </trkpt>
      <trkpt lat="42.73116" lon="1.92079">
        <ele>1293.8</ele>
        <time>2024-10-11T11:31:31Z</time>
      </trkpt>
      <trkpt lat="42.73117" lon="1.92081">
        <ele>1293.8</ele>
        <time>2024-10-11T11:31:32Z</time>
      </trkpt>
      <trkpt lat="42.73119" lon="1.92084">
        <ele>1293.8</ele>
        <time>2024-10-11T11:31:33Z</time>
      </trkpt>
      <trkpt lat="42.7312" lon="1.92085">
        <ele>1293.8</ele>
        <time>2024-10-11T11:31:34Z</time>
      </trkpt>
      <trkpt lat="42.73121" lon="1.92088">
        <ele>1293.8</ele>
        <time>2024-10-11T11:31:35Z</time>
      </trkpt>
      <trkpt lat="42.73122" lon="1.92089">
        <ele>1294.2</ele>
        <time>2024-10-11T11:31:36Z</time>
      </trkpt>
      <trkpt lat="42.73123" lon="1.92093">
        <ele>1294.4</ele>
        <time>2024-10-11T11:31:37Z</time>
      </trkpt>
      <trkpt lat="42.73124" lon="1.92094">
        <ele>1294.4</ele>
        <time>2024-10-11T11:31:38Z</time>
      </trkpt>
      <trkpt lat="42.73125" lon="1.92098">
        <ele>1294.4</ele>
        <time>2024-10-11T11:31:39Z</time>
      </trkpt>
      <trkpt lat="42.73126" lon="1.92099">
        <ele>1295</ele>
        <time>2024-10-11T11:31:40Z</time>
      </trkpt>
      <trkpt lat="42.73128" lon="1.92102">
        <ele>1295</ele>
        <time>2024-10-11T11:31:41Z</time>
      </trkpt>
      <trkpt lat="42.73128" lon="1.92103">
        <ele>1295</ele>
        <time>2024-10-11T11:31:42Z</time>
      </trkpt>
      <trkpt lat="42.7313" lon="1.92107">
        <ele>1295</ele>
        <time>2024-10-11T11:31:43Z</time>
      </trkpt>
      <trkpt lat="42.73131" lon="1.92108">
        <ele>1295.4</ele>
        <time>2024-10-11T11:31:44Z</time>
      </trkpt>
      <trkpt lat="42.73132" lon="1.9211">
        <ele>1295.4</ele>
        <time>2024-10-11T11:31:45Z</time>
      </trkpt>
      <trkpt lat="42.73134" lon="1.92112">
        <ele>1296</ele>
        <time>2024-10-11T11:31:46Z</time>
      </trkpt>
      <trkpt lat="42.73135" lon="1.92114">
        <ele>1296</ele>
        <time>2024-10-11T11:31:47Z</time>
      </trkpt>
      <trkpt lat="42.73137" lon="1.92116">
        <ele>1296</ele>
        <time>2024-10-11T11:31:48Z</time>
      </trkpt>
      <trkpt lat="42.73138" lon="1.92118">
        <ele>1296.8</ele>
        <time>2024-10-11T11:31:49Z</time>
      </trkpt>
      <trkpt lat="42.73139" lon="1.9212">
        <ele>1296.6</ele>
        <time>2024-10-11T11:31:50Z</time>
      </trkpt>
      <trkpt lat="42.73141" lon="1.92121">
        <ele>1296.6</ele>
        <time>2024-10-11T11:31:51Z</time>
      </trkpt>
      <trkpt lat="42.73142" lon="1.92123">
        <ele>1296.6</ele>
        <time>2024-10-11T11:31:52Z</time>
      </trkpt>
      <trkpt lat="42.73143" lon="1.92125">
        <ele>1297.6</ele>
        <time>2024-10-11T11:31:53Z</time>
      </trkpt>
      <trkpt lat="42.73145" lon="1.92126">
        <ele>1297.6</ele>
        <time>2024-10-11T11:31:54Z</time>
      </trkpt>
      <trkpt lat="42.73146" lon="1.92128">
        <ele>1297.4</ele>
        <time>2024-10-11T11:31:55Z</time>
      </trkpt>
      <trkpt lat="42.73148" lon="1.9213">
        <ele>1297.4</ele>
        <time>2024-10-11T11:31:56Z</time>
      </trkpt>
      <trkpt lat="42.73149" lon="1.92131">
        <ele>1297.4</ele>
        <time>2024-10-11T11:31:57Z</time>
      </trkpt>
      <trkpt lat="42.7315" lon="1.92133">
        <ele>1298.2</ele>
        <time>2024-10-11T11:31:58Z</time>
      </trkpt>
      <trkpt lat="42.73152" lon="1.92135">
        <ele>1298.4</ele>
        <time>2024-10-11T11:31:59Z</time>
      </trkpt>
      <trkpt lat="42.73153" lon="1.92136">
        <ele>1298.4</ele>
        <time>2024-10-11T11:32:00Z</time>
      </trkpt>
      <trkpt lat="42.73155" lon="1.92138">
        <ele>1298.4</ele>
        <time>2024-10-11T11:32:01Z</time>
      </trkpt>
      <trkpt lat="42.73156" lon="1.92139">
        <ele>1298.4</ele>
        <time>2024-10-11T11:32:02Z</time>
      </trkpt>
      <trkpt lat="42.73157" lon="1.92141">
        <ele>1299.2</ele>
        <time>2024-10-11T11:32:03Z</time>
      </trkpt>
      <trkpt lat="42.73158" lon="1.92143">
        <ele>1299.2</ele>
        <time>2024-10-11T11:32:04Z</time>
      </trkpt>
      <trkpt lat="42.73159" lon="1.92145">
        <ele>1299.2</ele>
        <time>2024-10-11T11:32:05Z</time>
      </trkpt>
      <trkpt lat="42.7316" lon="1.92147">
        <ele>1300</ele>
        <time>2024-10-11T11:32:06Z</time>
      </trkpt>
      <trkpt lat="42.73162" lon="1.92149">
        <ele>1300</ele>
        <time>2024-10-11T11:32:07Z</time>
      </trkpt>
      <trkpt lat="42.73164" lon="1.92153">
        <ele>1300.4</ele>
        <time>2024-10-11T11:32:08Z</time>
      </trkpt>
      <trkpt lat="42.73165" lon="1.92154">
        <ele>1300.4</ele>
        <time>2024-10-11T11:32:09Z</time>
      </trkpt>
      <trkpt lat="42.73165" lon="1.92156">
        <ele>1300.4</ele>
        <time>2024-10-11T11:32:10Z</time>
      </trkpt>
      <trkpt lat="42.73166" lon="1.92157">
        <ele>1300.4</ele>
        <time>2024-10-11T11:32:11Z</time>
      </trkpt>
      <trkpt lat="42.73167" lon="1.92159">
        <ele>1301</ele>
        <time>2024-10-11T11:32:12Z</time>
      </trkpt>
      <trkpt lat="42.73168" lon="1.92161">
        <ele>1301</ele>
        <time>2024-10-11T11:32:13Z</time>
      </trkpt>
      <trkpt lat="42.7317" lon="1.92165">
        <ele>1301</ele>
        <time>2024-10-11T11:32:14Z</time>
      </trkpt>
      <trkpt lat="42.73171" lon="1.92166">
        <ele>1301</ele>
        <time>2024-10-11T11:32:15Z</time>
      </trkpt>
      <trkpt lat="42.73172" lon="1.92168">
        <ele>1301.4</ele>
        <time>2024-10-11T11:32:16Z</time>
      </trkpt>
      <trkpt lat="42.73173" lon="1.92169">
        <ele>1301.6</ele>
        <time>2024-10-11T11:32:17Z</time>
      </trkpt>
      <trkpt lat="42.73173" lon="1.92171">
        <ele>1301.6</ele>
        <time>2024-10-11T11:32:18Z</time>
      </trkpt>
      <trkpt lat="42.73174" lon="1.92173">
        <ele>1301.6</ele>
        <time>2024-10-11T11:32:19Z</time>
      </trkpt>
      <trkpt lat="42.73176" lon="1.92175">
        <ele>1301.6</ele>
        <time>2024-10-11T11:32:20Z</time>
      </trkpt>
      <trkpt lat="42.73177" lon="1.92176">
        <ele>1302.2</ele>
        <time>2024-10-11T11:32:21Z</time>
      </trkpt>
      <trkpt lat="42.73178" lon="1.92178">
        <ele>1302.8</ele>
        <time>2024-10-11T11:32:22Z</time>
      </trkpt>
      <trkpt lat="42.73179" lon="1.9218">
        <ele>1302.8</ele>
        <time>2024-10-11T11:32:23Z</time>
      </trkpt>
      <trkpt lat="42.7318" lon="1.92182">
        <ele>1302.8</ele>
        <time>2024-10-11T11:32:24Z</time>
      </trkpt>
      <trkpt lat="42.73182" lon="1.92184">
        <ele>1303.4</ele>
        <time>2024-10-11T11:32:25Z</time>
      </trkpt>
      <trkpt lat="42.73183" lon="1.92185">
        <ele>1303.6</ele>
        <time>2024-10-11T11:32:26Z</time>
      </trkpt>
      <trkpt lat="42.73185" lon="1.92188">
        <ele>1303.6</ele>
        <time>2024-10-11T11:32:27Z</time>
      </trkpt>
      <trkpt lat="42.73185" lon="1.92189">
        <ele>1303.6</ele>
        <time>2024-10-11T11:32:28Z</time>
      </trkpt>
      <trkpt lat="42.73187" lon="1.92191">
        <ele>1303.6</ele>
        <time>2024-10-11T11:32:29Z</time>
      </trkpt>
      <trkpt lat="42.73187" lon="1.92192">
        <ele>1304.2</ele>
        <time>2024-10-11T11:32:30Z</time>
      </trkpt>
      <trkpt lat="42.73188" lon="1.92194">
        <ele>1304.4</ele>
        <time>2024-10-11T11:32:31Z</time>
      </trkpt>
      <trkpt lat="42.73189" lon="1.92196">
        <ele>1304.4</ele>
        <time>2024-10-11T11:32:32Z</time>
      </trkpt>
      <trkpt lat="42.7319" lon="1.92198">
        <ele>1304.4</ele>
        <time>2024-10-11T11:32:33Z</time>
      </trkpt>
      <trkpt lat="42.73191" lon="1.92199">
        <ele>1305.2</ele>
        <time>2024-10-11T11:32:34Z</time>
      </trkpt>
      <trkpt lat="42.73192" lon="1.92201">
        <ele>1305.2</ele>
        <time>2024-10-11T11:32:35Z</time>
      </trkpt>
      <trkpt lat="42.73193" lon="1.92202">
        <ele>1305.2</ele>
        <time>2024-10-11T11:32:36Z</time>
      </trkpt>
      <trkpt lat="42.73194" lon="1.92204">
        <ele>1305.2</ele>
        <time>2024-10-11T11:32:37Z</time>
      </trkpt>
      <trkpt lat="42.73195" lon="1.92206">
        <ele>1306.2</ele>
        <time>2024-10-11T11:32:38Z</time>
      </trkpt>
      <trkpt lat="42.73196" lon="1.92207">
        <ele>1306.4</ele>
        <time>2024-10-11T11:32:39Z</time>
      </trkpt>
      <trkpt lat="42.73197" lon="1.9221">
        <ele>1306.4</ele>
        <time>2024-10-11T11:32:40Z</time>
      </trkpt>
      <trkpt lat="42.73198" lon="1.92212">
        <ele>1306.4</ele>
        <time>2024-10-11T11:32:41Z</time>
      </trkpt>
      <trkpt lat="42.73198" lon="1.92215">
        <ele>1306.4</ele>
        <time>2024-10-11T11:32:42Z</time>
      </trkpt>
      <trkpt lat="42.732" lon="1.92217">
        <ele>1306.4</ele>
        <time>2024-10-11T11:32:43Z</time>
      </trkpt>
      <trkpt lat="42.73201" lon="1.92219">
        <ele>1306.4</ele>
        <time>2024-10-11T11:32:44Z</time>
      </trkpt>
      <trkpt lat="42.73202" lon="1.92222">
        <ele>1307.4</ele>
        <time>2024-10-11T11:32:45Z</time>
      </trkpt>
      <trkpt lat="42.73202" lon="1.92225">
        <ele>1307.4</ele>
        <time>2024-10-11T11:32:46Z</time>
      </trkpt>
      <trkpt lat="42.73203" lon="1.92229">
        <ele>1307.4</ele>
        <time>2024-10-11T11:32:47Z</time>
      </trkpt>
      <trkpt lat="42.73203" lon="1.9223">
        <ele>1308</ele>
        <time>2024-10-11T11:32:48Z</time>
      </trkpt>
      <trkpt lat="42.73205" lon="1.92233">
        <ele>1308</ele>
        <time>2024-10-11T11:32:49Z</time>
      </trkpt>
      <trkpt lat="42.73205" lon="1.92234">
        <ele>1308</ele>
        <time>2024-10-11T11:32:50Z</time>
      </trkpt>
      <trkpt lat="42.73206" lon="1.92237">
        <ele>1308</ele>
        <time>2024-10-11T11:32:51Z</time>
      </trkpt>
      <trkpt lat="42.73208" lon="1.92239">
        <ele>1308</ele>
        <time>2024-10-11T11:32:52Z</time>
      </trkpt>
      <trkpt lat="42.73208" lon="1.92241">
        <ele>1308.4</ele>
        <time>2024-10-11T11:32:53Z</time>
      </trkpt>
      <trkpt lat="42.73208" lon="1.92242">
        <ele>1308.4</ele>
        <time>2024-10-11T11:32:54Z</time>
      </trkpt>
      <trkpt lat="42.7321" lon="1.92245">
        <ele>1308.4</ele>
        <time>2024-10-11T11:32:55Z</time>
      </trkpt>
      <trkpt lat="42.73212" lon="1.92248">
        <ele>1308.8</ele>
        <time>2024-10-11T11:32:56Z</time>
      </trkpt>
      <trkpt lat="42.73213" lon="1.92251">
        <ele>1309.4</ele>
        <time>2024-10-11T11:32:57Z</time>
      </trkpt>
      <trkpt lat="42.73215" lon="1.92253">
        <ele>1309.4</ele>
        <time>2024-10-11T11:32:58Z</time>
      </trkpt>
      <trkpt lat="42.73216" lon="1.92257">
        <ele>1309.4</ele>
        <time>2024-10-11T11:32:59Z</time>
      </trkpt>
      <trkpt lat="42.73217" lon="1.92259">
        <ele>1309.4</ele>
        <time>2024-10-11T11:33:00Z</time>
      </trkpt>
      <trkpt lat="42.73219" lon="1.92263">
        <ele>1309.4</ele>
        <time>2024-10-11T11:33:01Z</time>
      </trkpt>
      <trkpt lat="42.7322" lon="1.92264">
        <ele>1309.6</ele>
        <time>2024-10-11T11:33:02Z</time>
      </trkpt>
      <trkpt lat="42.73222" lon="1.92268">
        <ele>1309.6</ele>
        <time>2024-10-11T11:33:03Z</time>
      </trkpt>
      <trkpt lat="42.73222" lon="1.9227">
        <ele>1309.6</ele>
        <time>2024-10-11T11:33:04Z</time>
      </trkpt>
      <trkpt lat="42.73224" lon="1.92274">
        <ele>1309.6</ele>
        <time>2024-10-11T11:33:05Z</time>
      </trkpt>
      <trkpt lat="42.73225" lon="1.92276">
        <ele>1309.6</ele>
        <time>2024-10-11T11:33:06Z</time>
      </trkpt>
      <trkpt lat="42.73228" lon="1.92279">
        <ele>1310</ele>
        <time>2024-10-11T11:33:07Z</time>
      </trkpt>
      <trkpt lat="42.73229" lon="1.9228">
        <ele>1310</ele>
        <time>2024-10-11T11:33:08Z</time>
      </trkpt>
      <trkpt lat="42.73233" lon="1.92284">
        <ele>1310</ele>
        <time>2024-10-11T11:33:09Z</time>
      </trkpt>
      <trkpt lat="42.73234" lon="1.92286">
        <ele>1310.4</ele>
        <time>2024-10-11T11:33:10Z</time>
      </trkpt>
      <trkpt lat="42.73237" lon="1.9229">
        <ele>1310.4</ele>
        <time>2024-10-11T11:33:11Z</time>
      </trkpt>
      <trkpt lat="42.73238" lon="1.92292">
        <ele>1310.8</ele>
        <time>2024-10-11T11:33:12Z</time>
      </trkpt>
      <trkpt lat="42.7324" lon="1.92295">
        <ele>1310.8</ele>
        <time>2024-10-11T11:33:13Z</time>
      </trkpt>
      <trkpt lat="42.73241" lon="1.92298">
        <ele>1310.8</ele>
        <time>2024-10-11T11:33:14Z</time>
      </trkpt>
      <trkpt lat="42.73244" lon="1.923">
        <ele>1310.8</ele>
        <time>2024-10-11T11:33:15Z</time>
      </trkpt>
      <trkpt lat="42.73247" lon="1.92304">
        <ele>1311</ele>
        <time>2024-10-11T11:33:16Z</time>
      </trkpt>
      <trkpt lat="42.73247" lon="1.92306">
        <ele>1311</ele>
        <time>2024-10-11T11:33:17Z</time>
      </trkpt>
      <trkpt lat="42.7325" lon="1.92309">
        <ele>1311</ele>
        <time>2024-10-11T11:33:18Z</time>
      </trkpt>
      <trkpt lat="42.73251" lon="1.92311">
        <ele>1311.8</ele>
        <time>2024-10-11T11:33:19Z</time>
      </trkpt>
      <trkpt lat="42.73254" lon="1.92314">
        <ele>1311.8</ele>
        <time>2024-10-11T11:33:20Z</time>
      </trkpt>
      <trkpt lat="42.73255" lon="1.92315">
        <ele>1311.8</ele>
        <time>2024-10-11T11:33:21Z</time>
      </trkpt>
      <trkpt lat="42.73258" lon="1.92317">
        <ele>1311.8</ele>
        <time>2024-10-11T11:33:22Z</time>
      </trkpt>
      <trkpt lat="42.73259" lon="1.92319">
        <ele>1312.6</ele>
        <time>2024-10-11T11:33:23Z</time>
      </trkpt>
      <trkpt lat="42.73262" lon="1.9232">
        <ele>1313.2</ele>
        <time>2024-10-11T11:33:24Z</time>
      </trkpt>
      <trkpt lat="42.73264" lon="1.9232">
        <ele>1313.2</ele>
        <time>2024-10-11T11:33:25Z</time>
      </trkpt>
      <trkpt lat="42.73267" lon="1.92321">
        <ele>1313.2</ele>
        <time>2024-10-11T11:33:26Z</time>
      </trkpt>
      <trkpt lat="42.73268" lon="1.92322">
        <ele>1313.2</ele>
        <time>2024-10-11T11:33:27Z</time>
      </trkpt>
      <trkpt lat="42.73269" lon="1.92322">
        <ele>1313.2</ele>
        <time>2024-10-11T11:33:28Z</time>
      </trkpt>
      <trkpt lat="42.73271" lon="1.92323">
        <ele>1313.4</ele>
        <time>2024-10-11T11:33:29Z</time>
      </trkpt>
      <trkpt lat="42.73273" lon="1.92324">
        <ele>1313.4</ele>
        <time>2024-10-11T11:33:30Z</time>
      </trkpt>
      <trkpt lat="42.73275" lon="1.92326">
        <ele>1313.4</ele>
        <time>2024-10-11T11:33:31Z</time>
      </trkpt>
      <trkpt lat="42.73277" lon="1.92326">
        <ele>1314.2</ele>
        <time>2024-10-11T11:33:32Z</time>
      </trkpt>
      <trkpt lat="42.73278" lon="1.92327">
        <ele>1314.4</ele>
        <time>2024-10-11T11:33:33Z</time>
      </trkpt>
      <trkpt lat="42.7328" lon="1.92327">
        <ele>1314.4</ele>
        <time>2024-10-11T11:33:34Z</time>
      </trkpt>
      <trkpt lat="42.73281" lon="1.92327">
        <ele>1314.4</ele>
        <time>2024-10-11T11:33:35Z</time>
      </trkpt>
      <trkpt lat="42.73283" lon="1.92328">
        <ele>1314.4</ele>
        <time>2024-10-11T11:33:36Z</time>
      </trkpt>
      <trkpt lat="42.73285" lon="1.92329">
        <ele>1315</ele>
        <time>2024-10-11T11:33:37Z</time>
      </trkpt>
      <trkpt lat="42.73286" lon="1.92331">
        <ele>1315</ele>
        <time>2024-10-11T11:33:38Z</time>
      </trkpt>
      <trkpt lat="42.73288" lon="1.92332">
        <ele>1315</ele>
        <time>2024-10-11T11:33:39Z</time>
      </trkpt>
      <trkpt lat="42.7329" lon="1.92333">
        <ele>1315</ele>
        <time>2024-10-11T11:33:40Z</time>
      </trkpt>
      <trkpt lat="42.73293" lon="1.92335">
        <ele>1315</ele>
        <time>2024-10-11T11:33:41Z</time>
      </trkpt>
      <trkpt lat="42.73294" lon="1.92336">
        <ele>1315.6</ele>
        <time>2024-10-11T11:33:42Z</time>
      </trkpt>
      <trkpt lat="42.73295" lon="1.92337">
        <ele>1316</ele>
        <time>2024-10-11T11:33:43Z</time>
      </trkpt>
      <trkpt lat="42.73296" lon="1.92339">
        <ele>1316</ele>
        <time>2024-10-11T11:33:44Z</time>
      </trkpt>
      <trkpt lat="42.73298" lon="1.9234">
        <ele>1316</ele>
        <time>2024-10-11T11:33:45Z</time>
      </trkpt>
      <trkpt lat="42.73299" lon="1.92342">
        <ele>1316.4</ele>
        <time>2024-10-11T11:33:46Z</time>
      </trkpt>
      <trkpt lat="42.733" lon="1.92343">
        <ele>1316.4</ele>
        <time>2024-10-11T11:33:47Z</time>
      </trkpt>
      <trkpt lat="42.73302" lon="1.92347">
        <ele>1316.6</ele>
        <time>2024-10-11T11:33:48Z</time>
      </trkpt>
      <trkpt lat="42.73303" lon="1.92348">
        <ele>1316.6</ele>
        <time>2024-10-11T11:33:49Z</time>
      </trkpt>
      <trkpt lat="42.73305" lon="1.92351">
        <ele>1316.6</ele>
        <time>2024-10-11T11:33:50Z</time>
      </trkpt>
      <trkpt lat="42.73306" lon="1.92352">
        <ele>1316.8</ele>
        <time>2024-10-11T11:33:51Z</time>
      </trkpt>
      <trkpt lat="42.73307" lon="1.92354">
        <ele>1317.4</ele>
        <time>2024-10-11T11:33:52Z</time>
      </trkpt>
      <trkpt lat="42.73308" lon="1.92356">
        <ele>1317.4</ele>
        <time>2024-10-11T11:33:53Z</time>
      </trkpt>
      <trkpt lat="42.73311" lon="1.92358">
        <ele>1317.4</ele>
        <time>2024-10-11T11:33:54Z</time>
      </trkpt>
      <trkpt lat="42.73312" lon="1.92359">
        <ele>1317.6</ele>
        <time>2024-10-11T11:33:55Z</time>
      </trkpt>
      <trkpt lat="42.73315" lon="1.92364">
        <ele>1317.6</ele>
        <time>2024-10-11T11:33:56Z</time>
      </trkpt>
      <trkpt lat="42.73317" lon="1.92367">
        <ele>1317.6</ele>
        <time>2024-10-11T11:33:57Z</time>
      </trkpt>
      <trkpt lat="42.73319" lon="1.9237">
        <ele>1317.6</ele>
        <time>2024-10-11T11:33:58Z</time>
      </trkpt>
      <trkpt lat="42.73321" lon="1.92373">
        <ele>1317.6</ele>
        <time>2024-10-11T11:33:59Z</time>
      </trkpt>
      <trkpt lat="42.73323" lon="1.92376">
        <ele>1318.4</ele>
        <time>2024-10-11T11:35:20Z</time>
      </trkpt>
      <trkpt lat="42.73325" lon="1.92379">
        <ele>1318.4</ele>
        <time>2024-10-11T11:35:21Z</time>
      </trkpt>
      <trkpt lat="42.73327" lon="1.92382">
        <ele>1318.6</ele>
        <time>2024-10-11T11:35:22Z</time>
      </trkpt>
      <trkpt lat="42.73329" lon="1.92384">
        <ele>1318.6</ele>
        <time>2024-10-11T11:35:23Z</time>
      </trkpt>
      <trkpt lat="42.7333" lon="1.92385">
        <ele>1318.6</ele>
        <time>2024-10-11T11:35:24Z</time>
      </trkpt>
      <trkpt lat="42.73332" lon="1.92387">
        <ele>1318.6</ele>
        <time>2024-10-11T11:35:25Z</time>
      </trkpt>
      <trkpt lat="42.73334" lon="1.92388">
        <ele>1319.4</ele>
        <time>2024-10-11T11:35:26Z</time>
      </trkpt>
      <trkpt lat="42.73335" lon="1.9239">
        <ele>1319.4</ele>
        <time>2024-10-11T11:35:27Z</time>
      </trkpt>
      <trkpt lat="42.73337" lon="1.92392">
        <ele>1319.4</ele>
        <time>2024-10-11T11:35:28Z</time>
      </trkpt>
      <trkpt lat="42.73339" lon="1.92393">
        <ele>1319.8</ele>
        <time>2024-10-11T11:35:29Z</time>
      </trkpt>
      <trkpt lat="42.7334" lon="1.92395">
        <ele>1320.2</ele>
        <time>2024-10-11T11:35:30Z</time>
      </trkpt>
      <trkpt lat="42.73341" lon="1.92397">
        <ele>1320.2</ele>
        <time>2024-10-11T11:35:31Z</time>
      </trkpt>
      <trkpt lat="42.73342" lon="1.92399">
        <ele>1320.2</ele>
        <time>2024-10-11T11:35:32Z</time>
      </trkpt>
      <trkpt lat="42.73343" lon="1.92401">
        <ele>1320.6</ele>
        <time>2024-10-11T11:35:33Z</time>
      </trkpt>
      <trkpt lat="42.73344" lon="1.92403">
        <ele>1320.8</ele>
        <time>2024-10-11T11:35:34Z</time>
      </trkpt>
      <trkpt lat="42.73346" lon="1.92404">
        <ele>1320.8</ele>
        <time>2024-10-11T11:35:35Z</time>
      </trkpt>
      <trkpt lat="42.73346" lon="1.92405">
        <ele>1320.8</ele>
        <time>2024-10-11T11:35:36Z</time>
      </trkpt>
      <trkpt lat="42.73346" lon="1.92407">
        <ele>1320.8</ele>
        <time>2024-10-11T11:35:37Z</time>
      </trkpt>
      <trkpt lat="42.73347" lon="1.92409">
        <ele>1321.6</ele>
        <time>2024-10-11T11:35:38Z</time>
      </trkpt>
      <trkpt lat="42.73347" lon="1.92411">
        <ele>1322</ele>
        <time>2024-10-11T11:35:39Z</time>
      </trkpt>
      <trkpt lat="42.73349" lon="1.92414">
        <ele>1322</ele>
        <time>2024-10-11T11:35:40Z</time>
      </trkpt>
      <trkpt lat="42.7335" lon="1.92415">
        <ele>1322</ele>
        <time>2024-10-11T11:35:41Z</time>
      </trkpt>
      <trkpt lat="42.7335" lon="1.92417">
        <ele>1322.2</ele>
        <time>2024-10-11T11:35:42Z</time>
      </trkpt>
      <trkpt lat="42.73351" lon="1.92419">
        <ele>1322.2</ele>
        <time>2024-10-11T11:35:43Z</time>
      </trkpt>
      <trkpt lat="42.73351" lon="1.92421">
        <ele>1322.2</ele>
        <time>2024-10-11T11:35:44Z</time>
      </trkpt>
      <trkpt lat="42.73352" lon="1.92424">
        <ele>1322.2</ele>
        <time>2024-10-11T11:35:45Z</time>
      </trkpt>
      <trkpt lat="42.73352" lon="1.92426">
        <ele>1323</ele>
        <time>2024-10-11T11:35:46Z</time>
      </trkpt>
      <trkpt lat="42.73352" lon="1.92429">
        <ele>1323</ele>
        <time>2024-10-11T11:35:47Z</time>
      </trkpt>
      <trkpt lat="42.73352" lon="1.92432">
        <ele>1323.2</ele>
        <time>2024-10-11T11:35:48Z</time>
      </trkpt>
      <trkpt lat="42.73353" lon="1.92435">
        <ele>1323.2</ele>
        <time>2024-10-11T11:35:49Z</time>
      </trkpt>
      <trkpt lat="42.73353" lon="1.92437">
        <ele>1323.2</ele>
        <time>2024-10-11T11:35:50Z</time>
      </trkpt>
      <trkpt lat="42.73353" lon="1.9244">
        <ele>1323.2</ele>
        <time>2024-10-11T11:35:51Z</time>
      </trkpt>
      <trkpt lat="42.73354" lon="1.92442">
        <ele>1323.8</ele>
        <time>2024-10-11T11:35:52Z</time>
      </trkpt>
      <trkpt lat="42.73354" lon="1.92446">
        <ele>1323.8</ele>
        <time>2024-10-11T11:35:53Z</time>
      </trkpt>
      <trkpt lat="42.73355" lon="1.92447">
        <ele>1323.8</ele>
        <time>2024-10-11T11:35:54Z</time>
      </trkpt>
      <trkpt lat="42.73355" lon="1.92451">
        <ele>1323.8</ele>
        <time>2024-10-11T11:35:55Z</time>
      </trkpt>
      <trkpt lat="42.73355" lon="1.92452">
        <ele>1323.8</ele>
        <time>2024-10-11T11:35:56Z</time>
      </trkpt>
      <trkpt lat="42.73356" lon="1.92456">
        <ele>1324</ele>
        <time>2024-10-11T11:35:57Z</time>
      </trkpt>
      <trkpt lat="42.73357" lon="1.92457">
        <ele>1324</ele>
        <time>2024-10-11T11:35:58Z</time>
      </trkpt>
      <trkpt lat="42.73357" lon="1.92461">
        <ele>1324</ele>
        <time>2024-10-11T11:35:59Z</time>
      </trkpt>
      <trkpt lat="42.73358" lon="1.92463">
        <ele>1324</ele>
        <time>2024-10-11T11:36:00Z</time>
      </trkpt>
      <trkpt lat="42.73358" lon="1.92467">
        <ele>1324.8</ele>
        <time>2024-10-11T11:36:01Z</time>
      </trkpt>
      <trkpt lat="42.73359" lon="1.92468">
        <ele>1324.8</ele>
        <time>2024-10-11T11:36:02Z</time>
      </trkpt>
      <trkpt lat="42.73359" lon="1.92472">
        <ele>1324.8</ele>
        <time>2024-10-11T11:36:03Z</time>
      </trkpt>
      <trkpt lat="42.7336" lon="1.92473">
        <ele>1324.8</ele>
        <time>2024-10-11T11:36:04Z</time>
      </trkpt>
      <trkpt lat="42.7336" lon="1.92475">
        <ele>1325.6</ele>
        <time>2024-10-11T11:36:05Z</time>
      </trkpt>
      <trkpt lat="42.73361" lon="1.92478">
        <ele>1325.6</ele>
        <time>2024-10-11T11:36:06Z</time>
      </trkpt>
      <trkpt lat="42.73362" lon="1.9248">
        <ele>1325.6</ele>
        <time>2024-10-11T11:36:07Z</time>
      </trkpt>
      <trkpt lat="42.73363" lon="1.92482">
        <ele>1325.6</ele>
        <time>2024-10-11T11:36:08Z</time>
      </trkpt>
      <trkpt lat="42.73363" lon="1.92485">
        <ele>1326.4</ele>
        <time>2024-10-11T11:36:09Z</time>
      </trkpt>
      <trkpt lat="42.73364" lon="1.92487">
        <ele>1326.4</ele>
        <time>2024-10-11T11:36:10Z</time>
      </trkpt>
      <trkpt lat="42.73365" lon="1.92489">
        <ele>1326.6</ele>
        <time>2024-10-11T11:36:11Z</time>
      </trkpt>
      <trkpt lat="42.73366" lon="1.92491">
        <ele>1326.6</ele>
        <time>2024-10-11T11:36:12Z</time>
      </trkpt>
      <trkpt lat="42.73366" lon="1.92493">
        <ele>1326.6</ele>
        <time>2024-10-11T11:36:13Z</time>
      </trkpt>
      <trkpt lat="42.73367" lon="1.92496">
        <ele>1327.4</ele>
        <time>2024-10-11T11:36:14Z</time>
      </trkpt>
      <trkpt lat="42.73367" lon="1.92498">
        <ele>1327.6</ele>
        <time>2024-10-11T11:36:15Z</time>
      </trkpt>
      <trkpt lat="42.73368" lon="1.925">
        <ele>1327.6</ele>
        <time>2024-10-11T11:36:16Z</time>
      </trkpt>
      <trkpt lat="42.73368" lon="1.92502">
        <ele>1327.6</ele>
        <time>2024-10-11T11:36:17Z</time>
      </trkpt>
      <trkpt lat="42.73369" lon="1.92504">
        <ele>1328.6</ele>
        <time>2024-10-11T11:36:18Z</time>
      </trkpt>
      <trkpt lat="42.73369" lon="1.92507">
        <ele>1328.6</ele>
        <time>2024-10-11T11:36:19Z</time>
      </trkpt>
      <trkpt lat="42.7337" lon="1.92509">
        <ele>1328.8</ele>
        <time>2024-10-11T11:36:20Z</time>
      </trkpt>
      <trkpt lat="42.7337" lon="1.92511">
        <ele>1328.8</ele>
        <time>2024-10-11T11:36:21Z</time>
      </trkpt>
      <trkpt lat="42.7337" lon="1.92513">
        <ele>1328.8</ele>
        <time>2024-10-11T11:36:22Z</time>
      </trkpt>
      <trkpt lat="42.7337" lon="1.92515">
        <ele>1329.8</ele>
        <time>2024-10-11T11:36:23Z</time>
      </trkpt>
      <trkpt lat="42.73371" lon="1.92517">
        <ele>1329.8</ele>
        <time>2024-10-11T11:36:24Z</time>
      </trkpt>
      <trkpt lat="42.73371" lon="1.92519">
        <ele>1330</ele>
        <time>2024-10-11T11:36:25Z</time>
      </trkpt>
      <trkpt lat="42.7337" lon="1.92522">
        <ele>1330</ele>
        <time>2024-10-11T11:36:26Z</time>
      </trkpt>
      <trkpt lat="42.73371" lon="1.92523">
        <ele>1330.6</ele>
        <time>2024-10-11T11:36:27Z</time>
      </trkpt>
      <trkpt lat="42.73372" lon="1.92525">
        <ele>1330.8</ele>
        <time>2024-10-11T11:36:28Z</time>
      </trkpt>
      <trkpt lat="42.73372" lon="1.92527">
        <ele>1330.8</ele>
        <time>2024-10-11T11:36:29Z</time>
      </trkpt>
      <trkpt lat="42.73373" lon="1.92529">
        <ele>1330.8</ele>
        <time>2024-10-11T11:36:30Z</time>
      </trkpt>
      <trkpt lat="42.73373" lon="1.92531">
        <ele>1330.8</ele>
        <time>2024-10-11T11:36:31Z</time>
      </trkpt>
      <trkpt lat="42.73374" lon="1.92532">
        <ele>1331.4</ele>
        <time>2024-10-11T11:36:32Z</time>
      </trkpt>
      <trkpt lat="42.73374" lon="1.92534">
        <ele>1331.6</ele>
        <time>2024-10-11T11:36:33Z</time>
      </trkpt>
      <trkpt lat="42.73375" lon="1.92536">
        <ele>1331.6</ele>
        <time>2024-10-11T11:36:34Z</time>
      </trkpt>
      <trkpt lat="42.73375" lon="1.92538">
        <ele>1331.6</ele>
        <time>2024-10-11T11:36:35Z</time>
      </trkpt>
      <trkpt lat="42.73376" lon="1.92539">
        <ele>1331.6</ele>
        <time>2024-10-11T11:36:36Z</time>
      </trkpt>
      <trkpt lat="42.73376" lon="1.92541">
        <ele>1332.4</ele>
        <time>2024-10-11T11:36:37Z</time>
      </trkpt>
      <trkpt lat="42.73377" lon="1.92542">
        <ele>1332.6</ele>
        <time>2024-10-11T11:36:38Z</time>
      </trkpt>
      <trkpt lat="42.73377" lon="1.92544">
        <ele>1332.6</ele>
        <time>2024-10-11T11:36:39Z</time>
      </trkpt>
      <trkpt lat="42.73377" lon="1.92546">
        <ele>1332.6</ele>
        <time>2024-10-11T11:36:40Z</time>
      </trkpt>
      <trkpt lat="42.73378" lon="1.92548">
        <ele>1333.2</ele>
        <time>2024-10-11T11:36:41Z</time>
      </trkpt>
      <trkpt lat="42.73379" lon="1.92549">
        <ele>1333.6</ele>
        <time>2024-10-11T11:36:42Z</time>
      </trkpt>
      <trkpt lat="42.73379" lon="1.92551">
        <ele>1333.6</ele>
        <time>2024-10-11T11:36:43Z</time>
      </trkpt>
      <trkpt lat="42.73379" lon="1.92552">
        <ele>1333.6</ele>
        <time>2024-10-11T11:36:44Z</time>
      </trkpt>
      <trkpt lat="42.7338" lon="1.92554">
        <ele>1333.6</ele>
        <time>2024-10-11T11:36:45Z</time>
      </trkpt>
      <trkpt lat="42.7338" lon="1.92555">
        <ele>1334.2</ele>
        <time>2024-10-11T11:36:46Z</time>
      </trkpt>
      <trkpt lat="42.73381" lon="1.92557">
        <ele>1334.2</ele>
        <time>2024-10-11T11:36:47Z</time>
      </trkpt>
      <trkpt lat="42.73382" lon="1.92559">
        <ele>1334.4</ele>
        <time>2024-10-11T11:36:48Z</time>
      </trkpt>
      <trkpt lat="42.73382" lon="1.92561">
        <ele>1334.4</ele>
        <time>2024-10-11T11:36:49Z</time>
      </trkpt>
      <trkpt lat="42.73383" lon="1.92563">
        <ele>1335</ele>
        <time>2024-10-11T11:36:50Z</time>
      </trkpt>
      <trkpt lat="42.73384" lon="1.92564">
        <ele>1335.2</ele>
        <time>2024-10-11T11:36:51Z</time>
      </trkpt>
      <trkpt lat="42.73385" lon="1.92566">
        <ele>1335.2</ele>
        <time>2024-10-11T11:36:52Z</time>
      </trkpt>
      <trkpt lat="42.73385" lon="1.92568">
        <ele>1335.2</ele>
        <time>2024-10-11T11:36:53Z</time>
      </trkpt>
      <trkpt lat="42.73386" lon="1.92569">
        <ele>1336</ele>
        <time>2024-10-11T11:36:54Z</time>
      </trkpt>
      <trkpt lat="42.73387" lon="1.92571">
        <ele>1336.2</ele>
        <time>2024-10-11T11:36:55Z</time>
      </trkpt>
      <trkpt lat="42.73388" lon="1.92572">
        <ele>1336.2</ele>
        <time>2024-10-11T11:36:56Z</time>
      </trkpt>
      <trkpt lat="42.73389" lon="1.92574">
        <ele>1336.2</ele>
        <time>2024-10-11T11:36:57Z</time>
      </trkpt>
      <trkpt lat="42.7339" lon="1.92576">
        <ele>1336.2</ele>
        <time>2024-10-11T11:36:58Z</time>
      </trkpt>
      <trkpt lat="42.73391" lon="1.92577">
        <ele>1336.8</ele>
        <time>2024-10-11T11:36:59Z</time>
      </trkpt>
      <trkpt lat="42.73392" lon="1.92578">
        <ele>1337</ele>
        <time>2024-10-11T11:37:00Z</time>
      </trkpt>
      <trkpt lat="42.73393" lon="1.9258">
        <ele>1337</ele>
        <time>2024-10-11T11:37:01Z</time>
      </trkpt>
      <trkpt lat="42.73395" lon="1.92581">
        <ele>1337</ele>
        <time>2024-10-11T11:37:02Z</time>
      </trkpt>
      <trkpt lat="42.73396" lon="1.92582">
        <ele>1337</ele>
        <time>2024-10-11T11:37:03Z</time>
      </trkpt>
      <trkpt lat="42.73396" lon="1.92584">
        <ele>1338.4</ele>
        <time>2024-10-11T11:37:04Z</time>
      </trkpt>
      <trkpt lat="42.73397" lon="1.92585">
        <ele>1338.4</ele>
        <time>2024-10-11T11:37:05Z</time>
      </trkpt>
      <trkpt lat="42.73399" lon="1.92587">
        <ele>1338.4</ele>
        <time>2024-10-11T11:37:06Z</time>
      </trkpt>
      <trkpt lat="42.734" lon="1.92588">
        <ele>1338.4</ele>
        <time>2024-10-11T11:37:07Z</time>
      </trkpt>
      <trkpt lat="42.73401" lon="1.92589">
        <ele>1339.2</ele>
        <time>2024-10-11T11:37:08Z</time>
      </trkpt>
      <trkpt lat="42.73401" lon="1.92591">
        <ele>1339.6</ele>
        <time>2024-10-11T11:37:09Z</time>
      </trkpt>
      <trkpt lat="42.73403" lon="1.92592">
        <ele>1339.6</ele>
        <time>2024-10-11T11:37:10Z</time>
      </trkpt>
      <trkpt lat="42.73404" lon="1.92593">
        <ele>1339.6</ele>
        <time>2024-10-11T11:37:11Z</time>
      </trkpt>
      <trkpt lat="42.73405" lon="1.92594">
        <ele>1340.2</ele>
        <time>2024-10-11T11:37:12Z</time>
      </trkpt>
      <trkpt lat="42.73406" lon="1.92595">
        <ele>1340.6</ele>
        <time>2024-10-11T11:37:13Z</time>
      </trkpt>
      <trkpt lat="42.73407" lon="1.92596">
        <ele>1340.6</ele>
        <time>2024-10-11T11:37:14Z</time>
      </trkpt>
      <trkpt lat="42.73408" lon="1.92597">
        <ele>1340.6</ele>
        <time>2024-10-11T11:37:15Z</time>
      </trkpt>
      <trkpt lat="42.73409" lon="1.92599">
        <ele>1340.6</ele>
        <time>2024-10-11T11:37:16Z</time>
      </trkpt>
      <trkpt lat="42.7341" lon="1.926">
        <ele>1341.4</ele>
        <time>2024-10-11T11:37:17Z</time>
      </trkpt>
      <trkpt lat="42.73411" lon="1.92601">
        <ele>1341.4</ele>
        <time>2024-10-11T11:37:18Z</time>
      </trkpt>
      <trkpt lat="42.73413" lon="1.92602">
        <ele>1341.4</ele>
        <time>2024-10-11T11:37:19Z</time>
      </trkpt>
      <trkpt lat="42.73414" lon="1.92602">
        <ele>1341.4</ele>
        <time>2024-10-11T11:37:20Z</time>
      </trkpt>
      <trkpt lat="42.73415" lon="1.92603">
        <ele>1341.4</ele>
        <time>2024-10-11T11:37:21Z</time>
      </trkpt>
      <trkpt lat="42.73416" lon="1.92604">
        <ele>1342.4</ele>
        <time>2024-10-11T11:37:22Z</time>
      </trkpt>
      <trkpt lat="42.73418" lon="1.92604">
        <ele>1342.8</ele>
        <time>2024-10-11T11:37:23Z</time>
      </trkpt>
      <trkpt lat="42.73419" lon="1.92604">
        <ele>1342.8</ele>
        <time>2024-10-11T11:37:24Z</time>
      </trkpt>
      <trkpt lat="42.7342" lon="1.92605">
        <ele>1342.8</ele>
        <time>2024-10-11T11:37:25Z</time>
      </trkpt>
      <trkpt lat="42.73421" lon="1.92605">
        <ele>1343.2</ele>
        <time>2024-10-11T11:37:26Z</time>
      </trkpt>
      <trkpt lat="42.73422" lon="1.92605">
        <ele>1343.6</ele>
        <time>2024-10-11T11:37:27Z</time>
      </trkpt>
      <trkpt lat="42.73424" lon="1.92606">
        <ele>1343.6</ele>
        <time>2024-10-11T11:37:28Z</time>
      </trkpt>
      <trkpt lat="42.73425" lon="1.92606">
        <ele>1343.6</ele>
        <time>2024-10-11T11:37:29Z</time>
      </trkpt>
      <trkpt lat="42.73426" lon="1.92606">
        <ele>1343.6</ele>
        <time>2024-10-11T11:37:30Z</time>
      </trkpt>
      <trkpt lat="42.73428" lon="1.92606">
        <ele>1344.2</ele>
        <time>2024-10-11T11:37:31Z</time>
      </trkpt>
      <trkpt lat="42.73429" lon="1.92606">
        <ele>1344.4</ele>
        <time>2024-10-11T11:37:32Z</time>
      </trkpt>
      <trkpt lat="42.7343" lon="1.92606">
        <ele>1344.4</ele>
        <time>2024-10-11T11:37:33Z</time>
      </trkpt>
      <trkpt lat="42.7343" lon="1.92606">
        <ele>1344.4</ele>
        <time>2024-10-11T11:37:34Z</time>
      </trkpt>
      <trkpt lat="42.73431" lon="1.92606">
        <ele>1345.2</ele>
        <time>2024-10-11T11:37:35Z</time>
      </trkpt>
      <trkpt lat="42.73433" lon="1.92606">
        <ele>1345.4</ele>
        <time>2024-10-11T11:37:36Z</time>
      </trkpt>
      <trkpt lat="42.73434" lon="1.92605">
        <ele>1345.4</ele>
        <time>2024-10-11T11:37:37Z</time>
      </trkpt>
      <trkpt lat="42.73436" lon="1.92606">
        <ele>1345.4</ele>
        <time>2024-10-11T11:37:38Z</time>
      </trkpt>
      <trkpt lat="42.73437" lon="1.92605">
        <ele>1345.4</ele>
        <time>2024-10-11T11:37:39Z</time>
      </trkpt>
      <trkpt lat="42.73439" lon="1.92605">
        <ele>1346.2</ele>
        <time>2024-10-11T11:37:40Z</time>
      </trkpt>
      <trkpt lat="42.7344" lon="1.92605">
        <ele>1346.2</ele>
        <time>2024-10-11T11:37:41Z</time>
      </trkpt>
      <trkpt lat="42.73441" lon="1.92605">
        <ele>1346.2</ele>
        <time>2024-10-11T11:37:42Z</time>
      </trkpt>
      <trkpt lat="42.73442" lon="1.92604">
        <ele>1346.2</ele>
        <time>2024-10-11T11:37:43Z</time>
      </trkpt>
      <trkpt lat="42.73444" lon="1.92603">
        <ele>1346.6</ele>
        <time>2024-10-11T11:37:44Z</time>
      </trkpt>
      <trkpt lat="42.73445" lon="1.92603">
        <ele>1346.8</ele>
        <time>2024-10-11T11:37:45Z</time>
      </trkpt>
      <trkpt lat="42.73446" lon="1.92603">
        <ele>1346.8</ele>
        <time>2024-10-11T11:37:46Z</time>
      </trkpt>
      <trkpt lat="42.73447" lon="1.92603">
        <ele>1346.8</ele>
        <time>2024-10-11T11:37:47Z</time>
      </trkpt>
      <trkpt lat="42.73448" lon="1.92602">
        <ele>1347.6</ele>
        <time>2024-10-11T11:37:48Z</time>
      </trkpt>
      <trkpt lat="42.73449" lon="1.92602">
        <ele>1347.8</ele>
        <time>2024-10-11T11:37:49Z</time>
      </trkpt>
      <trkpt lat="42.7345" lon="1.92601">
        <ele>1347.8</ele>
        <time>2024-10-11T11:37:50Z</time>
      </trkpt>
      <trkpt lat="42.73451" lon="1.926">
        <ele>1347.8</ele>
        <time>2024-10-11T11:37:51Z</time>
      </trkpt>
      <trkpt lat="42.73452" lon="1.926">
        <ele>1347.8</ele>
        <time>2024-10-11T11:37:52Z</time>
      </trkpt>
      <trkpt lat="42.73453" lon="1.926">
        <ele>1348.2</ele>
        <time>2024-10-11T11:37:53Z</time>
      </trkpt>
      <trkpt lat="42.73454" lon="1.92599">
        <ele>1348.4</ele>
        <time>2024-10-11T11:37:54Z</time>
      </trkpt>
      <trkpt lat="42.73456" lon="1.92599">
        <ele>1348.4</ele>
        <time>2024-10-11T11:37:55Z</time>
      </trkpt>
      <trkpt lat="42.73457" lon="1.92598">
        <ele>1348.4</ele>
        <time>2024-10-11T11:37:56Z</time>
      </trkpt>
      <trkpt lat="42.73458" lon="1.92598">
        <ele>1349.2</ele>
        <time>2024-10-11T11:37:57Z</time>
      </trkpt>
      <trkpt lat="42.73459" lon="1.92598">
        <ele>1349.4</ele>
        <time>2024-10-11T11:37:58Z</time>
      </trkpt>
      <trkpt lat="42.73461" lon="1.92598">
        <ele>1349.4</ele>
        <time>2024-10-11T11:37:59Z</time>
      </trkpt>
      <trkpt lat="42.73462" lon="1.92598">
        <ele>1349.4</ele>
        <time>2024-10-11T11:38:00Z</time>
      </trkpt>
      <trkpt lat="42.73464" lon="1.92598">
        <ele>1349.4</ele>
        <time>2024-10-11T11:38:01Z</time>
      </trkpt>
      <trkpt lat="42.73465" lon="1.92599">
        <ele>1349.8</ele>
        <time>2024-10-11T11:38:02Z</time>
      </trkpt>
      <trkpt lat="42.73466" lon="1.92599">
        <ele>1349.8</ele>
        <time>2024-10-11T11:38:03Z</time>
      </trkpt>
      <trkpt lat="42.73467" lon="1.92598">
        <ele>1350.2</ele>
        <time>2024-10-11T11:38:04Z</time>
      </trkpt>
      <trkpt lat="42.73468" lon="1.92599">
        <ele>1350.2</ele>
        <time>2024-10-11T11:38:05Z</time>
      </trkpt>
      <trkpt lat="42.73469" lon="1.926">
        <ele>1350.2</ele>
        <time>2024-10-11T11:38:06Z</time>
      </trkpt>
      <trkpt lat="42.73471" lon="1.926">
        <ele>1350.6</ele>
        <time>2024-10-11T11:38:07Z</time>
      </trkpt>
      <trkpt lat="42.73472" lon="1.92601">
        <ele>1351</ele>
        <time>2024-10-11T11:38:08Z</time>
      </trkpt>
      <trkpt lat="42.73474" lon="1.92602">
        <ele>1351</ele>
        <time>2024-10-11T11:38:09Z</time>
      </trkpt>
      <trkpt lat="42.73476" lon="1.92602">
        <ele>1351</ele>
        <time>2024-10-11T11:38:10Z</time>
      </trkpt>
      <trkpt lat="42.73477" lon="1.92603">
        <ele>1351.2</ele>
        <time>2024-10-11T11:38:11Z</time>
      </trkpt>
      <trkpt lat="42.73478" lon="1.92603">
        <ele>1351.6</ele>
        <time>2024-10-11T11:38:12Z</time>
      </trkpt>
      <trkpt lat="42.7348" lon="1.92604">
        <ele>1351.6</ele>
        <time>2024-10-11T11:38:13Z</time>
      </trkpt>
      <trkpt lat="42.73482" lon="1.92605">
        <ele>1351.6</ele>
        <time>2024-10-11T11:38:14Z</time>
      </trkpt>
      <trkpt lat="42.73483" lon="1.92606">
        <ele>1352.4</ele>
        <time>2024-10-11T11:38:15Z</time>
      </trkpt>
      <trkpt lat="42.73485" lon="1.92607">
        <ele>1352.4</ele>
        <time>2024-10-11T11:38:16Z</time>
      </trkpt>
      <trkpt lat="42.73486" lon="1.92608">
        <ele>1352.4</ele>
        <time>2024-10-11T11:38:17Z</time>
      </trkpt>
      <trkpt lat="42.73487" lon="1.9261">
        <ele>1352.4</ele>
        <time>2024-10-11T11:38:18Z</time>
      </trkpt>
      <trkpt lat="42.73488" lon="1.92611">
        <ele>1352.4</ele>
        <time>2024-10-11T11:38:19Z</time>
      </trkpt>
      <trkpt lat="42.7349" lon="1.92612">
        <ele>1353</ele>
        <time>2024-10-11T11:38:20Z</time>
      </trkpt>
      <trkpt lat="42.73491" lon="1.92612">
        <ele>1353</ele>
        <time>2024-10-11T11:38:21Z</time>
      </trkpt>
      <trkpt lat="42.73493" lon="1.92613">
        <ele>1353.2</ele>
        <time>2024-10-11T11:38:22Z</time>
      </trkpt>
      <trkpt lat="42.73494" lon="1.92614">
        <ele>1353.2</ele>
        <time>2024-10-11T11:38:23Z</time>
      </trkpt>
      <trkpt lat="42.73495" lon="1.92615">
        <ele>1353.8</ele>
        <time>2024-10-11T11:38:24Z</time>
      </trkpt>
      <trkpt lat="42.73497" lon="1.92616">
        <ele>1354</ele>
        <time>2024-10-11T11:38:25Z</time>
      </trkpt>
      <trkpt lat="42.73498" lon="1.92617">
        <ele>1354</ele>
        <time>2024-10-11T11:38:26Z</time>
      </trkpt>
      <trkpt lat="42.735" lon="1.92618">
        <ele>1354</ele>
        <time>2024-10-11T11:38:27Z</time>
      </trkpt>
      <trkpt lat="42.73501" lon="1.92619">
        <ele>1354</ele>
        <time>2024-10-11T11:38:28Z</time>
      </trkpt>
      <trkpt lat="42.73502" lon="1.92617">
        <ele>1354.8</ele>
        <time>2024-10-11T11:38:29Z</time>
      </trkpt>
      <trkpt lat="42.73502" lon="1.92616">
        <ele>1355</ele>
        <time>2024-10-11T11:38:30Z</time>
      </trkpt>
      <trkpt lat="42.73502" lon="1.92616">
        <ele>1355</ele>
        <time>2024-10-11T11:38:31Z</time>
      </trkpt>
      <trkpt lat="42.73501" lon="1.92615">
        <ele>1355</ele>
        <time>2024-10-11T11:38:32Z</time>
      </trkpt>
      <trkpt lat="42.73501" lon="1.92614">
        <ele>1355</ele>
        <time>2024-10-11T11:38:33Z</time>
      </trkpt>
      <trkpt lat="42.73501" lon="1.92613">
        <ele>1355.2</ele>
        <time>2024-10-11T11:38:34Z</time>
      </trkpt>
      <trkpt lat="42.73501" lon="1.92612">
        <ele>1355.2</ele>
        <time>2024-10-11T11:38:35Z</time>
      </trkpt>
      <trkpt lat="42.73501" lon="1.92611">
        <ele>1355.2</ele>
        <time>2024-10-11T11:38:36Z</time>
      </trkpt>
      <trkpt lat="42.73501" lon="1.9261">
        <ele>1355.8</ele>
        <time>2024-10-11T11:38:37Z</time>
      </trkpt>
      <trkpt lat="42.73501" lon="1.92609">
        <ele>1355.8</ele>
        <time>2024-10-11T11:38:38Z</time>
      </trkpt>
      <trkpt lat="42.73501" lon="1.92608">
        <ele>1355.8</ele>
        <time>2024-10-11T11:38:39Z</time>
      </trkpt>
      <trkpt lat="42.735" lon="1.92607">
        <ele>1355.8</ele>
        <time>2024-10-11T11:38:40Z</time>
      </trkpt>
      <trkpt lat="42.735" lon="1.92606">
        <ele>1355.8</ele>
        <time>2024-10-11T11:38:41Z</time>
      </trkpt>
      <trkpt lat="42.73499" lon="1.92605">
        <ele>1355.8</ele>
        <time>2024-10-11T11:38:42Z</time>
      </trkpt>
      <trkpt lat="42.73497" lon="1.92604">
        <ele>1355.8</ele>
        <time>2024-10-11T11:38:43Z</time>
      </trkpt>
      <trkpt lat="42.73495" lon="1.92603">
        <ele>1356</ele>
        <time>2024-10-11T11:38:44Z</time>
      </trkpt>
      <trkpt lat="42.73494" lon="1.92602">
        <ele>1356</ele>
        <time>2024-10-11T11:38:45Z</time>
      </trkpt>
      <trkpt lat="42.73492" lon="1.92601">
        <ele>1356</ele>
        <time>2024-10-11T11:38:46Z</time>
      </trkpt>
      <trkpt lat="42.73491" lon="1.926">
        <ele>1356.6</ele>
        <time>2024-10-11T11:38:47Z</time>
      </trkpt>
      <trkpt lat="42.7349" lon="1.92599">
        <ele>1356.8</ele>
        <time>2024-10-11T11:38:48Z</time>
      </trkpt>
      <trkpt lat="42.73489" lon="1.92597">
        <ele>1356.8</ele>
        <time>2024-10-11T11:38:49Z</time>
      </trkpt>
      <trkpt lat="42.73488" lon="1.92595">
        <ele>1356.8</ele>
        <time>2024-10-11T11:38:50Z</time>
      </trkpt>
      <trkpt lat="42.73488" lon="1.92593">
        <ele>1356.6</ele>
        <time>2024-10-11T11:38:51Z</time>
      </trkpt>
      <trkpt lat="42.73488" lon="1.92591">
        <ele>1356.6</ele>
        <time>2024-10-11T11:38:52Z</time>
      </trkpt>
      <trkpt lat="42.73489" lon="1.92589">
        <ele>1356.8</ele>
        <time>2024-10-11T11:38:53Z</time>
      </trkpt>
      <trkpt lat="42.7349" lon="1.92588">
        <ele>1356.8</ele>
        <time>2024-10-11T11:38:54Z</time>
      </trkpt>
      <trkpt lat="42.73492" lon="1.92588">
        <ele>1356.8</ele>
        <time>2024-10-11T11:38:55Z</time>
      </trkpt>
      <trkpt lat="42.73493" lon="1.92589">
        <ele>1356.8</ele>
        <time>2024-10-11T11:38:56Z</time>
      </trkpt>
      <trkpt lat="42.73495" lon="1.92589">
        <ele>1358</ele>
        <time>2024-10-11T11:38:57Z</time>
      </trkpt>
      <trkpt lat="42.73496" lon="1.9259">
        <ele>1358</ele>
        <time>2024-10-11T11:38:58Z</time>
      </trkpt>
      <trkpt lat="42.73498" lon="1.92591">
        <ele>1358</ele>
        <time>2024-10-11T11:38:59Z</time>
      </trkpt>
      <trkpt lat="42.73499" lon="1.92593">
        <ele>1358.6</ele>
        <time>2024-10-11T11:39:00Z</time>
      </trkpt>
      <trkpt lat="42.735" lon="1.92595">
        <ele>1358.8</ele>
        <time>2024-10-11T11:39:01Z</time>
      </trkpt>
      <trkpt lat="42.73502" lon="1.92596">
        <ele>1358.8</ele>
        <time>2024-10-11T11:39:02Z</time>
      </trkpt>
      <trkpt lat="42.73503" lon="1.92598">
        <ele>1358.8</ele>
        <time>2024-10-11T11:39:03Z</time>
      </trkpt>
      <trkpt lat="42.73505" lon="1.92599">
        <ele>1358.8</ele>
        <time>2024-10-11T11:39:04Z</time>
      </trkpt>
      <trkpt lat="42.73506" lon="1.92601">
        <ele>1358.8</ele>
        <time>2024-10-11T11:39:05Z</time>
      </trkpt>
      <trkpt lat="42.73508" lon="1.92602">
        <ele>1359.2</ele>
        <time>2024-10-11T11:39:06Z</time>
      </trkpt>
      <trkpt lat="42.73509" lon="1.92603">
        <ele>1359.2</ele>
        <time>2024-10-11T11:39:07Z</time>
      </trkpt>
      <trkpt lat="42.73511" lon="1.92604">
        <ele>1359.2</ele>
        <time>2024-10-11T11:39:08Z</time>
      </trkpt>
      <trkpt lat="42.73513" lon="1.92606">
        <ele>1359.8</ele>
        <time>2024-10-11T11:39:09Z</time>
      </trkpt>
      <trkpt lat="42.73514" lon="1.92607">
        <ele>1360</ele>
        <time>2024-10-11T11:39:10Z</time>
      </trkpt>
      <trkpt lat="42.73515" lon="1.92608">
        <ele>1360</ele>
        <time>2024-10-11T11:39:11Z</time>
      </trkpt>
      <trkpt lat="42.73517" lon="1.9261">
        <ele>1360</ele>
        <time>2024-10-11T11:39:12Z</time>
      </trkpt>
      <trkpt lat="42.73518" lon="1.92611">
        <ele>1360.6</ele>
        <time>2024-10-11T11:39:13Z</time>
      </trkpt>
      <trkpt lat="42.73519" lon="1.92613">
        <ele>1360.6</ele>
        <time>2024-10-11T11:39:14Z</time>
      </trkpt>
      <trkpt lat="42.73521" lon="1.92614">
        <ele>1360.6</ele>
        <time>2024-10-11T11:39:15Z</time>
      </trkpt>
      <trkpt lat="42.73522" lon="1.92616">
        <ele>1360.6</ele>
        <time>2024-10-11T11:39:16Z</time>
      </trkpt>
      <trkpt lat="42.73524" lon="1.92617">
        <ele>1360.6</ele>
        <time>2024-10-11T11:39:17Z</time>
      </trkpt>
      <trkpt lat="42.73525" lon="1.92619">
        <ele>1361</ele>
        <time>2024-10-11T11:39:18Z</time>
      </trkpt>
      <trkpt lat="42.73526" lon="1.9262">
        <ele>1361.2</ele>
        <time>2024-10-11T11:39:19Z</time>
      </trkpt>
      <trkpt lat="42.73527" lon="1.92622">
        <ele>1361.2</ele>
        <time>2024-10-11T11:39:20Z</time>
      </trkpt>
      <trkpt lat="42.73528" lon="1.92624">
        <ele>1361.2</ele>
        <time>2024-10-11T11:39:21Z</time>
      </trkpt>
      <trkpt lat="42.73529" lon="1.92625">
        <ele>1361.6</ele>
        <time>2024-10-11T11:39:22Z</time>
      </trkpt>
      <trkpt lat="42.73531" lon="1.92627">
        <ele>1362</ele>
        <time>2024-10-11T11:39:23Z</time>
      </trkpt>
      <trkpt lat="42.73531" lon="1.92629">
        <ele>1362</ele>
        <time>2024-10-11T11:39:24Z</time>
      </trkpt>
      <trkpt lat="42.73532" lon="1.9263">
        <ele>1362</ele>
        <time>2024-10-11T11:39:25Z</time>
      </trkpt>
      <trkpt lat="42.73533" lon="1.92632">
        <ele>1362</ele>
        <time>2024-10-11T11:39:26Z</time>
      </trkpt>
      <trkpt lat="42.73534" lon="1.92634">
        <ele>1362.6</ele>
        <time>2024-10-11T11:39:27Z</time>
      </trkpt>
      <trkpt lat="42.73535" lon="1.92636">
        <ele>1362.6</ele>
        <time>2024-10-11T11:39:28Z</time>
      </trkpt>
      <trkpt lat="42.73536" lon="1.92638">
        <ele>1363</ele>
        <time>2024-10-11T11:39:29Z</time>
      </trkpt>
      <trkpt lat="42.73537" lon="1.9264">
        <ele>1363</ele>
        <time>2024-10-11T11:39:30Z</time>
      </trkpt>
      <trkpt lat="42.73538" lon="1.92642">
        <ele>1363</ele>
        <time>2024-10-11T11:39:31Z</time>
      </trkpt>
      <trkpt lat="42.7354" lon="1.92643">
        <ele>1363.6</ele>
        <time>2024-10-11T11:39:32Z</time>
      </trkpt>
      <trkpt lat="42.73541" lon="1.92645">
        <ele>1363.8</ele>
        <time>2024-10-11T11:39:33Z</time>
      </trkpt>
      <trkpt lat="42.73542" lon="1.92646">
        <ele>1363.8</ele>
        <time>2024-10-11T11:39:34Z</time>
      </trkpt>
      <trkpt lat="42.73543" lon="1.92648">
        <ele>1363.8</ele>
        <time>2024-10-11T11:39:35Z</time>
      </trkpt>
      <trkpt lat="42.73544" lon="1.92649">
        <ele>1363.8</ele>
        <time>2024-10-11T11:39:36Z</time>
      </trkpt>
      <trkpt lat="42.73545" lon="1.92651">
        <ele>1364.8</ele>
        <time>2024-10-11T11:39:37Z</time>
      </trkpt>
      <trkpt lat="42.73546" lon="1.92653">
        <ele>1364.8</ele>
        <time>2024-10-11T11:39:38Z</time>
      </trkpt>
      <trkpt lat="42.73547" lon="1.92655">
        <ele>1364.8</ele>
        <time>2024-10-11T11:39:39Z</time>
      </trkpt>
      <trkpt lat="42.73547" lon="1.92657">
        <ele>1364.8</ele>
        <time>2024-10-11T11:39:40Z</time>
      </trkpt>
      <trkpt lat="42.73548" lon="1.92658">
        <ele>1365.6</ele>
        <time>2024-10-11T11:39:41Z</time>
      </trkpt>
      <trkpt lat="42.73549" lon="1.9266">
        <ele>1365.6</ele>
        <time>2024-10-11T11:39:42Z</time>
      </trkpt>
      <trkpt lat="42.7355" lon="1.92662">
        <ele>1365.6</ele>
        <time>2024-10-11T11:39:43Z</time>
      </trkpt>
      <trkpt lat="42.7355" lon="1.92664">
        <ele>1365.6</ele>
        <time>2024-10-11T11:39:44Z</time>
      </trkpt>
      <trkpt lat="42.73551" lon="1.92666">
        <ele>1365.6</ele>
        <time>2024-10-11T11:39:45Z</time>
      </trkpt>
      <trkpt lat="42.73552" lon="1.92668">
        <ele>1365.6</ele>
        <time>2024-10-11T11:39:46Z</time>
      </trkpt>
      <trkpt lat="42.73553" lon="1.9267">
        <ele>1366.6</ele>
        <time>2024-10-11T11:39:47Z</time>
      </trkpt>
      <trkpt lat="42.73554" lon="1.92672">
        <ele>1366.6</ele>
        <time>2024-10-11T11:39:48Z</time>
      </trkpt>
      <trkpt lat="42.73555" lon="1.92674">
        <ele>1366.6</ele>
        <time>2024-10-11T11:39:49Z</time>
      </trkpt>
      <trkpt lat="42.73555" lon="1.92676">
        <ele>1367</ele>
        <time>2024-10-11T11:39:50Z</time>
      </trkpt>
      <trkpt lat="42.73556" lon="1.92678">
        <ele>1367.4</ele>
        <time>2024-10-11T11:39:51Z</time>
      </trkpt>
      <trkpt lat="42.73556" lon="1.92679">
        <ele>1367.4</ele>
        <time>2024-10-11T11:39:52Z</time>
      </trkpt>
      <trkpt lat="42.73557" lon="1.92681">
        <ele>1367.4</ele>
        <time>2024-10-11T11:39:53Z</time>
      </trkpt>
      <trkpt lat="42.73558" lon="1.92683">
        <ele>1368</ele>
        <time>2024-10-11T11:39:54Z</time>
      </trkpt>
      <trkpt lat="42.73559" lon="1.92685">
        <ele>1368.4</ele>
        <time>2024-10-11T11:39:55Z</time>
      </trkpt>
      <trkpt lat="42.73559" lon="1.92687">
        <ele>1368.4</ele>
        <time>2024-10-11T11:39:56Z</time>
      </trkpt>
      <trkpt lat="42.7356" lon="1.92689">
        <ele>1368.4</ele>
        <time>2024-10-11T11:39:57Z</time>
      </trkpt>
      <trkpt lat="42.7356" lon="1.9269">
        <ele>1368.4</ele>
        <time>2024-10-11T11:39:58Z</time>
      </trkpt>
      <trkpt lat="42.73561" lon="1.92692">
        <ele>1368.4</ele>
        <time>2024-10-11T11:39:59Z</time>
      </trkpt>
      <trkpt lat="42.73562" lon="1.92694">
        <ele>1368.8</ele>
        <time>2024-10-11T11:40:00Z</time>
      </trkpt>
      <trkpt lat="42.73563" lon="1.92696">
        <ele>1368.8</ele>
        <time>2024-10-11T11:40:01Z</time>
      </trkpt>
      <trkpt lat="42.73564" lon="1.92697">
        <ele>1368.8</ele>
        <time>2024-10-11T11:40:02Z</time>
      </trkpt>
      <trkpt lat="42.73565" lon="1.92699">
        <ele>1369.4</ele>
        <time>2024-10-11T11:40:03Z</time>
      </trkpt>
      <trkpt lat="42.73566" lon="1.927">
        <ele>1369.8</ele>
        <time>2024-10-11T11:40:04Z</time>
      </trkpt>
      <trkpt lat="42.73567" lon="1.92702">
        <ele>1369.8</ele>
        <time>2024-10-11T11:40:05Z</time>
      </trkpt>
      <trkpt lat="42.73568" lon="1.92704">
        <ele>1369.8</ele>
        <time>2024-10-11T11:40:06Z</time>
      </trkpt>
      <trkpt lat="42.7357" lon="1.92705">
        <ele>1370.4</ele>
        <time>2024-10-11T11:40:07Z</time>
      </trkpt>
      <trkpt lat="42.73571" lon="1.92707">
        <ele>1370.4</ele>
        <time>2024-10-11T11:40:08Z</time>
      </trkpt>
      <trkpt lat="42.73572" lon="1.92709">
        <ele>1370.4</ele>
        <time>2024-10-11T11:40:09Z</time>
      </trkpt>
      <trkpt lat="42.73573" lon="1.9271">
        <ele>1370.4</ele>
        <time>2024-10-11T11:40:10Z</time>
      </trkpt>
      <trkpt lat="42.73574" lon="1.92712">
        <ele>1370.4</ele>
        <time>2024-10-11T11:40:11Z</time>
      </trkpt>
      <trkpt lat="42.73575" lon="1.92713">
        <ele>1370.4</ele>
        <time>2024-10-11T11:40:12Z</time>
      </trkpt>
      <trkpt lat="42.73576" lon="1.92715">
        <ele>1370.8</ele>
        <time>2024-10-11T11:40:13Z</time>
      </trkpt>
      <trkpt lat="42.73577" lon="1.92717">
        <ele>1371.2</ele>
        <time>2024-10-11T11:40:14Z</time>
      </trkpt>
      <trkpt lat="42.73579" lon="1.92718">
        <ele>1371.2</ele>
        <time>2024-10-11T11:40:15Z</time>
      </trkpt>
      <trkpt lat="42.7358" lon="1.9272">
        <ele>1371.2</ele>
        <time>2024-10-11T11:40:16Z</time>
      </trkpt>
      <trkpt lat="42.73581" lon="1.92722">
        <ele>1371.4</ele>
        <time>2024-10-11T11:40:17Z</time>
      </trkpt>
      <trkpt lat="42.73582" lon="1.92724">
        <ele>1371.6</ele>
        <time>2024-10-11T11:40:18Z</time>
      </trkpt>
      <trkpt lat="42.73583" lon="1.92726">
        <ele>1371.6</ele>
        <time>2024-10-11T11:40:19Z</time>
      </trkpt>
      <trkpt lat="42.73583" lon="1.92728">
        <ele>1371.6</ele>
        <time>2024-10-11T11:40:20Z</time>
      </trkpt>
      <trkpt lat="42.73584" lon="1.9273">
        <ele>1371.6</ele>
        <time>2024-10-11T11:40:21Z</time>
      </trkpt>
      <trkpt lat="42.73585" lon="1.92732">
        <ele>1372.6</ele>
        <time>2024-10-11T11:40:22Z</time>
      </trkpt>
      <trkpt lat="42.73585" lon="1.92734">
        <ele>1372.6</ele>
        <time>2024-10-11T11:40:23Z</time>
      </trkpt>
      <trkpt lat="42.73585" lon="1.92736">
        <ele>1372.6</ele>
        <time>2024-10-11T11:40:24Z</time>
      </trkpt>
      <trkpt lat="42.73586" lon="1.92738">
        <ele>1372.6</ele>
        <time>2024-10-11T11:40:25Z</time>
      </trkpt>
      <trkpt lat="42.73587" lon="1.9274">
        <ele>1373</ele>
        <time>2024-10-11T11:40:26Z</time>
      </trkpt>
      <trkpt lat="42.73587" lon="1.92743">
        <ele>1373.2</ele>
        <time>2024-10-11T11:40:27Z</time>
      </trkpt>
      <trkpt lat="42.73587" lon="1.92745">
        <ele>1373.2</ele>
        <time>2024-10-11T11:40:28Z</time>
      </trkpt>
      <trkpt lat="42.73587" lon="1.92748">
        <ele>1373.2</ele>
        <time>2024-10-11T11:40:29Z</time>
      </trkpt>
      <trkpt lat="42.73587" lon="1.9275">
        <ele>1373.8</ele>
        <time>2024-10-11T11:40:30Z</time>
      </trkpt>
      <trkpt lat="42.73587" lon="1.92752">
        <ele>1374.2</ele>
        <time>2024-10-11T11:40:31Z</time>
      </trkpt>
      <trkpt lat="42.73587" lon="1.92754">
        <ele>1374.2</ele>
        <time>2024-10-11T11:40:32Z</time>
      </trkpt>
      <trkpt lat="42.73587" lon="1.92756">
        <ele>1374.2</ele>
        <time>2024-10-11T11:40:33Z</time>
      </trkpt>
      <trkpt lat="42.73588" lon="1.92758">
        <ele>1374.8</ele>
        <time>2024-10-11T11:40:34Z</time>
      </trkpt>
      <trkpt lat="42.73588" lon="1.9276">
        <ele>1374.8</ele>
        <time>2024-10-11T11:40:35Z</time>
      </trkpt>
      <trkpt lat="42.73588" lon="1.92762">
        <ele>1375</ele>
        <time>2024-10-11T11:40:36Z</time>
      </trkpt>
      <trkpt lat="42.73588" lon="1.92764">
        <ele>1375</ele>
        <time>2024-10-11T11:40:37Z</time>
      </trkpt>
      <trkpt lat="42.73589" lon="1.92766">
        <ele>1375</ele>
        <time>2024-10-11T11:40:38Z</time>
      </trkpt>
      <trkpt lat="42.7359" lon="1.92768">
        <ele>1375.4</ele>
        <time>2024-10-11T11:40:39Z</time>
      </trkpt>
      <trkpt lat="42.73591" lon="1.9277">
        <ele>1375.8</ele>
        <time>2024-10-11T11:40:40Z</time>
      </trkpt>
      <trkpt lat="42.73592" lon="1.92772">
        <ele>1375.8</ele>
        <time>2024-10-11T11:40:41Z</time>
      </trkpt>
      <trkpt lat="42.73594" lon="1.92773">
        <ele>1375.8</ele>
        <time>2024-10-11T11:40:42Z</time>
      </trkpt>
      <trkpt lat="42.73596" lon="1.92773">
        <ele>1375.8</ele>
        <time>2024-10-11T11:40:43Z</time>
      </trkpt>
      <trkpt lat="42.73597" lon="1.92773">
        <ele>1376.6</ele>
        <time>2024-10-11T11:40:44Z</time>
      </trkpt>
      <trkpt lat="42.73598" lon="1.92771">
        <ele>1376.6</ele>
        <time>2024-10-11T11:40:45Z</time>
      </trkpt>
      <trkpt lat="42.73599" lon="1.92769">
        <ele>1376.6</ele>
        <time>2024-10-11T11:40:46Z</time>
      </trkpt>
      <trkpt lat="42.73599" lon="1.92767">
        <ele>1376.6</ele>
        <time>2024-10-11T11:40:47Z</time>
      </trkpt>
      <trkpt lat="42.73599" lon="1.92765">
        <ele>1376.6</ele>
        <time>2024-10-11T11:40:48Z</time>
      </trkpt>
      <trkpt lat="42.73599" lon="1.92763">
        <ele>1377.2</ele>
        <time>2024-10-11T11:40:49Z</time>
      </trkpt>
      <trkpt lat="42.73599" lon="1.9276">
        <ele>1377.2</ele>
        <time>2024-10-11T11:40:50Z</time>
      </trkpt>
      <trkpt lat="42.73598" lon="1.92758">
        <ele>1377.2</ele>
        <time>2024-10-11T11:40:51Z</time>
      </trkpt>
      <trkpt lat="42.73598" lon="1.92755">
        <ele>1377.2</ele>
        <time>2024-10-11T11:40:52Z</time>
      </trkpt>
      <trkpt lat="42.73598" lon="1.92753">
        <ele>1377.6</ele>
        <time>2024-10-11T11:40:53Z</time>
      </trkpt>
      <trkpt lat="42.73597" lon="1.92751">
        <ele>1377.6</ele>
        <time>2024-10-11T11:40:54Z</time>
      </trkpt>
      <trkpt lat="42.73597" lon="1.92749">
        <ele>1377.6</ele>
        <time>2024-10-11T11:40:55Z</time>
      </trkpt>
      <trkpt lat="42.73597" lon="1.92746">
        <ele>1377.6</ele>
        <time>2024-10-11T11:40:56Z</time>
      </trkpt>
      <trkpt lat="42.73596" lon="1.92744">
        <ele>1377.6</ele>
        <time>2024-10-11T11:40:57Z</time>
      </trkpt>
      <trkpt lat="42.73596" lon="1.92742">
        <ele>1377.6</ele>
        <time>2024-10-11T11:40:58Z</time>
      </trkpt>
      <trkpt lat="42.73596" lon="1.92739">
        <ele>1378.2</ele>
        <time>2024-10-11T11:40:59Z</time>
      </trkpt>
      <trkpt lat="42.73596" lon="1.92737">
        <ele>1378.2</ele>
        <time>2024-10-11T11:41:00Z</time>
      </trkpt>
      <trkpt lat="42.73596" lon="1.92735">
        <ele>1378.2</ele>
        <time>2024-10-11T11:41:01Z</time>
      </trkpt>
      <trkpt lat="42.73595" lon="1.92733">
        <ele>1378.2</ele>
        <time>2024-10-11T11:41:02Z</time>
      </trkpt>
      <trkpt lat="42.73595" lon="1.9273">
        <ele>1378.8</ele>
        <time>2024-10-11T11:41:03Z</time>
      </trkpt>
      <trkpt lat="42.73595" lon="1.92728">
        <ele>1378.8</ele>
        <time>2024-10-11T11:41:04Z</time>
      </trkpt>
      <trkpt lat="42.73594" lon="1.92726">
        <ele>1378.8</ele>
        <time>2024-10-11T11:41:05Z</time>
      </trkpt>
      <trkpt lat="42.73594" lon="1.92724">
        <ele>1378.8</ele>
        <time>2024-10-11T11:41:06Z</time>
      </trkpt>
      <trkpt lat="42.73593" lon="1.92722">
        <ele>1379.2</ele>
        <time>2024-10-11T11:41:07Z</time>
      </trkpt>
      <trkpt lat="42.73593" lon="1.9272">
        <ele>1379.4</ele>
        <time>2024-10-11T11:41:08Z</time>
      </trkpt>
      <trkpt lat="42.73592" lon="1.92718">
        <ele>1379.4</ele>
        <time>2024-10-11T11:41:09Z</time>
      </trkpt>
      <trkpt lat="42.73592" lon="1.92716">
        <ele>1379.4</ele>
        <time>2024-10-11T11:41:10Z</time>
      </trkpt>
      <trkpt lat="42.73591" lon="1.92714">
        <ele>1379.4</ele>
        <time>2024-10-11T11:41:11Z</time>
      </trkpt>
      <trkpt lat="42.73592" lon="1.92712">
        <ele>1379.6</ele>
        <time>2024-10-11T11:41:12Z</time>
      </trkpt>
      <trkpt lat="42.73593" lon="1.9271">
        <ele>1379.6</ele>
        <time>2024-10-11T11:41:13Z</time>
      </trkpt>
      <trkpt lat="42.73594" lon="1.92709">
        <ele>1379.6</ele>
        <time>2024-10-11T11:41:14Z</time>
      </trkpt>
      <trkpt lat="42.73595" lon="1.92708">
        <ele>1380.4</ele>
        <time>2024-10-11T11:41:15Z</time>
      </trkpt>
      <trkpt lat="42.73597" lon="1.92708">
        <ele>1380.6</ele>
        <time>2024-10-11T11:41:16Z</time>
      </trkpt>
      <trkpt lat="42.73598" lon="1.92708">
        <ele>1380.6</ele>
        <time>2024-10-11T11:41:17Z</time>
      </trkpt>
      <trkpt lat="42.736" lon="1.92709">
        <ele>1380.6</ele>
        <time>2024-10-11T11:41:18Z</time>
      </trkpt>
      <trkpt lat="42.736" lon="1.92711">
        <ele>1380.6</ele>
        <time>2024-10-11T11:41:19Z</time>
      </trkpt>
      <trkpt lat="42.73601" lon="1.92712">
        <ele>1380.6</ele>
        <time>2024-10-11T11:41:20Z</time>
      </trkpt>
      <trkpt lat="42.73602" lon="1.92714">
        <ele>1381.4</ele>
        <time>2024-10-11T11:41:21Z</time>
      </trkpt>
      <trkpt lat="42.73603" lon="1.92716">
        <ele>1381.4</ele>
        <time>2024-10-11T11:41:22Z</time>
      </trkpt>
      <trkpt lat="42.73604" lon="1.92717">
        <ele>1381.4</ele>
        <time>2024-10-11T11:41:23Z</time>
      </trkpt>
      <trkpt lat="42.73604" lon="1.9272">
        <ele>1381.4</ele>
        <time>2024-10-11T11:41:24Z</time>
      </trkpt>
      <trkpt lat="42.73605" lon="1.92722">
        <ele>1381.4</ele>
        <time>2024-10-11T11:41:25Z</time>
      </trkpt>
      <trkpt lat="42.73606" lon="1.92724">
        <ele>1381.8</ele>
        <time>2024-10-11T11:41:26Z</time>
      </trkpt>
      <trkpt lat="42.73606" lon="1.92727">
        <ele>1381.8</ele>
        <time>2024-10-11T11:41:27Z</time>
      </trkpt>
      <trkpt lat="42.73607" lon="1.92729">
        <ele>1382.2</ele>
        <time>2024-10-11T11:41:28Z</time>
      </trkpt>
      <trkpt lat="42.73607" lon="1.92732">
        <ele>1382.2</ele>
        <time>2024-10-11T11:41:29Z</time>
      </trkpt>
      <trkpt lat="42.73608" lon="1.92735">
        <ele>1382.4</ele>
        <time>2024-10-11T11:41:30Z</time>
      </trkpt>
      <trkpt lat="42.73608" lon="1.92737">
        <ele>1382.4</ele>
        <time>2024-10-11T11:41:31Z</time>
      </trkpt>
      <trkpt lat="42.73609" lon="1.92741">
        <ele>1382.4</ele>
        <time>2024-10-11T11:41:32Z</time>
      </trkpt>
      <trkpt lat="42.73609" lon="1.92742">
        <ele>1382.4</ele>
        <time>2024-10-11T11:41:33Z</time>
      </trkpt>
      <trkpt lat="42.7361" lon="1.92746">
        <ele>1382.4</ele>
        <time>2024-10-11T11:41:34Z</time>
      </trkpt>
      <trkpt lat="42.7361" lon="1.92747">
        <ele>1383</ele>
        <time>2024-10-11T11:41:35Z</time>
      </trkpt>
      <trkpt lat="42.7361" lon="1.9275">
        <ele>1383</ele>
        <time>2024-10-11T11:41:36Z</time>
      </trkpt>
      <trkpt lat="42.73611" lon="1.92752">
        <ele>1383</ele>
        <time>2024-10-11T11:41:37Z</time>
      </trkpt>
      <trkpt lat="42.73611" lon="1.92755">
        <ele>1383.4</ele>
        <time>2024-10-11T11:41:38Z</time>
      </trkpt>
      <trkpt lat="42.73611" lon="1.92757">
        <ele>1383.6</ele>
        <time>2024-10-11T11:41:39Z</time>
      </trkpt>
      <trkpt lat="42.73611" lon="1.9276">
        <ele>1383.6</ele>
        <time>2024-10-11T11:41:40Z</time>
      </trkpt>
      <trkpt lat="42.73611" lon="1.92761">
        <ele>1383.6</ele>
        <time>2024-10-11T11:41:41Z</time>
      </trkpt>
      <trkpt lat="42.73611" lon="1.92764">
        <ele>1383.6</ele>
        <time>2024-10-11T11:41:42Z</time>
      </trkpt>
      <trkpt lat="42.73612" lon="1.92766">
        <ele>1384</ele>
        <time>2024-10-11T11:41:43Z</time>
      </trkpt>
      <trkpt lat="42.73612" lon="1.92768">
        <ele>1384</ele>
        <time>2024-10-11T11:41:44Z</time>
      </trkpt>
      <trkpt lat="42.73612" lon="1.92771">
        <ele>1384</ele>
        <time>2024-10-11T11:41:45Z</time>
      </trkpt>
      <trkpt lat="42.73613" lon="1.92772">
        <ele>1384</ele>
        <time>2024-10-11T11:41:46Z</time>
      </trkpt>
      <trkpt lat="42.73612" lon="1.92774">
        <ele>1384.6</ele>
        <time>2024-10-11T11:41:47Z</time>
      </trkpt>
      <trkpt lat="42.73612" lon="1.92776">
        <ele>1384.8</ele>
        <time>2024-10-11T11:41:48Z</time>
      </trkpt>
      <trkpt lat="42.73612" lon="1.92779">
        <ele>1384.8</ele>
        <time>2024-10-11T11:41:49Z</time>
      </trkpt>
      <trkpt lat="42.73612" lon="1.92781">
        <ele>1384.8</ele>
        <time>2024-10-11T11:41:50Z</time>
      </trkpt>
      <trkpt lat="42.73613" lon="1.92783">
        <ele>1385.2</ele>
        <time>2024-10-11T11:41:51Z</time>
      </trkpt>
      <trkpt lat="42.73613" lon="1.92785">
        <ele>1385.8</ele>
        <time>2024-10-11T11:41:52Z</time>
      </trkpt>
      <trkpt lat="42.73614" lon="1.92787">
        <ele>1385.8</ele>
        <time>2024-10-11T11:41:53Z</time>
      </trkpt>
      <trkpt lat="42.73614" lon="1.92789">
        <ele>1385.8</ele>
        <time>2024-10-11T11:41:54Z</time>
      </trkpt>
      <trkpt lat="42.73615" lon="1.92791">
        <ele>1385.8</ele>
        <time>2024-10-11T11:41:55Z</time>
      </trkpt>
      <trkpt lat="42.73615" lon="1.92793">
        <ele>1385.8</ele>
        <time>2024-10-11T11:41:56Z</time>
      </trkpt>
      <trkpt lat="42.73615" lon="1.92795">
        <ele>1386.6</ele>
        <time>2024-10-11T11:41:57Z</time>
      </trkpt>
      <trkpt lat="42.73615" lon="1.92797">
        <ele>1386.6</ele>
        <time>2024-10-11T11:41:58Z</time>
      </trkpt>
      <trkpt lat="42.73616" lon="1.92799">
        <ele>1386.6</ele>
        <time>2024-10-11T11:41:59Z</time>
      </trkpt>
      <trkpt lat="42.73616" lon="1.92801">
        <ele>1387.2</ele>
        <time>2024-10-11T11:42:00Z</time>
      </trkpt>
      <trkpt lat="42.73616" lon="1.92803">
        <ele>1387.4</ele>
        <time>2024-10-11T11:42:01Z</time>
      </trkpt>
      <trkpt lat="42.73617" lon="1.92805">
        <ele>1387.4</ele>
        <time>2024-10-11T11:42:02Z</time>
      </trkpt>
      <trkpt lat="42.73617" lon="1.92807">
        <ele>1387.4</ele>
        <time>2024-10-11T11:42:03Z</time>
      </trkpt>
      <trkpt lat="42.73617" lon="1.9281">
        <ele>1388.2</ele>
        <time>2024-10-11T11:42:04Z</time>
      </trkpt>
      <trkpt lat="42.73617" lon="1.92812">
        <ele>1388.2</ele>
        <time>2024-10-11T11:42:05Z</time>
      </trkpt>
      <trkpt lat="42.73617" lon="1.92814">
        <ele>1388.6</ele>
        <time>2024-10-11T11:42:06Z</time>
      </trkpt>
      <trkpt lat="42.73619" lon="1.92816">
        <ele>1388.6</ele>
        <time>2024-10-11T11:42:07Z</time>
      </trkpt>
      <trkpt lat="42.73619" lon="1.92818">
        <ele>1388.6</ele>
        <time>2024-10-11T11:42:08Z</time>
      </trkpt>
      <trkpt lat="42.7362" lon="1.92819">
        <ele>1389.4</ele>
        <time>2024-10-11T11:42:09Z</time>
      </trkpt>
      <trkpt lat="42.73622" lon="1.92819">
        <ele>1389.8</ele>
        <time>2024-10-11T11:42:10Z</time>
      </trkpt>
      <trkpt lat="42.73624" lon="1.92819">
        <ele>1389.8</ele>
        <time>2024-10-11T11:42:11Z</time>
      </trkpt>
      <trkpt lat="42.73625" lon="1.92817">
        <ele>1389.8</ele>
        <time>2024-10-11T11:42:12Z</time>
      </trkpt>
      <trkpt lat="42.73626" lon="1.92815">
        <ele>1390.2</ele>
        <time>2024-10-11T11:42:13Z</time>
      </trkpt>
      <trkpt lat="42.73626" lon="1.92813">
        <ele>1390.2</ele>
        <time>2024-10-11T11:42:14Z</time>
      </trkpt>
      <trkpt lat="42.73626" lon="1.92811">
        <ele>1390.2</ele>
        <time>2024-10-11T11:42:15Z</time>
      </trkpt>
      <trkpt lat="42.73627" lon="1.92808">
        <ele>1390.2</ele>
        <time>2024-10-11T11:42:16Z</time>
      </trkpt>
      <trkpt lat="42.73627" lon="1.92805">
        <ele>1390.2</ele>
        <time>2024-10-11T11:42:17Z</time>
      </trkpt>
      <trkpt lat="42.73627" lon="1.92802">
        <ele>1390.2</ele>
        <time>2024-10-11T11:42:18Z</time>
      </trkpt>
      <trkpt lat="42.73626" lon="1.92801">
        <ele>1390.8</ele>
        <time>2024-10-11T11:42:19Z</time>
      </trkpt>
      <trkpt lat="42.73625" lon="1.92798">
        <ele>1391</ele>
        <time>2024-10-11T11:42:20Z</time>
      </trkpt>
      <trkpt lat="42.73624" lon="1.92794">
        <ele>1391</ele>
        <time>2024-10-11T11:42:21Z</time>
      </trkpt>
      <trkpt lat="42.73624" lon="1.92793">
        <ele>1391</ele>
        <time>2024-10-11T11:42:22Z</time>
      </trkpt>
      <trkpt lat="42.73623" lon="1.92791">
        <ele>1390.6</ele>
        <time>2024-10-11T11:42:23Z</time>
      </trkpt>
      <trkpt lat="42.73623" lon="1.92789">
        <ele>1391</ele>
        <time>2024-10-11T11:42:24Z</time>
      </trkpt>
      <trkpt lat="42.73623" lon="1.92789">
        <ele>1391</ele>
        <time>2024-10-11T11:42:25Z</time>
      </trkpt>
      <trkpt lat="42.73623" lon="1.92789">
        <ele>1391</ele>
        <time>2024-10-11T11:42:26Z</time>
      </trkpt>
      <trkpt lat="42.73623" lon="1.92789">
        <ele>1390.8</ele>
        <time>2024-10-11T11:42:27Z</time>
      </trkpt>
      <trkpt lat="42.73622" lon="1.92784">
        <ele>1390.8</ele>
        <time>2024-10-11T11:42:54Z</time>
      </trkpt>
      <trkpt lat="42.73623" lon="1.92781">
        <ele>1391.4</ele>
        <time>2024-10-11T11:42:55Z</time>
      </trkpt>
      <trkpt lat="42.73624" lon="1.92778">
        <ele>1391.4</ele>
        <time>2024-10-11T11:42:56Z</time>
      </trkpt>
      <trkpt lat="42.73624" lon="1.92774">
        <ele>1391.4</ele>
        <time>2024-10-11T11:42:57Z</time>
      </trkpt>
      <trkpt lat="42.73624" lon="1.92773">
        <ele>1391.4</ele>
        <time>2024-10-11T11:42:58Z</time>
      </trkpt>
      <trkpt lat="42.73624" lon="1.92768">
        <ele>1391.4</ele>
        <time>2024-10-11T11:42:59Z</time>
      </trkpt>
      <trkpt lat="42.73624" lon="1.92767">
        <ele>1391.4</ele>
        <time>2024-10-11T11:43:00Z</time>
      </trkpt>
      <trkpt lat="42.73624" lon="1.92762">
        <ele>1391.4</ele>
        <time>2024-10-11T11:43:01Z</time>
      </trkpt>
      <trkpt lat="42.73624" lon="1.92761">
        <ele>1391.4</ele>
        <time>2024-10-11T11:43:02Z</time>
      </trkpt>
      <trkpt lat="42.73624" lon="1.92756">
        <ele>1391.4</ele>
        <time>2024-10-11T11:43:03Z</time>
      </trkpt>
      <trkpt lat="42.73625" lon="1.92755">
        <ele>1392.2</ele>
        <time>2024-10-11T11:43:04Z</time>
      </trkpt>
      <trkpt lat="42.73625" lon="1.92751">
        <ele>1392.4</ele>
        <time>2024-10-11T11:43:05Z</time>
      </trkpt>
      <trkpt lat="42.73625" lon="1.92749">
        <ele>1392.4</ele>
        <time>2024-10-11T11:43:06Z</time>
      </trkpt>
      <trkpt lat="42.73625" lon="1.92746">
        <ele>1392.4</ele>
        <time>2024-10-11T11:43:07Z</time>
      </trkpt>
      <trkpt lat="42.73625" lon="1.92744">
        <ele>1393.2</ele>
        <time>2024-10-11T11:43:08Z</time>
      </trkpt>
      <trkpt lat="42.73626" lon="1.9274">
        <ele>1393.4</ele>
        <time>2024-10-11T11:43:09Z</time>
      </trkpt>
      <trkpt lat="42.73626" lon="1.92739">
        <ele>1393.4</ele>
        <time>2024-10-11T11:43:10Z</time>
      </trkpt>
      <trkpt lat="42.73626" lon="1.92734">
        <ele>1393.4</ele>
        <time>2024-10-11T11:43:11Z</time>
      </trkpt>
      <trkpt lat="42.73626" lon="1.92733">
        <ele>1393.8</ele>
        <time>2024-10-11T11:43:12Z</time>
      </trkpt>
      <trkpt lat="42.73626" lon="1.92729">
        <ele>1393.8</ele>
        <time>2024-10-11T11:43:13Z</time>
      </trkpt>
      <trkpt lat="42.73626" lon="1.92727">
        <ele>1394.4</ele>
        <time>2024-10-11T11:43:14Z</time>
      </trkpt>
      <trkpt lat="42.73626" lon="1.92724">
        <ele>1394.4</ele>
        <time>2024-10-11T11:43:15Z</time>
      </trkpt>
      <trkpt lat="42.73625" lon="1.92722">
        <ele>1394.4</ele>
        <time>2024-10-11T11:43:16Z</time>
      </trkpt>
      <trkpt lat="42.73625" lon="1.92719">
        <ele>1395</ele>
        <time>2024-10-11T11:43:17Z</time>
      </trkpt>
      <trkpt lat="42.73625" lon="1.92716">
        <ele>1394.6</ele>
        <time>2024-10-11T11:43:18Z</time>
      </trkpt>
      <trkpt lat="42.73625" lon="1.92714">
        <ele>1394.6</ele>
        <time>2024-10-11T11:43:19Z</time>
      </trkpt>
      <trkpt lat="42.73625" lon="1.92711">
        <ele>1394.6</ele>
        <time>2024-10-11T11:43:20Z</time>
      </trkpt>
      <trkpt lat="42.73624" lon="1.92708">
        <ele>1395.6</ele>
        <time>2024-10-11T11:43:21Z</time>
      </trkpt>
      <trkpt lat="42.73623" lon="1.92706">
        <ele>1396</ele>
        <time>2024-10-11T11:43:22Z</time>
      </trkpt>
      <trkpt lat="42.73623" lon="1.92704">
        <ele>1396</ele>
        <time>2024-10-11T11:43:23Z</time>
      </trkpt>
      <trkpt lat="42.73622" lon="1.92701">
        <ele>1396</ele>
        <time>2024-10-11T11:43:24Z</time>
      </trkpt>
      <trkpt lat="42.73621" lon="1.92699">
        <ele>1396.6</ele>
        <time>2024-10-11T11:43:25Z</time>
      </trkpt>
      <trkpt lat="42.7362" lon="1.92696">
        <ele>1396.6</ele>
        <time>2024-10-11T11:43:26Z</time>
      </trkpt>
      <trkpt lat="42.7362" lon="1.92693">
        <ele>1396.8</ele>
        <time>2024-10-11T11:43:27Z</time>
      </trkpt>
      <trkpt lat="42.73619" lon="1.92691">
        <ele>1396.8</ele>
        <time>2024-10-11T11:43:28Z</time>
      </trkpt>
      <trkpt lat="42.73618" lon="1.92689">
        <ele>1396.8</ele>
        <time>2024-10-11T11:43:29Z</time>
      </trkpt>
      <trkpt lat="42.73618" lon="1.92686">
        <ele>1397</ele>
        <time>2024-10-11T11:43:30Z</time>
      </trkpt>
      <trkpt lat="42.73617" lon="1.92684">
        <ele>1397.6</ele>
        <time>2024-10-11T11:43:31Z</time>
      </trkpt>
      <trkpt lat="42.73616" lon="1.92681">
        <ele>1397.6</ele>
        <time>2024-10-11T11:43:32Z</time>
      </trkpt>
      <trkpt lat="42.73616" lon="1.92679">
        <ele>1397.6</ele>
        <time>2024-10-11T11:43:33Z</time>
      </trkpt>
      <trkpt lat="42.73615" lon="1.92676">
        <ele>1398</ele>
        <time>2024-10-11T11:43:34Z</time>
      </trkpt>
      <trkpt lat="42.73614" lon="1.92674">
        <ele>1398.2</ele>
        <time>2024-10-11T11:43:35Z</time>
      </trkpt>
      <trkpt lat="42.73614" lon="1.92671">
        <ele>1398.2</ele>
        <time>2024-10-11T11:43:36Z</time>
      </trkpt>
      <trkpt lat="42.73613" lon="1.92669">
        <ele>1398.2</ele>
        <time>2024-10-11T11:43:37Z</time>
      </trkpt>
      <trkpt lat="42.73612" lon="1.92666">
        <ele>1399.2</ele>
        <time>2024-10-11T11:43:38Z</time>
      </trkpt>
      <trkpt lat="42.73612" lon="1.92663">
        <ele>1399.2</ele>
        <time>2024-10-11T11:43:39Z</time>
      </trkpt>
      <trkpt lat="42.73612" lon="1.92661">
        <ele>1399</ele>
        <time>2024-10-11T11:43:40Z</time>
      </trkpt>
      <trkpt lat="42.73611" lon="1.92658">
        <ele>1399</ele>
        <time>2024-10-11T11:43:41Z</time>
      </trkpt>
      <trkpt lat="42.73611" lon="1.92656">
        <ele>1399</ele>
        <time>2024-10-11T11:43:42Z</time>
      </trkpt>
      <trkpt lat="42.73611" lon="1.92653">
        <ele>1399</ele>
        <time>2024-10-11T11:43:43Z</time>
      </trkpt>
      <trkpt lat="42.7361" lon="1.9265">
        <ele>1400</ele>
        <time>2024-10-11T11:43:44Z</time>
      </trkpt>
      <trkpt lat="42.7361" lon="1.92648">
        <ele>1400.4</ele>
        <time>2024-10-11T11:43:45Z</time>
      </trkpt>
      <trkpt lat="42.73609" lon="1.92644">
        <ele>1400.4</ele>
        <time>2024-10-11T11:43:46Z</time>
      </trkpt>
      <trkpt lat="42.73609" lon="1.92643">
        <ele>1400.4</ele>
        <time>2024-10-11T11:43:47Z</time>
      </trkpt>
      <trkpt lat="42.73608" lon="1.92639">
        <ele>1400.4</ele>
        <time>2024-10-11T11:43:48Z</time>
      </trkpt>
      <trkpt lat="42.73608" lon="1.92638">
        <ele>1400.8</ele>
        <time>2024-10-11T11:43:49Z</time>
      </trkpt>
      <trkpt lat="42.73607" lon="1.92634">
        <ele>1400.8</ele>
        <time>2024-10-11T11:43:50Z</time>
      </trkpt>
      <trkpt lat="42.73607" lon="1.92632">
        <ele>1400.8</ele>
        <time>2024-10-11T11:43:51Z</time>
      </trkpt>
      <trkpt lat="42.73606" lon="1.92629">
        <ele>1400.8</ele>
        <time>2024-10-11T11:43:52Z</time>
      </trkpt>
      <trkpt lat="42.73606" lon="1.92628">
        <ele>1401.8</ele>
        <time>2024-10-11T11:43:53Z</time>
      </trkpt>
      <trkpt lat="42.73605" lon="1.92624">
        <ele>1401.8</ele>
        <time>2024-10-11T11:43:54Z</time>
      </trkpt>
      <trkpt lat="42.73605" lon="1.92622">
        <ele>1401.6</ele>
        <time>2024-10-11T11:43:55Z</time>
      </trkpt>
      <trkpt lat="42.73604" lon="1.92619">
        <ele>1401.6</ele>
        <time>2024-10-11T11:43:56Z</time>
      </trkpt>
      <trkpt lat="42.73604" lon="1.92618">
        <ele>1402.4</ele>
        <time>2024-10-11T11:43:57Z</time>
      </trkpt>
      <trkpt lat="42.73603" lon="1.92615">
        <ele>1402.4</ele>
        <time>2024-10-11T11:43:58Z</time>
      </trkpt>
      <trkpt lat="42.73603" lon="1.92613">
        <ele>1402.4</ele>
        <time>2024-10-11T11:43:59Z</time>
      </trkpt>
      <trkpt lat="42.73602" lon="1.9261">
        <ele>1402.4</ele>
        <time>2024-10-11T11:44:00Z</time>
      </trkpt>
      <trkpt lat="42.73602" lon="1.92608">
        <ele>1403.4</ele>
        <time>2024-10-11T11:44:01Z</time>
      </trkpt>
      <trkpt lat="42.73601" lon="1.92605">
        <ele>1403</ele>
        <time>2024-10-11T11:44:02Z</time>
      </trkpt>
      <trkpt lat="42.73601" lon="1.92603">
        <ele>1403</ele>
        <time>2024-10-11T11:44:03Z</time>
      </trkpt>
      <trkpt lat="42.736" lon="1.926">
        <ele>1403</ele>
        <time>2024-10-11T11:44:04Z</time>
      </trkpt>
      <trkpt lat="42.73599" lon="1.92598">
        <ele>1403</ele>
        <time>2024-10-11T11:44:05Z</time>
      </trkpt>
      <trkpt lat="42.73599" lon="1.92596">
        <ele>1404</ele>
        <time>2024-10-11T11:44:06Z</time>
      </trkpt>
      <trkpt lat="42.73598" lon="1.92593">
        <ele>1404.2</ele>
        <time>2024-10-11T11:44:07Z</time>
      </trkpt>
      <trkpt lat="42.73598" lon="1.92591">
        <ele>1404.2</ele>
        <time>2024-10-11T11:44:08Z</time>
      </trkpt>
      <trkpt lat="42.73598" lon="1.92588">
        <ele>1404.2</ele>
        <time>2024-10-11T11:44:09Z</time>
      </trkpt>
      <trkpt lat="42.73598" lon="1.92586">
        <ele>1404.6</ele>
        <time>2024-10-11T11:44:10Z</time>
      </trkpt>
      <trkpt lat="42.73598" lon="1.92583">
        <ele>1405.4</ele>
        <time>2024-10-11T11:44:11Z</time>
      </trkpt>
      <trkpt lat="42.73598" lon="1.92579">
        <ele>1405.4</ele>
        <time>2024-10-11T11:44:12Z</time>
      </trkpt>
      <trkpt lat="42.73598" lon="1.92578">
        <ele>1405.4</ele>
        <time>2024-10-11T11:44:13Z</time>
      </trkpt>
      <trkpt lat="42.73599" lon="1.92575">
        <ele>1405.4</ele>
        <time>2024-10-11T11:44:14Z</time>
      </trkpt>
      <trkpt lat="42.73599" lon="1.92572">
        <ele>1405.8</ele>
        <time>2024-10-11T11:44:15Z</time>
      </trkpt>
      <trkpt lat="42.736" lon="1.9257">
        <ele>1405.8</ele>
        <time>2024-10-11T11:44:16Z</time>
      </trkpt>
      <trkpt lat="42.73602" lon="1.92568">
        <ele>1405.8</ele>
        <time>2024-10-11T11:44:17Z</time>
      </trkpt>
      <trkpt lat="42.73603" lon="1.92566">
        <ele>1405.8</ele>
        <time>2024-10-11T11:44:18Z</time>
      </trkpt>
      <trkpt lat="42.73604" lon="1.92564">
        <ele>1406.2</ele>
        <time>2024-10-11T11:44:19Z</time>
      </trkpt>
      <trkpt lat="42.73606" lon="1.92562">
        <ele>1406.8</ele>
        <time>2024-10-11T11:44:20Z</time>
      </trkpt>
      <trkpt lat="42.73608" lon="1.92559">
        <ele>1406.8</ele>
        <time>2024-10-11T11:44:21Z</time>
      </trkpt>
      <trkpt lat="42.73609" lon="1.92558">
        <ele>1406.8</ele>
        <time>2024-10-11T11:44:22Z</time>
      </trkpt>
      <trkpt lat="42.7361" lon="1.92557">
        <ele>1407.2</ele>
        <time>2024-10-11T11:44:23Z</time>
      </trkpt>
      <trkpt lat="42.73611" lon="1.92555">
        <ele>1407.6</ele>
        <time>2024-10-11T11:44:24Z</time>
      </trkpt>
      <trkpt lat="42.73613" lon="1.92554">
        <ele>1407.6</ele>
        <time>2024-10-11T11:44:25Z</time>
      </trkpt>
      <trkpt lat="42.73614" lon="1.92552">
        <ele>1407.6</ele>
        <time>2024-10-11T11:44:26Z</time>
      </trkpt>
      <trkpt lat="42.73617" lon="1.9255">
        <ele>1407.6</ele>
        <time>2024-10-11T11:44:27Z</time>
      </trkpt>
      <trkpt lat="42.73618" lon="1.92549">
        <ele>1407.6</ele>
        <time>2024-10-11T11:44:28Z</time>
      </trkpt>
      <trkpt lat="42.73619" lon="1.92549">
        <ele>1408.4</ele>
        <time>2024-10-11T11:44:29Z</time>
      </trkpt>
      <trkpt lat="42.7362" lon="1.92548">
        <ele>1408.6</ele>
        <time>2024-10-11T11:44:30Z</time>
      </trkpt>
      <trkpt lat="42.73622" lon="1.92546">
        <ele>1408.6</ele>
        <time>2024-10-11T11:44:31Z</time>
      </trkpt>
      <trkpt lat="42.73624" lon="1.92544">
        <ele>1408.6</ele>
        <time>2024-10-11T11:44:32Z</time>
      </trkpt>
      <trkpt lat="42.73625" lon="1.92544">
        <ele>1409.6</ele>
        <time>2024-10-11T11:44:33Z</time>
      </trkpt>
      <trkpt lat="42.73628" lon="1.92542">
        <ele>1409.6</ele>
        <time>2024-10-11T11:44:34Z</time>
      </trkpt>
      <trkpt lat="42.73629" lon="1.92541">
        <ele>1409.6</ele>
        <time>2024-10-11T11:44:35Z</time>
      </trkpt>
      <trkpt lat="42.73631" lon="1.9254">
        <ele>1409.6</ele>
        <time>2024-10-11T11:44:36Z</time>
      </trkpt>
      <trkpt lat="42.73632" lon="1.92539">
        <ele>1410.4</ele>
        <time>2024-10-11T11:44:37Z</time>
      </trkpt>
      <trkpt lat="42.73634" lon="1.92537">
        <ele>1410.4</ele>
        <time>2024-10-11T11:44:38Z</time>
      </trkpt>
      <trkpt lat="42.73635" lon="1.92536">
        <ele>1410.8</ele>
        <time>2024-10-11T11:44:39Z</time>
      </trkpt>
      <trkpt lat="42.73637" lon="1.92535">
        <ele>1410.8</ele>
        <time>2024-10-11T11:44:40Z</time>
      </trkpt>
      <trkpt lat="42.73638" lon="1.92534">
        <ele>1410.8</ele>
        <time>2024-10-11T11:44:41Z</time>
      </trkpt>
      <trkpt lat="42.7364" lon="1.92532">
        <ele>1411</ele>
        <time>2024-10-11T11:44:42Z</time>
      </trkpt>
      <trkpt lat="42.73641" lon="1.9253">
        <ele>1412</ele>
        <time>2024-10-11T11:44:43Z</time>
      </trkpt>
      <trkpt lat="42.73643" lon="1.92529">
        <ele>1412</ele>
        <time>2024-10-11T11:44:44Z</time>
      </trkpt>
      <trkpt lat="42.73644" lon="1.92527">
        <ele>1412</ele>
        <time>2024-10-11T11:44:45Z</time>
      </trkpt>
      <trkpt lat="42.73645" lon="1.92526">
        <ele>1412.4</ele>
        <time>2024-10-11T11:44:46Z</time>
      </trkpt>
      <trkpt lat="42.73647" lon="1.92525">
        <ele>1412.4</ele>
        <time>2024-10-11T11:44:47Z</time>
      </trkpt>
      <trkpt lat="42.73648" lon="1.92524">
        <ele>1412.4</ele>
        <time>2024-10-11T11:44:48Z</time>
      </trkpt>
      <trkpt lat="42.7365" lon="1.92523">
        <ele>1412.4</ele>
        <time>2024-10-11T11:44:49Z</time>
      </trkpt>
      <trkpt lat="42.73651" lon="1.92523">
        <ele>1412.4</ele>
        <time>2024-10-11T11:44:50Z</time>
      </trkpt>
      <trkpt lat="42.73653" lon="1.92522">
        <ele>1413.2</ele>
        <time>2024-10-11T11:44:51Z</time>
      </trkpt>
      <trkpt lat="42.73654" lon="1.92521">
        <ele>1413.2</ele>
        <time>2024-10-11T11:44:52Z</time>
      </trkpt>
      <trkpt lat="42.73656" lon="1.92521">
        <ele>1413.2</ele>
        <time>2024-10-11T11:44:53Z</time>
      </trkpt>
      <trkpt lat="42.73657" lon="1.9252">
        <ele>1413.2</ele>
        <time>2024-10-11T11:44:54Z</time>
      </trkpt>
      <trkpt lat="42.73658" lon="1.92519">
        <ele>1413.8</ele>
        <time>2024-10-11T11:44:55Z</time>
      </trkpt>
      <trkpt lat="42.73659" lon="1.92518">
        <ele>1414</ele>
        <time>2024-10-11T11:44:56Z</time>
      </trkpt>
      <trkpt lat="42.7366" lon="1.92517">
        <ele>1414</ele>
        <time>2024-10-11T11:44:57Z</time>
      </trkpt>
      <trkpt lat="42.73662" lon="1.92517">
        <ele>1414</ele>
        <time>2024-10-11T11:44:58Z</time>
      </trkpt>
      <trkpt lat="42.73663" lon="1.92516">
        <ele>1415</ele>
        <time>2024-10-11T11:44:59Z</time>
      </trkpt>
      <trkpt lat="42.73664" lon="1.92516">
        <ele>1415</ele>
        <time>2024-10-11T11:45:00Z</time>
      </trkpt>
      <trkpt lat="42.73665" lon="1.92516">
        <ele>1414.8</ele>
        <time>2024-10-11T11:45:01Z</time>
      </trkpt>
      <trkpt lat="42.73666" lon="1.92516">
        <ele>1414.8</ele>
        <time>2024-10-11T11:45:02Z</time>
      </trkpt>
      <trkpt lat="42.73668" lon="1.92516">
        <ele>1414.8</ele>
        <time>2024-10-11T11:45:03Z</time>
      </trkpt>
      <trkpt lat="42.73669" lon="1.92516">
        <ele>1415.6</ele>
        <time>2024-10-11T11:45:04Z</time>
      </trkpt>
      <trkpt lat="42.7367" lon="1.92516">
        <ele>1415.6</ele>
        <time>2024-10-11T11:45:05Z</time>
      </trkpt>
      <trkpt lat="42.73671" lon="1.92515">
        <ele>1415.6</ele>
        <time>2024-10-11T11:45:06Z</time>
      </trkpt>
      <trkpt lat="42.73673" lon="1.92514">
        <ele>1415.6</ele>
        <time>2024-10-11T11:45:07Z</time>
      </trkpt>
      <trkpt lat="42.73674" lon="1.92514">
        <ele>1416.6</ele>
        <time>2024-10-11T11:45:08Z</time>
      </trkpt>
      <trkpt lat="42.73674" lon="1.92514">
        <ele>1416.6</ele>
        <time>2024-10-11T11:45:09Z</time>
      </trkpt>
      <trkpt lat="42.73675" lon="1.92514">
        <ele>1416.8</ele>
        <time>2024-10-11T11:45:10Z</time>
      </trkpt>
      <trkpt lat="42.73675" lon="1.92514">
        <ele>1416.8</ele>
        <time>2024-10-11T11:45:11Z</time>
      </trkpt>
      <trkpt lat="42.73676" lon="1.92514">
        <ele>1416.8</ele>
        <time>2024-10-11T11:45:12Z</time>
      </trkpt>
      <trkpt lat="42.73678" lon="1.92514">
        <ele>1416.8</ele>
        <time>2024-10-11T11:45:13Z</time>
      </trkpt>
      <trkpt lat="42.73679" lon="1.92514">
        <ele>1416.8</ele>
        <time>2024-10-11T11:45:14Z</time>
      </trkpt>
      <trkpt lat="42.7368" lon="1.92514">
        <ele>1417.6</ele>
        <time>2024-10-11T11:45:15Z</time>
      </trkpt>
      <trkpt lat="42.73682" lon="1.92515">
        <ele>1417.6</ele>
        <time>2024-10-11T11:45:16Z</time>
      </trkpt>
      <trkpt lat="42.73683" lon="1.92514">
        <ele>1417.6</ele>
        <time>2024-10-11T11:45:17Z</time>
      </trkpt>
      <trkpt lat="42.73685" lon="1.92515">
        <ele>1418.2</ele>
        <time>2024-10-11T11:45:18Z</time>
      </trkpt>
      <trkpt lat="42.73686" lon="1.92515">
        <ele>1418.4</ele>
        <time>2024-10-11T11:45:19Z</time>
      </trkpt>
      <trkpt lat="42.73687" lon="1.92515">
        <ele>1418.4</ele>
        <time>2024-10-11T11:45:20Z</time>
      </trkpt>
      <trkpt lat="42.73688" lon="1.92515">
        <ele>1418.4</ele>
        <time>2024-10-11T11:45:21Z</time>
      </trkpt>
      <trkpt lat="42.73689" lon="1.92515">
        <ele>1419</ele>
        <time>2024-10-11T11:45:22Z</time>
      </trkpt>
      <trkpt lat="42.73691" lon="1.92515">
        <ele>1419</ele>
        <time>2024-10-11T11:45:23Z</time>
      </trkpt>
      <trkpt lat="42.73692" lon="1.92516">
        <ele>1419.2</ele>
        <time>2024-10-11T11:45:24Z</time>
      </trkpt>
      <trkpt lat="42.73694" lon="1.92516">
        <ele>1419.2</ele>
        <time>2024-10-11T11:45:25Z</time>
      </trkpt>
      <trkpt lat="42.73696" lon="1.92516">
        <ele>1419.2</ele>
        <time>2024-10-11T11:45:26Z</time>
      </trkpt>
      <trkpt lat="42.73697" lon="1.92517">
        <ele>1419.8</ele>
        <time>2024-10-11T11:45:27Z</time>
      </trkpt>
      <trkpt lat="42.73698" lon="1.92517">
        <ele>1420</ele>
        <time>2024-10-11T11:45:28Z</time>
      </trkpt>
      <trkpt lat="42.737" lon="1.92517">
        <ele>1420</ele>
        <time>2024-10-11T11:45:29Z</time>
      </trkpt>
      <trkpt lat="42.73701" lon="1.92517">
        <ele>1420</ele>
        <time>2024-10-11T11:45:30Z</time>
      </trkpt>
      <trkpt lat="42.73702" lon="1.92517">
        <ele>1421</ele>
        <time>2024-10-11T11:45:31Z</time>
      </trkpt>
      <trkpt lat="42.73703" lon="1.92517">
        <ele>1421</ele>
        <time>2024-10-11T11:45:32Z</time>
      </trkpt>
      <trkpt lat="42.73705" lon="1.92518">
        <ele>1421</ele>
        <time>2024-10-11T11:45:33Z</time>
      </trkpt>
      <trkpt lat="42.73706" lon="1.92518">
        <ele>1421</ele>
        <time>2024-10-11T11:45:34Z</time>
      </trkpt>
      <trkpt lat="42.73707" lon="1.92518">
        <ele>1421</ele>
        <time>2024-10-11T11:45:35Z</time>
      </trkpt>
      <trkpt lat="42.73709" lon="1.92518">
        <ele>1421.8</ele>
        <time>2024-10-11T11:45:36Z</time>
      </trkpt>
      <trkpt lat="42.7371" lon="1.92518">
        <ele>1421.8</ele>
        <time>2024-10-11T11:45:37Z</time>
      </trkpt>
      <trkpt lat="42.73711" lon="1.92518">
        <ele>1421.8</ele>
        <time>2024-10-11T11:45:38Z</time>
      </trkpt>
      <trkpt lat="42.73712" lon="1.92519">
        <ele>1421.8</ele>
        <time>2024-10-11T11:45:39Z</time>
      </trkpt>
      <trkpt lat="42.73714" lon="1.92519">
        <ele>1422.4</ele>
        <time>2024-10-11T11:45:40Z</time>
      </trkpt>
      <trkpt lat="42.73715" lon="1.9252">
        <ele>1422.8</ele>
        <time>2024-10-11T11:45:41Z</time>
      </trkpt>
      <trkpt lat="42.73717" lon="1.9252">
        <ele>1422.8</ele>
        <time>2024-10-11T11:45:42Z</time>
      </trkpt>
      <trkpt lat="42.73719" lon="1.9252">
        <ele>1422.8</ele>
        <time>2024-10-11T11:45:43Z</time>
      </trkpt>
      <trkpt lat="42.7372" lon="1.92521">
        <ele>1423.4</ele>
        <time>2024-10-11T11:45:44Z</time>
      </trkpt>
      <trkpt lat="42.73721" lon="1.92521">
        <ele>1423.8</ele>
        <time>2024-10-11T11:45:45Z</time>
      </trkpt>
      <trkpt lat="42.73722" lon="1.92521">
        <ele>1423.8</ele>
        <time>2024-10-11T11:45:46Z</time>
      </trkpt>
      <trkpt lat="42.73724" lon="1.92521">
        <ele>1423.8</ele>
        <time>2024-10-11T11:45:47Z</time>
      </trkpt>
      <trkpt lat="42.73726" lon="1.92521">
        <ele>1423.8</ele>
        <time>2024-10-11T11:45:48Z</time>
      </trkpt>
      <trkpt lat="42.73727" lon="1.92521">
        <ele>1424.4</ele>
        <time>2024-10-11T11:45:49Z</time>
      </trkpt>
      <trkpt lat="42.73728" lon="1.92522">
        <ele>1424.4</ele>
        <time>2024-10-11T11:45:50Z</time>
      </trkpt>
      <trkpt lat="42.7373" lon="1.92522">
        <ele>1424.4</ele>
        <time>2024-10-11T11:45:51Z</time>
      </trkpt>
      <trkpt lat="42.73731" lon="1.92523">
        <ele>1424.4</ele>
        <time>2024-10-11T11:45:52Z</time>
      </trkpt>
      <trkpt lat="42.73732" lon="1.92524">
        <ele>1424.4</ele>
        <time>2024-10-11T11:45:53Z</time>
      </trkpt>
      <trkpt lat="42.73733" lon="1.92524">
        <ele>1424.8</ele>
        <time>2024-10-11T11:45:54Z</time>
      </trkpt>
      <trkpt lat="42.73734" lon="1.92525">
        <ele>1425.2</ele>
        <time>2024-10-11T11:45:55Z</time>
      </trkpt>
      <trkpt lat="42.73736" lon="1.92525">
        <ele>1425.2</ele>
        <time>2024-10-11T11:45:56Z</time>
      </trkpt>
      <trkpt lat="42.73737" lon="1.92525">
        <ele>1425.2</ele>
        <time>2024-10-11T11:45:57Z</time>
      </trkpt>
      <trkpt lat="42.73738" lon="1.92526">
        <ele>1425.8</ele>
        <time>2024-10-11T11:45:58Z</time>
      </trkpt>
      <trkpt lat="42.73739" lon="1.92526">
        <ele>1425.8</ele>
        <time>2024-10-11T11:45:59Z</time>
      </trkpt>
      <trkpt lat="42.7374" lon="1.92526">
        <ele>1426.2</ele>
        <time>2024-10-11T11:46:00Z</time>
      </trkpt>
      <trkpt lat="42.7374" lon="1.92527">
        <ele>1426.2</ele>
        <time>2024-10-11T11:46:01Z</time>
      </trkpt>
      <trkpt lat="42.73742" lon="1.92527">
        <ele>1426.2</ele>
        <time>2024-10-11T11:46:02Z</time>
      </trkpt>
      <trkpt lat="42.73743" lon="1.92527">
        <ele>1426.2</ele>
        <time>2024-10-11T11:46:03Z</time>
      </trkpt>
      <trkpt lat="42.73744" lon="1.92528">
        <ele>1427</ele>
        <time>2024-10-11T11:46:04Z</time>
      </trkpt>
      <trkpt lat="42.73746" lon="1.92529">
        <ele>1427</ele>
        <time>2024-10-11T11:46:05Z</time>
      </trkpt>
      <trkpt lat="42.73747" lon="1.92529">
        <ele>1427</ele>
        <time>2024-10-11T11:46:06Z</time>
      </trkpt>
      <trkpt lat="42.73749" lon="1.92529">
        <ele>1427.8</ele>
        <time>2024-10-11T11:46:07Z</time>
      </trkpt>
      <trkpt lat="42.73751" lon="1.9253">
        <ele>1428</ele>
        <time>2024-10-11T11:46:08Z</time>
      </trkpt>
      <trkpt lat="42.73752" lon="1.9253">
        <ele>1428</ele>
        <time>2024-10-11T11:46:09Z</time>
      </trkpt>
      <trkpt lat="42.73754" lon="1.92531">
        <ele>1428</ele>
        <time>2024-10-11T11:46:10Z</time>
      </trkpt>
      <trkpt lat="42.73755" lon="1.92531">
        <ele>1428</ele>
        <time>2024-10-11T11:46:11Z</time>
      </trkpt>
      <trkpt lat="42.73757" lon="1.92531">
        <ele>1428.4</ele>
        <time>2024-10-11T11:46:12Z</time>
      </trkpt>
      <trkpt lat="42.73758" lon="1.92532">
        <ele>1428.4</ele>
        <time>2024-10-11T11:46:13Z</time>
      </trkpt>
      <trkpt lat="42.7376" lon="1.92532">
        <ele>1428.4</ele>
        <time>2024-10-11T11:46:14Z</time>
      </trkpt>
      <trkpt lat="42.73761" lon="1.92532">
        <ele>1428.4</ele>
        <time>2024-10-11T11:46:15Z</time>
      </trkpt>
      <trkpt lat="42.73763" lon="1.92532">
        <ele>1429.4</ele>
        <time>2024-10-11T11:46:16Z</time>
      </trkpt>
      <trkpt lat="42.73765" lon="1.92532">
        <ele>1429.4</ele>
        <time>2024-10-11T11:46:17Z</time>
      </trkpt>
      <trkpt lat="42.73766" lon="1.92533">
        <ele>1429.4</ele>
        <time>2024-10-11T11:46:18Z</time>
      </trkpt>
      <trkpt lat="42.73768" lon="1.92533">
        <ele>1429.4</ele>
        <time>2024-10-11T11:46:19Z</time>
      </trkpt>
      <trkpt lat="42.73769" lon="1.92534">
        <ele>1429.8</ele>
        <time>2024-10-11T11:46:20Z</time>
      </trkpt>
      <trkpt lat="42.73771" lon="1.92535">
        <ele>1430.2</ele>
        <time>2024-10-11T11:46:21Z</time>
      </trkpt>
      <trkpt lat="42.73771" lon="1.92536">
        <ele>1430.2</ele>
        <time>2024-10-11T11:46:22Z</time>
      </trkpt>
      <trkpt lat="42.73773" lon="1.92537">
        <ele>1430.2</ele>
        <time>2024-10-11T11:46:23Z</time>
      </trkpt>
      <trkpt lat="42.73774" lon="1.92537">
        <ele>1430.6</ele>
        <time>2024-10-11T11:46:24Z</time>
      </trkpt>
      <trkpt lat="42.73775" lon="1.92537">
        <ele>1431</ele>
        <time>2024-10-11T11:46:25Z</time>
      </trkpt>
      <trkpt lat="42.73777" lon="1.92538">
        <ele>1431</ele>
        <time>2024-10-11T11:46:26Z</time>
      </trkpt>
      <trkpt lat="42.73778" lon="1.92539">
        <ele>1431</ele>
        <time>2024-10-11T11:46:27Z</time>
      </trkpt>
      <trkpt lat="42.7378" lon="1.92539">
        <ele>1431</ele>
        <time>2024-10-11T11:46:28Z</time>
      </trkpt>
      <trkpt lat="42.73781" lon="1.92539">
        <ele>1431</ele>
        <time>2024-10-11T11:46:29Z</time>
      </trkpt>
      <trkpt lat="42.73783" lon="1.9254">
        <ele>1431.6</ele>
        <time>2024-10-11T11:46:30Z</time>
      </trkpt>
      <trkpt lat="42.73784" lon="1.92541">
        <ele>1431.6</ele>
        <time>2024-10-11T11:46:31Z</time>
      </trkpt>
      <trkpt lat="42.73785" lon="1.92542">
        <ele>1431.6</ele>
        <time>2024-10-11T11:46:32Z</time>
      </trkpt>
      <trkpt lat="42.73786" lon="1.92543">
        <ele>1431.6</ele>
        <time>2024-10-11T11:46:33Z</time>
      </trkpt>
      <trkpt lat="42.73788" lon="1.92544">
        <ele>1432.4</ele>
        <time>2024-10-11T11:46:34Z</time>
      </trkpt>
      <trkpt lat="42.73789" lon="1.92545">
        <ele>1432.4</ele>
        <time>2024-10-11T11:46:35Z</time>
      </trkpt>
      <trkpt lat="42.73791" lon="1.92546">
        <ele>1432.4</ele>
        <time>2024-10-11T11:46:36Z</time>
      </trkpt>
      <trkpt lat="42.73792" lon="1.92547">
        <ele>1432.4</ele>
        <time>2024-10-11T11:46:37Z</time>
      </trkpt>
      <trkpt lat="42.73793" lon="1.92548">
        <ele>1432.4</ele>
        <time>2024-10-11T11:46:38Z</time>
      </trkpt>
      <trkpt lat="42.73794" lon="1.92549">
        <ele>1433.2</ele>
        <time>2024-10-11T11:46:39Z</time>
      </trkpt>
      <trkpt lat="42.73796" lon="1.92551">
        <ele>1433.2</ele>
        <time>2024-10-11T11:46:40Z</time>
      </trkpt>
      <trkpt lat="42.73797" lon="1.92553">
        <ele>1433.2</ele>
        <time>2024-10-11T11:46:41Z</time>
      </trkpt>
      <trkpt lat="42.73798" lon="1.92554">
        <ele>1433.2</ele>
        <time>2024-10-11T11:46:42Z</time>
      </trkpt>
      <trkpt lat="42.73799" lon="1.92556">
        <ele>1434</ele>
        <time>2024-10-11T11:46:43Z</time>
      </trkpt>
      <trkpt lat="42.738" lon="1.92558">
        <ele>1434.2</ele>
        <time>2024-10-11T11:46:44Z</time>
      </trkpt>
      <trkpt lat="42.73802" lon="1.92559">
        <ele>1434.2</ele>
        <time>2024-10-11T11:46:45Z</time>
      </trkpt>
      <trkpt lat="42.73803" lon="1.9256">
        <ele>1434.2</ele>
        <time>2024-10-11T11:46:46Z</time>
      </trkpt>
      <trkpt lat="42.73805" lon="1.92562">
        <ele>1434.8</ele>
        <time>2024-10-11T11:46:47Z</time>
      </trkpt>
      <trkpt lat="42.73806" lon="1.92563">
        <ele>1435</ele>
        <time>2024-10-11T11:46:48Z</time>
      </trkpt>
      <trkpt lat="42.73807" lon="1.92565">
        <ele>1435</ele>
        <time>2024-10-11T11:46:49Z</time>
      </trkpt>
      <trkpt lat="42.73808" lon="1.92566">
        <ele>1435</ele>
        <time>2024-10-11T11:46:50Z</time>
      </trkpt>
      <trkpt lat="42.73809" lon="1.92568">
        <ele>1435</ele>
        <time>2024-10-11T11:46:51Z</time>
      </trkpt>
      <trkpt lat="42.73811" lon="1.9257">
        <ele>1435.6</ele>
        <time>2024-10-11T11:46:52Z</time>
      </trkpt>
      <trkpt lat="42.73812" lon="1.92572">
        <ele>1435.8</ele>
        <time>2024-10-11T11:46:53Z</time>
      </trkpt>
      <trkpt lat="42.73813" lon="1.92573">
        <ele>1435.8</ele>
        <time>2024-10-11T11:46:54Z</time>
      </trkpt>
      <trkpt lat="42.73815" lon="1.92575">
        <ele>1435.8</ele>
        <time>2024-10-11T11:46:55Z</time>
      </trkpt>
      <trkpt lat="42.73816" lon="1.92577">
        <ele>1435.8</ele>
        <time>2024-10-11T11:46:56Z</time>
      </trkpt>
      <trkpt lat="42.73817" lon="1.92578">
        <ele>1436.2</ele>
        <time>2024-10-11T11:46:57Z</time>
      </trkpt>
      <trkpt lat="42.73818" lon="1.9258">
        <ele>1436.6</ele>
        <time>2024-10-11T11:46:58Z</time>
      </trkpt>
      <trkpt lat="42.73819" lon="1.92581">
        <ele>1436.6</ele>
        <time>2024-10-11T11:46:59Z</time>
      </trkpt>
      <trkpt lat="42.73821" lon="1.92583">
        <ele>1436.6</ele>
        <time>2024-10-11T11:47:00Z</time>
      </trkpt>
      <trkpt lat="42.73822" lon="1.92585">
        <ele>1437.2</ele>
        <time>2024-10-11T11:47:01Z</time>
      </trkpt>
      <trkpt lat="42.73823" lon="1.92586">
        <ele>1437.6</ele>
        <time>2024-10-11T11:47:02Z</time>
      </trkpt>
      <trkpt lat="42.73825" lon="1.92588">
        <ele>1437.6</ele>
        <time>2024-10-11T11:47:03Z</time>
      </trkpt>
      <trkpt lat="42.73826" lon="1.92589">
        <ele>1437.6</ele>
        <time>2024-10-11T11:47:04Z</time>
      </trkpt>
      <trkpt lat="42.73827" lon="1.92591">
        <ele>1437.6</ele>
        <time>2024-10-11T11:47:05Z</time>
      </trkpt>
      <trkpt lat="42.7383" lon="1.92591">
        <ele>1438</ele>
        <time>2024-10-11T11:47:06Z</time>
      </trkpt>
      <trkpt lat="42.73832" lon="1.92592">
        <ele>1438</ele>
        <time>2024-10-11T11:47:07Z</time>
      </trkpt>
      <trkpt lat="42.73834" lon="1.92592">
        <ele>1438</ele>
        <time>2024-10-11T11:47:08Z</time>
      </trkpt>
      <trkpt lat="42.73836" lon="1.9259">
        <ele>1438.4</ele>
        <time>2024-10-11T11:47:09Z</time>
      </trkpt>
      <trkpt lat="42.73837" lon="1.9259">
        <ele>1438.6</ele>
        <time>2024-10-11T11:47:10Z</time>
      </trkpt>
      <trkpt lat="42.73839" lon="1.92588">
        <ele>1438.6</ele>
        <time>2024-10-11T11:47:11Z</time>
      </trkpt>
      <trkpt lat="42.7384" lon="1.92586">
        <ele>1438.6</ele>
        <time>2024-10-11T11:47:12Z</time>
      </trkpt>
      <trkpt lat="42.73841" lon="1.92585">
        <ele>1438.6</ele>
        <time>2024-10-11T11:47:13Z</time>
      </trkpt>
      <trkpt lat="42.73842" lon="1.9258">
        <ele>1439.4</ele>
        <time>2024-10-11T11:47:14Z</time>
      </trkpt>
      <trkpt lat="42.73842" lon="1.92578">
        <ele>1439.6</ele>
        <time>2024-10-11T11:47:15Z</time>
      </trkpt>
      <trkpt lat="42.73843" lon="1.92576">
        <ele>1439.6</ele>
        <time>2024-10-11T11:47:16Z</time>
      </trkpt>
      <trkpt lat="42.73843" lon="1.92574">
        <ele>1439.6</ele>
        <time>2024-10-11T11:47:17Z</time>
      </trkpt>
      <trkpt lat="42.73843" lon="1.92572">
        <ele>1439.6</ele>
        <time>2024-10-11T11:47:18Z</time>
      </trkpt>
      <trkpt lat="42.73844" lon="1.9257">
        <ele>1440</ele>
        <time>2024-10-11T11:47:19Z</time>
      </trkpt>
      <trkpt lat="42.73844" lon="1.92568">
        <ele>1440</ele>
        <time>2024-10-11T11:47:20Z</time>
      </trkpt>
      <trkpt lat="42.73844" lon="1.92566">
        <ele>1440</ele>
        <time>2024-10-11T11:47:21Z</time>
      </trkpt>
      <trkpt lat="42.73845" lon="1.92564">
        <ele>1440</ele>
        <time>2024-10-11T11:47:22Z</time>
      </trkpt>
      <trkpt lat="42.73845" lon="1.92561">
        <ele>1440.2</ele>
        <time>2024-10-11T11:47:23Z</time>
      </trkpt>
      <trkpt lat="42.73845" lon="1.92559">
        <ele>1440.8</ele>
        <time>2024-10-11T11:47:24Z</time>
      </trkpt>
      <trkpt lat="42.73846" lon="1.92555">
        <ele>1440.8</ele>
        <time>2024-10-11T11:47:25Z</time>
      </trkpt>
      <trkpt lat="42.73846" lon="1.92554">
        <ele>1440.8</ele>
        <time>2024-10-11T11:47:26Z</time>
      </trkpt>
      <trkpt lat="42.73847" lon="1.92551">
        <ele>1440.8</ele>
        <time>2024-10-11T11:47:27Z</time>
      </trkpt>
      <trkpt lat="42.73847" lon="1.92549">
        <ele>1440.8</ele>
        <time>2024-10-11T11:47:28Z</time>
      </trkpt>
      <trkpt lat="42.73848" lon="1.92547">
        <ele>1440.8</ele>
        <time>2024-10-11T11:47:29Z</time>
      </trkpt>
      <trkpt lat="42.73848" lon="1.92545">
        <ele>1440.8</ele>
        <time>2024-10-11T11:47:30Z</time>
      </trkpt>
      <trkpt lat="42.73849" lon="1.92542">
        <ele>1440.8</ele>
        <time>2024-10-11T11:47:31Z</time>
      </trkpt>
      <trkpt lat="42.7385" lon="1.9254">
        <ele>1441.2</ele>
        <time>2024-10-11T11:47:32Z</time>
      </trkpt>
      <trkpt lat="42.7385" lon="1.92538">
        <ele>1441.4</ele>
        <time>2024-10-11T11:47:33Z</time>
      </trkpt>
      <trkpt lat="42.73851" lon="1.92536">
        <ele>1441.4</ele>
        <time>2024-10-11T11:47:34Z</time>
      </trkpt>
      <trkpt lat="42.73851" lon="1.92533">
        <ele>1441.4</ele>
        <time>2024-10-11T11:47:35Z</time>
      </trkpt>
      <trkpt lat="42.73852" lon="1.92531">
        <ele>1441.8</ele>
        <time>2024-10-11T11:47:36Z</time>
      </trkpt>
      <trkpt lat="42.73853" lon="1.92529">
        <ele>1441.8</ele>
        <time>2024-10-11T11:47:37Z</time>
      </trkpt>
      <trkpt lat="42.73853" lon="1.92526">
        <ele>1441.8</ele>
        <time>2024-10-11T11:47:38Z</time>
      </trkpt>
      <trkpt lat="42.73854" lon="1.92524">
        <ele>1441.8</ele>
        <time>2024-10-11T11:47:39Z</time>
      </trkpt>
      <trkpt lat="42.73855" lon="1.92522">
        <ele>1441.8</ele>
        <time>2024-10-11T11:47:40Z</time>
      </trkpt>
      <trkpt lat="42.73856" lon="1.9252">
        <ele>1441.8</ele>
        <time>2024-10-11T11:47:41Z</time>
      </trkpt>
      <trkpt lat="42.73857" lon="1.92518">
        <ele>1442.4</ele>
        <time>2024-10-11T11:47:42Z</time>
      </trkpt>
      <trkpt lat="42.73857" lon="1.92516">
        <ele>1442.4</ele>
        <time>2024-10-11T11:47:43Z</time>
      </trkpt>
      <trkpt lat="42.73858" lon="1.92513">
        <ele>1442.4</ele>
        <time>2024-10-11T11:47:44Z</time>
      </trkpt>
      <trkpt lat="42.73859" lon="1.92511">
        <ele>1442.8</ele>
        <time>2024-10-11T11:47:45Z</time>
      </trkpt>
      <trkpt lat="42.7386" lon="1.92509">
        <ele>1443</ele>
        <time>2024-10-11T11:47:46Z</time>
      </trkpt>
      <trkpt lat="42.7386" lon="1.92506">
        <ele>1443</ele>
        <time>2024-10-11T11:47:47Z</time>
      </trkpt>
      <trkpt lat="42.73861" lon="1.92504">
        <ele>1443</ele>
        <time>2024-10-11T11:47:48Z</time>
      </trkpt>
      <trkpt lat="42.73862" lon="1.92502">
        <ele>1443.6</ele>
        <time>2024-10-11T11:47:49Z</time>
      </trkpt>
      <trkpt lat="42.73863" lon="1.925">
        <ele>1443.6</ele>
        <time>2024-10-11T11:47:50Z</time>
      </trkpt>
      <trkpt lat="42.73863" lon="1.92497">
        <ele>1443.4</ele>
        <time>2024-10-11T11:47:51Z</time>
      </trkpt>
      <trkpt lat="42.73864" lon="1.92495">
        <ele>1443.4</ele>
        <time>2024-10-11T11:47:52Z</time>
      </trkpt>
      <trkpt lat="42.73865" lon="1.92494">
        <ele>1443.4</ele>
        <time>2024-10-11T11:47:53Z</time>
      </trkpt>
      <trkpt lat="42.73866" lon="1.92492">
        <ele>1444.2</ele>
        <time>2024-10-11T11:47:54Z</time>
      </trkpt>
      <trkpt lat="42.73867" lon="1.92489">
        <ele>1444.6</ele>
        <time>2024-10-11T11:47:55Z</time>
      </trkpt>
      <trkpt lat="42.73868" lon="1.92487">
        <ele>1444.6</ele>
        <time>2024-10-11T11:47:56Z</time>
      </trkpt>
      <trkpt lat="42.73869" lon="1.92485">
        <ele>1444.6</ele>
        <time>2024-10-11T11:47:57Z</time>
      </trkpt>
      <trkpt lat="42.7387" lon="1.92483">
        <ele>1444.6</ele>
        <time>2024-10-11T11:47:58Z</time>
      </trkpt>
      <trkpt lat="42.73871" lon="1.92481">
        <ele>1444.6</ele>
        <time>2024-10-11T11:47:59Z</time>
      </trkpt>
      <trkpt lat="42.73872" lon="1.92479">
        <ele>1445.4</ele>
        <time>2024-10-11T11:48:00Z</time>
      </trkpt>
      <trkpt lat="42.73873" lon="1.92478">
        <ele>1445.4</ele>
        <time>2024-10-11T11:48:01Z</time>
      </trkpt>
      <trkpt lat="42.73875" lon="1.92474">
        <ele>1445.4</ele>
        <time>2024-10-11T11:48:02Z</time>
      </trkpt>
      <trkpt lat="42.73875" lon="1.92472">
        <ele>1445.4</ele>
        <time>2024-10-11T11:48:03Z</time>
      </trkpt>
      <trkpt lat="42.73876" lon="1.92471">
        <ele>1446</ele>
        <time>2024-10-11T11:48:04Z</time>
      </trkpt>
      <trkpt lat="42.73877" lon="1.92468">
        <ele>1446.2</ele>
        <time>2024-10-11T11:48:05Z</time>
      </trkpt>
      <trkpt lat="42.73877" lon="1.92466">
        <ele>1446.2</ele>
        <time>2024-10-11T11:48:06Z</time>
      </trkpt>
      <trkpt lat="42.73877" lon="1.92462">
        <ele>1446.2</ele>
        <time>2024-10-11T11:48:07Z</time>
      </trkpt>
      <trkpt lat="42.73877" lon="1.92461">
        <ele>1446.6</ele>
        <time>2024-10-11T11:48:08Z</time>
      </trkpt>
      <trkpt lat="42.73877" lon="1.92457">
        <ele>1447</ele>
        <time>2024-10-11T11:48:09Z</time>
      </trkpt>
      <trkpt lat="42.73877" lon="1.92456">
        <ele>1447</ele>
        <time>2024-10-11T11:48:10Z</time>
      </trkpt>
      <trkpt lat="42.73876" lon="1.92452">
        <ele>1447</ele>
        <time>2024-10-11T11:48:11Z</time>
      </trkpt>
      <trkpt lat="42.73876" lon="1.92451">
        <ele>1447.6</ele>
        <time>2024-10-11T11:48:12Z</time>
      </trkpt>
      <trkpt lat="42.73876" lon="1.92447">
        <ele>1447.6</ele>
        <time>2024-10-11T11:48:13Z</time>
      </trkpt>
      <trkpt lat="42.73876" lon="1.92446">
        <ele>1448</ele>
        <time>2024-10-11T11:48:14Z</time>
      </trkpt>
      <trkpt lat="42.73875" lon="1.92444">
        <ele>1448</ele>
        <time>2024-10-11T11:48:15Z</time>
      </trkpt>
      <trkpt lat="42.73875" lon="1.92441">
        <ele>1448</ele>
        <time>2024-10-11T11:48:16Z</time>
      </trkpt>
      <trkpt lat="42.73874" lon="1.92439">
        <ele>1448.6</ele>
        <time>2024-10-11T11:48:17Z</time>
      </trkpt>
      <trkpt lat="42.73873" lon="1.92436">
        <ele>1449.2</ele>
        <time>2024-10-11T11:48:18Z</time>
      </trkpt>
      <trkpt lat="42.73872" lon="1.92434">
        <ele>1449.2</ele>
        <time>2024-10-11T11:48:19Z</time>
      </trkpt>
      <trkpt lat="42.73871" lon="1.92432">
        <ele>1449.2</ele>
        <time>2024-10-11T11:48:20Z</time>
      </trkpt>
      <trkpt lat="42.73869" lon="1.92431">
        <ele>1449.2</ele>
        <time>2024-10-11T11:48:21Z</time>
      </trkpt>
      <trkpt lat="42.73868" lon="1.9243">
        <ele>1449.2</ele>
        <time>2024-10-11T11:48:22Z</time>
      </trkpt>
      <trkpt lat="42.73866" lon="1.9243">
        <ele>1449.8</ele>
        <time>2024-10-11T11:48:23Z</time>
      </trkpt>
      <trkpt lat="42.73864" lon="1.9243">
        <ele>1449.8</ele>
        <time>2024-10-11T11:48:24Z</time>
      </trkpt>
      <trkpt lat="42.73863" lon="1.92431">
        <ele>1449.8</ele>
        <time>2024-10-11T11:48:25Z</time>
      </trkpt>
      <trkpt lat="42.73861" lon="1.92431">
        <ele>1450.2</ele>
        <time>2024-10-11T11:48:26Z</time>
      </trkpt>
      <trkpt lat="42.73859" lon="1.92431">
        <ele>1450.8</ele>
        <time>2024-10-11T11:48:27Z</time>
      </trkpt>
      <trkpt lat="42.73857" lon="1.92432">
        <ele>1450.8</ele>
        <time>2024-10-11T11:48:28Z</time>
      </trkpt>
      <trkpt lat="42.73855" lon="1.92433">
        <ele>1450.8</ele>
        <time>2024-10-11T11:48:29Z</time>
      </trkpt>
      <trkpt lat="42.73854" lon="1.92433">
        <ele>1450.8</ele>
        <time>2024-10-11T11:48:30Z</time>
      </trkpt>
      <trkpt lat="42.73852" lon="1.92433">
        <ele>1451.2</ele>
        <time>2024-10-11T11:48:31Z</time>
      </trkpt>
      <trkpt lat="42.73851" lon="1.92432">
        <ele>1451.2</ele>
        <time>2024-10-11T11:48:32Z</time>
      </trkpt>
      <trkpt lat="42.73849" lon="1.92432">
        <ele>1451.2</ele>
        <time>2024-10-11T11:48:33Z</time>
      </trkpt>
      <trkpt lat="42.73848" lon="1.92431">
        <ele>1451.2</ele>
        <time>2024-10-11T11:48:34Z</time>
      </trkpt>
      <trkpt lat="42.73846" lon="1.92431">
        <ele>1451.8</ele>
        <time>2024-10-11T11:48:35Z</time>
      </trkpt>
      <trkpt lat="42.73845" lon="1.92431">
        <ele>1451.8</ele>
        <time>2024-10-11T11:48:36Z</time>
      </trkpt>
      <trkpt lat="42.73843" lon="1.92431">
        <ele>1451.8</ele>
        <time>2024-10-11T11:48:37Z</time>
      </trkpt>
      <trkpt lat="42.73842" lon="1.92431">
        <ele>1451.8</ele>
        <time>2024-10-11T11:48:38Z</time>
      </trkpt>
      <trkpt lat="42.73841" lon="1.92431">
        <ele>1451.8</ele>
        <time>2024-10-11T11:48:39Z</time>
      </trkpt>
      <trkpt lat="42.73838" lon="1.9243">
        <ele>1452.4</ele>
        <time>2024-10-11T11:48:40Z</time>
      </trkpt>
      <trkpt lat="42.73835" lon="1.9243">
        <ele>1452.4</ele>
        <time>2024-10-11T11:48:41Z</time>
      </trkpt>
      <trkpt lat="42.73834" lon="1.9243">
        <ele>1452.4</ele>
        <time>2024-10-11T11:48:42Z</time>
      </trkpt>
      <trkpt lat="42.73833" lon="1.9243">
        <ele>1452.4</ele>
        <time>2024-10-11T11:48:43Z</time>
      </trkpt>
      <trkpt lat="42.73832" lon="1.9243">
        <ele>1453</ele>
        <time>2024-10-11T11:48:44Z</time>
      </trkpt>
      <trkpt lat="42.7383" lon="1.9243">
        <ele>1453</ele>
        <time>2024-10-11T11:48:45Z</time>
      </trkpt>
      <trkpt lat="42.73827" lon="1.92429">
        <ele>1453</ele>
        <time>2024-10-11T11:48:46Z</time>
      </trkpt>
      <trkpt lat="42.73826" lon="1.92429">
        <ele>1453</ele>
        <time>2024-10-11T11:48:47Z</time>
      </trkpt>
      <trkpt lat="42.73824" lon="1.92429">
        <ele>1453</ele>
        <time>2024-10-11T11:48:48Z</time>
      </trkpt>
      <trkpt lat="42.73821" lon="1.92427">
        <ele>1453.6</ele>
        <time>2024-10-11T11:48:49Z</time>
      </trkpt>
      <trkpt lat="42.7382" lon="1.92427">
        <ele>1453.8</ele>
        <time>2024-10-11T11:48:50Z</time>
      </trkpt>
      <trkpt lat="42.73818" lon="1.92425">
        <ele>1453.8</ele>
        <time>2024-10-11T11:48:51Z</time>
      </trkpt>
      <trkpt lat="42.73817" lon="1.92425">
        <ele>1453.8</ele>
        <time>2024-10-11T11:48:52Z</time>
      </trkpt>
      <trkpt lat="42.73815" lon="1.92422">
        <ele>1453.8</ele>
        <time>2024-10-11T11:48:53Z</time>
      </trkpt>
      <trkpt lat="42.73814" lon="1.92421">
        <ele>1454.2</ele>
        <time>2024-10-11T11:48:54Z</time>
      </trkpt>
      <trkpt lat="42.73811" lon="1.92418">
        <ele>1454.2</ele>
        <time>2024-10-11T11:48:55Z</time>
      </trkpt>
      <trkpt lat="42.7381" lon="1.92417">
        <ele>1454.2</ele>
        <time>2024-10-11T11:48:56Z</time>
      </trkpt>
      <trkpt lat="42.73807" lon="1.92414">
        <ele>1454.2</ele>
        <time>2024-10-11T11:48:57Z</time>
      </trkpt>
      <trkpt lat="42.73806" lon="1.92413">
        <ele>1454.4</ele>
        <time>2024-10-11T11:48:58Z</time>
      </trkpt>
      <trkpt lat="42.73804" lon="1.9241">
        <ele>1454.4</ele>
        <time>2024-10-11T11:48:59Z</time>
      </trkpt>
      <trkpt lat="42.73802" lon="1.92407">
        <ele>1454.4</ele>
        <time>2024-10-11T11:49:00Z</time>
      </trkpt>
      <trkpt lat="42.73801" lon="1.92405">
        <ele>1454.4</ele>
        <time>2024-10-11T11:49:01Z</time>
      </trkpt>
      <trkpt lat="42.73799" lon="1.92402">
        <ele>1454.4</ele>
        <time>2024-10-11T11:49:02Z</time>
      </trkpt>
      <trkpt lat="42.73797" lon="1.92399">
        <ele>1454.6</ele>
        <time>2024-10-11T11:49:03Z</time>
      </trkpt>
      <trkpt lat="42.73795" lon="1.92396">
        <ele>1454.6</ele>
        <time>2024-10-11T11:49:04Z</time>
      </trkpt>
      <trkpt lat="42.73794" lon="1.92393">
        <ele>1454.6</ele>
        <time>2024-10-11T11:49:05Z</time>
      </trkpt>
      <trkpt lat="42.73792" lon="1.9239">
        <ele>1454.8</ele>
        <time>2024-10-11T11:49:06Z</time>
      </trkpt>
      <trkpt lat="42.73791" lon="1.92387">
        <ele>1455.4</ele>
        <time>2024-10-11T11:49:07Z</time>
      </trkpt>
      <trkpt lat="42.7379" lon="1.92384">
        <ele>1455.4</ele>
        <time>2024-10-11T11:49:08Z</time>
      </trkpt>
      <trkpt lat="42.73788" lon="1.92381">
        <ele>1455.4</ele>
        <time>2024-10-11T11:49:09Z</time>
      </trkpt>
      <trkpt lat="42.73787" lon="1.92378">
        <ele>1455.4</ele>
        <time>2024-10-11T11:49:10Z</time>
      </trkpt>
      <trkpt lat="42.73786" lon="1.92375">
        <ele>1455.4</ele>
        <time>2024-10-11T11:49:11Z</time>
      </trkpt>
      <trkpt lat="42.73784" lon="1.92373">
        <ele>1455.4</ele>
        <time>2024-10-11T11:49:12Z</time>
      </trkpt>
      <trkpt lat="42.73782" lon="1.92368">
        <ele>1455.4</ele>
        <time>2024-10-11T11:49:13Z</time>
      </trkpt>
      <trkpt lat="42.73782" lon="1.92367">
        <ele>1455.4</ele>
        <time>2024-10-11T11:49:14Z</time>
      </trkpt>
      <trkpt lat="42.7378" lon="1.92364">
        <ele>1456.4</ele>
        <time>2024-10-11T11:49:15Z</time>
      </trkpt>
      <trkpt lat="42.73779" lon="1.92361">
        <ele>1456</ele>
        <time>2024-10-11T11:49:16Z</time>
      </trkpt>
      <trkpt lat="42.73778" lon="1.92359">
        <ele>1456</ele>
        <time>2024-10-11T11:49:17Z</time>
      </trkpt>
      <trkpt lat="42.73777" lon="1.92356">
        <ele>1456</ele>
        <time>2024-10-11T11:49:18Z</time>
      </trkpt>
      <trkpt lat="42.73776" lon="1.92353">
        <ele>1457</ele>
        <time>2024-10-11T11:49:19Z</time>
      </trkpt>
      <trkpt lat="42.73775" lon="1.92351">
        <ele>1457</ele>
        <time>2024-10-11T11:49:20Z</time>
      </trkpt>
      <trkpt lat="42.73774" lon="1.92349">
        <ele>1457.4</ele>
        <time>2024-10-11T11:49:21Z</time>
      </trkpt>
      <trkpt lat="42.73773" lon="1.92346">
        <ele>1457.4</ele>
        <time>2024-10-11T11:49:22Z</time>
      </trkpt>
      <trkpt lat="42.73772" lon="1.92344">
        <ele>1457.4</ele>
        <time>2024-10-11T11:49:23Z</time>
      </trkpt>
      <trkpt lat="42.73771" lon="1.92342">
        <ele>1457.8</ele>
        <time>2024-10-11T11:49:24Z</time>
      </trkpt>
      <trkpt lat="42.7377" lon="1.9234">
        <ele>1458</ele>
        <time>2024-10-11T11:49:25Z</time>
      </trkpt>
      <trkpt lat="42.73769" lon="1.92337">
        <ele>1458</ele>
        <time>2024-10-11T11:49:26Z</time>
      </trkpt>
      <trkpt lat="42.73767" lon="1.92335">
        <ele>1458</ele>
        <time>2024-10-11T11:49:27Z</time>
      </trkpt>
      <trkpt lat="42.73766" lon="1.92332">
        <ele>1458</ele>
        <time>2024-10-11T11:49:28Z</time>
      </trkpt>
      <trkpt lat="42.73765" lon="1.92331">
        <ele>1458.8</ele>
        <time>2024-10-11T11:49:29Z</time>
      </trkpt>
      <trkpt lat="42.73763" lon="1.92328">
        <ele>1459.4</ele>
        <time>2024-10-11T11:49:30Z</time>
      </trkpt>
      <trkpt lat="42.73763" lon="1.92327">
        <ele>1459.4</ele>
        <time>2024-10-11T11:49:31Z</time>
      </trkpt>
      <trkpt lat="42.73761" lon="1.92325">
        <ele>1459.4</ele>
        <time>2024-10-11T11:49:32Z</time>
      </trkpt>
      <trkpt lat="42.73761" lon="1.92323">
        <ele>1459.4</ele>
        <time>2024-10-11T11:49:33Z</time>
      </trkpt>
      <trkpt lat="42.7376" lon="1.92321">
        <ele>1459.4</ele>
        <time>2024-10-11T11:49:34Z</time>
      </trkpt>
      <trkpt lat="42.73759" lon="1.92319">
        <ele>1460.4</ele>
        <time>2024-10-11T11:49:35Z</time>
      </trkpt>
      <trkpt lat="42.73758" lon="1.92317">
        <ele>1460.4</ele>
        <time>2024-10-11T11:49:36Z</time>
      </trkpt>
      <trkpt lat="42.73757" lon="1.92315">
        <ele>1460.4</ele>
        <time>2024-10-11T11:49:37Z</time>
      </trkpt>
      <trkpt lat="42.73756" lon="1.92313">
        <ele>1460.4</ele>
        <time>2024-10-11T11:49:38Z</time>
      </trkpt>
      <trkpt lat="42.73755" lon="1.92311">
        <ele>1461.2</ele>
        <time>2024-10-11T11:49:39Z</time>
      </trkpt>
      <trkpt lat="42.73754" lon="1.92309">
        <ele>1461.2</ele>
        <time>2024-10-11T11:49:40Z</time>
      </trkpt>
      <trkpt lat="42.73752" lon="1.92307">
        <ele>1461.2</ele>
        <time>2024-10-11T11:49:41Z</time>
      </trkpt>
      <trkpt lat="42.73751" lon="1.92306">
        <ele>1461.2</ele>
        <time>2024-10-11T11:49:42Z</time>
      </trkpt>
      <trkpt lat="42.7375" lon="1.92304">
        <ele>1461.6</ele>
        <time>2024-10-11T11:49:43Z</time>
      </trkpt>
      <trkpt lat="42.73749" lon="1.92302">
        <ele>1462</ele>
        <time>2024-10-11T11:49:44Z</time>
      </trkpt>
      <trkpt lat="42.73748" lon="1.923">
        <ele>1462</ele>
        <time>2024-10-11T11:49:45Z</time>
      </trkpt>
      <trkpt lat="42.73747" lon="1.92298">
        <ele>1462</ele>
        <time>2024-10-11T11:49:46Z</time>
      </trkpt>
      <trkpt lat="42.73746" lon="1.92297">
        <ele>1462.6</ele>
        <time>2024-10-11T11:49:47Z</time>
      </trkpt>
      <trkpt lat="42.73745" lon="1.92295">
        <ele>1462.8</ele>
        <time>2024-10-11T11:49:48Z</time>
      </trkpt>
      <trkpt lat="42.73744" lon="1.92294">
        <ele>1462.8</ele>
        <time>2024-10-11T11:49:49Z</time>
      </trkpt>
      <trkpt lat="42.73742" lon="1.92292">
        <ele>1462.8</ele>
        <time>2024-10-11T11:49:50Z</time>
      </trkpt>
      <trkpt lat="42.73741" lon="1.92291">
        <ele>1463.6</ele>
        <time>2024-10-11T11:49:51Z</time>
      </trkpt>
      <trkpt lat="42.7374" lon="1.92289">
        <ele>1463.6</ele>
        <time>2024-10-11T11:49:52Z</time>
      </trkpt>
      <trkpt lat="42.73739" lon="1.92288">
        <ele>1463.8</ele>
        <time>2024-10-11T11:49:53Z</time>
      </trkpt>
      <trkpt lat="42.73737" lon="1.92286">
        <ele>1463.8</ele>
        <time>2024-10-11T11:49:54Z</time>
      </trkpt>
      <trkpt lat="42.73736" lon="1.92285">
        <ele>1464.6</ele>
        <time>2024-10-11T11:49:55Z</time>
      </trkpt>
      <trkpt lat="42.73735" lon="1.92283">
        <ele>1464.6</ele>
        <time>2024-10-11T11:49:56Z</time>
      </trkpt>
      <trkpt lat="42.73734" lon="1.92282">
        <ele>1464.8</ele>
        <time>2024-10-11T11:49:57Z</time>
      </trkpt>
      <trkpt lat="42.73733" lon="1.9228">
        <ele>1464.8</ele>
        <time>2024-10-11T11:49:58Z</time>
      </trkpt>
      <trkpt lat="42.73732" lon="1.92278">
        <ele>1464.8</ele>
        <time>2024-10-11T11:49:59Z</time>
      </trkpt>
      <trkpt lat="42.73731" lon="1.92276">
        <ele>1464.8</ele>
        <time>2024-10-11T11:50:00Z</time>
      </trkpt>
      <trkpt lat="42.7373" lon="1.92274">
        <ele>1465.8</ele>
        <time>2024-10-11T11:50:01Z</time>
      </trkpt>
      <trkpt lat="42.73729" lon="1.92273">
        <ele>1465.8</ele>
        <time>2024-10-11T11:50:02Z</time>
      </trkpt>
      <trkpt lat="42.73728" lon="1.92271">
        <ele>1465.8</ele>
        <time>2024-10-11T11:50:03Z</time>
      </trkpt>
      <trkpt lat="42.73727" lon="1.92269">
        <ele>1465.8</ele>
        <time>2024-10-11T11:50:04Z</time>
      </trkpt>
      <trkpt lat="42.73726" lon="1.92268">
        <ele>1466.6</ele>
        <time>2024-10-11T11:50:05Z</time>
      </trkpt>
      <trkpt lat="42.73725" lon="1.92266">
        <ele>1466.6</ele>
        <time>2024-10-11T11:50:06Z</time>
      </trkpt>
      <trkpt lat="42.73725" lon="1.92264">
        <ele>1466.6</ele>
        <time>2024-10-11T11:50:07Z</time>
      </trkpt>
      <trkpt lat="42.73724" lon="1.92262">
        <ele>1467</ele>
        <time>2024-10-11T11:50:08Z</time>
      </trkpt>
      <trkpt lat="42.73723" lon="1.9226">
        <ele>1467</ele>
        <time>2024-10-11T11:50:09Z</time>
      </trkpt>
      <trkpt lat="42.73722" lon="1.92258">
        <ele>1467</ele>
        <time>2024-10-11T11:50:10Z</time>
      </trkpt>
      <trkpt lat="42.73721" lon="1.92256">
        <ele>1467.2</ele>
        <time>2024-10-11T11:50:11Z</time>
      </trkpt>
      <trkpt lat="42.7372" lon="1.92254">
        <ele>1467.2</ele>
        <time>2024-10-11T11:50:12Z</time>
      </trkpt>
      <trkpt lat="42.7372" lon="1.92252">
        <ele>1467.2</ele>
        <time>2024-10-11T11:50:13Z</time>
      </trkpt>
      <trkpt lat="42.7372" lon="1.9225">
        <ele>1467.8</ele>
        <time>2024-10-11T11:50:14Z</time>
      </trkpt>
      <trkpt lat="42.73719" lon="1.92248">
        <ele>1467.8</ele>
        <time>2024-10-11T11:50:15Z</time>
      </trkpt>
      <trkpt lat="42.73719" lon="1.92246">
        <ele>1467.8</ele>
        <time>2024-10-11T11:50:16Z</time>
      </trkpt>
      <trkpt lat="42.73718" lon="1.92244">
        <ele>1467.8</ele>
        <time>2024-10-11T11:50:17Z</time>
      </trkpt>
      <trkpt lat="42.73717" lon="1.92242">
        <ele>1468.2</ele>
        <time>2024-10-11T11:50:18Z</time>
      </trkpt>
      <trkpt lat="42.73717" lon="1.9224">
        <ele>1468.2</ele>
        <time>2024-10-11T11:50:19Z</time>
      </trkpt>
      <trkpt lat="42.73716" lon="1.92238">
        <ele>1468.2</ele>
        <time>2024-10-11T11:50:20Z</time>
      </trkpt>
      <trkpt lat="42.73715" lon="1.92236">
        <ele>1468.2</ele>
        <time>2024-10-11T11:50:21Z</time>
      </trkpt>
      <trkpt lat="42.73715" lon="1.92234">
        <ele>1468.2</ele>
        <time>2024-10-11T11:50:22Z</time>
      </trkpt>
      <trkpt lat="42.73714" lon="1.92232">
        <ele>1468.8</ele>
        <time>2024-10-11T11:50:23Z</time>
      </trkpt>
      <trkpt lat="42.73713" lon="1.92229">
        <ele>1468.8</ele>
        <time>2024-10-11T11:50:24Z</time>
      </trkpt>
      <trkpt lat="42.73713" lon="1.92227">
        <ele>1468.8</ele>
        <time>2024-10-11T11:50:25Z</time>
      </trkpt>
      <trkpt lat="42.73713" lon="1.92225">
        <ele>1468.8</ele>
        <time>2024-10-11T11:50:26Z</time>
      </trkpt>
      <trkpt lat="42.73714" lon="1.92223">
        <ele>1469.6</ele>
        <time>2024-10-11T11:50:27Z</time>
      </trkpt>
      <trkpt lat="42.73714" lon="1.92222">
        <ele>1469.8</ele>
        <time>2024-10-11T11:50:28Z</time>
      </trkpt>
      <trkpt lat="42.73716" lon="1.9222">
        <ele>1469.8</ele>
        <time>2024-10-11T11:50:29Z</time>
      </trkpt>
      <trkpt lat="42.73717" lon="1.9222">
        <ele>1469.8</ele>
        <time>2024-10-11T11:50:30Z</time>
      </trkpt>
      <trkpt lat="42.73719" lon="1.92221">
        <ele>1469.8</ele>
        <time>2024-10-11T11:50:31Z</time>
      </trkpt>
      <trkpt lat="42.7372" lon="1.92223">
        <ele>1470.8</ele>
        <time>2024-10-11T11:50:32Z</time>
      </trkpt>
      <trkpt lat="42.7372" lon="1.92225">
        <ele>1471</ele>
        <time>2024-10-11T11:50:33Z</time>
      </trkpt>
      <trkpt lat="42.73721" lon="1.92227">
        <ele>1471</ele>
        <time>2024-10-11T11:50:34Z</time>
      </trkpt>
      <trkpt lat="42.73722" lon="1.92229">
        <ele>1471</ele>
        <time>2024-10-11T11:50:35Z</time>
      </trkpt>
      <trkpt lat="42.73723" lon="1.92231">
        <ele>1471.6</ele>
        <time>2024-10-11T11:50:36Z</time>
      </trkpt>
      <trkpt lat="42.73724" lon="1.92233">
        <ele>1471.8</ele>
        <time>2024-10-11T11:50:37Z</time>
      </trkpt>
      <trkpt lat="42.73725" lon="1.92235">
        <ele>1471.8</ele>
        <time>2024-10-11T11:50:38Z</time>
      </trkpt>
      <trkpt lat="42.73726" lon="1.92238">
        <ele>1471.8</ele>
        <time>2024-10-11T11:50:39Z</time>
      </trkpt>
      <trkpt lat="42.73727" lon="1.9224">
        <ele>1472.2</ele>
        <time>2024-10-11T11:50:40Z</time>
      </trkpt>
      <trkpt lat="42.73728" lon="1.92242">
        <ele>1472.4</ele>
        <time>2024-10-11T11:50:41Z</time>
      </trkpt>
      <trkpt lat="42.73729" lon="1.92244">
        <ele>1472.4</ele>
        <time>2024-10-11T11:50:42Z</time>
      </trkpt>
      <trkpt lat="42.7373" lon="1.92247">
        <ele>1472.4</ele>
        <time>2024-10-11T11:50:43Z</time>
      </trkpt>
      <trkpt lat="42.73731" lon="1.92249">
        <ele>1472.4</ele>
        <time>2024-10-11T11:50:44Z</time>
      </trkpt>
      <trkpt lat="42.73732" lon="1.92251">
        <ele>1473</ele>
        <time>2024-10-11T11:50:45Z</time>
      </trkpt>
      <trkpt lat="42.73733" lon="1.92254">
        <ele>1472.8</ele>
        <time>2024-10-11T11:50:46Z</time>
      </trkpt>
      <trkpt lat="42.73734" lon="1.92256">
        <ele>1472.8</ele>
        <time>2024-10-11T11:50:47Z</time>
      </trkpt>
      <trkpt lat="42.73735" lon="1.92258">
        <ele>1472.8</ele>
        <time>2024-10-11T11:50:48Z</time>
      </trkpt>
      <trkpt lat="42.73736" lon="1.9226">
        <ele>1473.6</ele>
        <time>2024-10-11T11:50:49Z</time>
      </trkpt>
      <trkpt lat="42.73738" lon="1.92262">
        <ele>1474</ele>
        <time>2024-10-11T11:50:50Z</time>
      </trkpt>
      <trkpt lat="42.73739" lon="1.92265">
        <ele>1474</ele>
        <time>2024-10-11T11:50:51Z</time>
      </trkpt>
      <trkpt lat="42.73741" lon="1.92267">
        <ele>1474</ele>
        <time>2024-10-11T11:50:52Z</time>
      </trkpt>
      <trkpt lat="42.73743" lon="1.9227">
        <ele>1474</ele>
        <time>2024-10-11T11:50:53Z</time>
      </trkpt>
      <trkpt lat="42.73744" lon="1.92271">
        <ele>1474</ele>
        <time>2024-10-11T11:50:54Z</time>
      </trkpt>
      <trkpt lat="42.73745" lon="1.92272">
        <ele>1474</ele>
        <time>2024-10-11T11:50:55Z</time>
      </trkpt>
      <trkpt lat="42.73747" lon="1.92274">
        <ele>1474.6</ele>
        <time>2024-10-11T11:50:56Z</time>
      </trkpt>
      <trkpt lat="42.73748" lon="1.92275">
        <ele>1474.6</ele>
        <time>2024-10-11T11:50:57Z</time>
      </trkpt>
      <trkpt lat="42.73751" lon="1.92278">
        <ele>1474.6</ele>
        <time>2024-10-11T11:50:58Z</time>
      </trkpt>
      <trkpt lat="42.73751" lon="1.92278">
        <ele>1474.6</ele>
        <time>2024-10-11T11:50:59Z</time>
      </trkpt>
      <trkpt lat="42.73754" lon="1.92281">
        <ele>1475</ele>
        <time>2024-10-11T11:51:00Z</time>
      </trkpt>
      <trkpt lat="42.73755" lon="1.92282">
        <ele>1475</ele>
        <time>2024-10-11T11:51:01Z</time>
      </trkpt>
      <trkpt lat="42.73757" lon="1.92284">
        <ele>1475</ele>
        <time>2024-10-11T11:51:02Z</time>
      </trkpt>
      <trkpt lat="42.73758" lon="1.92284">
        <ele>1475.4</ele>
        <time>2024-10-11T11:51:03Z</time>
      </trkpt>
      <trkpt lat="42.73761" lon="1.92287">
        <ele>1475.8</ele>
        <time>2024-10-11T11:51:04Z</time>
      </trkpt>
      <trkpt lat="42.73762" lon="1.92287">
        <ele>1475.8</ele>
        <time>2024-10-11T11:51:05Z</time>
      </trkpt>
      <trkpt lat="42.73765" lon="1.92289">
        <ele>1475.8</ele>
        <time>2024-10-11T11:51:06Z</time>
      </trkpt>
      <trkpt lat="42.73766" lon="1.9229">
        <ele>1475.8</ele>
        <time>2024-10-11T11:51:07Z</time>
      </trkpt>
      <trkpt lat="42.73767" lon="1.92291">
        <ele>1475.8</ele>
        <time>2024-10-11T11:51:08Z</time>
      </trkpt>
      <trkpt lat="42.73769" lon="1.92293">
        <ele>1476.8</ele>
        <time>2024-10-11T11:51:09Z</time>
      </trkpt>
      <trkpt lat="42.73771" lon="1.92295">
        <ele>1476.8</ele>
        <time>2024-10-11T11:51:10Z</time>
      </trkpt>
      <trkpt lat="42.73772" lon="1.92296">
        <ele>1476.8</ele>
        <time>2024-10-11T11:51:11Z</time>
      </trkpt>
      <trkpt lat="42.73774" lon="1.92298">
        <ele>1476.8</ele>
        <time>2024-10-11T11:51:12Z</time>
      </trkpt>
      <trkpt lat="42.73776" lon="1.92299">
        <ele>1476.8</ele>
        <time>2024-10-11T11:51:13Z</time>
      </trkpt>
      <trkpt lat="42.73777" lon="1.92301">
        <ele>1477.2</ele>
        <time>2024-10-11T11:51:14Z</time>
      </trkpt>
      <trkpt lat="42.73779" lon="1.92302">
        <ele>1477.2</ele>
        <time>2024-10-11T11:51:15Z</time>
      </trkpt>
      <trkpt lat="42.73781" lon="1.92304">
        <ele>1477</ele>
        <time>2024-10-11T11:51:16Z</time>
      </trkpt>
      <trkpt lat="42.73782" lon="1.92305">
        <ele>1477</ele>
        <time>2024-10-11T11:51:17Z</time>
      </trkpt>
      <trkpt lat="42.73784" lon="1.92307">
        <ele>1477</ele>
        <time>2024-10-11T11:51:18Z</time>
      </trkpt>
      <trkpt lat="42.73786" lon="1.92309">
        <ele>1477</ele>
        <time>2024-10-11T11:51:19Z</time>
      </trkpt>
      <trkpt lat="42.73787" lon="1.9231">
        <ele>1477</ele>
        <time>2024-10-11T11:51:20Z</time>
      </trkpt>
      <trkpt lat="42.73789" lon="1.92312">
        <ele>1478</ele>
        <time>2024-10-11T11:51:21Z</time>
      </trkpt>
      <trkpt lat="42.7379" lon="1.92314">
        <ele>1478.2</ele>
        <time>2024-10-11T11:51:22Z</time>
      </trkpt>
      <trkpt lat="42.73791" lon="1.92315">
        <ele>1478.2</ele>
        <time>2024-10-11T11:51:23Z</time>
      </trkpt>
      <trkpt lat="42.73793" lon="1.92316">
        <ele>1478.2</ele>
        <time>2024-10-11T11:51:24Z</time>
      </trkpt>
      <trkpt lat="42.73794" lon="1.92317">
        <ele>1478.6</ele>
        <time>2024-10-11T11:51:25Z</time>
      </trkpt>
      <trkpt lat="42.73796" lon="1.92319">
        <ele>1478.8</ele>
        <time>2024-10-11T11:51:26Z</time>
      </trkpt>
      <trkpt lat="42.73797" lon="1.92321">
        <ele>1478.8</ele>
        <time>2024-10-11T11:51:27Z</time>
      </trkpt>
      <trkpt lat="42.73798" lon="1.92322">
        <ele>1478.8</ele>
        <time>2024-10-11T11:51:28Z</time>
      </trkpt>
      <trkpt lat="42.73799" lon="1.92324">
        <ele>1479.6</ele>
        <time>2024-10-11T11:51:29Z</time>
      </trkpt>
      <trkpt lat="42.73801" lon="1.92326">
        <ele>1479.6</ele>
        <time>2024-10-11T11:51:30Z</time>
      </trkpt>
      <trkpt lat="42.73802" lon="1.92327">
        <ele>1479.8</ele>
        <time>2024-10-11T11:51:31Z</time>
      </trkpt>
      <trkpt lat="42.73803" lon="1.92329">
        <ele>1479.8</ele>
        <time>2024-10-11T11:51:32Z</time>
      </trkpt>
      <trkpt lat="42.73804" lon="1.92331">
        <ele>1479.8</ele>
        <time>2024-10-11T11:51:33Z</time>
      </trkpt>
      <trkpt lat="42.73805" lon="1.92332">
        <ele>1480.6</ele>
        <time>2024-10-11T11:51:34Z</time>
      </trkpt>
      <trkpt lat="42.73806" lon="1.92334">
        <ele>1480.8</ele>
        <time>2024-10-11T11:51:35Z</time>
      </trkpt>
      <trkpt lat="42.73807" lon="1.92336">
        <ele>1480.8</ele>
        <time>2024-10-11T11:51:36Z</time>
      </trkpt>
      <trkpt lat="42.73808" lon="1.92337">
        <ele>1480.8</ele>
        <time>2024-10-11T11:51:37Z</time>
      </trkpt>
      <trkpt lat="42.7381" lon="1.92339">
        <ele>1480.8</ele>
        <time>2024-10-11T11:51:38Z</time>
      </trkpt>
      <trkpt lat="42.73811" lon="1.9234">
        <ele>1481.6</ele>
        <time>2024-10-11T11:51:39Z</time>
      </trkpt>
      <trkpt lat="42.73813" lon="1.92341">
        <ele>1481.6</ele>
        <time>2024-10-11T11:51:40Z</time>
      </trkpt>
      <trkpt lat="42.73814" lon="1.92342">
        <ele>1481.6</ele>
        <time>2024-10-11T11:51:41Z</time>
      </trkpt>
      <trkpt lat="42.73816" lon="1.92343">
        <ele>1481.6</ele>
        <time>2024-10-11T11:51:42Z</time>
      </trkpt>
      <trkpt lat="42.73818" lon="1.92343">
        <ele>1481.6</ele>
        <time>2024-10-11T11:51:43Z</time>
      </trkpt>
      <trkpt lat="42.73819" lon="1.92344">
        <ele>1482.6</ele>
        <time>2024-10-11T11:51:44Z</time>
      </trkpt>
      <trkpt lat="42.7382" lon="1.92344">
        <ele>1482.8</ele>
        <time>2024-10-11T11:51:45Z</time>
      </trkpt>
      <trkpt lat="42.73821" lon="1.92344">
        <ele>1482.8</ele>
        <time>2024-10-11T11:51:46Z</time>
      </trkpt>
      <trkpt lat="42.73822" lon="1.92344">
        <ele>1482.8</ele>
        <time>2024-10-11T11:51:47Z</time>
      </trkpt>
      <trkpt lat="42.73824" lon="1.92343">
        <ele>1483.6</ele>
        <time>2024-10-11T11:51:48Z</time>
      </trkpt>
      <trkpt lat="42.73825" lon="1.92343">
        <ele>1484</ele>
        <time>2024-10-11T11:51:49Z</time>
      </trkpt>
      <trkpt lat="42.73826" lon="1.92342">
        <ele>1484</ele>
        <time>2024-10-11T11:51:50Z</time>
      </trkpt>
      <trkpt lat="42.73827" lon="1.92342">
        <ele>1484</ele>
        <time>2024-10-11T11:51:51Z</time>
      </trkpt>
      <trkpt lat="42.73828" lon="1.92341">
        <ele>1484</ele>
        <time>2024-10-11T11:51:52Z</time>
      </trkpt>
      <trkpt lat="42.73828" lon="1.9234">
        <ele>1484.6</ele>
        <time>2024-10-11T11:51:53Z</time>
      </trkpt>
      <trkpt lat="42.73829" lon="1.92339">
        <ele>1485</ele>
        <time>2024-10-11T11:51:54Z</time>
      </trkpt>
      <trkpt lat="42.7383" lon="1.92339">
        <ele>1485</ele>
        <time>2024-10-11T11:51:55Z</time>
      </trkpt>
      <trkpt lat="42.73832" lon="1.92337">
        <ele>1485</ele>
        <time>2024-10-11T11:51:56Z</time>
      </trkpt>
      <trkpt lat="42.73833" lon="1.92336">
        <ele>1485</ele>
        <time>2024-10-11T11:51:57Z</time>
      </trkpt>
      <trkpt lat="42.73834" lon="1.92335">
        <ele>1485.8</ele>
        <time>2024-10-11T11:51:58Z</time>
      </trkpt>
      <trkpt lat="42.73835" lon="1.92334">
        <ele>1485.8</ele>
        <time>2024-10-11T11:51:59Z</time>
      </trkpt>
      <trkpt lat="42.73837" lon="1.92333">
        <ele>1485.8</ele>
        <time>2024-10-11T11:52:00Z</time>
      </trkpt>
      <trkpt lat="42.73837" lon="1.92332">
        <ele>1485.8</ele>
        <time>2024-10-11T11:52:01Z</time>
      </trkpt>
      <trkpt lat="42.73838" lon="1.92331">
        <ele>1486.2</ele>
        <time>2024-10-11T11:52:02Z</time>
      </trkpt>
      <trkpt lat="42.73839" lon="1.92329">
        <ele>1486.4</ele>
        <time>2024-10-11T11:52:03Z</time>
      </trkpt>
      <trkpt lat="42.73841" lon="1.92327">
        <ele>1486.4</ele>
        <time>2024-10-11T11:52:04Z</time>
      </trkpt>
      <trkpt lat="42.73842" lon="1.92326">
        <ele>1486.4</ele>
        <time>2024-10-11T11:52:05Z</time>
      </trkpt>
      <trkpt lat="42.73843" lon="1.92325">
        <ele>1487.2</ele>
        <time>2024-10-11T11:52:06Z</time>
      </trkpt>
      <trkpt lat="42.73844" lon="1.92323">
        <ele>1487</ele>
        <time>2024-10-11T11:52:07Z</time>
      </trkpt>
      <trkpt lat="42.73845" lon="1.92322">
        <ele>1487</ele>
        <time>2024-10-11T11:52:08Z</time>
      </trkpt>
      <trkpt lat="42.73846" lon="1.92321">
        <ele>1487</ele>
        <time>2024-10-11T11:52:09Z</time>
      </trkpt>
      <trkpt lat="42.73847" lon="1.9232">
        <ele>1487.8</ele>
        <time>2024-10-11T11:52:10Z</time>
      </trkpt>
      <trkpt lat="42.73848" lon="1.92319">
        <ele>1487.8</ele>
        <time>2024-10-11T11:52:11Z</time>
      </trkpt>
      <trkpt lat="42.73849" lon="1.92318">
        <ele>1487.8</ele>
        <time>2024-10-11T11:52:12Z</time>
      </trkpt>
      <trkpt lat="42.7385" lon="1.92316">
        <ele>1487.8</ele>
        <time>2024-10-11T11:52:13Z</time>
      </trkpt>
      <trkpt lat="42.73851" lon="1.92315">
        <ele>1488.4</ele>
        <time>2024-10-11T11:52:14Z</time>
      </trkpt>
      <trkpt lat="42.73852" lon="1.92314">
        <ele>1488.4</ele>
        <time>2024-10-11T11:52:15Z</time>
      </trkpt>
      <trkpt lat="42.73853" lon="1.92313">
        <ele>1489</ele>
        <time>2024-10-11T11:52:16Z</time>
      </trkpt>
      <trkpt lat="42.73854" lon="1.92312">
        <ele>1489</ele>
        <time>2024-10-11T11:52:17Z</time>
      </trkpt>
      <trkpt lat="42.73855" lon="1.92311">
        <ele>1489</ele>
        <time>2024-10-11T11:52:18Z</time>
      </trkpt>
      <trkpt lat="42.73856" lon="1.9231">
        <ele>1489.6</ele>
        <time>2024-10-11T11:52:19Z</time>
      </trkpt>
      <trkpt lat="42.73857" lon="1.92308">
        <ele>1489.6</ele>
        <time>2024-10-11T11:52:20Z</time>
      </trkpt>
      <trkpt lat="42.73858" lon="1.92307">
        <ele>1489.8</ele>
        <time>2024-10-11T11:52:21Z</time>
      </trkpt>
      <trkpt lat="42.73859" lon="1.92306">
        <ele>1489.8</ele>
        <time>2024-10-11T11:52:22Z</time>
      </trkpt>
      <trkpt lat="42.7386" lon="1.92305">
        <ele>1489.8</ele>
        <time>2024-10-11T11:52:23Z</time>
      </trkpt>
      <trkpt lat="42.73861" lon="1.92304">
        <ele>1490.6</ele>
        <time>2024-10-11T11:52:24Z</time>
      </trkpt>
      <trkpt lat="42.73863" lon="1.92302">
        <ele>1490.6</ele>
        <time>2024-10-11T11:52:25Z</time>
      </trkpt>
      <trkpt lat="42.73864" lon="1.92301">
        <ele>1490.6</ele>
        <time>2024-10-11T11:52:26Z</time>
      </trkpt>
      <trkpt lat="42.73865" lon="1.92299">
        <ele>1490.6</ele>
        <time>2024-10-11T11:52:27Z</time>
      </trkpt>
      <trkpt lat="42.73866" lon="1.92297">
        <ele>1491.2</ele>
        <time>2024-10-11T11:52:28Z</time>
      </trkpt>
      <trkpt lat="42.73867" lon="1.92296">
        <ele>1491.6</ele>
        <time>2024-10-11T11:52:29Z</time>
      </trkpt>
      <trkpt lat="42.73869" lon="1.92294">
        <ele>1491.6</ele>
        <time>2024-10-11T11:52:30Z</time>
      </trkpt>
      <trkpt lat="42.73869" lon="1.92293">
        <ele>1491.6</ele>
        <time>2024-10-11T11:52:31Z</time>
      </trkpt>
      <trkpt lat="42.73871" lon="1.92292">
        <ele>1491.6</ele>
        <time>2024-10-11T11:52:32Z</time>
      </trkpt>
      <trkpt lat="42.73872" lon="1.92291">
        <ele>1491.6</ele>
        <time>2024-10-11T11:52:33Z</time>
      </trkpt>
      <trkpt lat="42.73873" lon="1.9229">
        <ele>1492.6</ele>
        <time>2024-10-11T11:52:34Z</time>
      </trkpt>
      <trkpt lat="42.73874" lon="1.92289">
        <ele>1492.6</ele>
        <time>2024-10-11T11:52:35Z</time>
      </trkpt>
      <trkpt lat="42.73876" lon="1.92288">
        <ele>1492.6</ele>
        <time>2024-10-11T11:52:36Z</time>
      </trkpt>
      <trkpt lat="42.73877" lon="1.92287">
        <ele>1493.2</ele>
        <time>2024-10-11T11:52:37Z</time>
      </trkpt>
      <trkpt lat="42.7388" lon="1.92286">
        <ele>1493.6</ele>
        <time>2024-10-11T11:52:38Z</time>
      </trkpt>
      <trkpt lat="42.73881" lon="1.92285">
        <ele>1493.6</ele>
        <time>2024-10-11T11:52:39Z</time>
      </trkpt>
      <trkpt lat="42.73882" lon="1.92285">
        <ele>1493.6</ele>
        <time>2024-10-11T11:52:40Z</time>
      </trkpt>
      <trkpt lat="42.73883" lon="1.92284">
        <ele>1493.6</ele>
        <time>2024-10-11T11:52:41Z</time>
      </trkpt>
      <trkpt lat="42.73884" lon="1.92283">
        <ele>1494.2</ele>
        <time>2024-10-11T11:52:42Z</time>
      </trkpt>
      <trkpt lat="42.73886" lon="1.92283">
        <ele>1494.2</ele>
        <time>2024-10-11T11:52:43Z</time>
      </trkpt>
      <trkpt lat="42.73886" lon="1.92282">
        <ele>1494.2</ele>
        <time>2024-10-11T11:52:44Z</time>
      </trkpt>
      <trkpt lat="42.73888" lon="1.92282">
        <ele>1494.2</ele>
        <time>2024-10-11T11:52:45Z</time>
      </trkpt>
      <trkpt lat="42.73889" lon="1.92281">
        <ele>1495</ele>
        <time>2024-10-11T11:52:46Z</time>
      </trkpt>
      <trkpt lat="42.73891" lon="1.9228">
        <ele>1495</ele>
        <time>2024-10-11T11:52:47Z</time>
      </trkpt>
      <trkpt lat="42.73892" lon="1.9228">
        <ele>1495.4</ele>
        <time>2024-10-11T11:52:48Z</time>
      </trkpt>
      <trkpt lat="42.73894" lon="1.9228">
        <ele>1495.4</ele>
        <time>2024-10-11T11:52:49Z</time>
      </trkpt>
      <trkpt lat="42.73895" lon="1.9228">
        <ele>1495.6</ele>
        <time>2024-10-11T11:52:50Z</time>
      </trkpt>
      <trkpt lat="42.73897" lon="1.92279">
        <ele>1496</ele>
        <time>2024-10-11T11:52:51Z</time>
      </trkpt>
      <trkpt lat="42.73898" lon="1.92278">
        <ele>1496</ele>
        <time>2024-10-11T11:52:52Z</time>
      </trkpt>
      <trkpt lat="42.73899" lon="1.92278">
        <ele>1496</ele>
        <time>2024-10-11T11:52:53Z</time>
      </trkpt>
      <trkpt lat="42.739" lon="1.92278">
        <ele>1496</ele>
        <time>2024-10-11T11:52:54Z</time>
      </trkpt>
      <trkpt lat="42.73901" lon="1.92278">
        <ele>1496.4</ele>
        <time>2024-10-11T11:52:55Z</time>
      </trkpt>
      <trkpt lat="42.73902" lon="1.92278">
        <ele>1496.6</ele>
        <time>2024-10-11T11:52:56Z</time>
      </trkpt>
      <trkpt lat="42.73904" lon="1.92277">
        <ele>1496.6</ele>
        <time>2024-10-11T11:52:57Z</time>
      </trkpt>
      <trkpt lat="42.73905" lon="1.92277">
        <ele>1496.6</ele>
        <time>2024-10-11T11:52:58Z</time>
      </trkpt>
      <trkpt lat="42.73905" lon="1.92277">
        <ele>1497.2</ele>
        <time>2024-10-11T11:52:59Z</time>
      </trkpt>
      <trkpt lat="42.73906" lon="1.92277">
        <ele>1497.4</ele>
        <time>2024-10-11T11:53:00Z</time>
      </trkpt>
      <trkpt lat="42.73907" lon="1.92276">
        <ele>1497.4</ele>
        <time>2024-10-11T11:53:01Z</time>
      </trkpt>
      <trkpt lat="42.73908" lon="1.92276">
        <ele>1497.4</ele>
        <time>2024-10-11T11:53:02Z</time>
      </trkpt>
      <trkpt lat="42.73911" lon="1.92276">
        <ele>1497.4</ele>
        <time>2024-10-11T11:53:03Z</time>
      </trkpt>
      <trkpt lat="42.73912" lon="1.92276">
        <ele>1497.8</ele>
        <time>2024-10-11T11:53:04Z</time>
      </trkpt>
      <trkpt lat="42.73913" lon="1.92276">
        <ele>1498.2</ele>
        <time>2024-10-11T11:53:05Z</time>
      </trkpt>
      <trkpt lat="42.73914" lon="1.92275">
        <ele>1498.2</ele>
        <time>2024-10-11T11:53:06Z</time>
      </trkpt>
      <trkpt lat="42.73916" lon="1.92274">
        <ele>1498.2</ele>
        <time>2024-10-11T11:53:07Z</time>
      </trkpt>
      <trkpt lat="42.73917" lon="1.92275">
        <ele>1498.2</ele>
        <time>2024-10-11T11:53:08Z</time>
      </trkpt>
      <trkpt lat="42.73917" lon="1.92277">
        <ele>1498.2</ele>
        <time>2024-10-11T11:53:09Z</time>
      </trkpt>
      <trkpt lat="42.73919" lon="1.92277">
        <ele>1498.6</ele>
        <time>2024-10-11T11:53:10Z</time>
      </trkpt>
      <trkpt lat="42.73921" lon="1.92277">
        <ele>1498.6</ele>
        <time>2024-10-11T11:53:11Z</time>
      </trkpt>
      <trkpt lat="42.73923" lon="1.92278">
        <ele>1498.6</ele>
        <time>2024-10-11T11:53:12Z</time>
      </trkpt>
      <trkpt lat="42.73924" lon="1.92279">
        <ele>1499.2</ele>
        <time>2024-10-11T11:53:13Z</time>
      </trkpt>
      <trkpt lat="42.73926" lon="1.92281">
        <ele>1499.4</ele>
        <time>2024-10-11T11:53:14Z</time>
      </trkpt>
      <trkpt lat="42.73926" lon="1.92283">
        <ele>1499.4</ele>
        <time>2024-10-11T11:53:15Z</time>
      </trkpt>
      <trkpt lat="42.73927" lon="1.92284">
        <ele>1499.4</ele>
        <time>2024-10-11T11:53:16Z</time>
      </trkpt>
      <trkpt lat="42.73929" lon="1.92286">
        <ele>1499.4</ele>
        <time>2024-10-11T11:53:17Z</time>
      </trkpt>
      <trkpt lat="42.7393" lon="1.92288">
        <ele>1500.2</ele>
        <time>2024-10-11T11:53:18Z</time>
      </trkpt>
      <trkpt lat="42.73931" lon="1.92289">
        <ele>1500.2</ele>
        <time>2024-10-11T11:53:19Z</time>
      </trkpt>
      <trkpt lat="42.73932" lon="1.92292">
        <ele>1500.2</ele>
        <time>2024-10-11T11:53:20Z</time>
      </trkpt>
      <trkpt lat="42.73933" lon="1.92294">
        <ele>1500.2</ele>
        <time>2024-10-11T11:53:21Z</time>
      </trkpt>
      <trkpt lat="42.73933" lon="1.92296">
        <ele>1501</ele>
        <time>2024-10-11T11:53:22Z</time>
      </trkpt>
      <trkpt lat="42.73934" lon="1.92298">
        <ele>1501.4</ele>
        <time>2024-10-11T11:53:23Z</time>
      </trkpt>
      <trkpt lat="42.73935" lon="1.923">
        <ele>1501.4</ele>
        <time>2024-10-11T11:53:24Z</time>
      </trkpt>
      <trkpt lat="42.73937" lon="1.92302">
        <ele>1501.4</ele>
        <time>2024-10-11T11:53:25Z</time>
      </trkpt>
      <trkpt lat="42.73938" lon="1.92304">
        <ele>1501.4</ele>
        <time>2024-10-11T11:53:26Z</time>
      </trkpt>
      <trkpt lat="42.73939" lon="1.92306">
        <ele>1502</ele>
        <time>2024-10-11T11:53:27Z</time>
      </trkpt>
      <trkpt lat="42.7394" lon="1.92308">
        <ele>1502</ele>
        <time>2024-10-11T11:53:28Z</time>
      </trkpt>
      <trkpt lat="42.73941" lon="1.92309">
        <ele>1502</ele>
        <time>2024-10-11T11:53:29Z</time>
      </trkpt>
      <trkpt lat="42.73942" lon="1.92311">
        <ele>1502</ele>
        <time>2024-10-11T11:53:30Z</time>
      </trkpt>
      <trkpt lat="42.73944" lon="1.92312">
        <ele>1502.4</ele>
        <time>2024-10-11T11:53:31Z</time>
      </trkpt>
      <trkpt lat="42.73946" lon="1.92316">
        <ele>1502.6</ele>
        <time>2024-10-11T11:53:32Z</time>
      </trkpt>
      <trkpt lat="42.73947" lon="1.92317">
        <ele>1502.6</ele>
        <time>2024-10-11T11:53:33Z</time>
      </trkpt>
      <trkpt lat="42.73948" lon="1.92318">
        <ele>1502.6</ele>
        <time>2024-10-11T11:53:34Z</time>
      </trkpt>
      <trkpt lat="42.73949" lon="1.9232">
        <ele>1503</ele>
        <time>2024-10-11T11:53:35Z</time>
      </trkpt>
      <trkpt lat="42.7395" lon="1.92321">
        <ele>1503.4</ele>
        <time>2024-10-11T11:53:36Z</time>
      </trkpt>
      <trkpt lat="42.73951" lon="1.92322">
        <ele>1503.4</ele>
        <time>2024-10-11T11:53:37Z</time>
      </trkpt>
      <trkpt lat="42.73953" lon="1.92324">
        <ele>1503.4</ele>
        <time>2024-10-11T11:53:38Z</time>
      </trkpt>
      <trkpt lat="42.73954" lon="1.92325">
        <ele>1503.6</ele>
        <time>2024-10-11T11:53:39Z</time>
      </trkpt>
      <trkpt lat="42.73956" lon="1.92328">
        <ele>1503.6</ele>
        <time>2024-10-11T11:53:40Z</time>
      </trkpt>
      <trkpt lat="42.73957" lon="1.92329">
        <ele>1504</ele>
        <time>2024-10-11T11:53:41Z</time>
      </trkpt>
      <trkpt lat="42.73958" lon="1.9233">
        <ele>1504</ele>
        <time>2024-10-11T11:53:42Z</time>
      </trkpt>
      <trkpt lat="42.73959" lon="1.92331">
        <ele>1504</ele>
        <time>2024-10-11T11:53:43Z</time>
      </trkpt>
      <trkpt lat="42.7396" lon="1.92332">
        <ele>1504</ele>
        <time>2024-10-11T11:53:44Z</time>
      </trkpt>
      <trkpt lat="42.7396" lon="1.92333">
        <ele>1504.8</ele>
        <time>2024-10-11T11:53:45Z</time>
      </trkpt>
      <trkpt lat="42.73961" lon="1.92335">
        <ele>1504.8</ele>
        <time>2024-10-11T11:53:46Z</time>
      </trkpt>
      <trkpt lat="42.73962" lon="1.92336">
        <ele>1504.8</ele>
        <time>2024-10-11T11:53:47Z</time>
      </trkpt>
      <trkpt lat="42.73963" lon="1.92337">
        <ele>1504.8</ele>
        <time>2024-10-11T11:53:48Z</time>
      </trkpt>
      <trkpt lat="42.73964" lon="1.92338">
        <ele>1504.8</ele>
        <time>2024-10-11T11:53:49Z</time>
      </trkpt>
      <trkpt lat="42.73965" lon="1.9234">
        <ele>1505.6</ele>
        <time>2024-10-11T11:53:50Z</time>
      </trkpt>
      <trkpt lat="42.73967" lon="1.92341">
        <ele>1505.6</ele>
        <time>2024-10-11T11:53:51Z</time>
      </trkpt>
      <trkpt lat="42.73968" lon="1.92342">
        <ele>1505.6</ele>
        <time>2024-10-11T11:53:52Z</time>
      </trkpt>
      <trkpt lat="42.7397" lon="1.92343">
        <ele>1506</ele>
        <time>2024-10-11T11:53:53Z</time>
      </trkpt>
      <trkpt lat="42.73971" lon="1.92345">
        <ele>1506</ele>
        <time>2024-10-11T11:53:54Z</time>
      </trkpt>
      <trkpt lat="42.73973" lon="1.92348">
        <ele>1506.2</ele>
        <time>2024-10-11T11:53:55Z</time>
      </trkpt>
      <trkpt lat="42.73974" lon="1.92348">
        <ele>1506.2</ele>
        <time>2024-10-11T11:53:56Z</time>
      </trkpt>
      <trkpt lat="42.73976" lon="1.9235">
        <ele>1506.2</ele>
        <time>2024-10-11T11:53:57Z</time>
      </trkpt>
      <trkpt lat="42.73977" lon="1.92351">
        <ele>1507</ele>
        <time>2024-10-11T11:53:58Z</time>
      </trkpt>
      <trkpt lat="42.73978" lon="1.92352">
        <ele>1507.2</ele>
        <time>2024-10-11T11:53:59Z</time>
      </trkpt>
      <trkpt lat="42.7398" lon="1.92354">
        <ele>1507.2</ele>
        <time>2024-10-11T11:54:00Z</time>
      </trkpt>
      <trkpt lat="42.73981" lon="1.92355">
        <ele>1507.2</ele>
        <time>2024-10-11T11:54:01Z</time>
      </trkpt>
      <trkpt lat="42.73982" lon="1.92356">
        <ele>1508</ele>
        <time>2024-10-11T11:54:02Z</time>
      </trkpt>
      <trkpt lat="42.73984" lon="1.92358">
        <ele>1508.2</ele>
        <time>2024-10-11T11:54:03Z</time>
      </trkpt>
      <trkpt lat="42.73985" lon="1.92359">
        <ele>1508.2</ele>
        <time>2024-10-11T11:54:04Z</time>
      </trkpt>
      <trkpt lat="42.73987" lon="1.9236">
        <ele>1508.2</ele>
        <time>2024-10-11T11:54:05Z</time>
      </trkpt>
      <trkpt lat="42.73988" lon="1.92362">
        <ele>1509.2</ele>
        <time>2024-10-11T11:54:06Z</time>
      </trkpt>
      <trkpt lat="42.7399" lon="1.92363">
        <ele>1509.4</ele>
        <time>2024-10-11T11:54:07Z</time>
      </trkpt>
      <trkpt lat="42.73991" lon="1.92364">
        <ele>1509.4</ele>
        <time>2024-10-11T11:54:08Z</time>
      </trkpt>
      <trkpt lat="42.73993" lon="1.92366">
        <ele>1509.4</ele>
        <time>2024-10-11T11:54:09Z</time>
      </trkpt>
      <trkpt lat="42.73994" lon="1.92367">
        <ele>1509.4</ele>
        <time>2024-10-11T11:54:10Z</time>
      </trkpt>
      <trkpt lat="42.73996" lon="1.92368">
        <ele>1510.2</ele>
        <time>2024-10-11T11:54:11Z</time>
      </trkpt>
      <trkpt lat="42.73997" lon="1.92369">
        <ele>1510.2</ele>
        <time>2024-10-11T11:54:12Z</time>
      </trkpt>
      <trkpt lat="42.73998" lon="1.9237">
        <ele>1510.2</ele>
        <time>2024-10-11T11:54:13Z</time>
      </trkpt>
      <trkpt lat="42.74" lon="1.92372">
        <ele>1510.2</ele>
        <time>2024-10-11T11:54:14Z</time>
      </trkpt>
      <trkpt lat="42.74001" lon="1.92373">
        <ele>1510.8</ele>
        <time>2024-10-11T11:54:15Z</time>
      </trkpt>
      <trkpt lat="42.74002" lon="1.92374">
        <ele>1511</ele>
        <time>2024-10-11T11:54:16Z</time>
      </trkpt>
      <trkpt lat="42.74004" lon="1.92375">
        <ele>1511</ele>
        <time>2024-10-11T11:54:17Z</time>
      </trkpt>
      <trkpt lat="42.74005" lon="1.92377">
        <ele>1511</ele>
        <time>2024-10-11T11:54:18Z</time>
      </trkpt>
      <trkpt lat="42.74006" lon="1.92378">
        <ele>1511.6</ele>
        <time>2024-10-11T11:54:19Z</time>
      </trkpt>
      <trkpt lat="42.74008" lon="1.92379">
        <ele>1511.8</ele>
        <time>2024-10-11T11:54:20Z</time>
      </trkpt>
      <trkpt lat="42.74009" lon="1.92379">
        <ele>1511.8</ele>
        <time>2024-10-11T11:54:21Z</time>
      </trkpt>
      <trkpt lat="42.74011" lon="1.92381">
        <ele>1511.8</ele>
        <time>2024-10-11T11:54:22Z</time>
      </trkpt>
      <trkpt lat="42.74012" lon="1.92382">
        <ele>1511.8</ele>
        <time>2024-10-11T11:54:23Z</time>
      </trkpt>
      <trkpt lat="42.74014" lon="1.92383">
        <ele>1511.8</ele>
        <time>2024-10-11T11:54:24Z</time>
      </trkpt>
      <trkpt lat="42.74015" lon="1.92384">
        <ele>1512.8</ele>
        <time>2024-10-11T11:54:25Z</time>
      </trkpt>
      <trkpt lat="42.74017" lon="1.92385">
        <ele>1512.8</ele>
        <time>2024-10-11T11:54:26Z</time>
      </trkpt>
      <trkpt lat="42.74018" lon="1.92385">
        <ele>1512.8</ele>
        <time>2024-10-11T11:54:27Z</time>
      </trkpt>
      <trkpt lat="42.7402" lon="1.92387">
        <ele>1513.6</ele>
        <time>2024-10-11T11:54:28Z</time>
      </trkpt>
      <trkpt lat="42.74021" lon="1.92388">
        <ele>1513.6</ele>
        <time>2024-10-11T11:54:29Z</time>
      </trkpt>
      <trkpt lat="42.74022" lon="1.92389">
        <ele>1513.6</ele>
        <time>2024-10-11T11:54:30Z</time>
      </trkpt>
      <trkpt lat="42.74024" lon="1.9239">
        <ele>1513.6</ele>
        <time>2024-10-11T11:54:31Z</time>
      </trkpt>
      <trkpt lat="42.74025" lon="1.92391">
        <ele>1513.6</ele>
        <time>2024-10-11T11:54:32Z</time>
      </trkpt>
      <trkpt lat="42.74027" lon="1.92392">
        <ele>1513.6</ele>
        <time>2024-10-11T11:54:33Z</time>
      </trkpt>
      <trkpt lat="42.74028" lon="1.92393">
        <ele>1514</ele>
        <time>2024-10-11T11:54:34Z</time>
      </trkpt>
      <trkpt lat="42.7403" lon="1.92394">
        <ele>1514.4</ele>
        <time>2024-10-11T11:54:35Z</time>
      </trkpt>
      <trkpt lat="42.74031" lon="1.92396">
        <ele>1514.4</ele>
        <time>2024-10-11T11:54:36Z</time>
      </trkpt>
      <trkpt lat="42.74032" lon="1.92397">
        <ele>1514.4</ele>
        <time>2024-10-11T11:54:37Z</time>
      </trkpt>
      <trkpt lat="42.74034" lon="1.92399">
        <ele>1514.4</ele>
        <time>2024-10-11T11:54:38Z</time>
      </trkpt>
      <trkpt lat="42.74034" lon="1.924">
        <ele>1514.6</ele>
        <time>2024-10-11T11:54:39Z</time>
      </trkpt>
      <trkpt lat="42.74035" lon="1.92402">
        <ele>1514.6</ele>
        <time>2024-10-11T11:54:40Z</time>
      </trkpt>
      <trkpt lat="42.74036" lon="1.92404">
        <ele>1514.6</ele>
        <time>2024-10-11T11:54:41Z</time>
      </trkpt>
      <trkpt lat="42.74037" lon="1.92406">
        <ele>1515.4</ele>
        <time>2024-10-11T11:54:42Z</time>
      </trkpt>
      <trkpt lat="42.74038" lon="1.92408">
        <ele>1515.6</ele>
        <time>2024-10-11T11:54:43Z</time>
      </trkpt>
      <trkpt lat="42.74039" lon="1.9241">
        <ele>1515.6</ele>
        <time>2024-10-11T11:54:44Z</time>
      </trkpt>
      <trkpt lat="42.74039" lon="1.92412">
        <ele>1515.6</ele>
        <time>2024-10-11T11:54:45Z</time>
      </trkpt>
      <trkpt lat="42.74039" lon="1.92414">
        <ele>1515.6</ele>
        <time>2024-10-11T11:54:46Z</time>
      </trkpt>
      <trkpt lat="42.74039" lon="1.92417">
        <ele>1516.6</ele>
        <time>2024-10-11T11:54:47Z</time>
      </trkpt>
      <trkpt lat="42.74039" lon="1.92419">
        <ele>1516.4</ele>
        <time>2024-10-11T11:54:48Z</time>
      </trkpt>
      <trkpt lat="42.74039" lon="1.92421">
        <ele>1516.4</ele>
        <time>2024-10-11T11:54:49Z</time>
      </trkpt>
      <trkpt lat="42.7404" lon="1.92423">
        <ele>1516.4</ele>
        <time>2024-10-11T11:54:50Z</time>
      </trkpt>
      <trkpt lat="42.74039" lon="1.92425">
        <ele>1516.4</ele>
        <time>2024-10-11T11:54:51Z</time>
      </trkpt>
      <trkpt lat="42.74039" lon="1.92428">
        <ele>1517</ele>
        <time>2024-10-11T11:54:52Z</time>
      </trkpt>
      <trkpt lat="42.74039" lon="1.9243">
        <ele>1517.2</ele>
        <time>2024-10-11T11:54:53Z</time>
      </trkpt>
      <trkpt lat="42.74039" lon="1.92432">
        <ele>1517.2</ele>
        <time>2024-10-11T11:54:54Z</time>
      </trkpt>
      <trkpt lat="42.74039" lon="1.92435">
        <ele>1517.2</ele>
        <time>2024-10-11T11:54:55Z</time>
      </trkpt>
      <trkpt lat="42.7404" lon="1.92437">
        <ele>1517.6</ele>
        <time>2024-10-11T11:54:56Z</time>
      </trkpt>
      <trkpt lat="42.7404" lon="1.92439">
        <ele>1517.6</ele>
        <time>2024-10-11T11:54:57Z</time>
      </trkpt>
      <trkpt lat="42.7404" lon="1.92441">
        <ele>1517.6</ele>
        <time>2024-10-11T11:54:58Z</time>
      </trkpt>
      <trkpt lat="42.7404" lon="1.92443">
        <ele>1517.6</ele>
        <time>2024-10-11T11:54:59Z</time>
      </trkpt>
      <trkpt lat="42.7404" lon="1.92445">
        <ele>1518.4</ele>
        <time>2024-10-11T11:55:00Z</time>
      </trkpt>
      <trkpt lat="42.7404" lon="1.92448">
        <ele>1518.4</ele>
        <time>2024-10-11T11:55:01Z</time>
      </trkpt>
      <trkpt lat="42.7404" lon="1.9245">
        <ele>1518.4</ele>
        <time>2024-10-11T11:55:02Z</time>
      </trkpt>
      <trkpt lat="42.7404" lon="1.92451">
        <ele>1518.4</ele>
        <time>2024-10-11T11:55:03Z</time>
      </trkpt>
      <trkpt lat="42.7404" lon="1.92454">
        <ele>1519.2</ele>
        <time>2024-10-11T11:55:04Z</time>
      </trkpt>
      <trkpt lat="42.7404" lon="1.92456">
        <ele>1519.4</ele>
        <time>2024-10-11T11:55:05Z</time>
      </trkpt>
      <trkpt lat="42.7404" lon="1.92458">
        <ele>1519.4</ele>
        <time>2024-10-11T11:55:06Z</time>
      </trkpt>
      <trkpt lat="42.7404" lon="1.9246">
        <ele>1519.4</ele>
        <time>2024-10-11T11:55:07Z</time>
      </trkpt>
      <trkpt lat="42.7404" lon="1.92462">
        <ele>1519.4</ele>
        <time>2024-10-11T11:55:08Z</time>
      </trkpt>
      <trkpt lat="42.74041" lon="1.92464">
        <ele>1520</ele>
        <time>2024-10-11T11:55:09Z</time>
      </trkpt>
      <trkpt lat="42.74041" lon="1.92466">
        <ele>1520.2</ele>
        <time>2024-10-11T11:55:10Z</time>
      </trkpt>
      <trkpt lat="42.74042" lon="1.92468">
        <ele>1520.2</ele>
        <time>2024-10-11T11:55:11Z</time>
      </trkpt>
      <trkpt lat="42.74042" lon="1.9247">
        <ele>1520.2</ele>
        <time>2024-10-11T11:55:12Z</time>
      </trkpt>
      <trkpt lat="42.74042" lon="1.92471">
        <ele>1520.2</ele>
        <time>2024-10-11T11:55:13Z</time>
      </trkpt>
      <trkpt lat="42.74042" lon="1.92473">
        <ele>1520.8</ele>
        <time>2024-10-11T11:55:14Z</time>
      </trkpt>
      <trkpt lat="42.74042" lon="1.92476">
        <ele>1521</ele>
        <time>2024-10-11T11:55:15Z</time>
      </trkpt>
      <trkpt lat="42.74042" lon="1.92478">
        <ele>1521</ele>
        <time>2024-10-11T11:55:16Z</time>
      </trkpt>
      <trkpt lat="42.74042" lon="1.92481">
        <ele>1521</ele>
        <time>2024-10-11T11:55:17Z</time>
      </trkpt>
      <trkpt lat="42.74043" lon="1.92483">
        <ele>1521</ele>
        <time>2024-10-11T11:55:18Z</time>
      </trkpt>
      <trkpt lat="42.74043" lon="1.92485">
        <ele>1521.6</ele>
        <time>2024-10-11T11:55:19Z</time>
      </trkpt>
      <trkpt lat="42.74043" lon="1.92487">
        <ele>1521.6</ele>
        <time>2024-10-11T11:55:20Z</time>
      </trkpt>
      <trkpt lat="42.74043" lon="1.9249">
        <ele>1521.6</ele>
        <time>2024-10-11T11:55:21Z</time>
      </trkpt>
      <trkpt lat="42.74043" lon="1.92492">
        <ele>1521.6</ele>
        <time>2024-10-11T11:55:22Z</time>
      </trkpt>
      <trkpt lat="42.74043" lon="1.92494">
        <ele>1521.6</ele>
        <time>2024-10-11T11:55:23Z</time>
      </trkpt>
      <trkpt lat="42.74043" lon="1.92496">
        <ele>1522.6</ele>
        <time>2024-10-11T11:55:24Z</time>
      </trkpt>
      <trkpt lat="42.74043" lon="1.92498">
        <ele>1522.6</ele>
        <time>2024-10-11T11:55:25Z</time>
      </trkpt>
      <trkpt lat="42.74042" lon="1.925">
        <ele>1522.6</ele>
        <time>2024-10-11T11:55:26Z</time>
      </trkpt>
      <trkpt lat="42.74042" lon="1.92502">
        <ele>1522.6</ele>
        <time>2024-10-11T11:55:27Z</time>
      </trkpt>
      <trkpt lat="42.74042" lon="1.92504">
        <ele>1523.2</ele>
        <time>2024-10-11T11:55:28Z</time>
      </trkpt>
      <trkpt lat="42.74042" lon="1.92506">
        <ele>1523.2</ele>
        <time>2024-10-11T11:55:29Z</time>
      </trkpt>
      <trkpt lat="42.74042" lon="1.92508">
        <ele>1523.2</ele>
        <time>2024-10-11T11:55:30Z</time>
      </trkpt>
      <trkpt lat="42.74042" lon="1.92509">
        <ele>1523.2</ele>
        <time>2024-10-11T11:55:31Z</time>
      </trkpt>
      <trkpt lat="42.74041" lon="1.92511">
        <ele>1523.8</ele>
        <time>2024-10-11T11:55:32Z</time>
      </trkpt>
      <trkpt lat="42.74041" lon="1.92513">
        <ele>1524</ele>
        <time>2024-10-11T11:55:33Z</time>
      </trkpt>
      <trkpt lat="42.74041" lon="1.92515">
        <ele>1524</ele>
        <time>2024-10-11T11:55:34Z</time>
      </trkpt>
      <trkpt lat="42.74041" lon="1.92517">
        <ele>1524</ele>
        <time>2024-10-11T11:55:35Z</time>
      </trkpt>
      <trkpt lat="42.74041" lon="1.92519">
        <ele>1524.8</ele>
        <time>2024-10-11T11:55:36Z</time>
      </trkpt>
      <trkpt lat="42.7404" lon="1.92521">
        <ele>1524.8</ele>
        <time>2024-10-11T11:55:37Z</time>
      </trkpt>
      <trkpt lat="42.74039" lon="1.92523">
        <ele>1524.8</ele>
        <time>2024-10-11T11:55:38Z</time>
      </trkpt>
      <trkpt lat="42.74039" lon="1.92525">
        <ele>1524.8</ele>
        <time>2024-10-11T11:55:39Z</time>
      </trkpt>
      <trkpt lat="42.74039" lon="1.92527">
        <ele>1524.8</ele>
        <time>2024-10-11T11:55:40Z</time>
      </trkpt>
      <trkpt lat="42.74038" lon="1.92529">
        <ele>1524.8</ele>
        <time>2024-10-11T11:55:41Z</time>
      </trkpt>
      <trkpt lat="42.74038" lon="1.92531">
        <ele>1525.4</ele>
        <time>2024-10-11T11:55:42Z</time>
      </trkpt>
      <trkpt lat="42.74038" lon="1.92533">
        <ele>1525.4</ele>
        <time>2024-10-11T11:55:43Z</time>
      </trkpt>
      <trkpt lat="42.74037" lon="1.92535">
        <ele>1525.4</ele>
        <time>2024-10-11T11:55:44Z</time>
      </trkpt>
      <trkpt lat="42.74037" lon="1.92537">
        <ele>1526</ele>
        <time>2024-10-11T11:55:45Z</time>
      </trkpt>
      <trkpt lat="42.74037" lon="1.92539">
        <ele>1526.2</ele>
        <time>2024-10-11T11:55:46Z</time>
      </trkpt>
      <trkpt lat="42.74037" lon="1.92541">
        <ele>1526.2</ele>
        <time>2024-10-11T11:55:47Z</time>
      </trkpt>
      <trkpt lat="42.74036" lon="1.92544">
        <ele>1526.2</ele>
        <time>2024-10-11T11:55:48Z</time>
      </trkpt>
      <trkpt lat="42.74036" lon="1.92546">
        <ele>1526.2</ele>
        <time>2024-10-11T11:55:49Z</time>
      </trkpt>
      <trkpt lat="42.74036" lon="1.92548">
        <ele>1526.2</ele>
        <time>2024-10-11T11:55:50Z</time>
      </trkpt>
      <trkpt lat="42.74036" lon="1.9255">
        <ele>1526.8</ele>
        <time>2024-10-11T11:55:51Z</time>
      </trkpt>
      <trkpt lat="42.74036" lon="1.92552">
        <ele>1526.8</ele>
        <time>2024-10-11T11:55:52Z</time>
      </trkpt>
      <trkpt lat="42.74036" lon="1.92554">
        <ele>1526.8</ele>
        <time>2024-10-11T11:55:53Z</time>
      </trkpt>
      <trkpt lat="42.74036" lon="1.92556">
        <ele>1527</ele>
        <time>2024-10-11T11:55:54Z</time>
      </trkpt>
      <trkpt lat="42.74036" lon="1.92558">
        <ele>1527.4</ele>
        <time>2024-10-11T11:55:55Z</time>
      </trkpt>
      <trkpt lat="42.74036" lon="1.92561">
        <ele>1527.4</ele>
        <time>2024-10-11T11:55:56Z</time>
      </trkpt>
      <trkpt lat="42.74036" lon="1.92563">
        <ele>1527.4</ele>
        <time>2024-10-11T11:55:57Z</time>
      </trkpt>
      <trkpt lat="42.74036" lon="1.92565">
        <ele>1527.4</ele>
        <time>2024-10-11T11:55:58Z</time>
      </trkpt>
      <trkpt lat="42.74036" lon="1.92567">
        <ele>1527.8</ele>
        <time>2024-10-11T11:55:59Z</time>
      </trkpt>
      <trkpt lat="42.74036" lon="1.92569">
        <ele>1528</ele>
        <time>2024-10-11T11:56:00Z</time>
      </trkpt>
      <trkpt lat="42.74037" lon="1.92571">
        <ele>1528</ele>
        <time>2024-10-11T11:56:01Z</time>
      </trkpt>
      <trkpt lat="42.74037" lon="1.92574">
        <ele>1528</ele>
        <time>2024-10-11T11:56:02Z</time>
      </trkpt>
      <trkpt lat="42.74038" lon="1.92576">
        <ele>1528</ele>
        <time>2024-10-11T11:56:03Z</time>
      </trkpt>
      <trkpt lat="42.74038" lon="1.92578">
        <ele>1528.6</ele>
        <time>2024-10-11T11:56:04Z</time>
      </trkpt>
      <trkpt lat="42.74039" lon="1.9258">
        <ele>1528.6</ele>
        <time>2024-10-11T11:56:05Z</time>
      </trkpt>
      <trkpt lat="42.74039" lon="1.92582">
        <ele>1528.6</ele>
        <time>2024-10-11T11:56:06Z</time>
      </trkpt>
      <trkpt lat="42.7404" lon="1.92584">
        <ele>1528.6</ele>
        <time>2024-10-11T11:56:07Z</time>
      </trkpt>
      <trkpt lat="42.7404" lon="1.92586">
        <ele>1528.6</ele>
        <time>2024-10-11T11:56:08Z</time>
      </trkpt>
      <trkpt lat="42.74041" lon="1.92588">
        <ele>1529.4</ele>
        <time>2024-10-11T11:56:09Z</time>
      </trkpt>
      <trkpt lat="42.74041" lon="1.92591">
        <ele>1529.4</ele>
        <time>2024-10-11T11:56:10Z</time>
      </trkpt>
      <trkpt lat="42.74042" lon="1.92593">
        <ele>1529.4</ele>
        <time>2024-10-11T11:56:11Z</time>
      </trkpt>
      <trkpt lat="42.74043" lon="1.92595">
        <ele>1530</ele>
        <time>2024-10-11T11:56:12Z</time>
      </trkpt>
      <trkpt lat="42.74043" lon="1.92597">
        <ele>1530</ele>
        <time>2024-10-11T11:56:13Z</time>
      </trkpt>
      <trkpt lat="42.74044" lon="1.92599">
        <ele>1530</ele>
        <time>2024-10-11T11:56:14Z</time>
      </trkpt>
      <trkpt lat="42.74044" lon="1.92602">
        <ele>1530</ele>
        <time>2024-10-11T11:56:15Z</time>
      </trkpt>
      <trkpt lat="42.74045" lon="1.92604">
        <ele>1530.2</ele>
        <time>2024-10-11T11:56:16Z</time>
      </trkpt>
      <trkpt lat="42.74046" lon="1.92606">
        <ele>1530.2</ele>
        <time>2024-10-11T11:56:17Z</time>
      </trkpt>
      <trkpt lat="42.74046" lon="1.92608">
        <ele>1530.6</ele>
        <time>2024-10-11T11:56:18Z</time>
      </trkpt>
      <trkpt lat="42.74047" lon="1.9261">
        <ele>1530.6</ele>
        <time>2024-10-11T11:56:19Z</time>
      </trkpt>
      <trkpt lat="42.74048" lon="1.92612">
        <ele>1530.6</ele>
        <time>2024-10-11T11:56:20Z</time>
      </trkpt>
      <trkpt lat="42.74048" lon="1.92614">
        <ele>1530.6</ele>
        <time>2024-10-11T11:56:21Z</time>
      </trkpt>
      <trkpt lat="42.74049" lon="1.92616">
        <ele>1531.2</ele>
        <time>2024-10-11T11:56:22Z</time>
      </trkpt>
      <trkpt lat="42.7405" lon="1.92618">
        <ele>1531.2</ele>
        <time>2024-10-11T11:56:23Z</time>
      </trkpt>
      <trkpt lat="42.7405" lon="1.9262">
        <ele>1531.2</ele>
        <time>2024-10-11T11:56:24Z</time>
      </trkpt>
      <trkpt lat="42.74051" lon="1.92622">
        <ele>1532</ele>
        <time>2024-10-11T11:56:25Z</time>
      </trkpt>
      <trkpt lat="42.74051" lon="1.92625">
        <ele>1532.2</ele>
        <time>2024-10-11T11:56:26Z</time>
      </trkpt>
      <trkpt lat="42.74052" lon="1.92627">
        <ele>1532.2</ele>
        <time>2024-10-11T11:56:27Z</time>
      </trkpt>
      <trkpt lat="42.74053" lon="1.92628">
        <ele>1532.2</ele>
        <time>2024-10-11T11:56:28Z</time>
      </trkpt>
      <trkpt lat="42.74054" lon="1.92631">
        <ele>1533.2</ele>
        <time>2024-10-11T11:56:29Z</time>
      </trkpt>
      <trkpt lat="42.74054" lon="1.92633">
        <ele>1533.2</ele>
        <time>2024-10-11T11:56:30Z</time>
      </trkpt>
      <trkpt lat="42.74055" lon="1.92635">
        <ele>1533.6</ele>
        <time>2024-10-11T11:56:31Z</time>
      </trkpt>
      <trkpt lat="42.74056" lon="1.92637">
        <ele>1533.6</ele>
        <time>2024-10-11T11:56:32Z</time>
      </trkpt>
      <trkpt lat="42.74056" lon="1.92639">
        <ele>1533.6</ele>
        <time>2024-10-11T11:56:33Z</time>
      </trkpt>
      <trkpt lat="42.74057" lon="1.92641">
        <ele>1533.6</ele>
        <time>2024-10-11T11:56:34Z</time>
      </trkpt>
      <trkpt lat="42.74058" lon="1.92643">
        <ele>1534</ele>
        <time>2024-10-11T11:56:35Z</time>
      </trkpt>
      <trkpt lat="42.74059" lon="1.92645">
        <ele>1534</ele>
        <time>2024-10-11T11:56:36Z</time>
      </trkpt>
      <trkpt lat="42.74061" lon="1.92647">
        <ele>1534</ele>
        <time>2024-10-11T11:56:37Z</time>
      </trkpt>
      <trkpt lat="42.74062" lon="1.92649">
        <ele>1534</ele>
        <time>2024-10-11T11:56:38Z</time>
      </trkpt>
      <trkpt lat="42.74063" lon="1.92651">
        <ele>1534.2</ele>
        <time>2024-10-11T11:56:39Z</time>
      </trkpt>
      <trkpt lat="42.74064" lon="1.92654">
        <ele>1534.2</ele>
        <time>2024-10-11T11:56:40Z</time>
      </trkpt>
      <trkpt lat="42.74065" lon="1.92655">
        <ele>1534.2</ele>
        <time>2024-10-11T11:56:41Z</time>
      </trkpt>
      <trkpt lat="42.74066" lon="1.92657">
        <ele>1534.2</ele>
        <time>2024-10-11T11:56:42Z</time>
      </trkpt>
      <trkpt lat="42.74066" lon="1.92659">
        <ele>1534.8</ele>
        <time>2024-10-11T11:56:43Z</time>
      </trkpt>
      <trkpt lat="42.74068" lon="1.92662">
        <ele>1535</ele>
        <time>2024-10-11T11:56:44Z</time>
      </trkpt>
      <trkpt lat="42.74068" lon="1.92664">
        <ele>1535</ele>
        <time>2024-10-11T11:56:45Z</time>
      </trkpt>
      <trkpt lat="42.74069" lon="1.92667">
        <ele>1535</ele>
        <time>2024-10-11T11:56:46Z</time>
      </trkpt>
      <trkpt lat="42.74069" lon="1.92669">
        <ele>1535</ele>
        <time>2024-10-11T11:56:47Z</time>
      </trkpt>
      <trkpt lat="42.7407" lon="1.92671">
        <ele>1535.4</ele>
        <time>2024-10-11T11:56:48Z</time>
      </trkpt>
      <trkpt lat="42.74071" lon="1.92673">
        <ele>1535.6</ele>
        <time>2024-10-11T11:56:49Z</time>
      </trkpt>
      <trkpt lat="42.74072" lon="1.92676">
        <ele>1535.6</ele>
        <time>2024-10-11T11:56:50Z</time>
      </trkpt>
      <trkpt lat="42.74072" lon="1.92678">
        <ele>1535.6</ele>
        <time>2024-10-11T11:56:51Z</time>
      </trkpt>
      <trkpt lat="42.74073" lon="1.9268">
        <ele>1535.6</ele>
        <time>2024-10-11T11:56:52Z</time>
      </trkpt>
      <trkpt lat="42.74073" lon="1.92682">
        <ele>1536.4</ele>
        <time>2024-10-11T11:56:53Z</time>
      </trkpt>
      <trkpt lat="42.74074" lon="1.92684">
        <ele>1536.4</ele>
        <time>2024-10-11T11:56:54Z</time>
      </trkpt>
      <trkpt lat="42.74074" lon="1.92686">
        <ele>1536.4</ele>
        <time>2024-10-11T11:56:55Z</time>
      </trkpt>
      <trkpt lat="42.74075" lon="1.92688">
        <ele>1536.4</ele>
        <time>2024-10-11T11:56:56Z</time>
      </trkpt>
      <trkpt lat="42.74076" lon="1.9269">
        <ele>1536.8</ele>
        <time>2024-10-11T11:56:57Z</time>
      </trkpt>
      <trkpt lat="42.74076" lon="1.92693">
        <ele>1536.8</ele>
        <time>2024-10-11T11:56:58Z</time>
      </trkpt>
      <trkpt lat="42.74077" lon="1.92694">
        <ele>1536.8</ele>
        <time>2024-10-11T11:56:59Z</time>
      </trkpt>
      <trkpt lat="42.74078" lon="1.92696">
        <ele>1536.8</ele>
        <time>2024-10-11T11:57:00Z</time>
      </trkpt>
      <trkpt lat="42.74079" lon="1.92698">
        <ele>1536.8</ele>
        <time>2024-10-11T11:57:01Z</time>
      </trkpt>
      <trkpt lat="42.7408" lon="1.927">
        <ele>1537.2</ele>
        <time>2024-10-11T11:57:02Z</time>
      </trkpt>
      <trkpt lat="42.7408" lon="1.92702">
        <ele>1537.2</ele>
        <time>2024-10-11T11:57:03Z</time>
      </trkpt>
      <trkpt lat="42.74081" lon="1.92704">
        <ele>1537.2</ele>
        <time>2024-10-11T11:57:04Z</time>
      </trkpt>
      <trkpt lat="42.74082" lon="1.92706">
        <ele>1537.8</ele>
        <time>2024-10-11T11:57:05Z</time>
      </trkpt>
      <trkpt lat="42.74083" lon="1.92708">
        <ele>1537.8</ele>
        <time>2024-10-11T11:57:06Z</time>
      </trkpt>
      <trkpt lat="42.74084" lon="1.9271">
        <ele>1538</ele>
        <time>2024-10-11T11:57:07Z</time>
      </trkpt>
      <trkpt lat="42.74084" lon="1.92712">
        <ele>1538</ele>
        <time>2024-10-11T11:57:08Z</time>
      </trkpt>
      <trkpt lat="42.74085" lon="1.92714">
        <ele>1538</ele>
        <time>2024-10-11T11:57:09Z</time>
      </trkpt>
      <trkpt lat="42.74086" lon="1.92716">
        <ele>1538.6</ele>
        <time>2024-10-11T11:57:10Z</time>
      </trkpt>
      <trkpt lat="42.74087" lon="1.92718">
        <ele>1538.6</ele>
        <time>2024-10-11T11:57:11Z</time>
      </trkpt>
      <trkpt lat="42.74088" lon="1.9272">
        <ele>1538.6</ele>
        <time>2024-10-11T11:57:12Z</time>
      </trkpt>
      <trkpt lat="42.74088" lon="1.92722">
        <ele>1538.6</ele>
        <time>2024-10-11T11:57:13Z</time>
      </trkpt>
      <trkpt lat="42.74089" lon="1.92724">
        <ele>1538.6</ele>
        <time>2024-10-11T11:57:14Z</time>
      </trkpt>
      <trkpt lat="42.7409" lon="1.92726">
        <ele>1539.6</ele>
        <time>2024-10-11T11:57:15Z</time>
      </trkpt>
      <trkpt lat="42.74091" lon="1.92729">
        <ele>1539.6</ele>
        <time>2024-10-11T11:57:16Z</time>
      </trkpt>
      <trkpt lat="42.74092" lon="1.92731">
        <ele>1539.6</ele>
        <time>2024-10-11T11:57:17Z</time>
      </trkpt>
      <trkpt lat="42.74093" lon="1.92733">
        <ele>1539.6</ele>
        <time>2024-10-11T11:57:18Z</time>
      </trkpt>
      <trkpt lat="42.74093" lon="1.92735">
        <ele>1539.6</ele>
        <time>2024-10-11T11:57:19Z</time>
      </trkpt>
      <trkpt lat="42.74094" lon="1.92737">
        <ele>1539.8</ele>
        <time>2024-10-11T11:57:20Z</time>
      </trkpt>
      <trkpt lat="42.74095" lon="1.92741">
        <ele>1539.8</ele>
        <time>2024-10-11T11:57:21Z</time>
      </trkpt>
      <trkpt lat="42.74096" lon="1.92742">
        <ele>1539.8</ele>
        <time>2024-10-11T11:57:22Z</time>
      </trkpt>
      <trkpt lat="42.74096" lon="1.92746">
        <ele>1539.8</ele>
        <time>2024-10-11T11:57:23Z</time>
      </trkpt>
      <trkpt lat="42.74096" lon="1.92747">
        <ele>1540.2</ele>
        <time>2024-10-11T11:57:24Z</time>
      </trkpt>
      <trkpt lat="42.74097" lon="1.9275">
        <ele>1540.4</ele>
        <time>2024-10-11T11:57:25Z</time>
      </trkpt>
      <trkpt lat="42.74097" lon="1.92752">
        <ele>1540.4</ele>
        <time>2024-10-11T11:57:26Z</time>
      </trkpt>
      <trkpt lat="42.74098" lon="1.92754">
        <ele>1540.4</ele>
        <time>2024-10-11T11:57:27Z</time>
      </trkpt>
      <trkpt lat="42.74098" lon="1.92756">
        <ele>1540.8</ele>
        <time>2024-10-11T11:57:28Z</time>
      </trkpt>
      <trkpt lat="42.74099" lon="1.92758">
        <ele>1540.8</ele>
        <time>2024-10-11T11:57:29Z</time>
      </trkpt>
      <trkpt lat="42.74099" lon="1.9276">
        <ele>1540.8</ele>
        <time>2024-10-11T11:57:30Z</time>
      </trkpt>
      <trkpt lat="42.741" lon="1.92762">
        <ele>1540.8</ele>
        <time>2024-10-11T11:57:31Z</time>
      </trkpt>
      <trkpt lat="42.741" lon="1.92765">
        <ele>1540.8</ele>
        <time>2024-10-11T11:57:32Z</time>
      </trkpt>
      <trkpt lat="42.741" lon="1.92767">
        <ele>1541.2</ele>
        <time>2024-10-11T11:57:33Z</time>
      </trkpt>
      <trkpt lat="42.74101" lon="1.92769">
        <ele>1541.2</ele>
        <time>2024-10-11T11:57:34Z</time>
      </trkpt>
      <trkpt lat="42.74101" lon="1.92771">
        <ele>1541.2</ele>
        <time>2024-10-11T11:57:35Z</time>
      </trkpt>
      <trkpt lat="42.74101" lon="1.92772">
        <ele>1541.2</ele>
        <time>2024-10-11T11:57:36Z</time>
      </trkpt>
      <trkpt lat="42.74101" lon="1.92772">
        <ele>1541.6</ele>
        <time>2024-10-11T11:57:37Z</time>
      </trkpt>
      <trkpt lat="42.74101" lon="1.92772">
        <ele>1541.8</ele>
        <time>2024-10-11T11:57:38Z</time>
      </trkpt>
      <trkpt lat="42.74102" lon="1.92781">
        <ele>1542.4</ele>
        <time>2024-10-11T11:58:42Z</time>
      </trkpt>
      <trkpt lat="42.74102" lon="1.92783">
        <ele>1542.4</ele>
        <time>2024-10-11T11:58:43Z</time>
      </trkpt>
      <trkpt lat="42.74102" lon="1.92784">
        <ele>1543.2</ele>
        <time>2024-10-11T11:58:44Z</time>
      </trkpt>
      <trkpt lat="42.74103" lon="1.92786">
        <ele>1543.4</ele>
        <time>2024-10-11T11:58:45Z</time>
      </trkpt>
      <trkpt lat="42.74103" lon="1.92788">
        <ele>1543.4</ele>
        <time>2024-10-11T11:58:46Z</time>
      </trkpt>
      <trkpt lat="42.74104" lon="1.9279">
        <ele>1543.4</ele>
        <time>2024-10-11T11:58:47Z</time>
      </trkpt>
      <trkpt lat="42.74103" lon="1.92793">
        <ele>1543.4</ele>
        <time>2024-10-11T11:58:48Z</time>
      </trkpt>
      <trkpt lat="42.74103" lon="1.92795">
        <ele>1544.2</ele>
        <time>2024-10-11T11:58:49Z</time>
      </trkpt>
      <trkpt lat="42.74103" lon="1.92797">
        <ele>1544.4</ele>
        <time>2024-10-11T11:58:50Z</time>
      </trkpt>
      <trkpt lat="42.74103" lon="1.928">
        <ele>1544.4</ele>
        <time>2024-10-11T11:58:51Z</time>
      </trkpt>
      <trkpt lat="42.74103" lon="1.92802">
        <ele>1544.4</ele>
        <time>2024-10-11T11:58:52Z</time>
      </trkpt>
      <trkpt lat="42.74103" lon="1.92805">
        <ele>1545</ele>
        <time>2024-10-11T11:58:53Z</time>
      </trkpt>
      <trkpt lat="42.74104" lon="1.92807">
        <ele>1545</ele>
        <time>2024-10-11T11:58:54Z</time>
      </trkpt>
      <trkpt lat="42.74104" lon="1.92809">
        <ele>1545.2</ele>
        <time>2024-10-11T11:58:55Z</time>
      </trkpt>
      <trkpt lat="42.74105" lon="1.92811">
        <ele>1545.2</ele>
        <time>2024-10-11T11:58:56Z</time>
      </trkpt>
      <trkpt lat="42.74105" lon="1.92813">
        <ele>1545.2</ele>
        <time>2024-10-11T11:58:57Z</time>
      </trkpt>
      <trkpt lat="42.74105" lon="1.92815">
        <ele>1545.2</ele>
        <time>2024-10-11T11:58:58Z</time>
      </trkpt>
      <trkpt lat="42.74106" lon="1.92817">
        <ele>1545.4</ele>
        <time>2024-10-11T11:58:59Z</time>
      </trkpt>
      <trkpt lat="42.74106" lon="1.92819">
        <ele>1545.8</ele>
        <time>2024-10-11T11:59:00Z</time>
      </trkpt>
      <trkpt lat="42.74106" lon="1.92821">
        <ele>1545.8</ele>
        <time>2024-10-11T11:59:01Z</time>
      </trkpt>
      <trkpt lat="42.74106" lon="1.92824">
        <ele>1545.8</ele>
        <time>2024-10-11T11:59:02Z</time>
      </trkpt>
      <trkpt lat="42.74107" lon="1.92825">
        <ele>1546.4</ele>
        <time>2024-10-11T11:59:03Z</time>
      </trkpt>
      <trkpt lat="42.74107" lon="1.92828">
        <ele>1546.6</ele>
        <time>2024-10-11T11:59:04Z</time>
      </trkpt>
      <trkpt lat="42.74107" lon="1.9283">
        <ele>1546.6</ele>
        <time>2024-10-11T11:59:05Z</time>
      </trkpt>
      <trkpt lat="42.74107" lon="1.92832">
        <ele>1546.6</ele>
        <time>2024-10-11T11:59:06Z</time>
      </trkpt>
      <trkpt lat="42.74108" lon="1.92834">
        <ele>1547</ele>
        <time>2024-10-11T11:59:07Z</time>
      </trkpt>
      <trkpt lat="42.74108" lon="1.92836">
        <ele>1547</ele>
        <time>2024-10-11T11:59:08Z</time>
      </trkpt>
      <trkpt lat="42.74109" lon="1.92838">
        <ele>1547.4</ele>
        <time>2024-10-11T11:59:09Z</time>
      </trkpt>
      <trkpt lat="42.74109" lon="1.9284">
        <ele>1547.4</ele>
        <time>2024-10-11T11:59:10Z</time>
      </trkpt>
      <trkpt lat="42.74109" lon="1.92842">
        <ele>1547.4</ele>
        <time>2024-10-11T11:59:11Z</time>
      </trkpt>
      <trkpt lat="42.74109" lon="1.92844">
        <ele>1547.4</ele>
        <time>2024-10-11T11:59:12Z</time>
      </trkpt>
      <trkpt lat="42.7411" lon="1.92847">
        <ele>1548</ele>
        <time>2024-10-11T11:59:13Z</time>
      </trkpt>
      <trkpt lat="42.7411" lon="1.92849">
        <ele>1548</ele>
        <time>2024-10-11T11:59:14Z</time>
      </trkpt>
      <trkpt lat="42.7411" lon="1.92851">
        <ele>1548</ele>
        <time>2024-10-11T11:59:15Z</time>
      </trkpt>
      <trkpt lat="42.74111" lon="1.92853">
        <ele>1548.6</ele>
        <time>2024-10-11T11:59:16Z</time>
      </trkpt>
      <trkpt lat="42.74111" lon="1.92855">
        <ele>1548.8</ele>
        <time>2024-10-11T11:59:17Z</time>
      </trkpt>
      <trkpt lat="42.74112" lon="1.92857">
        <ele>1548.8</ele>
        <time>2024-10-11T11:59:18Z</time>
      </trkpt>
      <trkpt lat="42.74112" lon="1.92859">
        <ele>1548.8</ele>
        <time>2024-10-11T11:59:19Z</time>
      </trkpt>
      <trkpt lat="42.74112" lon="1.92861">
        <ele>1548.8</ele>
        <time>2024-10-11T11:59:20Z</time>
      </trkpt>
      <trkpt lat="42.74113" lon="1.92863">
        <ele>1549.2</ele>
        <time>2024-10-11T11:59:21Z</time>
      </trkpt>
      <trkpt lat="42.74113" lon="1.92865">
        <ele>1549.6</ele>
        <time>2024-10-11T11:59:22Z</time>
      </trkpt>
      <trkpt lat="42.74113" lon="1.92867">
        <ele>1549.6</ele>
        <time>2024-10-11T11:59:23Z</time>
      </trkpt>
      <trkpt lat="42.74113" lon="1.92869">
        <ele>1549.6</ele>
        <time>2024-10-11T11:59:24Z</time>
      </trkpt>
      <trkpt lat="42.74114" lon="1.92871">
        <ele>1550</ele>
        <time>2024-10-11T11:59:25Z</time>
      </trkpt>
      <trkpt lat="42.74114" lon="1.92873">
        <ele>1550.2</ele>
        <time>2024-10-11T11:59:26Z</time>
      </trkpt>
      <trkpt lat="42.74115" lon="1.92875">
        <ele>1550.2</ele>
        <time>2024-10-11T11:59:27Z</time>
      </trkpt>
      <trkpt lat="42.74115" lon="1.92877">
        <ele>1550.2</ele>
        <time>2024-10-11T11:59:28Z</time>
      </trkpt>
      <trkpt lat="42.74116" lon="1.92879">
        <ele>1550.2</ele>
        <time>2024-10-11T11:59:29Z</time>
      </trkpt>
      <trkpt lat="42.74116" lon="1.92881">
        <ele>1551</ele>
        <time>2024-10-11T11:59:30Z</time>
      </trkpt>
      <trkpt lat="42.74116" lon="1.92883">
        <ele>1551</ele>
        <time>2024-10-11T11:59:31Z</time>
      </trkpt>
      <trkpt lat="42.74117" lon="1.92885">
        <ele>1551</ele>
        <time>2024-10-11T11:59:32Z</time>
      </trkpt>
      <trkpt lat="42.74117" lon="1.92886">
        <ele>1551</ele>
        <time>2024-10-11T11:59:33Z</time>
      </trkpt>
      <trkpt lat="42.74118" lon="1.92888">
        <ele>1551.6</ele>
        <time>2024-10-11T11:59:34Z</time>
      </trkpt>
      <trkpt lat="42.74118" lon="1.92891">
        <ele>1551.6</ele>
        <time>2024-10-11T11:59:35Z</time>
      </trkpt>
      <trkpt lat="42.74118" lon="1.92893">
        <ele>1551.8</ele>
        <time>2024-10-11T11:59:36Z</time>
      </trkpt>
      <trkpt lat="42.74118" lon="1.92895">
        <ele>1551.8</ele>
        <time>2024-10-11T11:59:37Z</time>
      </trkpt>
      <trkpt lat="42.74118" lon="1.92897">
        <ele>1552.2</ele>
        <time>2024-10-11T11:59:38Z</time>
      </trkpt>
      <trkpt lat="42.74119" lon="1.92899">
        <ele>1552.2</ele>
        <time>2024-10-11T11:59:39Z</time>
      </trkpt>
      <trkpt lat="42.74119" lon="1.92901">
        <ele>1552.2</ele>
        <time>2024-10-11T11:59:40Z</time>
      </trkpt>
      <trkpt lat="42.7412" lon="1.92903">
        <ele>1552.2</ele>
        <time>2024-10-11T11:59:41Z</time>
      </trkpt>
      <trkpt lat="42.7412" lon="1.92905">
        <ele>1552.2</ele>
        <time>2024-10-11T11:59:42Z</time>
      </trkpt>
      <trkpt lat="42.74121" lon="1.92907">
        <ele>1552.2</ele>
        <time>2024-10-11T11:59:43Z</time>
      </trkpt>
      <trkpt lat="42.74121" lon="1.92909">
        <ele>1552.8</ele>
        <time>2024-10-11T11:59:44Z</time>
      </trkpt>
      <trkpt lat="42.74121" lon="1.92911">
        <ele>1552.8</ele>
        <time>2024-10-11T11:59:45Z</time>
      </trkpt>
      <trkpt lat="42.74122" lon="1.92913">
        <ele>1552.8</ele>
        <time>2024-10-11T11:59:46Z</time>
      </trkpt>
      <trkpt lat="42.74122" lon="1.92915">
        <ele>1552.8</ele>
        <time>2024-10-11T11:59:47Z</time>
      </trkpt>
      <trkpt lat="42.74122" lon="1.92917">
        <ele>1553.6</ele>
        <time>2024-10-11T11:59:48Z</time>
      </trkpt>
      <trkpt lat="42.74123" lon="1.92919">
        <ele>1553.6</ele>
        <time>2024-10-11T11:59:49Z</time>
      </trkpt>
      <trkpt lat="42.74123" lon="1.92921">
        <ele>1553.6</ele>
        <time>2024-10-11T11:59:50Z</time>
      </trkpt>
      <trkpt lat="42.74123" lon="1.92923">
        <ele>1553.6</ele>
        <time>2024-10-11T11:59:51Z</time>
      </trkpt>
      <trkpt lat="42.74124" lon="1.92925">
        <ele>1554.4</ele>
        <time>2024-10-11T11:59:52Z</time>
      </trkpt>
      <trkpt lat="42.74124" lon="1.92927">
        <ele>1554.4</ele>
        <time>2024-10-11T11:59:53Z</time>
      </trkpt>
      <trkpt lat="42.74124" lon="1.92929">
        <ele>1554.8</ele>
        <time>2024-10-11T11:59:54Z</time>
      </trkpt>
      <trkpt lat="42.74125" lon="1.92931">
        <ele>1554.8</ele>
        <time>2024-10-11T11:59:55Z</time>
      </trkpt>
      <trkpt lat="42.74126" lon="1.92933">
        <ele>1554.8</ele>
        <time>2024-10-11T11:59:56Z</time>
      </trkpt>
      <trkpt lat="42.74126" lon="1.92935">
        <ele>1555.4</ele>
        <time>2024-10-11T11:59:57Z</time>
      </trkpt>
      <trkpt lat="42.74126" lon="1.92937">
        <ele>1555.4</ele>
        <time>2024-10-11T11:59:58Z</time>
      </trkpt>
      <trkpt lat="42.74127" lon="1.92939">
        <ele>1555.4</ele>
        <time>2024-10-11T11:59:59Z</time>
      </trkpt>
      <trkpt lat="42.74127" lon="1.92941">
        <ele>1555.4</ele>
        <time>2024-10-11T12:00:00Z</time>
      </trkpt>
      <trkpt lat="42.74128" lon="1.92943">
        <ele>1556.2</ele>
        <time>2024-10-11T12:00:01Z</time>
      </trkpt>
      <trkpt lat="42.74128" lon="1.92945">
        <ele>1556.4</ele>
        <time>2024-10-11T12:00:02Z</time>
      </trkpt>
      <trkpt lat="42.74128" lon="1.92947">
        <ele>1556.4</ele>
        <time>2024-10-11T12:00:03Z</time>
      </trkpt>
      <trkpt lat="42.74129" lon="1.92949">
        <ele>1556.4</ele>
        <time>2024-10-11T12:00:04Z</time>
      </trkpt>
      <trkpt lat="42.74129" lon="1.9295">
        <ele>1556.4</ele>
        <time>2024-10-11T12:00:05Z</time>
      </trkpt>
      <trkpt lat="42.7413" lon="1.92952">
        <ele>1557.2</ele>
        <time>2024-10-11T12:00:06Z</time>
      </trkpt>
      <trkpt lat="42.7413" lon="1.92954">
        <ele>1557.4</ele>
        <time>2024-10-11T12:00:07Z</time>
      </trkpt>
      <trkpt lat="42.74131" lon="1.92956">
        <ele>1557.4</ele>
        <time>2024-10-11T12:00:08Z</time>
      </trkpt>
      <trkpt lat="42.74131" lon="1.92957">
        <ele>1557.4</ele>
        <time>2024-10-11T12:00:09Z</time>
      </trkpt>
      <trkpt lat="42.74131" lon="1.9296">
        <ele>1557.4</ele>
        <time>2024-10-11T12:00:10Z</time>
      </trkpt>
      <trkpt lat="42.74131" lon="1.92962">
        <ele>1558</ele>
        <time>2024-10-11T12:00:11Z</time>
      </trkpt>
      <trkpt lat="42.74132" lon="1.92964">
        <ele>1558</ele>
        <time>2024-10-11T12:00:12Z</time>
      </trkpt>
      <trkpt lat="42.74133" lon="1.92965">
        <ele>1558</ele>
        <time>2024-10-11T12:00:13Z</time>
      </trkpt>
      <trkpt lat="42.74133" lon="1.92967">
        <ele>1558.8</ele>
        <time>2024-10-11T12:00:14Z</time>
      </trkpt>
      <trkpt lat="42.74134" lon="1.92969">
        <ele>1558.8</ele>
        <time>2024-10-11T12:00:15Z</time>
      </trkpt>
      <trkpt lat="42.74134" lon="1.92971">
        <ele>1559.2</ele>
        <time>2024-10-11T12:00:16Z</time>
      </trkpt>
      <trkpt lat="42.74134" lon="1.92972">
        <ele>1559.2</ele>
        <time>2024-10-11T12:00:17Z</time>
      </trkpt>
      <trkpt lat="42.74135" lon="1.92974">
        <ele>1559.2</ele>
        <time>2024-10-11T12:00:18Z</time>
      </trkpt>
      <trkpt lat="42.74135" lon="1.92976">
        <ele>1559.2</ele>
        <time>2024-10-11T12:00:19Z</time>
      </trkpt>
      <trkpt lat="42.74136" lon="1.92978">
        <ele>1559.2</ele>
        <time>2024-10-11T12:00:20Z</time>
      </trkpt>
      <trkpt lat="42.74136" lon="1.9298">
        <ele>1560</ele>
        <time>2024-10-11T12:00:21Z</time>
      </trkpt>
      <trkpt lat="42.74137" lon="1.92981">
        <ele>1560</ele>
        <time>2024-10-11T12:00:22Z</time>
      </trkpt>
      <trkpt lat="42.74138" lon="1.92983">
        <ele>1560.2</ele>
        <time>2024-10-11T12:00:23Z</time>
      </trkpt>
      <trkpt lat="42.74138" lon="1.92985">
        <ele>1560.2</ele>
        <time>2024-10-11T12:00:24Z</time>
      </trkpt>
      <trkpt lat="42.74138" lon="1.92987">
        <ele>1560.2</ele>
        <time>2024-10-11T12:00:25Z</time>
      </trkpt>
      <trkpt lat="42.74139" lon="1.92989">
        <ele>1560.2</ele>
        <time>2024-10-11T12:00:26Z</time>
      </trkpt>
      <trkpt lat="42.7414" lon="1.92991">
        <ele>1560.2</ele>
        <time>2024-10-11T12:00:27Z</time>
      </trkpt>
      <trkpt lat="42.7414" lon="1.92993">
        <ele>1561</ele>
        <time>2024-10-11T12:00:28Z</time>
      </trkpt>
      <trkpt lat="42.74141" lon="1.92995">
        <ele>1561</ele>
        <time>2024-10-11T12:00:29Z</time>
      </trkpt>
      <trkpt lat="42.74142" lon="1.92997">
        <ele>1561</ele>
        <time>2024-10-11T12:00:30Z</time>
      </trkpt>
      <trkpt lat="42.74142" lon="1.92999">
        <ele>1561</ele>
        <time>2024-10-11T12:00:31Z</time>
      </trkpt>
      <trkpt lat="42.74143" lon="1.93001">
        <ele>1561</ele>
        <time>2024-10-11T12:00:32Z</time>
      </trkpt>
      <trkpt lat="42.74144" lon="1.93003">
        <ele>1561.4</ele>
        <time>2024-10-11T12:00:33Z</time>
      </trkpt>
      <trkpt lat="42.74144" lon="1.93005">
        <ele>1561.6</ele>
        <time>2024-10-11T12:00:34Z</time>
      </trkpt>
      <trkpt lat="42.74145" lon="1.93007">
        <ele>1561.6</ele>
        <time>2024-10-11T12:00:35Z</time>
      </trkpt>
      <trkpt lat="42.74145" lon="1.93009">
        <ele>1561.6</ele>
        <time>2024-10-11T12:00:36Z</time>
      </trkpt>
      <trkpt lat="42.74146" lon="1.93011">
        <ele>1562.4</ele>
        <time>2024-10-11T12:00:37Z</time>
      </trkpt>
      <trkpt lat="42.74146" lon="1.93013">
        <ele>1562.4</ele>
        <time>2024-10-11T12:00:38Z</time>
      </trkpt>
      <trkpt lat="42.74147" lon="1.93015">
        <ele>1562.2</ele>
        <time>2024-10-11T12:00:39Z</time>
      </trkpt>
      <trkpt lat="42.74147" lon="1.93017">
        <ele>1562.2</ele>
        <time>2024-10-11T12:00:40Z</time>
      </trkpt>
      <trkpt lat="42.74147" lon="1.93019">
        <ele>1562.2</ele>
        <time>2024-10-11T12:00:41Z</time>
      </trkpt>
      <trkpt lat="42.74148" lon="1.93021">
        <ele>1563</ele>
        <time>2024-10-11T12:00:42Z</time>
      </trkpt>
      <trkpt lat="42.74148" lon="1.93024">
        <ele>1563</ele>
        <time>2024-10-11T12:00:43Z</time>
      </trkpt>
      <trkpt lat="42.74148" lon="1.93026">
        <ele>1563</ele>
        <time>2024-10-11T12:00:44Z</time>
      </trkpt>
      <trkpt lat="42.74148" lon="1.93028">
        <ele>1563</ele>
        <time>2024-10-11T12:00:45Z</time>
      </trkpt>
      <trkpt lat="42.74148" lon="1.9303">
        <ele>1563.6</ele>
        <time>2024-10-11T12:00:46Z</time>
      </trkpt>
      <trkpt lat="42.74148" lon="1.93032">
        <ele>1564</ele>
        <time>2024-10-11T12:00:47Z</time>
      </trkpt>
      <trkpt lat="42.74148" lon="1.93034">
        <ele>1564</ele>
        <time>2024-10-11T12:00:48Z</time>
      </trkpt>
      <trkpt lat="42.74148" lon="1.93036">
        <ele>1564</ele>
        <time>2024-10-11T12:00:49Z</time>
      </trkpt>
      <trkpt lat="42.74148" lon="1.93038">
        <ele>1564</ele>
        <time>2024-10-11T12:00:50Z</time>
      </trkpt>
      <trkpt lat="42.74148" lon="1.9304">
        <ele>1564.8</ele>
        <time>2024-10-11T12:00:51Z</time>
      </trkpt>
      <trkpt lat="42.74148" lon="1.93042">
        <ele>1565.2</ele>
        <time>2024-10-11T12:00:52Z</time>
      </trkpt>
      <trkpt lat="42.74148" lon="1.93044">
        <ele>1565.2</ele>
        <time>2024-10-11T12:00:53Z</time>
      </trkpt>
      <trkpt lat="42.74148" lon="1.93046">
        <ele>1565.2</ele>
        <time>2024-10-11T12:00:54Z</time>
      </trkpt>
      <trkpt lat="42.74147" lon="1.93049">
        <ele>1565.8</ele>
        <time>2024-10-11T12:00:55Z</time>
      </trkpt>
      <trkpt lat="42.74147" lon="1.93051">
        <ele>1566</ele>
        <time>2024-10-11T12:00:56Z</time>
      </trkpt>
      <trkpt lat="42.74147" lon="1.93053">
        <ele>1566</ele>
        <time>2024-10-11T12:00:57Z</time>
      </trkpt>
      <trkpt lat="42.74147" lon="1.93055">
        <ele>1566</ele>
        <time>2024-10-11T12:00:58Z</time>
      </trkpt>
      <trkpt lat="42.74146" lon="1.93057">
        <ele>1566.4</ele>
        <time>2024-10-11T12:00:59Z</time>
      </trkpt>
      <trkpt lat="42.74146" lon="1.93059">
        <ele>1566.8</ele>
        <time>2024-10-11T12:01:00Z</time>
      </trkpt>
      <trkpt lat="42.74146" lon="1.93061">
        <ele>1566.8</ele>
        <time>2024-10-11T12:01:01Z</time>
      </trkpt>
      <trkpt lat="42.74145" lon="1.93063">
        <ele>1566.8</ele>
        <time>2024-10-11T12:01:02Z</time>
      </trkpt>
      <trkpt lat="42.74145" lon="1.93065">
        <ele>1566.8</ele>
        <time>2024-10-11T12:01:03Z</time>
      </trkpt>
      <trkpt lat="42.74145" lon="1.93067">
        <ele>1567.4</ele>
        <time>2024-10-11T12:01:04Z</time>
      </trkpt>
      <trkpt lat="42.74144" lon="1.93069">
        <ele>1567.8</ele>
        <time>2024-10-11T12:01:05Z</time>
      </trkpt>
      <trkpt lat="42.74144" lon="1.93071">
        <ele>1567.8</ele>
        <time>2024-10-11T12:01:06Z</time>
      </trkpt>
      <trkpt lat="42.74143" lon="1.93073">
        <ele>1567.8</ele>
        <time>2024-10-11T12:01:07Z</time>
      </trkpt>
      <trkpt lat="42.74143" lon="1.93075">
        <ele>1567.8</ele>
        <time>2024-10-11T12:01:08Z</time>
      </trkpt>
      <trkpt lat="42.74142" lon="1.93076">
        <ele>1568.4</ele>
        <time>2024-10-11T12:01:09Z</time>
      </trkpt>
      <trkpt lat="42.74142" lon="1.93078">
        <ele>1568.6</ele>
        <time>2024-10-11T12:01:10Z</time>
      </trkpt>
      <trkpt lat="42.74141" lon="1.9308">
        <ele>1568.6</ele>
        <time>2024-10-11T12:01:11Z</time>
      </trkpt>
      <trkpt lat="42.74141" lon="1.93082">
        <ele>1568.6</ele>
        <time>2024-10-11T12:01:12Z</time>
      </trkpt>
      <trkpt lat="42.7414" lon="1.93084">
        <ele>1569.2</ele>
        <time>2024-10-11T12:01:13Z</time>
      </trkpt>
      <trkpt lat="42.7414" lon="1.93086">
        <ele>1569.2</ele>
        <time>2024-10-11T12:01:14Z</time>
      </trkpt>
      <trkpt lat="42.74139" lon="1.93087">
        <ele>1569.8</ele>
        <time>2024-10-11T12:01:15Z</time>
      </trkpt>
      <trkpt lat="42.74138" lon="1.93089">
        <ele>1569.8</ele>
        <time>2024-10-11T12:01:16Z</time>
      </trkpt>
      <trkpt lat="42.74137" lon="1.93091">
        <ele>1569.8</ele>
        <time>2024-10-11T12:01:17Z</time>
      </trkpt>
      <trkpt lat="42.74137" lon="1.93092">
        <ele>1569.8</ele>
        <time>2024-10-11T12:01:18Z</time>
      </trkpt>
      <trkpt lat="42.74136" lon="1.93094">
        <ele>1569.8</ele>
        <time>2024-10-11T12:01:19Z</time>
      </trkpt>
      <trkpt lat="42.74135" lon="1.93096">
        <ele>1570.4</ele>
        <time>2024-10-11T12:01:20Z</time>
      </trkpt>
      <trkpt lat="42.74135" lon="1.93097">
        <ele>1570.4</ele>
        <time>2024-10-11T12:01:21Z</time>
      </trkpt>
      <trkpt lat="42.74134" lon="1.93099">
        <ele>1571</ele>
        <time>2024-10-11T12:01:22Z</time>
      </trkpt>
      <trkpt lat="42.74134" lon="1.93101">
        <ele>1571.4</ele>
        <time>2024-10-11T12:01:23Z</time>
      </trkpt>
      <trkpt lat="42.74133" lon="1.93103">
        <ele>1571.4</ele>
        <time>2024-10-11T12:01:24Z</time>
      </trkpt>
      <trkpt lat="42.74132" lon="1.93105">
        <ele>1571.4</ele>
        <time>2024-10-11T12:01:25Z</time>
      </trkpt>
      <trkpt lat="42.74131" lon="1.93106">
        <ele>1571.4</ele>
        <time>2024-10-11T12:01:26Z</time>
      </trkpt>
      <trkpt lat="42.7413" lon="1.93108">
        <ele>1571.8</ele>
        <time>2024-10-11T12:01:27Z</time>
      </trkpt>
      <trkpt lat="42.74129" lon="1.93109">
        <ele>1572.2</ele>
        <time>2024-10-11T12:01:28Z</time>
      </trkpt>
      <trkpt lat="42.74129" lon="1.93111">
        <ele>1572.2</ele>
        <time>2024-10-11T12:01:29Z</time>
      </trkpt>
      <trkpt lat="42.74128" lon="1.93113">
        <ele>1572.2</ele>
        <time>2024-10-11T12:01:30Z</time>
      </trkpt>
      <trkpt lat="42.74126" lon="1.93115">
        <ele>1572.2</ele>
        <time>2024-10-11T12:01:31Z</time>
      </trkpt>
      <trkpt lat="42.74125" lon="1.93116">
        <ele>1573</ele>
        <time>2024-10-11T12:01:32Z</time>
      </trkpt>
      <trkpt lat="42.74124" lon="1.93118">
        <ele>1573</ele>
        <time>2024-10-11T12:01:33Z</time>
      </trkpt>
      <trkpt lat="42.74123" lon="1.93119">
        <ele>1573</ele>
        <time>2024-10-11T12:01:34Z</time>
      </trkpt>
      <trkpt lat="42.74123" lon="1.93121">
        <ele>1573.6</ele>
        <time>2024-10-11T12:01:35Z</time>
      </trkpt>
      <trkpt lat="42.74121" lon="1.93123">
        <ele>1573.8</ele>
        <time>2024-10-11T12:01:36Z</time>
      </trkpt>
      <trkpt lat="42.7412" lon="1.93125">
        <ele>1573.8</ele>
        <time>2024-10-11T12:01:37Z</time>
      </trkpt>
      <trkpt lat="42.74119" lon="1.93126">
        <ele>1573.8</ele>
        <time>2024-10-11T12:01:38Z</time>
      </trkpt>
      <trkpt lat="42.74119" lon="1.93128">
        <ele>1573.8</ele>
        <time>2024-10-11T12:01:39Z</time>
      </trkpt>
      <trkpt lat="42.74117" lon="1.9313">
        <ele>1574.4</ele>
        <time>2024-10-11T12:01:40Z</time>
      </trkpt>
      <trkpt lat="42.74116" lon="1.93131">
        <ele>1574.4</ele>
        <time>2024-10-11T12:01:41Z</time>
      </trkpt>
      <trkpt lat="42.74115" lon="1.93132">
        <ele>1574.6</ele>
        <time>2024-10-11T12:01:42Z</time>
      </trkpt>
      <trkpt lat="42.74114" lon="1.93134">
        <ele>1574.6</ele>
        <time>2024-10-11T12:01:43Z</time>
      </trkpt>
      <trkpt lat="42.74112" lon="1.93135">
        <ele>1575.2</ele>
        <time>2024-10-11T12:01:44Z</time>
      </trkpt>
      <trkpt lat="42.74111" lon="1.93136">
        <ele>1575.6</ele>
        <time>2024-10-11T12:01:45Z</time>
      </trkpt>
      <trkpt lat="42.7411" lon="1.93138">
        <ele>1575.6</ele>
        <time>2024-10-11T12:01:46Z</time>
      </trkpt>
      <trkpt lat="42.74109" lon="1.93139">
        <ele>1575.6</ele>
        <time>2024-10-11T12:01:47Z</time>
      </trkpt>
      <trkpt lat="42.74108" lon="1.9314">
        <ele>1575.6</ele>
        <time>2024-10-11T12:01:48Z</time>
      </trkpt>
      <trkpt lat="42.74106" lon="1.93142">
        <ele>1575.6</ele>
        <time>2024-10-11T12:01:49Z</time>
      </trkpt>
      <trkpt lat="42.74105" lon="1.93143">
        <ele>1575.6</ele>
        <time>2024-10-11T12:01:50Z</time>
      </trkpt>
      <trkpt lat="42.74104" lon="1.93144">
        <ele>1576.2</ele>
        <time>2024-10-11T12:01:51Z</time>
      </trkpt>
      <trkpt lat="42.74103" lon="1.93145">
        <ele>1576.2</ele>
        <time>2024-10-11T12:01:52Z</time>
      </trkpt>
      <trkpt lat="42.74101" lon="1.93147">
        <ele>1576.2</ele>
        <time>2024-10-11T12:01:53Z</time>
      </trkpt>
      <trkpt lat="42.741" lon="1.93148">
        <ele>1576.8</ele>
        <time>2024-10-11T12:01:54Z</time>
      </trkpt>
      <trkpt lat="42.74099" lon="1.93149">
        <ele>1577</ele>
        <time>2024-10-11T12:01:55Z</time>
      </trkpt>
      <trkpt lat="42.74098" lon="1.93151">
        <ele>1577</ele>
        <time>2024-10-11T12:01:56Z</time>
      </trkpt>
      <trkpt lat="42.74097" lon="1.93152">
        <ele>1577</ele>
        <time>2024-10-11T12:01:57Z</time>
      </trkpt>
      <trkpt lat="42.74095" lon="1.93153">
        <ele>1577.4</ele>
        <time>2024-10-11T12:01:58Z</time>
      </trkpt>
      <trkpt lat="42.74094" lon="1.93155">
        <ele>1577.6</ele>
        <time>2024-10-11T12:01:59Z</time>
      </trkpt>
      <trkpt lat="42.74093" lon="1.93156">
        <ele>1577.6</ele>
        <time>2024-10-11T12:02:00Z</time>
      </trkpt>
      <trkpt lat="42.74092" lon="1.93157">
        <ele>1577.6</ele>
        <time>2024-10-11T12:02:01Z</time>
      </trkpt>
      <trkpt lat="42.7409" lon="1.93158">
        <ele>1577.6</ele>
        <time>2024-10-11T12:02:02Z</time>
      </trkpt>
      <trkpt lat="42.74089" lon="1.93159">
        <ele>1578.6</ele>
        <time>2024-10-11T12:02:03Z</time>
      </trkpt>
      <trkpt lat="42.74088" lon="1.9316">
        <ele>1578.6</ele>
        <time>2024-10-11T12:02:04Z</time>
      </trkpt>
      <trkpt lat="42.74086" lon="1.93161">
        <ele>1578.6</ele>
        <time>2024-10-11T12:02:05Z</time>
      </trkpt>
      <trkpt lat="42.74085" lon="1.93162">
        <ele>1578.6</ele>
        <time>2024-10-11T12:02:06Z</time>
      </trkpt>
      <trkpt lat="42.74083" lon="1.93164">
        <ele>1579</ele>
        <time>2024-10-11T12:02:07Z</time>
      </trkpt>
      <trkpt lat="42.74082" lon="1.93165">
        <ele>1579.4</ele>
        <time>2024-10-11T12:02:08Z</time>
      </trkpt>
      <trkpt lat="42.74081" lon="1.93166">
        <ele>1579.4</ele>
        <time>2024-10-11T12:02:09Z</time>
      </trkpt>
      <trkpt lat="42.7408" lon="1.93168">
        <ele>1579.4</ele>
        <time>2024-10-11T12:02:10Z</time>
      </trkpt>
      <trkpt lat="42.74078" lon="1.93169">
        <ele>1579.4</ele>
        <time>2024-10-11T12:02:11Z</time>
      </trkpt>
      <trkpt lat="42.74077" lon="1.9317">
        <ele>1579.6</ele>
        <time>2024-10-11T12:02:12Z</time>
      </trkpt>
      <trkpt lat="42.74076" lon="1.93171">
        <ele>1579.8</ele>
        <time>2024-10-11T12:02:13Z</time>
      </trkpt>
      <trkpt lat="42.74075" lon="1.93172">
        <ele>1579.8</ele>
        <time>2024-10-11T12:02:14Z</time>
      </trkpt>
      <trkpt lat="42.74074" lon="1.93174">
        <ele>1579.8</ele>
        <time>2024-10-11T12:02:15Z</time>
      </trkpt>
      <trkpt lat="42.74073" lon="1.93175">
        <ele>1580.2</ele>
        <time>2024-10-11T12:02:16Z</time>
      </trkpt>
      <trkpt lat="42.74072" lon="1.93177">
        <ele>1580.4</ele>
        <time>2024-10-11T12:02:17Z</time>
      </trkpt>
      <trkpt lat="42.74071" lon="1.93179">
        <ele>1580.4</ele>
        <time>2024-10-11T12:02:18Z</time>
      </trkpt>
      <trkpt lat="42.7407" lon="1.93181">
        <ele>1580.4</ele>
        <time>2024-10-11T12:02:19Z</time>
      </trkpt>
      <trkpt lat="42.74069" lon="1.93183">
        <ele>1580.8</ele>
        <time>2024-10-11T12:02:20Z</time>
      </trkpt>
      <trkpt lat="42.74069" lon="1.93185">
        <ele>1581.2</ele>
        <time>2024-10-11T12:02:21Z</time>
      </trkpt>
      <trkpt lat="42.74068" lon="1.93187">
        <ele>1581.2</ele>
        <time>2024-10-11T12:02:22Z</time>
      </trkpt>
      <trkpt lat="42.74068" lon="1.93189">
        <ele>1581.2</ele>
        <time>2024-10-11T12:02:23Z</time>
      </trkpt>
      <trkpt lat="42.74068" lon="1.93191">
        <ele>1581.2</ele>
        <time>2024-10-11T12:02:24Z</time>
      </trkpt>
      <trkpt lat="42.74067" lon="1.93193">
        <ele>1581.2</ele>
        <time>2024-10-11T12:02:25Z</time>
      </trkpt>
      <trkpt lat="42.74068" lon="1.93195">
        <ele>1581.2</ele>
        <time>2024-10-11T12:02:26Z</time>
      </trkpt>
      <trkpt lat="42.74068" lon="1.93197">
        <ele>1581.6</ele>
        <time>2024-10-11T12:02:27Z</time>
      </trkpt>
      <trkpt lat="42.74069" lon="1.932">
        <ele>1581.6</ele>
        <time>2024-10-11T12:02:28Z</time>
      </trkpt>
      <trkpt lat="42.7407" lon="1.93202">
        <ele>1582</ele>
        <time>2024-10-11T12:02:29Z</time>
      </trkpt>
      <trkpt lat="42.7407" lon="1.93204">
        <ele>1582.2</ele>
        <time>2024-10-11T12:02:30Z</time>
      </trkpt>
      <trkpt lat="42.74071" lon="1.93206">
        <ele>1582.2</ele>
        <time>2024-10-11T12:02:31Z</time>
      </trkpt>
      <trkpt lat="42.74072" lon="1.93208">
        <ele>1582.2</ele>
        <time>2024-10-11T12:02:32Z</time>
      </trkpt>
      <trkpt lat="42.74073" lon="1.93209">
        <ele>1582.2</ele>
        <time>2024-10-11T12:02:33Z</time>
      </trkpt>
      <trkpt lat="42.74075" lon="1.93212">
        <ele>1582.2</ele>
        <time>2024-10-11T12:02:34Z</time>
      </trkpt>
      <trkpt lat="42.74076" lon="1.93213">
        <ele>1582.8</ele>
        <time>2024-10-11T12:02:35Z</time>
      </trkpt>
      <trkpt lat="42.74078" lon="1.93216">
        <ele>1583.2</ele>
        <time>2024-10-11T12:02:36Z</time>
      </trkpt>
      <trkpt lat="42.74078" lon="1.93217">
        <ele>1583.2</ele>
        <time>2024-10-11T12:02:37Z</time>
      </trkpt>
      <trkpt lat="42.7408" lon="1.9322">
        <ele>1583.2</ele>
        <time>2024-10-11T12:02:38Z</time>
      </trkpt>
      <trkpt lat="42.74081" lon="1.93221">
        <ele>1583.6</ele>
        <time>2024-10-11T12:02:39Z</time>
      </trkpt>
      <trkpt lat="42.74083" lon="1.93224">
        <ele>1583.4</ele>
        <time>2024-10-11T12:02:40Z</time>
      </trkpt>
      <trkpt lat="42.74084" lon="1.93225">
        <ele>1583.4</ele>
        <time>2024-10-11T12:02:41Z</time>
      </trkpt>
      <trkpt lat="42.74086" lon="1.93228">
        <ele>1583.4</ele>
        <time>2024-10-11T12:02:42Z</time>
      </trkpt>
      <trkpt lat="42.74087" lon="1.93228">
        <ele>1583.6</ele>
        <time>2024-10-11T12:02:43Z</time>
      </trkpt>
      <trkpt lat="42.7409" lon="1.93231">
        <ele>1583.6</ele>
        <time>2024-10-11T12:02:44Z</time>
      </trkpt>
      <trkpt lat="42.74091" lon="1.93232">
        <ele>1584</ele>
        <time>2024-10-11T12:02:45Z</time>
      </trkpt>
      <trkpt lat="42.74094" lon="1.93234">
        <ele>1584</ele>
        <time>2024-10-11T12:02:46Z</time>
      </trkpt>
      <trkpt lat="42.74095" lon="1.93235">
        <ele>1584</ele>
        <time>2024-10-11T12:02:47Z</time>
      </trkpt>
      <trkpt lat="42.74098" lon="1.93238">
        <ele>1584</ele>
        <time>2024-10-11T12:02:48Z</time>
      </trkpt>
      <trkpt lat="42.74098" lon="1.93239">
        <ele>1584.6</ele>
        <time>2024-10-11T12:02:49Z</time>
      </trkpt>
      <trkpt lat="42.741" lon="1.93241">
        <ele>1584.6</ele>
        <time>2024-10-11T12:02:50Z</time>
      </trkpt>
      <trkpt lat="42.74102" lon="1.93243">
        <ele>1584.6</ele>
        <time>2024-10-11T12:02:51Z</time>
      </trkpt>
      <trkpt lat="42.74104" lon="1.93245">
        <ele>1584.6</ele>
        <time>2024-10-11T12:02:52Z</time>
      </trkpt>
      <trkpt lat="42.74106" lon="1.93247">
        <ele>1584.8</ele>
        <time>2024-10-11T12:02:53Z</time>
      </trkpt>
      <trkpt lat="42.74108" lon="1.93248">
        <ele>1584.8</ele>
        <time>2024-10-11T12:02:54Z</time>
      </trkpt>
      <trkpt lat="42.74109" lon="1.9325">
        <ele>1584.8</ele>
        <time>2024-10-11T12:02:55Z</time>
      </trkpt>
      <trkpt lat="42.74111" lon="1.93252">
        <ele>1585.6</ele>
        <time>2024-10-11T12:02:56Z</time>
      </trkpt>
      <trkpt lat="42.74113" lon="1.93254">
        <ele>1585.4</ele>
        <time>2024-10-11T12:02:57Z</time>
      </trkpt>
      <trkpt lat="42.74114" lon="1.93256">
        <ele>1585.4</ele>
        <time>2024-10-11T12:02:58Z</time>
      </trkpt>
      <trkpt lat="42.74116" lon="1.93259">
        <ele>1585.4</ele>
        <time>2024-10-11T12:02:59Z</time>
      </trkpt>
      <trkpt lat="42.74117" lon="1.93261">
        <ele>1585.4</ele>
        <time>2024-10-11T12:03:00Z</time>
      </trkpt>
      <trkpt lat="42.74119" lon="1.93263">
        <ele>1585.6</ele>
        <time>2024-10-11T12:03:01Z</time>
      </trkpt>
      <trkpt lat="42.74121" lon="1.93265">
        <ele>1586.4</ele>
        <time>2024-10-11T12:03:02Z</time>
      </trkpt>
      <trkpt lat="42.74123" lon="1.93267">
        <ele>1586.4</ele>
        <time>2024-10-11T12:03:03Z</time>
      </trkpt>
      <trkpt lat="42.74125" lon="1.93269">
        <ele>1586.4</ele>
        <time>2024-10-11T12:03:04Z</time>
      </trkpt>
      <trkpt lat="42.74127" lon="1.93273">
        <ele>1586.4</ele>
        <time>2024-10-11T12:03:05Z</time>
      </trkpt>
      <trkpt lat="42.74128" lon="1.93274">
        <ele>1586.8</ele>
        <time>2024-10-11T12:03:06Z</time>
      </trkpt>
      <trkpt lat="42.74129" lon="1.93276">
        <ele>1586.8</ele>
        <time>2024-10-11T12:03:07Z</time>
      </trkpt>
      <trkpt lat="42.74131" lon="1.93278">
        <ele>1586.8</ele>
        <time>2024-10-11T12:03:08Z</time>
      </trkpt>
      <trkpt lat="42.74133" lon="1.93281">
        <ele>1586.8</ele>
        <time>2024-10-11T12:03:09Z</time>
      </trkpt>
      <trkpt lat="42.74134" lon="1.93283">
        <ele>1586.8</ele>
        <time>2024-10-11T12:03:10Z</time>
      </trkpt>
      <trkpt lat="42.74137" lon="1.93285">
        <ele>1587</ele>
        <time>2024-10-11T12:03:11Z</time>
      </trkpt>
      <trkpt lat="42.74139" lon="1.93288">
        <ele>1587</ele>
        <time>2024-10-11T12:03:12Z</time>
      </trkpt>
      <trkpt lat="42.74141" lon="1.9329">
        <ele>1587</ele>
        <time>2024-10-11T12:03:13Z</time>
      </trkpt>
      <trkpt lat="42.74143" lon="1.93292">
        <ele>1587.2</ele>
        <time>2024-10-11T12:03:14Z</time>
      </trkpt>
      <trkpt lat="42.74146" lon="1.93296">
        <ele>1587.2</ele>
        <time>2024-10-11T12:03:15Z</time>
      </trkpt>
      <trkpt lat="42.74147" lon="1.93297">
        <ele>1587.4</ele>
        <time>2024-10-11T12:03:16Z</time>
      </trkpt>
      <trkpt lat="42.74149" lon="1.933">
        <ele>1587.4</ele>
        <time>2024-10-11T12:03:17Z</time>
      </trkpt>
      <trkpt lat="42.74151" lon="1.93302">
        <ele>1587.4</ele>
        <time>2024-10-11T12:03:18Z</time>
      </trkpt>
      <trkpt lat="42.74155" lon="1.93305">
        <ele>1587.4</ele>
        <time>2024-10-11T12:03:19Z</time>
      </trkpt>
      <trkpt lat="42.74156" lon="1.93306">
        <ele>1587.4</ele>
        <time>2024-10-11T12:03:20Z</time>
      </trkpt>
      <trkpt lat="42.7416" lon="1.93308">
        <ele>1588</ele>
        <time>2024-10-11T12:03:21Z</time>
      </trkpt>
      <trkpt lat="42.74161" lon="1.93309">
        <ele>1588</ele>
        <time>2024-10-11T12:03:22Z</time>
      </trkpt>
      <trkpt lat="42.74165" lon="1.93311">
        <ele>1588</ele>
        <time>2024-10-11T12:03:23Z</time>
      </trkpt>
      <trkpt lat="42.74166" lon="1.93312">
        <ele>1588.2</ele>
        <time>2024-10-11T12:03:24Z</time>
      </trkpt>
      <trkpt lat="42.7417" lon="1.93315">
        <ele>1588.6</ele>
        <time>2024-10-11T12:03:25Z</time>
      </trkpt>
      <trkpt lat="42.74171" lon="1.93315">
        <ele>1588.6</ele>
        <time>2024-10-11T12:03:26Z</time>
      </trkpt>
      <trkpt lat="42.74175" lon="1.93318">
        <ele>1588.6</ele>
        <time>2024-10-11T12:03:27Z</time>
      </trkpt>
      <trkpt lat="42.74176" lon="1.93319">
        <ele>1589.4</ele>
        <time>2024-10-11T12:03:28Z</time>
      </trkpt>
      <trkpt lat="42.74179" lon="1.93321">
        <ele>1589.4</ele>
        <time>2024-10-11T12:03:29Z</time>
      </trkpt>
      <trkpt lat="42.7418" lon="1.93322">
        <ele>1589.2</ele>
        <time>2024-10-11T12:03:30Z</time>
      </trkpt>
      <trkpt lat="42.74182" lon="1.93323">
        <ele>1589.2</ele>
        <time>2024-10-11T12:03:31Z</time>
      </trkpt>
      <trkpt lat="42.74185" lon="1.93325">
        <ele>1589.2</ele>
        <time>2024-10-11T12:03:32Z</time>
      </trkpt>
      <trkpt lat="42.74187" lon="1.93326">
        <ele>1589.6</ele>
        <time>2024-10-11T12:03:33Z</time>
      </trkpt>
      <trkpt lat="42.74189" lon="1.93328">
        <ele>1590</ele>
        <time>2024-10-11T12:03:34Z</time>
      </trkpt>
      <trkpt lat="42.74192" lon="1.93329">
        <ele>1590</ele>
        <time>2024-10-11T12:03:35Z</time>
      </trkpt>
      <trkpt lat="42.74194" lon="1.9333">
        <ele>1590</ele>
        <time>2024-10-11T12:03:36Z</time>
      </trkpt>
      <trkpt lat="42.74196" lon="1.93331">
        <ele>1590</ele>
        <time>2024-10-11T12:03:37Z</time>
      </trkpt>
      <trkpt lat="42.74198" lon="1.93332">
        <ele>1590.4</ele>
        <time>2024-10-11T12:03:38Z</time>
      </trkpt>
      <trkpt lat="42.74201" lon="1.93333">
        <ele>1590.4</ele>
        <time>2024-10-11T12:03:39Z</time>
      </trkpt>
      <trkpt lat="42.74203" lon="1.93333">
        <ele>1590.4</ele>
        <time>2024-10-11T12:03:40Z</time>
      </trkpt>
      <trkpt lat="42.74205" lon="1.93334">
        <ele>1590.4</ele>
        <time>2024-10-11T12:03:41Z</time>
      </trkpt>
      <trkpt lat="42.74207" lon="1.93334">
        <ele>1591.2</ele>
        <time>2024-10-11T12:03:42Z</time>
      </trkpt>
      <trkpt lat="42.7421" lon="1.93333">
        <ele>1591</ele>
        <time>2024-10-11T12:03:43Z</time>
      </trkpt>
      <trkpt lat="42.74211" lon="1.93333">
        <ele>1591</ele>
        <time>2024-10-11T12:03:44Z</time>
      </trkpt>
      <trkpt lat="42.74213" lon="1.93332">
        <ele>1591</ele>
        <time>2024-10-11T12:03:45Z</time>
      </trkpt>
      <trkpt lat="42.74214" lon="1.93329">
        <ele>1591.8</ele>
        <time>2024-10-11T12:03:46Z</time>
      </trkpt>
      <trkpt lat="42.74215" lon="1.93327">
        <ele>1591.8</ele>
        <time>2024-10-11T12:03:47Z</time>
      </trkpt>
      <trkpt lat="42.74216" lon="1.93325">
        <ele>1591.8</ele>
        <time>2024-10-11T12:03:48Z</time>
      </trkpt>
      <trkpt lat="42.74217" lon="1.93322">
        <ele>1591.8</ele>
        <time>2024-10-11T12:03:49Z</time>
      </trkpt>
      <trkpt lat="42.74218" lon="1.93319">
        <ele>1592.4</ele>
        <time>2024-10-11T12:03:50Z</time>
      </trkpt>
      <trkpt lat="42.74219" lon="1.93316">
        <ele>1592.4</ele>
        <time>2024-10-11T12:03:51Z</time>
      </trkpt>
      <trkpt lat="42.74221" lon="1.93313">
        <ele>1592.4</ele>
        <time>2024-10-11T12:03:52Z</time>
      </trkpt>
      <trkpt lat="42.74222" lon="1.93309">
        <ele>1592.4</ele>
        <time>2024-10-11T12:03:53Z</time>
      </trkpt>
      <trkpt lat="42.74223" lon="1.93306">
        <ele>1592.4</ele>
        <time>2024-10-11T12:03:54Z</time>
      </trkpt>
      <trkpt lat="42.74224" lon="1.93303">
        <ele>1593</ele>
        <time>2024-10-11T12:03:55Z</time>
      </trkpt>
      <trkpt lat="42.74226" lon="1.93298">
        <ele>1593</ele>
        <time>2024-10-11T12:03:56Z</time>
      </trkpt>
      <trkpt lat="42.74226" lon="1.93297">
        <ele>1593</ele>
        <time>2024-10-11T12:03:57Z</time>
      </trkpt>
      <trkpt lat="42.74228" lon="1.93292">
        <ele>1593</ele>
        <time>2024-10-11T12:03:58Z</time>
      </trkpt>
      <trkpt lat="42.74229" lon="1.93291">
        <ele>1593</ele>
        <time>2024-10-11T12:03:59Z</time>
      </trkpt>
      <trkpt lat="42.74231" lon="1.93286">
        <ele>1594</ele>
        <time>2024-10-11T12:04:00Z</time>
      </trkpt>
      <trkpt lat="42.74231" lon="1.93285">
        <ele>1594</ele>
        <time>2024-10-11T12:04:01Z</time>
      </trkpt>
      <trkpt lat="42.74233" lon="1.93281">
        <ele>1594</ele>
        <time>2024-10-11T12:04:02Z</time>
      </trkpt>
      <trkpt lat="42.74234" lon="1.9328">
        <ele>1594</ele>
        <time>2024-10-11T12:04:03Z</time>
      </trkpt>
      <trkpt lat="42.74236" lon="1.93276">
        <ele>1594</ele>
        <time>2024-10-11T12:04:04Z</time>
      </trkpt>
      <trkpt lat="42.74236" lon="1.93274">
        <ele>1594</ele>
        <time>2024-10-11T12:04:05Z</time>
      </trkpt>
      <trkpt lat="42.74237" lon="1.9327">
        <ele>1594</ele>
        <time>2024-10-11T12:04:06Z</time>
      </trkpt>
      <trkpt lat="42.74238" lon="1.93269">
        <ele>1594</ele>
        <time>2024-10-11T12:04:07Z</time>
      </trkpt>
      <trkpt lat="42.7424" lon="1.93265">
        <ele>1594</ele>
        <time>2024-10-11T12:04:08Z</time>
      </trkpt>
      <trkpt lat="42.74241" lon="1.93264">
        <ele>1594.4</ele>
        <time>2024-10-11T12:04:09Z</time>
      </trkpt>
      <trkpt lat="42.74242" lon="1.93263">
        <ele>1594.6</ele>
        <time>2024-10-11T12:04:10Z</time>
      </trkpt>
      <trkpt lat="42.74242" lon="1.93262">
        <ele>1594.6</ele>
        <time>2024-10-11T12:04:11Z</time>
      </trkpt>
      <trkpt lat="42.74242" lon="1.93262">
        <ele>1594.6</ele>
        <time>2024-10-11T12:04:12Z</time>
      </trkpt>
      <trkpt lat="42.7425" lon="1.93256">
        <ele>1594.6</ele>
        <time>2024-10-11T12:05:42Z</time>
      </trkpt>
      <trkpt lat="42.74251" lon="1.93253">
        <ele>1594.6</ele>
        <time>2024-10-11T12:05:43Z</time>
      </trkpt>
      <trkpt lat="42.74253" lon="1.9325">
        <ele>1595</ele>
        <time>2024-10-11T12:05:44Z</time>
      </trkpt>
      <trkpt lat="42.74254" lon="1.93248">
        <ele>1595</ele>
        <time>2024-10-11T12:05:45Z</time>
      </trkpt>
      <trkpt lat="42.74255" lon="1.93245">
        <ele>1595</ele>
        <time>2024-10-11T12:05:46Z</time>
      </trkpt>
      <trkpt lat="42.74256" lon="1.93242">
        <ele>1595</ele>
        <time>2024-10-11T12:05:47Z</time>
      </trkpt>
      <trkpt lat="42.74258" lon="1.93239">
        <ele>1595.6</ele>
        <time>2024-10-11T12:05:48Z</time>
      </trkpt>
      <trkpt lat="42.74259" lon="1.93236">
        <ele>1595.6</ele>
        <time>2024-10-11T12:05:49Z</time>
      </trkpt>
      <trkpt lat="42.7426" lon="1.93233">
        <ele>1595.6</ele>
        <time>2024-10-11T12:05:50Z</time>
      </trkpt>
      <trkpt lat="42.74261" lon="1.93231">
        <ele>1595.6</ele>
        <time>2024-10-11T12:05:51Z</time>
      </trkpt>
      <trkpt lat="42.74262" lon="1.93228">
        <ele>1596.2</ele>
        <time>2024-10-11T12:05:52Z</time>
      </trkpt>
      <trkpt lat="42.74263" lon="1.93225">
        <ele>1596.2</ele>
        <time>2024-10-11T12:05:53Z</time>
      </trkpt>
      <trkpt lat="42.74264" lon="1.93222">
        <ele>1596.2</ele>
        <time>2024-10-11T12:05:54Z</time>
      </trkpt>
      <trkpt lat="42.74265" lon="1.93219">
        <ele>1596.2</ele>
        <time>2024-10-11T12:05:55Z</time>
      </trkpt>
      <trkpt lat="42.74266" lon="1.93216">
        <ele>1596.8</ele>
        <time>2024-10-11T12:05:56Z</time>
      </trkpt>
      <trkpt lat="42.74267" lon="1.93211">
        <ele>1597</ele>
        <time>2024-10-11T12:05:57Z</time>
      </trkpt>
      <trkpt lat="42.74268" lon="1.9321">
        <ele>1597</ele>
        <time>2024-10-11T12:05:58Z</time>
      </trkpt>
      <trkpt lat="42.74269" lon="1.93207">
        <ele>1597</ele>
        <time>2024-10-11T12:05:59Z</time>
      </trkpt>
      <trkpt lat="42.7427" lon="1.93204">
        <ele>1597</ele>
        <time>2024-10-11T12:06:00Z</time>
      </trkpt>
      <trkpt lat="42.74271" lon="1.93201">
        <ele>1597.6</ele>
        <time>2024-10-11T12:06:01Z</time>
      </trkpt>
      <trkpt lat="42.74272" lon="1.93198">
        <ele>1597.6</ele>
        <time>2024-10-11T12:06:02Z</time>
      </trkpt>
      <trkpt lat="42.74273" lon="1.93195">
        <ele>1597.4</ele>
        <time>2024-10-11T12:06:03Z</time>
      </trkpt>
      <trkpt lat="42.74274" lon="1.93191">
        <ele>1597.4</ele>
        <time>2024-10-11T12:06:04Z</time>
      </trkpt>
      <trkpt lat="42.74275" lon="1.93189">
        <ele>1598.4</ele>
        <time>2024-10-11T12:06:05Z</time>
      </trkpt>
      <trkpt lat="42.74275" lon="1.93185">
        <ele>1598.4</ele>
        <time>2024-10-11T12:06:06Z</time>
      </trkpt>
      <trkpt lat="42.74276" lon="1.93184">
        <ele>1598.4</ele>
        <time>2024-10-11T12:06:07Z</time>
      </trkpt>
      <trkpt lat="42.74277" lon="1.9318">
        <ele>1598.4</ele>
        <time>2024-10-11T12:06:08Z</time>
      </trkpt>
      <trkpt lat="42.74277" lon="1.93178">
        <ele>1598.4</ele>
        <time>2024-10-11T12:06:09Z</time>
      </trkpt>
      <trkpt lat="42.74279" lon="1.93175">
        <ele>1599</ele>
        <time>2024-10-11T12:06:10Z</time>
      </trkpt>
      <trkpt lat="42.7428" lon="1.93174">
        <ele>1599.2</ele>
        <time>2024-10-11T12:06:11Z</time>
      </trkpt>
      <trkpt lat="42.74281" lon="1.9317">
        <ele>1599.2</ele>
        <time>2024-10-11T12:06:12Z</time>
      </trkpt>
      <trkpt lat="42.74282" lon="1.93169">
        <ele>1599.2</ele>
        <time>2024-10-11T12:06:13Z</time>
      </trkpt>
      <trkpt lat="42.74284" lon="1.93167">
        <ele>1599.2</ele>
        <time>2024-10-11T12:06:14Z</time>
      </trkpt>
      <trkpt lat="42.74285" lon="1.93166">
        <ele>1600</ele>
        <time>2024-10-11T12:06:15Z</time>
      </trkpt>
      <trkpt lat="42.74288" lon="1.93165">
        <ele>1600.2</ele>
        <time>2024-10-11T12:06:16Z</time>
      </trkpt>
      <trkpt lat="42.74289" lon="1.93164">
        <ele>1600.2</ele>
        <time>2024-10-11T12:06:17Z</time>
      </trkpt>
      <trkpt lat="42.74292" lon="1.93164">
        <ele>1600.2</ele>
        <time>2024-10-11T12:06:18Z</time>
      </trkpt>
      <trkpt lat="42.74293" lon="1.93163">
        <ele>1601.2</ele>
        <time>2024-10-11T12:06:19Z</time>
      </trkpt>
      <trkpt lat="42.74296" lon="1.93163">
        <ele>1601.2</ele>
        <time>2024-10-11T12:06:20Z</time>
      </trkpt>
      <trkpt lat="42.74297" lon="1.93163">
        <ele>1601.4</ele>
        <time>2024-10-11T12:06:21Z</time>
      </trkpt>
      <trkpt lat="42.74301" lon="1.93164">
        <ele>1601.4</ele>
        <time>2024-10-11T12:06:22Z</time>
      </trkpt>
      <trkpt lat="42.74302" lon="1.93164">
        <ele>1602</ele>
        <time>2024-10-11T12:06:23Z</time>
      </trkpt>
      <trkpt lat="42.74305" lon="1.93165">
        <ele>1602</ele>
        <time>2024-10-11T12:06:24Z</time>
      </trkpt>
      <trkpt lat="42.74306" lon="1.93165">
        <ele>1602</ele>
        <time>2024-10-11T12:06:25Z</time>
      </trkpt>
      <trkpt lat="42.74309" lon="1.93166">
        <ele>1602</ele>
        <time>2024-10-11T12:06:26Z</time>
      </trkpt>
      <trkpt lat="42.7431" lon="1.93167">
        <ele>1602</ele>
        <time>2024-10-11T12:06:27Z</time>
      </trkpt>
      <trkpt lat="42.74312" lon="1.93168">
        <ele>1602.6</ele>
        <time>2024-10-11T12:06:28Z</time>
      </trkpt>
      <trkpt lat="42.74315" lon="1.9317">
        <ele>1602.6</ele>
        <time>2024-10-11T12:06:29Z</time>
      </trkpt>
      <trkpt lat="42.74316" lon="1.9317">
        <ele>1602.6</ele>
        <time>2024-10-11T12:06:30Z</time>
      </trkpt>
      <trkpt lat="42.74318" lon="1.93171">
        <ele>1602.6</ele>
        <time>2024-10-11T12:06:31Z</time>
      </trkpt>
      <trkpt lat="42.7432" lon="1.93173">
        <ele>1602.6</ele>
        <time>2024-10-11T12:06:32Z</time>
      </trkpt>
      <trkpt lat="42.74322" lon="1.93174">
        <ele>1603.4</ele>
        <time>2024-10-11T12:06:33Z</time>
      </trkpt>
      <trkpt lat="42.74324" lon="1.93175">
        <ele>1603.8</ele>
        <time>2024-10-11T12:06:34Z</time>
      </trkpt>
      <trkpt lat="42.74325" lon="1.93177">
        <ele>1603.8</ele>
        <time>2024-10-11T12:06:35Z</time>
      </trkpt>
      <trkpt lat="42.74327" lon="1.93179">
        <ele>1603.8</ele>
        <time>2024-10-11T12:06:36Z</time>
      </trkpt>
      <trkpt lat="42.74328" lon="1.93181">
        <ele>1603.8</ele>
        <time>2024-10-11T12:06:37Z</time>
      </trkpt>
      <trkpt lat="42.7433" lon="1.93183">
        <ele>1604.2</ele>
        <time>2024-10-11T12:06:38Z</time>
      </trkpt>
      <trkpt lat="42.74331" lon="1.93185">
        <ele>1604.2</ele>
        <time>2024-10-11T12:06:39Z</time>
      </trkpt>
      <trkpt lat="42.74334" lon="1.93188">
        <ele>1604.2</ele>
        <time>2024-10-11T12:06:40Z</time>
      </trkpt>
      <trkpt lat="42.74334" lon="1.93189">
        <ele>1604.2</ele>
        <time>2024-10-11T12:06:41Z</time>
      </trkpt>
      <trkpt lat="42.74335" lon="1.93192">
        <ele>1604.4</ele>
        <time>2024-10-11T12:06:42Z</time>
      </trkpt>
      <trkpt lat="42.74336" lon="1.93194">
        <ele>1604.4</ele>
        <time>2024-10-11T12:06:43Z</time>
      </trkpt>
      <trkpt lat="42.74337" lon="1.93197">
        <ele>1604.4</ele>
        <time>2024-10-11T12:06:44Z</time>
      </trkpt>
      <trkpt lat="42.74338" lon="1.932">
        <ele>1604.4</ele>
        <time>2024-10-11T12:06:45Z</time>
      </trkpt>
      <trkpt lat="42.74339" lon="1.93202">
        <ele>1605</ele>
        <time>2024-10-11T12:06:46Z</time>
      </trkpt>
      <trkpt lat="42.74339" lon="1.93205">
        <ele>1604.8</ele>
        <time>2024-10-11T12:06:47Z</time>
      </trkpt>
      <trkpt lat="42.7434" lon="1.93208">
        <ele>1604.8</ele>
        <time>2024-10-11T12:06:48Z</time>
      </trkpt>
      <trkpt lat="42.7434" lon="1.93212">
        <ele>1604.8</ele>
        <time>2024-10-11T12:06:49Z</time>
      </trkpt>
      <trkpt lat="42.74341" lon="1.93213">
        <ele>1605.4</ele>
        <time>2024-10-11T12:06:50Z</time>
      </trkpt>
      <trkpt lat="42.74342" lon="1.93217">
        <ele>1605.4</ele>
        <time>2024-10-11T12:06:51Z</time>
      </trkpt>
      <trkpt lat="42.74342" lon="1.93218">
        <ele>1605.6</ele>
        <time>2024-10-11T12:06:52Z</time>
      </trkpt>
      <trkpt lat="42.74343" lon="1.93222">
        <ele>1605.6</ele>
        <time>2024-10-11T12:06:53Z</time>
      </trkpt>
      <trkpt lat="42.74343" lon="1.93223">
        <ele>1605.6</ele>
        <time>2024-10-11T12:06:54Z</time>
      </trkpt>
      <trkpt lat="42.74344" lon="1.93227">
        <ele>1606.2</ele>
        <time>2024-10-11T12:06:55Z</time>
      </trkpt>
      <trkpt lat="42.74344" lon="1.93229">
        <ele>1606.4</ele>
        <time>2024-10-11T12:06:56Z</time>
      </trkpt>
      <trkpt lat="42.74346" lon="1.93232">
        <ele>1606.4</ele>
        <time>2024-10-11T12:06:57Z</time>
      </trkpt>
      <trkpt lat="42.74346" lon="1.93233">
        <ele>1606.4</ele>
        <time>2024-10-11T12:06:58Z</time>
      </trkpt>
      <trkpt lat="42.74347" lon="1.93235">
        <ele>1606.4</ele>
        <time>2024-10-11T12:06:59Z</time>
      </trkpt>
      <trkpt lat="42.74349" lon="1.93238">
        <ele>1607.2</ele>
        <time>2024-10-11T12:07:00Z</time>
      </trkpt>
      <trkpt lat="42.74351" lon="1.9324">
        <ele>1607.2</ele>
        <time>2024-10-11T12:07:01Z</time>
      </trkpt>
      <trkpt lat="42.74352" lon="1.93241">
        <ele>1607.2</ele>
        <time>2024-10-11T12:07:02Z</time>
      </trkpt>
      <trkpt lat="42.74353" lon="1.93243">
        <ele>1607.2</ele>
        <time>2024-10-11T12:07:03Z</time>
      </trkpt>
      <trkpt lat="42.74355" lon="1.93245">
        <ele>1607.8</ele>
        <time>2024-10-11T12:07:04Z</time>
      </trkpt>
      <trkpt lat="42.74357" lon="1.93246">
        <ele>1608.4</ele>
        <time>2024-10-11T12:07:05Z</time>
      </trkpt>
      <trkpt lat="42.74358" lon="1.93248">
        <ele>1608.4</ele>
        <time>2024-10-11T12:07:06Z</time>
      </trkpt>
      <trkpt lat="42.74361" lon="1.93249">
        <ele>1608.4</ele>
        <time>2024-10-11T12:07:07Z</time>
      </trkpt>
      <trkpt lat="42.74362" lon="1.93249">
        <ele>1608.4</ele>
        <time>2024-10-11T12:07:08Z</time>
      </trkpt>
      <trkpt lat="42.74364" lon="1.93249">
        <ele>1609.2</ele>
        <time>2024-10-11T12:07:09Z</time>
      </trkpt>
      <trkpt lat="42.74366" lon="1.9325">
        <ele>1609.2</ele>
        <time>2024-10-11T12:07:10Z</time>
      </trkpt>
      <trkpt lat="42.74368" lon="1.9325">
        <ele>1609.2</ele>
        <time>2024-10-11T12:07:11Z</time>
      </trkpt>
      <trkpt lat="42.74371" lon="1.9325">
        <ele>1609.2</ele>
        <time>2024-10-11T12:07:12Z</time>
      </trkpt>
      <trkpt lat="42.74371" lon="1.93249">
        <ele>1610</ele>
        <time>2024-10-11T12:07:13Z</time>
      </trkpt>
      <trkpt lat="42.74373" lon="1.93249">
        <ele>1610</ele>
        <time>2024-10-11T12:07:14Z</time>
      </trkpt>
      <trkpt lat="42.74375" lon="1.93248">
        <ele>1610</ele>
        <time>2024-10-11T12:07:15Z</time>
      </trkpt>
      <trkpt lat="42.74377" lon="1.93247">
        <ele>1610</ele>
        <time>2024-10-11T12:07:16Z</time>
      </trkpt>
      <trkpt lat="42.74379" lon="1.93245">
        <ele>1610</ele>
        <time>2024-10-11T12:07:17Z</time>
      </trkpt>
      <trkpt lat="42.74381" lon="1.93243">
        <ele>1610.6</ele>
        <time>2024-10-11T12:07:18Z</time>
      </trkpt>
      <trkpt lat="42.74382" lon="1.93242">
        <ele>1610.6</ele>
        <time>2024-10-11T12:07:19Z</time>
      </trkpt>
      <trkpt lat="42.74384" lon="1.93241">
        <ele>1610.6</ele>
        <time>2024-10-11T12:07:20Z</time>
      </trkpt>
      <trkpt lat="42.74386" lon="1.93239">
        <ele>1610.6</ele>
        <time>2024-10-11T12:07:21Z</time>
      </trkpt>
      <trkpt lat="42.74387" lon="1.93238">
        <ele>1610.6</ele>
        <time>2024-10-11T12:07:22Z</time>
      </trkpt>
      <trkpt lat="42.74389" lon="1.93237">
        <ele>1611.6</ele>
        <time>2024-10-11T12:07:23Z</time>
      </trkpt>
      <trkpt lat="42.74392" lon="1.93235">
        <ele>1611.6</ele>
        <time>2024-10-11T12:07:24Z</time>
      </trkpt>
      <trkpt lat="42.74395" lon="1.93233">
        <ele>1611.6</ele>
        <time>2024-10-11T12:07:25Z</time>
      </trkpt>
      <trkpt lat="42.74396" lon="1.93232">
        <ele>1612.4</ele>
        <time>2024-10-11T12:07:26Z</time>
      </trkpt>
      <trkpt lat="42.74398" lon="1.93231">
        <ele>1612.4</ele>
        <time>2024-10-11T12:07:27Z</time>
      </trkpt>
      <trkpt lat="42.74399" lon="1.93229">
        <ele>1612.8</ele>
        <time>2024-10-11T12:07:28Z</time>
      </trkpt>
      <trkpt lat="42.74401" lon="1.93227">
        <ele>1612.8</ele>
        <time>2024-10-11T12:07:29Z</time>
      </trkpt>
      <trkpt lat="42.74403" lon="1.93225">
        <ele>1612.8</ele>
        <time>2024-10-11T12:07:30Z</time>
      </trkpt>
      <trkpt lat="42.74406" lon="1.93223">
        <ele>1612.8</ele>
        <time>2024-10-11T12:07:31Z</time>
      </trkpt>
      <trkpt lat="42.74407" lon="1.93222">
        <ele>1612.8</ele>
        <time>2024-10-11T12:07:32Z</time>
      </trkpt>
      <trkpt lat="42.7441" lon="1.9322">
        <ele>1612.8</ele>
        <time>2024-10-11T12:07:33Z</time>
      </trkpt>
      <trkpt lat="42.74411" lon="1.93219">
        <ele>1612.8</ele>
        <time>2024-10-11T12:07:34Z</time>
      </trkpt>
      <trkpt lat="42.74413" lon="1.93217">
        <ele>1612.8</ele>
        <time>2024-10-11T12:07:35Z</time>
      </trkpt>
      <trkpt lat="42.74414" lon="1.93217">
        <ele>1612.8</ele>
        <time>2024-10-11T12:07:36Z</time>
      </trkpt>
      <trkpt lat="42.74417" lon="1.93215">
        <ele>1613.2</ele>
        <time>2024-10-11T12:07:37Z</time>
      </trkpt>
      <trkpt lat="42.74418" lon="1.93215">
        <ele>1613.2</ele>
        <time>2024-10-11T12:07:38Z</time>
      </trkpt>
      <trkpt lat="42.74421" lon="1.93213">
        <ele>1613.2</ele>
        <time>2024-10-11T12:07:39Z</time>
      </trkpt>
      <trkpt lat="42.74421" lon="1.93213">
        <ele>1613.8</ele>
        <time>2024-10-11T12:07:40Z</time>
      </trkpt>
      <trkpt lat="42.74424" lon="1.93212">
        <ele>1613.8</ele>
        <time>2024-10-11T12:07:41Z</time>
      </trkpt>
      <trkpt lat="42.74425" lon="1.93211">
        <ele>1613.6</ele>
        <time>2024-10-11T12:07:42Z</time>
      </trkpt>
      <trkpt lat="42.74428" lon="1.9321">
        <ele>1613.6</ele>
        <time>2024-10-11T12:07:43Z</time>
      </trkpt>
      <trkpt lat="42.74429" lon="1.9321">
        <ele>1613.6</ele>
        <time>2024-10-11T12:07:44Z</time>
      </trkpt>
      <trkpt lat="42.74432" lon="1.93209">
        <ele>1614</ele>
        <time>2024-10-11T12:07:45Z</time>
      </trkpt>
      <trkpt lat="42.74433" lon="1.93209">
        <ele>1614.2</ele>
        <time>2024-10-11T12:07:46Z</time>
      </trkpt>
      <trkpt lat="42.74436" lon="1.93209">
        <ele>1614.2</ele>
        <time>2024-10-11T12:07:47Z</time>
      </trkpt>
      <trkpt lat="42.74437" lon="1.93209">
        <ele>1614.2</ele>
        <time>2024-10-11T12:07:48Z</time>
      </trkpt>
      <trkpt lat="42.74439" lon="1.93208">
        <ele>1614.6</ele>
        <time>2024-10-11T12:07:49Z</time>
      </trkpt>
      <trkpt lat="42.74441" lon="1.93208">
        <ele>1614.8</ele>
        <time>2024-10-11T12:07:50Z</time>
      </trkpt>
      <trkpt lat="42.74444" lon="1.93208">
        <ele>1614.8</ele>
        <time>2024-10-11T12:07:51Z</time>
      </trkpt>
      <trkpt lat="42.74446" lon="1.93208">
        <ele>1614.8</ele>
        <time>2024-10-11T12:07:52Z</time>
      </trkpt>
      <trkpt lat="42.74448" lon="1.93208">
        <ele>1615.2</ele>
        <time>2024-10-11T12:07:53Z</time>
      </trkpt>
      <trkpt lat="42.74451" lon="1.93207">
        <ele>1615.2</ele>
        <time>2024-10-11T12:07:54Z</time>
      </trkpt>
      <trkpt lat="42.74452" lon="1.93207">
        <ele>1615.2</ele>
        <time>2024-10-11T12:07:55Z</time>
      </trkpt>
      <trkpt lat="42.74455" lon="1.93207">
        <ele>1615.2</ele>
        <time>2024-10-11T12:07:56Z</time>
      </trkpt>
      <trkpt lat="42.74458" lon="1.93207">
        <ele>1615.2</ele>
        <time>2024-10-11T12:07:57Z</time>
      </trkpt>
      <trkpt lat="42.74459" lon="1.93207">
        <ele>1615.6</ele>
        <time>2024-10-11T12:07:58Z</time>
      </trkpt>
      <trkpt lat="42.74461" lon="1.93208">
        <ele>1615.8</ele>
        <time>2024-10-11T12:07:59Z</time>
      </trkpt>
      <trkpt lat="42.74464" lon="1.93208">
        <ele>1615.8</ele>
        <time>2024-10-11T12:08:00Z</time>
      </trkpt>
      <trkpt lat="42.74466" lon="1.93209">
        <ele>1615.8</ele>
        <time>2024-10-11T12:08:01Z</time>
      </trkpt>
      <trkpt lat="42.74467" lon="1.93211">
        <ele>1616.2</ele>
        <time>2024-10-11T12:08:02Z</time>
      </trkpt>
      <trkpt lat="42.74469" lon="1.93212">
        <ele>1616.4</ele>
        <time>2024-10-11T12:08:03Z</time>
      </trkpt>
      <trkpt lat="42.74471" lon="1.93214">
        <ele>1616.4</ele>
        <time>2024-10-11T12:08:04Z</time>
      </trkpt>
      <trkpt lat="42.74472" lon="1.93217">
        <ele>1616.4</ele>
        <time>2024-10-11T12:08:05Z</time>
      </trkpt>
      <trkpt lat="42.74474" lon="1.9322">
        <ele>1617</ele>
        <time>2024-10-11T12:08:06Z</time>
      </trkpt>
      <trkpt lat="42.74475" lon="1.93221">
        <ele>1617</ele>
        <time>2024-10-11T12:08:07Z</time>
      </trkpt>
      <trkpt lat="42.74476" lon="1.93225">
        <ele>1617</ele>
        <time>2024-10-11T12:08:08Z</time>
      </trkpt>
      <trkpt lat="42.74476" lon="1.93227">
        <ele>1617</ele>
        <time>2024-10-11T12:08:09Z</time>
      </trkpt>
      <trkpt lat="42.74477" lon="1.9323">
        <ele>1617</ele>
        <time>2024-10-11T12:08:10Z</time>
      </trkpt>
      <trkpt lat="42.74478" lon="1.93233">
        <ele>1617</ele>
        <time>2024-10-11T12:08:11Z</time>
      </trkpt>
      <trkpt lat="42.74478" lon="1.93236">
        <ele>1617</ele>
        <time>2024-10-11T12:08:12Z</time>
      </trkpt>
      <trkpt lat="42.74479" lon="1.93239">
        <ele>1617.2</ele>
        <time>2024-10-11T12:08:13Z</time>
      </trkpt>
      <trkpt lat="42.74479" lon="1.93242">
        <ele>1617.2</ele>
        <time>2024-10-11T12:08:14Z</time>
      </trkpt>
      <trkpt lat="42.74479" lon="1.93245">
        <ele>1617.6</ele>
        <time>2024-10-11T12:08:15Z</time>
      </trkpt>
      <trkpt lat="42.7448" lon="1.9325">
        <ele>1617.6</ele>
        <time>2024-10-11T12:08:16Z</time>
      </trkpt>
      <trkpt lat="42.7448" lon="1.93251">
        <ele>1617.6</ele>
        <time>2024-10-11T12:08:17Z</time>
      </trkpt>
      <trkpt lat="42.74481" lon="1.93256">
        <ele>1617.4</ele>
        <time>2024-10-11T12:08:18Z</time>
      </trkpt>
      <trkpt lat="42.74481" lon="1.93257">
        <ele>1617.4</ele>
        <time>2024-10-11T12:08:19Z</time>
      </trkpt>
      <trkpt lat="42.74482" lon="1.93262">
        <ele>1617.4</ele>
        <time>2024-10-11T12:08:20Z</time>
      </trkpt>
      <trkpt lat="42.74482" lon="1.93263">
        <ele>1617.6</ele>
        <time>2024-10-11T12:08:21Z</time>
      </trkpt>
      <trkpt lat="42.74483" lon="1.93268">
        <ele>1618</ele>
        <time>2024-10-11T12:08:22Z</time>
      </trkpt>
      <trkpt lat="42.74484" lon="1.9327">
        <ele>1618</ele>
        <time>2024-10-11T12:08:23Z</time>
      </trkpt>
      <trkpt lat="42.74485" lon="1.93275">
        <ele>1618</ele>
        <time>2024-10-11T12:08:24Z</time>
      </trkpt>
      <trkpt lat="42.74485" lon="1.93276">
        <ele>1618</ele>
        <time>2024-10-11T12:08:25Z</time>
      </trkpt>
      <trkpt lat="42.74486" lon="1.9328">
        <ele>1618.6</ele>
        <time>2024-10-11T12:08:26Z</time>
      </trkpt>
      <trkpt lat="42.74487" lon="1.93282">
        <ele>1618.6</ele>
        <time>2024-10-11T12:08:27Z</time>
      </trkpt>
      <trkpt lat="42.74488" lon="1.93286">
        <ele>1618.6</ele>
        <time>2024-10-11T12:08:28Z</time>
      </trkpt>
      <trkpt lat="42.74489" lon="1.93288">
        <ele>1618.6</ele>
        <time>2024-10-11T12:08:29Z</time>
      </trkpt>
      <trkpt lat="42.7449" lon="1.93291">
        <ele>1618.6</ele>
        <time>2024-10-11T12:08:30Z</time>
      </trkpt>
      <trkpt lat="42.74491" lon="1.93292">
        <ele>1619.4</ele>
        <time>2024-10-11T12:08:31Z</time>
      </trkpt>
      <trkpt lat="42.74493" lon="1.93294">
        <ele>1619.4</ele>
        <time>2024-10-11T12:08:32Z</time>
      </trkpt>
      <trkpt lat="42.74494" lon="1.93296">
        <ele>1619.4</ele>
        <time>2024-10-11T12:08:33Z</time>
      </trkpt>
      <trkpt lat="42.74496" lon="1.93299">
        <ele>1619.6</ele>
        <time>2024-10-11T12:08:34Z</time>
      </trkpt>
      <trkpt lat="42.74497" lon="1.933">
        <ele>1619.6</ele>
        <time>2024-10-11T12:08:35Z</time>
      </trkpt>
      <trkpt lat="42.74499" lon="1.93302">
        <ele>1619.6</ele>
        <time>2024-10-11T12:08:36Z</time>
      </trkpt>
      <trkpt lat="42.745" lon="1.93304">
        <ele>1619.6</ele>
        <time>2024-10-11T12:08:37Z</time>
      </trkpt>
      <trkpt lat="42.74502" lon="1.93306">
        <ele>1620.4</ele>
        <time>2024-10-11T12:08:38Z</time>
      </trkpt>
      <trkpt lat="42.74504" lon="1.93309">
        <ele>1620.8</ele>
        <time>2024-10-11T12:08:39Z</time>
      </trkpt>
      <trkpt lat="42.74505" lon="1.9331">
        <ele>1620.8</ele>
        <time>2024-10-11T12:08:40Z</time>
      </trkpt>
      <trkpt lat="42.74506" lon="1.93312">
        <ele>1620.8</ele>
        <time>2024-10-11T12:08:41Z</time>
      </trkpt>
      <trkpt lat="42.74508" lon="1.93314">
        <ele>1620.8</ele>
        <time>2024-10-11T12:08:42Z</time>
      </trkpt>
      <trkpt lat="42.74509" lon="1.93317">
        <ele>1620.8</ele>
        <time>2024-10-11T12:08:43Z</time>
      </trkpt>
      <trkpt lat="42.74511" lon="1.9332">
        <ele>1621.4</ele>
        <time>2024-10-11T12:08:44Z</time>
      </trkpt>
      <trkpt lat="42.74512" lon="1.93322">
        <ele>1621.4</ele>
        <time>2024-10-11T12:08:45Z</time>
      </trkpt>
      <trkpt lat="42.74513" lon="1.93325">
        <ele>1621.4</ele>
        <time>2024-10-11T12:08:46Z</time>
      </trkpt>
      <trkpt lat="42.74514" lon="1.93327">
        <ele>1622.2</ele>
        <time>2024-10-11T12:08:47Z</time>
      </trkpt>
      <trkpt lat="42.74515" lon="1.9333">
        <ele>1622.2</ele>
        <time>2024-10-11T12:08:48Z</time>
      </trkpt>
      <trkpt lat="42.74516" lon="1.93333">
        <ele>1622.2</ele>
        <time>2024-10-11T12:08:49Z</time>
      </trkpt>
      <trkpt lat="42.74517" lon="1.93336">
        <ele>1622.2</ele>
        <time>2024-10-11T12:08:50Z</time>
      </trkpt>
      <trkpt lat="42.74517" lon="1.93338">
        <ele>1622.6</ele>
        <time>2024-10-11T12:08:51Z</time>
      </trkpt>
      <trkpt lat="42.74518" lon="1.93343">
        <ele>1622.8</ele>
        <time>2024-10-11T12:08:52Z</time>
      </trkpt>
      <trkpt lat="42.74519" lon="1.93344">
        <ele>1622.8</ele>
        <time>2024-10-11T12:08:53Z</time>
      </trkpt>
      <trkpt lat="42.74519" lon="1.93347">
        <ele>1622.8</ele>
        <time>2024-10-11T12:08:54Z</time>
      </trkpt>
      <trkpt lat="42.74519" lon="1.9335">
        <ele>1622.8</ele>
        <time>2024-10-11T12:08:55Z</time>
      </trkpt>
      <trkpt lat="42.74519" lon="1.93352">
        <ele>1622.8</ele>
        <time>2024-10-11T12:08:56Z</time>
      </trkpt>
      <trkpt lat="42.7452" lon="1.93355">
        <ele>1623</ele>
        <time>2024-10-11T12:08:57Z</time>
      </trkpt>
      <trkpt lat="42.7452" lon="1.9336">
        <ele>1623</ele>
        <time>2024-10-11T12:08:58Z</time>
      </trkpt>
      <trkpt lat="42.7452" lon="1.93361">
        <ele>1623</ele>
        <time>2024-10-11T12:08:59Z</time>
      </trkpt>
      <trkpt lat="42.7452" lon="1.93365">
        <ele>1623</ele>
        <time>2024-10-11T12:09:00Z</time>
      </trkpt>
      <trkpt lat="42.7452" lon="1.93367">
        <ele>1623.6</ele>
        <time>2024-10-11T12:09:01Z</time>
      </trkpt>
      <trkpt lat="42.7452" lon="1.93371">
        <ele>1624.2</ele>
        <time>2024-10-11T12:09:02Z</time>
      </trkpt>
      <trkpt lat="42.7452" lon="1.93373">
        <ele>1624.2</ele>
        <time>2024-10-11T12:09:03Z</time>
      </trkpt>
      <trkpt lat="42.74519" lon="1.93377">
        <ele>1624.2</ele>
        <time>2024-10-11T12:09:04Z</time>
      </trkpt>
      <trkpt lat="42.74519" lon="1.93378">
        <ele>1624.2</ele>
        <time>2024-10-11T12:09:05Z</time>
      </trkpt>
      <trkpt lat="42.74519" lon="1.93383">
        <ele>1624.4</ele>
        <time>2024-10-11T12:09:06Z</time>
      </trkpt>
      <trkpt lat="42.74519" lon="1.93384">
        <ele>1624.4</ele>
        <time>2024-10-11T12:09:07Z</time>
      </trkpt>
      <trkpt lat="42.74518" lon="1.93388">
        <ele>1624.4</ele>
        <time>2024-10-11T12:09:08Z</time>
      </trkpt>
      <trkpt lat="42.74518" lon="1.9339">
        <ele>1624.4</ele>
        <time>2024-10-11T12:09:09Z</time>
      </trkpt>
      <trkpt lat="42.74518" lon="1.93394">
        <ele>1624.8</ele>
        <time>2024-10-11T12:09:10Z</time>
      </trkpt>
      <trkpt lat="42.74518" lon="1.93395">
        <ele>1624.8</ele>
        <time>2024-10-11T12:09:11Z</time>
      </trkpt>
      <trkpt lat="42.74517" lon="1.93399">
        <ele>1624.8</ele>
        <time>2024-10-11T12:09:12Z</time>
      </trkpt>
      <trkpt lat="42.74517" lon="1.93401">
        <ele>1624.8</ele>
        <time>2024-10-11T12:09:13Z</time>
      </trkpt>
      <trkpt lat="42.74517" lon="1.93404">
        <ele>1625.4</ele>
        <time>2024-10-11T12:09:14Z</time>
      </trkpt>
      <trkpt lat="42.74516" lon="1.93406">
        <ele>1625.4</ele>
        <time>2024-10-11T12:09:15Z</time>
      </trkpt>
      <trkpt lat="42.74516" lon="1.93409">
        <ele>1625.4</ele>
        <time>2024-10-11T12:09:16Z</time>
      </trkpt>
      <trkpt lat="42.74515" lon="1.93412">
        <ele>1625.4</ele>
        <time>2024-10-11T12:09:17Z</time>
      </trkpt>
      <trkpt lat="42.74514" lon="1.93416">
        <ele>1625.4</ele>
        <time>2024-10-11T12:09:18Z</time>
      </trkpt>
      <trkpt lat="42.74514" lon="1.93418">
        <ele>1626</ele>
        <time>2024-10-11T12:09:19Z</time>
      </trkpt>
      <trkpt lat="42.74513" lon="1.9342">
        <ele>1626</ele>
        <time>2024-10-11T12:09:20Z</time>
      </trkpt>
      <trkpt lat="42.74512" lon="1.93425">
        <ele>1626</ele>
        <time>2024-10-11T12:09:21Z</time>
      </trkpt>
      <trkpt lat="42.74512" lon="1.93426">
        <ele>1626</ele>
        <time>2024-10-11T12:09:22Z</time>
      </trkpt>
      <trkpt lat="42.74511" lon="1.93429">
        <ele>1627</ele>
        <time>2024-10-11T12:09:23Z</time>
      </trkpt>
      <trkpt lat="42.7451" lon="1.93431">
        <ele>1627</ele>
        <time>2024-10-11T12:09:24Z</time>
      </trkpt>
      <trkpt lat="42.74509" lon="1.93434">
        <ele>1627.2</ele>
        <time>2024-10-11T12:09:25Z</time>
      </trkpt>
      <trkpt lat="42.74508" lon="1.93437">
        <ele>1627.2</ele>
        <time>2024-10-11T12:09:26Z</time>
      </trkpt>
      <trkpt lat="42.74508" lon="1.93439">
        <ele>1627.2</ele>
        <time>2024-10-11T12:09:27Z</time>
      </trkpt>
      <trkpt lat="42.74506" lon="1.93442">
        <ele>1627.4</ele>
        <time>2024-10-11T12:09:28Z</time>
      </trkpt>
      <trkpt lat="42.74505" lon="1.93444">
        <ele>1627.4</ele>
        <time>2024-10-11T12:09:29Z</time>
      </trkpt>
      <trkpt lat="42.74504" lon="1.93448">
        <ele>1627.4</ele>
        <time>2024-10-11T12:09:30Z</time>
      </trkpt>
      <trkpt lat="42.74503" lon="1.93449">
        <ele>1627.4</ele>
        <time>2024-10-11T12:09:31Z</time>
      </trkpt>
      <trkpt lat="42.74502" lon="1.93452">
        <ele>1627.6</ele>
        <time>2024-10-11T12:09:32Z</time>
      </trkpt>
      <trkpt lat="42.745" lon="1.93456">
        <ele>1628</ele>
        <time>2024-10-11T12:09:33Z</time>
      </trkpt>
      <trkpt lat="42.745" lon="1.93457">
        <ele>1628</ele>
        <time>2024-10-11T12:09:34Z</time>
      </trkpt>
      <trkpt lat="42.74499" lon="1.9346">
        <ele>1628</ele>
        <time>2024-10-11T12:09:35Z</time>
      </trkpt>
      <trkpt lat="42.74498" lon="1.93463">
        <ele>1628.2</ele>
        <time>2024-10-11T12:09:36Z</time>
      </trkpt>
      <trkpt lat="42.74496" lon="1.93466">
        <ele>1628.2</ele>
        <time>2024-10-11T12:09:37Z</time>
      </trkpt>
      <trkpt lat="42.74495" lon="1.93469">
        <ele>1628.6</ele>
        <time>2024-10-11T12:09:38Z</time>
      </trkpt>
      <trkpt lat="42.74494" lon="1.93472">
        <ele>1628.6</ele>
        <time>2024-10-11T12:09:39Z</time>
      </trkpt>
      <trkpt lat="42.74493" lon="1.93474">
        <ele>1628.6</ele>
        <time>2024-10-11T12:09:40Z</time>
      </trkpt>
      <trkpt lat="42.74492" lon="1.93478">
        <ele>1628.6</ele>
        <time>2024-10-11T12:09:41Z</time>
      </trkpt>
      <trkpt lat="42.74491" lon="1.9348">
        <ele>1628.6</ele>
        <time>2024-10-11T12:09:42Z</time>
      </trkpt>
      <trkpt lat="42.7449" lon="1.93484">
        <ele>1629</ele>
        <time>2024-10-11T12:09:43Z</time>
      </trkpt>
      <trkpt lat="42.74489" lon="1.93485">
        <ele>1629</ele>
        <time>2024-10-11T12:09:44Z</time>
      </trkpt>
      <trkpt lat="42.74488" lon="1.93489">
        <ele>1629</ele>
        <time>2024-10-11T12:09:45Z</time>
      </trkpt>
      <trkpt lat="42.74487" lon="1.9349">
        <ele>1629.2</ele>
        <time>2024-10-11T12:09:46Z</time>
      </trkpt>
      <trkpt lat="42.74486" lon="1.93494">
        <ele>1629.4</ele>
        <time>2024-10-11T12:09:47Z</time>
      </trkpt>
      <trkpt lat="42.74486" lon="1.93496">
        <ele>1629.4</ele>
        <time>2024-10-11T12:09:48Z</time>
      </trkpt>
      <trkpt lat="42.74485" lon="1.93498">
        <ele>1629.4</ele>
        <time>2024-10-11T12:09:49Z</time>
      </trkpt>
      <trkpt lat="42.74484" lon="1.93501">
        <ele>1629.8</ele>
        <time>2024-10-11T12:09:50Z</time>
      </trkpt>
      <trkpt lat="42.74483" lon="1.93505">
        <ele>1629.8</ele>
        <time>2024-10-11T12:09:51Z</time>
      </trkpt>
      <trkpt lat="42.74483" lon="1.93507">
        <ele>1629.8</ele>
        <time>2024-10-11T12:09:52Z</time>
      </trkpt>
      <trkpt lat="42.74482" lon="1.93511">
        <ele>1629.8</ele>
        <time>2024-10-11T12:09:53Z</time>
      </trkpt>
      <trkpt lat="42.74482" lon="1.93513">
        <ele>1630.4</ele>
        <time>2024-10-11T12:09:54Z</time>
      </trkpt>
      <trkpt lat="42.74482" lon="1.93516">
        <ele>1630.4</ele>
        <time>2024-10-11T12:09:55Z</time>
      </trkpt>
      <trkpt lat="42.74482" lon="1.93519">
        <ele>1630.2</ele>
        <time>2024-10-11T12:09:56Z</time>
      </trkpt>
      <trkpt lat="42.74481" lon="1.93522">
        <ele>1630.2</ele>
        <time>2024-10-11T12:09:57Z</time>
      </trkpt>
      <trkpt lat="42.74481" lon="1.93525">
        <ele>1630.2</ele>
        <time>2024-10-11T12:09:58Z</time>
      </trkpt>
      <trkpt lat="42.74481" lon="1.93528">
        <ele>1631</ele>
        <time>2024-10-11T12:09:59Z</time>
      </trkpt>
      <trkpt lat="42.7448" lon="1.93531">
        <ele>1631</ele>
        <time>2024-10-11T12:10:00Z</time>
      </trkpt>
      <trkpt lat="42.7448" lon="1.93534">
        <ele>1631</ele>
        <time>2024-10-11T12:10:01Z</time>
      </trkpt>
      <trkpt lat="42.74479" lon="1.93537">
        <ele>1631</ele>
        <time>2024-10-11T12:10:02Z</time>
      </trkpt>
      <trkpt lat="42.74479" lon="1.9354">
        <ele>1631.6</ele>
        <time>2024-10-11T12:10:03Z</time>
      </trkpt>
      <trkpt lat="42.74478" lon="1.93545">
        <ele>1632.2</ele>
        <time>2024-10-11T12:10:04Z</time>
      </trkpt>
      <trkpt lat="42.74478" lon="1.93546">
        <ele>1632.2</ele>
        <time>2024-10-11T12:10:05Z</time>
      </trkpt>
      <trkpt lat="42.74477" lon="1.93549">
        <ele>1632.2</ele>
        <time>2024-10-11T12:10:06Z</time>
      </trkpt>
      <trkpt lat="42.74477" lon="1.93551">
        <ele>1632.2</ele>
        <time>2024-10-11T12:10:07Z</time>
      </trkpt>
      <trkpt lat="42.74477" lon="1.93554">
        <ele>1632.6</ele>
        <time>2024-10-11T12:10:08Z</time>
      </trkpt>
      <trkpt lat="42.74476" lon="1.93557">
        <ele>1632.8</ele>
        <time>2024-10-11T12:10:09Z</time>
      </trkpt>
      <trkpt lat="42.74476" lon="1.9356">
        <ele>1632.8</ele>
        <time>2024-10-11T12:10:10Z</time>
      </trkpt>
      <trkpt lat="42.74475" lon="1.93563">
        <ele>1632.8</ele>
        <time>2024-10-11T12:10:11Z</time>
      </trkpt>
      <trkpt lat="42.74474" lon="1.93566">
        <ele>1633.2</ele>
        <time>2024-10-11T12:10:12Z</time>
      </trkpt>
      <trkpt lat="42.74474" lon="1.93568">
        <ele>1633.4</ele>
        <time>2024-10-11T12:10:13Z</time>
      </trkpt>
      <trkpt lat="42.74473" lon="1.93571">
        <ele>1633.4</ele>
        <time>2024-10-11T12:10:14Z</time>
      </trkpt>
      <trkpt lat="42.74472" lon="1.93575">
        <ele>1633.4</ele>
        <time>2024-10-11T12:10:15Z</time>
      </trkpt>
      <trkpt lat="42.74472" lon="1.93577">
        <ele>1634.2</ele>
        <time>2024-10-11T12:10:16Z</time>
      </trkpt>
      <trkpt lat="42.74472" lon="1.9358">
        <ele>1634.4</ele>
        <time>2024-10-11T12:10:17Z</time>
      </trkpt>
      <trkpt lat="42.74471" lon="1.93583">
        <ele>1634.4</ele>
        <time>2024-10-11T12:10:18Z</time>
      </trkpt>
      <trkpt lat="42.7447" lon="1.93586">
        <ele>1634.4</ele>
        <time>2024-10-11T12:10:19Z</time>
      </trkpt>
      <trkpt lat="42.7447" lon="1.93589">
        <ele>1634.4</ele>
        <time>2024-10-11T12:10:20Z</time>
      </trkpt>
      <trkpt lat="42.74469" lon="1.93592">
        <ele>1634.6</ele>
        <time>2024-10-11T12:10:21Z</time>
      </trkpt>
      <trkpt lat="42.74469" lon="1.93594">
        <ele>1635</ele>
        <time>2024-10-11T12:10:22Z</time>
      </trkpt>
      <trkpt lat="42.74468" lon="1.93598">
        <ele>1635</ele>
        <time>2024-10-11T12:10:23Z</time>
      </trkpt>
      <trkpt lat="42.74468" lon="1.936">
        <ele>1635</ele>
        <time>2024-10-11T12:10:24Z</time>
      </trkpt>
      <trkpt lat="42.74467" lon="1.93603">
        <ele>1635.2</ele>
        <time>2024-10-11T12:10:25Z</time>
      </trkpt>
      <trkpt lat="42.74467" lon="1.93605">
        <ele>1635.2</ele>
        <time>2024-10-11T12:10:26Z</time>
      </trkpt>
      <trkpt lat="42.74467" lon="1.93609">
        <ele>1635.6</ele>
        <time>2024-10-11T12:10:27Z</time>
      </trkpt>
      <trkpt lat="42.74467" lon="1.93611">
        <ele>1635.6</ele>
        <time>2024-10-11T12:10:28Z</time>
      </trkpt>
      <trkpt lat="42.74467" lon="1.93615">
        <ele>1635.6</ele>
        <time>2024-10-11T12:10:29Z</time>
      </trkpt>
      <trkpt lat="42.74467" lon="1.93616">
        <ele>1636.2</ele>
        <time>2024-10-11T12:10:30Z</time>
      </trkpt>
      <trkpt lat="42.74467" lon="1.9362">
        <ele>1636.2</ele>
        <time>2024-10-11T12:10:31Z</time>
      </trkpt>
      <trkpt lat="42.74467" lon="1.93622">
        <ele>1636.4</ele>
        <time>2024-10-11T12:10:32Z</time>
      </trkpt>
      <trkpt lat="42.74467" lon="1.93626">
        <ele>1636.4</ele>
        <time>2024-10-11T12:10:33Z</time>
      </trkpt>
      <trkpt lat="42.74468" lon="1.93627">
        <ele>1636.4</ele>
        <time>2024-10-11T12:10:34Z</time>
      </trkpt>
      <trkpt lat="42.74468" lon="1.93631">
        <ele>1636.8</ele>
        <time>2024-10-11T12:10:35Z</time>
      </trkpt>
      <trkpt lat="42.74468" lon="1.93632">
        <ele>1637.2</ele>
        <time>2024-10-11T12:10:36Z</time>
      </trkpt>
      <trkpt lat="42.74468" lon="1.93635">
        <ele>1637.2</ele>
        <time>2024-10-11T12:10:37Z</time>
      </trkpt>
      <trkpt lat="42.74469" lon="1.93638">
        <ele>1637.2</ele>
        <time>2024-10-11T12:10:38Z</time>
      </trkpt>
      <trkpt lat="42.74469" lon="1.93641">
        <ele>1637.6</ele>
        <time>2024-10-11T12:10:39Z</time>
      </trkpt>
      <trkpt lat="42.7447" lon="1.93644">
        <ele>1637.6</ele>
        <time>2024-10-11T12:10:40Z</time>
      </trkpt>
      <trkpt lat="42.74471" lon="1.93647">
        <ele>1637.6</ele>
        <time>2024-10-11T12:10:41Z</time>
      </trkpt>
      <trkpt lat="42.74471" lon="1.9365">
        <ele>1637.6</ele>
        <time>2024-10-11T12:10:42Z</time>
      </trkpt>
      <trkpt lat="42.74472" lon="1.93653">
        <ele>1638.6</ele>
        <time>2024-10-11T12:10:43Z</time>
      </trkpt>
      <trkpt lat="42.74474" lon="1.93657">
        <ele>1638.6</ele>
        <time>2024-10-11T12:10:44Z</time>
      </trkpt>
      <trkpt lat="42.74474" lon="1.93658">
        <ele>1638.8</ele>
        <time>2024-10-11T12:10:45Z</time>
      </trkpt>
      <trkpt lat="42.74476" lon="1.93663">
        <ele>1638.8</ele>
        <time>2024-10-11T12:10:46Z</time>
      </trkpt>
      <trkpt lat="42.74477" lon="1.93664">
        <ele>1638.8</ele>
        <time>2024-10-11T12:10:47Z</time>
      </trkpt>
      <trkpt lat="42.74478" lon="1.93667">
        <ele>1638.8</ele>
        <time>2024-10-11T12:10:48Z</time>
      </trkpt>
      <trkpt lat="42.74479" lon="1.93669">
        <ele>1638.8</ele>
        <time>2024-10-11T12:10:49Z</time>
      </trkpt>
      <trkpt lat="42.74481" lon="1.93671">
        <ele>1638.8</ele>
        <time>2024-10-11T12:10:50Z</time>
      </trkpt>
      <trkpt lat="42.74482" lon="1.93674">
        <ele>1638.8</ele>
        <time>2024-10-11T12:10:51Z</time>
      </trkpt>
      <trkpt lat="42.74484" lon="1.93676">
        <ele>1639.8</ele>
        <time>2024-10-11T12:10:52Z</time>
      </trkpt>
      <trkpt lat="42.74485" lon="1.93679">
        <ele>1639.6</ele>
        <time>2024-10-11T12:10:53Z</time>
      </trkpt>
      <trkpt lat="42.74487" lon="1.93681">
        <ele>1639.6</ele>
        <time>2024-10-11T12:10:54Z</time>
      </trkpt>
      <trkpt lat="42.74489" lon="1.93683">
        <ele>1639.6</ele>
        <time>2024-10-11T12:10:55Z</time>
      </trkpt>
      <trkpt lat="42.7449" lon="1.93685">
        <ele>1639.6</ele>
        <time>2024-10-11T12:10:56Z</time>
      </trkpt>
      <trkpt lat="42.74494" lon="1.93688">
        <ele>1640.2</ele>
        <time>2024-10-11T12:10:57Z</time>
      </trkpt>
      <trkpt lat="42.74495" lon="1.93689">
        <ele>1640.2</ele>
        <time>2024-10-11T12:10:58Z</time>
      </trkpt>
      <trkpt lat="42.74497" lon="1.9369">
        <ele>1640.2</ele>
        <time>2024-10-11T12:10:59Z</time>
      </trkpt>
      <trkpt lat="42.74499" lon="1.93691">
        <ele>1640.2</ele>
        <time>2024-10-11T12:11:00Z</time>
      </trkpt>
      <trkpt lat="42.74501" lon="1.93693">
        <ele>1640.2</ele>
        <time>2024-10-11T12:11:01Z</time>
      </trkpt>
      <trkpt lat="42.74504" lon="1.93694">
        <ele>1640.4</ele>
        <time>2024-10-11T12:11:02Z</time>
      </trkpt>
      <trkpt lat="42.74506" lon="1.93695">
        <ele>1640.4</ele>
        <time>2024-10-11T12:11:03Z</time>
      </trkpt>
      <trkpt lat="42.74509" lon="1.93696">
        <ele>1640.4</ele>
        <time>2024-10-11T12:11:04Z</time>
      </trkpt>
      <trkpt lat="42.74511" lon="1.93697">
        <ele>1640.4</ele>
        <time>2024-10-11T12:11:05Z</time>
      </trkpt>
      <trkpt lat="42.74514" lon="1.93698">
        <ele>1640.4</ele>
        <time>2024-10-11T12:11:06Z</time>
      </trkpt>
      <trkpt lat="42.74515" lon="1.93699">
        <ele>1640.4</ele>
        <time>2024-10-11T12:11:07Z</time>
      </trkpt>
      <trkpt lat="42.74519" lon="1.937">
        <ele>1641.2</ele>
        <time>2024-10-11T12:11:08Z</time>
      </trkpt>
      <trkpt lat="42.7452" lon="1.93701">
        <ele>1641.2</ele>
        <time>2024-10-11T12:11:09Z</time>
      </trkpt>
      <trkpt lat="42.74524" lon="1.93702">
        <ele>1641.2</ele>
        <time>2024-10-11T12:11:10Z</time>
      </trkpt>
      <trkpt lat="42.74525" lon="1.93703">
        <ele>1641.2</ele>
        <time>2024-10-11T12:11:11Z</time>
      </trkpt>
      <trkpt lat="42.74528" lon="1.93705">
        <ele>1641</ele>
        <time>2024-10-11T12:11:12Z</time>
      </trkpt>
      <trkpt lat="42.74529" lon="1.93705">
        <ele>1641</ele>
        <time>2024-10-11T12:11:13Z</time>
      </trkpt>
      <trkpt lat="42.74533" lon="1.93706">
        <ele>1641</ele>
        <time>2024-10-11T12:11:14Z</time>
      </trkpt>
      <trkpt lat="42.74534" lon="1.93706">
        <ele>1641.6</ele>
        <time>2024-10-11T12:11:15Z</time>
      </trkpt>
      <trkpt lat="42.74538" lon="1.93707">
        <ele>1641.8</ele>
        <time>2024-10-11T12:11:16Z</time>
      </trkpt>
      <trkpt lat="42.74539" lon="1.93708">
        <ele>1641.8</ele>
        <time>2024-10-11T12:11:17Z</time>
      </trkpt>
      <trkpt lat="42.74541" lon="1.93708">
        <ele>1641.8</ele>
        <time>2024-10-11T12:11:18Z</time>
      </trkpt>
      <trkpt lat="42.74543" lon="1.93709">
        <ele>1641.8</ele>
        <time>2024-10-11T12:11:19Z</time>
      </trkpt>
      <trkpt lat="42.74545" lon="1.9371">
        <ele>1641.8</ele>
        <time>2024-10-11T12:11:20Z</time>
      </trkpt>
      <trkpt lat="42.74548" lon="1.9371">
        <ele>1642.2</ele>
        <time>2024-10-11T12:11:21Z</time>
      </trkpt>
      <trkpt lat="42.7455" lon="1.9371">
        <ele>1642.2</ele>
        <time>2024-10-11T12:11:22Z</time>
      </trkpt>
      <trkpt lat="42.74552" lon="1.9371">
        <ele>1642.2</ele>
        <time>2024-10-11T12:11:23Z</time>
      </trkpt>
      <trkpt lat="42.74555" lon="1.9371">
        <ele>1642.2</ele>
        <time>2024-10-11T12:11:24Z</time>
      </trkpt>
      <trkpt lat="42.74557" lon="1.9371">
        <ele>1642.4</ele>
        <time>2024-10-11T12:11:25Z</time>
      </trkpt>
      <trkpt lat="42.74559" lon="1.9371">
        <ele>1642.4</ele>
        <time>2024-10-11T12:11:26Z</time>
      </trkpt>
      <trkpt lat="42.74563" lon="1.9371">
        <ele>1642.4</ele>
        <time>2024-10-11T12:11:27Z</time>
      </trkpt>
      <trkpt lat="42.74564" lon="1.9371">
        <ele>1643.2</ele>
        <time>2024-10-11T12:11:28Z</time>
      </trkpt>
      <trkpt lat="42.74567" lon="1.93709">
        <ele>1643.2</ele>
        <time>2024-10-11T12:11:29Z</time>
      </trkpt>
      <trkpt lat="42.74568" lon="1.93709">
        <ele>1643.2</ele>
        <time>2024-10-11T12:11:30Z</time>
      </trkpt>
      <trkpt lat="42.7457" lon="1.93708">
        <ele>1643.2</ele>
        <time>2024-10-11T12:11:31Z</time>
      </trkpt>
      <trkpt lat="42.74572" lon="1.93707">
        <ele>1643.2</ele>
        <time>2024-10-11T12:11:32Z</time>
      </trkpt>
      <trkpt lat="42.74574" lon="1.93706">
        <ele>1643.2</ele>
        <time>2024-10-11T12:11:33Z</time>
      </trkpt>
      <trkpt lat="42.74576" lon="1.93704">
        <ele>1643.6</ele>
        <time>2024-10-11T12:11:34Z</time>
      </trkpt>
      <trkpt lat="42.74577" lon="1.93703">
        <ele>1643.6</ele>
        <time>2024-10-11T12:11:35Z</time>
      </trkpt>
      <trkpt lat="42.74579" lon="1.93701">
        <ele>1643.6</ele>
        <time>2024-10-11T12:11:36Z</time>
      </trkpt>
      <trkpt lat="42.74581" lon="1.93699">
        <ele>1644</ele>
        <time>2024-10-11T12:11:37Z</time>
      </trkpt>
      <trkpt lat="42.74583" lon="1.93696">
        <ele>1644</ele>
        <time>2024-10-11T12:11:38Z</time>
      </trkpt>
      <trkpt lat="42.74584" lon="1.93695">
        <ele>1644</ele>
        <time>2024-10-11T12:11:39Z</time>
      </trkpt>
      <trkpt lat="42.74585" lon="1.93693">
        <ele>1644</ele>
        <time>2024-10-11T12:11:40Z</time>
      </trkpt>
      <trkpt lat="42.74587" lon="1.93691">
        <ele>1644</ele>
        <time>2024-10-11T12:11:41Z</time>
      </trkpt>
      <trkpt lat="42.74588" lon="1.93689">
        <ele>1644</ele>
        <time>2024-10-11T12:11:42Z</time>
      </trkpt>
      <trkpt lat="42.7459" lon="1.93686">
        <ele>1644.6</ele>
        <time>2024-10-11T12:11:43Z</time>
      </trkpt>
      <trkpt lat="42.74591" lon="1.93684">
        <ele>1644.6</ele>
        <time>2024-10-11T12:11:44Z</time>
      </trkpt>
      <trkpt lat="42.74593" lon="1.93682">
        <ele>1644.6</ele>
        <time>2024-10-11T12:11:45Z</time>
      </trkpt>
      <trkpt lat="42.74595" lon="1.9368">
        <ele>1644.6</ele>
        <time>2024-10-11T12:11:46Z</time>
      </trkpt>
      <trkpt lat="42.74597" lon="1.93676">
        <ele>1644.6</ele>
        <time>2024-10-11T12:11:47Z</time>
      </trkpt>
      <trkpt lat="42.74598" lon="1.93675">
        <ele>1645</ele>
        <time>2024-10-11T12:11:48Z</time>
      </trkpt>
      <trkpt lat="42.746" lon="1.93672">
        <ele>1645</ele>
        <time>2024-10-11T12:11:49Z</time>
      </trkpt>
      <trkpt lat="42.74601" lon="1.93671">
        <ele>1645</ele>
        <time>2024-10-11T12:11:50Z</time>
      </trkpt>
      <trkpt lat="42.74604" lon="1.93669">
        <ele>1646</ele>
        <time>2024-10-11T12:11:51Z</time>
      </trkpt>
      <trkpt lat="42.74604" lon="1.93668">
        <ele>1646</ele>
        <time>2024-10-11T12:11:52Z</time>
      </trkpt>
      <trkpt lat="42.74607" lon="1.93667">
        <ele>1646</ele>
        <time>2024-10-11T12:11:53Z</time>
      </trkpt>
      <trkpt lat="42.74608" lon="1.93667">
        <ele>1646</ele>
        <time>2024-10-11T12:11:54Z</time>
      </trkpt>
      <trkpt lat="42.74611" lon="1.93667">
        <ele>1646</ele>
        <time>2024-10-11T12:11:55Z</time>
      </trkpt>
      <trkpt lat="42.74612" lon="1.93667">
        <ele>1646.8</ele>
        <time>2024-10-11T12:11:56Z</time>
      </trkpt>
      <trkpt lat="42.74615" lon="1.93668">
        <ele>1647.2</ele>
        <time>2024-10-11T12:11:57Z</time>
      </trkpt>
      <trkpt lat="42.74616" lon="1.93669">
        <ele>1647.2</ele>
        <time>2024-10-11T12:11:58Z</time>
      </trkpt>
      <trkpt lat="42.74618" lon="1.9367">
        <ele>1647.2</ele>
        <time>2024-10-11T12:11:59Z</time>
      </trkpt>
      <trkpt lat="42.74619" lon="1.9367">
        <ele>1647.6</ele>
        <time>2024-10-11T12:12:00Z</time>
      </trkpt>
      <trkpt lat="42.74621" lon="1.93672">
        <ele>1647.6</ele>
        <time>2024-10-11T12:12:01Z</time>
      </trkpt>
      <trkpt lat="42.74622" lon="1.93673">
        <ele>1647.8</ele>
        <time>2024-10-11T12:12:02Z</time>
      </trkpt>
      <trkpt lat="42.74623" lon="1.93674">
        <ele>1647.8</ele>
        <time>2024-10-11T12:12:03Z</time>
      </trkpt>
      <trkpt lat="42.74625" lon="1.93676">
        <ele>1647.8</ele>
        <time>2024-10-11T12:12:04Z</time>
      </trkpt>
      <trkpt lat="42.74626" lon="1.93677">
        <ele>1648.6</ele>
        <time>2024-10-11T12:12:05Z</time>
      </trkpt>
      <trkpt lat="42.74628" lon="1.93678">
        <ele>1648.8</ele>
        <time>2024-10-11T12:12:06Z</time>
      </trkpt>
      <trkpt lat="42.74629" lon="1.9368">
        <ele>1648.8</ele>
        <time>2024-10-11T12:12:07Z</time>
      </trkpt>
      <trkpt lat="42.7463" lon="1.93682">
        <ele>1648.8</ele>
        <time>2024-10-11T12:12:08Z</time>
      </trkpt>
      <trkpt lat="42.74632" lon="1.93683">
        <ele>1649.4</ele>
        <time>2024-10-11T12:12:09Z</time>
      </trkpt>
      <trkpt lat="42.74633" lon="1.93685">
        <ele>1649.6</ele>
        <time>2024-10-11T12:12:10Z</time>
      </trkpt>
      <trkpt lat="42.74635" lon="1.93686">
        <ele>1649.6</ele>
        <time>2024-10-11T12:12:11Z</time>
      </trkpt>
      <trkpt lat="42.74636" lon="1.93687">
        <ele>1649.6</ele>
        <time>2024-10-11T12:12:12Z</time>
      </trkpt>
      <trkpt lat="42.74637" lon="1.93688">
        <ele>1650</ele>
        <time>2024-10-11T12:12:13Z</time>
      </trkpt>
      <trkpt lat="42.74639" lon="1.9369">
        <ele>1650.2</ele>
        <time>2024-10-11T12:12:14Z</time>
      </trkpt>
      <trkpt lat="42.7464" lon="1.93691">
        <ele>1650.2</ele>
        <time>2024-10-11T12:12:15Z</time>
      </trkpt>
      <trkpt lat="42.74642" lon="1.93693">
        <ele>1650.2</ele>
        <time>2024-10-11T12:12:16Z</time>
      </trkpt>
      <trkpt lat="42.74643" lon="1.93694">
        <ele>1650.2</ele>
        <time>2024-10-11T12:12:17Z</time>
      </trkpt>
      <trkpt lat="42.74644" lon="1.93695">
        <ele>1650.4</ele>
        <time>2024-10-11T12:12:18Z</time>
      </trkpt>
      <trkpt lat="42.74646" lon="1.93696">
        <ele>1650.6</ele>
        <time>2024-10-11T12:12:19Z</time>
      </trkpt>
      <trkpt lat="42.74647" lon="1.93698">
        <ele>1650.6</ele>
        <time>2024-10-11T12:12:20Z</time>
      </trkpt>
      <trkpt lat="42.74649" lon="1.93699">
        <ele>1650.6</ele>
        <time>2024-10-11T12:12:21Z</time>
      </trkpt>
      <trkpt lat="42.7465" lon="1.937">
        <ele>1651.2</ele>
        <time>2024-10-11T12:12:22Z</time>
      </trkpt>
      <trkpt lat="42.74652" lon="1.93701">
        <ele>1651.4</ele>
        <time>2024-10-11T12:12:23Z</time>
      </trkpt>
      <trkpt lat="42.74653" lon="1.93702">
        <ele>1651.4</ele>
        <time>2024-10-11T12:12:24Z</time>
      </trkpt>
      <trkpt lat="42.74655" lon="1.93703">
        <ele>1651.4</ele>
        <time>2024-10-11T12:12:25Z</time>
      </trkpt>
      <trkpt lat="42.74656" lon="1.93704">
        <ele>1651.8</ele>
        <time>2024-10-11T12:12:26Z</time>
      </trkpt>
      <trkpt lat="42.74657" lon="1.93706">
        <ele>1651.8</ele>
        <time>2024-10-11T12:12:27Z</time>
      </trkpt>
      <trkpt lat="42.74659" lon="1.93707">
        <ele>1652.2</ele>
        <time>2024-10-11T12:12:28Z</time>
      </trkpt>
      <trkpt lat="42.7466" lon="1.93708">
        <ele>1652.2</ele>
        <time>2024-10-11T12:12:29Z</time>
      </trkpt>
      <trkpt lat="42.74661" lon="1.9371">
        <ele>1652.2</ele>
        <time>2024-10-11T12:12:30Z</time>
      </trkpt>
      <trkpt lat="42.74663" lon="1.93711">
        <ele>1652.2</ele>
        <time>2024-10-11T12:12:31Z</time>
      </trkpt>
      <trkpt lat="42.74664" lon="1.93712">
        <ele>1652.2</ele>
        <time>2024-10-11T12:12:32Z</time>
      </trkpt>
      <trkpt lat="42.74665" lon="1.93714">
        <ele>1653.2</ele>
        <time>2024-10-11T12:12:33Z</time>
      </trkpt>
      <trkpt lat="42.74667" lon="1.93715">
        <ele>1653.2</ele>
        <time>2024-10-11T12:12:34Z</time>
      </trkpt>
      <trkpt lat="42.74668" lon="1.93716">
        <ele>1653.2</ele>
        <time>2024-10-11T12:12:35Z</time>
      </trkpt>
      <trkpt lat="42.7467" lon="1.93717">
        <ele>1653.4</ele>
        <time>2024-10-11T12:12:36Z</time>
      </trkpt>
      <trkpt lat="42.74671" lon="1.93719">
        <ele>1653.6</ele>
        <time>2024-10-11T12:12:37Z</time>
      </trkpt>
      <trkpt lat="42.74672" lon="1.9372">
        <ele>1653.6</ele>
        <time>2024-10-11T12:12:38Z</time>
      </trkpt>
      <trkpt lat="42.74674" lon="1.93721">
        <ele>1653.6</ele>
        <time>2024-10-11T12:12:39Z</time>
      </trkpt>
      <trkpt lat="42.74675" lon="1.93722">
        <ele>1653.6</ele>
        <time>2024-10-11T12:12:40Z</time>
      </trkpt>
      <trkpt lat="42.74676" lon="1.93724">
        <ele>1654</ele>
        <time>2024-10-11T12:12:41Z</time>
      </trkpt>
      <trkpt lat="42.74678" lon="1.93725">
        <ele>1654.2</ele>
        <time>2024-10-11T12:12:42Z</time>
      </trkpt>
      <trkpt lat="42.74679" lon="1.93726">
        <ele>1654.2</ele>
        <time>2024-10-11T12:12:43Z</time>
      </trkpt>
      <trkpt lat="42.74681" lon="1.93726">
        <ele>1654.2</ele>
        <time>2024-10-11T12:12:44Z</time>
      </trkpt>
      <trkpt lat="42.74682" lon="1.93727">
        <ele>1655.2</ele>
        <time>2024-10-11T12:12:45Z</time>
      </trkpt>
      <trkpt lat="42.74684" lon="1.93728">
        <ele>1655.2</ele>
        <time>2024-10-11T12:12:46Z</time>
      </trkpt>
      <trkpt lat="42.74685" lon="1.93729">
        <ele>1655.2</ele>
        <time>2024-10-11T12:12:47Z</time>
      </trkpt>
      <trkpt lat="42.74687" lon="1.9373">
        <ele>1655.2</ele>
        <time>2024-10-11T12:12:48Z</time>
      </trkpt>
      <trkpt lat="42.74688" lon="1.93732">
        <ele>1655.2</ele>
        <time>2024-10-11T12:12:49Z</time>
      </trkpt>
      <trkpt lat="42.74689" lon="1.93733">
        <ele>1655.4</ele>
        <time>2024-10-11T12:12:50Z</time>
      </trkpt>
      <trkpt lat="42.74691" lon="1.93734">
        <ele>1655.4</ele>
        <time>2024-10-11T12:12:51Z</time>
      </trkpt>
      <trkpt lat="42.74692" lon="1.93735">
        <ele>1655.4</ele>
        <time>2024-10-11T12:12:52Z</time>
      </trkpt>
      <trkpt lat="42.74693" lon="1.93736">
        <ele>1655.4</ele>
        <time>2024-10-11T12:12:53Z</time>
      </trkpt>
      <trkpt lat="42.74695" lon="1.93738">
        <ele>1656</ele>
        <time>2024-10-11T12:12:54Z</time>
      </trkpt>
      <trkpt lat="42.74696" lon="1.93739">
        <ele>1656.2</ele>
        <time>2024-10-11T12:12:55Z</time>
      </trkpt>
      <trkpt lat="42.74698" lon="1.9374">
        <ele>1656.2</ele>
        <time>2024-10-11T12:12:56Z</time>
      </trkpt>
      <trkpt lat="42.74699" lon="1.93742">
        <ele>1656.2</ele>
        <time>2024-10-11T12:12:57Z</time>
      </trkpt>
      <trkpt lat="42.747" lon="1.93743">
        <ele>1656.8</ele>
        <time>2024-10-11T12:12:58Z</time>
      </trkpt>
      <trkpt lat="42.74702" lon="1.93745">
        <ele>1656.8</ele>
        <time>2024-10-11T12:12:59Z</time>
      </trkpt>
      <trkpt lat="42.74703" lon="1.93746">
        <ele>1656.8</ele>
        <time>2024-10-11T12:13:00Z</time>
      </trkpt>
      <trkpt lat="42.74704" lon="1.93747">
        <ele>1656.8</ele>
        <time>2024-10-11T12:13:01Z</time>
      </trkpt>
      <trkpt lat="42.74706" lon="1.93748">
        <ele>1657.6</ele>
        <time>2024-10-11T12:13:02Z</time>
      </trkpt>
      <trkpt lat="42.74707" lon="1.9375">
        <ele>1657.6</ele>
        <time>2024-10-11T12:13:03Z</time>
      </trkpt>
      <trkpt lat="42.74709" lon="1.93751">
        <ele>1657.6</ele>
        <time>2024-10-11T12:13:04Z</time>
      </trkpt>
      <trkpt lat="42.7471" lon="1.93752">
        <ele>1657.6</ele>
        <time>2024-10-11T12:13:05Z</time>
      </trkpt>
      <trkpt lat="42.74712" lon="1.93753">
        <ele>1657.6</ele>
        <time>2024-10-11T12:13:06Z</time>
      </trkpt>
      <trkpt lat="42.74713" lon="1.93754">
        <ele>1658.2</ele>
        <time>2024-10-11T12:13:07Z</time>
      </trkpt>
      <trkpt lat="42.74715" lon="1.93755">
        <ele>1658.4</ele>
        <time>2024-10-11T12:13:08Z</time>
      </trkpt>
      <trkpt lat="42.74716" lon="1.93756">
        <ele>1658.4</ele>
        <time>2024-10-11T12:13:09Z</time>
      </trkpt>
      <trkpt lat="42.74717" lon="1.93757">
        <ele>1658.4</ele>
        <time>2024-10-11T12:13:10Z</time>
      </trkpt>
      <trkpt lat="42.74719" lon="1.93758">
        <ele>1658.4</ele>
        <time>2024-10-11T12:13:11Z</time>
      </trkpt>
      <trkpt lat="42.7472" lon="1.9376">
        <ele>1658.6</ele>
        <time>2024-10-11T12:13:12Z</time>
      </trkpt>
      <trkpt lat="42.74722" lon="1.93761">
        <ele>1658.6</ele>
        <time>2024-10-11T12:13:13Z</time>
      </trkpt>
      <trkpt lat="42.74723" lon="1.93762">
        <ele>1658.6</ele>
        <time>2024-10-11T12:13:14Z</time>
      </trkpt>
      <trkpt lat="42.74725" lon="1.93763">
        <ele>1658.6</ele>
        <time>2024-10-11T12:13:15Z</time>
      </trkpt>
      <trkpt lat="42.74726" lon="1.93764">
        <ele>1658.6</ele>
        <time>2024-10-11T12:13:16Z</time>
      </trkpt>
      <trkpt lat="42.74728" lon="1.93765">
        <ele>1659.2</ele>
        <time>2024-10-11T12:13:17Z</time>
      </trkpt>
      <trkpt lat="42.74729" lon="1.93766">
        <ele>1659.6</ele>
        <time>2024-10-11T12:13:18Z</time>
      </trkpt>
      <trkpt lat="42.7473" lon="1.93768">
        <ele>1659.6</ele>
        <time>2024-10-11T12:13:19Z</time>
      </trkpt>
      <trkpt lat="42.74732" lon="1.93769">
        <ele>1659.6</ele>
        <time>2024-10-11T12:13:20Z</time>
      </trkpt>
      <trkpt lat="42.74734" lon="1.93772">
        <ele>1660</ele>
        <time>2024-10-11T12:13:21Z</time>
      </trkpt>
      <trkpt lat="42.74734" lon="1.93773">
        <ele>1660</ele>
        <time>2024-10-11T12:13:22Z</time>
      </trkpt>
      <trkpt lat="42.74736" lon="1.93777">
        <ele>1660</ele>
        <time>2024-10-11T12:13:23Z</time>
      </trkpt>
      <trkpt lat="42.74737" lon="1.93779">
        <ele>1660</ele>
        <time>2024-10-11T12:13:24Z</time>
      </trkpt>
      <trkpt lat="42.74737" lon="1.93781">
        <ele>1660.6</ele>
        <time>2024-10-11T12:13:25Z</time>
      </trkpt>
      <trkpt lat="42.74738" lon="1.93783">
        <ele>1660.6</ele>
        <time>2024-10-11T12:13:26Z</time>
      </trkpt>
      <trkpt lat="42.74739" lon="1.93785">
        <ele>1661</ele>
        <time>2024-10-11T12:13:27Z</time>
      </trkpt>
      <trkpt lat="42.74739" lon="1.93787">
        <ele>1661</ele>
        <time>2024-10-11T12:13:28Z</time>
      </trkpt>
      <trkpt lat="42.7474" lon="1.93789">
        <ele>1661</ele>
        <time>2024-10-11T12:13:29Z</time>
      </trkpt>
      <trkpt lat="42.7474" lon="1.93791">
        <ele>1661.2</ele>
        <time>2024-10-11T12:13:30Z</time>
      </trkpt>
      <trkpt lat="42.74741" lon="1.93793">
        <ele>1661.4</ele>
        <time>2024-10-11T12:13:31Z</time>
      </trkpt>
      <trkpt lat="42.74742" lon="1.93795">
        <ele>1661.4</ele>
        <time>2024-10-11T12:13:32Z</time>
      </trkpt>
      <trkpt lat="42.74742" lon="1.93797">
        <ele>1661.4</ele>
        <time>2024-10-11T12:13:33Z</time>
      </trkpt>
      <trkpt lat="42.74743" lon="1.93799">
        <ele>1662</ele>
        <time>2024-10-11T12:13:34Z</time>
      </trkpt>
      <trkpt lat="42.74744" lon="1.93801">
        <ele>1662.2</ele>
        <time>2024-10-11T12:13:35Z</time>
      </trkpt>
      <trkpt lat="42.74744" lon="1.93803">
        <ele>1662.2</ele>
        <time>2024-10-11T12:13:36Z</time>
      </trkpt>
      <trkpt lat="42.74745" lon="1.93805">
        <ele>1662.2</ele>
        <time>2024-10-11T12:13:37Z</time>
      </trkpt>
      <trkpt lat="42.74745" lon="1.93807">
        <ele>1662.2</ele>
        <time>2024-10-11T12:13:38Z</time>
      </trkpt>
      <trkpt lat="42.74746" lon="1.93809">
        <ele>1662.4</ele>
        <time>2024-10-11T12:13:39Z</time>
      </trkpt>
      <trkpt lat="42.74746" lon="1.93812">
        <ele>1662.8</ele>
        <time>2024-10-11T12:13:40Z</time>
      </trkpt>
      <trkpt lat="42.74747" lon="1.93814">
        <ele>1662.8</ele>
        <time>2024-10-11T12:13:41Z</time>
      </trkpt>
      <trkpt lat="42.74747" lon="1.93816">
        <ele>1662.8</ele>
        <time>2024-10-11T12:13:42Z</time>
      </trkpt>
      <trkpt lat="42.74748" lon="1.93818">
        <ele>1663.4</ele>
        <time>2024-10-11T12:13:43Z</time>
      </trkpt>
      <trkpt lat="42.74748" lon="1.9382">
        <ele>1663.4</ele>
        <time>2024-10-11T12:13:44Z</time>
      </trkpt>
      <trkpt lat="42.74748" lon="1.93823">
        <ele>1663.4</ele>
        <time>2024-10-11T12:13:45Z</time>
      </trkpt>
      <trkpt lat="42.74748" lon="1.93825">
        <ele>1663.4</ele>
        <time>2024-10-11T12:13:46Z</time>
      </trkpt>
      <trkpt lat="42.74749" lon="1.93827">
        <ele>1664</ele>
        <time>2024-10-11T12:13:47Z</time>
      </trkpt>
      <trkpt lat="42.74749" lon="1.9383">
        <ele>1664.4</ele>
        <time>2024-10-11T12:13:48Z</time>
      </trkpt>
      <trkpt lat="42.7475" lon="1.93831">
        <ele>1664.4</ele>
        <time>2024-10-11T12:13:49Z</time>
      </trkpt>
      <trkpt lat="42.74751" lon="1.93834">
        <ele>1664.4</ele>
        <time>2024-10-11T12:13:50Z</time>
      </trkpt>
      <trkpt lat="42.74751" lon="1.93835">
        <ele>1664.4</ele>
        <time>2024-10-11T12:13:51Z</time>
      </trkpt>
      <trkpt lat="42.74752" lon="1.93838">
        <ele>1665</ele>
        <time>2024-10-11T12:13:52Z</time>
      </trkpt>
      <trkpt lat="42.74752" lon="1.9384">
        <ele>1665.4</ele>
        <time>2024-10-11T12:13:53Z</time>
      </trkpt>
      <trkpt lat="42.74753" lon="1.93842">
        <ele>1665.4</ele>
        <time>2024-10-11T12:13:54Z</time>
      </trkpt>
      <trkpt lat="42.74754" lon="1.93845">
        <ele>1665.4</ele>
        <time>2024-10-11T12:13:55Z</time>
      </trkpt>
      <trkpt lat="42.74754" lon="1.93847">
        <ele>1665.6</ele>
        <time>2024-10-11T12:13:56Z</time>
      </trkpt>
      <trkpt lat="42.74755" lon="1.93849">
        <ele>1665.6</ele>
        <time>2024-10-11T12:13:57Z</time>
      </trkpt>
      <trkpt lat="42.74756" lon="1.93851">
        <ele>1665.8</ele>
        <time>2024-10-11T12:13:58Z</time>
      </trkpt>
      <trkpt lat="42.74757" lon="1.93854">
        <ele>1665.8</ele>
        <time>2024-10-11T12:13:59Z</time>
      </trkpt>
      <trkpt lat="42.74758" lon="1.93856">
        <ele>1665.8</ele>
        <time>2024-10-11T12:14:00Z</time>
      </trkpt>
      <trkpt lat="42.74758" lon="1.93858">
        <ele>1666.2</ele>
        <time>2024-10-11T12:14:01Z</time>
      </trkpt>
      <trkpt lat="42.74759" lon="1.93859">
        <ele>1666.2</ele>
        <time>2024-10-11T12:14:02Z</time>
      </trkpt>
      <trkpt lat="42.74759" lon="1.93861">
        <ele>1666.4</ele>
        <time>2024-10-11T12:14:03Z</time>
      </trkpt>
      <trkpt lat="42.74759" lon="1.93861">
        <ele>1666.4</ele>
        <time>2024-10-11T12:14:04Z</time>
      </trkpt>
      <trkpt lat="42.74759" lon="1.93861">
        <ele>1666.4</ele>
        <time>2024-10-11T12:14:05Z</time>
      </trkpt>
      <trkpt lat="42.74761" lon="1.93868">
        <ele>1666.4</ele>
        <time>2024-10-11T12:14:55Z</time>
      </trkpt>
      <trkpt lat="42.74762" lon="1.9387">
        <ele>1666.8</ele>
        <time>2024-10-11T12:14:56Z</time>
      </trkpt>
      <trkpt lat="42.74763" lon="1.93873">
        <ele>1666.8</ele>
        <time>2024-10-11T12:14:57Z</time>
      </trkpt>
      <trkpt lat="42.74764" lon="1.93875">
        <ele>1666.8</ele>
        <time>2024-10-11T12:14:58Z</time>
      </trkpt>
      <trkpt lat="42.74764" lon="1.93877">
        <ele>1666.8</ele>
        <time>2024-10-11T12:14:59Z</time>
      </trkpt>
      <trkpt lat="42.74766" lon="1.93881">
        <ele>1666.8</ele>
        <time>2024-10-11T12:15:00Z</time>
      </trkpt>
      <trkpt lat="42.74766" lon="1.93883">
        <ele>1667.2</ele>
        <time>2024-10-11T12:15:01Z</time>
      </trkpt>
      <trkpt lat="42.74767" lon="1.93884">
        <ele>1667.2</ele>
        <time>2024-10-11T12:15:02Z</time>
      </trkpt>
      <trkpt lat="42.74768" lon="1.93886">
        <ele>1667.2</ele>
        <time>2024-10-11T12:15:03Z</time>
      </trkpt>
      <trkpt lat="42.74769" lon="1.93888">
        <ele>1667.4</ele>
        <time>2024-10-11T12:15:04Z</time>
      </trkpt>
      <trkpt lat="42.7477" lon="1.93892">
        <ele>1667.6</ele>
        <time>2024-10-11T12:15:05Z</time>
      </trkpt>
      <trkpt lat="42.7477" lon="1.93894">
        <ele>1667.6</ele>
        <time>2024-10-11T12:15:06Z</time>
      </trkpt>
      <trkpt lat="42.74771" lon="1.93896">
        <ele>1667.6</ele>
        <time>2024-10-11T12:15:07Z</time>
      </trkpt>
      <trkpt lat="42.74771" lon="1.93897">
        <ele>1667.8</ele>
        <time>2024-10-11T12:15:08Z</time>
      </trkpt>
      <trkpt lat="42.74772" lon="1.93899">
        <ele>1668</ele>
        <time>2024-10-11T12:15:09Z</time>
      </trkpt>
      <trkpt lat="42.74772" lon="1.93901">
        <ele>1668</ele>
        <time>2024-10-11T12:15:10Z</time>
      </trkpt>
      <trkpt lat="42.74773" lon="1.93902">
        <ele>1668</ele>
        <time>2024-10-11T12:15:11Z</time>
      </trkpt>
      <trkpt lat="42.74773" lon="1.93904">
        <ele>1668</ele>
        <time>2024-10-11T12:15:12Z</time>
      </trkpt>
      <trkpt lat="42.74774" lon="1.93906">
        <ele>1667.8</ele>
        <time>2024-10-11T12:16:15Z</time>
      </trkpt>
      <trkpt lat="42.74774" lon="1.93907">
        <ele>1667.6</ele>
        <time>2024-10-11T12:16:16Z</time>
      </trkpt>
      <trkpt lat="42.74775" lon="1.93909">
        <ele>1667.6</ele>
        <time>2024-10-11T12:16:17Z</time>
      </trkpt>
      <trkpt lat="42.74775" lon="1.93911">
        <ele>1667.6</ele>
        <time>2024-10-11T12:16:18Z</time>
      </trkpt>
      <trkpt lat="42.74776" lon="1.93912">
        <ele>1667.6</ele>
        <time>2024-10-11T12:16:19Z</time>
      </trkpt>
      <trkpt lat="42.74776" lon="1.93914">
        <ele>1667.2</ele>
        <time>2024-10-11T12:16:20Z</time>
      </trkpt>
      <trkpt lat="42.74776" lon="1.93916">
        <ele>1667.2</ele>
        <time>2024-10-11T12:16:21Z</time>
      </trkpt>
      <trkpt lat="42.74777" lon="1.93917">
        <ele>1667.4</ele>
        <time>2024-10-11T12:16:22Z</time>
      </trkpt>
      <trkpt lat="42.74777" lon="1.93919">
        <ele>1667.4</ele>
        <time>2024-10-11T12:16:23Z</time>
      </trkpt>
      <trkpt lat="42.74778" lon="1.93921">
        <ele>1667.4</ele>
        <time>2024-10-11T12:16:24Z</time>
      </trkpt>
      <trkpt lat="42.74778" lon="1.93922">
        <ele>1667.2</ele>
        <time>2024-10-11T12:16:25Z</time>
      </trkpt>
      <trkpt lat="42.74779" lon="1.93924">
        <ele>1667.6</ele>
        <time>2024-10-11T12:16:26Z</time>
      </trkpt>
      <trkpt lat="42.74779" lon="1.93926">
        <ele>1667.6</ele>
        <time>2024-10-11T12:16:27Z</time>
      </trkpt>
      <trkpt lat="42.7478" lon="1.93927">
        <ele>1667.6</ele>
        <time>2024-10-11T12:16:28Z</time>
      </trkpt>
      <trkpt lat="42.7478" lon="1.93929">
        <ele>1667.8</ele>
        <time>2024-10-11T12:16:39Z</time>
      </trkpt>
      <trkpt lat="42.74781" lon="1.93931">
        <ele>1667.8</ele>
        <time>2024-10-11T12:16:40Z</time>
      </trkpt>
      <trkpt lat="42.74781" lon="1.93932">
        <ele>1667.8</ele>
        <time>2024-10-11T12:16:41Z</time>
      </trkpt>
      <trkpt lat="42.74782" lon="1.93934">
        <ele>1667.8</ele>
        <time>2024-10-11T12:16:42Z</time>
      </trkpt>
      <trkpt lat="42.74782" lon="1.93936">
        <ele>1667.8</ele>
        <time>2024-10-11T12:16:43Z</time>
      </trkpt>
      <trkpt lat="42.74783" lon="1.93937">
        <ele>1667.6</ele>
        <time>2024-10-11T12:16:44Z</time>
      </trkpt>
      <trkpt lat="42.74783" lon="1.93939">
        <ele>1667.6</ele>
        <time>2024-10-11T12:16:45Z</time>
      </trkpt>
      <trkpt lat="42.74783" lon="1.93941">
        <ele>1667.6</ele>
        <time>2024-10-11T12:16:46Z</time>
      </trkpt>
      <trkpt lat="42.74784" lon="1.93942">
        <ele>1667</ele>
        <time>2024-10-11T12:16:47Z</time>
      </trkpt>
      <trkpt lat="42.74784" lon="1.93946">
        <ele>1667</ele>
        <time>2024-10-11T12:16:48Z</time>
      </trkpt>
      <trkpt lat="42.74784" lon="1.93947">
        <ele>1667</ele>
        <time>2024-10-11T12:16:49Z</time>
      </trkpt>
      <trkpt lat="42.74784" lon="1.93952">
        <ele>1667</ele>
        <time>2024-10-11T12:16:50Z</time>
      </trkpt>
      <trkpt lat="42.74784" lon="1.93954">
        <ele>1667</ele>
        <time>2024-10-11T12:16:51Z</time>
      </trkpt>
      <trkpt lat="42.74784" lon="1.93959">
        <ele>1667</ele>
        <time>2024-10-11T12:16:52Z</time>
      </trkpt>
      <trkpt lat="42.74784" lon="1.93961">
        <ele>1666.4</ele>
        <time>2024-10-11T12:16:53Z</time>
      </trkpt>
      <trkpt lat="42.74782" lon="1.93966">
        <ele>1666.4</ele>
        <time>2024-10-11T12:16:54Z</time>
      </trkpt>
      <trkpt lat="42.74781" lon="1.93968">
        <ele>1666.4</ele>
        <time>2024-10-11T12:16:55Z</time>
      </trkpt>
      <trkpt lat="42.74779" lon="1.93972">
        <ele>1666.4</ele>
        <time>2024-10-11T12:16:56Z</time>
      </trkpt>
      <trkpt lat="42.74778" lon="1.93975">
        <ele>1666.4</ele>
        <time>2024-10-11T12:16:57Z</time>
      </trkpt>
      <trkpt lat="42.74777" lon="1.93977">
        <ele>1666.4</ele>
        <time>2024-10-11T12:16:58Z</time>
      </trkpt>
      <trkpt lat="42.74777" lon="1.9398">
        <ele>1666</ele>
        <time>2024-10-11T12:16:59Z</time>
      </trkpt>
      <trkpt lat="42.74777" lon="1.93982">
        <ele>1666</ele>
        <time>2024-10-11T12:17:00Z</time>
      </trkpt>
      <trkpt lat="42.74777" lon="1.93983">
        <ele>1665.4</ele>
        <time>2024-10-11T12:17:01Z</time>
      </trkpt>
      <trkpt lat="42.74777" lon="1.93983">
        <ele>1665.2</ele>
        <time>2024-10-11T12:17:02Z</time>
      </trkpt>
      <trkpt lat="42.74777" lon="1.93984">
        <ele>1665.2</ele>
        <time>2024-10-11T12:17:03Z</time>
      </trkpt>
      <trkpt lat="42.74776" lon="1.93985">
        <ele>1665.2</ele>
        <time>2024-10-11T12:17:04Z</time>
      </trkpt>
      <trkpt lat="42.74776" lon="1.93985">
        <ele>1665.2</ele>
        <time>2024-10-11T12:17:05Z</time>
      </trkpt>
      <trkpt lat="42.74776" lon="1.93986">
        <ele>1665</ele>
        <time>2024-10-11T12:17:40Z</time>
      </trkpt>
      <trkpt lat="42.74776" lon="1.93986">
        <ele>1665</ele>
        <time>2024-10-11T12:17:41Z</time>
      </trkpt>
      <trkpt lat="42.74776" lon="1.93987">
        <ele>1665</ele>
        <time>2024-10-11T12:17:42Z</time>
      </trkpt>
      <trkpt lat="42.74776" lon="1.93987">
        <ele>1665</ele>
        <time>2024-10-11T12:17:43Z</time>
      </trkpt>
      <trkpt lat="42.74775" lon="1.93988">
        <ele>1665</ele>
        <time>2024-10-11T12:17:44Z</time>
      </trkpt>
      <trkpt lat="42.74775" lon="1.93989">
        <ele>1665</ele>
        <time>2024-10-11T12:17:45Z</time>
      </trkpt>
      <trkpt lat="42.74775" lon="1.93989">
        <ele>1665</ele>
        <time>2024-10-11T12:18:00Z</time>
      </trkpt>
      <trkpt lat="42.74775" lon="1.9399">
        <ele>1665</ele>
        <time>2024-10-11T12:18:01Z</time>
      </trkpt>
      <trkpt lat="42.74775" lon="1.9399">
        <ele>1664</ele>
        <time>2024-10-11T12:24:21Z</time>
      </trkpt>
      <trkpt lat="42.74775" lon="1.93991">
        <ele>1664</ele>
        <time>2024-10-11T12:24:22Z</time>
      </trkpt>
      <trkpt lat="42.74774" lon="1.93991">
        <ele>1664</ele>
        <time>2024-10-11T12:24:23Z</time>
      </trkpt>
      <trkpt lat="42.74774" lon="1.93992">
        <ele>1664</ele>
        <time>2024-10-11T12:24:24Z</time>
      </trkpt>
      <trkpt lat="42.74774" lon="1.93992">
        <ele>1664</ele>
        <time>2024-10-11T12:24:25Z</time>
      </trkpt>
      <trkpt lat="42.74774" lon="1.93993">
        <ele>1664</ele>
        <time>2024-10-11T12:24:26Z</time>
      </trkpt>
      <trkpt lat="42.74774" lon="1.93994">
        <ele>1664</ele>
        <time>2024-10-11T12:24:36Z</time>
      </trkpt>
      <trkpt lat="42.74773" lon="1.93994">
        <ele>1663.4</ele>
        <time>2024-10-11T12:24:37Z</time>
      </trkpt>
      <trkpt lat="42.74772" lon="1.94001">
        <ele>1663.4</ele>
        <time>2024-10-11T12:24:38Z</time>
      </trkpt>
      <trkpt lat="42.74772" lon="1.94003">
        <ele>1664.6</ele>
        <time>2024-10-11T12:24:39Z</time>
      </trkpt>
      <trkpt lat="42.74772" lon="1.94011">
        <ele>1664.6</ele>
        <time>2024-10-11T12:24:40Z</time>
      </trkpt>
      <trkpt lat="42.74772" lon="1.94013">
        <ele>1664.6</ele>
        <time>2024-10-11T12:24:41Z</time>
      </trkpt>
      <trkpt lat="42.74773" lon="1.94019">
        <ele>1664.6</ele>
        <time>2024-10-11T12:24:42Z</time>
      </trkpt>
      <trkpt lat="42.74773" lon="1.94024">
        <ele>1663.6</ele>
        <time>2024-10-11T12:24:43Z</time>
      </trkpt>
      <trkpt lat="42.74776" lon="1.94031">
        <ele>1662.2</ele>
        <time>2024-10-11T12:24:44Z</time>
      </trkpt>
      <trkpt lat="42.74778" lon="1.94033">
        <ele>1662.2</ele>
        <time>2024-10-11T12:24:45Z</time>
      </trkpt>
      <trkpt lat="42.74783" lon="1.9404">
        <ele>1662.2</ele>
        <time>2024-10-11T12:24:46Z</time>
      </trkpt>
      <trkpt lat="42.74785" lon="1.94041">
        <ele>1662.2</ele>
        <time>2024-10-11T12:24:47Z</time>
      </trkpt>
      <trkpt lat="42.74788" lon="1.94045">
        <ele>1662.2</ele>
        <time>2024-10-11T12:24:48Z</time>
      </trkpt>
      <trkpt lat="42.74793" lon="1.94049">
        <ele>1662</ele>
        <time>2024-10-11T12:24:49Z</time>
      </trkpt>
      <trkpt lat="42.74799" lon="1.94054">
        <ele>1662</ele>
        <time>2024-10-11T12:24:50Z</time>
      </trkpt>
      <trkpt lat="42.74801" lon="1.94056">
        <ele>1662</ele>
        <time>2024-10-11T12:24:51Z</time>
      </trkpt>
      <trkpt lat="42.74806" lon="1.94061">
        <ele>1661.4</ele>
        <time>2024-10-11T12:24:52Z</time>
      </trkpt>
      <trkpt lat="42.74811" lon="1.94065">
        <ele>1661.4</ele>
        <time>2024-10-11T12:24:53Z</time>
      </trkpt>
      <trkpt lat="42.74816" lon="1.9407">
        <ele>1661.4</ele>
        <time>2024-10-11T12:24:54Z</time>
      </trkpt>
      <trkpt lat="42.74822" lon="1.94078">
        <ele>1661.4</ele>
        <time>2024-10-11T12:24:55Z</time>
      </trkpt>
      <trkpt lat="42.74824" lon="1.94081">
        <ele>1660.4</ele>
        <time>2024-10-11T12:24:56Z</time>
      </trkpt>
      <trkpt lat="42.74829" lon="1.9409">
        <ele>1659.2</ele>
        <time>2024-10-11T12:24:57Z</time>
      </trkpt>
      <trkpt lat="42.74831" lon="1.94093">
        <ele>1659.2</ele>
        <time>2024-10-11T12:24:58Z</time>
      </trkpt>
      <trkpt lat="42.74832" lon="1.94096">
        <ele>1659.2</ele>
        <time>2024-10-11T12:24:59Z</time>
      </trkpt>
      <trkpt lat="42.74833" lon="1.94098">
        <ele>1658.8</ele>
        <time>2024-10-11T12:25:00Z</time>
      </trkpt>
      <trkpt lat="42.74833" lon="1.94098">
        <ele>1658.6</ele>
        <time>2024-10-11T12:25:01Z</time>
      </trkpt>
      <trkpt lat="42.74833" lon="1.94098">
        <ele>1658.6</ele>
        <time>2024-10-11T12:25:02Z</time>
      </trkpt>
      <trkpt lat="42.74835" lon="1.94104">
        <ele>1658.2</ele>
        <time>2024-10-11T12:25:32Z</time>
      </trkpt>
      <trkpt lat="42.74837" lon="1.94107">
        <ele>1658</ele>
        <time>2024-10-11T12:25:33Z</time>
      </trkpt>
      <trkpt lat="42.74838" lon="1.9411">
        <ele>1658</ele>
        <time>2024-10-11T12:25:34Z</time>
      </trkpt>
      <trkpt lat="42.74841" lon="1.94116">
        <ele>1658</ele>
        <time>2024-10-11T12:25:35Z</time>
      </trkpt>
      <trkpt lat="42.74842" lon="1.94118">
        <ele>1658</ele>
        <time>2024-10-11T12:25:36Z</time>
      </trkpt>
      <trkpt lat="42.74844" lon="1.94122">
        <ele>1657.4</ele>
        <time>2024-10-11T12:25:37Z</time>
      </trkpt>
      <trkpt lat="42.74846" lon="1.94127">
        <ele>1657.4</ele>
        <time>2024-10-11T12:25:38Z</time>
      </trkpt>
      <trkpt lat="42.7485" lon="1.94135">
        <ele>1657.4</ele>
        <time>2024-10-11T12:25:39Z</time>
      </trkpt>
      <trkpt lat="42.74852" lon="1.94137">
        <ele>1657.4</ele>
        <time>2024-10-11T12:25:40Z</time>
      </trkpt>
      <trkpt lat="42.74854" lon="1.94143">
        <ele>1657.4</ele>
        <time>2024-10-11T12:25:41Z</time>
      </trkpt>
      <trkpt lat="42.74858" lon="1.94152">
        <ele>1656.6</ele>
        <time>2024-10-11T12:25:42Z</time>
      </trkpt>
      <trkpt lat="42.7486" lon="1.94154">
        <ele>1656.6</ele>
        <time>2024-10-11T12:25:43Z</time>
      </trkpt>
      <trkpt lat="42.74863" lon="1.9416">
        <ele>1656.6</ele>
        <time>2024-10-11T12:25:44Z</time>
      </trkpt>
      <trkpt lat="42.74866" lon="1.94166">
        <ele>1656.6</ele>
        <time>2024-10-11T12:25:45Z</time>
      </trkpt>
      <trkpt lat="42.74866" lon="1.94175">
        <ele>1654.4</ele>
        <time>2024-10-11T12:25:46Z</time>
      </trkpt>
      <trkpt lat="42.74865" lon="1.94178">
        <ele>1654.4</ele>
        <time>2024-10-11T12:25:47Z</time>
      </trkpt>
      <trkpt lat="42.7486" lon="1.94184">
        <ele>1654.4</ele>
        <time>2024-10-11T12:25:48Z</time>
      </trkpt>
      <trkpt lat="42.74858" lon="1.94185">
        <ele>1654.6</ele>
        <time>2024-10-11T12:25:49Z</time>
      </trkpt>
      <trkpt lat="42.74852" lon="1.94188">
        <ele>1654.6</ele>
        <time>2024-10-11T12:25:50Z</time>
      </trkpt>
      <trkpt lat="42.7485" lon="1.94189">
        <ele>1654.6</ele>
        <time>2024-10-11T12:25:51Z</time>
      </trkpt>
      <trkpt lat="42.74843" lon="1.94194">
        <ele>1654.6</ele>
        <time>2024-10-11T12:25:52Z</time>
      </trkpt>
      <trkpt lat="42.74842" lon="1.94196">
        <ele>1654.6</ele>
        <time>2024-10-11T12:25:53Z</time>
      </trkpt>
      <trkpt lat="42.7484" lon="1.94202">
        <ele>1653.8</ele>
        <time>2024-10-11T12:25:54Z</time>
      </trkpt>
      <trkpt lat="42.74838" lon="1.94209">
        <ele>1653.4</ele>
        <time>2024-10-11T12:25:55Z</time>
      </trkpt>
      <trkpt lat="42.74837" lon="1.94216">
        <ele>1653.4</ele>
        <time>2024-10-11T12:25:56Z</time>
      </trkpt>
      <trkpt lat="42.74837" lon="1.94223">
        <ele>1653.4</ele>
        <time>2024-10-11T12:25:57Z</time>
      </trkpt>
      <trkpt lat="42.74837" lon="1.94228">
        <ele>1652.4</ele>
        <time>2024-10-11T12:25:58Z</time>
      </trkpt>
      <trkpt lat="42.74838" lon="1.94238">
        <ele>1652.4</ele>
        <time>2024-10-11T12:25:59Z</time>
      </trkpt>
      <trkpt lat="42.74837" lon="1.94242">
        <ele>1652</ele>
        <time>2024-10-11T12:26:00Z</time>
      </trkpt>
      <trkpt lat="42.74837" lon="1.94249">
        <ele>1652</ele>
        <time>2024-10-11T12:26:01Z</time>
      </trkpt>
      <trkpt lat="42.74838" lon="1.94255">
        <ele>1651</ele>
        <time>2024-10-11T12:26:02Z</time>
      </trkpt>
      <trkpt lat="42.74838" lon="1.94264">
        <ele>1651</ele>
        <time>2024-10-11T12:26:03Z</time>
      </trkpt>
      <trkpt lat="42.74838" lon="1.94267">
        <ele>1651</ele>
        <time>2024-10-11T12:26:04Z</time>
      </trkpt>
      <trkpt lat="42.74836" lon="1.94274">
        <ele>1651</ele>
        <time>2024-10-11T12:26:05Z</time>
      </trkpt>
      <trkpt lat="42.74836" lon="1.94277">
        <ele>1651</ele>
        <time>2024-10-11T12:26:06Z</time>
      </trkpt>
      <trkpt lat="42.74832" lon="1.94283">
        <ele>1651</ele>
        <time>2024-10-11T12:26:07Z</time>
      </trkpt>
      <trkpt lat="42.74832" lon="1.94286">
        <ele>1650</ele>
        <time>2024-10-11T12:26:08Z</time>
      </trkpt>
      <trkpt lat="42.74829" lon="1.94291">
        <ele>1649.6</ele>
        <time>2024-10-11T12:26:09Z</time>
      </trkpt>
      <trkpt lat="42.74828" lon="1.94293">
        <ele>1649.6</ele>
        <time>2024-10-11T12:26:10Z</time>
      </trkpt>
      <trkpt lat="42.74826" lon="1.94299">
        <ele>1649.6</ele>
        <time>2024-10-11T12:26:11Z</time>
      </trkpt>
      <trkpt lat="42.74825" lon="1.94301">
        <ele>1648.8</ele>
        <time>2024-10-11T12:26:12Z</time>
      </trkpt>
      <trkpt lat="42.74824" lon="1.94306">
        <ele>1649</ele>
        <time>2024-10-11T12:26:13Z</time>
      </trkpt>
      <trkpt lat="42.74824" lon="1.94311">
        <ele>1649</ele>
        <time>2024-10-11T12:26:14Z</time>
      </trkpt>
      <trkpt lat="42.74825" lon="1.94316">
        <ele>1649</ele>
        <time>2024-10-11T12:26:15Z</time>
      </trkpt>
      <trkpt lat="42.74825" lon="1.94322">
        <ele>1648</ele>
        <time>2024-10-11T12:26:16Z</time>
      </trkpt>
      <trkpt lat="42.74826" lon="1.94327">
        <ele>1648</ele>
        <time>2024-10-11T12:26:17Z</time>
      </trkpt>
      <trkpt lat="42.74828" lon="1.94333">
        <ele>1647.8</ele>
        <time>2024-10-11T12:26:18Z</time>
      </trkpt>
      <trkpt lat="42.7483" lon="1.94339">
        <ele>1647.8</ele>
        <time>2024-10-11T12:26:19Z</time>
      </trkpt>
      <trkpt lat="42.74832" lon="1.94345">
        <ele>1647.8</ele>
        <time>2024-10-11T12:26:20Z</time>
      </trkpt>
      <trkpt lat="42.74835" lon="1.94354">
        <ele>1647.8</ele>
        <time>2024-10-11T12:26:21Z</time>
      </trkpt>
      <trkpt lat="42.74837" lon="1.94357">
        <ele>1647.2</ele>
        <time>2024-10-11T12:26:22Z</time>
      </trkpt>
      <trkpt lat="42.74841" lon="1.94367">
        <ele>1647.2</ele>
        <time>2024-10-11T12:26:23Z</time>
      </trkpt>
      <trkpt lat="42.74842" lon="1.94369">
        <ele>1647.2</ele>
        <time>2024-10-11T12:26:24Z</time>
      </trkpt>
      <trkpt lat="42.74846" lon="1.94379">
        <ele>1646.2</ele>
        <time>2024-10-11T12:26:25Z</time>
      </trkpt>
      <trkpt lat="42.74848" lon="1.94382">
        <ele>1646.2</ele>
        <time>2024-10-11T12:26:26Z</time>
      </trkpt>
      <trkpt lat="42.74852" lon="1.94392">
        <ele>1645.8</ele>
        <time>2024-10-11T12:26:27Z</time>
      </trkpt>
      <trkpt lat="42.74854" lon="1.94396">
        <ele>1645.8</ele>
        <time>2024-10-11T12:26:28Z</time>
      </trkpt>
      <trkpt lat="42.74858" lon="1.94407">
        <ele>1645.8</ele>
        <time>2024-10-11T12:26:29Z</time>
      </trkpt>
      <trkpt lat="42.74859" lon="1.9441">
        <ele>1644.8</ele>
        <time>2024-10-11T12:26:30Z</time>
      </trkpt>
      <trkpt lat="42.74863" lon="1.94421">
        <ele>1643.6</ele>
        <time>2024-10-11T12:26:31Z</time>
      </trkpt>
      <trkpt lat="42.74864" lon="1.94425">
        <ele>1643.6</ele>
        <time>2024-10-11T12:26:32Z</time>
      </trkpt>
      <trkpt lat="42.74868" lon="1.94434">
        <ele>1643.6</ele>
        <time>2024-10-11T12:26:33Z</time>
      </trkpt>
      <trkpt lat="42.74869" lon="1.94437">
        <ele>1643.6</ele>
        <time>2024-10-11T12:26:34Z</time>
      </trkpt>
      <trkpt lat="42.74872" lon="1.94441">
        <ele>1642.6</ele>
        <time>2024-10-11T12:26:35Z</time>
      </trkpt>
      <trkpt lat="42.74875" lon="1.94445">
        <ele>1642.6</ele>
        <time>2024-10-11T12:26:36Z</time>
      </trkpt>
      <trkpt lat="42.74881" lon="1.9445">
        <ele>1642.6</ele>
        <time>2024-10-11T12:26:37Z</time>
      </trkpt>
      <trkpt lat="42.74883" lon="1.94451">
        <ele>1641.6</ele>
        <time>2024-10-11T12:26:38Z</time>
      </trkpt>
      <trkpt lat="42.7489" lon="1.94455">
        <ele>1640.8</ele>
        <time>2024-10-11T12:26:39Z</time>
      </trkpt>
      <trkpt lat="42.74893" lon="1.94455">
        <ele>1640.8</ele>
        <time>2024-10-11T12:26:40Z</time>
      </trkpt>
      <trkpt lat="42.74898" lon="1.94457">
        <ele>1640.8</ele>
        <time>2024-10-11T12:26:41Z</time>
      </trkpt>
      <trkpt lat="42.74903" lon="1.94457">
        <ele>1640.8</ele>
        <time>2024-10-11T12:26:42Z</time>
      </trkpt>
      <trkpt lat="42.74908" lon="1.94457">
        <ele>1640.8</ele>
        <time>2024-10-11T12:26:43Z</time>
      </trkpt>
      <trkpt lat="42.74913" lon="1.94457">
        <ele>1640.2</ele>
        <time>2024-10-11T12:26:44Z</time>
      </trkpt>
      <trkpt lat="42.74916" lon="1.9446">
        <ele>1640.2</ele>
        <time>2024-10-11T12:26:45Z</time>
      </trkpt>
      <trkpt lat="42.74918" lon="1.94462">
        <ele>1640.2</ele>
        <time>2024-10-11T12:26:46Z</time>
      </trkpt>
      <trkpt lat="42.7492" lon="1.94464">
        <ele>1640.2</ele>
        <time>2024-10-11T12:26:47Z</time>
      </trkpt>
      <trkpt lat="42.74922" lon="1.94466">
        <ele>1640.2</ele>
        <time>2024-10-11T12:26:48Z</time>
      </trkpt>
      <trkpt lat="42.74924" lon="1.94468">
        <ele>1639.8</ele>
        <time>2024-10-11T12:26:49Z</time>
      </trkpt>
      <trkpt lat="42.74926" lon="1.94471">
        <ele>1638.6</ele>
        <time>2024-10-11T12:27:21Z</time>
      </trkpt>
      <trkpt lat="42.74928" lon="1.94473">
        <ele>1638.6</ele>
        <time>2024-10-11T12:27:22Z</time>
      </trkpt>
      <trkpt lat="42.74929" lon="1.94475">
        <ele>1638.6</ele>
        <time>2024-10-11T12:27:23Z</time>
      </trkpt>
      <trkpt lat="42.74932" lon="1.94479">
        <ele>1638.6</ele>
        <time>2024-10-11T12:27:24Z</time>
      </trkpt>
      <trkpt lat="42.74935" lon="1.94483">
        <ele>1638</ele>
        <time>2024-10-11T12:27:25Z</time>
      </trkpt>
      <trkpt lat="42.74938" lon="1.94488">
        <ele>1638</ele>
        <time>2024-10-11T12:27:26Z</time>
      </trkpt>
      <trkpt lat="42.74943" lon="1.94495">
        <ele>1638</ele>
        <time>2024-10-11T12:27:27Z</time>
      </trkpt>
      <trkpt lat="42.74945" lon="1.94497">
        <ele>1638</ele>
        <time>2024-10-11T12:27:28Z</time>
      </trkpt>
      <trkpt lat="42.74951" lon="1.94504">
        <ele>1638</ele>
        <time>2024-10-11T12:27:29Z</time>
      </trkpt>
      <trkpt lat="42.74953" lon="1.94506">
        <ele>1638</ele>
        <time>2024-10-11T12:27:30Z</time>
      </trkpt>
      <trkpt lat="42.74961" lon="1.94511">
        <ele>1636.6</ele>
        <time>2024-10-11T12:27:31Z</time>
      </trkpt>
      <trkpt lat="42.74963" lon="1.94513">
        <ele>1636.6</ele>
        <time>2024-10-11T12:27:32Z</time>
      </trkpt>
      <trkpt lat="42.74971" lon="1.94518">
        <ele>1636.6</ele>
        <time>2024-10-11T12:27:33Z</time>
      </trkpt>
      <trkpt lat="42.74973" lon="1.9452">
        <ele>1635.4</ele>
        <time>2024-10-11T12:27:34Z</time>
      </trkpt>
      <trkpt lat="42.74976" lon="1.94528">
        <ele>1635.4</ele>
        <time>2024-10-11T12:27:35Z</time>
      </trkpt>
      <trkpt lat="42.74976" lon="1.94532">
        <ele>1635.4</ele>
        <time>2024-10-11T12:27:36Z</time>
      </trkpt>
      <trkpt lat="42.74975" lon="1.94539">
        <ele>1634.4</ele>
        <time>2024-10-11T12:27:37Z</time>
      </trkpt>
      <trkpt lat="42.74971" lon="1.94545">
        <ele>1633.6</ele>
        <time>2024-10-11T12:27:38Z</time>
      </trkpt>
      <trkpt lat="42.74966" lon="1.9455">
        <ele>1633.6</ele>
        <time>2024-10-11T12:27:39Z</time>
      </trkpt>
      <trkpt lat="42.74963" lon="1.94555">
        <ele>1633.6</ele>
        <time>2024-10-11T12:27:40Z</time>
      </trkpt>
      <trkpt lat="42.74959" lon="1.9456">
        <ele>1633.6</ele>
        <time>2024-10-11T12:27:41Z</time>
      </trkpt>
      <trkpt lat="42.74956" lon="1.94565">
        <ele>1632.6</ele>
        <time>2024-10-11T12:27:42Z</time>
      </trkpt>
      <trkpt lat="42.74953" lon="1.94571">
        <ele>1632.6</ele>
        <time>2024-10-11T12:27:43Z</time>
      </trkpt>
      <trkpt lat="42.74953" lon="1.94574">
        <ele>1631</ele>
        <time>2024-10-11T12:27:44Z</time>
      </trkpt>
      <trkpt lat="42.74951" lon="1.9458">
        <ele>1631</ele>
        <time>2024-10-11T12:27:45Z</time>
      </trkpt>
      <trkpt lat="42.74949" lon="1.94587">
        <ele>1630</ele>
        <time>2024-10-11T12:27:46Z</time>
      </trkpt>
      <trkpt lat="42.74949" lon="1.94597">
        <ele>1629.4</ele>
        <time>2024-10-11T12:27:47Z</time>
      </trkpt>
      <trkpt lat="42.74949" lon="1.94601">
        <ele>1629.4</ele>
        <time>2024-10-11T12:27:48Z</time>
      </trkpt>
      <trkpt lat="42.74951" lon="1.94612">
        <ele>1629.4</ele>
        <time>2024-10-11T12:27:49Z</time>
      </trkpt>
      <trkpt lat="42.74951" lon="1.94616">
        <ele>1629.4</ele>
        <time>2024-10-11T12:27:50Z</time>
      </trkpt>
      <trkpt lat="42.74952" lon="1.94624">
        <ele>1629.4</ele>
        <time>2024-10-11T12:27:51Z</time>
      </trkpt>
      <trkpt lat="42.74952" lon="1.94632">
        <ele>1626.8</ele>
        <time>2024-10-11T12:27:52Z</time>
      </trkpt>
      <trkpt lat="42.74955" lon="1.94639">
        <ele>1626.8</ele>
        <time>2024-10-11T12:27:53Z</time>
      </trkpt>
      <trkpt lat="42.74957" lon="1.9465">
        <ele>1626.8</ele>
        <time>2024-10-11T12:27:54Z</time>
      </trkpt>
      <trkpt lat="42.74958" lon="1.94653">
        <ele>1625.8</ele>
        <time>2024-10-11T12:27:55Z</time>
      </trkpt>
      <trkpt lat="42.74958" lon="1.94659">
        <ele>1625.2</ele>
        <time>2024-10-11T12:27:56Z</time>
      </trkpt>
      <trkpt lat="42.74957" lon="1.9467">
        <ele>1625.2</ele>
        <time>2024-10-11T12:27:57Z</time>
      </trkpt>
      <trkpt lat="42.74956" lon="1.94673">
        <ele>1625.2</ele>
        <time>2024-10-11T12:27:58Z</time>
      </trkpt>
      <trkpt lat="42.74954" lon="1.94682">
        <ele>1625.2</ele>
        <time>2024-10-11T12:27:59Z</time>
      </trkpt>
      <trkpt lat="42.74954" lon="1.94686">
        <ele>1625.2</ele>
        <time>2024-10-11T12:28:00Z</time>
      </trkpt>
      <trkpt lat="42.74953" lon="1.94696">
        <ele>1623.2</ele>
        <time>2024-10-11T12:28:01Z</time>
      </trkpt>
      <trkpt lat="42.74954" lon="1.94699">
        <ele>1623.2</ele>
        <time>2024-10-11T12:28:02Z</time>
      </trkpt>
      <trkpt lat="42.74958" lon="1.94707">
        <ele>1623.2</ele>
        <time>2024-10-11T12:28:03Z</time>
      </trkpt>
      <trkpt lat="42.74959" lon="1.94709">
        <ele>1622.2</ele>
        <time>2024-10-11T12:28:04Z</time>
      </trkpt>
      <trkpt lat="42.74963" lon="1.94715">
        <ele>1621.2</ele>
        <time>2024-10-11T12:28:05Z</time>
      </trkpt>
      <trkpt lat="42.74967" lon="1.94719">
        <ele>1621.2</ele>
        <time>2024-10-11T12:28:06Z</time>
      </trkpt>
      <trkpt lat="42.74972" lon="1.94724">
        <ele>1621.2</ele>
        <time>2024-10-11T12:28:07Z</time>
      </trkpt>
      <trkpt lat="42.74978" lon="1.94727">
        <ele>1621.2</ele>
        <time>2024-10-11T12:28:08Z</time>
      </trkpt>
      <trkpt lat="42.74985" lon="1.94732">
        <ele>1621.2</ele>
        <time>2024-10-11T12:28:09Z</time>
      </trkpt>
      <trkpt lat="42.74987" lon="1.94734">
        <ele>1619.4</ele>
        <time>2024-10-11T12:28:10Z</time>
      </trkpt>
      <trkpt lat="42.74992" lon="1.94741">
        <ele>1619.4</ele>
        <time>2024-10-11T12:28:11Z</time>
      </trkpt>
      <trkpt lat="42.74993" lon="1.94744">
        <ele>1619.4</ele>
        <time>2024-10-11T12:28:12Z</time>
      </trkpt>
      <trkpt lat="42.74995" lon="1.94755">
        <ele>1619.4</ele>
        <time>2024-10-11T12:28:13Z</time>
      </trkpt>
      <trkpt lat="42.74997" lon="1.94759">
        <ele>1618.4</ele>
        <time>2024-10-11T12:28:14Z</time>
      </trkpt>
      <trkpt lat="42.75001" lon="1.94771">
        <ele>1617.2</ele>
        <time>2024-10-11T12:28:15Z</time>
      </trkpt>
      <trkpt lat="42.75002" lon="1.94775">
        <ele>1617.2</ele>
        <time>2024-10-11T12:28:16Z</time>
      </trkpt>
      <trkpt lat="42.75007" lon="1.94787">
        <ele>1617.2</ele>
        <time>2024-10-11T12:28:17Z</time>
      </trkpt>
      <trkpt lat="42.75008" lon="1.94791">
        <ele>1616.2</ele>
        <time>2024-10-11T12:28:18Z</time>
      </trkpt>
      <trkpt lat="42.75014" lon="1.94803">
        <ele>1615</ele>
        <time>2024-10-11T12:28:19Z</time>
      </trkpt>
      <trkpt lat="42.75016" lon="1.94807">
        <ele>1615</ele>
        <time>2024-10-11T12:28:20Z</time>
      </trkpt>
      <trkpt lat="42.7502" lon="1.94815">
        <ele>1615</ele>
        <time>2024-10-11T12:28:21Z</time>
      </trkpt>
      <trkpt lat="42.75024" lon="1.94824">
        <ele>1614</ele>
        <time>2024-10-11T12:28:22Z</time>
      </trkpt>
      <trkpt lat="42.75028" lon="1.94833">
        <ele>1614</ele>
        <time>2024-10-11T12:28:23Z</time>
      </trkpt>
      <trkpt lat="42.75031" lon="1.94843">
        <ele>1611.8</ele>
        <time>2024-10-11T12:28:24Z</time>
      </trkpt>
      <trkpt lat="42.75035" lon="1.94857">
        <ele>1611.8</ele>
        <time>2024-10-11T12:28:25Z</time>
      </trkpt>
      <trkpt lat="42.75036" lon="1.94861">
        <ele>1611.8</ele>
        <time>2024-10-11T12:28:26Z</time>
      </trkpt>
      <trkpt lat="42.75038" lon="1.9487">
        <ele>1611.8</ele>
        <time>2024-10-11T12:28:27Z</time>
      </trkpt>
      <trkpt lat="42.7504" lon="1.94879">
        <ele>1610.4</ele>
        <time>2024-10-11T12:28:28Z</time>
      </trkpt>
      <trkpt lat="42.75042" lon="1.94893">
        <ele>1610.4</ele>
        <time>2024-10-11T12:28:29Z</time>
      </trkpt>
      <trkpt lat="42.75042" lon="1.94897">
        <ele>1610.4</ele>
        <time>2024-10-11T12:28:30Z</time>
      </trkpt>
      <trkpt lat="42.75042" lon="1.9491">
        <ele>1610.4</ele>
        <time>2024-10-11T12:28:31Z</time>
      </trkpt>
      <trkpt lat="42.75042" lon="1.94914">
        <ele>1607.4</ele>
        <time>2024-10-11T12:28:32Z</time>
      </trkpt>
      <trkpt lat="42.75042" lon="1.94921">
        <ele>1607.4</ele>
        <time>2024-10-11T12:28:33Z</time>
      </trkpt>
      <trkpt lat="42.75041" lon="1.94931">
        <ele>1607.4</ele>
        <time>2024-10-11T12:28:34Z</time>
      </trkpt>
      <trkpt lat="42.7504" lon="1.94934">
        <ele>1607.4</ele>
        <time>2024-10-11T12:28:35Z</time>
      </trkpt>
      <trkpt lat="42.75041" lon="1.94944">
        <ele>1606.2</ele>
        <time>2024-10-11T12:28:36Z</time>
      </trkpt>
      <trkpt lat="42.75041" lon="1.94947">
        <ele>1606.2</ele>
        <time>2024-10-11T12:28:37Z</time>
      </trkpt>
      <trkpt lat="42.7504" lon="1.94954">
        <ele>1606.2</ele>
        <time>2024-10-11T12:28:38Z</time>
      </trkpt>
      <trkpt lat="42.75039" lon="1.94962">
        <ele>1606.2</ele>
        <time>2024-10-11T12:28:39Z</time>
      </trkpt>
      <trkpt lat="42.75039" lon="1.94965">
        <ele>1605.2</ele>
        <time>2024-10-11T12:28:40Z</time>
      </trkpt>
      <trkpt lat="42.75038" lon="1.94971">
        <ele>1604.2</ele>
        <time>2024-10-11T12:28:41Z</time>
      </trkpt>
      <trkpt lat="42.75038" lon="1.94973">
        <ele>1604.2</ele>
        <time>2024-10-11T12:28:42Z</time>
      </trkpt>
      <trkpt lat="42.75041" lon="1.94976">
        <ele>1604.2</ele>
        <time>2024-10-11T12:28:43Z</time>
      </trkpt>
      <trkpt lat="42.75043" lon="1.94976">
        <ele>1603.2</ele>
        <time>2024-10-11T12:28:44Z</time>
      </trkpt>
      <trkpt lat="42.75046" lon="1.94975">
        <ele>1602.4</ele>
        <time>2024-10-11T12:28:45Z</time>
      </trkpt>
      <trkpt lat="42.75048" lon="1.94968">
        <ele>1602.4</ele>
        <time>2024-10-11T12:28:46Z</time>
      </trkpt>
      <trkpt lat="42.75049" lon="1.94965">
        <ele>1602.4</ele>
        <time>2024-10-11T12:28:47Z</time>
      </trkpt>
      <trkpt lat="42.7505" lon="1.94959">
        <ele>1602.4</ele>
        <time>2024-10-11T12:28:48Z</time>
      </trkpt>
      <trkpt lat="42.7505" lon="1.94954">
        <ele>1601</ele>
        <time>2024-10-11T12:28:49Z</time>
      </trkpt>
      <trkpt lat="42.75051" lon="1.94948">
        <ele>1601</ele>
        <time>2024-10-11T12:28:50Z</time>
      </trkpt>
      <trkpt lat="42.75052" lon="1.94941">
        <ele>1601</ele>
        <time>2024-10-11T12:28:51Z</time>
      </trkpt>
      <trkpt lat="42.75053" lon="1.94934">
        <ele>1601</ele>
        <time>2024-10-11T12:28:52Z</time>
      </trkpt>
      <trkpt lat="42.75054" lon="1.94923">
        <ele>1601</ele>
        <time>2024-10-11T12:28:53Z</time>
      </trkpt>
      <trkpt lat="42.75055" lon="1.94919">
        <ele>1601</ele>
        <time>2024-10-11T12:28:54Z</time>
      </trkpt>
      <trkpt lat="42.75057" lon="1.94906">
        <ele>1599</ele>
        <time>2024-10-11T12:28:55Z</time>
      </trkpt>
      <trkpt lat="42.75057" lon="1.94901">
        <ele>1599</ele>
        <time>2024-10-11T12:28:56Z</time>
      </trkpt>
      <trkpt lat="42.75057" lon="1.94887">
        <ele>1599</ele>
        <time>2024-10-11T12:28:57Z</time>
      </trkpt>
      <trkpt lat="42.75057" lon="1.94883">
        <ele>1598</ele>
        <time>2024-10-11T12:28:58Z</time>
      </trkpt>
      <trkpt lat="42.75056" lon="1.9487">
        <ele>1596.8</ele>
        <time>2024-10-11T12:28:59Z</time>
      </trkpt>
      <trkpt lat="42.75055" lon="1.94866">
        <ele>1596.8</ele>
        <time>2024-10-11T12:29:00Z</time>
      </trkpt>
      <trkpt lat="42.75053" lon="1.94853">
        <ele>1596.8</ele>
        <time>2024-10-11T12:29:01Z</time>
      </trkpt>
      <trkpt lat="42.75053" lon="1.94848">
        <ele>1596.8</ele>
        <time>2024-10-11T12:29:02Z</time>
      </trkpt>
      <trkpt lat="42.75053" lon="1.94839">
        <ele>1595.8</ele>
        <time>2024-10-11T12:29:03Z</time>
      </trkpt>
      <trkpt lat="42.75051" lon="1.94831">
        <ele>1594.2</ele>
        <time>2024-10-11T12:29:04Z</time>
      </trkpt>
      <trkpt lat="42.75049" lon="1.94822">
        <ele>1594.2</ele>
        <time>2024-10-11T12:29:05Z</time>
      </trkpt>
      <trkpt lat="42.75046" lon="1.94813">
        <ele>1594.2</ele>
        <time>2024-10-11T12:29:06Z</time>
      </trkpt>
      <trkpt lat="42.75044" lon="1.94805">
        <ele>1593.2</ele>
        <time>2024-10-11T12:29:07Z</time>
      </trkpt>
      <trkpt lat="42.7504" lon="1.94796">
        <ele>1592</ele>
        <time>2024-10-11T12:29:08Z</time>
      </trkpt>
      <trkpt lat="42.75036" lon="1.94781">
        <ele>1592</ele>
        <time>2024-10-11T12:29:09Z</time>
      </trkpt>
      <trkpt lat="42.75035" lon="1.94775">
        <ele>1592</ele>
        <time>2024-10-11T12:29:10Z</time>
      </trkpt>
      <trkpt lat="42.75032" lon="1.94759">
        <ele>1591</ele>
        <time>2024-10-11T12:29:11Z</time>
      </trkpt>
      <trkpt lat="42.75031" lon="1.94753">
        <ele>1588.8</ele>
        <time>2024-10-11T12:29:12Z</time>
      </trkpt>
      <trkpt lat="42.7503" lon="1.94736">
        <ele>1588.8</ele>
        <time>2024-10-11T12:29:13Z</time>
      </trkpt>
      <trkpt lat="42.7503" lon="1.9473">
        <ele>1588.8</ele>
        <time>2024-10-11T12:29:14Z</time>
      </trkpt>
      <trkpt lat="42.75029" lon="1.94715">
        <ele>1588.8</ele>
        <time>2024-10-11T12:29:15Z</time>
      </trkpt>
      <trkpt lat="42.75028" lon="1.9471">
        <ele>1588.8</ele>
        <time>2024-10-11T12:29:16Z</time>
      </trkpt>
      <trkpt lat="42.75026" lon="1.94696">
        <ele>1585.2</ele>
        <time>2024-10-11T12:29:17Z</time>
      </trkpt>
      <trkpt lat="42.75025" lon="1.94692">
        <ele>1585.2</ele>
        <time>2024-10-11T12:29:18Z</time>
      </trkpt>
      <trkpt lat="42.75023" lon="1.9468">
        <ele>1585.2</ele>
        <time>2024-10-11T12:29:19Z</time>
      </trkpt>
      <trkpt lat="42.75022" lon="1.94677">
        <ele>1585.6</ele>
        <time>2024-10-11T12:29:20Z</time>
      </trkpt>
      <trkpt lat="42.75022" lon="1.94669">
        <ele>1584.8</ele>
        <time>2024-10-11T12:29:21Z</time>
      </trkpt>
      <trkpt lat="42.75022" lon="1.94666">
        <ele>1584.8</ele>
        <time>2024-10-11T12:29:22Z</time>
      </trkpt>
      <trkpt lat="42.75025" lon="1.94661">
        <ele>1584.8</ele>
        <time>2024-10-11T12:29:23Z</time>
      </trkpt>
      <trkpt lat="42.75027" lon="1.9466">
        <ele>1583.8</ele>
        <time>2024-10-11T12:29:24Z</time>
      </trkpt>
      <trkpt lat="42.75032" lon="1.94662">
        <ele>1583.2</ele>
        <time>2024-10-11T12:29:25Z</time>
      </trkpt>
      <trkpt lat="42.75032" lon="1.94663">
        <ele>1583.2</ele>
        <time>2024-10-11T12:29:26Z</time>
      </trkpt>
      <trkpt lat="42.75032" lon="1.9467">
        <ele>1583.2</ele>
        <time>2024-10-11T12:29:27Z</time>
      </trkpt>
      <trkpt lat="42.75032" lon="1.94673">
        <ele>1583.2</ele>
        <time>2024-10-11T12:29:28Z</time>
      </trkpt>
      <trkpt lat="42.75034" lon="1.94683">
        <ele>1582.2</ele>
        <time>2024-10-11T12:29:29Z</time>
      </trkpt>
      <trkpt lat="42.75035" lon="1.94686">
        <ele>1581.6</ele>
        <time>2024-10-11T12:29:30Z</time>
      </trkpt>
      <trkpt lat="42.75036" lon="1.94693">
        <ele>1581.6</ele>
        <time>2024-10-11T12:29:31Z</time>
      </trkpt>
      <trkpt lat="42.75037" lon="1.94701">
        <ele>1581.6</ele>
        <time>2024-10-11T12:29:32Z</time>
      </trkpt>
      <trkpt lat="42.75038" lon="1.94709">
        <ele>1581.6</ele>
        <time>2024-10-11T12:29:33Z</time>
      </trkpt>
      <trkpt lat="42.7504" lon="1.94717">
        <ele>1579.8</ele>
        <time>2024-10-11T12:29:34Z</time>
      </trkpt>
      <trkpt lat="42.75042" lon="1.9473">
        <ele>1579.8</ele>
        <time>2024-10-11T12:29:35Z</time>
      </trkpt>
      <trkpt lat="42.75043" lon="1.94734">
        <ele>1579.8</ele>
        <time>2024-10-11T12:29:36Z</time>
      </trkpt>
      <trkpt lat="42.75046" lon="1.94745">
        <ele>1579.8</ele>
        <time>2024-10-11T12:29:37Z</time>
      </trkpt>
      <trkpt lat="42.75048" lon="1.94749">
        <ele>1579.8</ele>
        <time>2024-10-11T12:29:38Z</time>
      </trkpt>
      <trkpt lat="42.75051" lon="1.94757">
        <ele>1577.6</ele>
        <time>2024-10-11T12:29:39Z</time>
      </trkpt>
      <trkpt lat="42.75055" lon="1.94765">
        <ele>1577.6</ele>
        <time>2024-10-11T12:29:40Z</time>
      </trkpt>
      <trkpt lat="42.7506" lon="1.94773">
        <ele>1577.6</ele>
        <time>2024-10-11T12:29:41Z</time>
      </trkpt>
      <trkpt lat="42.75067" lon="1.9478">
        <ele>1577.6</ele>
        <time>2024-10-11T12:29:42Z</time>
      </trkpt>
      <trkpt lat="42.75077" lon="1.94792">
        <ele>1576.6</ele>
        <time>2024-10-11T12:29:43Z</time>
      </trkpt>
      <trkpt lat="42.7508" lon="1.94796">
        <ele>1575.6</ele>
        <time>2024-10-11T12:29:44Z</time>
      </trkpt>
      <trkpt lat="42.75087" lon="1.94804">
        <ele>1575.6</ele>
        <time>2024-10-11T12:29:45Z</time>
      </trkpt>
      <trkpt lat="42.75093" lon="1.94813">
        <ele>1575.6</ele>
        <time>2024-10-11T12:29:46Z</time>
      </trkpt>
      <trkpt lat="42.751" lon="1.94826">
        <ele>1575.6</ele>
        <time>2024-10-11T12:29:47Z</time>
      </trkpt>
      <trkpt lat="42.75102" lon="1.9483">
        <ele>1572.8</ele>
        <time>2024-10-11T12:29:48Z</time>
      </trkpt>
      <trkpt lat="42.75106" lon="1.94838">
        <ele>1572.8</ele>
        <time>2024-10-11T12:29:49Z</time>
      </trkpt>
      <trkpt lat="42.7511" lon="1.94851">
        <ele>1572.8</ele>
        <time>2024-10-11T12:29:50Z</time>
      </trkpt>
      <trkpt lat="42.7511" lon="1.94855">
        <ele>1571.8</ele>
        <time>2024-10-11T12:29:51Z</time>
      </trkpt>
      <trkpt lat="42.75112" lon="1.94864">
        <ele>1570.2</ele>
        <time>2024-10-11T12:29:52Z</time>
      </trkpt>
      <trkpt lat="42.75112" lon="1.94874">
        <ele>1570.2</ele>
        <time>2024-10-11T12:29:53Z</time>
      </trkpt>
      <trkpt lat="42.75113" lon="1.9489">
        <ele>1570.2</ele>
        <time>2024-10-11T12:29:54Z</time>
      </trkpt>
      <trkpt lat="42.75113" lon="1.94895">
        <ele>1570.2</ele>
        <time>2024-10-11T12:29:55Z</time>
      </trkpt>
      <trkpt lat="42.75114" lon="1.94911">
        <ele>1569.2</ele>
        <time>2024-10-11T12:29:56Z</time>
      </trkpt>
      <trkpt lat="42.75114" lon="1.94916">
        <ele>1567.2</ele>
        <time>2024-10-11T12:29:57Z</time>
      </trkpt>
      <trkpt lat="42.75115" lon="1.94931">
        <ele>1567.2</ele>
        <time>2024-10-11T12:29:58Z</time>
      </trkpt>
      <trkpt lat="42.75115" lon="1.94935">
        <ele>1567.2</ele>
        <time>2024-10-11T12:29:59Z</time>
      </trkpt>
      <trkpt lat="42.75115" lon="1.94949">
        <ele>1566.2</ele>
        <time>2024-10-11T12:30:00Z</time>
      </trkpt>
      <trkpt lat="42.75115" lon="1.94953">
        <ele>1564.8</ele>
        <time>2024-10-11T12:30:01Z</time>
      </trkpt>
      <trkpt lat="42.75114" lon="1.94962">
        <ele>1564.8</ele>
        <time>2024-10-11T12:30:02Z</time>
      </trkpt>
      <trkpt lat="42.75112" lon="1.94974">
        <ele>1564.8</ele>
        <time>2024-10-11T12:30:03Z</time>
      </trkpt>
      <trkpt lat="42.75112" lon="1.94978">
        <ele>1563.8</ele>
        <time>2024-10-11T12:30:04Z</time>
      </trkpt>
      <trkpt lat="42.75109" lon="1.94989">
        <ele>1563.2</ele>
        <time>2024-10-11T12:30:05Z</time>
      </trkpt>
      <trkpt lat="42.75108" lon="1.94993">
        <ele>1563.2</ele>
        <time>2024-10-11T12:30:06Z</time>
      </trkpt>
      <trkpt lat="42.75105" lon="1.95004">
        <ele>1563.2</ele>
        <time>2024-10-11T12:30:07Z</time>
      </trkpt>
      <trkpt lat="42.75104" lon="1.95008">
        <ele>1563.2</ele>
        <time>2024-10-11T12:30:08Z</time>
      </trkpt>
      <trkpt lat="42.75101" lon="1.9502">
        <ele>1562.2</ele>
        <time>2024-10-11T12:30:09Z</time>
      </trkpt>
      <trkpt lat="42.751" lon="1.95024">
        <ele>1559.2</ele>
        <time>2024-10-11T12:30:10Z</time>
      </trkpt>
      <trkpt lat="42.75098" lon="1.95036">
        <ele>1559.2</ele>
        <time>2024-10-11T12:30:11Z</time>
      </trkpt>
      <trkpt lat="42.75097" lon="1.9504">
        <ele>1559.2</ele>
        <time>2024-10-11T12:30:12Z</time>
      </trkpt>
      <trkpt lat="42.75097" lon="1.95048">
        <ele>1559.2</ele>
        <time>2024-10-11T12:30:13Z</time>
      </trkpt>
      <trkpt lat="42.75092" lon="1.95054">
        <ele>1557</ele>
        <time>2024-10-11T12:30:14Z</time>
      </trkpt>
      <trkpt lat="42.7509" lon="1.95062">
        <ele>1557</ele>
        <time>2024-10-11T12:30:15Z</time>
      </trkpt>
      <trkpt lat="42.75088" lon="1.95068">
        <ele>1557</ele>
        <time>2024-10-11T12:30:16Z</time>
      </trkpt>
      <trkpt lat="42.75086" lon="1.95075">
        <ele>1557</ele>
        <time>2024-10-11T12:30:17Z</time>
      </trkpt>
      <trkpt lat="42.75081" lon="1.95084">
        <ele>1557</ele>
        <time>2024-10-11T12:30:18Z</time>
      </trkpt>
      <trkpt lat="42.75079" lon="1.95087">
        <ele>1555.2</ele>
        <time>2024-10-11T12:30:19Z</time>
      </trkpt>
      <trkpt lat="42.75075" lon="1.95094">
        <ele>1555.2</ele>
        <time>2024-10-11T12:30:20Z</time>
      </trkpt>
      <trkpt lat="42.75075" lon="1.95096">
        <ele>1555.2</ele>
        <time>2024-10-11T12:30:21Z</time>
      </trkpt>
      <trkpt lat="42.75071" lon="1.95106">
        <ele>1555.2</ele>
        <time>2024-10-11T12:30:22Z</time>
      </trkpt>
      <trkpt lat="42.75071" lon="1.9511">
        <ele>1554.2</ele>
        <time>2024-10-11T12:30:23Z</time>
      </trkpt>
      <trkpt lat="42.7507" lon="1.95122">
        <ele>1554</ele>
        <time>2024-10-11T12:30:24Z</time>
      </trkpt>
      <trkpt lat="42.7507" lon="1.95126">
        <ele>1554</ele>
        <time>2024-10-11T12:30:25Z</time>
      </trkpt>
      <trkpt lat="42.75069" lon="1.95138">
        <ele>1554</ele>
        <time>2024-10-11T12:30:26Z</time>
      </trkpt>
      <trkpt lat="42.75069" lon="1.95142">
        <ele>1553</ele>
        <time>2024-10-11T12:30:27Z</time>
      </trkpt>
      <trkpt lat="42.75069" lon="1.95151">
        <ele>1552.4</ele>
        <time>2024-10-11T12:30:28Z</time>
      </trkpt>
      <trkpt lat="42.7507" lon="1.95159">
        <ele>1552.4</ele>
        <time>2024-10-11T12:30:29Z</time>
      </trkpt>
      <trkpt lat="42.75072" lon="1.95168">
        <ele>1552.4</ele>
        <time>2024-10-11T12:30:30Z</time>
      </trkpt>
      <trkpt lat="42.75074" lon="1.95176">
        <ele>1552.4</ele>
        <time>2024-10-11T12:30:31Z</time>
      </trkpt>
      <trkpt lat="42.75074" lon="1.95183">
        <ele>1551.8</ele>
        <time>2024-10-11T12:30:32Z</time>
      </trkpt>
      <trkpt lat="42.75074" lon="1.95191">
        <ele>1552</ele>
        <time>2024-10-11T12:30:33Z</time>
      </trkpt>
      <trkpt lat="42.75072" lon="1.95204">
        <ele>1552</ele>
        <time>2024-10-11T12:30:34Z</time>
      </trkpt>
      <trkpt lat="42.75071" lon="1.95208">
        <ele>1552</ele>
        <time>2024-10-11T12:30:35Z</time>
      </trkpt>
      <trkpt lat="42.75069" lon="1.95221">
        <ele>1551</ele>
        <time>2024-10-11T12:30:36Z</time>
      </trkpt>
      <trkpt lat="42.75069" lon="1.95224">
        <ele>1548.8</ele>
        <time>2024-10-11T12:30:37Z</time>
      </trkpt>
      <trkpt lat="42.75069" lon="1.95229">
        <ele>1548.8</ele>
        <time>2024-10-11T12:30:38Z</time>
      </trkpt>
      <trkpt lat="42.75069" lon="1.95232">
        <ele>1548.8</ele>
        <time>2024-10-11T12:30:39Z</time>
      </trkpt>
      <trkpt lat="42.75069" lon="1.95235">
        <ele>1548.2</ele>
        <time>2024-10-11T12:30:40Z</time>
      </trkpt>
      <trkpt lat="42.7507" lon="1.95237">
        <ele>1548.2</ele>
        <time>2024-10-11T12:30:41Z</time>
      </trkpt>
      <trkpt lat="42.75071" lon="1.9524">
        <ele>1548</ele>
        <time>2024-10-11T12:30:42Z</time>
      </trkpt>
      <trkpt lat="42.75071" lon="1.95242">
        <ele>1548.4</ele>
        <time>2024-10-11T12:31:32Z</time>
      </trkpt>
      <trkpt lat="42.75072" lon="1.95244">
        <ele>1548.4</ele>
        <time>2024-10-11T12:31:33Z</time>
      </trkpt>
      <trkpt lat="42.75073" lon="1.95247">
        <ele>1548.4</ele>
        <time>2024-10-11T12:31:34Z</time>
      </trkpt>
      <trkpt lat="42.75075" lon="1.95257">
        <ele>1546</ele>
        <time>2024-10-11T12:31:35Z</time>
      </trkpt>
      <trkpt lat="42.75076" lon="1.95261">
        <ele>1546</ele>
        <time>2024-10-11T12:31:36Z</time>
      </trkpt>
      <trkpt lat="42.75077" lon="1.95271">
        <ele>1546</ele>
        <time>2024-10-11T12:31:37Z</time>
      </trkpt>
      <trkpt lat="42.75076" lon="1.95275">
        <ele>1546</ele>
        <time>2024-10-11T12:31:38Z</time>
      </trkpt>
      <trkpt lat="42.75073" lon="1.95284">
        <ele>1545</ele>
        <time>2024-10-11T12:31:39Z</time>
      </trkpt>
      <trkpt lat="42.7507" lon="1.95286">
        <ele>1542.2</ele>
        <time>2024-10-11T12:31:40Z</time>
      </trkpt>
      <trkpt lat="42.75066" lon="1.9529">
        <ele>1542.2</ele>
        <time>2024-10-11T12:31:41Z</time>
      </trkpt>
      <trkpt lat="42.75061" lon="1.95294">
        <ele>1542.2</ele>
        <time>2024-10-11T12:31:42Z</time>
      </trkpt>
      <trkpt lat="42.75056" lon="1.95297">
        <ele>1541.2</ele>
        <time>2024-10-11T12:31:43Z</time>
      </trkpt>
      <trkpt lat="42.75051" lon="1.95302">
        <ele>1540.2</ele>
        <time>2024-10-11T12:31:44Z</time>
      </trkpt>
      <trkpt lat="42.75047" lon="1.95309">
        <ele>1540.2</ele>
        <time>2024-10-11T12:31:45Z</time>
      </trkpt>
      <trkpt lat="42.75045" lon="1.95311">
        <ele>1540.2</ele>
        <time>2024-10-11T12:31:46Z</time>
      </trkpt>
      <trkpt lat="42.7504" lon="1.95318">
        <ele>1540.2</ele>
        <time>2024-10-11T12:31:47Z</time>
      </trkpt>
      <trkpt lat="42.75039" lon="1.9532">
        <ele>1539.2</ele>
        <time>2024-10-11T12:31:48Z</time>
      </trkpt>
      <trkpt lat="42.75033" lon="1.95327">
        <ele>1539.2</ele>
        <time>2024-10-11T12:31:49Z</time>
      </trkpt>
      <trkpt lat="42.75031" lon="1.95329">
        <ele>1538.8</ele>
        <time>2024-10-11T12:31:50Z</time>
      </trkpt>
      <trkpt lat="42.75027" lon="1.95332">
        <ele>1538.8</ele>
        <time>2024-10-11T12:31:51Z</time>
      </trkpt>
      <trkpt lat="42.75022" lon="1.95336">
        <ele>1538.8</ele>
        <time>2024-10-11T12:31:52Z</time>
      </trkpt>
      <trkpt lat="42.75016" lon="1.95338">
        <ele>1537.8</ele>
        <time>2024-10-11T12:31:53Z</time>
      </trkpt>
      <trkpt lat="42.7501" lon="1.95342">
        <ele>1537.8</ele>
        <time>2024-10-11T12:31:54Z</time>
      </trkpt>
      <trkpt lat="42.75005" lon="1.95346">
        <ele>1536</ele>
        <time>2024-10-11T12:31:55Z</time>
      </trkpt>
      <trkpt lat="42.74999" lon="1.95353">
        <ele>1536</ele>
        <time>2024-10-11T12:31:56Z</time>
      </trkpt>
      <trkpt lat="42.74994" lon="1.9536">
        <ele>1536</ele>
        <time>2024-10-11T12:31:57Z</time>
      </trkpt>
      <trkpt lat="42.74989" lon="1.95368">
        <ele>1534</ele>
        <time>2024-10-11T12:31:58Z</time>
      </trkpt>
      <trkpt lat="42.74984" lon="1.95376">
        <ele>1534</ele>
        <time>2024-10-11T12:31:59Z</time>
      </trkpt>
      <trkpt lat="42.7498" lon="1.95386">
        <ele>1534</ele>
        <time>2024-10-11T12:32:00Z</time>
      </trkpt>
      <trkpt lat="42.74977" lon="1.95395">
        <ele>1534</ele>
        <time>2024-10-11T12:32:01Z</time>
      </trkpt>
      <trkpt lat="42.74975" lon="1.95405">
        <ele>1533</ele>
        <time>2024-10-11T12:32:02Z</time>
      </trkpt>
      <trkpt lat="42.74973" lon="1.95416">
        <ele>1531.6</ele>
        <time>2024-10-11T12:32:03Z</time>
      </trkpt>
      <trkpt lat="42.7497" lon="1.95429">
        <ele>1531.6</ele>
        <time>2024-10-11T12:32:04Z</time>
      </trkpt>
      <trkpt lat="42.74968" lon="1.95433">
        <ele>1531.6</ele>
        <time>2024-10-11T12:32:05Z</time>
      </trkpt>
      <trkpt lat="42.74964" lon="1.95441">
        <ele>1530.6</ele>
        <time>2024-10-11T12:32:06Z</time>
      </trkpt>
      <trkpt lat="42.74955" lon="1.9545">
        <ele>1529.4</ele>
        <time>2024-10-11T12:32:07Z</time>
      </trkpt>
      <trkpt lat="42.74952" lon="1.95454">
        <ele>1529.4</ele>
        <time>2024-10-11T12:32:08Z</time>
      </trkpt>
      <trkpt lat="42.74943" lon="1.95464">
        <ele>1529.4</ele>
        <time>2024-10-11T12:32:09Z</time>
      </trkpt>
      <trkpt lat="42.7494" lon="1.95467">
        <ele>1529.4</ele>
        <time>2024-10-11T12:32:10Z</time>
      </trkpt>
      <trkpt lat="42.74931" lon="1.95477">
        <ele>1528.4</ele>
        <time>2024-10-11T12:32:11Z</time>
      </trkpt>
      <trkpt lat="42.74929" lon="1.95481">
        <ele>1526.2</ele>
        <time>2024-10-11T12:32:12Z</time>
      </trkpt>
      <trkpt lat="42.74922" lon="1.95493">
        <ele>1526.2</ele>
        <time>2024-10-11T12:32:13Z</time>
      </trkpt>
      <trkpt lat="42.7492" lon="1.95498">
        <ele>1526.2</ele>
        <time>2024-10-11T12:32:14Z</time>
      </trkpt>
      <trkpt lat="42.74916" lon="1.95506">
        <ele>1525.2</ele>
        <time>2024-10-11T12:32:15Z</time>
      </trkpt>
      <trkpt lat="42.74909" lon="1.95519">
        <ele>1522.4</ele>
        <time>2024-10-11T12:32:16Z</time>
      </trkpt>
      <trkpt lat="42.74907" lon="1.95523">
        <ele>1522.4</ele>
        <time>2024-10-11T12:32:17Z</time>
      </trkpt>
      <trkpt lat="42.74902" lon="1.95535">
        <ele>1522.4</ele>
        <time>2024-10-11T12:32:18Z</time>
      </trkpt>
      <trkpt lat="42.74901" lon="1.95539">
        <ele>1522.4</ele>
        <time>2024-10-11T12:32:19Z</time>
      </trkpt>
      <trkpt lat="42.74897" lon="1.9555">
        <ele>1520.8</ele>
        <time>2024-10-11T12:32:20Z</time>
      </trkpt>
      <trkpt lat="42.74895" lon="1.95554">
        <ele>1520.8</ele>
        <time>2024-10-11T12:32:21Z</time>
      </trkpt>
      <trkpt lat="42.74891" lon="1.95566">
        <ele>1520.8</ele>
        <time>2024-10-11T12:32:22Z</time>
      </trkpt>
      <trkpt lat="42.74889" lon="1.9557">
        <ele>1520.8</ele>
        <time>2024-10-11T12:32:23Z</time>
      </trkpt>
      <trkpt lat="42.74887" lon="1.95578">
        <ele>1519.8</ele>
        <time>2024-10-11T12:32:24Z</time>
      </trkpt>
      <trkpt lat="42.74883" lon="1.95585">
        <ele>1518.2</ele>
        <time>2024-10-11T12:32:25Z</time>
      </trkpt>
      <trkpt lat="42.74879" lon="1.95592">
        <ele>1518.2</ele>
        <time>2024-10-11T12:32:26Z</time>
      </trkpt>
      <trkpt lat="42.74875" lon="1.95595">
        <ele>1518.2</ele>
        <time>2024-10-11T12:32:27Z</time>
      </trkpt>
      <trkpt lat="42.74873" lon="1.95602">
        <ele>1518.2</ele>
        <time>2024-10-11T12:32:28Z</time>
      </trkpt>
      <trkpt lat="42.74869" lon="1.95609">
        <ele>1518.2</ele>
        <time>2024-10-11T12:32:29Z</time>
      </trkpt>
      <trkpt lat="42.74866" lon="1.95616">
        <ele>1518.2</ele>
        <time>2024-10-11T12:32:30Z</time>
      </trkpt>
      <trkpt lat="42.74863" lon="1.9562">
        <ele>1516.6</ele>
        <time>2024-10-11T12:32:31Z</time>
      </trkpt>
      <trkpt lat="42.7486" lon="1.95623">
        <ele>1516.6</ele>
        <time>2024-10-11T12:32:32Z</time>
      </trkpt>
      <trkpt lat="42.74854" lon="1.95624">
        <ele>1515.6</ele>
        <time>2024-10-11T12:32:33Z</time>
      </trkpt>
      <trkpt lat="42.74852" lon="1.95624">
        <ele>1514.8</ele>
        <time>2024-10-11T12:32:34Z</time>
      </trkpt>
      <trkpt lat="42.74844" lon="1.95624">
        <ele>1514.8</ele>
        <time>2024-10-11T12:32:35Z</time>
      </trkpt>
      <trkpt lat="42.74841" lon="1.95624">
        <ele>1514.8</ele>
        <time>2024-10-11T12:32:36Z</time>
      </trkpt>
      <trkpt lat="42.74836" lon="1.95626">
        <ele>1514.8</ele>
        <time>2024-10-11T12:32:37Z</time>
      </trkpt>
      <trkpt lat="42.7483" lon="1.95628">
        <ele>1513.8</ele>
        <time>2024-10-11T12:32:38Z</time>
      </trkpt>
      <trkpt lat="42.7482" lon="1.9563">
        <ele>1513.8</ele>
        <time>2024-10-11T12:32:39Z</time>
      </trkpt>
      <trkpt lat="42.74817" lon="1.95631">
        <ele>1512</ele>
        <time>2024-10-11T12:32:40Z</time>
      </trkpt>
      <trkpt lat="42.74811" lon="1.95632">
        <ele>1512</ele>
        <time>2024-10-11T12:32:41Z</time>
      </trkpt>
      <trkpt lat="42.74805" lon="1.95634">
        <ele>1511</ele>
        <time>2024-10-11T12:32:42Z</time>
      </trkpt>
      <trkpt lat="42.748" lon="1.95637">
        <ele>1510</ele>
        <time>2024-10-11T12:32:43Z</time>
      </trkpt>
      <trkpt lat="42.74795" lon="1.95642">
        <ele>1510</ele>
        <time>2024-10-11T12:32:44Z</time>
      </trkpt>
      <trkpt lat="42.74791" lon="1.95648">
        <ele>1510</ele>
        <time>2024-10-11T12:32:45Z</time>
      </trkpt>
      <trkpt lat="42.74787" lon="1.95652">
        <ele>1509</ele>
        <time>2024-10-11T12:32:46Z</time>
      </trkpt>
      <trkpt lat="42.74782" lon="1.95658">
        <ele>1508.4</ele>
        <time>2024-10-11T12:32:47Z</time>
      </trkpt>
      <trkpt lat="42.7478" lon="1.9566">
        <ele>1508.4</ele>
        <time>2024-10-11T12:32:48Z</time>
      </trkpt>
      <trkpt lat="42.74772" lon="1.95663">
        <ele>1508.4</ele>
        <time>2024-10-11T12:32:49Z</time>
      </trkpt>
      <trkpt lat="42.7477" lon="1.95665">
        <ele>1508.4</ele>
        <time>2024-10-11T12:32:50Z</time>
      </trkpt>
      <trkpt lat="42.74762" lon="1.95671">
        <ele>1507.4</ele>
        <time>2024-10-11T12:32:51Z</time>
      </trkpt>
      <trkpt lat="42.7476" lon="1.95673">
        <ele>1507.4</ele>
        <time>2024-10-11T12:32:52Z</time>
      </trkpt>
      <trkpt lat="42.74753" lon="1.9568">
        <ele>1506.6</ele>
        <time>2024-10-11T12:32:53Z</time>
      </trkpt>
      <trkpt lat="42.74751" lon="1.95683">
        <ele>1506.6</ele>
        <time>2024-10-11T12:32:54Z</time>
      </trkpt>
      <trkpt lat="42.74745" lon="1.9569">
        <ele>1505.6</ele>
        <time>2024-10-11T12:32:55Z</time>
      </trkpt>
      <trkpt lat="42.74743" lon="1.95692">
        <ele>1504</ele>
        <time>2024-10-11T12:32:56Z</time>
      </trkpt>
      <trkpt lat="42.74739" lon="1.95696">
        <ele>1504</ele>
        <time>2024-10-11T12:32:57Z</time>
      </trkpt>
      <trkpt lat="42.7473" lon="1.95697">
        <ele>1504</ele>
        <time>2024-10-11T12:32:58Z</time>
      </trkpt>
      <trkpt lat="42.74727" lon="1.95697">
        <ele>1504</ele>
        <time>2024-10-11T12:32:59Z</time>
      </trkpt>
      <trkpt lat="42.74718" lon="1.95695">
        <ele>1503.4</ele>
        <time>2024-10-11T12:33:00Z</time>
      </trkpt>
      <trkpt lat="42.74714" lon="1.95693">
        <ele>1503.4</ele>
        <time>2024-10-11T12:33:01Z</time>
      </trkpt>
      <trkpt lat="42.74705" lon="1.95688">
        <ele>1503.4</ele>
        <time>2024-10-11T12:33:02Z</time>
      </trkpt>
      <trkpt lat="42.74702" lon="1.95686">
        <ele>1503.4</ele>
        <time>2024-10-11T12:33:03Z</time>
      </trkpt>
      <trkpt lat="42.74692" lon="1.95679">
        <ele>1502.4</ele>
        <time>2024-10-11T12:33:04Z</time>
      </trkpt>
      <trkpt lat="42.74689" lon="1.95676">
        <ele>1500.2</ele>
        <time>2024-10-11T12:33:05Z</time>
      </trkpt>
      <trkpt lat="42.74683" lon="1.9567">
        <ele>1500.2</ele>
        <time>2024-10-11T12:33:06Z</time>
      </trkpt>
      <trkpt lat="42.74677" lon="1.95663">
        <ele>1500.2</ele>
        <time>2024-10-11T12:33:07Z</time>
      </trkpt>
      <trkpt lat="42.74671" lon="1.95656">
        <ele>1500.2</ele>
        <time>2024-10-11T12:33:08Z</time>
      </trkpt>
      <trkpt lat="42.74664" lon="1.95648">
        <ele>1496.8</ele>
        <time>2024-10-11T12:33:09Z</time>
      </trkpt>
      <trkpt lat="42.74657" lon="1.95641">
        <ele>1496.8</ele>
        <time>2024-10-11T12:33:10Z</time>
      </trkpt>
      <trkpt lat="42.7465" lon="1.95634">
        <ele>1496.8</ele>
        <time>2024-10-11T12:33:11Z</time>
      </trkpt>
      <trkpt lat="42.74643" lon="1.95625">
        <ele>1496.8</ele>
        <time>2024-10-11T12:33:12Z</time>
      </trkpt>
      <trkpt lat="42.7464" lon="1.95623">
        <ele>1496.8</ele>
        <time>2024-10-11T12:33:13Z</time>
      </trkpt>
      <trkpt lat="42.74633" lon="1.9562">
        <ele>1494.6</ele>
        <time>2024-10-11T12:33:14Z</time>
      </trkpt>
      <trkpt lat="42.7463" lon="1.9562">
        <ele>1494.6</ele>
        <time>2024-10-11T12:33:15Z</time>
      </trkpt>
      <trkpt lat="42.74622" lon="1.95621">
        <ele>1494.6</ele>
        <time>2024-10-11T12:33:16Z</time>
      </trkpt>
      <trkpt lat="42.74619" lon="1.95621">
        <ele>1494.6</ele>
        <time>2024-10-11T12:33:17Z</time>
      </trkpt>
      <trkpt lat="42.74613" lon="1.95622">
        <ele>1493.6</ele>
        <time>2024-10-11T12:33:18Z</time>
      </trkpt>
      <trkpt lat="42.74608" lon="1.9562">
        <ele>1493.6</ele>
        <time>2024-10-11T12:33:19Z</time>
      </trkpt>
      <trkpt lat="42.74604" lon="1.95617">
        <ele>1492.6</ele>
        <time>2024-10-11T12:33:20Z</time>
      </trkpt>
      <trkpt lat="42.746" lon="1.95612">
        <ele>1492.6</ele>
        <time>2024-10-11T12:33:21Z</time>
      </trkpt>
      <trkpt lat="42.74594" lon="1.95606">
        <ele>1491.6</ele>
        <time>2024-10-11T12:33:22Z</time>
      </trkpt>
      <trkpt lat="42.74588" lon="1.956">
        <ele>1490</ele>
        <time>2024-10-11T12:33:23Z</time>
      </trkpt>
      <trkpt lat="42.74581" lon="1.95596">
        <ele>1490</ele>
        <time>2024-10-11T12:33:24Z</time>
      </trkpt>
      <trkpt lat="42.74574" lon="1.9559">
        <ele>1490</ele>
        <time>2024-10-11T12:33:25Z</time>
      </trkpt>
      <trkpt lat="42.74568" lon="1.95584">
        <ele>1489</ele>
        <time>2024-10-11T12:33:26Z</time>
      </trkpt>
      <trkpt lat="42.74562" lon="1.95577">
        <ele>1489</ele>
        <time>2024-10-11T12:33:27Z</time>
      </trkpt>
      <trkpt lat="42.74557" lon="1.95573">
        <ele>1487</ele>
        <time>2024-10-11T12:33:28Z</time>
      </trkpt>
      <trkpt lat="42.74547" lon="1.95565">
        <ele>1487</ele>
        <time>2024-10-11T12:33:29Z</time>
      </trkpt>
      <trkpt lat="42.74543" lon="1.95562">
        <ele>1487</ele>
        <time>2024-10-11T12:33:30Z</time>
      </trkpt>
      <trkpt lat="42.74532" lon="1.95555">
        <ele>1486</ele>
        <time>2024-10-11T12:33:31Z</time>
      </trkpt>
      <trkpt lat="42.74529" lon="1.95552">
        <ele>1484</ele>
        <time>2024-10-11T12:33:32Z</time>
      </trkpt>
      <trkpt lat="42.74518" lon="1.95546">
        <ele>1484</ele>
        <time>2024-10-11T12:33:33Z</time>
      </trkpt>
      <trkpt lat="42.74514" lon="1.95544">
        <ele>1484</ele>
        <time>2024-10-11T12:33:34Z</time>
      </trkpt>
      <trkpt lat="42.74504" lon="1.95537">
        <ele>1483</ele>
        <time>2024-10-11T12:33:35Z</time>
      </trkpt>
      <trkpt lat="42.745" lon="1.95536">
        <ele>1481.2</ele>
        <time>2024-10-11T12:33:36Z</time>
      </trkpt>
      <trkpt lat="42.74493" lon="1.95532">
        <ele>1481.2</ele>
        <time>2024-10-11T12:33:37Z</time>
      </trkpt>
      <trkpt lat="42.74483" lon="1.95522">
        <ele>1481.2</ele>
        <time>2024-10-11T12:33:38Z</time>
      </trkpt>
      <trkpt lat="42.7448" lon="1.95518">
        <ele>1481.2</ele>
        <time>2024-10-11T12:33:39Z</time>
      </trkpt>
      <trkpt lat="42.74473" lon="1.95511">
        <ele>1479.6</ele>
        <time>2024-10-11T12:33:40Z</time>
      </trkpt>
      <trkpt lat="42.74465" lon="1.95506">
        <ele>1479.6</ele>
        <time>2024-10-11T12:33:41Z</time>
      </trkpt>
      <trkpt lat="42.74454" lon="1.95499">
        <ele>1479.6</ele>
        <time>2024-10-11T12:33:42Z</time>
      </trkpt>
      <trkpt lat="42.7445" lon="1.95496">
        <ele>1479.6</ele>
        <time>2024-10-11T12:33:43Z</time>
      </trkpt>
      <trkpt lat="42.7444" lon="1.95488">
        <ele>1478.6</ele>
        <time>2024-10-11T12:33:44Z</time>
      </trkpt>
      <trkpt lat="42.74437" lon="1.95485">
        <ele>1475.4</ele>
        <time>2024-10-11T12:33:45Z</time>
      </trkpt>
      <trkpt lat="42.74427" lon="1.95475">
        <ele>1475.4</ele>
        <time>2024-10-11T12:33:46Z</time>
      </trkpt>
      <trkpt lat="42.74423" lon="1.95473">
        <ele>1475.4</ele>
        <time>2024-10-11T12:33:47Z</time>
      </trkpt>
      <trkpt lat="42.74416" lon="1.95468">
        <ele>1474.4</ele>
        <time>2024-10-11T12:33:48Z</time>
      </trkpt>
      <trkpt lat="42.74408" lon="1.95464">
        <ele>1474.4</ele>
        <time>2024-10-11T12:33:49Z</time>
      </trkpt>
      <trkpt lat="42.74401" lon="1.9546">
        <ele>1474.4</ele>
        <time>2024-10-11T12:33:50Z</time>
      </trkpt>
      <trkpt lat="42.74395" lon="1.95454">
        <ele>1474.4</ele>
        <time>2024-10-11T12:33:51Z</time>
      </trkpt>
      <trkpt lat="42.74385" lon="1.95449">
        <ele>1474.4</ele>
        <time>2024-10-11T12:33:52Z</time>
      </trkpt>
      <trkpt lat="42.74382" lon="1.95448">
        <ele>1473.4</ele>
        <time>2024-10-11T12:33:53Z</time>
      </trkpt>
      <trkpt lat="42.74372" lon="1.95447">
        <ele>1473.4</ele>
        <time>2024-10-11T12:33:54Z</time>
      </trkpt>
      <trkpt lat="42.74368" lon="1.95448">
        <ele>1470.2</ele>
        <time>2024-10-11T12:33:55Z</time>
      </trkpt>
      <trkpt lat="42.74359" lon="1.95451">
        <ele>1470.2</ele>
        <time>2024-10-11T12:33:56Z</time>
      </trkpt>
      <trkpt lat="42.74356" lon="1.95453">
        <ele>1470.2</ele>
        <time>2024-10-11T12:33:57Z</time>
      </trkpt>
      <trkpt lat="42.74348" lon="1.95459">
        <ele>1469.2</ele>
        <time>2024-10-11T12:33:58Z</time>
      </trkpt>
      <trkpt lat="42.74346" lon="1.95463">
        <ele>1467.2</ele>
        <time>2024-10-11T12:33:59Z</time>
      </trkpt>
      <trkpt lat="42.74342" lon="1.95474">
        <ele>1467.2</ele>
        <time>2024-10-11T12:34:00Z</time>
      </trkpt>
      <trkpt lat="42.74341" lon="1.95479">
        <ele>1467.2</ele>
        <time>2024-10-11T12:34:01Z</time>
      </trkpt>
      <trkpt lat="42.74339" lon="1.95487">
        <ele>1467.2</ele>
        <time>2024-10-11T12:34:02Z</time>
      </trkpt>
      <trkpt lat="42.74339" lon="1.95498">
        <ele>1465</ele>
        <time>2024-10-11T12:34:03Z</time>
      </trkpt>
      <trkpt lat="42.74339" lon="1.95507">
        <ele>1465</ele>
        <time>2024-10-11T12:34:04Z</time>
      </trkpt>
      <trkpt lat="42.74338" lon="1.95519">
        <ele>1465</ele>
        <time>2024-10-11T12:34:05Z</time>
      </trkpt>
      <trkpt lat="42.74339" lon="1.9553">
        <ele>1465</ele>
        <time>2024-10-11T12:34:06Z</time>
      </trkpt>
      <trkpt lat="42.74339" lon="1.95542">
        <ele>1464</ele>
        <time>2024-10-11T12:34:07Z</time>
      </trkpt>
      <trkpt lat="42.74333" lon="1.95555">
        <ele>1462.8</ele>
        <time>2024-10-11T12:34:08Z</time>
      </trkpt>
      <trkpt lat="42.74335" lon="1.95566">
        <ele>1462.8</ele>
        <time>2024-10-11T12:34:09Z</time>
      </trkpt>
      <trkpt lat="42.74337" lon="1.95576">
        <ele>1462.8</ele>
        <time>2024-10-11T12:34:10Z</time>
      </trkpt>
      <trkpt lat="42.74338" lon="1.95587">
        <ele>1461.8</ele>
        <time>2024-10-11T12:34:11Z</time>
      </trkpt>
      <trkpt lat="42.74341" lon="1.95602">
        <ele>1458.8</ele>
        <time>2024-10-11T12:34:12Z</time>
      </trkpt>
      <trkpt lat="42.74342" lon="1.95606">
        <ele>1458.8</ele>
        <time>2024-10-11T12:34:13Z</time>
      </trkpt>
      <trkpt lat="42.74344" lon="1.95616">
        <ele>1458.8</ele>
        <time>2024-10-11T12:34:14Z</time>
      </trkpt>
      <trkpt lat="42.74347" lon="1.95635">
        <ele>1457.8</ele>
        <time>2024-10-11T12:34:15Z</time>
      </trkpt>
      <trkpt lat="42.74348" lon="1.9564">
        <ele>1457.8</ele>
        <time>2024-10-11T12:34:16Z</time>
      </trkpt>
      <trkpt lat="42.74354" lon="1.95656">
        <ele>1456.6</ele>
        <time>2024-10-11T12:34:17Z</time>
      </trkpt>
      <trkpt lat="42.74357" lon="1.95661">
        <ele>1456.6</ele>
        <time>2024-10-11T12:34:18Z</time>
      </trkpt>
      <trkpt lat="42.74365" lon="1.95676">
        <ele>1456.6</ele>
        <time>2024-10-11T12:34:19Z</time>
      </trkpt>
      <trkpt lat="42.74367" lon="1.95681">
        <ele>1456.6</ele>
        <time>2024-10-11T12:34:20Z</time>
      </trkpt>
      <trkpt lat="42.74375" lon="1.95696">
        <ele>1452</ele>
        <time>2024-10-11T12:34:21Z</time>
      </trkpt>
      <trkpt lat="42.74378" lon="1.95701">
        <ele>1452</ele>
        <time>2024-10-11T12:34:22Z</time>
      </trkpt>
      <trkpt lat="42.74387" lon="1.95715">
        <ele>1452</ele>
        <time>2024-10-11T12:34:23Z</time>
      </trkpt>
      <trkpt lat="42.7439" lon="1.9572">
        <ele>1451</ele>
        <time>2024-10-11T12:34:24Z</time>
      </trkpt>
      <trkpt lat="42.74398" lon="1.95734">
        <ele>1448.6</ele>
        <time>2024-10-11T12:34:25Z</time>
      </trkpt>
      <trkpt lat="42.744" lon="1.95738">
        <ele>1448.6</ele>
        <time>2024-10-11T12:34:26Z</time>
      </trkpt>
      <trkpt lat="42.74407" lon="1.9575">
        <ele>1448.6</ele>
        <time>2024-10-11T12:34:27Z</time>
      </trkpt>
      <trkpt lat="42.7441" lon="1.95754">
        <ele>1448.6</ele>
        <time>2024-10-11T12:34:28Z</time>
      </trkpt>
      <trkpt lat="42.74415" lon="1.95765">
        <ele>1447.6</ele>
        <time>2024-10-11T12:34:29Z</time>
      </trkpt>
      <trkpt lat="42.74416" lon="1.95768">
        <ele>1445</ele>
        <time>2024-10-11T12:34:30Z</time>
      </trkpt>
      <trkpt lat="42.74418" lon="1.95775">
        <ele>1445</ele>
        <time>2024-10-11T12:34:31Z</time>
      </trkpt>
      <trkpt lat="42.74417" lon="1.95783">
        <ele>1445</ele>
        <time>2024-10-11T12:34:32Z</time>
      </trkpt>
      <trkpt lat="42.74417" lon="1.95791">
        <ele>1445</ele>
        <time>2024-10-11T12:34:33Z</time>
      </trkpt>
      <trkpt lat="42.74418" lon="1.958">
        <ele>1442.8</ele>
        <time>2024-10-11T12:34:34Z</time>
      </trkpt>
      <trkpt lat="42.74416" lon="1.95814">
        <ele>1442.8</ele>
        <time>2024-10-11T12:34:35Z</time>
      </trkpt>
      <trkpt lat="42.74417" lon="1.95818">
        <ele>1442.8</ele>
        <time>2024-10-11T12:34:36Z</time>
      </trkpt>
      <trkpt lat="42.74418" lon="1.95831">
        <ele>1442.8</ele>
        <time>2024-10-11T12:34:37Z</time>
      </trkpt>
      <trkpt lat="42.74419" lon="1.95836">
        <ele>1442.8</ele>
        <time>2024-10-11T12:34:38Z</time>
      </trkpt>
      <trkpt lat="42.74423" lon="1.9585">
        <ele>1439.8</ele>
        <time>2024-10-11T12:34:39Z</time>
      </trkpt>
      <trkpt lat="42.74425" lon="1.95854">
        <ele>1439.8</ele>
        <time>2024-10-11T12:34:40Z</time>
      </trkpt>
      <trkpt lat="42.7443" lon="1.95869">
        <ele>1439.8</ele>
        <time>2024-10-11T12:34:41Z</time>
      </trkpt>
      <trkpt lat="42.74432" lon="1.95874">
        <ele>1439.8</ele>
        <time>2024-10-11T12:34:42Z</time>
      </trkpt>
      <trkpt lat="42.74439" lon="1.95889">
        <ele>1438.8</ele>
        <time>2024-10-11T12:34:43Z</time>
      </trkpt>
      <trkpt lat="42.74441" lon="1.95893">
        <ele>1437</ele>
        <time>2024-10-11T12:34:44Z</time>
      </trkpt>
      <trkpt lat="42.74445" lon="1.95902">
        <ele>1437</ele>
        <time>2024-10-11T12:34:45Z</time>
      </trkpt>
      <trkpt lat="42.74449" lon="1.95911">
        <ele>1437</ele>
        <time>2024-10-11T12:34:46Z</time>
      </trkpt>
      <trkpt lat="42.74453" lon="1.95918">
        <ele>1437</ele>
        <time>2024-10-11T12:34:47Z</time>
      </trkpt>
      <trkpt lat="42.74457" lon="1.95925">
        <ele>1433.2</ele>
        <time>2024-10-11T12:34:48Z</time>
      </trkpt>
      <trkpt lat="42.74461" lon="1.95931">
        <ele>1433.2</ele>
        <time>2024-10-11T12:34:49Z</time>
      </trkpt>
      <trkpt lat="42.74465" lon="1.95935">
        <ele>1433.2</ele>
        <time>2024-10-11T12:34:50Z</time>
      </trkpt>
      <trkpt lat="42.7447" lon="1.95939">
        <ele>1433.2</ele>
        <time>2024-10-11T12:34:51Z</time>
      </trkpt>
      <trkpt lat="42.74476" lon="1.95941">
        <ele>1432.2</ele>
        <time>2024-10-11T12:34:52Z</time>
      </trkpt>
      <trkpt lat="42.74487" lon="1.95939">
        <ele>1431.4</ele>
        <time>2024-10-11T12:34:53Z</time>
      </trkpt>
      <trkpt lat="42.74491" lon="1.95938">
        <ele>1431.4</ele>
        <time>2024-10-11T12:34:54Z</time>
      </trkpt>
      <trkpt lat="42.74504" lon="1.95935">
        <ele>1431.4</ele>
        <time>2024-10-11T12:34:55Z</time>
      </trkpt>
      <trkpt lat="42.74509" lon="1.95934">
        <ele>1430.4</ele>
        <time>2024-10-11T12:34:56Z</time>
      </trkpt>
      <trkpt lat="42.74522" lon="1.9593">
        <ele>1430.4</ele>
        <time>2024-10-11T12:34:57Z</time>
      </trkpt>
      <trkpt lat="42.74527" lon="1.95928">
        <ele>1425.8</ele>
        <time>2024-10-11T12:34:58Z</time>
      </trkpt>
      <trkpt lat="42.74535" lon="1.95925">
        <ele>1425.8</ele>
        <time>2024-10-11T12:34:59Z</time>
      </trkpt>
      <trkpt lat="42.7455" lon="1.9592">
        <ele>1425.8</ele>
        <time>2024-10-11T12:35:00Z</time>
      </trkpt>
      <trkpt lat="42.74555" lon="1.95918">
        <ele>1425.8</ele>
        <time>2024-10-11T12:35:01Z</time>
      </trkpt>
      <trkpt lat="42.7457" lon="1.95914">
        <ele>1423</ele>
        <time>2024-10-11T12:35:02Z</time>
      </trkpt>
      <trkpt lat="42.74575" lon="1.95912">
        <ele>1423</ele>
        <time>2024-10-11T12:35:03Z</time>
      </trkpt>
      <trkpt lat="42.74589" lon="1.95907">
        <ele>1423</ele>
        <time>2024-10-11T12:35:04Z</time>
      </trkpt>
      <trkpt lat="42.74593" lon="1.95906">
        <ele>1422</ele>
        <time>2024-10-11T12:35:05Z</time>
      </trkpt>
      <trkpt lat="42.74604" lon="1.95902">
        <ele>1419.8</ele>
        <time>2024-10-11T12:35:06Z</time>
      </trkpt>
      <trkpt lat="42.74608" lon="1.95902">
        <ele>1419.8</ele>
        <time>2024-10-11T12:35:07Z</time>
      </trkpt>
      <trkpt lat="42.74617" lon="1.95901">
        <ele>1419.8</ele>
        <time>2024-10-11T12:35:08Z</time>
      </trkpt>
      <trkpt lat="42.74624" lon="1.95903">
        <ele>1419.8</ele>
        <time>2024-10-11T12:35:09Z</time>
      </trkpt>
      <trkpt lat="42.74632" lon="1.95904">
        <ele>1414.8</ele>
        <time>2024-10-11T12:35:10Z</time>
      </trkpt>
      <trkpt lat="42.7464" lon="1.95908">
        <ele>1414.8</ele>
        <time>2024-10-11T12:35:11Z</time>
      </trkpt>
      <trkpt lat="42.74651" lon="1.95915">
        <ele>1414.8</ele>
        <time>2024-10-11T12:35:12Z</time>
      </trkpt>
      <trkpt lat="42.74655" lon="1.95917">
        <ele>1414.8</ele>
        <time>2024-10-11T12:35:13Z</time>
      </trkpt>
      <trkpt lat="42.74662" lon="1.95923">
        <ele>1414.8</ele>
        <time>2024-10-11T12:35:14Z</time>
      </trkpt>
      <trkpt lat="42.7467" lon="1.95928">
        <ele>1412.4</ele>
        <time>2024-10-11T12:35:15Z</time>
      </trkpt>
      <trkpt lat="42.74678" lon="1.95933">
        <ele>1412.4</ele>
        <time>2024-10-11T12:35:16Z</time>
      </trkpt>
      <trkpt lat="42.74688" lon="1.95938">
        <ele>1412.4</ele>
        <time>2024-10-11T12:35:17Z</time>
      </trkpt>
      <trkpt lat="42.74701" lon="1.95945">
        <ele>1412.4</ele>
        <time>2024-10-11T12:35:18Z</time>
      </trkpt>
      <trkpt lat="42.74706" lon="1.95947">
        <ele>1407.8</ele>
        <time>2024-10-11T12:35:19Z</time>
      </trkpt>
      <trkpt lat="42.74718" lon="1.95953">
        <ele>1407.8</ele>
        <time>2024-10-11T12:35:20Z</time>
      </trkpt>
      <trkpt lat="42.74723" lon="1.95955">
        <ele>1407.8</ele>
        <time>2024-10-11T12:35:21Z</time>
      </trkpt>
      <trkpt lat="42.74735" lon="1.95962">
        <ele>1407.8</ele>
        <time>2024-10-11T12:35:22Z</time>
      </trkpt>
      <trkpt lat="42.74739" lon="1.95964">
        <ele>1407.8</ele>
        <time>2024-10-11T12:35:23Z</time>
      </trkpt>
      <trkpt lat="42.7475" lon="1.95971">
        <ele>1404.8</ele>
        <time>2024-10-11T12:35:24Z</time>
      </trkpt>
      <trkpt lat="42.74753" lon="1.95973">
        <ele>1404.8</ele>
        <time>2024-10-11T12:35:25Z</time>
      </trkpt>
      <trkpt lat="42.74763" lon="1.9598">
        <ele>1404.8</ele>
        <time>2024-10-11T12:35:26Z</time>
      </trkpt>
      <trkpt lat="42.74767" lon="1.95983">
        <ele>1404.8</ele>
        <time>2024-10-11T12:35:27Z</time>
      </trkpt>
      <trkpt lat="42.74777" lon="1.95991">
        <ele>1403.8</ele>
        <time>2024-10-11T12:35:28Z</time>
      </trkpt>
      <trkpt lat="42.74781" lon="1.95994">
        <ele>1400.4</ele>
        <time>2024-10-11T12:35:29Z</time>
      </trkpt>
      <trkpt lat="42.74788" lon="1.96">
        <ele>1400.4</ele>
        <time>2024-10-11T12:35:30Z</time>
      </trkpt>
      <trkpt lat="42.74794" lon="1.96004">
        <ele>1400.4</ele>
        <time>2024-10-11T12:35:31Z</time>
      </trkpt>
      <trkpt lat="42.74799" lon="1.96008">
        <ele>1399.4</ele>
        <time>2024-10-11T12:35:32Z</time>
      </trkpt>
      <trkpt lat="42.74804" lon="1.96012">
        <ele>1397.8</ele>
        <time>2024-10-11T12:35:33Z</time>
      </trkpt>
      <trkpt lat="42.7481" lon="1.96012">
        <ele>1397.8</ele>
        <time>2024-10-11T12:35:34Z</time>
      </trkpt>
      <trkpt lat="42.74817" lon="1.96014">
        <ele>1397.8</ele>
        <time>2024-10-11T12:35:35Z</time>
      </trkpt>
      <trkpt lat="42.74824" lon="1.96013">
        <ele>1396.8</ele>
        <time>2024-10-11T12:35:36Z</time>
      </trkpt>
      <trkpt lat="42.74831" lon="1.96012">
        <ele>1396.8</ele>
        <time>2024-10-11T12:35:37Z</time>
      </trkpt>
      <trkpt lat="42.74843" lon="1.96012">
        <ele>1395.6</ele>
        <time>2024-10-11T12:35:38Z</time>
      </trkpt>
      <trkpt lat="42.74847" lon="1.96012">
        <ele>1395.6</ele>
        <time>2024-10-11T12:35:39Z</time>
      </trkpt>
      <trkpt lat="42.7486" lon="1.96012">
        <ele>1395.6</ele>
        <time>2024-10-11T12:35:40Z</time>
      </trkpt>
      <trkpt lat="42.74864" lon="1.96012">
        <ele>1394.6</ele>
        <time>2024-10-11T12:35:41Z</time>
      </trkpt>
      <trkpt lat="42.74873" lon="1.96012">
        <ele>1390.8</ele>
        <time>2024-10-11T12:35:42Z</time>
      </trkpt>
      <trkpt lat="42.74881" lon="1.96011">
        <ele>1390.8</ele>
        <time>2024-10-11T12:35:43Z</time>
      </trkpt>
      <trkpt lat="42.74888" lon="1.96012">
        <ele>1390.8</ele>
        <time>2024-10-11T12:35:44Z</time>
      </trkpt>
      <trkpt lat="42.74897" lon="1.96011">
        <ele>1390.8</ele>
        <time>2024-10-11T12:35:45Z</time>
      </trkpt>
      <trkpt lat="42.749" lon="1.9601">
        <ele>1389</ele>
        <time>2024-10-11T12:35:46Z</time>
      </trkpt>
      <trkpt lat="42.74907" lon="1.96008">
        <ele>1389</ele>
        <time>2024-10-11T12:35:47Z</time>
      </trkpt>
      <trkpt lat="42.74917" lon="1.96006">
        <ele>1389</ele>
        <time>2024-10-11T12:35:48Z</time>
      </trkpt>
      <trkpt lat="42.74921" lon="1.96005">
        <ele>1389</ele>
        <time>2024-10-11T12:35:49Z</time>
      </trkpt>
      <trkpt lat="42.74933" lon="1.96002">
        <ele>1388</ele>
        <time>2024-10-11T12:35:50Z</time>
      </trkpt>
      <trkpt lat="42.74937" lon="1.96002">
        <ele>1388</ele>
        <time>2024-10-11T12:35:51Z</time>
      </trkpt>
      <trkpt lat="42.74949" lon="1.96">
        <ele>1385</ele>
        <time>2024-10-11T12:35:52Z</time>
      </trkpt>
      <trkpt lat="42.74953" lon="1.95999">
        <ele>1385</ele>
        <time>2024-10-11T12:35:53Z</time>
      </trkpt>
      <trkpt lat="42.74964" lon="1.95998">
        <ele>1384</ele>
        <time>2024-10-11T12:35:54Z</time>
      </trkpt>
      <trkpt lat="42.74967" lon="1.95998">
        <ele>1382.4</ele>
        <time>2024-10-11T12:35:55Z</time>
      </trkpt>
      <trkpt lat="42.74974" lon="1.95997">
        <ele>1382.4</ele>
        <time>2024-10-11T12:35:56Z</time>
      </trkpt>
      <trkpt lat="42.7498" lon="1.95998">
        <ele>1382.4</ele>
        <time>2024-10-11T12:35:57Z</time>
      </trkpt>
      <trkpt lat="42.74985" lon="1.95999">
        <ele>1382.4</ele>
        <time>2024-10-11T12:35:58Z</time>
      </trkpt>
      <trkpt lat="42.74991" lon="1.96001">
        <ele>1379.2</ele>
        <time>2024-10-11T12:35:59Z</time>
      </trkpt>
      <trkpt lat="42.74997" lon="1.96004">
        <ele>1379.2</ele>
        <time>2024-10-11T12:36:00Z</time>
      </trkpt>
      <trkpt lat="42.75005" lon="1.96008">
        <ele>1379.2</ele>
        <time>2024-10-11T12:36:01Z</time>
      </trkpt>
      <trkpt lat="42.75016" lon="1.96009">
        <ele>1379.2</ele>
        <time>2024-10-11T12:36:02Z</time>
      </trkpt>
      <trkpt lat="42.7502" lon="1.96009">
        <ele>1379.2</ele>
        <time>2024-10-11T12:36:03Z</time>
      </trkpt>
      <trkpt lat="42.75027" lon="1.96008">
        <ele>1376</ele>
        <time>2024-10-11T12:36:04Z</time>
      </trkpt>
      <trkpt lat="42.75038" lon="1.96007">
        <ele>1376</ele>
        <time>2024-10-11T12:36:05Z</time>
      </trkpt>
      <trkpt lat="42.75042" lon="1.96007">
        <ele>1376</ele>
        <time>2024-10-11T12:36:06Z</time>
      </trkpt>
      <trkpt lat="42.75054" lon="1.96004">
        <ele>1376</ele>
        <time>2024-10-11T12:36:07Z</time>
      </trkpt>
      <trkpt lat="42.75057" lon="1.96002">
        <ele>1375</ele>
        <time>2024-10-11T12:36:08Z</time>
      </trkpt>
      <trkpt lat="42.75068" lon="1.95994">
        <ele>1372.2</ele>
        <time>2024-10-11T12:36:09Z</time>
      </trkpt>
      <trkpt lat="42.7507" lon="1.9599">
        <ele>1372.2</ele>
        <time>2024-10-11T12:36:10Z</time>
      </trkpt>
      <trkpt lat="42.75078" lon="1.9598">
        <ele>1372.2</ele>
        <time>2024-10-11T12:36:11Z</time>
      </trkpt>
      <trkpt lat="42.7508" lon="1.95977">
        <ele>1372.2</ele>
        <time>2024-10-11T12:36:12Z</time>
      </trkpt>
      <trkpt lat="42.75085" lon="1.9597">
        <ele>1371.2</ele>
        <time>2024-10-11T12:36:13Z</time>
      </trkpt>
      <trkpt lat="42.75091" lon="1.95966">
        <ele>1369.6</ele>
        <time>2024-10-11T12:36:14Z</time>
      </trkpt>
      <trkpt lat="42.75098" lon="1.95964">
        <ele>1369.6</ele>
        <time>2024-10-11T12:36:15Z</time>
      </trkpt>
      <trkpt lat="42.75105" lon="1.95964">
        <ele>1369.6</ele>
        <time>2024-10-11T12:36:16Z</time>
      </trkpt>
      <trkpt lat="42.75112" lon="1.95965">
        <ele>1369.6</ele>
        <time>2024-10-11T12:36:17Z</time>
      </trkpt>
      <trkpt lat="42.75124" lon="1.95963">
        <ele>1366.8</ele>
        <time>2024-10-11T12:36:18Z</time>
      </trkpt>
      <trkpt lat="42.75128" lon="1.95962">
        <ele>1366.8</ele>
        <time>2024-10-11T12:36:19Z</time>
      </trkpt>
      <trkpt lat="42.75136" lon="1.95961">
        <ele>1366.8</ele>
        <time>2024-10-11T12:36:20Z</time>
      </trkpt>
      <trkpt lat="42.75145" lon="1.95958">
        <ele>1365.8</ele>
        <time>2024-10-11T12:36:21Z</time>
      </trkpt>
      <trkpt lat="42.75157" lon="1.95955">
        <ele>1363.4</ele>
        <time>2024-10-11T12:36:22Z</time>
      </trkpt>
      <trkpt lat="42.75161" lon="1.95955">
        <ele>1363.4</ele>
        <time>2024-10-11T12:36:23Z</time>
      </trkpt>
      <trkpt lat="42.75169" lon="1.95954">
        <ele>1363.4</ele>
        <time>2024-10-11T12:36:24Z</time>
      </trkpt>
      <trkpt lat="42.75181" lon="1.95953">
        <ele>1363.4</ele>
        <time>2024-10-11T12:36:25Z</time>
      </trkpt>
      <trkpt lat="42.75186" lon="1.95952">
        <ele>1363.4</ele>
        <time>2024-10-11T12:36:26Z</time>
      </trkpt>
      <trkpt lat="42.75195" lon="1.9595">
        <ele>1360</ele>
        <time>2024-10-11T12:36:27Z</time>
      </trkpt>
      <trkpt lat="42.75205" lon="1.95949">
        <ele>1360</ele>
        <time>2024-10-11T12:36:28Z</time>
      </trkpt>
      <trkpt lat="42.75213" lon="1.95946">
        <ele>1360</ele>
        <time>2024-10-11T12:36:29Z</time>
      </trkpt>
      <trkpt lat="42.75222" lon="1.95944">
        <ele>1359</ele>
        <time>2024-10-11T12:36:30Z</time>
      </trkpt>
      <trkpt lat="42.75232" lon="1.95941">
        <ele>1356.2</ele>
        <time>2024-10-11T12:36:31Z</time>
      </trkpt>
      <trkpt lat="42.75235" lon="1.95941">
        <ele>1356.2</ele>
        <time>2024-10-11T12:36:32Z</time>
      </trkpt>
      <trkpt lat="42.75245" lon="1.95938">
        <ele>1356.2</ele>
        <time>2024-10-11T12:36:33Z</time>
      </trkpt>
      <trkpt lat="42.75249" lon="1.95937">
        <ele>1355.2</ele>
        <time>2024-10-11T12:36:34Z</time>
      </trkpt>
      <trkpt lat="42.75256" lon="1.95935">
        <ele>1353</ele>
        <time>2024-10-11T12:36:35Z</time>
      </trkpt>
      <trkpt lat="42.75266" lon="1.95934">
        <ele>1353</ele>
        <time>2024-10-11T12:36:36Z</time>
      </trkpt>
      <trkpt lat="42.75269" lon="1.95934">
        <ele>1353</ele>
        <time>2024-10-11T12:36:37Z</time>
      </trkpt>
      <trkpt lat="42.75278" lon="1.95935">
        <ele>1353</ele>
        <time>2024-10-11T12:36:38Z</time>
      </trkpt>
      <trkpt lat="42.75282" lon="1.95936">
        <ele>1352</ele>
        <time>2024-10-11T12:36:39Z</time>
      </trkpt>
      <trkpt lat="42.75291" lon="1.95938">
        <ele>1350.6</ele>
        <time>2024-10-11T12:36:40Z</time>
      </trkpt>
      <trkpt lat="42.75294" lon="1.95937">
        <ele>1350.6</ele>
        <time>2024-10-11T12:36:41Z</time>
      </trkpt>
      <trkpt lat="42.75299" lon="1.95936">
        <ele>1350.6</ele>
        <time>2024-10-11T12:36:42Z</time>
      </trkpt>
      <trkpt lat="42.75305" lon="1.95923">
        <ele>1349.6</ele>
        <time>2024-10-11T12:36:43Z</time>
      </trkpt>
      <trkpt lat="42.75306" lon="1.95916">
        <ele>1348.8</ele>
        <time>2024-10-11T12:36:44Z</time>
      </trkpt>
      <trkpt lat="42.7531" lon="1.95901">
        <ele>1348.8</ele>
        <time>2024-10-11T12:36:45Z</time>
      </trkpt>
      <trkpt lat="42.75301" lon="1.95899">
        <ele>1348.8</ele>
        <time>2024-10-11T12:36:46Z</time>
      </trkpt>
      <trkpt lat="42.75298" lon="1.95898">
        <ele>1348.8</ele>
        <time>2024-10-11T12:36:47Z</time>
      </trkpt>
      <trkpt lat="42.7529" lon="1.95899">
        <ele>1348.8</ele>
        <time>2024-10-11T12:36:48Z</time>
      </trkpt>
      <trkpt lat="42.75287" lon="1.959">
        <ele>1348.2</ele>
        <time>2024-10-11T12:36:49Z</time>
      </trkpt>
      <trkpt lat="42.75277" lon="1.95902">
        <ele>1346.8</ele>
        <time>2024-10-11T12:36:50Z</time>
      </trkpt>
      <trkpt lat="42.75274" lon="1.95903">
        <ele>1346.8</ele>
        <time>2024-10-11T12:36:51Z</time>
      </trkpt>
      <trkpt lat="42.75264" lon="1.95903">
        <ele>1346.8</ele>
        <time>2024-10-11T12:36:52Z</time>
      </trkpt>
      <trkpt lat="42.75261" lon="1.95903">
        <ele>1346.4</ele>
        <time>2024-10-11T12:36:53Z</time>
      </trkpt>
      <trkpt lat="42.75251" lon="1.95904">
        <ele>1346.6</ele>
        <time>2024-10-11T12:36:54Z</time>
      </trkpt>
      <trkpt lat="42.75248" lon="1.95905">
        <ele>1346.6</ele>
        <time>2024-10-11T12:36:55Z</time>
      </trkpt>
      <trkpt lat="42.75238" lon="1.95905">
        <ele>1346.6</ele>
        <time>2024-10-11T12:36:56Z</time>
      </trkpt>
      <trkpt lat="42.75235" lon="1.95905">
        <ele>1345.6</ele>
        <time>2024-10-11T12:36:57Z</time>
      </trkpt>
      <trkpt lat="42.75228" lon="1.95904">
        <ele>1345.6</ele>
        <time>2024-10-11T12:36:58Z</time>
      </trkpt>
      <trkpt lat="42.75221" lon="1.95905">
        <ele>1344</ele>
        <time>2024-10-11T12:36:59Z</time>
      </trkpt>
      <trkpt lat="42.75214" lon="1.95906">
        <ele>1344</ele>
        <time>2024-10-11T12:37:00Z</time>
      </trkpt>
      <trkpt lat="42.75206" lon="1.95906">
        <ele>1344</ele>
        <time>2024-10-11T12:37:01Z</time>
      </trkpt>
      <trkpt lat="42.75195" lon="1.95908">
        <ele>1343</ele>
        <time>2024-10-11T12:37:02Z</time>
      </trkpt>
      <trkpt lat="42.75191" lon="1.95908">
        <ele>1342.4</ele>
        <time>2024-10-11T12:37:03Z</time>
      </trkpt>
      <trkpt lat="42.75181" lon="1.95909">
        <ele>1342.4</ele>
        <time>2024-10-11T12:37:04Z</time>
      </trkpt>
      <trkpt lat="42.75177" lon="1.95909">
        <ele>1342.4</ele>
        <time>2024-10-11T12:37:05Z</time>
      </trkpt>
      <trkpt lat="42.75166" lon="1.95909">
        <ele>1342.4</ele>
        <time>2024-10-11T12:37:06Z</time>
      </trkpt>
      <trkpt lat="42.75163" lon="1.95908">
        <ele>1340.8</ele>
        <time>2024-10-11T12:37:07Z</time>
      </trkpt>
      <trkpt lat="42.75151" lon="1.95906">
        <ele>1340.8</ele>
        <time>2024-10-11T12:37:08Z</time>
      </trkpt>
      <trkpt lat="42.75147" lon="1.95905">
        <ele>1340.8</ele>
        <time>2024-10-11T12:37:09Z</time>
      </trkpt>
      <trkpt lat="42.75139" lon="1.95903">
        <ele>1340.8</ele>
        <time>2024-10-11T12:37:10Z</time>
      </trkpt>
      <trkpt lat="42.75131" lon="1.959">
        <ele>1339.8</ele>
        <time>2024-10-11T12:37:11Z</time>
      </trkpt>
      <trkpt lat="42.75119" lon="1.959">
        <ele>1338</ele>
        <time>2024-10-11T12:37:12Z</time>
      </trkpt>
      <trkpt lat="42.75116" lon="1.95901">
        <ele>1338</ele>
        <time>2024-10-11T12:37:13Z</time>
      </trkpt>
      <trkpt lat="42.75109" lon="1.95903">
        <ele>1338</ele>
        <time>2024-10-11T12:37:14Z</time>
      </trkpt>
      <trkpt lat="42.75097" lon="1.95905">
        <ele>1337</ele>
        <time>2024-10-11T12:37:15Z</time>
      </trkpt>
      <trkpt lat="42.75093" lon="1.95907">
        <ele>1335.8</ele>
        <time>2024-10-11T12:37:16Z</time>
      </trkpt>
      <trkpt lat="42.75086" lon="1.95909">
        <ele>1335.8</ele>
        <time>2024-10-11T12:37:17Z</time>
      </trkpt>
      <trkpt lat="42.75079" lon="1.9591">
        <ele>1335.8</ele>
        <time>2024-10-11T12:37:18Z</time>
      </trkpt>
      <trkpt lat="42.7507" lon="1.95907">
        <ele>1335</ele>
        <time>2024-10-11T12:37:19Z</time>
      </trkpt>
      <trkpt lat="42.75068" lon="1.95905">
        <ele>1333.6</ele>
        <time>2024-10-11T12:37:20Z</time>
      </trkpt>
      <trkpt lat="42.75062" lon="1.95898">
        <ele>1333.6</ele>
        <time>2024-10-11T12:37:21Z</time>
      </trkpt>
      <trkpt lat="42.7506" lon="1.95895">
        <ele>1333.6</ele>
        <time>2024-10-11T12:37:22Z</time>
      </trkpt>
      <trkpt lat="42.75061" lon="1.95887">
        <ele>1333.6</ele>
        <time>2024-10-11T12:37:23Z</time>
      </trkpt>
      <trkpt lat="42.75062" lon="1.95884">
        <ele>1333.2</ele>
        <time>2024-10-11T12:37:24Z</time>
      </trkpt>
      <trkpt lat="42.75065" lon="1.95878">
        <ele>1332.6</ele>
        <time>2024-10-11T12:37:25Z</time>
      </trkpt>
      <trkpt lat="42.7507" lon="1.95874">
        <ele>1332.6</ele>
        <time>2024-10-11T12:37:26Z</time>
      </trkpt>
      <trkpt lat="42.75076" lon="1.9587">
        <ele>1332.6</ele>
        <time>2024-10-11T12:37:27Z</time>
      </trkpt>
      <trkpt lat="42.75082" lon="1.95868">
        <ele>1331.6</ele>
        <time>2024-10-11T12:37:28Z</time>
      </trkpt>
      <trkpt lat="42.75091" lon="1.95864">
        <ele>1331.6</ele>
        <time>2024-10-11T12:37:29Z</time>
      </trkpt>
      <trkpt lat="42.75095" lon="1.95864">
        <ele>1329.8</ele>
        <time>2024-10-11T12:37:30Z</time>
      </trkpt>
      <trkpt lat="42.75107" lon="1.95864">
        <ele>1329.8</ele>
        <time>2024-10-11T12:37:31Z</time>
      </trkpt>
      <trkpt lat="42.75111" lon="1.95866">
        <ele>1329.8</ele>
        <time>2024-10-11T12:37:32Z</time>
      </trkpt>
      <trkpt lat="42.75123" lon="1.95869">
        <ele>1328.8</ele>
        <time>2024-10-11T12:37:33Z</time>
      </trkpt>
      <trkpt lat="42.75127" lon="1.9587">
        <ele>1328.8</ele>
        <time>2024-10-11T12:37:34Z</time>
      </trkpt>
      <trkpt lat="42.75134" lon="1.95872">
        <ele>1326.6</ele>
        <time>2024-10-11T12:37:35Z</time>
      </trkpt>
      <trkpt lat="42.7514" lon="1.95874">
        <ele>1326.6</ele>
        <time>2024-10-11T12:37:36Z</time>
      </trkpt>
      <trkpt lat="42.75149" lon="1.95875">
        <ele>1326.6</ele>
        <time>2024-10-11T12:37:37Z</time>
      </trkpt>
      <trkpt lat="42.75152" lon="1.95875">
        <ele>1325.6</ele>
        <time>2024-10-11T12:37:38Z</time>
      </trkpt>
      <trkpt lat="42.75158" lon="1.95874">
        <ele>1322.8</ele>
        <time>2024-10-11T12:37:39Z</time>
      </trkpt>
      <trkpt lat="42.75167" lon="1.95871">
        <ele>1322.8</ele>
        <time>2024-10-11T12:37:40Z</time>
      </trkpt>
      <trkpt lat="42.75176" lon="1.95869">
        <ele>1322.8</ele>
        <time>2024-10-11T12:37:41Z</time>
      </trkpt>
      <trkpt lat="42.75186" lon="1.95865">
        <ele>1321.8</ele>
        <time>2024-10-11T12:37:42Z</time>
      </trkpt>
      <trkpt lat="42.75195" lon="1.95861">
        <ele>1319.6</ele>
        <time>2024-10-11T12:37:43Z</time>
      </trkpt>
      <trkpt lat="42.75203" lon="1.95858">
        <ele>1319.6</ele>
        <time>2024-10-11T12:37:44Z</time>
      </trkpt>
      <trkpt lat="42.75211" lon="1.95855">
        <ele>1319.6</ele>
        <time>2024-10-11T12:37:45Z</time>
      </trkpt>
      <trkpt lat="42.75223" lon="1.95851">
        <ele>1319.6</ele>
        <time>2024-10-11T12:37:46Z</time>
      </trkpt>
      <trkpt lat="42.75227" lon="1.95849">
        <ele>1318.6</ele>
        <time>2024-10-11T12:37:47Z</time>
      </trkpt>
      <trkpt lat="42.75239" lon="1.95845">
        <ele>1314.6</ele>
        <time>2024-10-11T12:37:48Z</time>
      </trkpt>
      <trkpt lat="42.75243" lon="1.95843">
        <ele>1314.6</ele>
        <time>2024-10-11T12:37:49Z</time>
      </trkpt>
      <trkpt lat="42.75254" lon="1.95837">
        <ele>1314.6</ele>
        <time>2024-10-11T12:37:50Z</time>
      </trkpt>
      <trkpt lat="42.75258" lon="1.95833">
        <ele>1313.6</ele>
        <time>2024-10-11T12:37:51Z</time>
      </trkpt>
      <trkpt lat="42.75268" lon="1.95822">
        <ele>1310.6</ele>
        <time>2024-10-11T12:37:52Z</time>
      </trkpt>
      <trkpt lat="42.75271" lon="1.95818">
        <ele>1310.6</ele>
        <time>2024-10-11T12:37:53Z</time>
      </trkpt>
      <trkpt lat="42.75279" lon="1.95805">
        <ele>1310.6</ele>
        <time>2024-10-11T12:37:54Z</time>
      </trkpt>
      <trkpt lat="42.75281" lon="1.95801">
        <ele>1309.6</ele>
        <time>2024-10-11T12:37:55Z</time>
      </trkpt>
      <trkpt lat="42.75286" lon="1.95794">
        <ele>1306.4</ele>
        <time>2024-10-11T12:37:56Z</time>
      </trkpt>
      <trkpt lat="42.75294" lon="1.95786">
        <ele>1306.4</ele>
        <time>2024-10-11T12:37:57Z</time>
      </trkpt>
      <trkpt lat="42.75297" lon="1.95785">
        <ele>1306.4</ele>
        <time>2024-10-11T12:37:58Z</time>
      </trkpt>
      <trkpt lat="42.75303" lon="1.95783">
        <ele>1306.4</ele>
        <time>2024-10-11T12:37:59Z</time>
      </trkpt>
      <trkpt lat="42.75312" lon="1.95777">
        <ele>1305.4</ele>
        <time>2024-10-11T12:38:00Z</time>
      </trkpt>
      <trkpt lat="42.75314" lon="1.95775">
        <ele>1305.4</ele>
        <time>2024-10-11T12:38:01Z</time>
      </trkpt>
      <trkpt lat="42.75319" lon="1.95772">
        <ele>1303.2</ele>
        <time>2024-10-11T12:38:02Z</time>
      </trkpt>
      <trkpt lat="42.75325" lon="1.9577">
        <ele>1303.2</ele>
        <time>2024-10-11T12:38:03Z</time>
      </trkpt>
      <trkpt lat="42.75332" lon="1.95773">
        <ele>1302.2</ele>
        <time>2024-10-11T12:38:04Z</time>
      </trkpt>
      <trkpt lat="42.75335" lon="1.95775">
        <ele>1300.6</ele>
        <time>2024-10-11T12:38:05Z</time>
      </trkpt>
      <trkpt lat="42.7534" lon="1.9578">
        <ele>1300.6</ele>
        <time>2024-10-11T12:38:06Z</time>
      </trkpt>
      <trkpt lat="42.75344" lon="1.95788">
        <ele>1300.6</ele>
        <time>2024-10-11T12:38:07Z</time>
      </trkpt>
      <trkpt lat="42.75348" lon="1.95797">
        <ele>1299.6</ele>
        <time>2024-10-11T12:38:08Z</time>
      </trkpt>
      <trkpt lat="42.75352" lon="1.95806">
        <ele>1297.6</ele>
        <time>2024-10-11T12:38:09Z</time>
      </trkpt>
      <trkpt lat="42.75354" lon="1.95815">
        <ele>1297.6</ele>
        <time>2024-10-11T12:38:10Z</time>
      </trkpt>
      <trkpt lat="42.75357" lon="1.95824">
        <ele>1297.6</ele>
        <time>2024-10-11T12:38:11Z</time>
      </trkpt>
      <trkpt lat="42.75361" lon="1.95837">
        <ele>1297.6</ele>
        <time>2024-10-11T12:38:12Z</time>
      </trkpt>
      <trkpt lat="42.75363" lon="1.95841">
        <ele>1297.6</ele>
        <time>2024-10-11T12:38:13Z</time>
      </trkpt>
      <trkpt lat="42.75371" lon="1.95851">
        <ele>1296.6</ele>
        <time>2024-10-11T12:38:14Z</time>
      </trkpt>
      <trkpt lat="42.75374" lon="1.95853">
        <ele>1293.8</ele>
        <time>2024-10-11T12:38:15Z</time>
      </trkpt>
      <trkpt lat="42.75386" lon="1.9586">
        <ele>1293.8</ele>
        <time>2024-10-11T12:38:16Z</time>
      </trkpt>
      <trkpt lat="42.7539" lon="1.95862">
        <ele>1293.8</ele>
        <time>2024-10-11T12:38:17Z</time>
      </trkpt>
      <trkpt lat="42.75403" lon="1.95867">
        <ele>1293</ele>
        <time>2024-10-11T12:38:18Z</time>
      </trkpt>
      <trkpt lat="42.75408" lon="1.95868">
        <ele>1290</ele>
        <time>2024-10-11T12:38:19Z</time>
      </trkpt>
      <trkpt lat="42.75417" lon="1.95871">
        <ele>1290</ele>
        <time>2024-10-11T12:38:20Z</time>
      </trkpt>
      <trkpt lat="42.75425" lon="1.95874">
        <ele>1290</ele>
        <time>2024-10-11T12:38:21Z</time>
      </trkpt>
      <trkpt lat="42.75433" lon="1.95878">
        <ele>1289</ele>
        <time>2024-10-11T12:38:22Z</time>
      </trkpt>
      <trkpt lat="42.75439" lon="1.95883">
        <ele>1289</ele>
        <time>2024-10-11T12:38:23Z</time>
      </trkpt>
      <trkpt lat="42.75445" lon="1.95889">
        <ele>1287.2</ele>
        <time>2024-10-11T12:38:24Z</time>
      </trkpt>
      <trkpt lat="42.75451" lon="1.95897">
        <ele>1287.2</ele>
        <time>2024-10-11T12:38:25Z</time>
      </trkpt>
      <trkpt lat="42.75457" lon="1.95905">
        <ele>1287.2</ele>
        <time>2024-10-11T12:38:26Z</time>
      </trkpt>
      <trkpt lat="42.75464" lon="1.95912">
        <ele>1286.2</ele>
        <time>2024-10-11T12:38:27Z</time>
      </trkpt>
      <trkpt lat="42.75472" lon="1.9592">
        <ele>1283.6</ele>
        <time>2024-10-11T12:38:28Z</time>
      </trkpt>
      <trkpt lat="42.75487" lon="1.95928">
        <ele>1283.6</ele>
        <time>2024-10-11T12:38:29Z</time>
      </trkpt>
      <trkpt lat="42.75491" lon="1.95931">
        <ele>1283.6</ele>
        <time>2024-10-11T12:38:30Z</time>
      </trkpt>
      <trkpt lat="42.75505" lon="1.95939">
        <ele>1282.6</ele>
        <time>2024-10-11T12:38:31Z</time>
      </trkpt>
      <trkpt lat="42.7551" lon="1.95942">
        <ele>1279.4</ele>
        <time>2024-10-11T12:38:32Z</time>
      </trkpt>
      <trkpt lat="42.75523" lon="1.95951">
        <ele>1279.4</ele>
        <time>2024-10-11T12:38:33Z</time>
      </trkpt>
      <trkpt lat="42.75527" lon="1.95955">
        <ele>1279.4</ele>
        <time>2024-10-11T12:38:34Z</time>
      </trkpt>
      <trkpt lat="42.75539" lon="1.95968">
        <ele>1279.4</ele>
        <time>2024-10-11T12:38:35Z</time>
      </trkpt>
      <trkpt lat="42.75542" lon="1.95972">
        <ele>1278.4</ele>
        <time>2024-10-11T12:38:36Z</time>
      </trkpt>
      <trkpt lat="42.75555" lon="1.95985">
        <ele>1274.8</ele>
        <time>2024-10-11T12:38:37Z</time>
      </trkpt>
      <trkpt lat="42.75559" lon="1.95989">
        <ele>1274.8</ele>
        <time>2024-10-11T12:38:38Z</time>
      </trkpt>
      <trkpt lat="42.75573" lon="1.96">
        <ele>1274.8</ele>
        <time>2024-10-11T12:38:39Z</time>
      </trkpt>
      <trkpt lat="42.75577" lon="1.96003">
        <ele>1273.8</ele>
        <time>2024-10-11T12:38:40Z</time>
      </trkpt>
      <trkpt lat="42.7559" lon="1.96014">
        <ele>1270.4</ele>
        <time>2024-10-11T12:38:41Z</time>
      </trkpt>
      <trkpt lat="42.75594" lon="1.96018">
        <ele>1270.4</ele>
        <time>2024-10-11T12:38:42Z</time>
      </trkpt>
      <trkpt lat="42.75606" lon="1.96029">
        <ele>1270.4</ele>
        <time>2024-10-11T12:38:43Z</time>
      </trkpt>
      <trkpt lat="42.7561" lon="1.96032">
        <ele>1269.4</ele>
        <time>2024-10-11T12:38:44Z</time>
      </trkpt>
      <trkpt lat="42.75623" lon="1.9604">
        <ele>1268.2</ele>
        <time>2024-10-11T12:38:45Z</time>
      </trkpt>
      <trkpt lat="42.75628" lon="1.96042">
        <ele>1268.2</ele>
        <time>2024-10-11T12:38:46Z</time>
      </trkpt>
      <trkpt lat="42.75642" lon="1.9605">
        <ele>1268.2</ele>
        <time>2024-10-11T12:38:47Z</time>
      </trkpt>
      <trkpt lat="42.75646" lon="1.96053">
        <ele>1268.2</ele>
        <time>2024-10-11T12:38:48Z</time>
      </trkpt>
      <trkpt lat="42.75655" lon="1.96058">
        <ele>1267.2</ele>
        <time>2024-10-11T12:38:49Z</time>
      </trkpt>
      <trkpt lat="42.75663" lon="1.96063">
        <ele>1262</ele>
        <time>2024-10-11T12:38:50Z</time>
      </trkpt>
      <trkpt lat="42.75671" lon="1.96069">
        <ele>1262</ele>
        <time>2024-10-11T12:38:51Z</time>
      </trkpt>
      <trkpt lat="42.75678" lon="1.96075">
        <ele>1262</ele>
        <time>2024-10-11T12:38:52Z</time>
      </trkpt>
      <trkpt lat="42.75685" lon="1.96086">
        <ele>1262</ele>
        <time>2024-10-11T12:38:53Z</time>
      </trkpt>
      <trkpt lat="42.75688" lon="1.9609">
        <ele>1259.2</ele>
        <time>2024-10-11T12:38:54Z</time>
      </trkpt>
      <trkpt lat="42.75694" lon="1.96098">
        <ele>1259.2</ele>
        <time>2024-10-11T12:38:55Z</time>
      </trkpt>
      <trkpt lat="42.757" lon="1.96107">
        <ele>1259.2</ele>
        <time>2024-10-11T12:38:56Z</time>
      </trkpt>
      <trkpt lat="42.75707" lon="1.96115">
        <ele>1259.2</ele>
        <time>2024-10-11T12:38:57Z</time>
      </trkpt>
      <trkpt lat="42.75716" lon="1.96121">
        <ele>1259.2</ele>
        <time>2024-10-11T12:38:58Z</time>
      </trkpt>
      <trkpt lat="42.75726" lon="1.96124">
        <ele>1258.2</ele>
        <time>2024-10-11T12:38:59Z</time>
      </trkpt>
      <trkpt lat="42.75739" lon="1.96133">
        <ele>1254.6</ele>
        <time>2024-10-11T12:39:00Z</time>
      </trkpt>
      <trkpt lat="42.75744" lon="1.96136">
        <ele>1254.6</ele>
        <time>2024-10-11T12:39:01Z</time>
      </trkpt>
      <trkpt lat="42.75752" lon="1.96144">
        <ele>1254.6</ele>
        <time>2024-10-11T12:39:02Z</time>
      </trkpt>
      <trkpt lat="42.7576" lon="1.96152">
        <ele>1254.6</ele>
        <time>2024-10-11T12:39:03Z</time>
      </trkpt>
      <trkpt lat="42.75768" lon="1.96161">
        <ele>1250.6</ele>
        <time>2024-10-11T12:39:04Z</time>
      </trkpt>
      <trkpt lat="42.75777" lon="1.9617">
        <ele>1250.6</ele>
        <time>2024-10-11T12:39:05Z</time>
      </trkpt>
      <trkpt lat="42.75786" lon="1.96177">
        <ele>1250.6</ele>
        <time>2024-10-11T12:39:06Z</time>
      </trkpt>
      <trkpt lat="42.75794" lon="1.96184">
        <ele>1250.6</ele>
        <time>2024-10-11T12:39:07Z</time>
      </trkpt>
      <trkpt lat="42.75802" lon="1.9619">
        <ele>1246</ele>
        <time>2024-10-11T12:39:08Z</time>
      </trkpt>
      <trkpt lat="42.7581" lon="1.96197">
        <ele>1246</ele>
        <time>2024-10-11T12:39:09Z</time>
      </trkpt>
      <trkpt lat="42.75818" lon="1.96204">
        <ele>1246</ele>
        <time>2024-10-11T12:39:10Z</time>
      </trkpt>
      <trkpt lat="42.75826" lon="1.96212">
        <ele>1246</ele>
        <time>2024-10-11T12:39:11Z</time>
      </trkpt>
      <trkpt lat="42.75833" lon="1.9622">
        <ele>1245</ele>
        <time>2024-10-11T12:39:12Z</time>
      </trkpt>
      <trkpt lat="42.75843" lon="1.96232">
        <ele>1241.8</ele>
        <time>2024-10-11T12:39:13Z</time>
      </trkpt>
      <trkpt lat="42.75846" lon="1.96236">
        <ele>1241.8</ele>
        <time>2024-10-11T12:39:14Z</time>
      </trkpt>
      <trkpt lat="42.75852" lon="1.96244">
        <ele>1241.8</ele>
        <time>2024-10-11T12:39:15Z</time>
      </trkpt>
      <trkpt lat="42.75857" lon="1.96251">
        <ele>1240.8</ele>
        <time>2024-10-11T12:39:16Z</time>
      </trkpt>
      <trkpt lat="42.75863" lon="1.96257">
        <ele>1240.8</ele>
        <time>2024-10-11T12:39:17Z</time>
      </trkpt>
      <trkpt lat="42.75874" lon="1.96264">
        <ele>1238</ele>
        <time>2024-10-11T12:39:18Z</time>
      </trkpt>
      <trkpt lat="42.75877" lon="1.96266">
        <ele>1238</ele>
        <time>2024-10-11T12:39:19Z</time>
      </trkpt>
      <trkpt lat="42.75887" lon="1.96273">
        <ele>1238</ele>
        <time>2024-10-11T12:39:20Z</time>
      </trkpt>
      <trkpt lat="42.7589" lon="1.96276">
        <ele>1237</ele>
        <time>2024-10-11T12:39:21Z</time>
      </trkpt>
      <trkpt lat="42.75896" lon="1.96282">
        <ele>1234.4</ele>
        <time>2024-10-11T12:39:22Z</time>
      </trkpt>
      <trkpt lat="42.75902" lon="1.96296">
        <ele>1234.4</ele>
        <time>2024-10-11T12:39:23Z</time>
      </trkpt>
      <trkpt lat="42.75904" lon="1.96301">
        <ele>1234.4</ele>
        <time>2024-10-11T12:39:24Z</time>
      </trkpt>
      <trkpt lat="42.7591" lon="1.96316">
        <ele>1233.4</ele>
        <time>2024-10-11T12:39:25Z</time>
      </trkpt>
      <trkpt lat="42.75912" lon="1.96322">
        <ele>1233.4</ele>
        <time>2024-10-11T12:39:26Z</time>
      </trkpt>
      <trkpt lat="42.75917" lon="1.96338">
        <ele>1231.6</ele>
        <time>2024-10-11T12:39:27Z</time>
      </trkpt>
      <trkpt lat="42.75919" lon="1.96343">
        <ele>1231.6</ele>
        <time>2024-10-11T12:39:28Z</time>
      </trkpt>
      <trkpt lat="42.75927" lon="1.96357">
        <ele>1231.6</ele>
        <time>2024-10-11T12:39:29Z</time>
      </trkpt>
      <trkpt lat="42.75931" lon="1.96361">
        <ele>1227</ele>
        <time>2024-10-11T12:39:30Z</time>
      </trkpt>
      <trkpt lat="42.75938" lon="1.96369">
        <ele>1227</ele>
        <time>2024-10-11T12:39:31Z</time>
      </trkpt>
      <trkpt lat="42.75945" lon="1.96378">
        <ele>1227</ele>
        <time>2024-10-11T12:39:32Z</time>
      </trkpt>
      <trkpt lat="42.75952" lon="1.96386">
        <ele>1227</ele>
        <time>2024-10-11T12:39:33Z</time>
      </trkpt>
      <trkpt lat="42.75959" lon="1.96395">
        <ele>1226</ele>
        <time>2024-10-11T12:39:34Z</time>
      </trkpt>
      <trkpt lat="42.75968" lon="1.96403">
        <ele>1222.6</ele>
        <time>2024-10-11T12:39:35Z</time>
      </trkpt>
      <trkpt lat="42.75976" lon="1.9641">
        <ele>1222.6</ele>
        <time>2024-10-11T12:39:36Z</time>
      </trkpt>
      <trkpt lat="42.75982" lon="1.96415">
        <ele>1222.6</ele>
        <time>2024-10-11T12:39:37Z</time>
      </trkpt>
      <trkpt lat="42.75991" lon="1.9642">
        <ele>1222.6</ele>
        <time>2024-10-11T12:39:38Z</time>
      </trkpt>
      <trkpt lat="42.76001" lon="1.96427">
        <ele>1221.6</ele>
        <time>2024-10-11T12:39:39Z</time>
      </trkpt>
      <trkpt lat="42.76004" lon="1.96429">
        <ele>1218.6</ele>
        <time>2024-10-11T12:39:40Z</time>
      </trkpt>
      <trkpt lat="42.76013" lon="1.96439">
        <ele>1218.6</ele>
        <time>2024-10-11T12:39:41Z</time>
      </trkpt>
      <trkpt lat="42.76016" lon="1.96443">
        <ele>1218.6</ele>
        <time>2024-10-11T12:39:42Z</time>
      </trkpt>
      <trkpt lat="42.76024" lon="1.96456">
        <ele>1218.6</ele>
        <time>2024-10-11T12:39:43Z</time>
      </trkpt>
      <trkpt lat="42.76027" lon="1.96461">
        <ele>1217.6</ele>
        <time>2024-10-11T12:39:44Z</time>
      </trkpt>
      <trkpt lat="42.76037" lon="1.96474">
        <ele>1214.2</ele>
        <time>2024-10-11T12:39:45Z</time>
      </trkpt>
      <trkpt lat="42.7604" lon="1.96478">
        <ele>1214.2</ele>
        <time>2024-10-11T12:39:46Z</time>
      </trkpt>
      <trkpt lat="42.76048" lon="1.96486">
        <ele>1214.2</ele>
        <time>2024-10-11T12:39:47Z</time>
      </trkpt>
      <trkpt lat="42.76056" lon="1.96495">
        <ele>1213.2</ele>
        <time>2024-10-11T12:39:48Z</time>
      </trkpt>
      <trkpt lat="42.76064" lon="1.96504">
        <ele>1213.2</ele>
        <time>2024-10-11T12:39:49Z</time>
      </trkpt>
      <trkpt lat="42.76072" lon="1.96513">
        <ele>1209.8</ele>
        <time>2024-10-11T12:39:50Z</time>
      </trkpt>
      <trkpt lat="42.76081" lon="1.96522">
        <ele>1209.8</ele>
        <time>2024-10-11T12:39:51Z</time>
      </trkpt>
      <trkpt lat="42.76092" lon="1.96532">
        <ele>1208.8</ele>
        <time>2024-10-11T12:39:52Z</time>
      </trkpt>
      <trkpt lat="42.76101" lon="1.9654">
        <ele>1205</ele>
        <time>2024-10-11T12:39:53Z</time>
      </trkpt>
      <trkpt lat="42.7611" lon="1.96549">
        <ele>1205</ele>
        <time>2024-10-11T12:39:54Z</time>
      </trkpt>
      <trkpt lat="42.76124" lon="1.96562">
        <ele>1205</ele>
        <time>2024-10-11T12:39:55Z</time>
      </trkpt>
      <trkpt lat="42.76128" lon="1.96567">
        <ele>1205</ele>
        <time>2024-10-11T12:39:56Z</time>
      </trkpt>
      <trkpt lat="42.76141" lon="1.96579">
        <ele>1204</ele>
        <time>2024-10-11T12:39:57Z</time>
      </trkpt>
      <trkpt lat="42.76145" lon="1.96583">
        <ele>1201</ele>
        <time>2024-10-11T12:39:58Z</time>
      </trkpt>
      <trkpt lat="42.76154" lon="1.96592">
        <ele>1201</ele>
        <time>2024-10-11T12:39:59Z</time>
      </trkpt>
      <trkpt lat="42.76166" lon="1.96604">
        <ele>1201</ele>
        <time>2024-10-11T12:40:00Z</time>
      </trkpt>
      <trkpt lat="42.7617" lon="1.96608">
        <ele>1201</ele>
        <time>2024-10-11T12:40:01Z</time>
      </trkpt>
      <trkpt lat="42.76181" lon="1.96618">
        <ele>1195.6</ele>
        <time>2024-10-11T12:40:02Z</time>
      </trkpt>
      <trkpt lat="42.76185" lon="1.96621">
        <ele>1195.6</ele>
        <time>2024-10-11T12:40:03Z</time>
      </trkpt>
      <trkpt lat="42.76192" lon="1.96626">
        <ele>1195.6</ele>
        <time>2024-10-11T12:40:04Z</time>
      </trkpt>
      <trkpt lat="42.76203" lon="1.96634">
        <ele>1195.6</ele>
        <time>2024-10-11T12:40:05Z</time>
      </trkpt>
      <trkpt lat="42.76207" lon="1.96636">
        <ele>1194.6</ele>
        <time>2024-10-11T12:40:06Z</time>
      </trkpt>
      <trkpt lat="42.76217" lon="1.96645">
        <ele>1191.4</ele>
        <time>2024-10-11T12:40:07Z</time>
      </trkpt>
      <trkpt lat="42.7622" lon="1.96649">
        <ele>1191.4</ele>
        <time>2024-10-11T12:40:08Z</time>
      </trkpt>
      <trkpt lat="42.76229" lon="1.9666">
        <ele>1191.4</ele>
        <time>2024-10-11T12:40:09Z</time>
      </trkpt>
      <trkpt lat="42.76232" lon="1.96665">
        <ele>1191.4</ele>
        <time>2024-10-11T12:40:10Z</time>
      </trkpt>
      <trkpt lat="42.76241" lon="1.9668">
        <ele>1188.4</ele>
        <time>2024-10-11T12:40:11Z</time>
      </trkpt>
      <trkpt lat="42.76244" lon="1.96685">
        <ele>1188.4</ele>
        <time>2024-10-11T12:40:12Z</time>
      </trkpt>
      <trkpt lat="42.76251" lon="1.96701">
        <ele>1188.4</ele>
        <time>2024-10-11T12:40:13Z</time>
      </trkpt>
      <trkpt lat="42.76254" lon="1.96707">
        <ele>1188.4</ele>
        <time>2024-10-11T12:40:14Z</time>
      </trkpt>
      <trkpt lat="42.76259" lon="1.96718">
        <ele>1187.4</ele>
        <time>2024-10-11T12:40:15Z</time>
      </trkpt>
      <trkpt lat="42.76265" lon="1.96728">
        <ele>1183.6</ele>
        <time>2024-10-11T12:40:16Z</time>
      </trkpt>
      <trkpt lat="42.76271" lon="1.96737">
        <ele>1183.6</ele>
        <time>2024-10-11T12:40:17Z</time>
      </trkpt>
      <trkpt lat="42.76277" lon="1.96746">
        <ele>1183.6</ele>
        <time>2024-10-11T12:40:18Z</time>
      </trkpt>
      <trkpt lat="42.76284" lon="1.96759">
        <ele>1183.6</ele>
        <time>2024-10-11T12:40:19Z</time>
      </trkpt>
      <trkpt lat="42.76286" lon="1.96763">
        <ele>1179.8</ele>
        <time>2024-10-11T12:40:20Z</time>
      </trkpt>
      <trkpt lat="42.7629" lon="1.96776">
        <ele>1179.8</ele>
        <time>2024-10-11T12:40:21Z</time>
      </trkpt>
      <trkpt lat="42.7629" lon="1.96781">
        <ele>1179.8</ele>
        <time>2024-10-11T12:40:22Z</time>
      </trkpt>
      <trkpt lat="42.76291" lon="1.9679">
        <ele>1179.8</ele>
        <time>2024-10-11T12:40:23Z</time>
      </trkpt>
      <trkpt lat="42.76291" lon="1.96798">
        <ele>1179.8</ele>
        <time>2024-10-11T12:40:24Z</time>
      </trkpt>
      <trkpt lat="42.76287" lon="1.96812">
        <ele>1178.8</ele>
        <time>2024-10-11T12:40:25Z</time>
      </trkpt>
      <trkpt lat="42.76286" lon="1.96816">
        <ele>1178</ele>
        <time>2024-10-11T12:40:26Z</time>
      </trkpt>
      <trkpt lat="42.76283" lon="1.96826">
        <ele>1178</ele>
        <time>2024-10-11T12:40:27Z</time>
      </trkpt>
      <trkpt lat="42.76282" lon="1.96835">
        <ele>1178</ele>
        <time>2024-10-11T12:40:28Z</time>
      </trkpt>
      <trkpt lat="42.76279" lon="1.96845">
        <ele>1178</ele>
        <time>2024-10-11T12:40:29Z</time>
      </trkpt>
      <trkpt lat="42.76279" lon="1.96854">
        <ele>1178</ele>
        <time>2024-10-11T12:40:30Z</time>
      </trkpt>
      <trkpt lat="42.76279" lon="1.96862">
        <ele>1177.4</ele>
        <time>2024-10-11T12:40:31Z</time>
      </trkpt>
      <trkpt lat="42.7628" lon="1.9687">
        <ele>1177.4</ele>
        <time>2024-10-11T12:40:32Z</time>
      </trkpt>
      <trkpt lat="42.76286" lon="1.96877">
        <ele>1176.4</ele>
        <time>2024-10-11T12:40:33Z</time>
      </trkpt>
      <trkpt lat="42.76288" lon="1.96878">
        <ele>1176.4</ele>
        <time>2024-10-11T12:40:34Z</time>
      </trkpt>
      <trkpt lat="42.76295" lon="1.96879">
        <ele>1175.2</ele>
        <time>2024-10-11T12:40:35Z</time>
      </trkpt>
      <trkpt lat="42.76297" lon="1.96877">
        <ele>1175.2</ele>
        <time>2024-10-11T12:40:36Z</time>
      </trkpt>
      <trkpt lat="42.76301" lon="1.96874">
        <ele>1175.2</ele>
        <time>2024-10-11T12:40:37Z</time>
      </trkpt>
      <trkpt lat="42.76305" lon="1.96862">
        <ele>1175.2</ele>
        <time>2024-10-11T12:40:38Z</time>
      </trkpt>
      <trkpt lat="42.76307" lon="1.96858">
        <ele>1174.2</ele>
        <time>2024-10-11T12:40:39Z</time>
      </trkpt>
      <trkpt lat="42.76311" lon="1.96846">
        <ele>1174.2</ele>
        <time>2024-10-11T12:40:40Z</time>
      </trkpt>
      <trkpt lat="42.76313" lon="1.96841">
        <ele>1174.2</ele>
        <time>2024-10-11T12:40:41Z</time>
      </trkpt>
      <trkpt lat="42.76318" lon="1.96827">
        <ele>1173.2</ele>
        <time>2024-10-11T12:40:42Z</time>
      </trkpt>
      <trkpt lat="42.7632" lon="1.96822">
        <ele>1173.2</ele>
        <time>2024-10-11T12:40:43Z</time>
      </trkpt>
      <trkpt lat="42.76325" lon="1.96807">
        <ele>1171</ele>
        <time>2024-10-11T12:40:44Z</time>
      </trkpt>
      <trkpt lat="42.76327" lon="1.96801">
        <ele>1171</ele>
        <time>2024-10-11T12:40:45Z</time>
      </trkpt>
      <trkpt lat="42.76332" lon="1.96785">
        <ele>1170</ele>
        <time>2024-10-11T12:40:46Z</time>
      </trkpt>
      <trkpt lat="42.76333" lon="1.96779">
        <ele>1168.2</ele>
        <time>2024-10-11T12:40:47Z</time>
      </trkpt>
      <trkpt lat="42.76336" lon="1.96761">
        <ele>1168.2</ele>
        <time>2024-10-11T12:40:48Z</time>
      </trkpt>
      <trkpt lat="42.76337" lon="1.96755">
        <ele>1168.2</ele>
        <time>2024-10-11T12:40:49Z</time>
      </trkpt>
      <trkpt lat="42.76341" lon="1.96738">
        <ele>1168.2</ele>
        <time>2024-10-11T12:40:50Z</time>
      </trkpt>
      <trkpt lat="42.76343" lon="1.96734">
        <ele>1167.2</ele>
        <time>2024-10-11T12:40:51Z</time>
      </trkpt>
      <trkpt lat="42.76347" lon="1.9672">
        <ele>1163.8</ele>
        <time>2024-10-11T12:40:52Z</time>
      </trkpt>
      <trkpt lat="42.76349" lon="1.96716">
        <ele>1163.8</ele>
        <time>2024-10-11T12:40:53Z</time>
      </trkpt>
      <trkpt lat="42.76354" lon="1.96705">
        <ele>1163.8</ele>
        <time>2024-10-11T12:40:54Z</time>
      </trkpt>
      <trkpt lat="42.76357" lon="1.96702">
        <ele>1162.8</ele>
        <time>2024-10-11T12:40:55Z</time>
      </trkpt>
      <trkpt lat="42.76366" lon="1.96694">
        <ele>1159.8</ele>
        <time>2024-10-11T12:40:56Z</time>
      </trkpt>
      <trkpt lat="42.76369" lon="1.96692">
        <ele>1159.8</ele>
        <time>2024-10-11T12:40:57Z</time>
      </trkpt>
      <trkpt lat="42.76376" lon="1.96687">
        <ele>1159.8</ele>
        <time>2024-10-11T12:40:58Z</time>
      </trkpt>
      <trkpt lat="42.76383" lon="1.96681">
        <ele>1159.8</ele>
        <time>2024-10-11T12:40:59Z</time>
      </trkpt>
      <trkpt lat="42.76388" lon="1.96677">
        <ele>1158.8</ele>
        <time>2024-10-11T12:41:00Z</time>
      </trkpt>
      <trkpt lat="42.7639" lon="1.96674">
        <ele>1156.4</ele>
        <time>2024-10-11T12:41:01Z</time>
      </trkpt>
      <trkpt lat="42.76392" lon="1.96669">
        <ele>1156.4</ele>
        <time>2024-10-11T12:41:02Z</time>
      </trkpt>
      <trkpt lat="42.76393" lon="1.96668">
        <ele>1156.4</ele>
        <time>2024-10-11T12:41:03Z</time>
      </trkpt>
      <trkpt lat="42.76394" lon="1.96665">
        <ele>1156.4</ele>
        <time>2024-10-11T12:41:04Z</time>
      </trkpt>
      <trkpt lat="42.76394" lon="1.96663">
        <ele>1156.4</ele>
        <time>2024-10-11T12:41:05Z</time>
      </trkpt>
      <trkpt lat="42.76395" lon="1.96658">
        <ele>1154.8</ele>
        <time>2024-10-11T12:41:06Z</time>
      </trkpt>
      <trkpt lat="42.76395" lon="1.96655">
        <ele>1154.8</ele>
        <time>2024-10-11T12:41:07Z</time>
      </trkpt>
      <trkpt lat="42.76396" lon="1.96652">
        <ele>1154.8</ele>
        <time>2024-10-11T12:41:08Z</time>
      </trkpt>
      <trkpt lat="42.76397" lon="1.96649">
        <ele>1154.2</ele>
        <time>2024-10-11T12:41:09Z</time>
      </trkpt>
      <trkpt lat="42.76398" lon="1.96646">
        <ele>1153.6</ele>
        <time>2024-10-11T12:47:33Z</time>
      </trkpt>
      <trkpt lat="42.76399" lon="1.96643">
        <ele>1153.4</ele>
        <time>2024-10-11T12:47:34Z</time>
      </trkpt>
      <trkpt lat="42.76401" lon="1.96636">
        <ele>1153.4</ele>
        <time>2024-10-11T12:47:35Z</time>
      </trkpt>
      <trkpt lat="42.76402" lon="1.96633">
        <ele>1153.4</ele>
        <time>2024-10-11T12:47:36Z</time>
      </trkpt>
      <trkpt lat="42.76407" lon="1.96626">
        <ele>1153.4</ele>
        <time>2024-10-11T12:47:37Z</time>
      </trkpt>
      <trkpt lat="42.76409" lon="1.96624">
        <ele>1151.8</ele>
        <time>2024-10-11T12:47:38Z</time>
      </trkpt>
      <trkpt lat="42.76413" lon="1.9662">
        <ele>1151.8</ele>
        <time>2024-10-11T12:47:39Z</time>
      </trkpt>
      <trkpt lat="42.76419" lon="1.96616">
        <ele>1151.8</ele>
        <time>2024-10-11T12:47:40Z</time>
      </trkpt>
      <trkpt lat="42.76425" lon="1.96616">
        <ele>1151.8</ele>
        <time>2024-10-11T12:47:41Z</time>
      </trkpt>
      <trkpt lat="42.76431" lon="1.96616">
        <ele>1150.8</ele>
        <time>2024-10-11T12:47:42Z</time>
      </trkpt>
      <trkpt lat="42.76438" lon="1.96618">
        <ele>1148.8</ele>
        <time>2024-10-11T12:47:43Z</time>
      </trkpt>
      <trkpt lat="42.76449" lon="1.96622">
        <ele>1148.8</ele>
        <time>2024-10-11T12:47:44Z</time>
      </trkpt>
      <trkpt lat="42.76453" lon="1.96623">
        <ele>1148.8</ele>
        <time>2024-10-11T12:47:45Z</time>
      </trkpt>
      <trkpt lat="42.76464" lon="1.96625">
        <ele>1147.8</ele>
        <time>2024-10-11T12:47:46Z</time>
      </trkpt>
      <trkpt lat="42.76468" lon="1.96625">
        <ele>1147.2</ele>
        <time>2024-10-11T12:47:47Z</time>
      </trkpt>
      <trkpt lat="42.76481" lon="1.96625">
        <ele>1147.2</ele>
        <time>2024-10-11T12:47:48Z</time>
      </trkpt>
      <trkpt lat="42.76486" lon="1.96625">
        <ele>1147.2</ele>
        <time>2024-10-11T12:47:49Z</time>
      </trkpt>
      <trkpt lat="42.76495" lon="1.96624">
        <ele>1146.2</ele>
        <time>2024-10-11T12:47:50Z</time>
      </trkpt>
      <trkpt lat="42.76508" lon="1.9662">
        <ele>1143</ele>
        <time>2024-10-11T12:47:51Z</time>
      </trkpt>
      <trkpt lat="42.76512" lon="1.96618">
        <ele>1143</ele>
        <time>2024-10-11T12:47:52Z</time>
      </trkpt>
      <trkpt lat="42.76525" lon="1.96613">
        <ele>1143</ele>
        <time>2024-10-11T12:47:53Z</time>
      </trkpt>
      <trkpt lat="42.7653" lon="1.9661">
        <ele>1143</ele>
        <time>2024-10-11T12:47:54Z</time>
      </trkpt>
      <trkpt lat="42.76544" lon="1.96603">
        <ele>1142</ele>
        <time>2024-10-11T12:47:55Z</time>
      </trkpt>
      <trkpt lat="42.76548" lon="1.96601">
        <ele>1138.8</ele>
        <time>2024-10-11T12:47:56Z</time>
      </trkpt>
      <trkpt lat="42.76562" lon="1.96593">
        <ele>1138.8</ele>
        <time>2024-10-11T12:47:57Z</time>
      </trkpt>
      <trkpt lat="42.76566" lon="1.96591">
        <ele>1138.8</ele>
        <time>2024-10-11T12:47:58Z</time>
      </trkpt>
      <trkpt lat="42.76578" lon="1.96586">
        <ele>1137.8</ele>
        <time>2024-10-11T12:47:59Z</time>
      </trkpt>
      <trkpt lat="42.76582" lon="1.96586">
        <ele>1134.6</ele>
        <time>2024-10-11T12:48:00Z</time>
      </trkpt>
      <trkpt lat="42.76594" lon="1.96584">
        <ele>1134.6</ele>
        <time>2024-10-11T12:48:01Z</time>
      </trkpt>
      <trkpt lat="42.76598" lon="1.96583">
        <ele>1134.6</ele>
        <time>2024-10-11T12:48:02Z</time>
      </trkpt>
      <trkpt lat="42.76609" lon="1.96578">
        <ele>1134.6</ele>
        <time>2024-10-11T12:48:03Z</time>
      </trkpt>
      <trkpt lat="42.76612" lon="1.96576">
        <ele>1133.6</ele>
        <time>2024-10-11T12:48:04Z</time>
      </trkpt>
      <trkpt lat="42.76622" lon="1.96568">
        <ele>1131.4</ele>
        <time>2024-10-11T12:48:05Z</time>
      </trkpt>
      <trkpt lat="42.76625" lon="1.96565">
        <ele>1131.4</ele>
        <time>2024-10-11T12:48:06Z</time>
      </trkpt>
      <trkpt lat="42.76632" lon="1.9656">
        <ele>1131.4</ele>
        <time>2024-10-11T12:48:07Z</time>
      </trkpt>
      <trkpt lat="42.76637" lon="1.96555">
        <ele>1131.4</ele>
        <time>2024-10-11T12:48:08Z</time>
      </trkpt>
      <trkpt lat="42.76644" lon="1.9655">
        <ele>1128.2</ele>
        <time>2024-10-11T12:48:09Z</time>
      </trkpt>
      <trkpt lat="42.76655" lon="1.96543">
        <ele>1128.2</ele>
        <time>2024-10-11T12:48:10Z</time>
      </trkpt>
      <trkpt lat="42.76659" lon="1.96542">
        <ele>1128.2</ele>
        <time>2024-10-11T12:48:11Z</time>
      </trkpt>
      <trkpt lat="42.76671" lon="1.96536">
        <ele>1128.2</ele>
        <time>2024-10-11T12:48:12Z</time>
      </trkpt>
      <trkpt lat="42.76676" lon="1.96534">
        <ele>1124.6</ele>
        <time>2024-10-11T12:48:13Z</time>
      </trkpt>
      <trkpt lat="42.76689" lon="1.96528">
        <ele>1124.6</ele>
        <time>2024-10-11T12:48:14Z</time>
      </trkpt>
      <trkpt lat="42.76694" lon="1.96526">
        <ele>1124.6</ele>
        <time>2024-10-11T12:48:15Z</time>
      </trkpt>
      <trkpt lat="42.76707" lon="1.96519">
        <ele>1124.6</ele>
        <time>2024-10-11T12:48:16Z</time>
      </trkpt>
      <trkpt lat="42.76711" lon="1.96516">
        <ele>1124.6</ele>
        <time>2024-10-11T12:48:17Z</time>
      </trkpt>
      <trkpt lat="42.76724" lon="1.96507">
        <ele>1123.6</ele>
        <time>2024-10-11T12:48:18Z</time>
      </trkpt>
      <trkpt lat="42.76728" lon="1.96503">
        <ele>1120</ele>
        <time>2024-10-11T12:48:19Z</time>
      </trkpt>
      <trkpt lat="42.7674" lon="1.96494">
        <ele>1120</ele>
        <time>2024-10-11T12:48:20Z</time>
      </trkpt>
      <trkpt lat="42.76744" lon="1.96492">
        <ele>1120</ele>
        <time>2024-10-11T12:48:21Z</time>
      </trkpt>
      <trkpt lat="42.76751" lon="1.96488">
        <ele>1120</ele>
        <time>2024-10-11T12:48:22Z</time>
      </trkpt>
      <trkpt lat="42.76759" lon="1.96489">
        <ele>1115</ele>
        <time>2024-10-11T12:48:23Z</time>
      </trkpt>
      <trkpt lat="42.76768" lon="1.96491">
        <ele>1115</ele>
        <time>2024-10-11T12:48:24Z</time>
      </trkpt>
      <trkpt lat="42.76776" lon="1.96494">
        <ele>1115</ele>
        <time>2024-10-11T12:48:25Z</time>
      </trkpt>
      <trkpt lat="42.76785" lon="1.96496">
        <ele>1115</ele>
        <time>2024-10-11T12:48:26Z</time>
      </trkpt>
      <trkpt lat="42.76794" lon="1.96498">
        <ele>1114</ele>
        <time>2024-10-11T12:48:27Z</time>
      </trkpt>
      <trkpt lat="42.76803" lon="1.96499">
        <ele>1112</ele>
        <time>2024-10-11T12:48:28Z</time>
      </trkpt>
      <trkpt lat="42.76812" lon="1.96498">
        <ele>1112</ele>
        <time>2024-10-11T12:48:29Z</time>
      </trkpt>
      <trkpt lat="42.76825" lon="1.96494">
        <ele>1112</ele>
        <time>2024-10-11T12:48:30Z</time>
      </trkpt>
      <trkpt lat="42.76829" lon="1.96493">
        <ele>1112</ele>
        <time>2024-10-11T12:48:31Z</time>
      </trkpt>
      <trkpt lat="42.76842" lon="1.96488">
        <ele>1107.2</ele>
        <time>2024-10-11T12:48:32Z</time>
      </trkpt>
      <trkpt lat="42.76845" lon="1.96486">
        <ele>1107.2</ele>
        <time>2024-10-11T12:48:33Z</time>
      </trkpt>
      <trkpt lat="42.76853" lon="1.96482">
        <ele>1107.2</ele>
        <time>2024-10-11T12:48:34Z</time>
      </trkpt>
      <trkpt lat="42.76862" lon="1.96477">
        <ele>1106.2</ele>
        <time>2024-10-11T12:48:35Z</time>
      </trkpt>
      <trkpt lat="42.76866" lon="1.96475">
        <ele>1106.2</ele>
        <time>2024-10-11T12:48:36Z</time>
      </trkpt>
      <trkpt lat="42.76876" lon="1.96471">
        <ele>1103.2</ele>
        <time>2024-10-11T12:48:37Z</time>
      </trkpt>
      <trkpt lat="42.76879" lon="1.96471">
        <ele>1103.2</ele>
        <time>2024-10-11T12:48:38Z</time>
      </trkpt>
      <trkpt lat="42.7689" lon="1.96471">
        <ele>1103.2</ele>
        <time>2024-10-11T12:48:39Z</time>
      </trkpt>
      <trkpt lat="42.76893" lon="1.96472">
        <ele>1102.2</ele>
        <time>2024-10-11T12:48:40Z</time>
      </trkpt>
      <trkpt lat="42.76904" lon="1.96476">
        <ele>1100.6</ele>
        <time>2024-10-11T12:48:41Z</time>
      </trkpt>
      <trkpt lat="42.76908" lon="1.96477">
        <ele>1100.6</ele>
        <time>2024-10-11T12:48:42Z</time>
      </trkpt>
      <trkpt lat="42.76919" lon="1.9648">
        <ele>1100.6</ele>
        <time>2024-10-11T12:48:43Z</time>
      </trkpt>
      <trkpt lat="42.76923" lon="1.96481">
        <ele>1100.6</ele>
        <time>2024-10-11T12:48:44Z</time>
      </trkpt>
      <trkpt lat="42.76934" lon="1.96482">
        <ele>1098.8</ele>
        <time>2024-10-11T12:48:45Z</time>
      </trkpt>
      <trkpt lat="42.76937" lon="1.96482">
        <ele>1098.8</ele>
        <time>2024-10-11T12:48:46Z</time>
      </trkpt>
      <trkpt lat="42.76945" lon="1.96483">
        <ele>1098.8</ele>
        <time>2024-10-11T12:48:47Z</time>
      </trkpt>
      <trkpt lat="42.76948" lon="1.96483">
        <ele>1097.8</ele>
        <time>2024-10-11T12:48:48Z</time>
      </trkpt>
      <trkpt lat="42.76955" lon="1.96482">
        <ele>1096.6</ele>
        <time>2024-10-11T12:48:49Z</time>
      </trkpt>
      <trkpt lat="42.76957" lon="1.96482">
        <ele>1096.6</ele>
        <time>2024-10-11T12:48:50Z</time>
      </trkpt>
      <trkpt lat="42.76962" lon="1.96483">
        <ele>1096.6</ele>
        <time>2024-10-11T12:48:51Z</time>
      </trkpt>
      <trkpt lat="42.76966" lon="1.96483">
        <ele>1096.6</ele>
        <time>2024-10-11T12:48:52Z</time>
      </trkpt>
      <trkpt lat="42.76971" lon="1.96482">
        <ele>1095.6</ele>
        <time>2024-10-11T12:48:53Z</time>
      </trkpt>
      <trkpt lat="42.76975" lon="1.96483">
        <ele>1095.2</ele>
        <time>2024-10-11T12:48:54Z</time>
      </trkpt>
      <trkpt lat="42.7698" lon="1.96482">
        <ele>1095.2</ele>
        <time>2024-10-11T12:48:55Z</time>
      </trkpt>
      <trkpt lat="42.76984" lon="1.96482">
        <ele>1095.2</ele>
        <time>2024-10-11T12:48:56Z</time>
      </trkpt>
      <trkpt lat="42.7699" lon="1.96482">
        <ele>1095.2</ele>
        <time>2024-10-11T12:48:57Z</time>
      </trkpt>
      <trkpt lat="42.76992" lon="1.96482">
        <ele>1094.6</ele>
        <time>2024-10-11T12:48:58Z</time>
      </trkpt>
      <trkpt lat="42.76996" lon="1.96484">
        <ele>1094.4</ele>
        <time>2024-10-11T12:48:59Z</time>
      </trkpt>
      <trkpt lat="42.76998" lon="1.96484">
        <ele>1094.4</ele>
        <time>2024-10-11T12:49:00Z</time>
      </trkpt>
      <trkpt lat="42.77002" lon="1.96484">
        <ele>1094.4</ele>
        <time>2024-10-11T12:49:01Z</time>
      </trkpt>
      <trkpt lat="42.77004" lon="1.96484">
        <ele>1093.8</ele>
        <time>2024-10-11T12:49:02Z</time>
      </trkpt>
      <trkpt lat="42.77007" lon="1.96484">
        <ele>1093.6</ele>
        <time>2024-10-11T12:49:03Z</time>
      </trkpt>
      <trkpt lat="42.77009" lon="1.96484">
        <ele>1093.6</ele>
        <time>2024-10-11T12:49:04Z</time>
      </trkpt>
      <trkpt lat="42.77011" lon="1.96484">
        <ele>1093.6</ele>
        <time>2024-10-11T12:49:05Z</time>
      </trkpt>
      <trkpt lat="42.77012" lon="1.96484">
        <ele>1093.6</ele>
        <time>2024-10-11T12:49:06Z</time>
      </trkpt>
      <trkpt lat="42.77013" lon="1.96484">
        <ele>1093.6</ele>
        <time>2024-10-11T12:49:07Z</time>
      </trkpt>
      <trkpt lat="42.77013" lon="1.96484">
        <ele>1093.2</ele>
        <time>2024-10-11T12:49:08Z</time>
      </trkpt>
      <trkpt lat="42.77013" lon="1.96484">
        <ele>1093.2</ele>
        <time>2024-10-11T12:49:09Z</time>
      </trkpt>
      <trkpt lat="42.77013" lon="1.96484">
        <ele>1093.2</ele>
        <time>2024-10-11T12:49:10Z</time>
      </trkpt>
      <trkpt lat="42.77018" lon="1.96483">
        <ele>1092.6</ele>
        <time>2024-10-11T12:49:26Z</time>
      </trkpt>
      <trkpt lat="42.77021" lon="1.96483">
        <ele>1092.6</ele>
        <time>2024-10-11T12:49:27Z</time>
      </trkpt>
      <trkpt lat="42.77026" lon="1.96482">
        <ele>1092.6</ele>
        <time>2024-10-11T12:49:28Z</time>
      </trkpt>
      <trkpt lat="42.77027" lon="1.96482">
        <ele>1092.6</ele>
        <time>2024-10-11T12:49:29Z</time>
      </trkpt>
      <trkpt lat="42.7703" lon="1.9648">
        <ele>1092</ele>
        <time>2024-10-11T12:49:30Z</time>
      </trkpt>
      <trkpt lat="42.77034" lon="1.96479">
        <ele>1092</ele>
        <time>2024-10-11T12:49:31Z</time>
      </trkpt>
      <trkpt lat="42.77038" lon="1.96476">
        <ele>1092</ele>
        <time>2024-10-11T12:49:32Z</time>
      </trkpt>
      <trkpt lat="42.7704" lon="1.96476">
        <ele>1091.6</ele>
        <time>2024-10-11T12:49:33Z</time>
      </trkpt>
      <trkpt lat="42.77042" lon="1.96474">
        <ele>1091.6</ele>
        <time>2024-10-11T12:49:34Z</time>
      </trkpt>
      <trkpt lat="42.77043" lon="1.96474">
        <ele>1091.6</ele>
        <time>2024-10-11T12:49:35Z</time>
      </trkpt>
      <trkpt lat="42.77044" lon="1.96474">
        <ele>1091.6</ele>
        <time>2024-10-11T12:49:36Z</time>
      </trkpt>
      <trkpt lat="42.77046" lon="1.96473">
        <ele>1091.6</ele>
        <time>2024-10-11T12:49:37Z</time>
      </trkpt>
      <trkpt lat="42.77047" lon="1.96473">
        <ele>1091.6</ele>
        <time>2024-10-11T12:49:38Z</time>
      </trkpt>
      <trkpt lat="42.77048" lon="1.96473">
        <ele>1091.2</ele>
        <time>2024-10-11T12:49:39Z</time>
      </trkpt>
      <trkpt lat="42.77049" lon="1.96472">
        <ele>1090.6</ele>
        <time>2024-10-11T12:50:26Z</time>
      </trkpt>
      <trkpt lat="42.7705" lon="1.96472">
        <ele>1090.6</ele>
        <time>2024-10-11T12:50:27Z</time>
      </trkpt>
      <trkpt lat="42.77051" lon="1.96472">
        <ele>1090.8</ele>
        <time>2024-10-11T12:50:28Z</time>
      </trkpt>
      <trkpt lat="42.77054" lon="1.96469">
        <ele>1090.8</ele>
        <time>2024-10-11T12:50:29Z</time>
      </trkpt>
      <trkpt lat="42.77055" lon="1.96469">
        <ele>1090.8</ele>
        <time>2024-10-11T12:50:30Z</time>
      </trkpt>
      <trkpt lat="42.77057" lon="1.96467">
        <ele>1090.8</ele>
        <time>2024-10-11T12:50:31Z</time>
      </trkpt>
      <trkpt lat="42.7706" lon="1.96464">
        <ele>1090.8</ele>
        <time>2024-10-11T12:50:32Z</time>
      </trkpt>
      <trkpt lat="42.77061" lon="1.96464">
        <ele>1090.8</ele>
        <time>2024-10-11T12:50:33Z</time>
      </trkpt>
      <trkpt lat="42.77063" lon="1.96463">
        <ele>1091</ele>
        <time>2024-10-11T12:50:34Z</time>
      </trkpt>
      <trkpt lat="42.77064" lon="1.96462">
        <ele>1091</ele>
        <time>2024-10-11T12:50:35Z</time>
      </trkpt>
      <trkpt lat="42.77065" lon="1.96462">
        <ele>1090.4</ele>
        <time>2024-10-11T12:50:36Z</time>
      </trkpt>
      <trkpt lat="42.77067" lon="1.96461">
        <ele>1090.2</ele>
        <time>2024-10-11T12:51:52Z</time>
      </trkpt>
      <trkpt lat="42.77068" lon="1.9646">
        <ele>1090.6</ele>
        <time>2024-10-11T12:51:53Z</time>
      </trkpt>
      <trkpt lat="42.7707" lon="1.9646">
        <ele>1090.6</ele>
        <time>2024-10-11T12:51:54Z</time>
      </trkpt>
      <trkpt lat="42.77072" lon="1.96458">
        <ele>1090.2</ele>
        <time>2024-10-11T12:51:55Z</time>
      </trkpt>
      <trkpt lat="42.77074" lon="1.96456">
        <ele>1090.2</ele>
        <time>2024-10-11T12:51:56Z</time>
      </trkpt>
      <trkpt lat="42.77077" lon="1.96455">
        <ele>1090.2</ele>
        <time>2024-10-11T12:51:57Z</time>
      </trkpt>
      <trkpt lat="42.77079" lon="1.96453">
        <ele>1090.8</ele>
        <time>2024-10-11T12:51:58Z</time>
      </trkpt>
      <trkpt lat="42.77082" lon="1.96452">
        <ele>1090.8</ele>
        <time>2024-10-11T12:51:59Z</time>
      </trkpt>
      <trkpt lat="42.77086" lon="1.9645">
        <ele>1090</ele>
        <time>2024-10-11T12:52:00Z</time>
      </trkpt>
      <trkpt lat="42.77091" lon="1.96447">
        <ele>1090</ele>
        <time>2024-10-11T12:52:01Z</time>
      </trkpt>
      <trkpt lat="42.77093" lon="1.96446">
        <ele>1089.2</ele>
        <time>2024-10-11T12:52:02Z</time>
      </trkpt>
      <trkpt lat="42.77096" lon="1.96442">
        <ele>1089.2</ele>
        <time>2024-10-11T12:52:03Z</time>
      </trkpt>
      <trkpt lat="42.77099" lon="1.96439">
        <ele>1089.2</ele>
        <time>2024-10-11T12:52:04Z</time>
      </trkpt>
      <trkpt lat="42.77104" lon="1.96435">
        <ele>1089.2</ele>
        <time>2024-10-11T12:52:05Z</time>
      </trkpt>
      <trkpt lat="42.77106" lon="1.96433">
        <ele>1089.2</ele>
        <time>2024-10-11T12:52:06Z</time>
      </trkpt>
      <trkpt lat="42.77112" lon="1.96429">
        <ele>1088.2</ele>
        <time>2024-10-11T12:52:07Z</time>
      </trkpt>
      <trkpt lat="42.77114" lon="1.96428">
        <ele>1087.4</ele>
        <time>2024-10-11T12:52:08Z</time>
      </trkpt>
      <trkpt lat="42.77119" lon="1.96425">
        <ele>1087.4</ele>
        <time>2024-10-11T12:52:09Z</time>
      </trkpt>
      <trkpt lat="42.77126" lon="1.96421">
        <ele>1087.4</ele>
        <time>2024-10-11T12:52:10Z</time>
      </trkpt>
      <trkpt lat="42.77128" lon="1.9642">
        <ele>1087.4</ele>
        <time>2024-10-11T12:52:11Z</time>
      </trkpt>
      <trkpt lat="42.77135" lon="1.96415">
        <ele>1085.8</ele>
        <time>2024-10-11T12:52:12Z</time>
      </trkpt>
      <trkpt lat="42.77137" lon="1.96414">
        <ele>1085.8</ele>
        <time>2024-10-11T12:52:13Z</time>
      </trkpt>
      <trkpt lat="42.77142" lon="1.9641">
        <ele>1085.8</ele>
        <time>2024-10-11T12:52:14Z</time>
      </trkpt>
      <trkpt lat="42.77144" lon="1.96408">
        <ele>1085</ele>
        <time>2024-10-11T12:52:15Z</time>
      </trkpt>
      <trkpt lat="42.77147" lon="1.96406">
        <ele>1085</ele>
        <time>2024-10-11T12:52:16Z</time>
      </trkpt>
      <trkpt lat="42.77152" lon="1.96405">
        <ele>1084.6</ele>
        <time>2024-10-11T12:52:17Z</time>
      </trkpt>
      <trkpt lat="42.77154" lon="1.96404">
        <ele>1084.6</ele>
        <time>2024-10-11T12:52:18Z</time>
      </trkpt>
      <trkpt lat="42.77158" lon="1.96401">
        <ele>1084.6</ele>
        <time>2024-10-11T12:52:19Z</time>
      </trkpt>
      <trkpt lat="42.7716" lon="1.964">
        <ele>1084.6</ele>
        <time>2024-10-11T12:52:20Z</time>
      </trkpt>
      <trkpt lat="42.77164" lon="1.96396">
        <ele>1084.2</ele>
        <time>2024-10-11T12:52:21Z</time>
      </trkpt>
      <trkpt lat="42.77166" lon="1.96395">
        <ele>1084.2</ele>
        <time>2024-10-11T12:52:22Z</time>
      </trkpt>
      <trkpt lat="42.77171" lon="1.96392">
        <ele>1084.2</ele>
        <time>2024-10-11T12:52:23Z</time>
      </trkpt>
      <trkpt lat="42.77172" lon="1.96391">
        <ele>1083.6</ele>
        <time>2024-10-11T12:52:24Z</time>
      </trkpt>
      <trkpt lat="42.77176" lon="1.9639">
        <ele>1084.2</ele>
        <time>2024-10-11T12:52:25Z</time>
      </trkpt>
      <trkpt lat="42.77179" lon="1.96388">
        <ele>1084.2</ele>
        <time>2024-10-11T12:52:26Z</time>
      </trkpt>
      <trkpt lat="42.77182" lon="1.96387">
        <ele>1084.2</ele>
        <time>2024-10-11T12:52:27Z</time>
      </trkpt>
      <trkpt lat="42.77185" lon="1.96385">
        <ele>1084.2</ele>
        <time>2024-10-11T12:52:28Z</time>
      </trkpt>
      <trkpt lat="42.77188" lon="1.96384">
        <ele>1083.2</ele>
        <time>2024-10-11T12:52:29Z</time>
      </trkpt>
      <trkpt lat="42.7719" lon="1.96382">
        <ele>1082.6</ele>
        <time>2024-10-11T12:52:30Z</time>
      </trkpt>
      <trkpt lat="42.77194" lon="1.96381">
        <ele>1082.6</ele>
        <time>2024-10-11T12:52:31Z</time>
      </trkpt>
      <trkpt lat="42.77195" lon="1.9638">
        <ele>1082.6</ele>
        <time>2024-10-11T12:52:32Z</time>
      </trkpt>
      <trkpt lat="42.77199" lon="1.96379">
        <ele>1082.6</ele>
        <time>2024-10-11T12:52:33Z</time>
      </trkpt>
      <trkpt lat="42.772" lon="1.96379">
        <ele>1082.6</ele>
        <time>2024-10-11T12:52:34Z</time>
      </trkpt>
      <trkpt lat="42.77205" lon="1.96381">
        <ele>1082.2</ele>
        <time>2024-10-11T12:52:35Z</time>
      </trkpt>
      <trkpt lat="42.77206" lon="1.96382">
        <ele>1082.2</ele>
        <time>2024-10-11T12:52:36Z</time>
      </trkpt>
      <trkpt lat="42.77211" lon="1.96385">
        <ele>1082.2</ele>
        <time>2024-10-11T12:52:37Z</time>
      </trkpt>
      <trkpt lat="42.77213" lon="1.96385">
        <ele>1082.2</ele>
        <time>2024-10-11T12:52:38Z</time>
      </trkpt>
      <trkpt lat="42.77218" lon="1.96387">
        <ele>1081.6</ele>
        <time>2024-10-11T12:52:39Z</time>
      </trkpt>
      <trkpt lat="42.7722" lon="1.96388">
        <ele>1081.6</ele>
        <time>2024-10-11T12:52:40Z</time>
      </trkpt>
      <trkpt lat="42.77223" lon="1.9639">
        <ele>1081.6</ele>
        <time>2024-10-11T12:52:41Z</time>
      </trkpt>
      <trkpt lat="42.77227" lon="1.96391">
        <ele>1081.6</ele>
        <time>2024-10-11T12:52:42Z</time>
      </trkpt>
      <trkpt lat="42.7723" lon="1.96393">
        <ele>1081.4</ele>
        <time>2024-10-11T12:52:43Z</time>
      </trkpt>
      <trkpt lat="42.77233" lon="1.96394">
        <ele>1081.4</ele>
        <time>2024-10-11T12:52:44Z</time>
      </trkpt>
      <trkpt lat="42.77239" lon="1.96397">
        <ele>1081.4</ele>
        <time>2024-10-11T12:52:45Z</time>
      </trkpt>
      <trkpt lat="42.77241" lon="1.96398">
        <ele>1081.4</ele>
        <time>2024-10-11T12:52:46Z</time>
      </trkpt>
      <trkpt lat="42.77247" lon="1.96401">
        <ele>1080.4</ele>
        <time>2024-10-11T12:52:47Z</time>
      </trkpt>
      <trkpt lat="42.7725" lon="1.96402">
        <ele>1080</ele>
        <time>2024-10-11T12:52:48Z</time>
      </trkpt>
      <trkpt lat="42.77257" lon="1.96404">
        <ele>1080</ele>
        <time>2024-10-11T12:52:49Z</time>
      </trkpt>
      <trkpt lat="42.7726" lon="1.96405">
        <ele>1080</ele>
        <time>2024-10-11T12:52:50Z</time>
      </trkpt>
      <trkpt lat="42.77267" lon="1.96406">
        <ele>1080</ele>
        <time>2024-10-11T12:52:51Z</time>
      </trkpt>
      <trkpt lat="42.7727" lon="1.96407">
        <ele>1079.6</ele>
        <time>2024-10-11T12:52:52Z</time>
      </trkpt>
      <trkpt lat="42.77275" lon="1.96407">
        <ele>1079.4</ele>
        <time>2024-10-11T12:52:53Z</time>
      </trkpt>
      <trkpt lat="42.7728" lon="1.96406">
        <ele>1079.4</ele>
        <time>2024-10-11T12:52:54Z</time>
      </trkpt>
      <trkpt lat="42.77287" lon="1.96407">
        <ele>1079.4</ele>
        <time>2024-10-11T12:52:55Z</time>
      </trkpt>
      <trkpt lat="42.7729" lon="1.96408">
        <ele>1078.6</ele>
        <time>2024-10-11T12:52:56Z</time>
      </trkpt>
      <trkpt lat="42.77295" lon="1.96409">
        <ele>1079</ele>
        <time>2024-10-11T12:52:57Z</time>
      </trkpt>
      <trkpt lat="42.77302" lon="1.96412">
        <ele>1079</ele>
        <time>2024-10-11T12:52:58Z</time>
      </trkpt>
      <trkpt lat="42.77305" lon="1.96413">
        <ele>1079</ele>
        <time>2024-10-11T12:52:59Z</time>
      </trkpt>
      <trkpt lat="42.77313" lon="1.96416">
        <ele>1079</ele>
        <time>2024-10-11T12:53:00Z</time>
      </trkpt>
      <trkpt lat="42.77315" lon="1.96417">
        <ele>1078</ele>
        <time>2024-10-11T12:53:01Z</time>
      </trkpt>
      <trkpt lat="42.77321" lon="1.96418">
        <ele>1077.2</ele>
        <time>2024-10-11T12:53:02Z</time>
      </trkpt>
      <trkpt lat="42.77323" lon="1.96419">
        <ele>1077.2</ele>
        <time>2024-10-11T12:53:03Z</time>
      </trkpt>
      <trkpt lat="42.77328" lon="1.96419">
        <ele>1077.2</ele>
        <time>2024-10-11T12:53:04Z</time>
      </trkpt>
      <trkpt lat="42.77329" lon="1.9642">
        <ele>1076.2</ele>
        <time>2024-10-11T12:53:05Z</time>
      </trkpt>
      <trkpt lat="42.77332" lon="1.9642">
        <ele>1076</ele>
        <time>2024-10-11T12:53:06Z</time>
      </trkpt>
      <trkpt lat="42.77333" lon="1.96421">
        <ele>1076</ele>
        <time>2024-10-11T12:53:07Z</time>
      </trkpt>
      <trkpt lat="42.77336" lon="1.96422">
        <ele>1076</ele>
        <time>2024-10-11T12:53:08Z</time>
      </trkpt>
      <trkpt lat="42.77338" lon="1.96423">
        <ele>1075.4</ele>
        <time>2024-10-11T12:53:09Z</time>
      </trkpt>
      <trkpt lat="42.7734" lon="1.96424">
        <ele>1075.4</ele>
        <time>2024-10-11T12:53:10Z</time>
      </trkpt>
      <trkpt lat="42.77343" lon="1.96424">
        <ele>1074.2</ele>
        <time>2024-10-11T12:53:28Z</time>
      </trkpt>
      <trkpt lat="42.77345" lon="1.96425">
        <ele>1074.2</ele>
        <time>2024-10-11T12:53:29Z</time>
      </trkpt>
      <trkpt lat="42.77349" lon="1.96426">
        <ele>1074.2</ele>
        <time>2024-10-11T12:53:30Z</time>
      </trkpt>
      <trkpt lat="42.77355" lon="1.96426">
        <ele>1074.2</ele>
        <time>2024-10-11T12:53:31Z</time>
      </trkpt>
      <trkpt lat="42.77358" lon="1.96426">
        <ele>1073.8</ele>
        <time>2024-10-11T12:53:32Z</time>
      </trkpt>
      <trkpt lat="42.77365" lon="1.96426">
        <ele>1073.2</ele>
        <time>2024-10-11T12:53:33Z</time>
      </trkpt>
      <trkpt lat="42.77368" lon="1.96426">
        <ele>1073.2</ele>
        <time>2024-10-11T12:53:34Z</time>
      </trkpt>
      <trkpt lat="42.77376" lon="1.96426">
        <ele>1073.2</ele>
        <time>2024-10-11T12:53:35Z</time>
      </trkpt>
      <trkpt lat="42.77379" lon="1.96426">
        <ele>1073.2</ele>
        <time>2024-10-11T12:53:36Z</time>
      </trkpt>
      <trkpt lat="42.77387" lon="1.96426">
        <ele>1072.2</ele>
        <time>2024-10-11T12:53:37Z</time>
      </trkpt>
      <trkpt lat="42.77391" lon="1.96426">
        <ele>1071.2</ele>
        <time>2024-10-11T12:53:38Z</time>
      </trkpt>
      <trkpt lat="42.77397" lon="1.96426">
        <ele>1071.2</ele>
        <time>2024-10-11T12:53:39Z</time>
      </trkpt>
      <trkpt lat="42.77407" lon="1.96425">
        <ele>1071.2</ele>
        <time>2024-10-11T12:53:40Z</time>
      </trkpt>
      <trkpt lat="42.77411" lon="1.96425">
        <ele>1070.2</ele>
        <time>2024-10-11T12:53:41Z</time>
      </trkpt>
      <trkpt lat="42.77418" lon="1.96425">
        <ele>1069</ele>
        <time>2024-10-11T12:53:42Z</time>
      </trkpt>
      <trkpt lat="42.77429" lon="1.96425">
        <ele>1069</ele>
        <time>2024-10-11T12:53:43Z</time>
      </trkpt>
      <trkpt lat="42.77433" lon="1.96425">
        <ele>1069</ele>
        <time>2024-10-11T12:53:44Z</time>
      </trkpt>
      <trkpt lat="42.77444" lon="1.96426">
        <ele>1069</ele>
        <time>2024-10-11T12:53:45Z</time>
      </trkpt>
      <trkpt lat="42.77448" lon="1.96427">
        <ele>1069</ele>
        <time>2024-10-11T12:53:46Z</time>
      </trkpt>
      <trkpt lat="42.77459" lon="1.96429">
        <ele>1066.4</ele>
        <time>2024-10-11T12:53:47Z</time>
      </trkpt>
      <trkpt lat="42.77463" lon="1.9643">
        <ele>1066.4</ele>
        <time>2024-10-11T12:53:48Z</time>
      </trkpt>
      <trkpt lat="42.77475" lon="1.96434">
        <ele>1066.4</ele>
        <time>2024-10-11T12:53:49Z</time>
      </trkpt>
      <trkpt lat="42.77478" lon="1.96437">
        <ele>1066.4</ele>
        <time>2024-10-11T12:53:50Z</time>
      </trkpt>
      <trkpt lat="42.77489" lon="1.96445">
        <ele>1064.2</ele>
        <time>2024-10-11T12:53:51Z</time>
      </trkpt>
      <trkpt lat="42.77492" lon="1.96448">
        <ele>1064.2</ele>
        <time>2024-10-11T12:53:52Z</time>
      </trkpt>
      <trkpt lat="42.77502" lon="1.96458">
        <ele>1064.2</ele>
        <time>2024-10-11T12:53:53Z</time>
      </trkpt>
      <trkpt lat="42.77505" lon="1.96462">
        <ele>1063.2</ele>
        <time>2024-10-11T12:53:54Z</time>
      </trkpt>
      <trkpt lat="42.77515" lon="1.96472">
        <ele>1063.2</ele>
        <time>2024-10-11T12:53:55Z</time>
      </trkpt>
      <trkpt lat="42.77518" lon="1.96476">
        <ele>1062</ele>
        <time>2024-10-11T12:53:56Z</time>
      </trkpt>
      <trkpt lat="42.77529" lon="1.96486">
        <ele>1062</ele>
        <time>2024-10-11T12:53:57Z</time>
      </trkpt>
      <trkpt lat="42.77533" lon="1.96488">
        <ele>1062</ele>
        <time>2024-10-11T12:53:58Z</time>
      </trkpt>
      <trkpt lat="42.77546" lon="1.96495">
        <ele>1062</ele>
        <time>2024-10-11T12:53:59Z</time>
      </trkpt>
      <trkpt lat="42.77551" lon="1.96497">
        <ele>1061</ele>
        <time>2024-10-11T12:54:00Z</time>
      </trkpt>
      <trkpt lat="42.77566" lon="1.965">
        <ele>1058.6</ele>
        <time>2024-10-11T12:54:01Z</time>
      </trkpt>
      <trkpt lat="42.77572" lon="1.96501">
        <ele>1058.6</ele>
        <time>2024-10-11T12:54:02Z</time>
      </trkpt>
      <trkpt lat="42.77588" lon="1.96505">
        <ele>1058.6</ele>
        <time>2024-10-11T12:54:03Z</time>
      </trkpt>
      <trkpt lat="42.77593" lon="1.96507">
        <ele>1057.6</ele>
        <time>2024-10-11T12:54:04Z</time>
      </trkpt>
      <trkpt lat="42.77604" lon="1.96511">
        <ele>1057.6</ele>
        <time>2024-10-11T12:54:05Z</time>
      </trkpt>
      <trkpt lat="42.77614" lon="1.96519">
        <ele>1054.6</ele>
        <time>2024-10-11T12:54:06Z</time>
      </trkpt>
      <trkpt lat="42.77624" lon="1.96527">
        <ele>1054.6</ele>
        <time>2024-10-11T12:54:07Z</time>
      </trkpt>
      <trkpt lat="42.77635" lon="1.96536">
        <ele>1053.6</ele>
        <time>2024-10-11T12:54:08Z</time>
      </trkpt>
      <trkpt lat="42.77645" lon="1.96545">
        <ele>1047.6</ele>
        <time>2024-10-11T12:54:09Z</time>
      </trkpt>
      <trkpt lat="42.77655" lon="1.96554">
        <ele>1047.6</ele>
        <time>2024-10-11T12:54:10Z</time>
      </trkpt>
      <trkpt lat="42.77665" lon="1.96563">
        <ele>1047.6</ele>
        <time>2024-10-11T12:54:11Z</time>
      </trkpt>
      <trkpt lat="42.77675" lon="1.96571">
        <ele>1047.6</ele>
        <time>2024-10-11T12:54:12Z</time>
      </trkpt>
      <trkpt lat="42.77685" lon="1.96579">
        <ele>1046.6</ele>
        <time>2024-10-11T12:54:13Z</time>
      </trkpt>
      <trkpt lat="42.77694" lon="1.96587">
        <ele>1043.8</ele>
        <time>2024-10-11T12:54:14Z</time>
      </trkpt>
      <trkpt lat="42.77708" lon="1.96596">
        <ele>1043.8</ele>
        <time>2024-10-11T12:54:15Z</time>
      </trkpt>
      <trkpt lat="42.77713" lon="1.96599">
        <ele>1043.8</ele>
        <time>2024-10-11T12:54:16Z</time>
      </trkpt>
      <trkpt lat="42.77723" lon="1.96605">
        <ele>1042.8</ele>
        <time>2024-10-11T12:54:17Z</time>
      </trkpt>
      <trkpt lat="42.77738" lon="1.9661">
        <ele>1036.8</ele>
        <time>2024-10-11T12:54:18Z</time>
      </trkpt>
      <trkpt lat="42.77743" lon="1.96612">
        <ele>1036.8</ele>
        <time>2024-10-11T12:54:19Z</time>
      </trkpt>
      <trkpt lat="42.77754" lon="1.96615">
        <ele>1036.8</ele>
        <time>2024-10-11T12:54:20Z</time>
      </trkpt>
      <trkpt lat="42.77765" lon="1.96619">
        <ele>1036.8</ele>
        <time>2024-10-11T12:54:21Z</time>
      </trkpt>
      <trkpt lat="42.7778" lon="1.96624">
        <ele>1035.8</ele>
        <time>2024-10-11T12:54:22Z</time>
      </trkpt>
      <trkpt lat="42.77785" lon="1.96625">
        <ele>1031</ele>
        <time>2024-10-11T12:54:23Z</time>
      </trkpt>
      <trkpt lat="42.77798" lon="1.96631">
        <ele>1031</ele>
        <time>2024-10-11T12:54:24Z</time>
      </trkpt>
      <trkpt lat="42.77802" lon="1.96634">
        <ele>1031</ele>
        <time>2024-10-11T12:54:25Z</time>
      </trkpt>
      <trkpt lat="42.77813" lon="1.96645">
        <ele>1030</ele>
        <time>2024-10-11T12:54:26Z</time>
      </trkpt>
      <trkpt lat="42.77816" lon="1.9665">
        <ele>1030</ele>
        <time>2024-10-11T12:54:27Z</time>
      </trkpt>
      <trkpt lat="42.77822" lon="1.96661">
        <ele>1024.6</ele>
        <time>2024-10-11T12:54:28Z</time>
      </trkpt>
      <trkpt lat="42.77828" lon="1.96669">
        <ele>1024.6</ele>
        <time>2024-10-11T12:54:29Z</time>
      </trkpt>
      <trkpt lat="42.7784" lon="1.9668">
        <ele>1023.6</ele>
        <time>2024-10-11T12:54:30Z</time>
      </trkpt>
      <trkpt lat="42.77844" lon="1.96683">
        <ele>1017</ele>
        <time>2024-10-11T12:54:31Z</time>
      </trkpt>
      <trkpt lat="42.77855" lon="1.96695">
        <ele>1017</ele>
        <time>2024-10-11T12:54:32Z</time>
      </trkpt>
      <trkpt lat="42.77858" lon="1.967">
        <ele>1017</ele>
        <time>2024-10-11T12:54:33Z</time>
      </trkpt>
      <trkpt lat="42.77863" lon="1.9671">
        <ele>1017</ele>
        <time>2024-10-11T12:54:34Z</time>
      </trkpt>
      <trkpt lat="42.77866" lon="1.9672">
        <ele>1016</ele>
        <time>2024-10-11T12:54:35Z</time>
      </trkpt>
      <trkpt lat="42.77867" lon="1.96731">
        <ele>1011.4</ele>
        <time>2024-10-11T12:54:36Z</time>
      </trkpt>
      <trkpt lat="42.77869" lon="1.96742">
        <ele>1011.4</ele>
        <time>2024-10-11T12:54:37Z</time>
      </trkpt>
      <trkpt lat="42.77875" lon="1.96756">
        <ele>1011.4</ele>
        <time>2024-10-11T12:54:38Z</time>
      </trkpt>
      <trkpt lat="42.77878" lon="1.9676">
        <ele>1011.4</ele>
        <time>2024-10-11T12:54:39Z</time>
      </trkpt>
      <trkpt lat="42.77889" lon="1.96771">
        <ele>1011.4</ele>
        <time>2024-10-11T12:54:40Z</time>
      </trkpt>
      <trkpt lat="42.77893" lon="1.96774">
        <ele>1008.6</ele>
        <time>2024-10-11T12:54:41Z</time>
      </trkpt>
      <trkpt lat="42.77906" lon="1.96783">
        <ele>1008.6</ele>
        <time>2024-10-11T12:54:42Z</time>
      </trkpt>
      <trkpt lat="42.7791" lon="1.96786">
        <ele>1008.6</ele>
        <time>2024-10-11T12:54:43Z</time>
      </trkpt>
      <trkpt lat="42.77923" lon="1.96796">
        <ele>1007.6</ele>
        <time>2024-10-11T12:54:44Z</time>
      </trkpt>
      <trkpt lat="42.77927" lon="1.968">
        <ele>1004.6</ele>
        <time>2024-10-11T12:54:45Z</time>
      </trkpt>
      <trkpt lat="42.7794" lon="1.96811">
        <ele>1004.6</ele>
        <time>2024-10-11T12:54:46Z</time>
      </trkpt>
      <trkpt lat="42.77945" lon="1.96815">
        <ele>1004.6</ele>
        <time>2024-10-11T12:54:47Z</time>
      </trkpt>
      <trkpt lat="42.77954" lon="1.96822">
        <ele>1004.6</ele>
        <time>2024-10-11T12:54:48Z</time>
      </trkpt>
      <trkpt lat="42.77963" lon="1.96831">
        <ele>1003.6</ele>
        <time>2024-10-11T12:54:49Z</time>
      </trkpt>
      <trkpt lat="42.77975" lon="1.96845">
        <ele>1003.6</ele>
        <time>2024-10-11T12:54:50Z</time>
      </trkpt>
      <trkpt lat="42.77979" lon="1.9685">
        <ele>999.8</ele>
        <time>2024-10-11T12:54:51Z</time>
      </trkpt>
      <trkpt lat="42.77988" lon="1.96859">
        <ele>999.8</ele>
        <time>2024-10-11T12:54:52Z</time>
      </trkpt>
      <trkpt lat="42.78" lon="1.96874">
        <ele>999.8</ele>
        <time>2024-10-11T12:54:53Z</time>
      </trkpt>
      <trkpt lat="42.78004" lon="1.96879">
        <ele>996.6</ele>
        <time>2024-10-11T12:54:54Z</time>
      </trkpt>
      <trkpt lat="42.78012" lon="1.96889">
        <ele>996.6</ele>
        <time>2024-10-11T12:54:55Z</time>
      </trkpt>
      <trkpt lat="42.7802" lon="1.96898">
        <ele>996.6</ele>
        <time>2024-10-11T12:54:56Z</time>
      </trkpt>
      <trkpt lat="42.7803" lon="1.96912">
        <ele>995.6</ele>
        <time>2024-10-11T12:54:57Z</time>
      </trkpt>
      <trkpt lat="42.78034" lon="1.96917">
        <ele>993.2</ele>
        <time>2024-10-11T12:54:58Z</time>
      </trkpt>
      <trkpt lat="42.78041" lon="1.96926">
        <ele>993.2</ele>
        <time>2024-10-11T12:54:59Z</time>
      </trkpt>
      <trkpt lat="42.78048" lon="1.96934">
        <ele>993.2</ele>
        <time>2024-10-11T12:55:00Z</time>
      </trkpt>
      <trkpt lat="42.78054" lon="1.96949">
        <ele>993.2</ele>
        <time>2024-10-11T12:55:01Z</time>
      </trkpt>
      <trkpt lat="42.78055" lon="1.96954">
        <ele>993.2</ele>
        <time>2024-10-11T12:55:02Z</time>
      </trkpt>
      <trkpt lat="42.7806" lon="1.9697">
        <ele>990.2</ele>
        <time>2024-10-11T12:55:03Z</time>
      </trkpt>
      <trkpt lat="42.78062" lon="1.96975">
        <ele>990.2</ele>
        <time>2024-10-11T12:55:04Z</time>
      </trkpt>
      <trkpt lat="42.78069" lon="1.96991">
        <ele>990.2</ele>
        <time>2024-10-11T12:55:05Z</time>
      </trkpt>
      <trkpt lat="42.78072" lon="1.96995">
        <ele>989.2</ele>
        <time>2024-10-11T12:55:06Z</time>
      </trkpt>
      <trkpt lat="42.78081" lon="1.97009">
        <ele>988</ele>
        <time>2024-10-11T12:55:07Z</time>
      </trkpt>
      <trkpt lat="42.78084" lon="1.97013">
        <ele>988</ele>
        <time>2024-10-11T12:55:08Z</time>
      </trkpt>
      <trkpt lat="42.78093" lon="1.97026">
        <ele>988</ele>
        <time>2024-10-11T12:55:09Z</time>
      </trkpt>
      <trkpt lat="42.78096" lon="1.97032">
        <ele>988</ele>
        <time>2024-10-11T12:55:10Z</time>
      </trkpt>
      <trkpt lat="42.78102" lon="1.97042">
        <ele>986</ele>
        <time>2024-10-11T12:55:11Z</time>
      </trkpt>
      <trkpt lat="42.78105" lon="1.97053">
        <ele>986</ele>
        <time>2024-10-11T12:55:12Z</time>
      </trkpt>
      <trkpt lat="42.78109" lon="1.97069">
        <ele>986</ele>
        <time>2024-10-11T12:55:13Z</time>
      </trkpt>
      <trkpt lat="42.78111" lon="1.97074">
        <ele>986</ele>
        <time>2024-10-11T12:55:14Z</time>
      </trkpt>
      <trkpt lat="42.78116" lon="1.97088">
        <ele>985</ele>
        <time>2024-10-11T12:55:15Z</time>
      </trkpt>
      <trkpt lat="42.78118" lon="1.97093">
        <ele>984.6</ele>
        <time>2024-10-11T12:55:16Z</time>
      </trkpt>
      <trkpt lat="42.78123" lon="1.97102">
        <ele>984.6</ele>
        <time>2024-10-11T12:55:17Z</time>
      </trkpt>
      <trkpt lat="42.78129" lon="1.97109">
        <ele>984.6</ele>
        <time>2024-10-11T12:55:18Z</time>
      </trkpt>
      <trkpt lat="42.78137" lon="1.97114">
        <ele>984.6</ele>
        <time>2024-10-11T12:55:19Z</time>
      </trkpt>
      <trkpt lat="42.78145" lon="1.97119">
        <ele>981.6</ele>
        <time>2024-10-11T12:55:20Z</time>
      </trkpt>
      <trkpt lat="42.78157" lon="1.97125">
        <ele>981.6</ele>
        <time>2024-10-11T12:55:21Z</time>
      </trkpt>
      <trkpt lat="42.78161" lon="1.97128">
        <ele>981.6</ele>
        <time>2024-10-11T12:55:22Z</time>
      </trkpt>
      <trkpt lat="42.78173" lon="1.97136">
        <ele>981.6</ele>
        <time>2024-10-11T12:55:23Z</time>
      </trkpt>
      <trkpt lat="42.78177" lon="1.9714">
        <ele>980.6</ele>
        <time>2024-10-11T12:55:24Z</time>
      </trkpt>
      <trkpt lat="42.78188" lon="1.97149">
        <ele>979.4</ele>
        <time>2024-10-11T12:55:25Z</time>
      </trkpt>
      <trkpt lat="42.78192" lon="1.97153">
        <ele>979.4</ele>
        <time>2024-10-11T12:55:26Z</time>
      </trkpt>
      <trkpt lat="42.78204" lon="1.97163">
        <ele>979.4</ele>
        <time>2024-10-11T12:55:27Z</time>
      </trkpt>
      <trkpt lat="42.78208" lon="1.97166">
        <ele>979.4</ele>
        <time>2024-10-11T12:55:28Z</time>
      </trkpt>
      <trkpt lat="42.78221" lon="1.97175">
        <ele>977.4</ele>
        <time>2024-10-11T12:55:29Z</time>
      </trkpt>
      <trkpt lat="42.78225" lon="1.97178">
        <ele>977.4</ele>
        <time>2024-10-11T12:55:30Z</time>
      </trkpt>
      <trkpt lat="42.78234" lon="1.97184">
        <ele>977.4</ele>
        <time>2024-10-11T12:55:31Z</time>
      </trkpt>
      <trkpt lat="42.78243" lon="1.97188">
        <ele>977.4</ele>
        <time>2024-10-11T12:55:32Z</time>
      </trkpt>
      <trkpt lat="42.78251" lon="1.97192">
        <ele>977.4</ele>
        <time>2024-10-11T12:55:33Z</time>
      </trkpt>
      <trkpt lat="42.78259" lon="1.97197">
        <ele>973.6</ele>
        <time>2024-10-11T12:55:34Z</time>
      </trkpt>
      <trkpt lat="42.78267" lon="1.97203">
        <ele>973.6</ele>
        <time>2024-10-11T12:55:35Z</time>
      </trkpt>
      <trkpt lat="42.78272" lon="1.97212">
        <ele>973.6</ele>
        <time>2024-10-11T12:55:36Z</time>
      </trkpt>
      <trkpt lat="42.78279" lon="1.97227">
        <ele>973.6</ele>
        <time>2024-10-11T12:55:37Z</time>
      </trkpt>
      <trkpt lat="42.7828" lon="1.97233">
        <ele>971</ele>
        <time>2024-10-11T12:55:38Z</time>
      </trkpt>
      <trkpt lat="42.78285" lon="1.97251">
        <ele>971</ele>
        <time>2024-10-11T12:55:39Z</time>
      </trkpt>
      <trkpt lat="42.78285" lon="1.97257">
        <ele>971</ele>
        <time>2024-10-11T12:55:40Z</time>
      </trkpt>
      <trkpt lat="42.78289" lon="1.97275">
        <ele>971</ele>
        <time>2024-10-11T12:55:41Z</time>
      </trkpt>
      <trkpt lat="42.7829" lon="1.97281">
        <ele>970</ele>
        <time>2024-10-11T12:55:42Z</time>
      </trkpt>
      <trkpt lat="42.78293" lon="1.97292">
        <ele>963.6</ele>
        <time>2024-10-11T12:55:43Z</time>
      </trkpt>
      <trkpt lat="42.78297" lon="1.97302">
        <ele>963.6</ele>
        <time>2024-10-11T12:55:44Z</time>
      </trkpt>
      <trkpt lat="42.78303" lon="1.97312">
        <ele>963.6</ele>
        <time>2024-10-11T12:55:45Z</time>
      </trkpt>
      <trkpt lat="42.78312" lon="1.97326">
        <ele>964.2</ele>
        <time>2024-10-11T12:55:46Z</time>
      </trkpt>
      <trkpt lat="42.78316" lon="1.9733">
        <ele>964.2</ele>
        <time>2024-10-11T12:55:47Z</time>
      </trkpt>
      <trkpt lat="42.78327" lon="1.97341">
        <ele>963</ele>
        <time>2024-10-11T12:55:48Z</time>
      </trkpt>
      <trkpt lat="42.78332" lon="1.97344">
        <ele>963</ele>
        <time>2024-10-11T12:55:49Z</time>
      </trkpt>
      <trkpt lat="42.78341" lon="1.9735">
        <ele>963</ele>
        <time>2024-10-11T12:55:50Z</time>
      </trkpt>
      <trkpt lat="42.7835" lon="1.97355">
        <ele>959.4</ele>
        <time>2024-10-11T12:55:51Z</time>
      </trkpt>
      <trkpt lat="42.78363" lon="1.97362">
        <ele>959.4</ele>
        <time>2024-10-11T12:55:52Z</time>
      </trkpt>
      <trkpt lat="42.78367" lon="1.97364">
        <ele>959.4</ele>
        <time>2024-10-11T12:55:53Z</time>
      </trkpt>
      <trkpt lat="42.7838" lon="1.9737">
        <ele>959.4</ele>
        <time>2024-10-11T12:55:54Z</time>
      </trkpt>
      <trkpt lat="42.78384" lon="1.97372">
        <ele>958.4</ele>
        <time>2024-10-11T12:55:55Z</time>
      </trkpt>
      <trkpt lat="42.78395" lon="1.97378">
        <ele>956.6</ele>
        <time>2024-10-11T12:55:56Z</time>
      </trkpt>
      <trkpt lat="42.78399" lon="1.97381">
        <ele>956.6</ele>
        <time>2024-10-11T12:55:57Z</time>
      </trkpt>
      <trkpt lat="42.78406" lon="1.97385">
        <ele>956.6</ele>
        <time>2024-10-11T12:55:58Z</time>
      </trkpt>
      <trkpt lat="42.78414" lon="1.9739">
        <ele>955.6</ele>
        <time>2024-10-11T12:55:59Z</time>
      </trkpt>
      <trkpt lat="42.78417" lon="1.97399">
        <ele>955.6</ele>
        <time>2024-10-11T12:56:00Z</time>
      </trkpt>
      <trkpt lat="42.78421" lon="1.97406">
        <ele>954.4</ele>
        <time>2024-10-11T12:56:01Z</time>
      </trkpt>
      <trkpt lat="42.78424" lon="1.97412">
        <ele>954.4</ele>
        <time>2024-10-11T12:56:02Z</time>
      </trkpt>
      <trkpt lat="42.78429" lon="1.97418">
        <ele>953.4</ele>
        <time>2024-10-11T12:56:03Z</time>
      </trkpt>
      <trkpt lat="42.78431" lon="1.97424">
        <ele>953.4</ele>
        <time>2024-10-11T12:56:04Z</time>
      </trkpt>
      <trkpt lat="42.78434" lon="1.97431">
        <ele>952.4</ele>
        <time>2024-10-11T12:56:05Z</time>
      </trkpt>
      <trkpt lat="42.78433" lon="1.97442">
        <ele>952.4</ele>
        <time>2024-10-11T12:56:06Z</time>
      </trkpt>
      <trkpt lat="42.78436" lon="1.9745">
        <ele>952.4</ele>
        <time>2024-10-11T12:56:07Z</time>
      </trkpt>
      <trkpt lat="42.78439" lon="1.97458">
        <ele>952.4</ele>
        <time>2024-10-11T12:56:08Z</time>
      </trkpt>
      <trkpt lat="42.78443" lon="1.97466">
        <ele>951.4</ele>
        <time>2024-10-11T12:56:09Z</time>
      </trkpt>
      <trkpt lat="42.78448" lon="1.97474">
        <ele>949</ele>
        <time>2024-10-11T12:56:10Z</time>
      </trkpt>
      <trkpt lat="42.78455" lon="1.97487">
        <ele>949</ele>
        <time>2024-10-11T12:56:11Z</time>
      </trkpt>
      <trkpt lat="42.78458" lon="1.97492">
        <ele>949</ele>
        <time>2024-10-11T12:56:12Z</time>
      </trkpt>
      <trkpt lat="42.78463" lon="1.97502">
        <ele>948</ele>
        <time>2024-10-11T12:56:13Z</time>
      </trkpt>
      <trkpt lat="42.78468" lon="1.97512">
        <ele>946.6</ele>
        <time>2024-10-11T12:56:14Z</time>
      </trkpt>
      <trkpt lat="42.78474" lon="1.97521">
        <ele>946.6</ele>
        <time>2024-10-11T12:56:15Z</time>
      </trkpt>
      <trkpt lat="42.78479" lon="1.97529">
        <ele>946.6</ele>
        <time>2024-10-11T12:56:16Z</time>
      </trkpt>
      <trkpt lat="42.78485" lon="1.97538">
        <ele>946.6</ele>
        <time>2024-10-11T12:56:17Z</time>
      </trkpt>
      <trkpt lat="42.78491" lon="1.97548">
        <ele>945.6</ele>
        <time>2024-10-11T12:56:18Z</time>
      </trkpt>
      <trkpt lat="42.78497" lon="1.97557">
        <ele>943</ele>
        <time>2024-10-11T12:56:19Z</time>
      </trkpt>
      <trkpt lat="42.78503" lon="1.97565">
        <ele>943</ele>
        <time>2024-10-11T12:56:20Z</time>
      </trkpt>
      <trkpt lat="42.78511" lon="1.97573">
        <ele>943</ele>
        <time>2024-10-11T12:56:21Z</time>
      </trkpt>
      <trkpt lat="42.78518" lon="1.9758">
        <ele>942</ele>
        <time>2024-10-11T12:56:22Z</time>
      </trkpt>
      <trkpt lat="42.7853" lon="1.9759">
        <ele>940.2</ele>
        <time>2024-10-11T12:56:23Z</time>
      </trkpt>
      <trkpt lat="42.78534" lon="1.97594">
        <ele>940.2</ele>
        <time>2024-10-11T12:56:24Z</time>
      </trkpt>
      <trkpt lat="42.78541" lon="1.97602">
        <ele>940.2</ele>
        <time>2024-10-11T12:56:25Z</time>
      </trkpt>
      <trkpt lat="42.7855" lon="1.97616">
        <ele>939.2</ele>
        <time>2024-10-11T12:56:26Z</time>
      </trkpt>
      <trkpt lat="42.78553" lon="1.97621">
        <ele>939.2</ele>
        <time>2024-10-11T12:56:27Z</time>
      </trkpt>
      <trkpt lat="42.78562" lon="1.97635">
        <ele>937.6</ele>
        <time>2024-10-11T12:56:28Z</time>
      </trkpt>
      <trkpt lat="42.78564" lon="1.9764">
        <ele>937.6</ele>
        <time>2024-10-11T12:56:29Z</time>
      </trkpt>
      <trkpt lat="42.78569" lon="1.9765">
        <ele>937.6</ele>
        <time>2024-10-11T12:56:30Z</time>
      </trkpt>
      <trkpt lat="42.78576" lon="1.97666">
        <ele>936.6</ele>
        <time>2024-10-11T12:56:31Z</time>
      </trkpt>
      <trkpt lat="42.78578" lon="1.97672">
        <ele>935.4</ele>
        <time>2024-10-11T12:56:32Z</time>
      </trkpt>
      <trkpt lat="42.78584" lon="1.97688">
        <ele>935.4</ele>
        <time>2024-10-11T12:56:33Z</time>
      </trkpt>
      <trkpt lat="42.78587" lon="1.97694">
        <ele>935.4</ele>
        <time>2024-10-11T12:56:34Z</time>
      </trkpt>
      <trkpt lat="42.78593" lon="1.9771">
        <ele>934.4</ele>
        <time>2024-10-11T12:56:35Z</time>
      </trkpt>
      <trkpt lat="42.78596" lon="1.97715">
        <ele>934.4</ele>
        <time>2024-10-11T12:56:36Z</time>
      </trkpt>
      <trkpt lat="42.78603" lon="1.9773">
        <ele>933.6</ele>
        <time>2024-10-11T12:56:37Z</time>
      </trkpt>
      <trkpt lat="42.78605" lon="1.97735">
        <ele>933.6</ele>
        <time>2024-10-11T12:56:38Z</time>
      </trkpt>
      <trkpt lat="42.78614" lon="1.97749">
        <ele>933.6</ele>
        <time>2024-10-11T12:56:39Z</time>
      </trkpt>
      <trkpt lat="42.78617" lon="1.97753">
        <ele>932.6</ele>
        <time>2024-10-11T12:56:40Z</time>
      </trkpt>
      <trkpt lat="42.78623" lon="1.97762">
        <ele>929.2</ele>
        <time>2024-10-11T12:56:41Z</time>
      </trkpt>
      <trkpt lat="42.78629" lon="1.97769">
        <ele>929.2</ele>
        <time>2024-10-11T12:56:42Z</time>
      </trkpt>
      <trkpt lat="42.78636" lon="1.97777">
        <ele>929.2</ele>
        <time>2024-10-11T12:56:43Z</time>
      </trkpt>
      <trkpt lat="42.78642" lon="1.97785">
        <ele>930</ele>
        <time>2024-10-11T12:56:44Z</time>
      </trkpt>
      <trkpt lat="42.78647" lon="1.97792">
        <ele>930.2</ele>
        <time>2024-10-11T12:56:45Z</time>
      </trkpt>
      <trkpt lat="42.78652" lon="1.97798">
        <ele>930.2</ele>
        <time>2024-10-11T12:56:46Z</time>
      </trkpt>
      <trkpt lat="42.7866" lon="1.97805">
        <ele>930.2</ele>
        <time>2024-10-11T12:56:47Z</time>
      </trkpt>
      <trkpt lat="42.78662" lon="1.97808">
        <ele>930.2</ele>
        <time>2024-10-11T12:56:48Z</time>
      </trkpt>
      <trkpt lat="42.7867" lon="1.97815">
        <ele>929.2</ele>
        <time>2024-10-11T12:56:49Z</time>
      </trkpt>
      <trkpt lat="42.78672" lon="1.97817">
        <ele>928.4</ele>
        <time>2024-10-11T12:56:50Z</time>
      </trkpt>
      <trkpt lat="42.78679" lon="1.97824">
        <ele>928.4</ele>
        <time>2024-10-11T12:56:51Z</time>
      </trkpt>
      <trkpt lat="42.78681" lon="1.97827">
        <ele>928.4</ele>
        <time>2024-10-11T12:56:52Z</time>
      </trkpt>
      <trkpt lat="42.78688" lon="1.97833">
        <ele>927.4</ele>
        <time>2024-10-11T12:56:53Z</time>
      </trkpt>
      <trkpt lat="42.7869" lon="1.97836">
        <ele>926.8</ele>
        <time>2024-10-11T12:56:54Z</time>
      </trkpt>
      <trkpt lat="42.78695" lon="1.9784">
        <ele>926.8</ele>
        <time>2024-10-11T12:56:55Z</time>
      </trkpt>
      <trkpt lat="42.78699" lon="1.97844">
        <ele>926.8</ele>
        <time>2024-10-11T12:56:56Z</time>
      </trkpt>
      <trkpt lat="42.78703" lon="1.97848">
        <ele>926.8</ele>
        <time>2024-10-11T12:56:57Z</time>
      </trkpt>
      <trkpt lat="42.78705" lon="1.97851">
        <ele>926.2</ele>
        <time>2024-10-11T12:56:58Z</time>
      </trkpt>
      <trkpt lat="42.78708" lon="1.97854">
        <ele>926</ele>
        <time>2024-10-11T12:56:59Z</time>
      </trkpt>
      <trkpt lat="42.78711" lon="1.97856">
        <ele>926</ele>
        <time>2024-10-11T12:57:00Z</time>
      </trkpt>
      <trkpt lat="42.78712" lon="1.97857">
        <ele>926</ele>
        <time>2024-10-11T12:57:01Z</time>
      </trkpt>
      <trkpt lat="42.78715" lon="1.97859">
        <ele>925.2</ele>
        <time>2024-10-11T12:57:02Z</time>
      </trkpt>
      <trkpt lat="42.78718" lon="1.97862">
        <ele>925.6</ele>
        <time>2024-10-11T12:57:03Z</time>
      </trkpt>
      <trkpt lat="42.78719" lon="1.97863">
        <ele>925.6</ele>
        <time>2024-10-11T12:57:04Z</time>
      </trkpt>
      <trkpt lat="42.78723" lon="1.97864">
        <ele>925.6</ele>
        <time>2024-10-11T12:57:05Z</time>
      </trkpt>
      <trkpt lat="42.78725" lon="1.97864">
        <ele>925.6</ele>
        <time>2024-10-11T12:57:06Z</time>
      </trkpt>
      <trkpt lat="42.78728" lon="1.97866">
        <ele>925.4</ele>
        <time>2024-10-11T12:57:07Z</time>
      </trkpt>
      <trkpt lat="42.78731" lon="1.97866">
        <ele>925.4</ele>
        <time>2024-10-11T12:57:08Z</time>
      </trkpt>
      <trkpt lat="42.78734" lon="1.97868">
        <ele>925.4</ele>
        <time>2024-10-11T12:57:09Z</time>
      </trkpt>
      <trkpt lat="42.78737" lon="1.97869">
        <ele>925.4</ele>
        <time>2024-10-11T12:57:10Z</time>
      </trkpt>
      <trkpt lat="42.78742" lon="1.97871">
        <ele>924.8</ele>
        <time>2024-10-11T12:57:11Z</time>
      </trkpt>
      <trkpt lat="42.78743" lon="1.97872">
        <ele>925.4</ele>
        <time>2024-10-11T12:57:12Z</time>
      </trkpt>
      <trkpt lat="42.78748" lon="1.97874">
        <ele>925.4</ele>
        <time>2024-10-11T12:57:13Z</time>
      </trkpt>
      <trkpt lat="42.7875" lon="1.97874">
        <ele>925.4</ele>
        <time>2024-10-11T12:57:14Z</time>
      </trkpt>
      <trkpt lat="42.78754" lon="1.97876">
        <ele>925.4</ele>
        <time>2024-10-11T12:57:15Z</time>
      </trkpt>
      <trkpt lat="42.78756" lon="1.97877">
        <ele>924.6</ele>
        <time>2024-10-11T12:57:16Z</time>
      </trkpt>
      <trkpt lat="42.7876" lon="1.97881">
        <ele>924.4</ele>
        <time>2024-10-11T12:57:17Z</time>
      </trkpt>
      <trkpt lat="42.78762" lon="1.97882">
        <ele>924.4</ele>
        <time>2024-10-11T12:57:18Z</time>
      </trkpt>
      <trkpt lat="42.78765" lon="1.97885">
        <ele>924.4</ele>
        <time>2024-10-11T12:57:19Z</time>
      </trkpt>
      <trkpt lat="42.78768" lon="1.97888">
        <ele>924</ele>
        <time>2024-10-11T12:57:20Z</time>
      </trkpt>
      <trkpt lat="42.78773" lon="1.97891">
        <ele>924</ele>
        <time>2024-10-11T12:57:21Z</time>
      </trkpt>
      <trkpt lat="42.78775" lon="1.97892">
        <ele>924</ele>
        <time>2024-10-11T12:57:22Z</time>
      </trkpt>
      <trkpt lat="42.78778" lon="1.97894">
        <ele>924</ele>
        <time>2024-10-11T12:57:23Z</time>
      </trkpt>
      <trkpt lat="42.78782" lon="1.97896">
        <ele>923.8</ele>
        <time>2024-10-11T12:57:24Z</time>
      </trkpt>
      <trkpt lat="42.78784" lon="1.97896">
        <ele>924</ele>
        <time>2024-10-11T12:57:25Z</time>
      </trkpt>
      <trkpt lat="42.78787" lon="1.97897">
        <ele>924</ele>
        <time>2024-10-11T12:57:26Z</time>
      </trkpt>
      <trkpt lat="42.78791" lon="1.97901">
        <ele>924</ele>
        <time>2024-10-11T12:57:27Z</time>
      </trkpt>
      <trkpt lat="42.78792" lon="1.97902">
        <ele>924</ele>
        <time>2024-10-11T12:57:28Z</time>
      </trkpt>
      <trkpt lat="42.78794" lon="1.97904">
        <ele>923.8</ele>
        <time>2024-10-11T12:57:29Z</time>
      </trkpt>
      <trkpt lat="42.78795" lon="1.97907">
        <ele>923.8</ele>
        <time>2024-10-11T12:57:30Z</time>
      </trkpt>
      <trkpt lat="42.78798" lon="1.97912">
        <ele>923.6</ele>
        <time>2024-10-11T12:57:31Z</time>
      </trkpt>
      <trkpt lat="42.78799" lon="1.97914">
        <ele>923.6</ele>
        <time>2024-10-11T12:57:32Z</time>
      </trkpt>
      <trkpt lat="42.78802" lon="1.97919">
        <ele>923.6</ele>
        <time>2024-10-11T12:57:33Z</time>
      </trkpt>
      <trkpt lat="42.78803" lon="1.97921">
        <ele>923</ele>
        <time>2024-10-11T12:57:34Z</time>
      </trkpt>
      <trkpt lat="42.78804" lon="1.97925">
        <ele>923</ele>
        <time>2024-10-11T12:57:35Z</time>
      </trkpt>
      <trkpt lat="42.78806" lon="1.9793">
        <ele>923</ele>
        <time>2024-10-11T12:57:36Z</time>
      </trkpt>
      <trkpt lat="42.78807" lon="1.97936">
        <ele>923</ele>
        <time>2024-10-11T12:57:37Z</time>
      </trkpt>
      <trkpt lat="42.78808" lon="1.97942">
        <ele>923</ele>
        <time>2024-10-11T12:57:38Z</time>
      </trkpt>
      <trkpt lat="42.78809" lon="1.97948">
        <ele>923</ele>
        <time>2024-10-11T12:57:39Z</time>
      </trkpt>
      <trkpt lat="42.7881" lon="1.97955">
        <ele>922.6</ele>
        <time>2024-10-11T12:57:40Z</time>
      </trkpt>
      <trkpt lat="42.7881" lon="1.97962">
        <ele>922.6</ele>
        <time>2024-10-11T12:57:41Z</time>
      </trkpt>
      <trkpt lat="42.78811" lon="1.97969">
        <ele>922.6</ele>
        <time>2024-10-11T12:57:42Z</time>
      </trkpt>
      <trkpt lat="42.78811" lon="1.97975">
        <ele>922.2</ele>
        <time>2024-10-11T12:57:43Z</time>
      </trkpt>
      <trkpt lat="42.78812" lon="1.97982">
        <ele>922.4</ele>
        <time>2024-10-11T12:57:44Z</time>
      </trkpt>
      <trkpt lat="42.78813" lon="1.97989">
        <ele>922.4</ele>
        <time>2024-10-11T12:57:45Z</time>
      </trkpt>
      <trkpt lat="42.78815" lon="1.97995">
        <ele>922.4</ele>
        <time>2024-10-11T12:57:46Z</time>
      </trkpt>
      <trkpt lat="42.78819" lon="1.98004">
        <ele>921.6</ele>
        <time>2024-10-11T12:57:47Z</time>
      </trkpt>
      <trkpt lat="42.7882" lon="1.98007">
        <ele>921.4</ele>
        <time>2024-10-11T12:57:48Z</time>
      </trkpt>
      <trkpt lat="42.78825" lon="1.98015">
        <ele>921.4</ele>
        <time>2024-10-11T12:57:49Z</time>
      </trkpt>
      <trkpt lat="42.78826" lon="1.98018">
        <ele>921.4</ele>
        <time>2024-10-11T12:57:50Z</time>
      </trkpt>
      <trkpt lat="42.78832" lon="1.98027">
        <ele>921.4</ele>
        <time>2024-10-11T12:57:51Z</time>
      </trkpt>
      <trkpt lat="42.78834" lon="1.9803">
        <ele>921.4</ele>
        <time>2024-10-11T12:57:52Z</time>
      </trkpt>
      <trkpt lat="42.78841" lon="1.98037">
        <ele>920.2</ele>
        <time>2024-10-11T12:57:53Z</time>
      </trkpt>
      <trkpt lat="42.78843" lon="1.9804">
        <ele>920.2</ele>
        <time>2024-10-11T12:57:54Z</time>
      </trkpt>
      <trkpt lat="42.78848" lon="1.98044">
        <ele>920.2</ele>
        <time>2024-10-11T12:57:55Z</time>
      </trkpt>
      <trkpt lat="42.78855" lon="1.98051">
        <ele>920.2</ele>
        <time>2024-10-11T12:57:56Z</time>
      </trkpt>
      <trkpt lat="42.78858" lon="1.98053">
        <ele>919.4</ele>
        <time>2024-10-11T12:57:57Z</time>
      </trkpt>
      <trkpt lat="42.78864" lon="1.98059">
        <ele>919.4</ele>
        <time>2024-10-11T12:57:58Z</time>
      </trkpt>
      <trkpt lat="42.78866" lon="1.98061">
        <ele>919.4</ele>
        <time>2024-10-11T12:57:59Z</time>
      </trkpt>
      <trkpt lat="42.78873" lon="1.98068">
        <ele>918.4</ele>
        <time>2024-10-11T12:58:00Z</time>
      </trkpt>
      <trkpt lat="42.78875" lon="1.9807">
        <ele>918.4</ele>
        <time>2024-10-11T12:58:01Z</time>
      </trkpt>
      <trkpt lat="42.78882" lon="1.98076">
        <ele>918.4</ele>
        <time>2024-10-11T12:58:02Z</time>
      </trkpt>
      <trkpt lat="42.78885" lon="1.98078">
        <ele>918.4</ele>
        <time>2024-10-11T12:58:03Z</time>
      </trkpt>
      <trkpt lat="42.78892" lon="1.98084">
        <ele>918.4</ele>
        <time>2024-10-11T12:58:04Z</time>
      </trkpt>
      <trkpt lat="42.78894" lon="1.98085">
        <ele>917.8</ele>
        <time>2024-10-11T12:58:05Z</time>
      </trkpt>
      <trkpt lat="42.78899" lon="1.98088">
        <ele>917.4</ele>
        <time>2024-10-11T12:58:06Z</time>
      </trkpt>
      <trkpt lat="42.78905" lon="1.9809">
        <ele>917.4</ele>
        <time>2024-10-11T12:58:07Z</time>
      </trkpt>
      <trkpt lat="42.7891" lon="1.98093">
        <ele>917.4</ele>
        <time>2024-10-11T12:58:08Z</time>
      </trkpt>
      <trkpt lat="42.78915" lon="1.98096">
        <ele>916.4</ele>
        <time>2024-10-11T12:58:09Z</time>
      </trkpt>
      <trkpt lat="42.7892" lon="1.981">
        <ele>916.8</ele>
        <time>2024-10-11T12:58:10Z</time>
      </trkpt>
      <trkpt lat="42.78925" lon="1.98106">
        <ele>916.8</ele>
        <time>2024-10-11T12:58:11Z</time>
      </trkpt>
      <trkpt lat="42.7893" lon="1.98113">
        <ele>916.8</ele>
        <time>2024-10-11T12:58:12Z</time>
      </trkpt>
      <trkpt lat="42.78935" lon="1.98119">
        <ele>916.8</ele>
        <time>2024-10-11T12:58:13Z</time>
      </trkpt>
      <trkpt lat="42.7894" lon="1.98126">
        <ele>916.8</ele>
        <time>2024-10-11T12:58:14Z</time>
      </trkpt>
      <trkpt lat="42.78946" lon="1.98132">
        <ele>916.2</ele>
        <time>2024-10-11T12:58:15Z</time>
      </trkpt>
      <trkpt lat="42.7895" lon="1.98139">
        <ele>915.6</ele>
        <time>2024-10-11T12:58:16Z</time>
      </trkpt>
      <trkpt lat="42.78953" lon="1.98147">
        <ele>915.6</ele>
        <time>2024-10-11T12:58:17Z</time>
      </trkpt>
      <trkpt lat="42.7896" lon="1.9816">
        <ele>915.6</ele>
        <time>2024-10-11T12:58:18Z</time>
      </trkpt>
      <trkpt lat="42.78962" lon="1.98164">
        <ele>915</ele>
        <time>2024-10-11T12:58:19Z</time>
      </trkpt>
      <trkpt lat="42.78967" lon="1.98176">
        <ele>915.2</ele>
        <time>2024-10-11T12:58:20Z</time>
      </trkpt>
      <trkpt lat="42.78968" lon="1.9818">
        <ele>915.2</ele>
        <time>2024-10-11T12:58:21Z</time>
      </trkpt>
      <trkpt lat="42.78971" lon="1.98189">
        <ele>915.2</ele>
        <time>2024-10-11T12:58:22Z</time>
      </trkpt>
      <trkpt lat="42.78973" lon="1.98198">
        <ele>914.6</ele>
        <time>2024-10-11T12:58:23Z</time>
      </trkpt>
      <trkpt lat="42.78975" lon="1.98208">
        <ele>911.2</ele>
        <time>2024-10-11T12:58:24Z</time>
      </trkpt>
      <trkpt lat="42.78975" lon="1.98218">
        <ele>911.2</ele>
        <time>2024-10-11T12:58:25Z</time>
      </trkpt>
      <trkpt lat="42.78974" lon="1.98229">
        <ele>911.2</ele>
        <time>2024-10-11T12:58:26Z</time>
      </trkpt>
      <trkpt lat="42.78974" lon="1.98241">
        <ele>911.2</ele>
        <time>2024-10-11T12:58:27Z</time>
      </trkpt>
      <trkpt lat="42.78977" lon="1.98258">
        <ele>911.4</ele>
        <time>2024-10-11T12:58:28Z</time>
      </trkpt>
      <trkpt lat="42.78978" lon="1.98264">
        <ele>911.4</ele>
        <time>2024-10-11T12:58:29Z</time>
      </trkpt>
      <trkpt lat="42.78982" lon="1.98281">
        <ele>911.4</ele>
        <time>2024-10-11T12:58:30Z</time>
      </trkpt>
      <trkpt lat="42.78983" lon="1.98286">
        <ele>911.4</ele>
        <time>2024-10-11T12:58:31Z</time>
      </trkpt>
      <trkpt lat="42.78987" lon="1.98297">
        <ele>910.4</ele>
        <time>2024-10-11T12:58:32Z</time>
      </trkpt>
      <trkpt lat="42.78991" lon="1.98309">
        <ele>909.4</ele>
        <time>2024-10-11T12:58:33Z</time>
      </trkpt>
      <trkpt lat="42.78996" lon="1.98325">
        <ele>909.4</ele>
        <time>2024-10-11T12:58:34Z</time>
      </trkpt>
      <trkpt lat="42.78998" lon="1.98331">
        <ele>909.4</ele>
        <time>2024-10-11T12:58:35Z</time>
      </trkpt>
      <trkpt lat="42.79004" lon="1.98348">
        <ele>909.4</ele>
        <time>2024-10-11T12:58:36Z</time>
      </trkpt>
      <trkpt lat="42.79007" lon="1.98354">
        <ele>908.4</ele>
        <time>2024-10-11T12:58:37Z</time>
      </trkpt>
      <trkpt lat="42.79014" lon="1.98371">
        <ele>905.8</ele>
        <time>2024-10-11T12:58:38Z</time>
      </trkpt>
      <trkpt lat="42.79017" lon="1.98376">
        <ele>905.8</ele>
        <time>2024-10-11T12:58:39Z</time>
      </trkpt>
      <trkpt lat="42.79022" lon="1.98386">
        <ele>905.8</ele>
        <time>2024-10-11T12:58:40Z</time>
      </trkpt>
      <trkpt lat="42.79032" lon="1.984">
        <ele>904.8</ele>
        <time>2024-10-11T12:58:41Z</time>
      </trkpt>
      <trkpt lat="42.79036" lon="1.98404">
        <ele>903.6</ele>
        <time>2024-10-11T12:58:42Z</time>
      </trkpt>
      <trkpt lat="42.79047" lon="1.98417">
        <ele>903.6</ele>
        <time>2024-10-11T12:58:43Z</time>
      </trkpt>
      <trkpt lat="42.79051" lon="1.98421">
        <ele>903.6</ele>
        <time>2024-10-11T12:58:44Z</time>
      </trkpt>
      <trkpt lat="42.79062" lon="1.98435">
        <ele>902.6</ele>
        <time>2024-10-11T12:58:45Z</time>
      </trkpt>
      <trkpt lat="42.79066" lon="1.98439">
        <ele>902.6</ele>
        <time>2024-10-11T12:58:46Z</time>
      </trkpt>
      <trkpt lat="42.79076" lon="1.98454">
        <ele>901.6</ele>
        <time>2024-10-11T12:58:47Z</time>
      </trkpt>
      <trkpt lat="42.79079" lon="1.98459">
        <ele>901.6</ele>
        <time>2024-10-11T12:58:48Z</time>
      </trkpt>
      <trkpt lat="42.79088" lon="1.98474">
        <ele>901.6</ele>
        <time>2024-10-11T12:58:49Z</time>
      </trkpt>
      <trkpt lat="42.7909" lon="1.9848">
        <ele>900.6</ele>
        <time>2024-10-11T12:58:50Z</time>
      </trkpt>
      <trkpt lat="42.79095" lon="1.98491">
        <ele>899.2</ele>
        <time>2024-10-11T12:58:51Z</time>
      </trkpt>
      <trkpt lat="42.791" lon="1.98502">
        <ele>899.2</ele>
        <time>2024-10-11T12:58:52Z</time>
      </trkpt>
      <trkpt lat="42.79105" lon="1.98511">
        <ele>899.2</ele>
        <time>2024-10-11T12:58:53Z</time>
      </trkpt>
      <trkpt lat="42.7911" lon="1.98521">
        <ele>898.2</ele>
        <time>2024-10-11T12:58:54Z</time>
      </trkpt>
      <trkpt lat="42.79115" lon="1.9853">
        <ele>897</ele>
        <time>2024-10-11T12:58:55Z</time>
      </trkpt>
      <trkpt lat="42.79121" lon="1.98539">
        <ele>897</ele>
        <time>2024-10-11T12:58:56Z</time>
      </trkpt>
      <trkpt lat="42.79129" lon="1.98552">
        <ele>897</ele>
        <time>2024-10-11T12:58:57Z</time>
      </trkpt>
      <trkpt lat="42.79132" lon="1.98556">
        <ele>897</ele>
        <time>2024-10-11T12:58:58Z</time>
      </trkpt>
      <trkpt lat="42.7914" lon="1.98568">
        <ele>897</ele>
        <time>2024-10-11T12:58:59Z</time>
      </trkpt>
      <trkpt lat="42.79142" lon="1.98571">
        <ele>895.4</ele>
        <time>2024-10-11T12:59:00Z</time>
      </trkpt>
      <trkpt lat="42.79147" lon="1.98577">
        <ele>895.4</ele>
        <time>2024-10-11T12:59:01Z</time>
      </trkpt>
      <trkpt lat="42.79151" lon="1.98585">
        <ele>895.4</ele>
        <time>2024-10-11T12:59:02Z</time>
      </trkpt>
      <trkpt lat="42.79157" lon="1.98596">
        <ele>895.4</ele>
        <time>2024-10-11T12:59:03Z</time>
      </trkpt>
      <trkpt lat="42.79159" lon="1.986">
        <ele>894.4</ele>
        <time>2024-10-11T12:59:04Z</time>
      </trkpt>
      <trkpt lat="42.79163" lon="1.98608">
        <ele>894.4</ele>
        <time>2024-10-11T12:59:05Z</time>
      </trkpt>
      <trkpt lat="42.79168" lon="1.98616">
        <ele>893.6</ele>
        <time>2024-10-11T12:59:06Z</time>
      </trkpt>
      <trkpt lat="42.79171" lon="1.98624">
        <ele>893.6</ele>
        <time>2024-10-11T12:59:07Z</time>
      </trkpt>
      <trkpt lat="42.79175" lon="1.98631">
        <ele>892.6</ele>
        <time>2024-10-11T12:59:08Z</time>
      </trkpt>
      <trkpt lat="42.79177" lon="1.9864">
        <ele>891.8</ele>
        <time>2024-10-11T12:59:09Z</time>
      </trkpt>
      <trkpt lat="42.79178" lon="1.9865">
        <ele>891.8</ele>
        <time>2024-10-11T12:59:10Z</time>
      </trkpt>
      <trkpt lat="42.79179" lon="1.9866">
        <ele>891.8</ele>
        <time>2024-10-11T12:59:11Z</time>
      </trkpt>
      <trkpt lat="42.79182" lon="1.9867">
        <ele>891.8</ele>
        <time>2024-10-11T12:59:12Z</time>
      </trkpt>
      <trkpt lat="42.79186" lon="1.98685">
        <ele>891.8</ele>
        <time>2024-10-11T12:59:13Z</time>
      </trkpt>
      <trkpt lat="42.79187" lon="1.98689">
        <ele>891</ele>
        <time>2024-10-11T12:59:14Z</time>
      </trkpt>
      <trkpt lat="42.7919" lon="1.98699">
        <ele>891</ele>
        <time>2024-10-11T12:59:15Z</time>
      </trkpt>
      <trkpt lat="42.79197" lon="1.9871">
        <ele>891</ele>
        <time>2024-10-11T12:59:16Z</time>
      </trkpt>
      <trkpt lat="42.79199" lon="1.98714">
        <ele>890.4</ele>
        <time>2024-10-11T12:59:17Z</time>
      </trkpt>
      <trkpt lat="42.79207" lon="1.98725">
        <ele>890</ele>
        <time>2024-10-11T12:59:18Z</time>
      </trkpt>
      <trkpt lat="42.7921" lon="1.98728">
        <ele>890</ele>
        <time>2024-10-11T12:59:19Z</time>
      </trkpt>
      <trkpt lat="42.7922" lon="1.98737">
        <ele>890</ele>
        <time>2024-10-11T12:59:20Z</time>
      </trkpt>
      <trkpt lat="42.79223" lon="1.9874">
        <ele>890</ele>
        <time>2024-10-11T12:59:21Z</time>
      </trkpt>
      <trkpt lat="42.7923" lon="1.98745">
        <ele>890</ele>
        <time>2024-10-11T12:59:22Z</time>
      </trkpt>
      <trkpt lat="42.7924" lon="1.98754">
        <ele>890</ele>
        <time>2024-10-11T12:59:23Z</time>
      </trkpt>
      <trkpt lat="42.79243" lon="1.98757">
        <ele>890</ele>
        <time>2024-10-11T12:59:24Z</time>
      </trkpt>
      <trkpt lat="42.79253" lon="1.98766">
        <ele>890</ele>
        <time>2024-10-11T12:59:25Z</time>
      </trkpt>
      <trkpt lat="42.79256" lon="1.98769">
        <ele>889</ele>
        <time>2024-10-11T12:59:26Z</time>
      </trkpt>
      <trkpt lat="42.79266" lon="1.98779">
        <ele>887.4</ele>
        <time>2024-10-11T12:59:27Z</time>
      </trkpt>
      <trkpt lat="42.79269" lon="1.98783">
        <ele>887.4</ele>
        <time>2024-10-11T12:59:28Z</time>
      </trkpt>
      <trkpt lat="42.79279" lon="1.98794">
        <ele>887.4</ele>
        <time>2024-10-11T12:59:29Z</time>
      </trkpt>
      <trkpt lat="42.79282" lon="1.98798">
        <ele>887.4</ele>
        <time>2024-10-11T12:59:30Z</time>
      </trkpt>
      <trkpt lat="42.79291" lon="1.9881">
        <ele>886.2</ele>
        <time>2024-10-11T12:59:31Z</time>
      </trkpt>
      <trkpt lat="42.79294" lon="1.98814">
        <ele>886.2</ele>
        <time>2024-10-11T12:59:32Z</time>
      </trkpt>
      <trkpt lat="42.79299" lon="1.98821">
        <ele>886.2</ele>
        <time>2024-10-11T12:59:33Z</time>
      </trkpt>
      <trkpt lat="42.79306" lon="1.98829">
        <ele>886.2</ele>
        <time>2024-10-11T12:59:34Z</time>
      </trkpt>
      <trkpt lat="42.79312" lon="1.98837">
        <ele>885.6</ele>
        <time>2024-10-11T12:59:35Z</time>
      </trkpt>
      <trkpt lat="42.79318" lon="1.98845">
        <ele>885.6</ele>
        <time>2024-10-11T12:59:36Z</time>
      </trkpt>
      <trkpt lat="42.79325" lon="1.98852">
        <ele>885.6</ele>
        <time>2024-10-11T12:59:37Z</time>
      </trkpt>
      <trkpt lat="42.79331" lon="1.98859">
        <ele>885.6</ele>
        <time>2024-10-11T12:59:38Z</time>
      </trkpt>
      <trkpt lat="42.79337" lon="1.98867">
        <ele>884.6</ele>
        <time>2024-10-11T12:59:39Z</time>
      </trkpt>
      <trkpt lat="42.79342" lon="1.98875">
        <ele>884.6</ele>
        <time>2024-10-11T12:59:40Z</time>
      </trkpt>
      <trkpt lat="42.79351" lon="1.98888">
        <ele>883.2</ele>
        <time>2024-10-11T12:59:41Z</time>
      </trkpt>
      <trkpt lat="42.79353" lon="1.98891">
        <ele>883.2</ele>
        <time>2024-10-11T12:59:42Z</time>
      </trkpt>
      <trkpt lat="42.79362" lon="1.98903">
        <ele>883.2</ele>
        <time>2024-10-11T12:59:43Z</time>
      </trkpt>
      <trkpt lat="42.79365" lon="1.98907">
        <ele>883.4</ele>
        <time>2024-10-11T12:59:44Z</time>
      </trkpt>
      <trkpt lat="42.79371" lon="1.98915">
        <ele>883.4</ele>
        <time>2024-10-11T12:59:45Z</time>
      </trkpt>
      <trkpt lat="42.79377" lon="1.98922">
        <ele>883.2</ele>
        <time>2024-10-11T12:59:46Z</time>
      </trkpt>
      <trkpt lat="42.79383" lon="1.9893">
        <ele>883.2</ele>
        <time>2024-10-11T12:59:47Z</time>
      </trkpt>
      <trkpt lat="42.79389" lon="1.98936">
        <ele>883.2</ele>
        <time>2024-10-11T12:59:48Z</time>
      </trkpt>
      <trkpt lat="42.79396" lon="1.98943">
        <ele>883.2</ele>
        <time>2024-10-11T12:59:49Z</time>
      </trkpt>
      <trkpt lat="42.79403" lon="1.98951">
        <ele>882.6</ele>
        <time>2024-10-11T12:59:50Z</time>
      </trkpt>
      <trkpt lat="42.79409" lon="1.98958">
        <ele>882.6</ele>
        <time>2024-10-11T12:59:51Z</time>
      </trkpt>
      <trkpt lat="42.79415" lon="1.98964">
        <ele>882.6</ele>
        <time>2024-10-11T12:59:52Z</time>
      </trkpt>
      <trkpt lat="42.79421" lon="1.98972">
        <ele>882.6</ele>
        <time>2024-10-11T12:59:53Z</time>
      </trkpt>
      <trkpt lat="42.79426" lon="1.9898">
        <ele>882</ele>
        <time>2024-10-11T12:59:54Z</time>
      </trkpt>
      <trkpt lat="42.79432" lon="1.98994">
        <ele>882</ele>
        <time>2024-10-11T12:59:55Z</time>
      </trkpt>
      <trkpt lat="42.79434" lon="1.98999">
        <ele>882</ele>
        <time>2024-10-11T12:59:56Z</time>
      </trkpt>
      <trkpt lat="42.79439" lon="1.99014">
        <ele>882</ele>
        <time>2024-10-11T12:59:57Z</time>
      </trkpt>
      <trkpt lat="42.79441" lon="1.99019">
        <ele>881</ele>
        <time>2024-10-11T12:59:58Z</time>
      </trkpt>
      <trkpt lat="42.79443" lon="1.99029">
        <ele>881</ele>
        <time>2024-10-11T12:59:59Z</time>
      </trkpt>
      <trkpt lat="42.79447" lon="1.99045">
        <ele>881</ele>
        <time>2024-10-11T13:00:00Z</time>
      </trkpt>
      <trkpt lat="42.79448" lon="1.9905">
        <ele>881</ele>
        <time>2024-10-11T13:00:01Z</time>
      </trkpt>
      <trkpt lat="42.79453" lon="1.99064">
        <ele>880</ele>
        <time>2024-10-11T13:00:02Z</time>
      </trkpt>
      <trkpt lat="42.79456" lon="1.99068">
        <ele>879</ele>
        <time>2024-10-11T13:00:03Z</time>
      </trkpt>
      <trkpt lat="42.79463" lon="1.9908">
        <ele>879</ele>
        <time>2024-10-11T13:00:04Z</time>
      </trkpt>
      <trkpt lat="42.79466" lon="1.99084">
        <ele>879</ele>
        <time>2024-10-11T13:00:05Z</time>
      </trkpt>
      <trkpt lat="42.79472" lon="1.99092">
        <ele>879</ele>
        <time>2024-10-11T13:00:06Z</time>
      </trkpt>
      <trkpt lat="42.79481" lon="1.99102">
        <ele>878.4</ele>
        <time>2024-10-11T13:00:07Z</time>
      </trkpt>
      <trkpt lat="42.79484" lon="1.99106">
        <ele>878.4</ele>
        <time>2024-10-11T13:00:08Z</time>
      </trkpt>
      <trkpt lat="42.79493" lon="1.99117">
        <ele>878.4</ele>
        <time>2024-10-11T13:00:09Z</time>
      </trkpt>
      <trkpt lat="42.79496" lon="1.99121">
        <ele>878.4</ele>
        <time>2024-10-11T13:00:10Z</time>
      </trkpt>
      <trkpt lat="42.79505" lon="1.99132">
        <ele>877.6</ele>
        <time>2024-10-11T13:00:11Z</time>
      </trkpt>
      <trkpt lat="42.79508" lon="1.99136">
        <ele>876.8</ele>
        <time>2024-10-11T13:00:12Z</time>
      </trkpt>
      <trkpt lat="42.79517" lon="1.99147">
        <ele>876.8</ele>
        <time>2024-10-11T13:00:13Z</time>
      </trkpt>
      <trkpt lat="42.7952" lon="1.99151">
        <ele>876.8</ele>
        <time>2024-10-11T13:00:14Z</time>
      </trkpt>
      <trkpt lat="42.79526" lon="1.99159">
        <ele>876.8</ele>
        <time>2024-10-11T13:00:15Z</time>
      </trkpt>
      <trkpt lat="42.79531" lon="1.99168">
        <ele>875.8</ele>
        <time>2024-10-11T13:00:16Z</time>
      </trkpt>
      <trkpt lat="42.79534" lon="1.99178">
        <ele>875.8</ele>
        <time>2024-10-11T13:00:17Z</time>
      </trkpt>
      <trkpt lat="42.79537" lon="1.99188">
        <ele>875.8</ele>
        <time>2024-10-11T13:00:18Z</time>
      </trkpt>
      <trkpt lat="42.79538" lon="1.99199">
        <ele>875.8</ele>
        <time>2024-10-11T13:00:19Z</time>
      </trkpt>
      <trkpt lat="42.79537" lon="1.9921">
        <ele>875.4</ele>
        <time>2024-10-11T13:00:20Z</time>
      </trkpt>
      <trkpt lat="42.79536" lon="1.99224">
        <ele>875.4</ele>
        <time>2024-10-11T13:00:21Z</time>
      </trkpt>
      <trkpt lat="42.79535" lon="1.99229">
        <ele>874.8</ele>
        <time>2024-10-11T13:00:22Z</time>
      </trkpt>
      <trkpt lat="42.79533" lon="1.99242">
        <ele>874.8</ele>
        <time>2024-10-11T13:00:23Z</time>
      </trkpt>
      <trkpt lat="42.79533" lon="1.99245">
        <ele>874.8</ele>
        <time>2024-10-11T13:00:24Z</time>
      </trkpt>
      <trkpt lat="42.79533" lon="1.99249">
        <ele>874.2</ele>
        <time>2024-10-11T13:00:25Z</time>
      </trkpt>
      <trkpt lat="42.79532" lon="1.99251">
        <ele>873.8</ele>
        <time>2024-10-11T13:00:26Z</time>
      </trkpt>
      <trkpt lat="42.79532" lon="1.99252">
        <ele>873.8</ele>
        <time>2024-10-11T13:00:27Z</time>
      </trkpt>
      <trkpt lat="42.79532" lon="1.99252">
        <ele>873.8</ele>
        <time>2024-10-11T13:00:28Z</time>
      </trkpt>
      <trkpt lat="42.79532" lon="1.99252">
        <ele>873.8</ele>
        <time>2024-10-11T13:00:29Z</time>
      </trkpt>
      <trkpt lat="42.79528" lon="1.99264">
        <ele>873</ele>
        <time>2024-10-11T13:01:20Z</time>
      </trkpt>
      <trkpt lat="42.79528" lon="1.99268">
        <ele>873</ele>
        <time>2024-10-11T13:01:21Z</time>
      </trkpt>
      <trkpt lat="42.79529" lon="1.99272">
        <ele>873</ele>
        <time>2024-10-11T13:01:22Z</time>
      </trkpt>
      <trkpt lat="42.79531" lon="1.99279">
        <ele>873</ele>
        <time>2024-10-11T13:01:23Z</time>
      </trkpt>
      <trkpt lat="42.79531" lon="1.99282">
        <ele>872.6</ele>
        <time>2024-10-11T13:01:24Z</time>
      </trkpt>
      <trkpt lat="42.79532" lon="1.99288">
        <ele>872.4</ele>
        <time>2024-10-11T13:01:25Z</time>
      </trkpt>
      <trkpt lat="42.79533" lon="1.99298">
        <ele>872.4</ele>
        <time>2024-10-11T13:01:26Z</time>
      </trkpt>
      <trkpt lat="42.79534" lon="1.99302">
        <ele>872.4</ele>
        <time>2024-10-11T13:01:27Z</time>
      </trkpt>
      <trkpt lat="42.79537" lon="1.99313">
        <ele>872.4</ele>
        <time>2024-10-11T13:01:28Z</time>
      </trkpt>
      <trkpt lat="42.79538" lon="1.99317">
        <ele>872.4</ele>
        <time>2024-10-11T13:01:29Z</time>
      </trkpt>
      <trkpt lat="42.79541" lon="1.99328">
        <ele>871.6</ele>
        <time>2024-10-11T13:01:30Z</time>
      </trkpt>
      <trkpt lat="42.79543" lon="1.99331">
        <ele>871.6</ele>
        <time>2024-10-11T13:01:31Z</time>
      </trkpt>
      <trkpt lat="42.79547" lon="1.99338">
        <ele>871.4</ele>
        <time>2024-10-11T13:01:32Z</time>
      </trkpt>
      <trkpt lat="42.79554" lon="1.99346">
        <ele>871.2</ele>
        <time>2024-10-11T13:01:33Z</time>
      </trkpt>
      <trkpt lat="42.79557" lon="1.99349">
        <ele>871.2</ele>
        <time>2024-10-11T13:01:34Z</time>
      </trkpt>
      <trkpt lat="42.79567" lon="1.99355">
        <ele>871.2</ele>
        <time>2024-10-11T13:01:35Z</time>
      </trkpt>
      <trkpt lat="42.7957" lon="1.99357">
        <ele>871.2</ele>
        <time>2024-10-11T13:01:36Z</time>
      </trkpt>
      <trkpt lat="42.7958" lon="1.99361">
        <ele>870.8</ele>
        <time>2024-10-11T13:01:37Z</time>
      </trkpt>
      <trkpt lat="42.79584" lon="1.99362">
        <ele>869.8</ele>
        <time>2024-10-11T13:01:38Z</time>
      </trkpt>
      <trkpt lat="42.79595" lon="1.99365">
        <ele>869.8</ele>
        <time>2024-10-11T13:01:39Z</time>
      </trkpt>
      <trkpt lat="42.79598" lon="1.99366">
        <ele>869.8</ele>
        <time>2024-10-11T13:01:40Z</time>
      </trkpt>
      <trkpt lat="42.79605" lon="1.99367">
        <ele>869.8</ele>
        <time>2024-10-11T13:01:41Z</time>
      </trkpt>
      <trkpt lat="42.79613" lon="1.9937">
        <ele>869.4</ele>
        <time>2024-10-11T13:01:42Z</time>
      </trkpt>
      <trkpt lat="42.7962" lon="1.99373">
        <ele>869.4</ele>
        <time>2024-10-11T13:01:43Z</time>
      </trkpt>
      <trkpt lat="42.79627" lon="1.99375">
        <ele>869.4</ele>
        <time>2024-10-11T13:01:44Z</time>
      </trkpt>
      <trkpt lat="42.79633" lon="1.99378">
        <ele>869.4</ele>
        <time>2024-10-11T13:01:45Z</time>
      </trkpt>
      <trkpt lat="42.79641" lon="1.9938">
        <ele>868.8</ele>
        <time>2024-10-11T13:01:46Z</time>
      </trkpt>
      <trkpt lat="42.79648" lon="1.99383">
        <ele>868.6</ele>
        <time>2024-10-11T13:01:47Z</time>
      </trkpt>
      <trkpt lat="42.79655" lon="1.99385">
        <ele>868.6</ele>
        <time>2024-10-11T13:01:48Z</time>
      </trkpt>
      <trkpt lat="42.79662" lon="1.99388">
        <ele>868.6</ele>
        <time>2024-10-11T13:01:49Z</time>
      </trkpt>
      <trkpt lat="42.79669" lon="1.99391">
        <ele>868.6</ele>
        <time>2024-10-11T13:01:50Z</time>
      </trkpt>
      <trkpt lat="42.79679" lon="1.99396">
        <ele>867.6</ele>
        <time>2024-10-11T13:01:51Z</time>
      </trkpt>
      <trkpt lat="42.79683" lon="1.99398">
        <ele>867.2</ele>
        <time>2024-10-11T13:01:52Z</time>
      </trkpt>
      <trkpt lat="42.7969" lon="1.99403">
        <ele>867.2</ele>
        <time>2024-10-11T13:01:53Z</time>
      </trkpt>
      <trkpt lat="42.79697" lon="1.99407">
        <ele>867.2</ele>
        <time>2024-10-11T13:01:54Z</time>
      </trkpt>
      <trkpt lat="42.79703" lon="1.99413">
        <ele>867.8</ele>
        <time>2024-10-11T13:01:55Z</time>
      </trkpt>
      <trkpt lat="42.79709" lon="1.99418">
        <ele>868.2</ele>
        <time>2024-10-11T13:01:56Z</time>
      </trkpt>
      <trkpt lat="42.79716" lon="1.99422">
        <ele>868.2</ele>
        <time>2024-10-11T13:01:57Z</time>
      </trkpt>
      <trkpt lat="42.79723" lon="1.99427">
        <ele>868.2</ele>
        <time>2024-10-11T13:01:58Z</time>
      </trkpt>
      <trkpt lat="42.79729" lon="1.99431">
        <ele>868.2</ele>
        <time>2024-10-11T13:01:59Z</time>
      </trkpt>
      <trkpt lat="42.7974" lon="1.99436">
        <ele>867.2</ele>
        <time>2024-10-11T13:02:00Z</time>
      </trkpt>
      <trkpt lat="42.79744" lon="1.99437">
        <ele>866.2</ele>
        <time>2024-10-11T13:02:01Z</time>
      </trkpt>
      <trkpt lat="42.79752" lon="1.99439">
        <ele>866.2</ele>
        <time>2024-10-11T13:02:02Z</time>
      </trkpt>
      <trkpt lat="42.79759" lon="1.99438">
        <ele>866.2</ele>
        <time>2024-10-11T13:02:03Z</time>
      </trkpt>
      <trkpt lat="42.7977" lon="1.99437">
        <ele>866</ele>
        <time>2024-10-11T13:02:04Z</time>
      </trkpt>
      <trkpt lat="42.79774" lon="1.99436">
        <ele>865.4</ele>
        <time>2024-10-11T13:02:05Z</time>
      </trkpt>
      <trkpt lat="42.79786" lon="1.99436">
        <ele>865.4</ele>
        <time>2024-10-11T13:02:06Z</time>
      </trkpt>
      <trkpt lat="42.79791" lon="1.99435">
        <ele>865.4</ele>
        <time>2024-10-11T13:02:07Z</time>
      </trkpt>
      <trkpt lat="42.79799" lon="1.99435">
        <ele>864.6</ele>
        <time>2024-10-11T13:02:08Z</time>
      </trkpt>
      <trkpt lat="42.79807" lon="1.99435">
        <ele>864.6</ele>
        <time>2024-10-11T13:02:09Z</time>
      </trkpt>
      <trkpt lat="42.79814" lon="1.99438">
        <ele>864.4</ele>
        <time>2024-10-11T13:02:10Z</time>
      </trkpt>
      <trkpt lat="42.79825" lon="1.99444">
        <ele>864.4</ele>
        <time>2024-10-11T13:02:11Z</time>
      </trkpt>
      <trkpt lat="42.79828" lon="1.99447">
        <ele>864.4</ele>
        <time>2024-10-11T13:02:12Z</time>
      </trkpt>
      <trkpt lat="42.79836" lon="1.99458">
        <ele>864</ele>
        <time>2024-10-11T13:02:13Z</time>
      </trkpt>
      <trkpt lat="42.79839" lon="1.99462">
        <ele>863.8</ele>
        <time>2024-10-11T13:02:14Z</time>
      </trkpt>
      <trkpt lat="42.79844" lon="1.99476">
        <ele>863.8</ele>
        <time>2024-10-11T13:02:15Z</time>
      </trkpt>
      <trkpt lat="42.79844" lon="1.99482">
        <ele>863.8</ele>
        <time>2024-10-11T13:02:16Z</time>
      </trkpt>
      <trkpt lat="42.79847" lon="1.99497">
        <ele>863.4</ele>
        <time>2024-10-11T13:02:17Z</time>
      </trkpt>
      <trkpt lat="42.79847" lon="1.99503">
        <ele>863.4</ele>
        <time>2024-10-11T13:02:18Z</time>
      </trkpt>
      <trkpt lat="42.79849" lon="1.99518">
        <ele>863</ele>
        <time>2024-10-11T13:02:19Z</time>
      </trkpt>
      <trkpt lat="42.79849" lon="1.99523">
        <ele>863</ele>
        <time>2024-10-11T13:02:20Z</time>
      </trkpt>
      <trkpt lat="42.7985" lon="1.99537">
        <ele>863</ele>
        <time>2024-10-11T13:02:21Z</time>
      </trkpt>
      <trkpt lat="42.79851" lon="1.99542">
        <ele>863</ele>
        <time>2024-10-11T13:02:22Z</time>
      </trkpt>
      <trkpt lat="42.79854" lon="1.99557">
        <ele>862.4</ele>
        <time>2024-10-11T13:02:23Z</time>
      </trkpt>
      <trkpt lat="42.79856" lon="1.99562">
        <ele>862.4</ele>
        <time>2024-10-11T13:02:24Z</time>
      </trkpt>
      <trkpt lat="42.7986" lon="1.99571">
        <ele>862.4</ele>
        <time>2024-10-11T13:02:25Z</time>
      </trkpt>
      <trkpt lat="42.79863" lon="1.9958">
        <ele>862.4</ele>
        <time>2024-10-11T13:02:26Z</time>
      </trkpt>
      <trkpt lat="42.79868" lon="1.99589">
        <ele>861.6</ele>
        <time>2024-10-11T13:02:27Z</time>
      </trkpt>
      <trkpt lat="42.79872" lon="1.99598">
        <ele>861.6</ele>
        <time>2024-10-11T13:02:28Z</time>
      </trkpt>
      <trkpt lat="42.79877" lon="1.99606">
        <ele>861.6</ele>
        <time>2024-10-11T13:02:29Z</time>
      </trkpt>
      <trkpt lat="42.79881" lon="1.99614">
        <ele>861.6</ele>
        <time>2024-10-11T13:02:30Z</time>
      </trkpt>
      <trkpt lat="42.79886" lon="1.99623">
        <ele>861.6</ele>
        <time>2024-10-11T13:02:31Z</time>
      </trkpt>
      <trkpt lat="42.79891" lon="1.99631">
        <ele>860.6</ele>
        <time>2024-10-11T13:02:32Z</time>
      </trkpt>
      <trkpt lat="42.79896" lon="1.9964">
        <ele>860.6</ele>
        <time>2024-10-11T13:02:33Z</time>
      </trkpt>
      <trkpt lat="42.79901" lon="1.99649">
        <ele>860.6</ele>
        <time>2024-10-11T13:02:34Z</time>
      </trkpt>
      <trkpt lat="42.79907" lon="1.99663">
        <ele>860.6</ele>
        <time>2024-10-11T13:02:35Z</time>
      </trkpt>
      <trkpt lat="42.79909" lon="1.99667">
        <ele>860.6</ele>
        <time>2024-10-11T13:02:36Z</time>
      </trkpt>
      <trkpt lat="42.79913" lon="1.99677">
        <ele>860.6</ele>
        <time>2024-10-11T13:02:37Z</time>
      </trkpt>
      <trkpt lat="42.79918" lon="1.99685">
        <ele>860.4</ele>
        <time>2024-10-11T13:02:38Z</time>
      </trkpt>
      <trkpt lat="42.7992" lon="1.99694">
        <ele>860.4</ele>
        <time>2024-10-11T13:02:39Z</time>
      </trkpt>
      <trkpt lat="42.79923" lon="1.99704">
        <ele>859.4</ele>
        <time>2024-10-11T13:02:40Z</time>
      </trkpt>
      <trkpt lat="42.79926" lon="1.99714">
        <ele>858.8</ele>
        <time>2024-10-11T13:02:41Z</time>
      </trkpt>
      <trkpt lat="42.79928" lon="1.99724">
        <ele>858.8</ele>
        <time>2024-10-11T13:02:42Z</time>
      </trkpt>
      <trkpt lat="42.7993" lon="1.99735">
        <ele>858.8</ele>
        <time>2024-10-11T13:02:43Z</time>
      </trkpt>
      <trkpt lat="42.79935" lon="1.9975">
        <ele>858.8</ele>
        <time>2024-10-11T13:02:44Z</time>
      </trkpt>
      <trkpt lat="42.79937" lon="1.99755">
        <ele>857</ele>
        <time>2024-10-11T13:02:45Z</time>
      </trkpt>
      <trkpt lat="42.79941" lon="1.99765">
        <ele>857</ele>
        <time>2024-10-11T13:02:46Z</time>
      </trkpt>
      <trkpt lat="42.79945" lon="1.99774">
        <ele>857</ele>
        <time>2024-10-11T13:02:47Z</time>
      </trkpt>
      <trkpt lat="42.79953" lon="1.99786">
        <ele>857</ele>
        <time>2024-10-11T13:02:48Z</time>
      </trkpt>
      <trkpt lat="42.79956" lon="1.9979">
        <ele>857</ele>
        <time>2024-10-11T13:02:49Z</time>
      </trkpt>
      <trkpt lat="42.79963" lon="1.99797">
        <ele>856</ele>
        <time>2024-10-11T13:02:50Z</time>
      </trkpt>
      <trkpt lat="42.79969" lon="1.99803">
        <ele>856</ele>
        <time>2024-10-11T13:02:51Z</time>
      </trkpt>
      <trkpt lat="42.79977" lon="1.99808">
        <ele>856</ele>
        <time>2024-10-11T13:02:52Z</time>
      </trkpt>
      <trkpt lat="42.79988" lon="1.99814">
        <ele>855.6</ele>
        <time>2024-10-11T13:02:53Z</time>
      </trkpt>
      <trkpt lat="42.79992" lon="1.99816">
        <ele>855.6</ele>
        <time>2024-10-11T13:02:54Z</time>
      </trkpt>
      <trkpt lat="42.80004" lon="1.99821">
        <ele>855.4</ele>
        <time>2024-10-11T13:02:55Z</time>
      </trkpt>
      <trkpt lat="42.80008" lon="1.99823">
        <ele>855.4</ele>
        <time>2024-10-11T13:02:56Z</time>
      </trkpt>
      <trkpt lat="42.80015" lon="1.99827">
        <ele>855.4</ele>
        <time>2024-10-11T13:02:57Z</time>
      </trkpt>
      <trkpt lat="42.80026" lon="1.99834">
        <ele>854.4</ele>
        <time>2024-10-11T13:02:58Z</time>
      </trkpt>
      <trkpt lat="42.80029" lon="1.99836">
        <ele>854</ele>
        <time>2024-10-11T13:02:59Z</time>
      </trkpt>
      <trkpt lat="42.80041" lon="1.99842">
        <ele>854</ele>
        <time>2024-10-11T13:03:00Z</time>
      </trkpt>
      <trkpt lat="42.80045" lon="1.99844">
        <ele>854</ele>
        <time>2024-10-11T13:03:01Z</time>
      </trkpt>
      <trkpt lat="42.80057" lon="1.9985">
        <ele>853</ele>
        <time>2024-10-11T13:03:02Z</time>
      </trkpt>
      <trkpt lat="42.80061" lon="1.99853">
        <ele>853</ele>
        <time>2024-10-11T13:03:03Z</time>
      </trkpt>
      <trkpt lat="42.80072" lon="1.99862">
        <ele>853</ele>
        <time>2024-10-11T13:03:04Z</time>
      </trkpt>
      <trkpt lat="42.80075" lon="1.99866">
        <ele>853</ele>
        <time>2024-10-11T13:03:05Z</time>
      </trkpt>
      <trkpt lat="42.80083" lon="1.99878">
        <ele>853</ele>
        <time>2024-10-11T13:03:06Z</time>
      </trkpt>
      <trkpt lat="42.80086" lon="1.99882">
        <ele>852</ele>
        <time>2024-10-11T13:03:07Z</time>
      </trkpt>
      <trkpt lat="42.80091" lon="1.99892">
        <ele>849.6</ele>
        <time>2024-10-11T13:03:08Z</time>
      </trkpt>
      <trkpt lat="42.80095" lon="1.99901">
        <ele>849.6</ele>
        <time>2024-10-11T13:03:09Z</time>
      </trkpt>
      <trkpt lat="42.801" lon="1.99911">
        <ele>849.6</ele>
        <time>2024-10-11T13:03:10Z</time>
      </trkpt>
      <trkpt lat="42.80104" lon="1.99922">
        <ele>848.6</ele>
        <time>2024-10-11T13:03:11Z</time>
      </trkpt>
      <trkpt lat="42.80107" lon="1.99932">
        <ele>848</ele>
        <time>2024-10-11T13:03:12Z</time>
      </trkpt>
      <trkpt lat="42.8011" lon="1.99943">
        <ele>848</ele>
        <time>2024-10-11T13:03:13Z</time>
      </trkpt>
      <trkpt lat="42.80114" lon="1.99954">
        <ele>848</ele>
        <time>2024-10-11T13:03:14Z</time>
      </trkpt>
      <trkpt lat="42.80117" lon="1.99964">
        <ele>848</ele>
        <time>2024-10-11T13:03:15Z</time>
      </trkpt>
      <trkpt lat="42.80119" lon="1.99976">
        <ele>847</ele>
        <time>2024-10-11T13:03:16Z</time>
      </trkpt>
      <trkpt lat="42.80121" lon="1.99987">
        <ele>846.2</ele>
        <time>2024-10-11T13:03:17Z</time>
      </trkpt>
      <trkpt lat="42.80121" lon="1.99998">
        <ele>846.2</ele>
        <time>2024-10-11T13:03:18Z</time>
      </trkpt>
      <trkpt lat="42.80122" lon="2.00009">
        <ele>846.2</ele>
        <time>2024-10-11T13:03:19Z</time>
      </trkpt>
      <trkpt lat="42.80122" lon="2.0002">
        <ele>846.2</ele>
        <time>2024-10-11T13:03:20Z</time>
      </trkpt>
      <trkpt lat="42.80121" lon="2.0003">
        <ele>845.2</ele>
        <time>2024-10-11T13:03:21Z</time>
      </trkpt>
      <trkpt lat="42.80121" lon="2.0004">
        <ele>844.8</ele>
        <time>2024-10-11T13:03:22Z</time>
      </trkpt>
      <trkpt lat="42.80121" lon="2.00051">
        <ele>844.8</ele>
        <time>2024-10-11T13:03:23Z</time>
      </trkpt>
      <trkpt lat="42.8012" lon="2.00062">
        <ele>844.8</ele>
        <time>2024-10-11T13:03:24Z</time>
      </trkpt>
      <trkpt lat="42.80119" lon="2.00073">
        <ele>844.8</ele>
        <time>2024-10-11T13:03:25Z</time>
      </trkpt>
      <trkpt lat="42.80117" lon="2.00083">
        <ele>843.4</ele>
        <time>2024-10-11T13:03:26Z</time>
      </trkpt>
      <trkpt lat="42.80114" lon="2.00097">
        <ele>843.4</ele>
        <time>2024-10-11T13:03:27Z</time>
      </trkpt>
      <trkpt lat="42.80113" lon="2.00102">
        <ele>843.4</ele>
        <time>2024-10-11T13:03:28Z</time>
      </trkpt>
      <trkpt lat="42.80111" lon="2.00112">
        <ele>843.4</ele>
        <time>2024-10-11T13:03:29Z</time>
      </trkpt>
      <trkpt lat="42.80112" lon="2.00122">
        <ele>843.2</ele>
        <time>2024-10-11T13:03:30Z</time>
      </trkpt>
      <trkpt lat="42.80115" lon="2.00136">
        <ele>843.2</ele>
        <time>2024-10-11T13:03:31Z</time>
      </trkpt>
      <trkpt lat="42.80117" lon="2.0014">
        <ele>843.2</ele>
        <time>2024-10-11T13:03:32Z</time>
      </trkpt>
      <trkpt lat="42.80121" lon="2.00148">
        <ele>843.2</ele>
        <time>2024-10-11T13:03:33Z</time>
      </trkpt>
      <trkpt lat="42.8013" lon="2.00156">
        <ele>842.2</ele>
        <time>2024-10-11T13:03:34Z</time>
      </trkpt>
      <trkpt lat="42.80133" lon="2.00159">
        <ele>842.4</ele>
        <time>2024-10-11T13:03:35Z</time>
      </trkpt>
      <trkpt lat="42.80142" lon="2.00166">
        <ele>842.4</ele>
        <time>2024-10-11T13:03:36Z</time>
      </trkpt>
      <trkpt lat="42.80145" lon="2.00167">
        <ele>842.4</ele>
        <time>2024-10-11T13:03:37Z</time>
      </trkpt>
      <trkpt lat="42.80154" lon="2.00173">
        <ele>842.4</ele>
        <time>2024-10-11T13:03:38Z</time>
      </trkpt>
      <trkpt lat="42.80157" lon="2.00175">
        <ele>842.4</ele>
        <time>2024-10-11T13:03:39Z</time>
      </trkpt>
      <trkpt lat="42.80166" lon="2.00181">
        <ele>842</ele>
        <time>2024-10-11T13:03:40Z</time>
      </trkpt>
      <trkpt lat="42.80168" lon="2.00184">
        <ele>842</ele>
        <time>2024-10-11T13:03:41Z</time>
      </trkpt>
      <trkpt lat="42.80175" lon="2.00192">
        <ele>842</ele>
        <time>2024-10-11T13:03:42Z</time>
      </trkpt>
      <trkpt lat="42.80177" lon="2.00195">
        <ele>842</ele>
        <time>2024-10-11T13:03:43Z</time>
      </trkpt>
      <trkpt lat="42.80184" lon="2.00204">
        <ele>841.8</ele>
        <time>2024-10-11T13:03:44Z</time>
      </trkpt>
      <trkpt lat="42.80186" lon="2.00207">
        <ele>841.8</ele>
        <time>2024-10-11T13:03:45Z</time>
      </trkpt>
      <trkpt lat="42.80191" lon="2.00217">
        <ele>841.8</ele>
        <time>2024-10-11T13:03:46Z</time>
      </trkpt>
      <trkpt lat="42.80193" lon="2.0022">
        <ele>841</ele>
        <time>2024-10-11T13:03:47Z</time>
      </trkpt>
      <trkpt lat="42.80198" lon="2.0023">
        <ele>841</ele>
        <time>2024-10-11T13:03:48Z</time>
      </trkpt>
      <trkpt lat="42.802" lon="2.00233">
        <ele>841</ele>
        <time>2024-10-11T13:03:49Z</time>
      </trkpt>
      <trkpt lat="42.80202" lon="2.0024">
        <ele>841</ele>
        <time>2024-10-11T13:03:50Z</time>
      </trkpt>
      <trkpt lat="42.80204" lon="2.00246">
        <ele>841</ele>
        <time>2024-10-11T13:03:51Z</time>
      </trkpt>
      <trkpt lat="42.80204" lon="2.00253">
        <ele>841</ele>
        <time>2024-10-11T13:03:52Z</time>
      </trkpt>
      <trkpt lat="42.80203" lon="2.00261">
        <ele>839.8</ele>
        <time>2024-10-11T13:03:53Z</time>
      </trkpt>
      <trkpt lat="42.80202" lon="2.00268">
        <ele>839.8</ele>
        <time>2024-10-11T13:03:54Z</time>
      </trkpt>
      <trkpt lat="42.802" lon="2.00275">
        <ele>839.8</ele>
        <time>2024-10-11T13:03:55Z</time>
      </trkpt>
      <trkpt lat="42.80198" lon="2.00283">
        <ele>839.2</ele>
        <time>2024-10-11T13:03:56Z</time>
      </trkpt>
      <trkpt lat="42.80196" lon="2.0029">
        <ele>839.2</ele>
        <time>2024-10-11T13:03:57Z</time>
      </trkpt>
      <trkpt lat="42.80195" lon="2.00299">
        <ele>839.2</ele>
        <time>2024-10-11T13:03:58Z</time>
      </trkpt>
      <trkpt lat="42.80195" lon="2.00307">
        <ele>839.2</ele>
        <time>2024-10-11T13:03:59Z</time>
      </trkpt>
      <trkpt lat="42.80196" lon="2.00315">
        <ele>839.2</ele>
        <time>2024-10-11T13:04:00Z</time>
      </trkpt>
      <trkpt lat="42.80198" lon="2.00323">
        <ele>838.2</ele>
        <time>2024-10-11T13:04:01Z</time>
      </trkpt>
      <trkpt lat="42.802" lon="2.00331">
        <ele>838.2</ele>
        <time>2024-10-11T13:04:02Z</time>
      </trkpt>
      <trkpt lat="42.80202" lon="2.00339">
        <ele>837.2</ele>
        <time>2024-10-11T13:04:03Z</time>
      </trkpt>
      <trkpt lat="42.80204" lon="2.00347">
        <ele>837.2</ele>
        <time>2024-10-11T13:04:04Z</time>
      </trkpt>
      <trkpt lat="42.80206" lon="2.00355">
        <ele>837.2</ele>
        <time>2024-10-11T13:04:05Z</time>
      </trkpt>
      <trkpt lat="42.80207" lon="2.00363">
        <ele>837.2</ele>
        <time>2024-10-11T13:04:06Z</time>
      </trkpt>
      <trkpt lat="42.80209" lon="2.00371">
        <ele>837.6</ele>
        <time>2024-10-11T13:04:07Z</time>
      </trkpt>
      <trkpt lat="42.80211" lon="2.00379">
        <ele>837.6</ele>
        <time>2024-10-11T13:04:08Z</time>
      </trkpt>
      <trkpt lat="42.80214" lon="2.0039">
        <ele>837.6</ele>
        <time>2024-10-11T13:04:09Z</time>
      </trkpt>
      <trkpt lat="42.80215" lon="2.00394">
        <ele>836.6</ele>
        <time>2024-10-11T13:04:10Z</time>
      </trkpt>
      <trkpt lat="42.80219" lon="2.00404">
        <ele>836.4</ele>
        <time>2024-10-11T13:04:11Z</time>
      </trkpt>
      <trkpt lat="42.8022" lon="2.00407">
        <ele>836.4</ele>
        <time>2024-10-11T13:04:12Z</time>
      </trkpt>
      <trkpt lat="42.80225" lon="2.00416">
        <ele>836.4</ele>
        <time>2024-10-11T13:04:13Z</time>
      </trkpt>
      <trkpt lat="42.80226" lon="2.00419">
        <ele>836.4</ele>
        <time>2024-10-11T13:04:14Z</time>
      </trkpt>
      <trkpt lat="42.80231" lon="2.00427">
        <ele>836.4</ele>
        <time>2024-10-11T13:04:15Z</time>
      </trkpt>
      <trkpt lat="42.80233" lon="2.0043">
        <ele>835.8</ele>
        <time>2024-10-11T13:04:16Z</time>
      </trkpt>
      <trkpt lat="42.80237" lon="2.00435">
        <ele>835.8</ele>
        <time>2024-10-11T13:04:17Z</time>
      </trkpt>
      <trkpt lat="42.80242" lon="2.00442">
        <ele>835.8</ele>
        <time>2024-10-11T13:04:18Z</time>
      </trkpt>
      <trkpt lat="42.80244" lon="2.00445">
        <ele>835.8</ele>
        <time>2024-10-11T13:04:19Z</time>
      </trkpt>
      <trkpt lat="42.8025" lon="2.0045">
        <ele>836.6</ele>
        <time>2024-10-11T13:04:20Z</time>
      </trkpt>
      <trkpt lat="42.80252" lon="2.00452">
        <ele>836.6</ele>
        <time>2024-10-11T13:04:21Z</time>
      </trkpt>
      <trkpt lat="42.80257" lon="2.00455">
        <ele>836.6</ele>
        <time>2024-10-11T13:04:22Z</time>
      </trkpt>
      <trkpt lat="42.80264" lon="2.00461">
        <ele>836.6</ele>
        <time>2024-10-11T13:04:23Z</time>
      </trkpt>
      <trkpt lat="42.80265" lon="2.00463">
        <ele>836.4</ele>
        <time>2024-10-11T13:04:24Z</time>
      </trkpt>
      <trkpt lat="42.8027" lon="2.00471">
        <ele>836.4</ele>
        <time>2024-10-11T13:04:25Z</time>
      </trkpt>
      <trkpt lat="42.80272" lon="2.00474">
        <ele>836.4</ele>
        <time>2024-10-11T13:04:26Z</time>
      </trkpt>
      <trkpt lat="42.80275" lon="2.00483">
        <ele>836.4</ele>
        <time>2024-10-11T13:04:27Z</time>
      </trkpt>
      <trkpt lat="42.80277" lon="2.00486">
        <ele>836.4</ele>
        <time>2024-10-11T13:04:28Z</time>
      </trkpt>
      <trkpt lat="42.80282" lon="2.00494">
        <ele>836.6</ele>
        <time>2024-10-11T13:04:29Z</time>
      </trkpt>
      <trkpt lat="42.80284" lon="2.00495">
        <ele>836.6</ele>
        <time>2024-10-11T13:04:30Z</time>
      </trkpt>
      <trkpt lat="42.80291" lon="2.00499">
        <ele>836.6</ele>
        <time>2024-10-11T13:04:31Z</time>
      </trkpt>
      <trkpt lat="42.80293" lon="2.00499">
        <ele>836.2</ele>
        <time>2024-10-11T13:04:32Z</time>
      </trkpt>
      <trkpt lat="42.80298" lon="2.00497">
        <ele>836.6</ele>
        <time>2024-10-11T13:04:33Z</time>
      </trkpt>
      <trkpt lat="42.80303" lon="2.00494">
        <ele>836.6</ele>
        <time>2024-10-11T13:04:34Z</time>
      </trkpt>
      <trkpt lat="42.80308" lon="2.00491">
        <ele>836.6</ele>
        <time>2024-10-11T13:04:35Z</time>
      </trkpt>
      <trkpt lat="42.80314" lon="2.00487">
        <ele>836.6</ele>
        <time>2024-10-11T13:04:36Z</time>
      </trkpt>
      <trkpt lat="42.8032" lon="2.00484">
        <ele>835.6</ele>
        <time>2024-10-11T13:04:37Z</time>
      </trkpt>
      <trkpt lat="42.80326" lon="2.00482">
        <ele>836</ele>
        <time>2024-10-11T13:04:38Z</time>
      </trkpt>
      <trkpt lat="42.80333" lon="2.00483">
        <ele>836</ele>
        <time>2024-10-11T13:04:39Z</time>
      </trkpt>
      <trkpt lat="42.80339" lon="2.00484">
        <ele>836</ele>
        <time>2024-10-11T13:04:40Z</time>
      </trkpt>
      <trkpt lat="42.80346" lon="2.00487">
        <ele>836</ele>
        <time>2024-10-11T13:04:41Z</time>
      </trkpt>
      <trkpt lat="42.80352" lon="2.0049">
        <ele>835</ele>
        <time>2024-10-11T13:04:42Z</time>
      </trkpt>
      <trkpt lat="42.80359" lon="2.00494">
        <ele>834</ele>
        <time>2024-10-11T13:04:43Z</time>
      </trkpt>
      <trkpt lat="42.80365" lon="2.00499">
        <ele>834</ele>
        <time>2024-10-11T13:04:44Z</time>
      </trkpt>
      <trkpt lat="42.80374" lon="2.00503">
        <ele>834</ele>
        <time>2024-10-11T13:04:45Z</time>
      </trkpt>
      <trkpt lat="42.80381" lon="2.00508">
        <ele>834</ele>
        <time>2024-10-11T13:04:46Z</time>
      </trkpt>
      <trkpt lat="42.80387" lon="2.00512">
        <ele>833.6</ele>
        <time>2024-10-11T13:04:47Z</time>
      </trkpt>
      <trkpt lat="42.80393" lon="2.00517">
        <ele>833.6</ele>
        <time>2024-10-11T13:04:48Z</time>
      </trkpt>
      <trkpt lat="42.804" lon="2.00522">
        <ele>833.6</ele>
        <time>2024-10-11T13:04:49Z</time>
      </trkpt>
      <trkpt lat="42.80406" lon="2.00527">
        <ele>833.6</ele>
        <time>2024-10-11T13:04:50Z</time>
      </trkpt>
      <trkpt lat="42.8041" lon="2.00534">
        <ele>832.6</ele>
        <time>2024-10-11T13:04:51Z</time>
      </trkpt>
      <trkpt lat="42.80417" lon="2.00547">
        <ele>832</ele>
        <time>2024-10-11T13:04:52Z</time>
      </trkpt>
      <trkpt lat="42.80418" lon="2.00552">
        <ele>832</ele>
        <time>2024-10-11T13:04:53Z</time>
      </trkpt>
      <trkpt lat="42.80421" lon="2.00561">
        <ele>832</ele>
        <time>2024-10-11T13:04:54Z</time>
      </trkpt>
      <trkpt lat="42.80425" lon="2.00571">
        <ele>832</ele>
        <time>2024-10-11T13:04:55Z</time>
      </trkpt>
      <trkpt lat="42.8043" lon="2.00585">
        <ele>830.6</ele>
        <time>2024-10-11T13:04:56Z</time>
      </trkpt>
      <trkpt lat="42.80431" lon="2.0059">
        <ele>830.6</ele>
        <time>2024-10-11T13:04:57Z</time>
      </trkpt>
      <trkpt lat="42.80434" lon="2.006">
        <ele>830.6</ele>
        <time>2024-10-11T13:04:58Z</time>
      </trkpt>
      <trkpt lat="42.80439" lon="2.00615">
        <ele>829.6</ele>
        <time>2024-10-11T13:04:59Z</time>
      </trkpt>
      <trkpt lat="42.80441" lon="2.0062">
        <ele>829.6</ele>
        <time>2024-10-11T13:05:00Z</time>
      </trkpt>
      <trkpt lat="42.80444" lon="2.00631">
        <ele>828</ele>
        <time>2024-10-11T13:05:01Z</time>
      </trkpt>
      <trkpt lat="42.80449" lon="2.00642">
        <ele>828</ele>
        <time>2024-10-11T13:05:02Z</time>
      </trkpt>
      <trkpt lat="42.80455" lon="2.00658">
        <ele>828</ele>
        <time>2024-10-11T13:05:03Z</time>
      </trkpt>
      <trkpt lat="42.80457" lon="2.00663">
        <ele>827</ele>
        <time>2024-10-11T13:05:04Z</time>
      </trkpt>
      <trkpt lat="42.80462" lon="2.00674">
        <ele>826</ele>
        <time>2024-10-11T13:05:05Z</time>
      </trkpt>
      <trkpt lat="42.8047" lon="2.00689">
        <ele>826</ele>
        <time>2024-10-11T13:05:06Z</time>
      </trkpt>
      <trkpt lat="42.80473" lon="2.00694">
        <ele>826</ele>
        <time>2024-10-11T13:05:07Z</time>
      </trkpt>
      <trkpt lat="42.80483" lon="2.00709">
        <ele>825</ele>
        <time>2024-10-11T13:05:08Z</time>
      </trkpt>
      <trkpt lat="42.80486" lon="2.00714">
        <ele>825</ele>
        <time>2024-10-11T13:05:09Z</time>
      </trkpt>
      <trkpt lat="42.80495" lon="2.00729">
        <ele>822.6</ele>
        <time>2024-10-11T13:05:10Z</time>
      </trkpt>
      <trkpt lat="42.80498" lon="2.00734">
        <ele>822.6</ele>
        <time>2024-10-11T13:05:11Z</time>
      </trkpt>
      <trkpt lat="42.80506" lon="2.0075">
        <ele>822.6</ele>
        <time>2024-10-11T13:05:12Z</time>
      </trkpt>
      <trkpt lat="42.80509" lon="2.00756">
        <ele>822.6</ele>
        <time>2024-10-11T13:05:13Z</time>
      </trkpt>
      <trkpt lat="42.80514" lon="2.00767">
        <ele>820</ele>
        <time>2024-10-11T13:05:14Z</time>
      </trkpt>
      <trkpt lat="42.80519" lon="2.0078">
        <ele>820</ele>
        <time>2024-10-11T13:05:15Z</time>
      </trkpt>
      <trkpt lat="42.80523" lon="2.00792">
        <ele>820</ele>
        <time>2024-10-11T13:05:16Z</time>
      </trkpt>
      <trkpt lat="42.80526" lon="2.00801">
        <ele>819</ele>
        <time>2024-10-11T13:05:17Z</time>
      </trkpt>
      <trkpt lat="42.80528" lon="2.00813">
        <ele>816.6</ele>
        <time>2024-10-11T13:05:18Z</time>
      </trkpt>
      <trkpt lat="42.80527" lon="2.00826">
        <ele>816.6</ele>
        <time>2024-10-11T13:05:19Z</time>
      </trkpt>
      <trkpt lat="42.80524" lon="2.00838">
        <ele>816.6</ele>
        <time>2024-10-11T13:05:20Z</time>
      </trkpt>
      <trkpt lat="42.80521" lon="2.0085">
        <ele>816.6</ele>
        <time>2024-10-11T13:05:21Z</time>
      </trkpt>
      <trkpt lat="42.80517" lon="2.00862">
        <ele>815.6</ele>
        <time>2024-10-11T13:05:22Z</time>
      </trkpt>
      <trkpt lat="42.80512" lon="2.00873">
        <ele>813.4</ele>
        <time>2024-10-11T13:05:23Z</time>
      </trkpt>
      <trkpt lat="42.80509" lon="2.00885">
        <ele>813.4</ele>
        <time>2024-10-11T13:05:24Z</time>
      </trkpt>
      <trkpt lat="42.80505" lon="2.00899">
        <ele>813.4</ele>
        <time>2024-10-11T13:05:25Z</time>
      </trkpt>
      <trkpt lat="42.80502" lon="2.00912">
        <ele>813.4</ele>
        <time>2024-10-11T13:05:26Z</time>
      </trkpt>
      <trkpt lat="42.80501" lon="2.00927">
        <ele>812.4</ele>
        <time>2024-10-11T13:05:27Z</time>
      </trkpt>
      <trkpt lat="42.80498" lon="2.00941">
        <ele>810</ele>
        <time>2024-10-11T13:05:28Z</time>
      </trkpt>
      <trkpt lat="42.80497" lon="2.00955">
        <ele>810</ele>
        <time>2024-10-11T13:05:29Z</time>
      </trkpt>
      <trkpt lat="42.80495" lon="2.00969">
        <ele>810</ele>
        <time>2024-10-11T13:05:30Z</time>
      </trkpt>
      <trkpt lat="42.80493" lon="2.00983">
        <ele>809</ele>
        <time>2024-10-11T13:05:31Z</time>
      </trkpt>
      <trkpt lat="42.80492" lon="2.00998">
        <ele>807.2</ele>
        <time>2024-10-11T13:05:32Z</time>
      </trkpt>
      <trkpt lat="42.8049" lon="2.01019">
        <ele>807.2</ele>
        <time>2024-10-11T13:05:33Z</time>
      </trkpt>
      <trkpt lat="42.80489" lon="2.01026">
        <ele>807.2</ele>
        <time>2024-10-11T13:05:34Z</time>
      </trkpt>
      <trkpt lat="42.80488" lon="2.0104">
        <ele>806.2</ele>
        <time>2024-10-11T13:05:35Z</time>
      </trkpt>
      <trkpt lat="42.80486" lon="2.01054">
        <ele>803.4</ele>
        <time>2024-10-11T13:05:36Z</time>
      </trkpt>
      <trkpt lat="42.80485" lon="2.01075">
        <ele>803.4</ele>
        <time>2024-10-11T13:05:37Z</time>
      </trkpt>
      <trkpt lat="42.80485" lon="2.01082">
        <ele>803.4</ele>
        <time>2024-10-11T13:05:38Z</time>
      </trkpt>
      <trkpt lat="42.80484" lon="2.01097">
        <ele>803.4</ele>
        <time>2024-10-11T13:05:39Z</time>
      </trkpt>
      <trkpt lat="42.80484" lon="2.01111">
        <ele>803.4</ele>
        <time>2024-10-11T13:05:40Z</time>
      </trkpt>
      <trkpt lat="42.80485" lon="2.01132">
        <ele>801.6</ele>
        <time>2024-10-11T13:05:41Z</time>
      </trkpt>
      <trkpt lat="42.80486" lon="2.01138">
        <ele>801.6</ele>
        <time>2024-10-11T13:05:42Z</time>
      </trkpt>
      <trkpt lat="42.8049" lon="2.01158">
        <ele>801.6</ele>
        <time>2024-10-11T13:05:43Z</time>
      </trkpt>
      <trkpt lat="42.80492" lon="2.01164">
        <ele>801.6</ele>
        <time>2024-10-11T13:05:44Z</time>
      </trkpt>
      <trkpt lat="42.805" lon="2.01181">
        <ele>798.8</ele>
        <time>2024-10-11T13:05:45Z</time>
      </trkpt>
      <trkpt lat="42.80503" lon="2.01186">
        <ele>798.8</ele>
        <time>2024-10-11T13:05:46Z</time>
      </trkpt>
      <trkpt lat="42.80509" lon="2.01196">
        <ele>798.8</ele>
        <time>2024-10-11T13:05:47Z</time>
      </trkpt>
      <trkpt lat="42.8052" lon="2.01208">
        <ele>797.8</ele>
        <time>2024-10-11T13:05:48Z</time>
      </trkpt>
      <trkpt lat="42.80524" lon="2.01211">
        <ele>796.6</ele>
        <time>2024-10-11T13:05:49Z</time>
      </trkpt>
      <trkpt lat="42.80536" lon="2.0122">
        <ele>796.6</ele>
        <time>2024-10-11T13:05:50Z</time>
      </trkpt>
      <trkpt lat="42.80541" lon="2.01223">
        <ele>796.6</ele>
        <time>2024-10-11T13:05:51Z</time>
      </trkpt>
      <trkpt lat="42.80554" lon="2.0123">
        <ele>796.6</ele>
        <time>2024-10-11T13:05:52Z</time>
      </trkpt>
      <trkpt lat="42.80558" lon="2.01233">
        <ele>797.2</ele>
        <time>2024-10-11T13:05:53Z</time>
      </trkpt>
      <trkpt lat="42.80569" lon="2.01243">
        <ele>796.6</ele>
        <time>2024-10-11T13:05:54Z</time>
      </trkpt>
      <trkpt lat="42.80572" lon="2.01247">
        <ele>796.6</ele>
        <time>2024-10-11T13:05:55Z</time>
      </trkpt>
      <trkpt lat="42.80579" lon="2.0126">
        <ele>796.6</ele>
        <time>2024-10-11T13:05:56Z</time>
      </trkpt>
      <trkpt lat="42.8058" lon="2.01266">
        <ele>795.6</ele>
        <time>2024-10-11T13:05:57Z</time>
      </trkpt>
      <trkpt lat="42.80582" lon="2.01277">
        <ele>794.2</ele>
        <time>2024-10-11T13:05:58Z</time>
      </trkpt>
      <trkpt lat="42.80581" lon="2.01288">
        <ele>794.2</ele>
        <time>2024-10-11T13:05:59Z</time>
      </trkpt>
      <trkpt lat="42.80579" lon="2.01299">
        <ele>794.2</ele>
        <time>2024-10-11T13:06:00Z</time>
      </trkpt>
      <trkpt lat="42.80576" lon="2.01309">
        <ele>793.2</ele>
        <time>2024-10-11T13:06:01Z</time>
      </trkpt>
      <trkpt lat="42.80571" lon="2.0132">
        <ele>793.2</ele>
        <time>2024-10-11T13:06:02Z</time>
      </trkpt>
      <trkpt lat="42.80567" lon="2.01331">
        <ele>792.6</ele>
        <time>2024-10-11T13:06:03Z</time>
      </trkpt>
      <trkpt lat="42.80565" lon="2.01343">
        <ele>792.6</ele>
        <time>2024-10-11T13:06:04Z</time>
      </trkpt>
      <trkpt lat="42.80563" lon="2.01354">
        <ele>792.6</ele>
        <time>2024-10-11T13:06:05Z</time>
      </trkpt>
      <trkpt lat="42.80561" lon="2.01366">
        <ele>792.6</ele>
        <time>2024-10-11T13:06:06Z</time>
      </trkpt>
      <trkpt lat="42.80561" lon="2.01378">
        <ele>792.6</ele>
        <time>2024-10-11T13:06:07Z</time>
      </trkpt>
      <trkpt lat="42.80561" lon="2.01389">
        <ele>792</ele>
        <time>2024-10-11T13:06:08Z</time>
      </trkpt>
      <trkpt lat="42.8056" lon="2.01401">
        <ele>792</ele>
        <time>2024-10-11T13:06:09Z</time>
      </trkpt>
      <trkpt lat="42.80562" lon="2.01412">
        <ele>792</ele>
        <time>2024-10-11T13:06:10Z</time>
      </trkpt>
      <trkpt lat="42.80563" lon="2.01422">
        <ele>791</ele>
        <time>2024-10-11T13:06:11Z</time>
      </trkpt>
      <trkpt lat="42.80564" lon="2.01432">
        <ele>790.8</ele>
        <time>2024-10-11T13:06:12Z</time>
      </trkpt>
      <trkpt lat="42.80565" lon="2.01443">
        <ele>790.8</ele>
        <time>2024-10-11T13:06:13Z</time>
      </trkpt>
      <trkpt lat="42.80565" lon="2.01453">
        <ele>790.8</ele>
        <time>2024-10-11T13:06:14Z</time>
      </trkpt>
      <trkpt lat="42.80565" lon="2.01463">
        <ele>790.8</ele>
        <time>2024-10-11T13:06:15Z</time>
      </trkpt>
      <trkpt lat="42.80567" lon="2.01473">
        <ele>790.8</ele>
        <time>2024-10-11T13:06:16Z</time>
      </trkpt>
      <trkpt lat="42.8057" lon="2.0149">
        <ele>789.8</ele>
        <time>2024-10-11T13:06:17Z</time>
      </trkpt>
      <trkpt lat="42.80571" lon="2.01495">
        <ele>789.8</ele>
        <time>2024-10-11T13:06:18Z</time>
      </trkpt>
      <trkpt lat="42.80572" lon="2.01506">
        <ele>789.8</ele>
        <time>2024-10-11T13:06:19Z</time>
      </trkpt>
      <trkpt lat="42.80576" lon="2.01515">
        <ele>789.8</ele>
        <time>2024-10-11T13:06:20Z</time>
      </trkpt>
      <trkpt lat="42.80583" lon="2.01528">
        <ele>789.4</ele>
        <time>2024-10-11T13:06:21Z</time>
      </trkpt>
      <trkpt lat="42.80586" lon="2.01531">
        <ele>789.4</ele>
        <time>2024-10-11T13:06:22Z</time>
      </trkpt>
      <trkpt lat="42.80591" lon="2.01538">
        <ele>789.4</ele>
        <time>2024-10-11T13:06:23Z</time>
      </trkpt>
      <trkpt lat="42.806" lon="2.01548">
        <ele>788.4</ele>
        <time>2024-10-11T13:06:24Z</time>
      </trkpt>
      <trkpt lat="42.80603" lon="2.01551">
        <ele>788.4</ele>
        <time>2024-10-11T13:06:25Z</time>
      </trkpt>
      <trkpt lat="42.80612" lon="2.01561">
        <ele>788.4</ele>
        <time>2024-10-11T13:06:26Z</time>
      </trkpt>
      <trkpt lat="42.80616" lon="2.01564">
        <ele>788.4</ele>
        <time>2024-10-11T13:06:27Z</time>
      </trkpt>
      <trkpt lat="42.80626" lon="2.01573">
        <ele>788.4</ele>
        <time>2024-10-11T13:06:28Z</time>
      </trkpt>
      <trkpt lat="42.80629" lon="2.01577">
        <ele>788.4</ele>
        <time>2024-10-11T13:06:29Z</time>
      </trkpt>
      <trkpt lat="42.80636" lon="2.01584">
        <ele>787.6</ele>
        <time>2024-10-11T13:06:30Z</time>
      </trkpt>
      <trkpt lat="42.80646" lon="2.01593">
        <ele>787.6</ele>
        <time>2024-10-11T13:06:31Z</time>
      </trkpt>
      <trkpt lat="42.80649" lon="2.01596">
        <ele>787.6</ele>
        <time>2024-10-11T13:06:32Z</time>
      </trkpt>
      <trkpt lat="42.80658" lon="2.01606">
        <ele>786.6</ele>
        <time>2024-10-11T13:06:33Z</time>
      </trkpt>
      <trkpt lat="42.80661" lon="2.01609">
        <ele>787</ele>
        <time>2024-10-11T13:06:34Z</time>
      </trkpt>
      <trkpt lat="42.8067" lon="2.0162">
        <ele>787</ele>
        <time>2024-10-11T13:06:35Z</time>
      </trkpt>
      <trkpt lat="42.80673" lon="2.01623">
        <ele>787</ele>
        <time>2024-10-11T13:06:36Z</time>
      </trkpt>
      <trkpt lat="42.80681" lon="2.01635">
        <ele>787</ele>
        <time>2024-10-11T13:06:37Z</time>
      </trkpt>
      <trkpt lat="42.80684" lon="2.01639">
        <ele>786.2</ele>
        <time>2024-10-11T13:06:38Z</time>
      </trkpt>
      <trkpt lat="42.80689" lon="2.01653">
        <ele>787</ele>
        <time>2024-10-11T13:06:39Z</time>
      </trkpt>
      <trkpt lat="42.80691" lon="2.01658">
        <ele>787</ele>
        <time>2024-10-11T13:06:40Z</time>
      </trkpt>
      <trkpt lat="42.80693" lon="2.01667">
        <ele>787</ele>
        <time>2024-10-11T13:06:41Z</time>
      </trkpt>
      <trkpt lat="42.80696" lon="2.01677">
        <ele>786.2</ele>
        <time>2024-10-11T13:06:42Z</time>
      </trkpt>
      <trkpt lat="42.80698" lon="2.01687">
        <ele>787.4</ele>
        <time>2024-10-11T13:06:43Z</time>
      </trkpt>
      <trkpt lat="42.807" lon="2.01697">
        <ele>787.4</ele>
        <time>2024-10-11T13:06:44Z</time>
      </trkpt>
      <trkpt lat="42.80702" lon="2.01707">
        <ele>787.4</ele>
        <time>2024-10-11T13:06:45Z</time>
      </trkpt>
      <trkpt lat="42.80704" lon="2.01717">
        <ele>786.4</ele>
        <time>2024-10-11T13:06:46Z</time>
      </trkpt>
      <trkpt lat="42.80706" lon="2.01727">
        <ele>786.4</ele>
        <time>2024-10-11T13:06:47Z</time>
      </trkpt>
      <trkpt lat="42.80708" lon="2.01737">
        <ele>786.2</ele>
        <time>2024-10-11T13:06:48Z</time>
      </trkpt>
      <trkpt lat="42.8071" lon="2.01745">
        <ele>786.2</ele>
        <time>2024-10-11T13:06:49Z</time>
      </trkpt>
      <trkpt lat="42.80712" lon="2.01755">
        <ele>786.2</ele>
        <time>2024-10-11T13:06:50Z</time>
      </trkpt>
      <trkpt lat="42.80714" lon="2.01765">
        <ele>786.2</ele>
        <time>2024-10-11T13:06:51Z</time>
      </trkpt>
      <trkpt lat="42.80716" lon="2.01776">
        <ele>786.2</ele>
        <time>2024-10-11T13:06:52Z</time>
      </trkpt>
      <trkpt lat="42.80718" lon="2.01787">
        <ele>785</ele>
        <time>2024-10-11T13:06:53Z</time>
      </trkpt>
      <trkpt lat="42.8072" lon="2.01797">
        <ele>785</ele>
        <time>2024-10-11T13:06:54Z</time>
      </trkpt>
      <trkpt lat="42.80721" lon="2.01808">
        <ele>785</ele>
        <time>2024-10-11T13:06:55Z</time>
      </trkpt>
      <trkpt lat="42.80722" lon="2.01819">
        <ele>785.8</ele>
        <time>2024-10-11T13:06:56Z</time>
      </trkpt>
      <trkpt lat="42.80724" lon="2.01829">
        <ele>784.8</ele>
        <time>2024-10-11T13:06:57Z</time>
      </trkpt>
      <trkpt lat="42.80727" lon="2.01844">
        <ele>784.8</ele>
        <time>2024-10-11T13:06:58Z</time>
      </trkpt>
      <trkpt lat="42.80728" lon="2.01849">
        <ele>784.8</ele>
        <time>2024-10-11T13:06:59Z</time>
      </trkpt>
      <trkpt lat="42.80729" lon="2.0186">
        <ele>784.8</ele>
        <time>2024-10-11T13:07:00Z</time>
      </trkpt>
      <trkpt lat="42.80731" lon="2.0187">
        <ele>784.2</ele>
        <time>2024-10-11T13:07:01Z</time>
      </trkpt>
      <trkpt lat="42.80734" lon="2.01886">
        <ele>784.2</ele>
        <time>2024-10-11T13:07:02Z</time>
      </trkpt>
      <trkpt lat="42.80735" lon="2.01891">
        <ele>784.2</ele>
        <time>2024-10-11T13:07:03Z</time>
      </trkpt>
      <trkpt lat="42.80738" lon="2.01907">
        <ele>784.2</ele>
        <time>2024-10-11T13:07:04Z</time>
      </trkpt>
      <trkpt lat="42.80738" lon="2.01912">
        <ele>784.2</ele>
        <time>2024-10-11T13:07:05Z</time>
      </trkpt>
      <trkpt lat="42.8074" lon="2.01923">
        <ele>783.2</ele>
        <time>2024-10-11T13:07:06Z</time>
      </trkpt>
      <trkpt lat="42.80743" lon="2.01939">
        <ele>783.2</ele>
        <time>2024-10-11T13:07:07Z</time>
      </trkpt>
      <trkpt lat="42.80744" lon="2.01944">
        <ele>783.2</ele>
        <time>2024-10-11T13:07:08Z</time>
      </trkpt>
      <trkpt lat="42.80747" lon="2.0196">
        <ele>783.2</ele>
        <time>2024-10-11T13:07:09Z</time>
      </trkpt>
      <trkpt lat="42.80748" lon="2.01965">
        <ele>783.2</ele>
        <time>2024-10-11T13:07:10Z</time>
      </trkpt>
      <trkpt lat="42.8075" lon="2.01981">
        <ele>782</ele>
        <time>2024-10-11T13:07:11Z</time>
      </trkpt>
      <trkpt lat="42.80751" lon="2.01987">
        <ele>782</ele>
        <time>2024-10-11T13:07:12Z</time>
      </trkpt>
      <trkpt lat="42.80753" lon="2.02004">
        <ele>782</ele>
        <time>2024-10-11T13:07:13Z</time>
      </trkpt>
      <trkpt lat="42.80753" lon="2.02009">
        <ele>782</ele>
        <time>2024-10-11T13:07:14Z</time>
      </trkpt>
      <trkpt lat="42.80754" lon="2.02021">
        <ele>781.6</ele>
        <time>2024-10-11T13:07:15Z</time>
      </trkpt>
      <trkpt lat="42.80755" lon="2.02031">
        <ele>781.6</ele>
        <time>2024-10-11T13:07:16Z</time>
      </trkpt>
      <trkpt lat="42.80755" lon="2.02038">
        <ele>781.6</ele>
        <time>2024-10-11T13:07:17Z</time>
      </trkpt>
      <trkpt lat="42.80758" lon="2.02054">
        <ele>780.6</ele>
        <time>2024-10-11T13:07:18Z</time>
      </trkpt>
      <trkpt lat="42.80758" lon="2.02059">
        <ele>779.8</ele>
        <time>2024-10-11T13:07:19Z</time>
      </trkpt>
      <trkpt lat="42.80758" lon="2.02069">
        <ele>779.8</ele>
        <time>2024-10-11T13:07:20Z</time>
      </trkpt>
      <trkpt lat="42.80759" lon="2.02078">
        <ele>779.8</ele>
        <time>2024-10-11T13:07:21Z</time>
      </trkpt>
      <trkpt lat="42.80759" lon="2.02088">
        <ele>779.8</ele>
        <time>2024-10-11T13:07:22Z</time>
      </trkpt>
      <trkpt lat="42.80759" lon="2.021">
        <ele>778.8</ele>
        <time>2024-10-11T13:07:23Z</time>
      </trkpt>
      <trkpt lat="42.80758" lon="2.02116">
        <ele>778.8</ele>
        <time>2024-10-11T13:07:24Z</time>
      </trkpt>
      <trkpt lat="42.80759" lon="2.02122">
        <ele>778.8</ele>
        <time>2024-10-11T13:07:25Z</time>
      </trkpt>
      <trkpt lat="42.80759" lon="2.02133">
        <ele>779</ele>
        <time>2024-10-11T13:07:26Z</time>
      </trkpt>
      <trkpt lat="42.80761" lon="2.02144">
        <ele>779</ele>
        <time>2024-10-11T13:07:27Z</time>
      </trkpt>
      <trkpt lat="42.80763" lon="2.02154">
        <ele>779.2</ele>
        <time>2024-10-11T13:07:28Z</time>
      </trkpt>
      <trkpt lat="42.80767" lon="2.02164">
        <ele>779.2</ele>
        <time>2024-10-11T13:07:29Z</time>
      </trkpt>
      <trkpt lat="42.80771" lon="2.02174">
        <ele>779.2</ele>
        <time>2024-10-11T13:07:30Z</time>
      </trkpt>
      <trkpt lat="42.80776" lon="2.02184">
        <ele>779.2</ele>
        <time>2024-10-11T13:07:31Z</time>
      </trkpt>
      <trkpt lat="42.80783" lon="2.02197">
        <ele>779.2</ele>
        <time>2024-10-11T13:07:32Z</time>
      </trkpt>
      <trkpt lat="42.80785" lon="2.02202">
        <ele>778.8</ele>
        <time>2024-10-11T13:07:33Z</time>
      </trkpt>
      <trkpt lat="42.80791" lon="2.02216">
        <ele>778.8</ele>
        <time>2024-10-11T13:07:34Z</time>
      </trkpt>
      <trkpt lat="42.80793" lon="2.02221">
        <ele>778.8</ele>
        <time>2024-10-11T13:07:35Z</time>
      </trkpt>
      <trkpt lat="42.80796" lon="2.02231">
        <ele>777.8</ele>
        <time>2024-10-11T13:07:36Z</time>
      </trkpt>
      <trkpt lat="42.808" lon="2.02247">
        <ele>777.8</ele>
        <time>2024-10-11T13:07:37Z</time>
      </trkpt>
      <trkpt lat="42.80801" lon="2.02252">
        <ele>777.4</ele>
        <time>2024-10-11T13:07:38Z</time>
      </trkpt>
      <trkpt lat="42.80804" lon="2.02269">
        <ele>777.4</ele>
        <time>2024-10-11T13:07:39Z</time>
      </trkpt>
      <trkpt lat="42.80805" lon="2.02274">
        <ele>777.2</ele>
        <time>2024-10-11T13:07:40Z</time>
      </trkpt>
      <trkpt lat="42.80806" lon="2.02291">
        <ele>777.2</ele>
        <time>2024-10-11T13:07:41Z</time>
      </trkpt>
      <trkpt lat="42.80806" lon="2.02296">
        <ele>776.2</ele>
        <time>2024-10-11T13:07:42Z</time>
      </trkpt>
      <trkpt lat="42.80806" lon="2.02312">
        <ele>776.2</ele>
        <time>2024-10-11T13:07:43Z</time>
      </trkpt>
      <trkpt lat="42.80807" lon="2.02318">
        <ele>776.2</ele>
        <time>2024-10-11T13:07:44Z</time>
      </trkpt>
      <trkpt lat="42.80807" lon="2.02328">
        <ele>776.2</ele>
        <time>2024-10-11T13:07:45Z</time>
      </trkpt>
      <trkpt lat="42.80807" lon="2.02339">
        <ele>777</ele>
        <time>2024-10-11T13:07:46Z</time>
      </trkpt>
      <trkpt lat="42.80805" lon="2.0235">
        <ele>777</ele>
        <time>2024-10-11T13:07:47Z</time>
      </trkpt>
      <trkpt lat="42.80806" lon="2.02361">
        <ele>777</ele>
        <time>2024-10-11T13:07:48Z</time>
      </trkpt>
      <trkpt lat="42.80807" lon="2.02371">
        <ele>776.4</ele>
        <time>2024-10-11T13:07:49Z</time>
      </trkpt>
      <trkpt lat="42.80807" lon="2.02382">
        <ele>776.4</ele>
        <time>2024-10-11T13:07:50Z</time>
      </trkpt>
      <trkpt lat="42.80809" lon="2.02397">
        <ele>776</ele>
        <time>2024-10-11T13:07:51Z</time>
      </trkpt>
      <trkpt lat="42.80809" lon="2.02403">
        <ele>776</ele>
        <time>2024-10-11T13:07:52Z</time>
      </trkpt>
      <trkpt lat="42.8081" lon="2.02419">
        <ele>776</ele>
        <time>2024-10-11T13:07:53Z</time>
      </trkpt>
      <trkpt lat="42.8081" lon="2.02424">
        <ele>775.6</ele>
        <time>2024-10-11T13:07:54Z</time>
      </trkpt>
      <trkpt lat="42.8081" lon="2.0244">
        <ele>774.6</ele>
        <time>2024-10-11T13:07:55Z</time>
      </trkpt>
      <trkpt lat="42.8081" lon="2.02446">
        <ele>774.6</ele>
        <time>2024-10-11T13:07:56Z</time>
      </trkpt>
      <trkpt lat="42.8081" lon="2.02461">
        <ele>774.6</ele>
        <time>2024-10-11T13:07:57Z</time>
      </trkpt>
      <trkpt lat="42.8081" lon="2.02466">
        <ele>774.4</ele>
        <time>2024-10-11T13:07:58Z</time>
      </trkpt>
      <trkpt lat="42.80809" lon="2.02481">
        <ele>774</ele>
        <time>2024-10-11T13:07:59Z</time>
      </trkpt>
      <trkpt lat="42.80809" lon="2.02486">
        <ele>774</ele>
        <time>2024-10-11T13:08:00Z</time>
      </trkpt>
      <trkpt lat="42.80808" lon="2.02496">
        <ele>774</ele>
        <time>2024-10-11T13:08:01Z</time>
      </trkpt>
      <trkpt lat="42.80808" lon="2.02507">
        <ele>774</ele>
        <time>2024-10-11T13:08:02Z</time>
      </trkpt>
      <trkpt lat="42.80808" lon="2.02517">
        <ele>774</ele>
        <time>2024-10-11T13:08:03Z</time>
      </trkpt>
      <trkpt lat="42.80808" lon="2.02528">
        <ele>773</ele>
        <time>2024-10-11T13:08:04Z</time>
      </trkpt>
      <trkpt lat="42.80809" lon="2.02538">
        <ele>773</ele>
        <time>2024-10-11T13:08:05Z</time>
      </trkpt>
      <trkpt lat="42.80812" lon="2.02548">
        <ele>773</ele>
        <time>2024-10-11T13:08:06Z</time>
      </trkpt>
      <trkpt lat="42.80815" lon="2.02564">
        <ele>773</ele>
        <time>2024-10-11T13:08:07Z</time>
      </trkpt>
      <trkpt lat="42.80816" lon="2.0257">
        <ele>772.4</ele>
        <time>2024-10-11T13:08:08Z</time>
      </trkpt>
      <trkpt lat="42.80819" lon="2.0258">
        <ele>772.4</ele>
        <time>2024-10-11T13:08:09Z</time>
      </trkpt>
      <trkpt lat="42.80821" lon="2.02591">
        <ele>772.4</ele>
        <time>2024-10-11T13:08:10Z</time>
      </trkpt>
      <trkpt lat="42.80824" lon="2.02602">
        <ele>772.4</ele>
        <time>2024-10-11T13:08:11Z</time>
      </trkpt>
      <trkpt lat="42.80827" lon="2.02612">
        <ele>772.4</ele>
        <time>2024-10-11T13:08:12Z</time>
      </trkpt>
      <trkpt lat="42.80832" lon="2.02628">
        <ele>772.6</ele>
        <time>2024-10-11T13:08:13Z</time>
      </trkpt>
      <trkpt lat="42.80834" lon="2.02633">
        <ele>772.6</ele>
        <time>2024-10-11T13:08:14Z</time>
      </trkpt>
      <trkpt lat="42.80839" lon="2.02648">
        <ele>772.6</ele>
        <time>2024-10-11T13:08:15Z</time>
      </trkpt>
      <trkpt lat="42.80841" lon="2.02654">
        <ele>771.6</ele>
        <time>2024-10-11T13:08:16Z</time>
      </trkpt>
      <trkpt lat="42.80845" lon="2.0267">
        <ele>771.4</ele>
        <time>2024-10-11T13:08:17Z</time>
      </trkpt>
      <trkpt lat="42.80846" lon="2.02676">
        <ele>771.4</ele>
        <time>2024-10-11T13:08:18Z</time>
      </trkpt>
      <trkpt lat="42.80848" lon="2.02687">
        <ele>771.4</ele>
        <time>2024-10-11T13:08:19Z</time>
      </trkpt>
      <trkpt lat="42.80852" lon="2.02703">
        <ele>771.4</ele>
        <time>2024-10-11T13:08:20Z</time>
      </trkpt>
      <trkpt lat="42.80854" lon="2.02709">
        <ele>770.4</ele>
        <time>2024-10-11T13:08:21Z</time>
      </trkpt>
      <trkpt lat="42.80859" lon="2.02724">
        <ele>769.2</ele>
        <time>2024-10-11T13:08:22Z</time>
      </trkpt>
      <trkpt lat="42.80862" lon="2.02729">
        <ele>769.2</ele>
        <time>2024-10-11T13:08:23Z</time>
      </trkpt>
      <trkpt lat="42.8087" lon="2.02743">
        <ele>769.2</ele>
        <time>2024-10-11T13:08:24Z</time>
      </trkpt>
      <trkpt lat="42.80873" lon="2.02747">
        <ele>769.2</ele>
        <time>2024-10-11T13:08:25Z</time>
      </trkpt>
      <trkpt lat="42.80884" lon="2.02759">
        <ele>769.2</ele>
        <time>2024-10-11T13:08:26Z</time>
      </trkpt>
      <trkpt lat="42.80887" lon="2.02763">
        <ele>767.8</ele>
        <time>2024-10-11T13:08:27Z</time>
      </trkpt>
      <trkpt lat="42.80898" lon="2.02776">
        <ele>767.8</ele>
        <time>2024-10-11T13:08:28Z</time>
      </trkpt>
      <trkpt lat="42.809" lon="2.02781">
        <ele>767.8</ele>
        <time>2024-10-11T13:08:29Z</time>
      </trkpt>
      <trkpt lat="42.80905" lon="2.02791">
        <ele>767.8</ele>
        <time>2024-10-11T13:08:30Z</time>
      </trkpt>
      <trkpt lat="42.80909" lon="2.02804">
        <ele>766</ele>
        <time>2024-10-11T13:08:31Z</time>
      </trkpt>
      <trkpt lat="42.80912" lon="2.02815">
        <ele>766</ele>
        <time>2024-10-11T13:08:32Z</time>
      </trkpt>
      <trkpt lat="42.80915" lon="2.02826">
        <ele>766</ele>
        <time>2024-10-11T13:08:33Z</time>
      </trkpt>
      <trkpt lat="42.8092" lon="2.02842">
        <ele>766.6</ele>
        <time>2024-10-11T13:08:34Z</time>
      </trkpt>
      <trkpt lat="42.80922" lon="2.02847">
        <ele>765.8</ele>
        <time>2024-10-11T13:08:35Z</time>
      </trkpt>
      <trkpt lat="42.80927" lon="2.02864">
        <ele>765.8</ele>
        <time>2024-10-11T13:08:36Z</time>
      </trkpt>
      <trkpt lat="42.80929" lon="2.02869">
        <ele>765.8</ele>
        <time>2024-10-11T13:08:37Z</time>
      </trkpt>
      <trkpt lat="42.80934" lon="2.02886">
        <ele>764.8</ele>
        <time>2024-10-11T13:08:38Z</time>
      </trkpt>
      <trkpt lat="42.80936" lon="2.02891">
        <ele>764.8</ele>
        <time>2024-10-11T13:08:39Z</time>
      </trkpt>
      <trkpt lat="42.80941" lon="2.02907">
        <ele>764.6</ele>
        <time>2024-10-11T13:08:40Z</time>
      </trkpt>
      <trkpt lat="42.80943" lon="2.02913">
        <ele>764.6</ele>
        <time>2024-10-11T13:08:41Z</time>
      </trkpt>
      <trkpt lat="42.80947" lon="2.0293">
        <ele>764.6</ele>
        <time>2024-10-11T13:08:42Z</time>
      </trkpt>
      <trkpt lat="42.80948" lon="2.02936">
        <ele>764.6</ele>
        <time>2024-10-11T13:08:43Z</time>
      </trkpt>
      <trkpt lat="42.8095" lon="2.02954">
        <ele>762.6</ele>
        <time>2024-10-11T13:08:44Z</time>
      </trkpt>
      <trkpt lat="42.8095" lon="2.02959">
        <ele>762.6</ele>
        <time>2024-10-11T13:08:45Z</time>
      </trkpt>
      <trkpt lat="42.8095" lon="2.02971">
        <ele>762.6</ele>
        <time>2024-10-11T13:08:46Z</time>
      </trkpt>
      <trkpt lat="42.80949" lon="2.02983">
        <ele>761.8</ele>
        <time>2024-10-11T13:08:47Z</time>
      </trkpt>
      <trkpt lat="42.80948" lon="2.02995">
        <ele>761.8</ele>
        <time>2024-10-11T13:08:48Z</time>
      </trkpt>
      <trkpt lat="42.80946" lon="2.03006">
        <ele>761</ele>
        <time>2024-10-11T13:08:49Z</time>
      </trkpt>
      <trkpt lat="42.80941" lon="2.03015">
        <ele>761</ele>
        <time>2024-10-11T13:08:50Z</time>
      </trkpt>
      <trkpt lat="42.80939" lon="2.03027">
        <ele>761</ele>
        <time>2024-10-11T13:08:51Z</time>
      </trkpt>
      <trkpt lat="42.80938" lon="2.03036">
        <ele>761</ele>
        <time>2024-10-11T13:08:52Z</time>
      </trkpt>
      <trkpt lat="42.80936" lon="2.03047">
        <ele>761</ele>
        <time>2024-10-11T13:08:53Z</time>
      </trkpt>
      <trkpt lat="42.80931" lon="2.03064">
        <ele>759.8</ele>
        <time>2024-10-11T13:08:54Z</time>
      </trkpt>
      <trkpt lat="42.8093" lon="2.0307">
        <ele>759.8</ele>
        <time>2024-10-11T13:08:55Z</time>
      </trkpt>
      <trkpt lat="42.80925" lon="2.03086">
        <ele>759.8</ele>
        <time>2024-10-11T13:08:56Z</time>
      </trkpt>
      <trkpt lat="42.80924" lon="2.03091">
        <ele>759.6</ele>
        <time>2024-10-11T13:08:57Z</time>
      </trkpt>
      <trkpt lat="42.8092" lon="2.03107">
        <ele>759.4</ele>
        <time>2024-10-11T13:08:58Z</time>
      </trkpt>
      <trkpt lat="42.80919" lon="2.03113">
        <ele>759.4</ele>
        <time>2024-10-11T13:08:59Z</time>
      </trkpt>
      <trkpt lat="42.80918" lon="2.03131">
        <ele>759.4</ele>
        <time>2024-10-11T13:09:00Z</time>
      </trkpt>
      <trkpt lat="42.80917" lon="2.03137">
        <ele>758.4</ele>
        <time>2024-10-11T13:09:01Z</time>
      </trkpt>
      <trkpt lat="42.80916" lon="2.03148">
        <ele>758</ele>
        <time>2024-10-11T13:09:02Z</time>
      </trkpt>
      <trkpt lat="42.80911" lon="2.03164">
        <ele>758</ele>
        <time>2024-10-11T13:09:03Z</time>
      </trkpt>
      <trkpt lat="42.8091" lon="2.03168">
        <ele>758</ele>
        <time>2024-10-11T13:09:04Z</time>
      </trkpt>
      <trkpt lat="42.80905" lon="2.03182">
        <ele>758</ele>
        <time>2024-10-11T13:09:05Z</time>
      </trkpt>
      <trkpt lat="42.80903" lon="2.03187">
        <ele>757.6</ele>
        <time>2024-10-11T13:09:06Z</time>
      </trkpt>
      <trkpt lat="42.809" lon="2.032">
        <ele>757.8</ele>
        <time>2024-10-11T13:09:07Z</time>
      </trkpt>
      <trkpt lat="42.80899" lon="2.03205">
        <ele>757.8</ele>
        <time>2024-10-11T13:09:08Z</time>
      </trkpt>
      <trkpt lat="42.809" lon="2.03218">
        <ele>757.8</ele>
        <time>2024-10-11T13:09:09Z</time>
      </trkpt>
      <trkpt lat="42.80901" lon="2.03222">
        <ele>756.8</ele>
        <time>2024-10-11T13:09:10Z</time>
      </trkpt>
      <trkpt lat="42.80905" lon="2.03235">
        <ele>756.4</ele>
        <time>2024-10-11T13:09:11Z</time>
      </trkpt>
      <trkpt lat="42.80908" lon="2.03239">
        <ele>756.4</ele>
        <time>2024-10-11T13:09:12Z</time>
      </trkpt>
      <trkpt lat="42.80912" lon="2.03246">
        <ele>756.4</ele>
        <time>2024-10-11T13:09:13Z</time>
      </trkpt>
      <trkpt lat="42.80917" lon="2.03253">
        <ele>755.4</ele>
        <time>2024-10-11T13:09:14Z</time>
      </trkpt>
      <trkpt lat="42.80924" lon="2.03261">
        <ele>754</ele>
        <time>2024-10-11T13:09:15Z</time>
      </trkpt>
      <trkpt lat="42.8093" lon="2.03268">
        <ele>754</ele>
        <time>2024-10-11T13:09:16Z</time>
      </trkpt>
      <trkpt lat="42.8094" lon="2.0328">
        <ele>754</ele>
        <time>2024-10-11T13:09:17Z</time>
      </trkpt>
      <trkpt lat="42.80943" lon="2.03284">
        <ele>754</ele>
        <time>2024-10-11T13:09:18Z</time>
      </trkpt>
      <trkpt lat="42.80953" lon="2.03295">
        <ele>754</ele>
        <time>2024-10-11T13:09:19Z</time>
      </trkpt>
      <trkpt lat="42.80956" lon="2.03299">
        <ele>753.4</ele>
        <time>2024-10-11T13:09:20Z</time>
      </trkpt>
      <trkpt lat="42.80962" lon="2.03308">
        <ele>753.4</ele>
        <time>2024-10-11T13:09:21Z</time>
      </trkpt>
      <trkpt lat="42.80968" lon="2.03317">
        <ele>753.4</ele>
        <time>2024-10-11T13:09:22Z</time>
      </trkpt>
      <trkpt lat="42.80972" lon="2.03333">
        <ele>752.8</ele>
        <time>2024-10-11T13:09:23Z</time>
      </trkpt>
      <trkpt lat="42.80973" lon="2.03339">
        <ele>752</ele>
        <time>2024-10-11T13:09:24Z</time>
      </trkpt>
      <trkpt lat="42.80977" lon="2.03355">
        <ele>752</ele>
        <time>2024-10-11T13:09:25Z</time>
      </trkpt>
      <trkpt lat="42.80977" lon="2.03361">
        <ele>752</ele>
        <time>2024-10-11T13:09:26Z</time>
      </trkpt>
      <trkpt lat="42.80979" lon="2.03372">
        <ele>752</ele>
        <time>2024-10-11T13:09:27Z</time>
      </trkpt>
      <trkpt lat="42.8098" lon="2.03382">
        <ele>752.4</ele>
        <time>2024-10-11T13:09:28Z</time>
      </trkpt>
      <trkpt lat="42.80981" lon="2.03393">
        <ele>752.2</ele>
        <time>2024-10-11T13:09:29Z</time>
      </trkpt>
      <trkpt lat="42.80983" lon="2.03403">
        <ele>752.2</ele>
        <time>2024-10-11T13:09:30Z</time>
      </trkpt>
      <trkpt lat="42.80986" lon="2.03413">
        <ele>752.2</ele>
        <time>2024-10-11T13:09:31Z</time>
      </trkpt>
      <trkpt lat="42.8099" lon="2.03422">
        <ele>752</ele>
        <time>2024-10-11T13:09:32Z</time>
      </trkpt>
      <trkpt lat="42.80996" lon="2.03429">
        <ele>751.4</ele>
        <time>2024-10-11T13:09:33Z</time>
      </trkpt>
      <trkpt lat="42.81003" lon="2.03433">
        <ele>751.4</ele>
        <time>2024-10-11T13:09:34Z</time>
      </trkpt>
      <trkpt lat="42.81011" lon="2.03437">
        <ele>751.4</ele>
        <time>2024-10-11T13:09:35Z</time>
      </trkpt>
      <trkpt lat="42.81019" lon="2.0344">
        <ele>751.4</ele>
        <time>2024-10-11T13:09:36Z</time>
      </trkpt>
      <trkpt lat="42.8103" lon="2.03444">
        <ele>751.4</ele>
        <time>2024-10-11T13:09:37Z</time>
      </trkpt>
      <trkpt lat="42.81035" lon="2.03444">
        <ele>750.4</ele>
        <time>2024-10-11T13:09:38Z</time>
      </trkpt>
      <trkpt lat="42.81047" lon="2.03447">
        <ele>750.4</ele>
        <time>2024-10-11T13:09:39Z</time>
      </trkpt>
      <trkpt lat="42.81051" lon="2.03448">
        <ele>750.4</ele>
        <time>2024-10-11T13:09:40Z</time>
      </trkpt>
      <trkpt lat="42.81064" lon="2.03452">
        <ele>749.4</ele>
        <time>2024-10-11T13:09:41Z</time>
      </trkpt>
      <trkpt lat="42.81068" lon="2.03453">
        <ele>749.6</ele>
        <time>2024-10-11T13:09:42Z</time>
      </trkpt>
      <trkpt lat="42.8108" lon="2.03457">
        <ele>749.6</ele>
        <time>2024-10-11T13:09:43Z</time>
      </trkpt>
      <trkpt lat="42.81084" lon="2.03458">
        <ele>749.6</ele>
        <time>2024-10-11T13:09:44Z</time>
      </trkpt>
      <trkpt lat="42.81093" lon="2.03461">
        <ele>749.6</ele>
        <time>2024-10-11T13:09:45Z</time>
      </trkpt>
      <trkpt lat="42.81105" lon="2.03465">
        <ele>748.6</ele>
        <time>2024-10-11T13:09:46Z</time>
      </trkpt>
      <trkpt lat="42.8111" lon="2.03466">
        <ele>747.6</ele>
        <time>2024-10-11T13:09:47Z</time>
      </trkpt>
      <trkpt lat="42.81122" lon="2.03471">
        <ele>747.6</ele>
        <time>2024-10-11T13:09:48Z</time>
      </trkpt>
      <trkpt lat="42.81126" lon="2.03472">
        <ele>747.6</ele>
        <time>2024-10-11T13:09:49Z</time>
      </trkpt>
      <trkpt lat="42.81138" lon="2.03478">
        <ele>747.6</ele>
        <time>2024-10-11T13:09:50Z</time>
      </trkpt>
      <trkpt lat="42.81141" lon="2.03479">
        <ele>747.2</ele>
        <time>2024-10-11T13:09:51Z</time>
      </trkpt>
      <trkpt lat="42.81153" lon="2.03485">
        <ele>747.2</ele>
        <time>2024-10-11T13:09:52Z</time>
      </trkpt>
      <trkpt lat="42.81156" lon="2.03486">
        <ele>747.2</ele>
        <time>2024-10-11T13:09:53Z</time>
      </trkpt>
      <trkpt lat="42.81167" lon="2.03491">
        <ele>747.2</ele>
        <time>2024-10-11T13:09:54Z</time>
      </trkpt>
      <trkpt lat="42.81171" lon="2.03493">
        <ele>747.2</ele>
        <time>2024-10-11T13:09:55Z</time>
      </trkpt>
      <trkpt lat="42.81178" lon="2.03496">
        <ele>747</ele>
        <time>2024-10-11T13:09:56Z</time>
      </trkpt>
      <trkpt lat="42.81185" lon="2.03499">
        <ele>747</ele>
        <time>2024-10-11T13:09:57Z</time>
      </trkpt>
      <trkpt lat="42.81191" lon="2.03502">
        <ele>747</ele>
        <time>2024-10-11T13:09:58Z</time>
      </trkpt>
      <trkpt lat="42.81197" lon="2.03505">
        <ele>747</ele>
        <time>2024-10-11T13:09:59Z</time>
      </trkpt>
      <trkpt lat="42.81203" lon="2.03509">
        <ele>746.8</ele>
        <time>2024-10-11T13:10:00Z</time>
      </trkpt>
      <trkpt lat="42.8121" lon="2.03513">
        <ele>746.8</ele>
        <time>2024-10-11T13:10:01Z</time>
      </trkpt>
      <trkpt lat="42.81219" lon="2.03518">
        <ele>746.8</ele>
        <time>2024-10-11T13:10:02Z</time>
      </trkpt>
      <trkpt lat="42.81222" lon="2.03519">
        <ele>746.8</ele>
        <time>2024-10-11T13:10:03Z</time>
      </trkpt>
      <trkpt lat="42.81232" lon="2.03524">
        <ele>747.2</ele>
        <time>2024-10-11T13:10:04Z</time>
      </trkpt>
      <trkpt lat="42.81235" lon="2.03526">
        <ele>747.2</ele>
        <time>2024-10-11T13:10:05Z</time>
      </trkpt>
      <trkpt lat="42.81245" lon="2.0353">
        <ele>747.2</ele>
        <time>2024-10-11T13:10:06Z</time>
      </trkpt>
      <trkpt lat="42.81248" lon="2.03532">
        <ele>747.2</ele>
        <time>2024-10-11T13:10:07Z</time>
      </trkpt>
      <trkpt lat="42.81257" lon="2.03537">
        <ele>747.2</ele>
        <time>2024-10-11T13:10:08Z</time>
      </trkpt>
      <trkpt lat="42.8126" lon="2.03539">
        <ele>746.4</ele>
        <time>2024-10-11T13:10:09Z</time>
      </trkpt>
      <trkpt lat="42.81267" lon="2.03543">
        <ele>746.4</ele>
        <time>2024-10-11T13:10:10Z</time>
      </trkpt>
      <trkpt lat="42.81272" lon="2.03547">
        <ele>746.4</ele>
        <time>2024-10-11T13:10:11Z</time>
      </trkpt>
      <trkpt lat="42.81278" lon="2.03552">
        <ele>746.4</ele>
        <time>2024-10-11T13:10:12Z</time>
      </trkpt>
      <trkpt lat="42.81284" lon="2.03556">
        <ele>745.8</ele>
        <time>2024-10-11T13:10:13Z</time>
      </trkpt>
      <trkpt lat="42.81289" lon="2.03561">
        <ele>745.8</ele>
        <time>2024-10-11T13:10:14Z</time>
      </trkpt>
      <trkpt lat="42.81295" lon="2.03565">
        <ele>745.8</ele>
        <time>2024-10-11T13:10:15Z</time>
      </trkpt>
      <trkpt lat="42.813" lon="2.0357">
        <ele>746.6</ele>
        <time>2024-10-11T13:10:16Z</time>
      </trkpt>
      <trkpt lat="42.81306" lon="2.03575">
        <ele>746.6</ele>
        <time>2024-10-11T13:10:17Z</time>
      </trkpt>
      <trkpt lat="42.81313" lon="2.03582">
        <ele>746.6</ele>
        <time>2024-10-11T13:10:18Z</time>
      </trkpt>
      <trkpt lat="42.81316" lon="2.03584">
        <ele>746.8</ele>
        <time>2024-10-11T13:10:19Z</time>
      </trkpt>
      <trkpt lat="42.81323" lon="2.03592">
        <ele>746.8</ele>
        <time>2024-10-11T13:10:20Z</time>
      </trkpt>
      <trkpt lat="42.81326" lon="2.03595">
        <ele>746.8</ele>
        <time>2024-10-11T13:10:21Z</time>
      </trkpt>
      <trkpt lat="42.81331" lon="2.036">
        <ele>746.2</ele>
        <time>2024-10-11T13:10:22Z</time>
      </trkpt>
      <trkpt lat="42.81339" lon="2.03608">
        <ele>746</ele>
        <time>2024-10-11T13:10:23Z</time>
      </trkpt>
      <trkpt lat="42.81342" lon="2.03611">
        <ele>746</ele>
        <time>2024-10-11T13:10:24Z</time>
      </trkpt>
      <trkpt lat="42.8135" lon="2.03618">
        <ele>746</ele>
        <time>2024-10-11T13:10:25Z</time>
      </trkpt>
      <trkpt lat="42.81353" lon="2.03621">
        <ele>746</ele>
        <time>2024-10-11T13:10:26Z</time>
      </trkpt>
      <trkpt lat="42.81361" lon="2.03629">
        <ele>745.6</ele>
        <time>2024-10-11T13:10:27Z</time>
      </trkpt>
      <trkpt lat="42.81364" lon="2.03632">
        <ele>745.6</ele>
        <time>2024-10-11T13:10:28Z</time>
      </trkpt>
      <trkpt lat="42.8137" lon="2.03637">
        <ele>745.6</ele>
        <time>2024-10-11T13:10:29Z</time>
      </trkpt>
      <trkpt lat="42.81379" lon="2.03646">
        <ele>745.6</ele>
        <time>2024-10-11T13:10:30Z</time>
      </trkpt>
      <trkpt lat="42.81382" lon="2.03648">
        <ele>744.6</ele>
        <time>2024-10-11T13:10:31Z</time>
      </trkpt>
      <trkpt lat="42.81392" lon="2.03656">
        <ele>744.8</ele>
        <time>2024-10-11T13:10:32Z</time>
      </trkpt>
      <trkpt lat="42.81395" lon="2.03659">
        <ele>744.8</ele>
        <time>2024-10-11T13:10:33Z</time>
      </trkpt>
      <trkpt lat="42.81405" lon="2.03666">
        <ele>744.8</ele>
        <time>2024-10-11T13:10:34Z</time>
      </trkpt>
      <trkpt lat="42.81408" lon="2.03668">
        <ele>744.8</ele>
        <time>2024-10-11T13:10:35Z</time>
      </trkpt>
      <trkpt lat="42.81418" lon="2.03676">
        <ele>744.8</ele>
        <time>2024-10-11T13:10:36Z</time>
      </trkpt>
      <trkpt lat="42.81421" lon="2.03678">
        <ele>743.8</ele>
        <time>2024-10-11T13:10:37Z</time>
      </trkpt>
      <trkpt lat="42.81428" lon="2.03683">
        <ele>743.8</ele>
        <time>2024-10-11T13:10:38Z</time>
      </trkpt>
      <trkpt lat="42.81434" lon="2.03688">
        <ele>743.8</ele>
        <time>2024-10-11T13:10:39Z</time>
      </trkpt>
      <trkpt lat="42.81441" lon="2.03693">
        <ele>743.4</ele>
        <time>2024-10-11T13:10:40Z</time>
      </trkpt>
      <trkpt lat="42.81447" lon="2.03698">
        <ele>743.4</ele>
        <time>2024-10-11T13:10:41Z</time>
      </trkpt>
      <trkpt lat="42.81453" lon="2.03703">
        <ele>743.4</ele>
        <time>2024-10-11T13:10:42Z</time>
      </trkpt>
      <trkpt lat="42.8146" lon="2.03707">
        <ele>743.4</ele>
        <time>2024-10-11T13:10:43Z</time>
      </trkpt>
      <trkpt lat="42.81469" lon="2.03714">
        <ele>742.8</ele>
        <time>2024-10-11T13:10:44Z</time>
      </trkpt>
      <trkpt lat="42.81472" lon="2.03717">
        <ele>743.2</ele>
        <time>2024-10-11T13:10:45Z</time>
      </trkpt>
      <trkpt lat="42.81481" lon="2.03722">
        <ele>743.2</ele>
        <time>2024-10-11T13:10:46Z</time>
      </trkpt>
      <trkpt lat="42.81484" lon="2.03723">
        <ele>743.2</ele>
        <time>2024-10-11T13:10:47Z</time>
      </trkpt>
      <trkpt lat="42.81494" lon="2.03728">
        <ele>743</ele>
        <time>2024-10-11T13:10:48Z</time>
      </trkpt>
      <trkpt lat="42.81497" lon="2.0373">
        <ele>743.2</ele>
        <time>2024-10-11T13:10:49Z</time>
      </trkpt>
      <trkpt lat="42.81507" lon="2.03735">
        <ele>743.2</ele>
        <time>2024-10-11T13:10:50Z</time>
      </trkpt>
      <trkpt lat="42.8151" lon="2.03736">
        <ele>743.2</ele>
        <time>2024-10-11T13:10:51Z</time>
      </trkpt>
      <trkpt lat="42.81516" lon="2.03739">
        <ele>743.2</ele>
        <time>2024-10-11T13:10:52Z</time>
      </trkpt>
      <trkpt lat="42.81523" lon="2.03743">
        <ele>742.8</ele>
        <time>2024-10-11T13:10:53Z</time>
      </trkpt>
      <trkpt lat="42.81529" lon="2.03748">
        <ele>742.6</ele>
        <time>2024-10-11T13:10:54Z</time>
      </trkpt>
      <trkpt lat="42.81535" lon="2.03753">
        <ele>742.6</ele>
        <time>2024-10-11T13:10:55Z</time>
      </trkpt>
      <trkpt lat="42.81544" lon="2.03758">
        <ele>742.6</ele>
        <time>2024-10-11T13:10:56Z</time>
      </trkpt>
      <trkpt lat="42.81547" lon="2.0376">
        <ele>742.6</ele>
        <time>2024-10-11T13:10:57Z</time>
      </trkpt>
      <trkpt lat="42.81553" lon="2.03764">
        <ele>743.4</ele>
        <time>2024-10-11T13:10:58Z</time>
      </trkpt>
      <trkpt lat="42.81558" lon="2.03767">
        <ele>743.4</ele>
        <time>2024-10-11T13:10:59Z</time>
      </trkpt>
      <trkpt lat="42.81564" lon="2.0377">
        <ele>743.4</ele>
        <time>2024-10-11T13:11:00Z</time>
      </trkpt>
      <trkpt lat="42.8157" lon="2.03772">
        <ele>743.4</ele>
        <time>2024-10-11T13:11:01Z</time>
      </trkpt>
      <trkpt lat="42.81576" lon="2.03775">
        <ele>743.4</ele>
        <time>2024-10-11T13:11:02Z</time>
      </trkpt>
      <trkpt lat="42.81586" lon="2.03778">
        <ele>743</ele>
        <time>2024-10-11T13:11:03Z</time>
      </trkpt>
      <trkpt lat="42.81589" lon="2.03779">
        <ele>742.6</ele>
        <time>2024-10-11T13:11:04Z</time>
      </trkpt>
      <trkpt lat="42.81596" lon="2.03781">
        <ele>742.6</ele>
        <time>2024-10-11T13:11:05Z</time>
      </trkpt>
      <trkpt lat="42.81604" lon="2.03785">
        <ele>742.6</ele>
        <time>2024-10-11T13:11:06Z</time>
      </trkpt>
      <trkpt lat="42.81607" lon="2.03786">
        <ele>742.6</ele>
        <time>2024-10-11T13:11:07Z</time>
      </trkpt>
      <trkpt lat="42.81616" lon="2.0379">
        <ele>743.2</ele>
        <time>2024-10-11T13:11:08Z</time>
      </trkpt>
      <trkpt lat="42.81619" lon="2.03792">
        <ele>743.2</ele>
        <time>2024-10-11T13:11:09Z</time>
      </trkpt>
      <trkpt lat="42.81624" lon="2.03794">
        <ele>743.2</ele>
        <time>2024-10-11T13:11:10Z</time>
      </trkpt>
      <trkpt lat="42.81631" lon="2.03798">
        <ele>743.2</ele>
        <time>2024-10-11T13:11:11Z</time>
      </trkpt>
      <trkpt lat="42.81632" lon="2.03799">
        <ele>743.2</ele>
        <time>2024-10-11T13:11:12Z</time>
      </trkpt>
      <trkpt lat="42.81638" lon="2.03802">
        <ele>742</ele>
        <time>2024-10-11T13:11:13Z</time>
      </trkpt>
      <trkpt lat="42.81641" lon="2.03803">
        <ele>742</ele>
        <time>2024-10-11T13:11:14Z</time>
      </trkpt>
      <trkpt lat="42.81648" lon="2.03806">
        <ele>742</ele>
        <time>2024-10-11T13:11:15Z</time>
      </trkpt>
      <trkpt lat="42.81651" lon="2.03806">
        <ele>743</ele>
        <time>2024-10-11T13:11:16Z</time>
      </trkpt>
      <trkpt lat="42.81659" lon="2.03809">
        <ele>743</ele>
        <time>2024-10-11T13:11:17Z</time>
      </trkpt>
      <trkpt lat="42.81662" lon="2.03811">
        <ele>742.2</ele>
        <time>2024-10-11T13:11:18Z</time>
      </trkpt>
      <trkpt lat="42.81668" lon="2.03814">
        <ele>742.2</ele>
        <time>2024-10-11T13:11:19Z</time>
      </trkpt>
      <trkpt lat="42.8167" lon="2.03815">
        <ele>743.2</ele>
        <time>2024-10-11T13:11:20Z</time>
      </trkpt>
      <trkpt lat="42.81675" lon="2.03815">
        <ele>743.2</ele>
        <time>2024-10-11T13:11:21Z</time>
      </trkpt>
      <trkpt lat="42.81681" lon="2.03816">
        <ele>742.4</ele>
        <time>2024-10-11T13:11:22Z</time>
      </trkpt>
      <trkpt lat="42.81685" lon="2.03816">
        <ele>742.4</ele>
        <time>2024-10-11T13:11:23Z</time>
      </trkpt>
      <trkpt lat="42.8169" lon="2.03815">
        <ele>742.4</ele>
        <time>2024-10-11T13:11:24Z</time>
      </trkpt>
      <trkpt lat="42.81698" lon="2.03812">
        <ele>742.8</ele>
        <time>2024-10-11T13:11:25Z</time>
      </trkpt>
      <trkpt lat="42.81701" lon="2.0381">
        <ele>742.8</ele>
        <time>2024-10-11T13:11:26Z</time>
      </trkpt>
      <trkpt lat="42.81708" lon="2.03805">
        <ele>742.8</ele>
        <time>2024-10-11T13:11:27Z</time>
      </trkpt>
      <trkpt lat="42.8171" lon="2.03802">
        <ele>742.8</ele>
        <time>2024-10-11T13:11:28Z</time>
      </trkpt>
      <trkpt lat="42.81713" lon="2.03796">
        <ele>743.2</ele>
        <time>2024-10-11T13:11:29Z</time>
      </trkpt>
      <trkpt lat="42.81715" lon="2.03793">
        <ele>742.6</ele>
        <time>2024-10-11T13:11:30Z</time>
      </trkpt>
      <trkpt lat="42.81718" lon="2.03787">
        <ele>742.6</ele>
        <time>2024-10-11T13:11:31Z</time>
      </trkpt>
      <trkpt lat="42.81724" lon="2.03779">
        <ele>742.6</ele>
        <time>2024-10-11T13:11:32Z</time>
      </trkpt>
      <trkpt lat="42.81726" lon="2.03775">
        <ele>742.6</ele>
        <time>2024-10-11T13:11:33Z</time>
      </trkpt>
      <trkpt lat="42.81729" lon="2.03769">
        <ele>742.6</ele>
        <time>2024-10-11T13:11:34Z</time>
      </trkpt>
      <trkpt lat="42.81732" lon="2.03763">
        <ele>742.2</ele>
        <time>2024-10-11T13:11:35Z</time>
      </trkpt>
      <trkpt lat="42.81735" lon="2.03758">
        <ele>742.2</ele>
        <time>2024-10-11T13:11:36Z</time>
      </trkpt>
      <trkpt lat="42.81739" lon="2.03752">
        <ele>742.2</ele>
        <time>2024-10-11T13:11:37Z</time>
      </trkpt>
      <trkpt lat="42.81744" lon="2.03744">
        <ele>742.2</ele>
        <time>2024-10-11T13:11:38Z</time>
      </trkpt>
      <trkpt lat="42.81746" lon="2.03742">
        <ele>741.2</ele>
        <time>2024-10-11T13:11:39Z</time>
      </trkpt>
      <trkpt lat="42.81749" lon="2.03738">
        <ele>741.2</ele>
        <time>2024-10-11T13:11:40Z</time>
      </trkpt>
      <trkpt lat="42.81753" lon="2.03732">
        <ele>741.2</ele>
        <time>2024-10-11T13:11:41Z</time>
      </trkpt>
      <trkpt lat="42.81757" lon="2.03727">
        <ele>741.2</ele>
        <time>2024-10-11T13:11:42Z</time>
      </trkpt>
      <trkpt lat="42.81762" lon="2.03724">
        <ele>741.2</ele>
        <time>2024-10-11T13:11:43Z</time>
      </trkpt>
      <trkpt lat="42.81767" lon="2.0372">
        <ele>740.8</ele>
        <time>2024-10-11T13:11:44Z</time>
      </trkpt>
      <trkpt lat="42.81773" lon="2.03717">
        <ele>740.8</ele>
        <time>2024-10-11T13:11:45Z</time>
      </trkpt>
      <trkpt lat="42.8178" lon="2.03714">
        <ele>740.8</ele>
        <time>2024-10-11T13:11:46Z</time>
      </trkpt>
      <trkpt lat="42.81782" lon="2.03713">
        <ele>741.4</ele>
        <time>2024-10-11T13:11:47Z</time>
      </trkpt>
      <trkpt lat="42.8179" lon="2.03709">
        <ele>740.4</ele>
        <time>2024-10-11T13:11:48Z</time>
      </trkpt>
      <trkpt lat="42.81793" lon="2.03708">
        <ele>740.4</ele>
        <time>2024-10-11T13:11:49Z</time>
      </trkpt>
      <trkpt lat="42.81798" lon="2.03705">
        <ele>740.4</ele>
        <time>2024-10-11T13:11:50Z</time>
      </trkpt>
      <trkpt lat="42.81803" lon="2.03702">
        <ele>740.4</ele>
        <time>2024-10-11T13:11:51Z</time>
      </trkpt>
      <trkpt lat="42.81811" lon="2.03698">
        <ele>741.2</ele>
        <time>2024-10-11T13:11:52Z</time>
      </trkpt>
      <trkpt lat="42.81813" lon="2.03697">
        <ele>741.8</ele>
        <time>2024-10-11T13:11:53Z</time>
      </trkpt>
      <trkpt lat="42.81818" lon="2.03694">
        <ele>741.8</ele>
        <time>2024-10-11T13:11:54Z</time>
      </trkpt>
      <trkpt lat="42.81826" lon="2.0369">
        <ele>741.8</ele>
        <time>2024-10-11T13:11:55Z</time>
      </trkpt>
      <trkpt lat="42.81829" lon="2.03688">
        <ele>741.4</ele>
        <time>2024-10-11T13:11:56Z</time>
      </trkpt>
      <trkpt lat="42.81838" lon="2.03683">
        <ele>741.8</ele>
        <time>2024-10-11T13:11:57Z</time>
      </trkpt>
      <trkpt lat="42.81841" lon="2.03682">
        <ele>741.8</ele>
        <time>2024-10-11T13:11:58Z</time>
      </trkpt>
      <trkpt lat="42.8185" lon="2.03678">
        <ele>741.8</ele>
        <time>2024-10-11T13:11:59Z</time>
      </trkpt>
      <trkpt lat="42.81853" lon="2.03677">
        <ele>741.8</ele>
        <time>2024-10-11T13:12:00Z</time>
      </trkpt>
      <trkpt lat="42.81862" lon="2.03673">
        <ele>741.2</ele>
        <time>2024-10-11T13:12:01Z</time>
      </trkpt>
      <trkpt lat="42.81865" lon="2.03672">
        <ele>741.6</ele>
        <time>2024-10-11T13:12:02Z</time>
      </trkpt>
      <trkpt lat="42.81871" lon="2.0367">
        <ele>741.6</ele>
        <time>2024-10-11T13:12:03Z</time>
      </trkpt>
      <trkpt lat="42.81877" lon="2.03669">
        <ele>741.6</ele>
        <time>2024-10-11T13:12:04Z</time>
      </trkpt>
      <trkpt lat="42.81884" lon="2.03668">
        <ele>740.6</ele>
        <time>2024-10-11T13:12:05Z</time>
      </trkpt>
      <trkpt lat="42.81891" lon="2.03667">
        <ele>740.6</ele>
        <time>2024-10-11T13:12:06Z</time>
      </trkpt>
      <trkpt lat="42.81898" lon="2.03666">
        <ele>740</ele>
        <time>2024-10-11T13:12:07Z</time>
      </trkpt>
      <trkpt lat="42.81905" lon="2.03666">
        <ele>740</ele>
        <time>2024-10-11T13:12:08Z</time>
      </trkpt>
      <trkpt lat="42.81915" lon="2.03665">
        <ele>740</ele>
        <time>2024-10-11T13:12:09Z</time>
      </trkpt>
      <trkpt lat="42.81918" lon="2.03664">
        <ele>740.2</ele>
        <time>2024-10-11T13:12:10Z</time>
      </trkpt>
      <trkpt lat="42.81925" lon="2.03664">
        <ele>740.2</ele>
        <time>2024-10-11T13:12:11Z</time>
      </trkpt>
      <trkpt lat="42.81935" lon="2.03663">
        <ele>740.2</ele>
        <time>2024-10-11T13:12:12Z</time>
      </trkpt>
      <trkpt lat="42.81939" lon="2.03663">
        <ele>740.2</ele>
        <time>2024-10-11T13:12:13Z</time>
      </trkpt>
      <trkpt lat="42.81949" lon="2.03662">
        <ele>740.2</ele>
        <time>2024-10-11T13:12:14Z</time>
      </trkpt>
      <trkpt lat="42.81953" lon="2.03662">
        <ele>740.2</ele>
        <time>2024-10-11T13:12:15Z</time>
      </trkpt>
      <trkpt lat="42.81963" lon="2.03661">
        <ele>740.2</ele>
        <time>2024-10-11T13:12:16Z</time>
      </trkpt>
      <trkpt lat="42.81967" lon="2.03661">
        <ele>740.2</ele>
        <time>2024-10-11T13:12:17Z</time>
      </trkpt>
      <trkpt lat="42.81974" lon="2.03661">
        <ele>740.2</ele>
        <time>2024-10-11T13:12:18Z</time>
      </trkpt>
      <trkpt lat="42.81981" lon="2.03662">
        <ele>739.4</ele>
        <time>2024-10-11T13:12:19Z</time>
      </trkpt>
      <trkpt lat="42.81987" lon="2.03665">
        <ele>739.4</ele>
        <time>2024-10-11T13:12:20Z</time>
      </trkpt>
      <trkpt lat="42.81994" lon="2.0367">
        <ele>739.4</ele>
        <time>2024-10-11T13:12:21Z</time>
      </trkpt>
      <trkpt lat="42.82" lon="2.03676">
        <ele>739.4</ele>
        <time>2024-10-11T13:12:22Z</time>
      </trkpt>
      <trkpt lat="42.82005" lon="2.03683">
        <ele>739.6</ele>
        <time>2024-10-11T13:12:23Z</time>
      </trkpt>
      <trkpt lat="42.8201" lon="2.0369">
        <ele>739.6</ele>
        <time>2024-10-11T13:12:24Z</time>
      </trkpt>
      <trkpt lat="42.82014" lon="2.03698">
        <ele>739.6</ele>
        <time>2024-10-11T13:12:25Z</time>
      </trkpt>
      <trkpt lat="42.82017" lon="2.03707">
        <ele>739.6</ele>
        <time>2024-10-11T13:12:26Z</time>
      </trkpt>
      <trkpt lat="42.82021" lon="2.03716">
        <ele>739.6</ele>
        <time>2024-10-11T13:12:27Z</time>
      </trkpt>
      <trkpt lat="42.82024" lon="2.03725">
        <ele>738.6</ele>
        <time>2024-10-11T13:12:28Z</time>
      </trkpt>
      <trkpt lat="42.8203" lon="2.03739">
        <ele>738.4</ele>
        <time>2024-10-11T13:12:29Z</time>
      </trkpt>
      <trkpt lat="42.82032" lon="2.03743">
        <ele>738.4</ele>
        <time>2024-10-11T13:12:30Z</time>
      </trkpt>
      <trkpt lat="42.82036" lon="2.03753">
        <ele>738.4</ele>
        <time>2024-10-11T13:12:31Z</time>
      </trkpt>
      <trkpt lat="42.82044" lon="2.03765">
        <ele>738.2</ele>
        <time>2024-10-11T13:12:32Z</time>
      </trkpt>
      <trkpt lat="42.82047" lon="2.03769">
        <ele>737.6</ele>
        <time>2024-10-11T13:12:33Z</time>
      </trkpt>
      <trkpt lat="42.82056" lon="2.0378">
        <ele>737.6</ele>
        <time>2024-10-11T13:12:34Z</time>
      </trkpt>
      <trkpt lat="42.82059" lon="2.03784">
        <ele>737.6</ele>
        <time>2024-10-11T13:12:35Z</time>
      </trkpt>
      <trkpt lat="42.82065" lon="2.0379">
        <ele>737.6</ele>
        <time>2024-10-11T13:12:36Z</time>
      </trkpt>
      <trkpt lat="42.82075" lon="2.03801">
        <ele>737</ele>
        <time>2024-10-11T13:12:37Z</time>
      </trkpt>
      <trkpt lat="42.82078" lon="2.03804">
        <ele>736</ele>
        <time>2024-10-11T13:12:38Z</time>
      </trkpt>
      <trkpt lat="42.82088" lon="2.03813">
        <ele>736</ele>
        <time>2024-10-11T13:12:39Z</time>
      </trkpt>
      <trkpt lat="42.82091" lon="2.03816">
        <ele>736</ele>
        <time>2024-10-11T13:12:40Z</time>
      </trkpt>
      <trkpt lat="42.82101" lon="2.03826">
        <ele>735</ele>
        <time>2024-10-11T13:12:41Z</time>
      </trkpt>
      <trkpt lat="42.82105" lon="2.0383">
        <ele>734.8</ele>
        <time>2024-10-11T13:12:42Z</time>
      </trkpt>
      <trkpt lat="42.82115" lon="2.0384">
        <ele>734.8</ele>
        <time>2024-10-11T13:12:43Z</time>
      </trkpt>
      <trkpt lat="42.82118" lon="2.03844">
        <ele>734.8</ele>
        <time>2024-10-11T13:12:44Z</time>
      </trkpt>
      <trkpt lat="42.82125" lon="2.03852">
        <ele>734.8</ele>
        <time>2024-10-11T13:12:45Z</time>
      </trkpt>
      <trkpt lat="42.82131" lon="2.03858">
        <ele>733.4</ele>
        <time>2024-10-11T13:12:46Z</time>
      </trkpt>
      <trkpt lat="42.82138" lon="2.03865">
        <ele>733.4</ele>
        <time>2024-10-11T13:12:47Z</time>
      </trkpt>
      <trkpt lat="42.82144" lon="2.03872">
        <ele>733.4</ele>
        <time>2024-10-11T13:12:48Z</time>
      </trkpt>
      <trkpt lat="42.82152" lon="2.03879">
        <ele>733.4</ele>
        <time>2024-10-11T13:12:49Z</time>
      </trkpt>
      <trkpt lat="42.82159" lon="2.03886">
        <ele>732.4</ele>
        <time>2024-10-11T13:12:50Z</time>
      </trkpt>
      <trkpt lat="42.8217" lon="2.03896">
        <ele>731.6</ele>
        <time>2024-10-11T13:12:51Z</time>
      </trkpt>
      <trkpt lat="42.82173" lon="2.03899">
        <ele>731.6</ele>
        <time>2024-10-11T13:12:52Z</time>
      </trkpt>
      <trkpt lat="42.82183" lon="2.03909">
        <ele>731.6</ele>
        <time>2024-10-11T13:12:53Z</time>
      </trkpt>
      <trkpt lat="42.82186" lon="2.03913">
        <ele>731.6</ele>
        <time>2024-10-11T13:12:54Z</time>
      </trkpt>
      <trkpt lat="42.82196" lon="2.03923">
        <ele>729.8</ele>
        <time>2024-10-11T13:12:55Z</time>
      </trkpt>
      <trkpt lat="42.82199" lon="2.03926">
        <ele>729.8</ele>
        <time>2024-10-11T13:12:56Z</time>
      </trkpt>
      <trkpt lat="42.82209" lon="2.03936">
        <ele>729.8</ele>
        <time>2024-10-11T13:12:57Z</time>
      </trkpt>
      <trkpt lat="42.82213" lon="2.0394">
        <ele>729.8</ele>
        <time>2024-10-11T13:12:58Z</time>
      </trkpt>
      <trkpt lat="42.82223" lon="2.0395">
        <ele>729.8</ele>
        <time>2024-10-11T13:12:59Z</time>
      </trkpt>
      <trkpt lat="42.82226" lon="2.03953">
        <ele>729</ele>
        <time>2024-10-11T13:13:00Z</time>
      </trkpt>
      <trkpt lat="42.82232" lon="2.0396">
        <ele>729</ele>
        <time>2024-10-11T13:13:01Z</time>
      </trkpt>
      <trkpt lat="42.82239" lon="2.03967">
        <ele>729</ele>
        <time>2024-10-11T13:13:02Z</time>
      </trkpt>
      <trkpt lat="42.82246" lon="2.03974">
        <ele>729</ele>
        <time>2024-10-11T13:13:03Z</time>
      </trkpt>
      <trkpt lat="42.82252" lon="2.03981">
        <ele>728</ele>
        <time>2024-10-11T13:13:04Z</time>
      </trkpt>
      <trkpt lat="42.8226" lon="2.03993">
        <ele>728</ele>
        <time>2024-10-11T13:13:05Z</time>
      </trkpt>
      <trkpt lat="42.82262" lon="2.03997">
        <ele>728</ele>
        <time>2024-10-11T13:13:06Z</time>
      </trkpt>
      <trkpt lat="42.82268" lon="2.04004">
        <ele>727.6</ele>
        <time>2024-10-11T13:13:07Z</time>
      </trkpt>
      <trkpt lat="42.82273" lon="2.04013">
        <ele>727.6</ele>
        <time>2024-10-11T13:13:08Z</time>
      </trkpt>
      <trkpt lat="42.8228" lon="2.04025">
        <ele>727.6</ele>
        <time>2024-10-11T13:13:09Z</time>
      </trkpt>
      <trkpt lat="42.82282" lon="2.04029">
        <ele>727.6</ele>
        <time>2024-10-11T13:13:10Z</time>
      </trkpt>
      <trkpt lat="42.82289" lon="2.04041">
        <ele>727.6</ele>
        <time>2024-10-11T13:13:11Z</time>
      </trkpt>
      <trkpt lat="42.82291" lon="2.04045">
        <ele>727.6</ele>
        <time>2024-10-11T13:13:12Z</time>
      </trkpt>
      <trkpt lat="42.82298" lon="2.04057">
        <ele>727.6</ele>
        <time>2024-10-11T13:13:13Z</time>
      </trkpt>
      <trkpt lat="42.823" lon="2.04061">
        <ele>727.2</ele>
        <time>2024-10-11T13:13:14Z</time>
      </trkpt>
      <trkpt lat="42.82306" lon="2.04073">
        <ele>727.2</ele>
        <time>2024-10-11T13:13:15Z</time>
      </trkpt>
      <trkpt lat="42.82308" lon="2.04076">
        <ele>727.2</ele>
        <time>2024-10-11T13:13:16Z</time>
      </trkpt>
      <trkpt lat="42.82314" lon="2.04088">
        <ele>727.2</ele>
        <time>2024-10-11T13:13:17Z</time>
      </trkpt>
      <trkpt lat="42.82316" lon="2.04092">
        <ele>727.2</ele>
        <time>2024-10-11T13:13:18Z</time>
      </trkpt>
      <trkpt lat="42.8232" lon="2.04099">
        <ele>727.2</ele>
        <time>2024-10-11T13:13:19Z</time>
      </trkpt>
      <trkpt lat="42.82326" lon="2.04111">
        <ele>727.2</ele>
        <time>2024-10-11T13:13:20Z</time>
      </trkpt>
      <trkpt lat="42.82328" lon="2.04114">
        <ele>726.4</ele>
        <time>2024-10-11T13:13:21Z</time>
      </trkpt>
      <trkpt lat="42.82333" lon="2.04125">
        <ele>726.4</ele>
        <time>2024-10-11T13:13:22Z</time>
      </trkpt>
      <trkpt lat="42.82335" lon="2.04129">
        <ele>727</ele>
        <time>2024-10-11T13:13:23Z</time>
      </trkpt>
      <trkpt lat="42.8234" lon="2.0414">
        <ele>727</ele>
        <time>2024-10-11T13:13:24Z</time>
      </trkpt>
      <trkpt lat="42.82342" lon="2.04144">
        <ele>727</ele>
        <time>2024-10-11T13:13:25Z</time>
      </trkpt>
      <trkpt lat="42.82348" lon="2.04156">
        <ele>726.8</ele>
        <time>2024-10-11T13:13:26Z</time>
      </trkpt>
      <trkpt lat="42.8235" lon="2.04159">
        <ele>726.8</ele>
        <time>2024-10-11T13:13:27Z</time>
      </trkpt>
      <trkpt lat="42.82354" lon="2.04167">
        <ele>726.8</ele>
        <time>2024-10-11T13:13:28Z</time>
      </trkpt>
      <trkpt lat="42.82358" lon="2.04175">
        <ele>726.8</ele>
        <time>2024-10-11T13:13:29Z</time>
      </trkpt>
      <trkpt lat="42.82362" lon="2.04182">
        <ele>726.8</ele>
        <time>2024-10-11T13:13:30Z</time>
      </trkpt>
      <trkpt lat="42.82367" lon="2.04188">
        <ele>725.6</ele>
        <time>2024-10-11T13:13:31Z</time>
      </trkpt>
      <trkpt lat="42.82372" lon="2.04195">
        <ele>725.6</ele>
        <time>2024-10-11T13:13:32Z</time>
      </trkpt>
      <trkpt lat="42.82377" lon="2.04201">
        <ele>725.6</ele>
        <time>2024-10-11T13:13:33Z</time>
      </trkpt>
      <trkpt lat="42.82385" lon="2.04211">
        <ele>725.6</ele>
        <time>2024-10-11T13:13:34Z</time>
      </trkpt>
      <trkpt lat="42.82388" lon="2.04214">
        <ele>725.6</ele>
        <time>2024-10-11T13:13:35Z</time>
      </trkpt>
      <trkpt lat="42.82396" lon="2.04223">
        <ele>725.6</ele>
        <time>2024-10-11T13:13:36Z</time>
      </trkpt>
      <trkpt lat="42.82399" lon="2.04226">
        <ele>725.6</ele>
        <time>2024-10-11T13:13:37Z</time>
      </trkpt>
      <trkpt lat="42.82407" lon="2.04235">
        <ele>725.6</ele>
        <time>2024-10-11T13:13:38Z</time>
      </trkpt>
      <trkpt lat="42.8241" lon="2.04238">
        <ele>725.2</ele>
        <time>2024-10-11T13:13:39Z</time>
      </trkpt>
      <trkpt lat="42.82417" lon="2.04248">
        <ele>725.2</ele>
        <time>2024-10-11T13:13:40Z</time>
      </trkpt>
      <trkpt lat="42.8242" lon="2.04251">
        <ele>725.2</ele>
        <time>2024-10-11T13:13:41Z</time>
      </trkpt>
      <trkpt lat="42.82426" lon="2.04262">
        <ele>725.2</ele>
        <time>2024-10-11T13:13:42Z</time>
      </trkpt>
      <trkpt lat="42.82429" lon="2.04265">
        <ele>725.2</ele>
        <time>2024-10-11T13:13:43Z</time>
      </trkpt>
      <trkpt lat="42.82433" lon="2.04273">
        <ele>725.2</ele>
        <time>2024-10-11T13:13:44Z</time>
      </trkpt>
      <trkpt lat="42.82437" lon="2.0428">
        <ele>726</ele>
        <time>2024-10-11T13:13:45Z</time>
      </trkpt>
      <trkpt lat="42.82441" lon="2.04287">
        <ele>726</ele>
        <time>2024-10-11T13:13:46Z</time>
      </trkpt>
      <trkpt lat="42.82446" lon="2.04294">
        <ele>726</ele>
        <time>2024-10-11T13:13:47Z</time>
      </trkpt>
      <trkpt lat="42.8245" lon="2.04301">
        <ele>725</ele>
        <time>2024-10-11T13:13:48Z</time>
      </trkpt>
      <trkpt lat="42.82455" lon="2.04308">
        <ele>725.2</ele>
        <time>2024-10-11T13:13:49Z</time>
      </trkpt>
      <trkpt lat="42.82459" lon="2.04314">
        <ele>725.2</ele>
        <time>2024-10-11T13:13:50Z</time>
      </trkpt>
      <trkpt lat="42.82463" lon="2.04321">
        <ele>725.2</ele>
        <time>2024-10-11T13:13:51Z</time>
      </trkpt>
      <trkpt lat="42.82466" lon="2.04328">
        <ele>725.2</ele>
        <time>2024-10-11T13:13:52Z</time>
      </trkpt>
      <trkpt lat="42.8247" lon="2.04335">
        <ele>724.2</ele>
        <time>2024-10-11T13:13:53Z</time>
      </trkpt>
      <trkpt lat="42.82474" lon="2.04342">
        <ele>725.4</ele>
        <time>2024-10-11T13:13:54Z</time>
      </trkpt>
      <trkpt lat="42.82479" lon="2.04348">
        <ele>725.4</ele>
        <time>2024-10-11T13:13:55Z</time>
      </trkpt>
      <trkpt lat="42.82484" lon="2.04359">
        <ele>725.4</ele>
        <time>2024-10-11T13:13:56Z</time>
      </trkpt>
      <trkpt lat="42.82486" lon="2.04363">
        <ele>725.4</ele>
        <time>2024-10-11T13:13:57Z</time>
      </trkpt>
      <trkpt lat="42.82491" lon="2.04374">
        <ele>724.4</ele>
        <time>2024-10-11T13:13:58Z</time>
      </trkpt>
      <trkpt lat="42.82493" lon="2.04378">
        <ele>724.2</ele>
        <time>2024-10-11T13:13:59Z</time>
      </trkpt>
      <trkpt lat="42.82497" lon="2.0439">
        <ele>724.2</ele>
        <time>2024-10-11T13:14:00Z</time>
      </trkpt>
      <trkpt lat="42.82499" lon="2.04394">
        <ele>724.2</ele>
        <time>2024-10-11T13:14:01Z</time>
      </trkpt>
      <trkpt lat="42.82502" lon="2.04407">
        <ele>724.2</ele>
        <time>2024-10-11T13:14:02Z</time>
      </trkpt>
      <trkpt lat="42.82503" lon="2.04412">
        <ele>723.2</ele>
        <time>2024-10-11T13:14:03Z</time>
      </trkpt>
      <trkpt lat="42.82506" lon="2.04426">
        <ele>723.2</ele>
        <time>2024-10-11T13:14:04Z</time>
      </trkpt>
      <trkpt lat="42.82506" lon="2.0443">
        <ele>723.2</ele>
        <time>2024-10-11T13:14:05Z</time>
      </trkpt>
      <trkpt lat="42.82508" lon="2.04445">
        <ele>723.2</ele>
        <time>2024-10-11T13:14:06Z</time>
      </trkpt>
      <trkpt lat="42.82508" lon="2.0445">
        <ele>722.4</ele>
        <time>2024-10-11T13:14:07Z</time>
      </trkpt>
      <trkpt lat="42.82509" lon="2.04465">
        <ele>722.4</ele>
        <time>2024-10-11T13:14:08Z</time>
      </trkpt>
      <trkpt lat="42.8251" lon="2.0447">
        <ele>722.4</ele>
        <time>2024-10-11T13:14:09Z</time>
      </trkpt>
      <trkpt lat="42.8251" lon="2.04486">
        <ele>722.4</ele>
        <time>2024-10-11T13:14:10Z</time>
      </trkpt>
      <trkpt lat="42.8251" lon="2.04491">
        <ele>722.4</ele>
        <time>2024-10-11T13:14:11Z</time>
      </trkpt>
      <trkpt lat="42.82511" lon="2.04502">
        <ele>721.8</ele>
        <time>2024-10-11T13:14:12Z</time>
      </trkpt>
      <trkpt lat="42.82511" lon="2.04512">
        <ele>721.8</ele>
        <time>2024-10-11T13:14:13Z</time>
      </trkpt>
      <trkpt lat="42.82511" lon="2.04523">
        <ele>721.8</ele>
        <time>2024-10-11T13:14:14Z</time>
      </trkpt>
      <trkpt lat="42.82511" lon="2.04534">
        <ele>721.8</ele>
        <time>2024-10-11T13:14:15Z</time>
      </trkpt>
      <trkpt lat="42.82511" lon="2.04545">
        <ele>720</ele>
        <time>2024-10-11T13:14:16Z</time>
      </trkpt>
      <trkpt lat="42.82512" lon="2.04556">
        <ele>720</ele>
        <time>2024-10-11T13:14:17Z</time>
      </trkpt>
      <trkpt lat="42.82513" lon="2.04574">
        <ele>720</ele>
        <time>2024-10-11T13:14:18Z</time>
      </trkpt>
      <trkpt lat="42.82513" lon="2.04579">
        <ele>720</ele>
        <time>2024-10-11T13:14:19Z</time>
      </trkpt>
      <trkpt lat="42.82514" lon="2.04597">
        <ele>719</ele>
        <time>2024-10-11T13:14:20Z</time>
      </trkpt>
      <trkpt lat="42.82514" lon="2.04602">
        <ele>718.2</ele>
        <time>2024-10-11T13:14:21Z</time>
      </trkpt>
      <trkpt lat="42.82515" lon="2.04614">
        <ele>718.2</ele>
        <time>2024-10-11T13:14:22Z</time>
      </trkpt>
      <trkpt lat="42.82515" lon="2.04625">
        <ele>718.2</ele>
        <time>2024-10-11T13:14:23Z</time>
      </trkpt>
      <trkpt lat="42.82516" lon="2.04636">
        <ele>718.2</ele>
        <time>2024-10-11T13:14:24Z</time>
      </trkpt>
      <trkpt lat="42.82517" lon="2.04647">
        <ele>718.2</ele>
        <time>2024-10-11T13:14:25Z</time>
      </trkpt>
      <trkpt lat="42.82517" lon="2.04657">
        <ele>718.2</ele>
        <time>2024-10-11T13:14:26Z</time>
      </trkpt>
      <trkpt lat="42.82518" lon="2.04667">
        <ele>718.2</ele>
        <time>2024-10-11T13:14:27Z</time>
      </trkpt>
      <trkpt lat="42.82518" lon="2.04677">
        <ele>718.2</ele>
        <time>2024-10-11T13:14:28Z</time>
      </trkpt>
      <trkpt lat="42.82518" lon="2.04687">
        <ele>716.6</ele>
        <time>2024-10-11T13:14:29Z</time>
      </trkpt>
      <trkpt lat="42.82519" lon="2.04697">
        <ele>716.6</ele>
        <time>2024-10-11T13:14:30Z</time>
      </trkpt>
      <trkpt lat="42.82519" lon="2.04707">
        <ele>716.6</ele>
        <time>2024-10-11T13:14:31Z</time>
      </trkpt>
      <trkpt lat="42.82519" lon="2.04717">
        <ele>716.6</ele>
        <time>2024-10-11T13:14:32Z</time>
      </trkpt>
      <trkpt lat="42.8252" lon="2.04726">
        <ele>716.6</ele>
        <time>2024-10-11T13:14:33Z</time>
      </trkpt>
      <trkpt lat="42.82522" lon="2.04736">
        <ele>716.8</ele>
        <time>2024-10-11T13:14:34Z</time>
      </trkpt>
      <trkpt lat="42.82524" lon="2.04745">
        <ele>716.8</ele>
        <time>2024-10-11T13:14:35Z</time>
      </trkpt>
      <trkpt lat="42.82527" lon="2.04754">
        <ele>716.8</ele>
        <time>2024-10-11T13:14:36Z</time>
      </trkpt>
      <trkpt lat="42.82533" lon="2.04766">
        <ele>716.8</ele>
        <time>2024-10-11T13:14:37Z</time>
      </trkpt>
      <trkpt lat="42.82535" lon="2.0477">
        <ele>716</ele>
        <time>2024-10-11T13:14:38Z</time>
      </trkpt>
      <trkpt lat="42.82539" lon="2.04777">
        <ele>716</ele>
        <time>2024-10-11T13:14:39Z</time>
      </trkpt>
      <trkpt lat="42.82545" lon="2.04789">
        <ele>716</ele>
        <time>2024-10-11T13:14:40Z</time>
      </trkpt>
      <trkpt lat="42.82547" lon="2.04793">
        <ele>716</ele>
        <time>2024-10-11T13:14:41Z</time>
      </trkpt>
      <trkpt lat="42.82553" lon="2.04805">
        <ele>716</ele>
        <time>2024-10-11T13:14:42Z</time>
      </trkpt>
      <trkpt lat="42.82555" lon="2.04809">
        <ele>715</ele>
        <time>2024-10-11T13:14:43Z</time>
      </trkpt>
      <trkpt lat="42.82562" lon="2.04821">
        <ele>715</ele>
        <time>2024-10-11T13:14:44Z</time>
      </trkpt>
      <trkpt lat="42.82564" lon="2.04825">
        <ele>715</ele>
        <time>2024-10-11T13:14:45Z</time>
      </trkpt>
      <trkpt lat="42.82568" lon="2.04833">
        <ele>715</ele>
        <time>2024-10-11T13:14:46Z</time>
      </trkpt>
      <trkpt lat="42.82574" lon="2.04844">
        <ele>715.6</ele>
        <time>2024-10-11T13:14:47Z</time>
      </trkpt>
      <trkpt lat="42.82575" lon="2.04849">
        <ele>714.8</ele>
        <time>2024-10-11T13:14:48Z</time>
      </trkpt>
      <trkpt lat="42.8258" lon="2.04862">
        <ele>714.8</ele>
        <time>2024-10-11T13:14:49Z</time>
      </trkpt>
      <trkpt lat="42.82581" lon="2.04867">
        <ele>714.8</ele>
        <time>2024-10-11T13:14:50Z</time>
      </trkpt>
      <trkpt lat="42.82584" lon="2.04882">
        <ele>714.8</ele>
        <time>2024-10-11T13:14:51Z</time>
      </trkpt>
      <trkpt lat="42.82585" lon="2.04887">
        <ele>713.8</ele>
        <time>2024-10-11T13:14:52Z</time>
      </trkpt>
      <trkpt lat="42.82587" lon="2.04903">
        <ele>713.8</ele>
        <time>2024-10-11T13:14:53Z</time>
      </trkpt>
      <trkpt lat="42.82588" lon="2.04908">
        <ele>713.8</ele>
        <time>2024-10-11T13:14:54Z</time>
      </trkpt>
      <trkpt lat="42.82589" lon="2.04918">
        <ele>713.8</ele>
        <time>2024-10-11T13:14:55Z</time>
      </trkpt>
      <trkpt lat="42.8259" lon="2.04928">
        <ele>713.8</ele>
        <time>2024-10-11T13:14:56Z</time>
      </trkpt>
      <trkpt lat="42.82591" lon="2.04938">
        <ele>713.6</ele>
        <time>2024-10-11T13:14:57Z</time>
      </trkpt>
      <trkpt lat="42.82591" lon="2.04948">
        <ele>713.6</ele>
        <time>2024-10-11T13:14:58Z</time>
      </trkpt>
      <trkpt lat="42.82592" lon="2.04958">
        <ele>713.6</ele>
        <time>2024-10-11T13:14:59Z</time>
      </trkpt>
      <trkpt lat="42.82593" lon="2.04969">
        <ele>712.6</ele>
        <time>2024-10-11T13:15:00Z</time>
      </trkpt>
      <trkpt lat="42.82594" lon="2.04979">
        <ele>712.6</ele>
        <time>2024-10-11T13:15:01Z</time>
      </trkpt>
      <trkpt lat="42.82595" lon="2.04993">
        <ele>711.8</ele>
        <time>2024-10-11T13:15:02Z</time>
      </trkpt>
      <trkpt lat="42.82595" lon="2.04998">
        <ele>711.8</ele>
        <time>2024-10-11T13:15:03Z</time>
      </trkpt>
      <trkpt lat="42.82596" lon="2.05008">
        <ele>712</ele>
        <time>2024-10-11T13:15:04Z</time>
      </trkpt>
      <trkpt lat="42.82597" lon="2.05018">
        <ele>711.8</ele>
        <time>2024-10-11T13:15:05Z</time>
      </trkpt>
      <trkpt lat="42.82598" lon="2.05028">
        <ele>711.8</ele>
        <time>2024-10-11T13:15:06Z</time>
      </trkpt>
      <trkpt lat="42.82599" lon="2.05037">
        <ele>711.8</ele>
        <time>2024-10-11T13:15:07Z</time>
      </trkpt>
      <trkpt lat="42.826" lon="2.05047">
        <ele>711.8</ele>
        <time>2024-10-11T13:15:08Z</time>
      </trkpt>
      <trkpt lat="42.82601" lon="2.05057">
        <ele>711.4</ele>
        <time>2024-10-11T13:15:09Z</time>
      </trkpt>
      <trkpt lat="42.82602" lon="2.05067">
        <ele>711.4</ele>
        <time>2024-10-11T13:15:10Z</time>
      </trkpt>
      <trkpt lat="42.82603" lon="2.05077">
        <ele>711.4</ele>
        <time>2024-10-11T13:15:11Z</time>
      </trkpt>
      <trkpt lat="42.82604" lon="2.05087">
        <ele>711.4</ele>
        <time>2024-10-11T13:15:12Z</time>
      </trkpt>
      <trkpt lat="42.82605" lon="2.05097">
        <ele>711.4</ele>
        <time>2024-10-11T13:15:13Z</time>
      </trkpt>
      <trkpt lat="42.82606" lon="2.05107">
        <ele>710.8</ele>
        <time>2024-10-11T13:15:14Z</time>
      </trkpt>
      <trkpt lat="42.82607" lon="2.05116">
        <ele>710.8</ele>
        <time>2024-10-11T13:15:15Z</time>
      </trkpt>
      <trkpt lat="42.82608" lon="2.05126">
        <ele>710.8</ele>
        <time>2024-10-11T13:15:16Z</time>
      </trkpt>
      <trkpt lat="42.82609" lon="2.05136">
        <ele>710.8</ele>
        <time>2024-10-11T13:15:17Z</time>
      </trkpt>
      <trkpt lat="42.8261" lon="2.0515">
        <ele>710.8</ele>
        <time>2024-10-11T13:15:18Z</time>
      </trkpt>
      <trkpt lat="42.8261" lon="2.05155">
        <ele>710.8</ele>
        <time>2024-10-11T13:15:19Z</time>
      </trkpt>
      <trkpt lat="42.82611" lon="2.05165">
        <ele>710.8</ele>
        <time>2024-10-11T13:15:20Z</time>
      </trkpt>
      <trkpt lat="42.82612" lon="2.05175">
        <ele>710.8</ele>
        <time>2024-10-11T13:15:21Z</time>
      </trkpt>
      <trkpt lat="42.82614" lon="2.05189">
        <ele>710.8</ele>
        <time>2024-10-11T13:15:22Z</time>
      </trkpt>
      <trkpt lat="42.82615" lon="2.05194">
        <ele>710.8</ele>
        <time>2024-10-11T13:15:23Z</time>
      </trkpt>
      <trkpt lat="42.82616" lon="2.05204">
        <ele>710.8</ele>
        <time>2024-10-11T13:15:24Z</time>
      </trkpt>
      <trkpt lat="42.82617" lon="2.05218">
        <ele>710.8</ele>
        <time>2024-10-11T13:15:25Z</time>
      </trkpt>
      <trkpt lat="42.82617" lon="2.05223">
        <ele>710.8</ele>
        <time>2024-10-11T13:15:26Z</time>
      </trkpt>
      <trkpt lat="42.82618" lon="2.05237">
        <ele>710.8</ele>
        <time>2024-10-11T13:15:27Z</time>
      </trkpt>
      <trkpt lat="42.82619" lon="2.05242">
        <ele>710.4</ele>
        <time>2024-10-11T13:15:28Z</time>
      </trkpt>
      <trkpt lat="42.8262" lon="2.05256">
        <ele>710.4</ele>
        <time>2024-10-11T13:15:29Z</time>
      </trkpt>
      <trkpt lat="42.8262" lon="2.05261">
        <ele>710.4</ele>
        <time>2024-10-11T13:15:30Z</time>
      </trkpt>
      <trkpt lat="42.8262" lon="2.0527">
        <ele>710.4</ele>
        <time>2024-10-11T13:15:31Z</time>
      </trkpt>
      <trkpt lat="42.82622" lon="2.05284">
        <ele>709.4</ele>
        <time>2024-10-11T13:15:32Z</time>
      </trkpt>
      <trkpt lat="42.82622" lon="2.05288">
        <ele>710</ele>
        <time>2024-10-11T13:15:33Z</time>
      </trkpt>
      <trkpt lat="42.82624" lon="2.05302">
        <ele>710</ele>
        <time>2024-10-11T13:15:34Z</time>
      </trkpt>
      <trkpt lat="42.82624" lon="2.05306">
        <ele>710</ele>
        <time>2024-10-11T13:15:35Z</time>
      </trkpt>
      <trkpt lat="42.82626" lon="2.0532">
        <ele>710</ele>
        <time>2024-10-11T13:15:36Z</time>
      </trkpt>
      <trkpt lat="42.82627" lon="2.05324">
        <ele>709.4</ele>
        <time>2024-10-11T13:15:37Z</time>
      </trkpt>
      <trkpt lat="42.82628" lon="2.05333">
        <ele>709.4</ele>
        <time>2024-10-11T13:15:38Z</time>
      </trkpt>
      <trkpt lat="42.82631" lon="2.05346">
        <ele>709.4</ele>
        <time>2024-10-11T13:15:39Z</time>
      </trkpt>
      <trkpt lat="42.82632" lon="2.0535">
        <ele>709.4</ele>
        <time>2024-10-11T13:15:40Z</time>
      </trkpt>
      <trkpt lat="42.82635" lon="2.05359">
        <ele>709.4</ele>
        <time>2024-10-11T13:15:41Z</time>
      </trkpt>
      <trkpt lat="42.82639" lon="2.05367">
        <ele>709.4</ele>
        <time>2024-10-11T13:15:42Z</time>
      </trkpt>
      <trkpt lat="42.82643" lon="2.05374">
        <ele>709.4</ele>
        <time>2024-10-11T13:15:43Z</time>
      </trkpt>
      <trkpt lat="42.82648" lon="2.05381">
        <ele>709.4</ele>
        <time>2024-10-11T13:15:44Z</time>
      </trkpt>
      <trkpt lat="42.82653" lon="2.05387">
        <ele>708.6</ele>
        <time>2024-10-11T13:15:45Z</time>
      </trkpt>
      <trkpt lat="42.82658" lon="2.05392">
        <ele>708.4</ele>
        <time>2024-10-11T13:15:46Z</time>
      </trkpt>
      <trkpt lat="42.82664" lon="2.05397">
        <ele>708.4</ele>
        <time>2024-10-11T13:15:47Z</time>
      </trkpt>
      <trkpt lat="42.82671" lon="2.05402">
        <ele>708.4</ele>
        <time>2024-10-11T13:15:48Z</time>
      </trkpt>
      <trkpt lat="42.82677" lon="2.05405">
        <ele>708.4</ele>
        <time>2024-10-11T13:15:49Z</time>
      </trkpt>
      <trkpt lat="42.82684" lon="2.05408">
        <ele>707.6</ele>
        <time>2024-10-11T13:15:50Z</time>
      </trkpt>
      <trkpt lat="42.82691" lon="2.05411">
        <ele>707.6</ele>
        <time>2024-10-11T13:15:51Z</time>
      </trkpt>
      <trkpt lat="42.82698" lon="2.05414">
        <ele>707.6</ele>
        <time>2024-10-11T13:15:52Z</time>
      </trkpt>
      <trkpt lat="42.82706" lon="2.05416">
        <ele>707.6</ele>
        <time>2024-10-11T13:15:53Z</time>
      </trkpt>
      <trkpt lat="42.82717" lon="2.05421">
        <ele>707.6</ele>
        <time>2024-10-11T13:15:54Z</time>
      </trkpt>
      <trkpt lat="42.8272" lon="2.05422">
        <ele>707.6</ele>
        <time>2024-10-11T13:15:55Z</time>
      </trkpt>
      <trkpt lat="42.82728" lon="2.05426">
        <ele>707.6</ele>
        <time>2024-10-11T13:15:56Z</time>
      </trkpt>
      <trkpt lat="42.82735" lon="2.05431">
        <ele>707.6</ele>
        <time>2024-10-11T13:15:57Z</time>
      </trkpt>
      <trkpt lat="42.82742" lon="2.05437">
        <ele>707.6</ele>
        <time>2024-10-11T13:15:58Z</time>
      </trkpt>
      <trkpt lat="42.82748" lon="2.05444">
        <ele>706.8</ele>
        <time>2024-10-11T13:15:59Z</time>
      </trkpt>
      <trkpt lat="42.82753" lon="2.05451">
        <ele>706.8</ele>
        <time>2024-10-11T13:16:00Z</time>
      </trkpt>
      <trkpt lat="42.82758" lon="2.05459">
        <ele>706.8</ele>
        <time>2024-10-11T13:16:01Z</time>
      </trkpt>
      <trkpt lat="42.82761" lon="2.05468">
        <ele>706.8</ele>
        <time>2024-10-11T13:16:02Z</time>
      </trkpt>
      <trkpt lat="42.82764" lon="2.05477">
        <ele>706.8</ele>
        <time>2024-10-11T13:16:03Z</time>
      </trkpt>
      <trkpt lat="42.82769" lon="2.05488">
        <ele>707.2</ele>
        <time>2024-10-11T13:16:04Z</time>
      </trkpt>
      <trkpt lat="42.8277" lon="2.05493">
        <ele>707.2</ele>
        <time>2024-10-11T13:16:05Z</time>
      </trkpt>
      <trkpt lat="42.82776" lon="2.05504">
        <ele>707.2</ele>
        <time>2024-10-11T13:16:06Z</time>
      </trkpt>
      <trkpt lat="42.82779" lon="2.05507">
        <ele>707.2</ele>
        <time>2024-10-11T13:16:07Z</time>
      </trkpt>
      <trkpt lat="42.82784" lon="2.05513">
        <ele>706.4</ele>
        <time>2024-10-11T13:16:08Z</time>
      </trkpt>
      <trkpt lat="42.82793" lon="2.05516">
        <ele>706.4</ele>
        <time>2024-10-11T13:16:09Z</time>
      </trkpt>
      <trkpt lat="42.82796" lon="2.05516">
        <ele>706.4</ele>
        <time>2024-10-11T13:16:10Z</time>
      </trkpt>
      <trkpt lat="42.82804" lon="2.05513">
        <ele>706.4</ele>
        <time>2024-10-11T13:16:11Z</time>
      </trkpt>
      <trkpt lat="42.82807" lon="2.05512">
        <ele>705.8</ele>
        <time>2024-10-11T13:16:12Z</time>
      </trkpt>
      <trkpt lat="42.82812" lon="2.05508">
        <ele>706.2</ele>
        <time>2024-10-11T13:16:13Z</time>
      </trkpt>
      <trkpt lat="42.8282" lon="2.05502">
        <ele>706.2</ele>
        <time>2024-10-11T13:16:14Z</time>
      </trkpt>
      <trkpt lat="42.82823" lon="2.055">
        <ele>706.2</ele>
        <time>2024-10-11T13:16:15Z</time>
      </trkpt>
      <trkpt lat="42.82832" lon="2.05494">
        <ele>705.2</ele>
        <time>2024-10-11T13:16:16Z</time>
      </trkpt>
      <trkpt lat="42.82835" lon="2.05493">
        <ele>705.6</ele>
        <time>2024-10-11T13:16:17Z</time>
      </trkpt>
      <trkpt lat="42.82845" lon="2.05489">
        <ele>705.6</ele>
        <time>2024-10-11T13:16:18Z</time>
      </trkpt>
      <trkpt lat="42.82849" lon="2.05488">
        <ele>705.6</ele>
        <time>2024-10-11T13:16:19Z</time>
      </trkpt>
      <trkpt lat="42.82858" lon="2.05486">
        <ele>705.6</ele>
        <time>2024-10-11T13:16:20Z</time>
      </trkpt>
      <trkpt lat="42.82862" lon="2.05486">
        <ele>705</ele>
        <time>2024-10-11T13:16:21Z</time>
      </trkpt>
      <trkpt lat="42.82868" lon="2.05485">
        <ele>704.2</ele>
        <time>2024-10-11T13:16:22Z</time>
      </trkpt>
      <trkpt lat="42.82878" lon="2.05485">
        <ele>704.2</ele>
        <time>2024-10-11T13:16:23Z</time>
      </trkpt>
      <trkpt lat="42.82881" lon="2.05485">
        <ele>704.2</ele>
        <time>2024-10-11T13:16:24Z</time>
      </trkpt>
      <trkpt lat="42.82888" lon="2.05485">
        <ele>705</ele>
        <time>2024-10-11T13:16:25Z</time>
      </trkpt>
      <trkpt lat="42.82894" lon="2.05486">
        <ele>705</ele>
        <time>2024-10-11T13:16:26Z</time>
      </trkpt>
      <trkpt lat="42.829" lon="2.05486">
        <ele>704.8</ele>
        <time>2024-10-11T13:16:27Z</time>
      </trkpt>
      <trkpt lat="42.82907" lon="2.05487">
        <ele>704.8</ele>
        <time>2024-10-11T13:16:28Z</time>
      </trkpt>
      <trkpt lat="42.82914" lon="2.05488">
        <ele>704.8</ele>
        <time>2024-10-11T13:16:29Z</time>
      </trkpt>
      <trkpt lat="42.82922" lon="2.05489">
        <ele>703.6</ele>
        <time>2024-10-11T13:16:30Z</time>
      </trkpt>
      <trkpt lat="42.82929" lon="2.0549">
        <ele>703.6</ele>
        <time>2024-10-11T13:16:31Z</time>
      </trkpt>
      <trkpt lat="42.82937" lon="2.05491">
        <ele>703.6</ele>
        <time>2024-10-11T13:16:32Z</time>
      </trkpt>
      <trkpt lat="42.82945" lon="2.05492">
        <ele>703.6</ele>
        <time>2024-10-11T13:16:33Z</time>
      </trkpt>
      <trkpt lat="42.82953" lon="2.05494">
        <ele>703.6</ele>
        <time>2024-10-11T13:16:34Z</time>
      </trkpt>
      <trkpt lat="42.82961" lon="2.05496">
        <ele>702.6</ele>
        <time>2024-10-11T13:16:35Z</time>
      </trkpt>
      <trkpt lat="42.82969" lon="2.05499">
        <ele>702.6</ele>
        <time>2024-10-11T13:16:36Z</time>
      </trkpt>
      <trkpt lat="42.82977" lon="2.05503">
        <ele>702.6</ele>
        <time>2024-10-11T13:16:37Z</time>
      </trkpt>
      <trkpt lat="42.82985" lon="2.05509">
        <ele>702.6</ele>
        <time>2024-10-11T13:16:38Z</time>
      </trkpt>
      <trkpt lat="42.82992" lon="2.05516">
        <ele>702.2</ele>
        <time>2024-10-11T13:16:39Z</time>
      </trkpt>
      <trkpt lat="42.82998" lon="2.05523">
        <ele>702.2</ele>
        <time>2024-10-11T13:16:40Z</time>
      </trkpt>
      <trkpt lat="42.83003" lon="2.05532">
        <ele>702.2</ele>
        <time>2024-10-11T13:16:41Z</time>
      </trkpt>
      <trkpt lat="42.83008" lon="2.05541">
        <ele>702.2</ele>
        <time>2024-10-11T13:16:42Z</time>
      </trkpt>
      <trkpt lat="42.83012" lon="2.0555">
        <ele>701.2</ele>
        <time>2024-10-11T13:16:43Z</time>
      </trkpt>
      <trkpt lat="42.83016" lon="2.0556">
        <ele>701</ele>
        <time>2024-10-11T13:16:44Z</time>
      </trkpt>
      <trkpt lat="42.8302" lon="2.0557">
        <ele>701</ele>
        <time>2024-10-11T13:16:45Z</time>
      </trkpt>
      <trkpt lat="42.83023" lon="2.05579">
        <ele>701</ele>
        <time>2024-10-11T13:16:46Z</time>
      </trkpt>
      <trkpt lat="42.83025" lon="2.05589">
        <ele>701</ele>
        <time>2024-10-11T13:16:47Z</time>
      </trkpt>
      <trkpt lat="42.83028" lon="2.05602">
        <ele>700.8</ele>
        <time>2024-10-11T13:16:48Z</time>
      </trkpt>
      <trkpt lat="42.83029" lon="2.05607">
        <ele>700.8</ele>
        <time>2024-10-11T13:16:49Z</time>
      </trkpt>
      <trkpt lat="42.83031" lon="2.05615">
        <ele>701</ele>
        <time>2024-10-11T13:16:50Z</time>
      </trkpt>
      <trkpt lat="42.83033" lon="2.05628">
        <ele>701</ele>
        <time>2024-10-11T13:16:51Z</time>
      </trkpt>
      <trkpt lat="42.83034" lon="2.05633">
        <ele>701</ele>
        <time>2024-10-11T13:16:52Z</time>
      </trkpt>
      <trkpt lat="42.83037" lon="2.05645">
        <ele>701</ele>
        <time>2024-10-11T13:16:53Z</time>
      </trkpt>
      <trkpt lat="42.83039" lon="2.05648">
        <ele>700.6</ele>
        <time>2024-10-11T13:16:54Z</time>
      </trkpt>
      <trkpt lat="42.83044" lon="2.05658">
        <ele>700.6</ele>
        <time>2024-10-11T13:16:55Z</time>
      </trkpt>
      <trkpt lat="42.83046" lon="2.0566">
        <ele>700.6</ele>
        <time>2024-10-11T13:16:56Z</time>
      </trkpt>
      <trkpt lat="42.83053" lon="2.05667">
        <ele>700.6</ele>
        <time>2024-10-11T13:16:57Z</time>
      </trkpt>
      <trkpt lat="42.83056" lon="2.05669">
        <ele>701</ele>
        <time>2024-10-11T13:16:58Z</time>
      </trkpt>
      <trkpt lat="42.83063" lon="2.05675">
        <ele>701</ele>
        <time>2024-10-11T13:16:59Z</time>
      </trkpt>
      <trkpt lat="42.83064" lon="2.05676">
        <ele>701</ele>
        <time>2024-10-11T13:17:00Z</time>
      </trkpt>
      <trkpt lat="42.83071" lon="2.0568">
        <ele>701</ele>
        <time>2024-10-11T13:17:01Z</time>
      </trkpt>
      <trkpt lat="42.83073" lon="2.05682">
        <ele>700.2</ele>
        <time>2024-10-11T13:17:02Z</time>
      </trkpt>
      <trkpt lat="42.8308" lon="2.05682">
        <ele>700.2</ele>
        <time>2024-10-11T13:17:03Z</time>
      </trkpt>
      <trkpt lat="42.83082" lon="2.05681">
        <ele>700.2</ele>
        <time>2024-10-11T13:17:04Z</time>
      </trkpt>
      <trkpt lat="42.83086" lon="2.05681">
        <ele>700.2</ele>
        <time>2024-10-11T13:17:05Z</time>
      </trkpt>
      <trkpt lat="42.8309" lon="2.05681">
        <ele>700.2</ele>
        <time>2024-10-11T13:17:06Z</time>
      </trkpt>
      <trkpt lat="42.83093" lon="2.05679">
        <ele>700</ele>
        <time>2024-10-11T13:17:07Z</time>
      </trkpt>
      <trkpt lat="42.83094" lon="2.05678">
        <ele>700</ele>
        <time>2024-10-11T13:17:08Z</time>
      </trkpt>
      <trkpt lat="42.83095" lon="2.05678">
        <ele>700</ele>
        <time>2024-10-11T13:17:09Z</time>
      </trkpt>
      <trkpt lat="42.83095" lon="2.05678">
        <ele>699.6</ele>
        <time>2024-10-11T13:17:10Z</time>
      </trkpt>
      <trkpt lat="42.83095" lon="2.05678">
        <ele>699.8</ele>
        <time>2024-10-11T13:17:11Z</time>
      </trkpt>
      <trkpt lat="42.83091" lon="2.05671">
        <ele>700</ele>
        <time>2024-10-11T13:18:09Z</time>
      </trkpt>
      <trkpt lat="42.8309" lon="2.05673">
        <ele>700</ele>
        <time>2024-10-11T13:18:10Z</time>
      </trkpt>
      <trkpt lat="42.83088" lon="2.05673">
        <ele>700</ele>
        <time>2024-10-11T13:18:11Z</time>
      </trkpt>
      <trkpt lat="42.83084" lon="2.05676">
        <ele>700</ele>
        <time>2024-10-11T13:18:12Z</time>
      </trkpt>
      <trkpt lat="42.83082" lon="2.05677">
        <ele>700.2</ele>
        <time>2024-10-11T13:18:13Z</time>
      </trkpt>
      <trkpt lat="42.83077" lon="2.05677">
        <ele>700.4</ele>
        <time>2024-10-11T13:18:14Z</time>
      </trkpt>
      <trkpt lat="42.83076" lon="2.05676">
        <ele>700.4</ele>
        <time>2024-10-11T13:18:15Z</time>
      </trkpt>
      <trkpt lat="42.83071" lon="2.05675">
        <ele>700.4</ele>
        <time>2024-10-11T13:18:16Z</time>
      </trkpt>
      <trkpt lat="42.83069" lon="2.05674">
        <ele>700.4</ele>
        <time>2024-10-11T13:18:17Z</time>
      </trkpt>
      <trkpt lat="42.83066" lon="2.05672">
        <ele>700.4</ele>
        <time>2024-10-11T13:18:18Z</time>
      </trkpt>
      <trkpt lat="42.83061" lon="2.05668">
        <ele>700.2</ele>
        <time>2024-10-11T13:18:19Z</time>
      </trkpt>
      <trkpt lat="42.8306" lon="2.05666">
        <ele>700.2</ele>
        <time>2024-10-11T13:18:20Z</time>
      </trkpt>
      <trkpt lat="42.83055" lon="2.05661">
        <ele>700.2</ele>
        <time>2024-10-11T13:18:21Z</time>
      </trkpt>
      <trkpt lat="42.83053" lon="2.05659">
        <ele>700.8</ele>
        <time>2024-10-11T13:18:22Z</time>
      </trkpt>
      <trkpt lat="42.83049" lon="2.05653">
        <ele>700.6</ele>
        <time>2024-10-11T13:18:23Z</time>
      </trkpt>
      <trkpt lat="42.83048" lon="2.05651">
        <ele>700.6</ele>
        <time>2024-10-11T13:18:24Z</time>
      </trkpt>
      <trkpt lat="42.83045" lon="2.05644">
        <ele>700.6</ele>
        <time>2024-10-11T13:18:25Z</time>
      </trkpt>
      <trkpt lat="42.83044" lon="2.05641">
        <ele>700.4</ele>
        <time>2024-10-11T13:18:26Z</time>
      </trkpt>
      <trkpt lat="42.83041" lon="2.05632">
        <ele>700.4</ele>
        <time>2024-10-11T13:18:27Z</time>
      </trkpt>
      <trkpt lat="42.8304" lon="2.05629">
        <ele>700.8</ele>
        <time>2024-10-11T13:18:28Z</time>
      </trkpt>
      <trkpt lat="42.83037" lon="2.0562">
        <ele>700.8</ele>
        <time>2024-10-11T13:18:29Z</time>
      </trkpt>
      <trkpt lat="42.83037" lon="2.05617">
        <ele>700.8</ele>
        <time>2024-10-11T13:18:30Z</time>
      </trkpt>
      <trkpt lat="42.83035" lon="2.05607">
        <ele>700.8</ele>
        <time>2024-10-11T13:18:31Z</time>
      </trkpt>
      <trkpt lat="42.83034" lon="2.05604">
        <ele>700.8</ele>
        <time>2024-10-11T13:18:32Z</time>
      </trkpt>
      <trkpt lat="42.83032" lon="2.05598">
        <ele>700.8</ele>
        <time>2024-10-11T13:18:33Z</time>
      </trkpt>
      <trkpt lat="42.8303" lon="2.05589">
        <ele>700.8</ele>
        <time>2024-10-11T13:18:34Z</time>
      </trkpt>
      <trkpt lat="42.8303" lon="2.05586">
        <ele>700.8</ele>
        <time>2024-10-11T13:18:35Z</time>
      </trkpt>
      <trkpt lat="42.83028" lon="2.0558">
        <ele>700.8</ele>
        <time>2024-10-11T13:18:36Z</time>
      </trkpt>
      <trkpt lat="42.83027" lon="2.05573">
        <ele>700.8</ele>
        <time>2024-10-11T13:18:37Z</time>
      </trkpt>
      <trkpt lat="42.83025" lon="2.05567">
        <ele>700.8</ele>
        <time>2024-10-11T13:18:38Z</time>
      </trkpt>
      <trkpt lat="42.83022" lon="2.05561">
        <ele>700.8</ele>
        <time>2024-10-11T13:18:39Z</time>
      </trkpt>
      <trkpt lat="42.8302" lon="2.05554">
        <ele>700.8</ele>
        <time>2024-10-11T13:18:40Z</time>
      </trkpt>
      <trkpt lat="42.83017" lon="2.05548">
        <ele>701.6</ele>
        <time>2024-10-11T13:18:41Z</time>
      </trkpt>
      <trkpt lat="42.83012" lon="2.0554">
        <ele>701.6</ele>
        <time>2024-10-11T13:18:42Z</time>
      </trkpt>
      <trkpt lat="42.8301" lon="2.05537">
        <ele>701.6</ele>
        <time>2024-10-11T13:18:43Z</time>
      </trkpt>
      <trkpt lat="42.83007" lon="2.05531">
        <ele>701.6</ele>
        <time>2024-10-11T13:18:44Z</time>
      </trkpt>
      <trkpt lat="42.83003" lon="2.05526">
        <ele>701.6</ele>
        <time>2024-10-11T13:18:45Z</time>
      </trkpt>
      <trkpt lat="42.82999" lon="2.05523">
        <ele>701.6</ele>
        <time>2024-10-11T13:18:46Z</time>
      </trkpt>
      <trkpt lat="42.82994" lon="2.05518">
        <ele>701.6</ele>
        <time>2024-10-11T13:18:47Z</time>
      </trkpt>
      <trkpt lat="42.8299" lon="2.05515">
        <ele>702.6</ele>
        <time>2024-10-11T13:18:48Z</time>
      </trkpt>
      <trkpt lat="42.82985" lon="2.05512">
        <ele>702.4</ele>
        <time>2024-10-11T13:18:49Z</time>
      </trkpt>
      <trkpt lat="42.8298" lon="2.05509">
        <ele>702.4</ele>
        <time>2024-10-11T13:18:50Z</time>
      </trkpt>
      <trkpt lat="42.82976" lon="2.05507">
        <ele>702.4</ele>
        <time>2024-10-11T13:18:51Z</time>
      </trkpt>
      <trkpt lat="42.82971" lon="2.05505">
        <ele>702.4</ele>
        <time>2024-10-11T13:18:52Z</time>
      </trkpt>
      <trkpt lat="42.82966" lon="2.05504">
        <ele>702.4</ele>
        <time>2024-10-11T13:18:53Z</time>
      </trkpt>
      <trkpt lat="42.82961" lon="2.05502">
        <ele>702.8</ele>
        <time>2024-10-11T13:18:54Z</time>
      </trkpt>
      <trkpt lat="42.82956" lon="2.05501">
        <ele>702.8</ele>
        <time>2024-10-11T13:18:55Z</time>
      </trkpt>
      <trkpt lat="42.82951" lon="2.055">
        <ele>702.8</ele>
        <time>2024-10-11T13:18:56Z</time>
      </trkpt>
      <trkpt lat="42.82947" lon="2.055">
        <ele>702.8</ele>
        <time>2024-10-11T13:18:57Z</time>
      </trkpt>
      <trkpt lat="42.82942" lon="2.05499">
        <ele>702.6</ele>
        <time>2024-10-11T13:18:58Z</time>
      </trkpt>
      <trkpt lat="42.82937" lon="2.05498">
        <ele>703.4</ele>
        <time>2024-10-11T13:18:59Z</time>
      </trkpt>
      <trkpt lat="42.82931" lon="2.05497">
        <ele>703.4</ele>
        <time>2024-10-11T13:19:00Z</time>
      </trkpt>
      <trkpt lat="42.82928" lon="2.05497">
        <ele>703.4</ele>
        <time>2024-10-11T13:19:01Z</time>
      </trkpt>
      <trkpt lat="42.82922" lon="2.05496">
        <ele>703.4</ele>
        <time>2024-10-11T13:19:02Z</time>
      </trkpt>
      <trkpt lat="42.8292" lon="2.05496">
        <ele>704</ele>
        <time>2024-10-11T13:19:03Z</time>
      </trkpt>
      <trkpt lat="42.82914" lon="2.05495">
        <ele>704</ele>
        <time>2024-10-11T13:19:04Z</time>
      </trkpt>
      <trkpt lat="42.82912" lon="2.05495">
        <ele>704</ele>
        <time>2024-10-11T13:19:05Z</time>
      </trkpt>
      <trkpt lat="42.82906" lon="2.05494">
        <ele>704</ele>
        <time>2024-10-11T13:19:06Z</time>
      </trkpt>
      <trkpt lat="42.82904" lon="2.05494">
        <ele>704.4</ele>
        <time>2024-10-11T13:19:07Z</time>
      </trkpt>
      <trkpt lat="42.82898" lon="2.05493">
        <ele>704.4</ele>
        <time>2024-10-11T13:19:08Z</time>
      </trkpt>
      <trkpt lat="42.82896" lon="2.05493">
        <ele>704</ele>
        <time>2024-10-11T13:19:09Z</time>
      </trkpt>
      <trkpt lat="42.82892" lon="2.05492">
        <ele>704</ele>
        <time>2024-10-11T13:19:10Z</time>
      </trkpt>
      <trkpt lat="42.82886" lon="2.05492">
        <ele>704</ele>
        <time>2024-10-11T13:19:11Z</time>
      </trkpt>
      <trkpt lat="42.82884" lon="2.05491">
        <ele>705.4</ele>
        <time>2024-10-11T13:19:12Z</time>
      </trkpt>
      <trkpt lat="42.82877" lon="2.05491">
        <ele>705.4</ele>
        <time>2024-10-11T13:19:13Z</time>
      </trkpt>
      <trkpt lat="42.82875" lon="2.0549">
        <ele>705.4</ele>
        <time>2024-10-11T13:19:14Z</time>
      </trkpt>
      <trkpt lat="42.8287" lon="2.0549">
        <ele>705.4</ele>
        <time>2024-10-11T13:19:15Z</time>
      </trkpt>
      <trkpt lat="42.82863" lon="2.05491">
        <ele>705.4</ele>
        <time>2024-10-11T13:19:16Z</time>
      </trkpt>
      <trkpt lat="42.82861" lon="2.05491">
        <ele>705.8</ele>
        <time>2024-10-11T13:19:17Z</time>
      </trkpt>
      <trkpt lat="42.82856" lon="2.05492">
        <ele>705.8</ele>
        <time>2024-10-11T13:19:18Z</time>
      </trkpt>
      <trkpt lat="42.82851" lon="2.05493">
        <ele>705.8</ele>
        <time>2024-10-11T13:19:19Z</time>
      </trkpt>
      <trkpt lat="42.82847" lon="2.05495">
        <ele>705.8</ele>
        <time>2024-10-11T13:19:20Z</time>
      </trkpt>
      <trkpt lat="42.82842" lon="2.05496">
        <ele>705.6</ele>
        <time>2024-10-11T13:19:21Z</time>
      </trkpt>
      <trkpt lat="42.82838" lon="2.05498">
        <ele>705.6</ele>
        <time>2024-10-11T13:19:22Z</time>
      </trkpt>
      <trkpt lat="42.82833" lon="2.055">
        <ele>705.6</ele>
        <time>2024-10-11T13:19:23Z</time>
      </trkpt>
      <trkpt lat="42.82829" lon="2.05502">
        <ele>705.6</ele>
        <time>2024-10-11T13:19:24Z</time>
      </trkpt>
      <trkpt lat="42.82824" lon="2.05504">
        <ele>705.6</ele>
        <time>2024-10-11T13:19:25Z</time>
      </trkpt>
      <trkpt lat="42.82821" lon="2.05507">
        <ele>705.8</ele>
        <time>2024-10-11T13:19:26Z</time>
      </trkpt>
      <trkpt lat="42.82816" lon="2.05509">
        <ele>705.8</ele>
        <time>2024-10-11T13:19:27Z</time>
      </trkpt>
      <trkpt lat="42.82812" lon="2.05512">
        <ele>705.8</ele>
        <time>2024-10-11T13:19:28Z</time>
      </trkpt>
      <trkpt lat="42.82808" lon="2.05514">
        <ele>705.8</ele>
        <time>2024-10-11T13:19:29Z</time>
      </trkpt>
      <trkpt lat="42.82804" lon="2.05516">
        <ele>706.2</ele>
        <time>2024-10-11T13:19:30Z</time>
      </trkpt>
      <trkpt lat="42.82799" lon="2.05517">
        <ele>706.2</ele>
        <time>2024-10-11T13:19:31Z</time>
      </trkpt>
      <trkpt lat="42.82795" lon="2.05516">
        <ele>706.2</ele>
        <time>2024-10-11T13:19:32Z</time>
      </trkpt>
      <trkpt lat="42.8279" lon="2.05512">
        <ele>706.2</ele>
        <time>2024-10-11T13:19:33Z</time>
      </trkpt>
      <trkpt lat="42.82787" lon="2.05509">
        <ele>706</ele>
        <time>2024-10-11T13:19:34Z</time>
      </trkpt>
      <trkpt lat="42.82783" lon="2.05505">
        <ele>706</ele>
        <time>2024-10-11T13:19:35Z</time>
      </trkpt>
      <trkpt lat="42.8278" lon="2.05501">
        <ele>706</ele>
        <time>2024-10-11T13:19:36Z</time>
      </trkpt>
      <trkpt lat="42.82776" lon="2.05493">
        <ele>706</ele>
        <time>2024-10-11T13:19:37Z</time>
      </trkpt>
      <trkpt lat="42.82774" lon="2.0549">
        <ele>706.6</ele>
        <time>2024-10-11T13:19:38Z</time>
      </trkpt>
      <trkpt lat="42.82772" lon="2.05484">
        <ele>706.8</ele>
        <time>2024-10-11T13:19:39Z</time>
      </trkpt>
      <trkpt lat="42.8277" lon="2.05479">
        <ele>706.8</ele>
        <time>2024-10-11T13:19:40Z</time>
      </trkpt>
      <trkpt lat="42.82768" lon="2.05474">
        <ele>706.8</ele>
        <time>2024-10-11T13:19:41Z</time>
      </trkpt>
      <trkpt lat="42.82766" lon="2.05468">
        <ele>706.8</ele>
        <time>2024-10-11T13:19:42Z</time>
      </trkpt>
      <trkpt lat="42.82762" lon="2.0546">
        <ele>707</ele>
        <time>2024-10-11T13:19:43Z</time>
      </trkpt>
      <trkpt lat="42.82761" lon="2.05457">
        <ele>707</ele>
        <time>2024-10-11T13:19:44Z</time>
      </trkpt>
      <trkpt lat="42.82758" lon="2.05452">
        <ele>707.6</ele>
        <time>2024-10-11T13:19:45Z</time>
      </trkpt>
      <trkpt lat="42.82753" lon="2.05445">
        <ele>707.6</ele>
        <time>2024-10-11T13:19:46Z</time>
      </trkpt>
      <trkpt lat="42.82751" lon="2.05442">
        <ele>707.4</ele>
        <time>2024-10-11T13:19:47Z</time>
      </trkpt>
      <trkpt lat="42.82747" lon="2.05438">
        <ele>707.6</ele>
        <time>2024-10-11T13:19:48Z</time>
      </trkpt>
      <trkpt lat="42.82743" lon="2.05434">
        <ele>707.6</ele>
        <time>2024-10-11T13:19:49Z</time>
      </trkpt>
      <trkpt lat="42.82739" lon="2.0543">
        <ele>707.6</ele>
        <time>2024-10-11T13:19:50Z</time>
      </trkpt>
      <trkpt lat="42.82731" lon="2.05426">
        <ele>707.6</ele>
        <time>2024-10-11T13:19:51Z</time>
      </trkpt>
      <trkpt lat="42.82729" lon="2.05425">
        <ele>707.6</ele>
        <time>2024-10-11T13:19:52Z</time>
      </trkpt>
      <trkpt lat="42.82724" lon="2.05423">
        <ele>707.2</ele>
        <time>2024-10-11T13:19:53Z</time>
      </trkpt>
      <trkpt lat="42.82717" lon="2.05419">
        <ele>707.2</ele>
        <time>2024-10-11T13:19:54Z</time>
      </trkpt>
      <trkpt lat="42.82715" lon="2.05418">
        <ele>707.2</ele>
        <time>2024-10-11T13:19:55Z</time>
      </trkpt>
      <trkpt lat="42.82708" lon="2.05416">
        <ele>707.2</ele>
        <time>2024-10-11T13:19:56Z</time>
      </trkpt>
      <trkpt lat="42.82705" lon="2.05415">
        <ele>708</ele>
        <time>2024-10-11T13:19:57Z</time>
      </trkpt>
      <trkpt lat="42.82698" lon="2.05412">
        <ele>708</ele>
        <time>2024-10-11T13:19:58Z</time>
      </trkpt>
      <trkpt lat="42.82696" lon="2.05411">
        <ele>708</ele>
        <time>2024-10-11T13:19:59Z</time>
      </trkpt>
      <trkpt lat="42.82691" lon="2.05409">
        <ele>708</ele>
        <time>2024-10-11T13:20:00Z</time>
      </trkpt>
      <trkpt lat="42.82684" lon="2.05406">
        <ele>708</ele>
        <time>2024-10-11T13:20:01Z</time>
      </trkpt>
      <trkpt lat="42.82682" lon="2.05405">
        <ele>708.6</ele>
        <time>2024-10-11T13:20:02Z</time>
      </trkpt>
      <trkpt lat="42.82678" lon="2.05403">
        <ele>708.6</ele>
        <time>2024-10-11T13:20:03Z</time>
      </trkpt>
      <trkpt lat="42.82673" lon="2.05401">
        <ele>708.6</ele>
        <time>2024-10-11T13:20:04Z</time>
      </trkpt>
      <trkpt lat="42.82669" lon="2.05399">
        <ele>708.6</ele>
        <time>2024-10-11T13:20:05Z</time>
      </trkpt>
      <trkpt lat="42.82665" lon="2.05396">
        <ele>707.6</ele>
        <time>2024-10-11T13:20:06Z</time>
      </trkpt>
      <trkpt lat="42.82661" lon="2.05393">
        <ele>707.6</ele>
        <time>2024-10-11T13:20:07Z</time>
      </trkpt>
      <trkpt lat="42.82657" lon="2.05389">
        <ele>707.6</ele>
        <time>2024-10-11T13:20:08Z</time>
      </trkpt>
      <trkpt lat="42.82653" lon="2.05385">
        <ele>708.4</ele>
        <time>2024-10-11T13:20:09Z</time>
      </trkpt>
      <trkpt lat="42.8265" lon="2.05381">
        <ele>707.8</ele>
        <time>2024-10-11T13:20:10Z</time>
      </trkpt>
      <trkpt lat="42.82647" lon="2.05377">
        <ele>707.8</ele>
        <time>2024-10-11T13:20:11Z</time>
      </trkpt>
      <trkpt lat="42.82644" lon="2.05372">
        <ele>707.8</ele>
        <time>2024-10-11T13:20:12Z</time>
      </trkpt>
      <trkpt lat="42.82642" lon="2.05367">
        <ele>707.8</ele>
        <time>2024-10-11T13:20:13Z</time>
      </trkpt>
      <trkpt lat="42.82639" lon="2.05362">
        <ele>708.8</ele>
        <time>2024-10-11T13:20:14Z</time>
      </trkpt>
      <trkpt lat="42.82637" lon="2.05357">
        <ele>709.6</ele>
        <time>2024-10-11T13:20:15Z</time>
      </trkpt>
      <trkpt lat="42.82636" lon="2.05351">
        <ele>709.6</ele>
        <time>2024-10-11T13:20:16Z</time>
      </trkpt>
      <trkpt lat="42.82634" lon="2.05346">
        <ele>709.6</ele>
        <time>2024-10-11T13:20:17Z</time>
      </trkpt>
      <trkpt lat="42.82633" lon="2.0534">
        <ele>709.6</ele>
        <time>2024-10-11T13:20:18Z</time>
      </trkpt>
      <trkpt lat="42.82632" lon="2.05335">
        <ele>709.2</ele>
        <time>2024-10-11T13:20:19Z</time>
      </trkpt>
      <trkpt lat="42.82631" lon="2.05329">
        <ele>709.2</ele>
        <time>2024-10-11T13:20:20Z</time>
      </trkpt>
      <trkpt lat="42.8263" lon="2.05324">
        <ele>709.2</ele>
        <time>2024-10-11T13:20:21Z</time>
      </trkpt>
      <trkpt lat="42.82629" lon="2.05317">
        <ele>710.2</ele>
        <time>2024-10-11T13:20:22Z</time>
      </trkpt>
      <trkpt lat="42.82628" lon="2.05311">
        <ele>710.2</ele>
        <time>2024-10-11T13:20:23Z</time>
      </trkpt>
      <trkpt lat="42.82627" lon="2.05305">
        <ele>709.8</ele>
        <time>2024-10-11T13:20:24Z</time>
      </trkpt>
      <trkpt lat="42.82626" lon="2.05296">
        <ele>709.8</ele>
        <time>2024-10-11T13:20:25Z</time>
      </trkpt>
      <trkpt lat="42.82626" lon="2.05293">
        <ele>709.8</ele>
        <time>2024-10-11T13:20:26Z</time>
      </trkpt>
      <trkpt lat="42.82625" lon="2.05283">
        <ele>709.8</ele>
        <time>2024-10-11T13:20:27Z</time>
      </trkpt>
      <trkpt lat="42.82624" lon="2.0528">
        <ele>710.4</ele>
        <time>2024-10-11T13:20:28Z</time>
      </trkpt>
      <trkpt lat="42.82623" lon="2.05273">
        <ele>710.6</ele>
        <time>2024-10-11T13:20:29Z</time>
      </trkpt>
      <trkpt lat="42.82623" lon="2.05263">
        <ele>710.6</ele>
        <time>2024-10-11T13:20:30Z</time>
      </trkpt>
      <trkpt lat="42.82622" lon="2.0526">
        <ele>710.6</ele>
        <time>2024-10-11T13:20:31Z</time>
      </trkpt>
      <trkpt lat="42.82622" lon="2.0525">
        <ele>710.6</ele>
        <time>2024-10-11T13:20:32Z</time>
      </trkpt>
      <trkpt lat="42.82621" lon="2.05247">
        <ele>710.4</ele>
        <time>2024-10-11T13:20:33Z</time>
      </trkpt>
      <trkpt lat="42.82621" lon="2.05237">
        <ele>710.4</ele>
        <time>2024-10-11T13:20:34Z</time>
      </trkpt>
      <trkpt lat="42.82621" lon="2.05233">
        <ele>710.4</ele>
        <time>2024-10-11T13:20:35Z</time>
      </trkpt>
      <trkpt lat="42.8262" lon="2.05223">
        <ele>710.4</ele>
        <time>2024-10-11T13:20:36Z</time>
      </trkpt>
      <trkpt lat="42.82619" lon="2.0522">
        <ele>710.2</ele>
        <time>2024-10-11T13:20:37Z</time>
      </trkpt>
      <trkpt lat="42.82618" lon="2.0521">
        <ele>710.2</ele>
        <time>2024-10-11T13:20:38Z</time>
      </trkpt>
      <trkpt lat="42.82618" lon="2.05206">
        <ele>710.2</ele>
        <time>2024-10-11T13:20:39Z</time>
      </trkpt>
      <trkpt lat="42.82617" lon="2.05197">
        <ele>710.2</ele>
        <time>2024-10-11T13:20:40Z</time>
      </trkpt>
      <trkpt lat="42.82617" lon="2.05193">
        <ele>710.4</ele>
        <time>2024-10-11T13:20:41Z</time>
      </trkpt>
      <trkpt lat="42.82616" lon="2.05184">
        <ele>710.6</ele>
        <time>2024-10-11T13:20:42Z</time>
      </trkpt>
      <trkpt lat="42.82615" lon="2.05181">
        <ele>710.6</ele>
        <time>2024-10-11T13:20:43Z</time>
      </trkpt>
      <trkpt lat="42.82614" lon="2.05175">
        <ele>710.6</ele>
        <time>2024-10-11T13:20:44Z</time>
      </trkpt>
      <trkpt lat="42.82613" lon="2.05165">
        <ele>711</ele>
        <time>2024-10-11T13:20:45Z</time>
      </trkpt>
      <trkpt lat="42.82613" lon="2.05162">
        <ele>711.2</ele>
        <time>2024-10-11T13:20:46Z</time>
      </trkpt>
      <trkpt lat="42.82612" lon="2.05156">
        <ele>711.2</ele>
        <time>2024-10-11T13:20:47Z</time>
      </trkpt>
      <trkpt lat="42.82612" lon="2.05149">
        <ele>711.2</ele>
        <time>2024-10-11T13:20:48Z</time>
      </trkpt>
      <trkpt lat="42.82612" lon="2.05143">
        <ele>711.2</ele>
        <time>2024-10-11T13:20:49Z</time>
      </trkpt>
      <trkpt lat="42.82611" lon="2.05136">
        <ele>711.2</ele>
        <time>2024-10-11T13:20:50Z</time>
      </trkpt>
      <trkpt lat="42.82611" lon="2.05129">
        <ele>711</ele>
        <time>2024-10-11T13:20:51Z</time>
      </trkpt>
      <trkpt lat="42.8261" lon="2.05123">
        <ele>711</ele>
        <time>2024-10-11T13:20:52Z</time>
      </trkpt>
      <trkpt lat="42.82609" lon="2.05113">
        <ele>711</ele>
        <time>2024-10-11T13:20:53Z</time>
      </trkpt>
      <trkpt lat="42.82609" lon="2.0511">
        <ele>711.4</ele>
        <time>2024-10-11T13:20:54Z</time>
      </trkpt>
      <trkpt lat="42.82608" lon="2.05104">
        <ele>711.4</ele>
        <time>2024-10-11T13:20:55Z</time>
      </trkpt>
      <trkpt lat="42.82607" lon="2.05097">
        <ele>711.4</ele>
        <time>2024-10-11T13:20:56Z</time>
      </trkpt>
      <trkpt lat="42.82607" lon="2.05091">
        <ele>711.4</ele>
        <time>2024-10-11T13:20:57Z</time>
      </trkpt>
      <trkpt lat="42.82606" lon="2.05084">
        <ele>711.8</ele>
        <time>2024-10-11T13:20:58Z</time>
      </trkpt>
      <trkpt lat="42.82605" lon="2.05078">
        <ele>712</ele>
        <time>2024-10-11T13:20:59Z</time>
      </trkpt>
      <trkpt lat="42.82605" lon="2.05071">
        <ele>712</ele>
        <time>2024-10-11T13:21:00Z</time>
      </trkpt>
      <trkpt lat="42.82605" lon="2.05065">
        <ele>712</ele>
        <time>2024-10-11T13:21:01Z</time>
      </trkpt>
      <trkpt lat="42.82604" lon="2.05058">
        <ele>711.8</ele>
        <time>2024-10-11T13:21:02Z</time>
      </trkpt>
      <trkpt lat="42.82603" lon="2.05052">
        <ele>711.8</ele>
        <time>2024-10-11T13:21:03Z</time>
      </trkpt>
      <trkpt lat="42.82602" lon="2.05046">
        <ele>711.6</ele>
        <time>2024-10-11T13:21:04Z</time>
      </trkpt>
      <trkpt lat="42.82602" lon="2.05039">
        <ele>711.6</ele>
        <time>2024-10-11T13:21:05Z</time>
      </trkpt>
      <trkpt lat="42.82601" lon="2.05033">
        <ele>711.6</ele>
        <time>2024-10-11T13:21:06Z</time>
      </trkpt>
      <trkpt lat="42.826" lon="2.05026">
        <ele>711.6</ele>
        <time>2024-10-11T13:21:07Z</time>
      </trkpt>
      <trkpt lat="42.82599" lon="2.0502">
        <ele>711.8</ele>
        <time>2024-10-11T13:21:08Z</time>
      </trkpt>
      <trkpt lat="42.82598" lon="2.0501">
        <ele>712</ele>
        <time>2024-10-11T13:21:09Z</time>
      </trkpt>
      <trkpt lat="42.82598" lon="2.05007">
        <ele>712</ele>
        <time>2024-10-11T13:21:10Z</time>
      </trkpt>
      <trkpt lat="42.82597" lon="2.04998">
        <ele>712</ele>
        <time>2024-10-11T13:21:11Z</time>
      </trkpt>
      <trkpt lat="42.82597" lon="2.04994">
        <ele>711.8</ele>
        <time>2024-10-11T13:21:12Z</time>
      </trkpt>
      <trkpt lat="42.82595" lon="2.04985">
        <ele>711.8</ele>
        <time>2024-10-11T13:21:13Z</time>
      </trkpt>
      <trkpt lat="42.82595" lon="2.04982">
        <ele>711.8</ele>
        <time>2024-10-11T13:21:14Z</time>
      </trkpt>
      <trkpt lat="42.82594" lon="2.04972">
        <ele>711.8</ele>
        <time>2024-10-11T13:21:15Z</time>
      </trkpt>
      <trkpt lat="42.82594" lon="2.04969">
        <ele>711.8</ele>
        <time>2024-10-11T13:21:16Z</time>
      </trkpt>
      <trkpt lat="42.82593" lon="2.04959">
        <ele>712.2</ele>
        <time>2024-10-11T13:21:17Z</time>
      </trkpt>
      <trkpt lat="42.82593" lon="2.04955">
        <ele>712.2</ele>
        <time>2024-10-11T13:21:18Z</time>
      </trkpt>
      <trkpt lat="42.82593" lon="2.04949">
        <ele>712.2</ele>
        <time>2024-10-11T13:21:19Z</time>
      </trkpt>
      <trkpt lat="42.82592" lon="2.0494">
        <ele>712.2</ele>
        <time>2024-10-11T13:21:20Z</time>
      </trkpt>
      <trkpt lat="42.82592" lon="2.04936">
        <ele>712.4</ele>
        <time>2024-10-11T13:21:21Z</time>
      </trkpt>
      <trkpt lat="42.82591" lon="2.04927">
        <ele>712.4</ele>
        <time>2024-10-11T13:21:22Z</time>
      </trkpt>
      <trkpt lat="42.82591" lon="2.04924">
        <ele>712.6</ele>
        <time>2024-10-11T13:21:23Z</time>
      </trkpt>
      <trkpt lat="42.8259" lon="2.04915">
        <ele>712.6</ele>
        <time>2024-10-11T13:21:24Z</time>
      </trkpt>
      <trkpt lat="42.82589" lon="2.04912">
        <ele>712.6</ele>
        <time>2024-10-11T13:21:25Z</time>
      </trkpt>
      <trkpt lat="42.82589" lon="2.04905">
        <ele>712.6</ele>
        <time>2024-10-11T13:21:26Z</time>
      </trkpt>
      <trkpt lat="42.82588" lon="2.04896">
        <ele>712.8</ele>
        <time>2024-10-11T13:21:27Z</time>
      </trkpt>
      <trkpt lat="42.82588" lon="2.04893">
        <ele>712.8</ele>
        <time>2024-10-11T13:21:28Z</time>
      </trkpt>
      <trkpt lat="42.82588" lon="2.04887">
        <ele>712.8</ele>
        <time>2024-10-11T13:21:29Z</time>
      </trkpt>
      <trkpt lat="42.82587" lon="2.04881">
        <ele>713.6</ele>
        <time>2024-10-11T13:21:30Z</time>
      </trkpt>
      <trkpt lat="42.82586" lon="2.04875">
        <ele>714</ele>
        <time>2024-10-11T13:21:31Z</time>
      </trkpt>
      <trkpt lat="42.82584" lon="2.04869">
        <ele>714</ele>
        <time>2024-10-11T13:21:32Z</time>
      </trkpt>
      <trkpt lat="42.82583" lon="2.04864">
        <ele>714</ele>
        <time>2024-10-11T13:21:33Z</time>
      </trkpt>
      <trkpt lat="42.82581" lon="2.04858">
        <ele>714</ele>
        <time>2024-10-11T13:21:34Z</time>
      </trkpt>
      <trkpt lat="42.82579" lon="2.04853">
        <ele>714.4</ele>
        <time>2024-10-11T13:21:35Z</time>
      </trkpt>
      <trkpt lat="42.82577" lon="2.04848">
        <ele>714.4</ele>
        <time>2024-10-11T13:21:36Z</time>
      </trkpt>
      <trkpt lat="42.82575" lon="2.04844">
        <ele>714.4</ele>
        <time>2024-10-11T13:21:37Z</time>
      </trkpt>
      <trkpt lat="42.82572" lon="2.04839">
        <ele>714.4</ele>
        <time>2024-10-11T13:21:38Z</time>
      </trkpt>
      <trkpt lat="42.8257" lon="2.04835">
        <ele>714.4</ele>
        <time>2024-10-11T13:21:39Z</time>
      </trkpt>
      <trkpt lat="42.82568" lon="2.0483">
        <ele>714.8</ele>
        <time>2024-10-11T13:21:40Z</time>
      </trkpt>
      <trkpt lat="42.82566" lon="2.04825">
        <ele>714.8</ele>
        <time>2024-10-11T13:21:41Z</time>
      </trkpt>
      <trkpt lat="42.82563" lon="2.0482">
        <ele>714.8</ele>
        <time>2024-10-11T13:21:42Z</time>
      </trkpt>
      <trkpt lat="42.82561" lon="2.04815">
        <ele>714.8</ele>
        <time>2024-10-11T13:21:43Z</time>
      </trkpt>
      <trkpt lat="42.82558" lon="2.0481">
        <ele>715</ele>
        <time>2024-10-11T13:21:44Z</time>
      </trkpt>
      <trkpt lat="42.82555" lon="2.04805">
        <ele>715</ele>
        <time>2024-10-11T13:21:45Z</time>
      </trkpt>
      <trkpt lat="42.82552" lon="2.048">
        <ele>715</ele>
        <time>2024-10-11T13:21:46Z</time>
      </trkpt>
      <trkpt lat="42.8255" lon="2.04795">
        <ele>715</ele>
        <time>2024-10-11T13:21:47Z</time>
      </trkpt>
      <trkpt lat="42.82547" lon="2.0479">
        <ele>715</ele>
        <time>2024-10-11T13:21:48Z</time>
      </trkpt>
      <trkpt lat="42.82544" lon="2.04785">
        <ele>715.6</ele>
        <time>2024-10-11T13:21:49Z</time>
      </trkpt>
      <trkpt lat="42.8254" lon="2.04777">
        <ele>715.6</ele>
        <time>2024-10-11T13:21:50Z</time>
      </trkpt>
      <trkpt lat="42.82538" lon="2.04775">
        <ele>715.6</ele>
        <time>2024-10-11T13:21:51Z</time>
      </trkpt>
      <trkpt lat="42.82534" lon="2.04767">
        <ele>715.6</ele>
        <time>2024-10-11T13:21:52Z</time>
      </trkpt>
      <trkpt lat="42.82533" lon="2.04764">
        <ele>715.6</ele>
        <time>2024-10-11T13:21:53Z</time>
      </trkpt>
      <trkpt lat="42.82529" lon="2.04756">
        <ele>716</ele>
        <time>2024-10-11T13:21:54Z</time>
      </trkpt>
      <trkpt lat="42.82528" lon="2.04753">
        <ele>716</ele>
        <time>2024-10-11T13:21:55Z</time>
      </trkpt>
      <trkpt lat="42.82527" lon="2.04747">
        <ele>716</ele>
        <time>2024-10-11T13:21:56Z</time>
      </trkpt>
      <trkpt lat="42.82525" lon="2.04738">
        <ele>716</ele>
        <time>2024-10-11T13:21:57Z</time>
      </trkpt>
      <trkpt lat="42.82525" lon="2.04735">
        <ele>716.2</ele>
        <time>2024-10-11T13:21:58Z</time>
      </trkpt>
      <trkpt lat="42.82523" lon="2.04726">
        <ele>716.2</ele>
        <time>2024-10-11T13:21:59Z</time>
      </trkpt>
      <trkpt lat="42.82523" lon="2.04722">
        <ele>716.2</ele>
        <time>2024-10-11T13:22:00Z</time>
      </trkpt>
      <trkpt lat="42.82522" lon="2.04713">
        <ele>716.2</ele>
        <time>2024-10-11T13:22:01Z</time>
      </trkpt>
      <trkpt lat="42.82522" lon="2.0471">
        <ele>716.8</ele>
        <time>2024-10-11T13:22:02Z</time>
      </trkpt>
      <trkpt lat="42.82522" lon="2.04703">
        <ele>717.2</ele>
        <time>2024-10-11T13:22:03Z</time>
      </trkpt>
      <trkpt lat="42.82521" lon="2.04694">
        <ele>717.2</ele>
        <time>2024-10-11T13:22:04Z</time>
      </trkpt>
      <trkpt lat="42.82521" lon="2.04691">
        <ele>717.2</ele>
        <time>2024-10-11T13:22:05Z</time>
      </trkpt>
      <trkpt lat="42.82521" lon="2.04681">
        <ele>717.2</ele>
        <time>2024-10-11T13:22:06Z</time>
      </trkpt>
      <trkpt lat="42.82521" lon="2.04678">
        <ele>717.2</ele>
        <time>2024-10-11T13:22:07Z</time>
      </trkpt>
      <trkpt lat="42.82521" lon="2.04668">
        <ele>717.2</ele>
        <time>2024-10-11T13:22:08Z</time>
      </trkpt>
      <trkpt lat="42.82521" lon="2.04664">
        <ele>717.2</ele>
        <time>2024-10-11T13:22:09Z</time>
      </trkpt>
      <trkpt lat="42.8252" lon="2.04658">
        <ele>717.2</ele>
        <time>2024-10-11T13:22:10Z</time>
      </trkpt>
      <trkpt lat="42.8252" lon="2.04647">
        <ele>717.2</ele>
        <time>2024-10-11T13:22:11Z</time>
      </trkpt>
      <trkpt lat="42.8252" lon="2.04644">
        <ele>717.4</ele>
        <time>2024-10-11T13:22:12Z</time>
      </trkpt>
      <trkpt lat="42.82519" lon="2.04634">
        <ele>717.4</ele>
        <time>2024-10-11T13:22:13Z</time>
      </trkpt>
      <trkpt lat="42.82519" lon="2.0463">
        <ele>717.4</ele>
        <time>2024-10-11T13:22:14Z</time>
      </trkpt>
      <trkpt lat="42.82518" lon="2.04623">
        <ele>717.4</ele>
        <time>2024-10-11T13:22:15Z</time>
      </trkpt>
      <trkpt lat="42.82519" lon="2.04617">
        <ele>716.4</ele>
        <time>2024-10-11T13:22:16Z</time>
      </trkpt>
      <trkpt lat="42.82518" lon="2.0461">
        <ele>716.4</ele>
        <time>2024-10-11T13:22:17Z</time>
      </trkpt>
      <trkpt lat="42.82517" lon="2.04605">
        <ele>716.4</ele>
        <time>2024-10-11T13:22:18Z</time>
      </trkpt>
      <trkpt lat="42.82517" lon="2.04599">
        <ele>717.4</ele>
        <time>2024-10-11T13:22:19Z</time>
      </trkpt>
      <trkpt lat="42.82516" lon="2.04592">
        <ele>718.8</ele>
        <time>2024-10-11T13:22:20Z</time>
      </trkpt>
      <trkpt lat="42.82517" lon="2.04586">
        <ele>718.8</ele>
        <time>2024-10-11T13:22:21Z</time>
      </trkpt>
      <trkpt lat="42.82517" lon="2.0458">
        <ele>718.8</ele>
        <time>2024-10-11T13:22:22Z</time>
      </trkpt>
      <trkpt lat="42.82517" lon="2.04574">
        <ele>718.8</ele>
        <time>2024-10-11T13:22:23Z</time>
      </trkpt>
      <trkpt lat="42.82517" lon="2.04569">
        <ele>718.8</ele>
        <time>2024-10-11T13:22:24Z</time>
      </trkpt>
      <trkpt lat="42.82516" lon="2.04563">
        <ele>719.2</ele>
        <time>2024-10-11T13:22:25Z</time>
      </trkpt>
      <trkpt lat="42.82516" lon="2.04557">
        <ele>719.2</ele>
        <time>2024-10-11T13:22:26Z</time>
      </trkpt>
      <trkpt lat="42.82517" lon="2.04552">
        <ele>719.2</ele>
        <time>2024-10-11T13:22:27Z</time>
      </trkpt>
      <trkpt lat="42.82517" lon="2.04546">
        <ele>719.8</ele>
        <time>2024-10-11T13:22:28Z</time>
      </trkpt>
      <trkpt lat="42.82517" lon="2.04541">
        <ele>720.4</ele>
        <time>2024-10-11T13:22:29Z</time>
      </trkpt>
      <trkpt lat="42.82517" lon="2.04536">
        <ele>720.4</ele>
        <time>2024-10-11T13:22:30Z</time>
      </trkpt>
      <trkpt lat="42.82516" lon="2.04531">
        <ele>720.4</ele>
        <time>2024-10-11T13:22:31Z</time>
      </trkpt>
      <trkpt lat="42.82515" lon="2.04524">
        <ele>720.4</ele>
        <time>2024-10-11T13:22:32Z</time>
      </trkpt>
      <trkpt lat="42.82515" lon="2.04522">
        <ele>720.4</ele>
        <time>2024-10-11T13:22:33Z</time>
      </trkpt>
      <trkpt lat="42.82515" lon="2.04515">
        <ele>720.6</ele>
        <time>2024-10-11T13:22:34Z</time>
      </trkpt>
      <trkpt lat="42.82515" lon="2.04513">
        <ele>720.6</ele>
        <time>2024-10-11T13:22:35Z</time>
      </trkpt>
      <trkpt lat="42.82515" lon="2.04506">
        <ele>720.6</ele>
        <time>2024-10-11T13:22:36Z</time>
      </trkpt>
      <trkpt lat="42.82515" lon="2.04504">
        <ele>720.6</ele>
        <time>2024-10-11T13:22:37Z</time>
      </trkpt>
      <trkpt lat="42.82514" lon="2.045">
        <ele>721</ele>
        <time>2024-10-11T13:22:38Z</time>
      </trkpt>
      <trkpt lat="42.82514" lon="2.04493">
        <ele>721.2</ele>
        <time>2024-10-11T13:22:39Z</time>
      </trkpt>
      <trkpt lat="42.82514" lon="2.04492">
        <ele>721.2</ele>
        <time>2024-10-11T13:22:40Z</time>
      </trkpt>
      <trkpt lat="42.82514" lon="2.04486">
        <ele>721.2</ele>
        <time>2024-10-11T13:22:41Z</time>
      </trkpt>
      <trkpt lat="42.82514" lon="2.04484">
        <ele>721.8</ele>
        <time>2024-10-11T13:22:42Z</time>
      </trkpt>
      <trkpt lat="42.82514" lon="2.04478">
        <ele>721.8</ele>
        <time>2024-10-11T13:22:43Z</time>
      </trkpt>
      <trkpt lat="42.82514" lon="2.04476">
        <ele>721.8</ele>
        <time>2024-10-11T13:22:44Z</time>
      </trkpt>
      <trkpt lat="42.82514" lon="2.04472">
        <ele>721.8</ele>
        <time>2024-10-11T13:22:45Z</time>
      </trkpt>
      <trkpt lat="42.82513" lon="2.04466">
        <ele>721.8</ele>
        <time>2024-10-11T13:22:46Z</time>
      </trkpt>
      <trkpt lat="42.82513" lon="2.04464">
        <ele>722.6</ele>
        <time>2024-10-11T13:22:47Z</time>
      </trkpt>
      <trkpt lat="42.82513" lon="2.04457">
        <ele>722.6</ele>
        <time>2024-10-11T13:22:48Z</time>
      </trkpt>
      <trkpt lat="42.82512" lon="2.04455">
        <ele>722.6</ele>
        <time>2024-10-11T13:22:49Z</time>
      </trkpt>
      <trkpt lat="42.82512" lon="2.04449">
        <ele>722.6</ele>
        <time>2024-10-11T13:22:50Z</time>
      </trkpt>
      <trkpt lat="42.82511" lon="2.04447">
        <ele>722.8</ele>
        <time>2024-10-11T13:22:51Z</time>
      </trkpt>
      <trkpt lat="42.82511" lon="2.04443">
        <ele>723</ele>
        <time>2024-10-11T13:22:52Z</time>
      </trkpt>
      <trkpt lat="42.8251" lon="2.04436">
        <ele>723</ele>
        <time>2024-10-11T13:22:53Z</time>
      </trkpt>
      <trkpt lat="42.82509" lon="2.04434">
        <ele>723</ele>
        <time>2024-10-11T13:22:54Z</time>
      </trkpt>
      <trkpt lat="42.82508" lon="2.0443">
        <ele>723</ele>
        <time>2024-10-11T13:22:55Z</time>
      </trkpt>
      <trkpt lat="42.82507" lon="2.04426">
        <ele>723.6</ele>
        <time>2024-10-11T13:22:56Z</time>
      </trkpt>
      <trkpt lat="42.82506" lon="2.04422">
        <ele>723.6</ele>
        <time>2024-10-11T13:22:57Z</time>
      </trkpt>
      <trkpt lat="42.82507" lon="2.04418">
        <ele>723.6</ele>
        <time>2024-10-11T13:22:58Z</time>
      </trkpt>
      <trkpt lat="42.82509" lon="2.04416">
        <ele>723.6</ele>
        <time>2024-10-11T13:22:59Z</time>
      </trkpt>
      <trkpt lat="42.82511" lon="2.04416">
        <ele>724.4</ele>
        <time>2024-10-11T13:23:00Z</time>
      </trkpt>
      <trkpt lat="42.82513" lon="2.04418">
        <ele>724.4</ele>
        <time>2024-10-11T13:23:01Z</time>
      </trkpt>
      <trkpt lat="42.82514" lon="2.04421">
        <ele>724.4</ele>
        <time>2024-10-11T13:23:02Z</time>
      </trkpt>
      <trkpt lat="42.82515" lon="2.04423">
        <ele>724.4</ele>
        <time>2024-10-11T13:23:03Z</time>
      </trkpt>
      <trkpt lat="42.82515" lon="2.04428">
        <ele>725</ele>
        <time>2024-10-11T13:23:04Z</time>
      </trkpt>
      <trkpt lat="42.82515" lon="2.0443">
        <ele>725.2</ele>
        <time>2024-10-11T13:23:05Z</time>
      </trkpt>
      <trkpt lat="42.82516" lon="2.04432">
        <ele>725.2</ele>
        <time>2024-10-11T13:23:06Z</time>
      </trkpt>
      <trkpt lat="42.82516" lon="2.04433">
        <ele>725.2</ele>
        <time>2024-10-11T13:23:07Z</time>
      </trkpt>
      <trkpt lat="42.82516" lon="2.04433">
        <ele>725.2</ele>
        <time>2024-10-11T13:23:08Z</time>
      </trkpt>
      <trkpt lat="42.82516" lon="2.04433">
        <ele>725.2</ele>
        <time>2024-10-11T13:23:09Z</time>
      </trkpt>
      <trkpt lat="42.82515" lon="2.04428">
        <ele>724.8</ele>
        <time>2024-10-11T13:24:33Z</time>
      </trkpt>
      <trkpt lat="42.82514" lon="2.04425">
        <ele>724.6</ele>
        <time>2024-10-11T13:24:34Z</time>
      </trkpt>
      <trkpt lat="42.82514" lon="2.04423">
        <ele>724.6</ele>
        <time>2024-10-11T13:24:35Z</time>
      </trkpt>
      <trkpt lat="42.82513" lon="2.0442">
        <ele>724.6</ele>
        <time>2024-10-11T13:24:36Z</time>
      </trkpt>
      <trkpt lat="42.82511" lon="2.04416">
        <ele>724.6</ele>
        <time>2024-10-11T13:24:37Z</time>
      </trkpt>
      <trkpt lat="42.8251" lon="2.04412">
        <ele>724.6</ele>
        <time>2024-10-11T13:24:38Z</time>
      </trkpt>
      <trkpt lat="42.82507" lon="2.04407">
        <ele>723.8</ele>
        <time>2024-10-11T13:24:39Z</time>
      </trkpt>
      <trkpt lat="42.82504" lon="2.04403">
        <ele>723.8</ele>
        <time>2024-10-11T13:24:40Z</time>
      </trkpt>
      <trkpt lat="42.82502" lon="2.04398">
        <ele>723.8</ele>
        <time>2024-10-11T13:24:41Z</time>
      </trkpt>
      <trkpt lat="42.825" lon="2.04392">
        <ele>723.8</ele>
        <time>2024-10-11T13:24:42Z</time>
      </trkpt>
      <trkpt lat="42.82497" lon="2.04387">
        <ele>723.8</ele>
        <time>2024-10-11T13:24:43Z</time>
      </trkpt>
      <trkpt lat="42.82494" lon="2.04379">
        <ele>724.2</ele>
        <time>2024-10-11T13:24:44Z</time>
      </trkpt>
      <trkpt lat="42.82493" lon="2.04376">
        <ele>724.2</ele>
        <time>2024-10-11T13:24:45Z</time>
      </trkpt>
      <trkpt lat="42.82489" lon="2.04368">
        <ele>724.2</ele>
        <time>2024-10-11T13:24:46Z</time>
      </trkpt>
      <trkpt lat="42.82488" lon="2.04365">
        <ele>724.2</ele>
        <time>2024-10-11T13:24:47Z</time>
      </trkpt>
      <trkpt lat="42.82485" lon="2.04361">
        <ele>724.2</ele>
        <time>2024-10-11T13:24:48Z</time>
      </trkpt>
      <trkpt lat="42.82482" lon="2.04356">
        <ele>724.2</ele>
        <time>2024-10-11T13:24:49Z</time>
      </trkpt>
      <trkpt lat="42.82479" lon="2.0435">
        <ele>724.2</ele>
        <time>2024-10-11T13:24:50Z</time>
      </trkpt>
      <trkpt lat="42.82477" lon="2.04344">
        <ele>724.2</ele>
        <time>2024-10-11T13:24:51Z</time>
      </trkpt>
      <trkpt lat="42.82472" lon="2.04336">
        <ele>724.2</ele>
        <time>2024-10-11T13:24:52Z</time>
      </trkpt>
      <trkpt lat="42.82471" lon="2.04334">
        <ele>724.2</ele>
        <time>2024-10-11T13:24:53Z</time>
      </trkpt>
      <trkpt lat="42.82468" lon="2.04329">
        <ele>724.2</ele>
        <time>2024-10-11T13:24:54Z</time>
      </trkpt>
      <trkpt lat="42.82464" lon="2.04321">
        <ele>724.2</ele>
        <time>2024-10-11T13:24:55Z</time>
      </trkpt>
      <trkpt lat="42.82462" lon="2.04319">
        <ele>724.2</ele>
        <time>2024-10-11T13:24:56Z</time>
      </trkpt>
      <trkpt lat="42.82458" lon="2.04311">
        <ele>724.2</ele>
        <time>2024-10-11T13:24:57Z</time>
      </trkpt>
      <trkpt lat="42.82457" lon="2.04308">
        <ele>724.4</ele>
        <time>2024-10-11T13:24:58Z</time>
      </trkpt>
      <trkpt lat="42.82454" lon="2.043">
        <ele>724.4</ele>
        <time>2024-10-11T13:24:59Z</time>
      </trkpt>
      <trkpt lat="42.82452" lon="2.04297">
        <ele>724.4</ele>
        <time>2024-10-11T13:25:00Z</time>
      </trkpt>
      <trkpt lat="42.8245" lon="2.04292">
        <ele>724.4</ele>
        <time>2024-10-11T13:25:01Z</time>
      </trkpt>
      <trkpt lat="42.82445" lon="2.04285">
        <ele>724.8</ele>
        <time>2024-10-11T13:25:02Z</time>
      </trkpt>
      <trkpt lat="42.82443" lon="2.04282">
        <ele>724.8</ele>
        <time>2024-10-11T13:25:03Z</time>
      </trkpt>
      <trkpt lat="42.8244" lon="2.04277">
        <ele>724.8</ele>
        <time>2024-10-11T13:25:04Z</time>
      </trkpt>
      <trkpt lat="42.82437" lon="2.04271">
        <ele>724.8</ele>
        <time>2024-10-11T13:25:05Z</time>
      </trkpt>
      <trkpt lat="42.82434" lon="2.04266">
        <ele>724.8</ele>
        <time>2024-10-11T13:25:06Z</time>
      </trkpt>
      <trkpt lat="42.82429" lon="2.04258">
        <ele>725</ele>
        <time>2024-10-11T13:25:07Z</time>
      </trkpt>
      <trkpt lat="42.82427" lon="2.04256">
        <ele>725</ele>
        <time>2024-10-11T13:25:08Z</time>
      </trkpt>
      <trkpt lat="42.82424" lon="2.04251">
        <ele>725</ele>
        <time>2024-10-11T13:25:09Z</time>
      </trkpt>
      <trkpt lat="42.82421" lon="2.04246">
        <ele>725</ele>
        <time>2024-10-11T13:25:10Z</time>
      </trkpt>
      <trkpt lat="42.82418" lon="2.0424">
        <ele>724.8</ele>
        <time>2024-10-11T13:25:11Z</time>
      </trkpt>
      <trkpt lat="42.82414" lon="2.04236">
        <ele>724.8</ele>
        <time>2024-10-11T13:25:12Z</time>
      </trkpt>
      <trkpt lat="42.82409" lon="2.0423">
        <ele>724.8</ele>
        <time>2024-10-11T13:25:13Z</time>
      </trkpt>
      <trkpt lat="42.82407" lon="2.04228">
        <ele>724.8</ele>
        <time>2024-10-11T13:25:14Z</time>
      </trkpt>
      <trkpt lat="42.82403" lon="2.04224">
        <ele>725.4</ele>
        <time>2024-10-11T13:25:15Z</time>
      </trkpt>
      <trkpt lat="42.824" lon="2.0422">
        <ele>725.4</ele>
        <time>2024-10-11T13:25:16Z</time>
      </trkpt>
      <trkpt lat="42.82396" lon="2.04217">
        <ele>725.4</ele>
        <time>2024-10-11T13:25:17Z</time>
      </trkpt>
      <trkpt lat="42.82391" lon="2.04211">
        <ele>725.8</ele>
        <time>2024-10-11T13:25:18Z</time>
      </trkpt>
      <trkpt lat="42.82389" lon="2.04209">
        <ele>725.8</ele>
        <time>2024-10-11T13:25:19Z</time>
      </trkpt>
      <trkpt lat="42.82384" lon="2.04204">
        <ele>725.8</ele>
        <time>2024-10-11T13:25:20Z</time>
      </trkpt>
      <trkpt lat="42.82382" lon="2.04202">
        <ele>725.8</ele>
        <time>2024-10-11T13:25:21Z</time>
      </trkpt>
      <trkpt lat="42.82378" lon="2.04197">
        <ele>725.8</ele>
        <time>2024-10-11T13:25:22Z</time>
      </trkpt>
      <trkpt lat="42.82375" lon="2.04192">
        <ele>725.8</ele>
        <time>2024-10-11T13:25:23Z</time>
      </trkpt>
      <trkpt lat="42.82372" lon="2.04188">
        <ele>726</ele>
        <time>2024-10-11T13:25:24Z</time>
      </trkpt>
      <trkpt lat="42.82369" lon="2.04183">
        <ele>726</ele>
        <time>2024-10-11T13:25:25Z</time>
      </trkpt>
      <trkpt lat="42.82364" lon="2.04176">
        <ele>726</ele>
        <time>2024-10-11T13:25:26Z</time>
      </trkpt>
      <trkpt lat="42.82363" lon="2.04174">
        <ele>726</ele>
        <time>2024-10-11T13:25:27Z</time>
      </trkpt>
      <trkpt lat="42.82358" lon="2.04166">
        <ele>726.2</ele>
        <time>2024-10-11T13:25:28Z</time>
      </trkpt>
      <trkpt lat="42.82357" lon="2.04163">
        <ele>726.4</ele>
        <time>2024-10-11T13:25:29Z</time>
      </trkpt>
      <trkpt lat="42.82354" lon="2.04158">
        <ele>726.4</ele>
        <time>2024-10-11T13:25:30Z</time>
      </trkpt>
      <trkpt lat="42.8235" lon="2.0415">
        <ele>726.4</ele>
        <time>2024-10-11T13:25:31Z</time>
      </trkpt>
      <trkpt lat="42.82349" lon="2.04147">
        <ele>726.6</ele>
        <time>2024-10-11T13:25:32Z</time>
      </trkpt>
      <trkpt lat="42.82346" lon="2.04142">
        <ele>726.6</ele>
        <time>2024-10-11T13:25:33Z</time>
      </trkpt>
      <trkpt lat="42.82342" lon="2.04133">
        <ele>726.6</ele>
        <time>2024-10-11T13:25:34Z</time>
      </trkpt>
      <trkpt lat="42.82341" lon="2.0413">
        <ele>726.6</ele>
        <time>2024-10-11T13:25:35Z</time>
      </trkpt>
      <trkpt lat="42.82336" lon="2.04123">
        <ele>726.6</ele>
        <time>2024-10-11T13:25:36Z</time>
      </trkpt>
      <trkpt lat="42.82335" lon="2.0412">
        <ele>726.8</ele>
        <time>2024-10-11T13:25:37Z</time>
      </trkpt>
      <trkpt lat="42.82332" lon="2.04115">
        <ele>726.8</ele>
        <time>2024-10-11T13:25:38Z</time>
      </trkpt>
      <trkpt lat="42.82327" lon="2.04106">
        <ele>726.8</ele>
        <time>2024-10-11T13:25:39Z</time>
      </trkpt>
      <trkpt lat="42.82326" lon="2.04104">
        <ele>726.8</ele>
        <time>2024-10-11T13:25:40Z</time>
      </trkpt>
      <trkpt lat="42.82321" lon="2.04095">
        <ele>726.8</ele>
        <time>2024-10-11T13:25:41Z</time>
      </trkpt>
      <trkpt lat="42.8232" lon="2.04093">
        <ele>727</ele>
        <time>2024-10-11T13:25:42Z</time>
      </trkpt>
      <trkpt lat="42.82316" lon="2.04084">
        <ele>727</ele>
        <time>2024-10-11T13:25:43Z</time>
      </trkpt>
      <trkpt lat="42.82314" lon="2.04081">
        <ele>727</ele>
        <time>2024-10-11T13:25:44Z</time>
      </trkpt>
      <trkpt lat="42.82312" lon="2.04075">
        <ele>727</ele>
        <time>2024-10-11T13:25:45Z</time>
      </trkpt>
      <trkpt lat="42.82308" lon="2.04066">
        <ele>727</ele>
        <time>2024-10-11T13:25:46Z</time>
      </trkpt>
      <trkpt lat="42.82306" lon="2.04063">
        <ele>727.2</ele>
        <time>2024-10-11T13:25:47Z</time>
      </trkpt>
      <trkpt lat="42.82303" lon="2.04058">
        <ele>727.2</ele>
        <time>2024-10-11T13:25:48Z</time>
      </trkpt>
      <trkpt lat="42.82301" lon="2.04052">
        <ele>727.2</ele>
        <time>2024-10-11T13:25:49Z</time>
      </trkpt>
      <trkpt lat="42.82297" lon="2.04046">
        <ele>727.2</ele>
        <time>2024-10-11T13:25:50Z</time>
      </trkpt>
      <trkpt lat="42.82294" lon="2.04041">
        <ele>727.2</ele>
        <time>2024-10-11T13:25:51Z</time>
      </trkpt>
      <trkpt lat="42.8229" lon="2.04032">
        <ele>727.6</ele>
        <time>2024-10-11T13:25:52Z</time>
      </trkpt>
      <trkpt lat="42.82288" lon="2.04029">
        <ele>727.6</ele>
        <time>2024-10-11T13:25:53Z</time>
      </trkpt>
      <trkpt lat="42.82285" lon="2.04023">
        <ele>727.6</ele>
        <time>2024-10-11T13:25:54Z</time>
      </trkpt>
      <trkpt lat="42.82282" lon="2.04017">
        <ele>727</ele>
        <time>2024-10-11T13:25:55Z</time>
      </trkpt>
      <trkpt lat="42.82279" lon="2.04012">
        <ele>727</ele>
        <time>2024-10-11T13:25:56Z</time>
      </trkpt>
      <trkpt lat="42.82276" lon="2.04006">
        <ele>727</ele>
        <time>2024-10-11T13:25:57Z</time>
      </trkpt>
      <trkpt lat="42.82273" lon="2.04001">
        <ele>727</ele>
        <time>2024-10-11T13:25:58Z</time>
      </trkpt>
      <trkpt lat="42.8227" lon="2.03996">
        <ele>728</ele>
        <time>2024-10-11T13:25:59Z</time>
      </trkpt>
      <trkpt lat="42.82267" lon="2.03992">
        <ele>727.6</ele>
        <time>2024-10-11T13:26:00Z</time>
      </trkpt>
      <trkpt lat="42.82263" lon="2.03987">
        <ele>727.6</ele>
        <time>2024-10-11T13:26:01Z</time>
      </trkpt>
      <trkpt lat="42.8226" lon="2.03982">
        <ele>727.6</ele>
        <time>2024-10-11T13:26:02Z</time>
      </trkpt>
      <trkpt lat="42.82257" lon="2.03978">
        <ele>728.2</ele>
        <time>2024-10-11T13:26:03Z</time>
      </trkpt>
      <trkpt lat="42.82253" lon="2.03973">
        <ele>727.2</ele>
        <time>2024-10-11T13:26:04Z</time>
      </trkpt>
      <trkpt lat="42.8225" lon="2.03968">
        <ele>727.2</ele>
        <time>2024-10-11T13:26:05Z</time>
      </trkpt>
      <trkpt lat="42.82246" lon="2.03964">
        <ele>727.2</ele>
        <time>2024-10-11T13:26:06Z</time>
      </trkpt>
      <trkpt lat="42.82243" lon="2.03961">
        <ele>728.2</ele>
        <time>2024-10-11T13:26:07Z</time>
      </trkpt>
      <trkpt lat="42.82239" lon="2.03957">
        <ele>728.2</ele>
        <time>2024-10-11T13:26:08Z</time>
      </trkpt>
      <trkpt lat="42.82236" lon="2.03953">
        <ele>728.2</ele>
        <time>2024-10-11T13:26:09Z</time>
      </trkpt>
      <trkpt lat="42.8223" lon="2.03947">
        <ele>728.6</ele>
        <time>2024-10-11T13:26:10Z</time>
      </trkpt>
      <trkpt lat="42.82229" lon="2.03946">
        <ele>728.6</ele>
        <time>2024-10-11T13:26:11Z</time>
      </trkpt>
      <trkpt lat="42.82224" lon="2.03941">
        <ele>728.6</ele>
        <time>2024-10-11T13:26:12Z</time>
      </trkpt>
      <trkpt lat="42.82222" lon="2.03939">
        <ele>729</ele>
        <time>2024-10-11T13:26:13Z</time>
      </trkpt>
      <trkpt lat="42.82217" lon="2.03934">
        <ele>729.4</ele>
        <time>2024-10-11T13:26:14Z</time>
      </trkpt>
      <trkpt lat="42.82216" lon="2.03932">
        <ele>729.4</ele>
        <time>2024-10-11T13:26:15Z</time>
      </trkpt>
      <trkpt lat="42.82211" lon="2.03927">
        <ele>729.4</ele>
        <time>2024-10-11T13:26:16Z</time>
      </trkpt>
      <trkpt lat="42.8221" lon="2.03925">
        <ele>729.4</ele>
        <time>2024-10-11T13:26:17Z</time>
      </trkpt>
      <trkpt lat="42.82205" lon="2.0392">
        <ele>729.4</ele>
        <time>2024-10-11T13:26:18Z</time>
      </trkpt>
      <trkpt lat="42.82204" lon="2.03918">
        <ele>729.6</ele>
        <time>2024-10-11T13:26:19Z</time>
      </trkpt>
      <trkpt lat="42.82201" lon="2.03914">
        <ele>729.6</ele>
        <time>2024-10-11T13:26:20Z</time>
      </trkpt>
      <trkpt lat="42.82197" lon="2.0391">
        <ele>729.6</ele>
        <time>2024-10-11T13:26:21Z</time>
      </trkpt>
      <trkpt lat="42.82195" lon="2.03908">
        <ele>730.6</ele>
        <time>2024-10-11T13:26:22Z</time>
      </trkpt>
      <trkpt lat="42.8219" lon="2.03904">
        <ele>730</ele>
        <time>2024-10-11T13:26:23Z</time>
      </trkpt>
      <trkpt lat="42.82189" lon="2.03903">
        <ele>730</ele>
        <time>2024-10-11T13:26:24Z</time>
      </trkpt>
      <trkpt lat="42.82185" lon="2.03898">
        <ele>730</ele>
        <time>2024-10-11T13:26:25Z</time>
      </trkpt>
      <trkpt lat="42.82183" lon="2.03897">
        <ele>730.8</ele>
        <time>2024-10-11T13:26:26Z</time>
      </trkpt>
      <trkpt lat="42.8218" lon="2.03894">
        <ele>731</ele>
        <time>2024-10-11T13:26:27Z</time>
      </trkpt>
      <trkpt lat="42.82176" lon="2.0389">
        <ele>731</ele>
        <time>2024-10-11T13:26:28Z</time>
      </trkpt>
      <trkpt lat="42.82175" lon="2.03888">
        <ele>731</ele>
        <time>2024-10-11T13:26:29Z</time>
      </trkpt>
      <trkpt lat="42.82171" lon="2.03885">
        <ele>731</ele>
        <time>2024-10-11T13:26:30Z</time>
      </trkpt>
      <trkpt lat="42.8217" lon="2.03883">
        <ele>731.6</ele>
        <time>2024-10-11T13:26:31Z</time>
      </trkpt>
      <trkpt lat="42.82167" lon="2.03881">
        <ele>731.6</ele>
        <time>2024-10-11T13:26:32Z</time>
      </trkpt>
      <trkpt lat="42.82164" lon="2.03877">
        <ele>731.6</ele>
        <time>2024-10-11T13:26:33Z</time>
      </trkpt>
      <trkpt lat="42.82161" lon="2.03876">
        <ele>731.6</ele>
        <time>2024-10-11T13:26:34Z</time>
      </trkpt>
      <trkpt lat="42.82159" lon="2.03873">
        <ele>731.6</ele>
        <time>2024-10-11T13:26:35Z</time>
      </trkpt>
      <trkpt lat="42.82156" lon="2.0387">
        <ele>732.2</ele>
        <time>2024-10-11T13:26:36Z</time>
      </trkpt>
      <trkpt lat="42.82154" lon="2.03868">
        <ele>732.2</ele>
        <time>2024-10-11T13:26:37Z</time>
      </trkpt>
      <trkpt lat="42.82151" lon="2.03865">
        <ele>732.2</ele>
        <time>2024-10-11T13:26:38Z</time>
      </trkpt>
      <trkpt lat="42.82148" lon="2.03862">
        <ele>732.6</ele>
        <time>2024-10-11T13:26:39Z</time>
      </trkpt>
      <trkpt lat="42.82145" lon="2.0386">
        <ele>732.8</ele>
        <time>2024-10-11T13:26:40Z</time>
      </trkpt>
      <trkpt lat="42.82143" lon="2.03857">
        <ele>732.8</ele>
        <time>2024-10-11T13:26:41Z</time>
      </trkpt>
      <trkpt lat="42.8214" lon="2.03854">
        <ele>732.8</ele>
        <time>2024-10-11T13:26:42Z</time>
      </trkpt>
      <trkpt lat="42.82137" lon="2.03851">
        <ele>733.2</ele>
        <time>2024-10-11T13:26:43Z</time>
      </trkpt>
      <trkpt lat="42.82134" lon="2.03848">
        <ele>733.2</ele>
        <time>2024-10-11T13:26:44Z</time>
      </trkpt>
      <trkpt lat="42.82132" lon="2.03845">
        <ele>733.2</ele>
        <time>2024-10-11T13:26:45Z</time>
      </trkpt>
      <trkpt lat="42.82129" lon="2.03843">
        <ele>733.2</ele>
        <time>2024-10-11T13:26:46Z</time>
      </trkpt>
      <trkpt lat="42.82124" lon="2.03838">
        <ele>733.2</ele>
        <time>2024-10-11T13:26:47Z</time>
      </trkpt>
      <trkpt lat="42.82123" lon="2.03837">
        <ele>733.6</ele>
        <time>2024-10-11T13:26:48Z</time>
      </trkpt>
      <trkpt lat="42.8212" lon="2.03834">
        <ele>733.4</ele>
        <time>2024-10-11T13:26:49Z</time>
      </trkpt>
      <trkpt lat="42.82118" lon="2.03831">
        <ele>733.4</ele>
        <time>2024-10-11T13:26:50Z</time>
      </trkpt>
      <trkpt lat="42.82115" lon="2.03828">
        <ele>733.4</ele>
        <time>2024-10-11T13:26:51Z</time>
      </trkpt>
      <trkpt lat="42.82113" lon="2.03825">
        <ele>733.4</ele>
        <time>2024-10-11T13:26:52Z</time>
      </trkpt>
      <trkpt lat="42.8211" lon="2.03822">
        <ele>734.4</ele>
        <time>2024-10-11T13:26:53Z</time>
      </trkpt>
      <trkpt lat="42.82108" lon="2.0382">
        <ele>734.2</ele>
        <time>2024-10-11T13:26:54Z</time>
      </trkpt>
      <trkpt lat="42.82103" lon="2.03816">
        <ele>734.2</ele>
        <time>2024-10-11T13:26:55Z</time>
      </trkpt>
      <trkpt lat="42.82102" lon="2.03815">
        <ele>734.2</ele>
        <time>2024-10-11T13:26:56Z</time>
      </trkpt>
      <trkpt lat="42.82099" lon="2.03812">
        <ele>734.6</ele>
        <time>2024-10-11T13:26:57Z</time>
      </trkpt>
      <trkpt lat="42.82096" lon="2.03808">
        <ele>734.6</ele>
        <time>2024-10-11T13:26:58Z</time>
      </trkpt>
      <trkpt lat="42.82094" lon="2.03807">
        <ele>734.8</ele>
        <time>2024-10-11T13:26:59Z</time>
      </trkpt>
      <trkpt lat="42.82091" lon="2.03803">
        <ele>734.8</ele>
        <time>2024-10-11T13:27:00Z</time>
      </trkpt>
      <trkpt lat="42.8209" lon="2.03801">
        <ele>734.8</ele>
        <time>2024-10-11T13:27:01Z</time>
      </trkpt>
      <trkpt lat="42.82086" lon="2.03797">
        <ele>734.8</ele>
        <time>2024-10-11T13:27:02Z</time>
      </trkpt>
      <trkpt lat="42.82085" lon="2.03795">
        <ele>735.4</ele>
        <time>2024-10-11T13:27:03Z</time>
      </trkpt>
      <trkpt lat="42.82083" lon="2.03791">
        <ele>735.4</ele>
        <time>2024-10-11T13:27:04Z</time>
      </trkpt>
      <trkpt lat="42.82079" lon="2.03787">
        <ele>735.4</ele>
        <time>2024-10-11T13:27:05Z</time>
      </trkpt>
      <trkpt lat="42.82078" lon="2.03786">
        <ele>736</ele>
        <time>2024-10-11T13:27:06Z</time>
      </trkpt>
      <trkpt lat="42.82075" lon="2.03782">
        <ele>736</ele>
        <time>2024-10-11T13:27:07Z</time>
      </trkpt>
      <trkpt lat="42.82074" lon="2.0378">
        <ele>736.2</ele>
        <time>2024-10-11T13:27:08Z</time>
      </trkpt>
      <trkpt lat="42.82071" lon="2.03775">
        <ele>736.2</ele>
        <time>2024-10-11T13:27:09Z</time>
      </trkpt>
      <trkpt lat="42.82069" lon="2.03774">
        <ele>736.2</ele>
        <time>2024-10-11T13:27:10Z</time>
      </trkpt>
      <trkpt lat="42.82067" lon="2.03771">
        <ele>736.6</ele>
        <time>2024-10-11T13:27:11Z</time>
      </trkpt>
      <trkpt lat="42.82063" lon="2.03765">
        <ele>736.4</ele>
        <time>2024-10-11T13:27:12Z</time>
      </trkpt>
      <trkpt lat="42.82062" lon="2.03764">
        <ele>736.4</ele>
        <time>2024-10-11T13:27:13Z</time>
      </trkpt>
      <trkpt lat="42.8206" lon="2.0376">
        <ele>736.4</ele>
        <time>2024-10-11T13:27:14Z</time>
      </trkpt>
      <trkpt lat="42.82058" lon="2.03757">
        <ele>737.4</ele>
        <time>2024-10-11T13:27:15Z</time>
      </trkpt>
      <trkpt lat="42.82056" lon="2.03753">
        <ele>737.4</ele>
        <time>2024-10-11T13:27:16Z</time>
      </trkpt>
      <trkpt lat="42.82054" lon="2.03749">
        <ele>737.2</ele>
        <time>2024-10-11T13:27:17Z</time>
      </trkpt>
      <trkpt lat="42.82052" lon="2.03745">
        <ele>737.2</ele>
        <time>2024-10-11T13:27:18Z</time>
      </trkpt>
      <trkpt lat="42.8205" lon="2.03741">
        <ele>737.8</ele>
        <time>2024-10-11T13:27:19Z</time>
      </trkpt>
      <trkpt lat="42.82048" lon="2.03737">
        <ele>737.8</ele>
        <time>2024-10-11T13:27:20Z</time>
      </trkpt>
      <trkpt lat="42.82046" lon="2.03733">
        <ele>737.8</ele>
        <time>2024-10-11T13:27:21Z</time>
      </trkpt>
      <trkpt lat="42.82045" lon="2.03729">
        <ele>737.8</ele>
        <time>2024-10-11T13:27:22Z</time>
      </trkpt>
      <trkpt lat="42.82043" lon="2.03725">
        <ele>737.8</ele>
        <time>2024-10-11T13:27:23Z</time>
      </trkpt>
      <trkpt lat="42.82041" lon="2.03721">
        <ele>738.4</ele>
        <time>2024-10-11T13:27:24Z</time>
      </trkpt>
      <trkpt lat="42.8204" lon="2.03717">
        <ele>738.4</ele>
        <time>2024-10-11T13:27:25Z</time>
      </trkpt>
      <trkpt lat="42.82038" lon="2.03713">
        <ele>738.4</ele>
        <time>2024-10-11T13:27:26Z</time>
      </trkpt>
      <trkpt lat="42.82037" lon="2.03709">
        <ele>738.4</ele>
        <time>2024-10-11T13:27:27Z</time>
      </trkpt>
      <trkpt lat="42.82035" lon="2.03705">
        <ele>738.4</ele>
        <time>2024-10-11T13:27:28Z</time>
      </trkpt>
      <trkpt lat="42.82034" lon="2.03701">
        <ele>738.8</ele>
        <time>2024-10-11T13:27:29Z</time>
      </trkpt>
      <trkpt lat="42.82032" lon="2.03697">
        <ele>738.8</ele>
        <time>2024-10-11T13:27:30Z</time>
      </trkpt>
      <trkpt lat="42.8203" lon="2.03693">
        <ele>738.8</ele>
        <time>2024-10-11T13:27:31Z</time>
      </trkpt>
      <trkpt lat="42.82028" lon="2.0369">
        <ele>738.8</ele>
        <time>2024-10-11T13:27:32Z</time>
      </trkpt>
      <trkpt lat="42.82026" lon="2.03686">
        <ele>739.4</ele>
        <time>2024-10-11T13:27:33Z</time>
      </trkpt>
      <trkpt lat="42.82023" lon="2.03682">
        <ele>739.4</ele>
        <time>2024-10-11T13:27:34Z</time>
      </trkpt>
      <trkpt lat="42.82021" lon="2.03679">
        <ele>739.4</ele>
        <time>2024-10-11T13:27:35Z</time>
      </trkpt>
      <trkpt lat="42.82018" lon="2.03677">
        <ele>739.4</ele>
        <time>2024-10-11T13:27:36Z</time>
      </trkpt>
      <trkpt lat="42.82015" lon="2.03674">
        <ele>739.4</ele>
        <time>2024-10-11T13:27:37Z</time>
      </trkpt>
      <trkpt lat="42.82012" lon="2.03671">
        <ele>739.8</ele>
        <time>2024-10-11T13:27:38Z</time>
      </trkpt>
      <trkpt lat="42.82008" lon="2.0367">
        <ele>739.6</ele>
        <time>2024-10-11T13:27:39Z</time>
      </trkpt>
      <trkpt lat="42.82003" lon="2.03667">
        <ele>739.6</ele>
        <time>2024-10-11T13:27:40Z</time>
      </trkpt>
      <trkpt lat="42.82001" lon="2.03667">
        <ele>739.6</ele>
        <time>2024-10-11T13:27:41Z</time>
      </trkpt>
      <trkpt lat="42.81996" lon="2.03666">
        <ele>739.6</ele>
        <time>2024-10-11T13:27:42Z</time>
      </trkpt>
      <trkpt lat="42.81994" lon="2.03666">
        <ele>739.8</ele>
        <time>2024-10-11T13:27:43Z</time>
      </trkpt>
      <trkpt lat="42.81988" lon="2.03667">
        <ele>739.8</ele>
        <time>2024-10-11T13:27:44Z</time>
      </trkpt>
      <trkpt lat="42.81985" lon="2.03667">
        <ele>739.8</ele>
        <time>2024-10-11T13:27:45Z</time>
      </trkpt>
      <trkpt lat="42.81979" lon="2.03667">
        <ele>739.8</ele>
        <time>2024-10-11T13:27:46Z</time>
      </trkpt>
      <trkpt lat="42.81977" lon="2.03667">
        <ele>740.2</ele>
        <time>2024-10-11T13:27:47Z</time>
      </trkpt>
      <trkpt lat="42.81973" lon="2.03667">
        <ele>739.8</ele>
        <time>2024-10-11T13:27:48Z</time>
      </trkpt>
      <trkpt lat="42.81965" lon="2.03668">
        <ele>739.8</ele>
        <time>2024-10-11T13:27:49Z</time>
      </trkpt>
      <trkpt lat="42.81963" lon="2.03668">
        <ele>739.8</ele>
        <time>2024-10-11T13:27:50Z</time>
      </trkpt>
      <trkpt lat="42.81957" lon="2.03669">
        <ele>739.8</ele>
        <time>2024-10-11T13:27:51Z</time>
      </trkpt>
      <trkpt lat="42.81955" lon="2.03669">
        <ele>740</ele>
        <time>2024-10-11T13:27:52Z</time>
      </trkpt>
      <trkpt lat="42.81948" lon="2.03669">
        <ele>740</ele>
        <time>2024-10-11T13:27:53Z</time>
      </trkpt>
      <trkpt lat="42.81946" lon="2.03669">
        <ele>740</ele>
        <time>2024-10-11T13:27:54Z</time>
      </trkpt>
      <trkpt lat="42.81941" lon="2.0367">
        <ele>740</ele>
        <time>2024-10-11T13:27:55Z</time>
      </trkpt>
      <trkpt lat="42.81935" lon="2.0367">
        <ele>740</ele>
        <time>2024-10-11T13:27:56Z</time>
      </trkpt>
      <trkpt lat="42.81933" lon="2.0367">
        <ele>740</ele>
        <time>2024-10-11T13:27:57Z</time>
      </trkpt>
      <trkpt lat="42.81928" lon="2.03671">
        <ele>740</ele>
        <time>2024-10-11T13:27:58Z</time>
      </trkpt>
      <trkpt lat="42.81924" lon="2.03671">
        <ele>740</ele>
        <time>2024-10-11T13:27:59Z</time>
      </trkpt>
      <trkpt lat="42.8192" lon="2.03672">
        <ele>740</ele>
        <time>2024-10-11T13:28:00Z</time>
      </trkpt>
      <trkpt lat="42.81915" lon="2.03672">
        <ele>740.2</ele>
        <time>2024-10-11T13:28:01Z</time>
      </trkpt>
      <trkpt lat="42.81911" lon="2.03672">
        <ele>740.2</ele>
        <time>2024-10-11T13:28:02Z</time>
      </trkpt>
      <trkpt lat="42.81906" lon="2.03673">
        <ele>740.2</ele>
        <time>2024-10-11T13:28:03Z</time>
      </trkpt>
      <trkpt lat="42.81902" lon="2.03673">
        <ele>740.2</ele>
        <time>2024-10-11T13:28:04Z</time>
      </trkpt>
      <trkpt lat="42.81897" lon="2.03675">
        <ele>740.2</ele>
        <time>2024-10-11T13:28:05Z</time>
      </trkpt>
      <trkpt lat="42.81893" lon="2.03676">
        <ele>740.4</ele>
        <time>2024-10-11T13:28:06Z</time>
      </trkpt>
      <trkpt lat="42.81888" lon="2.03676">
        <ele>740.4</ele>
        <time>2024-10-11T13:28:07Z</time>
      </trkpt>
      <trkpt lat="42.81884" lon="2.03677">
        <ele>740.4</ele>
        <time>2024-10-11T13:28:08Z</time>
      </trkpt>
      <trkpt lat="42.8188" lon="2.03679">
        <ele>740.4</ele>
        <time>2024-10-11T13:28:09Z</time>
      </trkpt>
      <trkpt lat="42.81876" lon="2.0368">
        <ele>740.6</ele>
        <time>2024-10-11T13:28:10Z</time>
      </trkpt>
      <trkpt lat="42.81873" lon="2.03683">
        <ele>740.6</ele>
        <time>2024-10-11T13:28:11Z</time>
      </trkpt>
      <trkpt lat="42.8187" lon="2.03686">
        <ele>740.6</ele>
        <time>2024-10-11T13:28:12Z</time>
      </trkpt>
      <trkpt lat="42.81865" lon="2.03688">
        <ele>740.8</ele>
        <time>2024-10-11T13:28:13Z</time>
      </trkpt>
      <trkpt lat="42.81861" lon="2.03689">
        <ele>740.8</ele>
        <time>2024-10-11T13:28:14Z</time>
      </trkpt>
      <trkpt lat="42.81857" lon="2.03691">
        <ele>741</ele>
        <time>2024-10-11T13:28:15Z</time>
      </trkpt>
      <trkpt lat="42.81853" lon="2.03693">
        <ele>741</ele>
        <time>2024-10-11T13:28:16Z</time>
      </trkpt>
      <trkpt lat="42.81848" lon="2.03694">
        <ele>741</ele>
        <time>2024-10-11T13:28:17Z</time>
      </trkpt>
      <trkpt lat="42.81845" lon="2.03696">
        <ele>741.2</ele>
        <time>2024-10-11T13:28:18Z</time>
      </trkpt>
      <trkpt lat="42.81841" lon="2.03697">
        <ele>741.2</ele>
        <time>2024-10-11T13:28:19Z</time>
      </trkpt>
      <trkpt lat="42.81837" lon="2.037">
        <ele>741</ele>
        <time>2024-10-11T13:28:20Z</time>
      </trkpt>
      <trkpt lat="42.81833" lon="2.03701">
        <ele>741</ele>
        <time>2024-10-11T13:28:21Z</time>
      </trkpt>
      <trkpt lat="42.81827" lon="2.03703">
        <ele>741</ele>
        <time>2024-10-11T13:28:22Z</time>
      </trkpt>
      <trkpt lat="42.81825" lon="2.03704">
        <ele>741.2</ele>
        <time>2024-10-11T13:28:23Z</time>
      </trkpt>
      <trkpt lat="42.81819" lon="2.03707">
        <ele>741.4</ele>
        <time>2024-10-11T13:28:24Z</time>
      </trkpt>
      <trkpt lat="42.81816" lon="2.03709">
        <ele>741.4</ele>
        <time>2024-10-11T13:28:25Z</time>
      </trkpt>
      <trkpt lat="42.81809" lon="2.03711">
        <ele>741.4</ele>
        <time>2024-10-11T13:28:26Z</time>
      </trkpt>
      <trkpt lat="42.81807" lon="2.03712">
        <ele>742</ele>
        <time>2024-10-11T13:28:27Z</time>
      </trkpt>
      <trkpt lat="42.818" lon="2.03713">
        <ele>742</ele>
        <time>2024-10-11T13:28:28Z</time>
      </trkpt>
      <trkpt lat="42.81798" lon="2.03714">
        <ele>741.6</ele>
        <time>2024-10-11T13:28:29Z</time>
      </trkpt>
      <trkpt lat="42.81791" lon="2.03718">
        <ele>741.6</ele>
        <time>2024-10-11T13:28:30Z</time>
      </trkpt>
      <trkpt lat="42.81788" lon="2.03719">
        <ele>741.6</ele>
        <time>2024-10-11T13:28:31Z</time>
      </trkpt>
      <trkpt lat="42.81784" lon="2.03723">
        <ele>741.6</ele>
        <time>2024-10-11T13:28:32Z</time>
      </trkpt>
      <trkpt lat="42.81779" lon="2.03728">
        <ele>741.2</ele>
        <time>2024-10-11T13:28:33Z</time>
      </trkpt>
      <trkpt lat="42.81777" lon="2.0373">
        <ele>741.2</ele>
        <time>2024-10-11T13:28:34Z</time>
      </trkpt>
      <trkpt lat="42.81773" lon="2.03736">
        <ele>741.2</ele>
        <time>2024-10-11T13:28:35Z</time>
      </trkpt>
      <trkpt lat="42.81771" lon="2.03738">
        <ele>741.2</ele>
        <time>2024-10-11T13:28:36Z</time>
      </trkpt>
      <trkpt lat="42.81767" lon="2.03743">
        <ele>741.2</ele>
        <time>2024-10-11T13:28:37Z</time>
      </trkpt>
      <trkpt lat="42.81765" lon="2.03746">
        <ele>741.2</ele>
        <time>2024-10-11T13:28:38Z</time>
      </trkpt>
      <trkpt lat="42.81763" lon="2.0375">
        <ele>741.2</ele>
        <time>2024-10-11T13:28:39Z</time>
      </trkpt>
      <trkpt lat="42.8176" lon="2.03755">
        <ele>741.2</ele>
        <time>2024-10-11T13:28:40Z</time>
      </trkpt>
      <trkpt lat="42.81758" lon="2.03761">
        <ele>742.2</ele>
        <time>2024-10-11T13:28:41Z</time>
      </trkpt>
      <trkpt lat="42.81754" lon="2.03769">
        <ele>742.6</ele>
        <time>2024-10-11T13:28:42Z</time>
      </trkpt>
      <trkpt lat="42.81753" lon="2.03772">
        <ele>742.6</ele>
        <time>2024-10-11T13:28:43Z</time>
      </trkpt>
      <trkpt lat="42.8175" lon="2.03777">
        <ele>742.6</ele>
        <time>2024-10-11T13:28:44Z</time>
      </trkpt>
      <trkpt lat="42.81747" lon="2.03781">
        <ele>742.6</ele>
        <time>2024-10-11T13:28:45Z</time>
      </trkpt>
      <trkpt lat="42.81744" lon="2.03786">
        <ele>742.8</ele>
        <time>2024-10-11T13:28:46Z</time>
      </trkpt>
      <trkpt lat="42.8174" lon="2.03791">
        <ele>742.8</ele>
        <time>2024-10-11T13:28:47Z</time>
      </trkpt>
      <trkpt lat="42.81737" lon="2.03795">
        <ele>742.8</ele>
        <time>2024-10-11T13:28:48Z</time>
      </trkpt>
      <trkpt lat="42.81733" lon="2.038">
        <ele>742.6</ele>
        <time>2024-10-11T13:28:49Z</time>
      </trkpt>
      <trkpt lat="42.8173" lon="2.03803">
        <ele>742.8</ele>
        <time>2024-10-11T13:28:50Z</time>
      </trkpt>
      <trkpt lat="42.81725" lon="2.03807">
        <ele>742.8</ele>
        <time>2024-10-11T13:28:51Z</time>
      </trkpt>
      <trkpt lat="42.8172" lon="2.0381">
        <ele>742.8</ele>
        <time>2024-10-11T13:28:52Z</time>
      </trkpt>
      <trkpt lat="42.81715" lon="2.03812">
        <ele>742.8</ele>
        <time>2024-10-11T13:28:53Z</time>
      </trkpt>
      <trkpt lat="42.8171" lon="2.03813">
        <ele>742.8</ele>
        <time>2024-10-11T13:28:54Z</time>
      </trkpt>
      <trkpt lat="42.81705" lon="2.03812">
        <ele>742.2</ele>
        <time>2024-10-11T13:28:55Z</time>
      </trkpt>
      <trkpt lat="42.81701" lon="2.0381">
        <ele>742.2</ele>
        <time>2024-10-11T13:28:56Z</time>
      </trkpt>
      <trkpt lat="42.81696" lon="2.03808">
        <ele>742.2</ele>
        <time>2024-10-11T13:28:57Z</time>
      </trkpt>
      <trkpt lat="42.81692" lon="2.03806">
        <ele>743</ele>
        <time>2024-10-11T13:28:58Z</time>
      </trkpt>
      <trkpt lat="42.81688" lon="2.03806">
        <ele>743</ele>
        <time>2024-10-11T13:28:59Z</time>
      </trkpt>
      <trkpt lat="42.81685" lon="2.03802">
        <ele>743</ele>
        <time>2024-10-11T13:29:00Z</time>
      </trkpt>
      <trkpt lat="42.8168" lon="2.03799">
        <ele>743</ele>
        <time>2024-10-11T13:29:01Z</time>
      </trkpt>
      <trkpt lat="42.81676" lon="2.03798">
        <ele>743</ele>
        <time>2024-10-11T13:29:02Z</time>
      </trkpt>
      <trkpt lat="42.81669" lon="2.03794">
        <ele>743</ele>
        <time>2024-10-11T13:29:03Z</time>
      </trkpt>
      <trkpt lat="42.81667" lon="2.03793">
        <ele>743</ele>
        <time>2024-10-11T13:29:04Z</time>
      </trkpt>
      <trkpt lat="42.8166" lon="2.0379">
        <ele>742.8</ele>
        <time>2024-10-11T13:29:05Z</time>
      </trkpt>
      <trkpt lat="42.81657" lon="2.03789">
        <ele>742.8</ele>
        <time>2024-10-11T13:29:06Z</time>
      </trkpt>
      <trkpt lat="42.8165" lon="2.03784">
        <ele>742.8</ele>
        <time>2024-10-11T13:29:07Z</time>
      </trkpt>
      <trkpt lat="42.81648" lon="2.03782">
        <ele>742.8</ele>
        <time>2024-10-11T13:29:08Z</time>
      </trkpt>
      <trkpt lat="42.8164" lon="2.03778">
        <ele>742.4</ele>
        <time>2024-10-11T13:29:09Z</time>
      </trkpt>
      <trkpt lat="42.81638" lon="2.03777">
        <ele>742.4</ele>
        <time>2024-10-11T13:29:10Z</time>
      </trkpt>
      <trkpt lat="42.81632" lon="2.03775">
        <ele>742.4</ele>
        <time>2024-10-11T13:29:11Z</time>
      </trkpt>
      <trkpt lat="42.81625" lon="2.0377">
        <ele>742.4</ele>
        <time>2024-10-11T13:29:12Z</time>
      </trkpt>
      <trkpt lat="42.81622" lon="2.03769">
        <ele>742.2</ele>
        <time>2024-10-11T13:29:13Z</time>
      </trkpt>
      <trkpt lat="42.81617" lon="2.03767">
        <ele>742.2</ele>
        <time>2024-10-11T13:29:14Z</time>
      </trkpt>
      <trkpt lat="42.81609" lon="2.03765">
        <ele>742.2</ele>
        <time>2024-10-11T13:29:15Z</time>
      </trkpt>
      <trkpt lat="42.81606" lon="2.03764">
        <ele>742.2</ele>
        <time>2024-10-11T13:29:16Z</time>
      </trkpt>
      <trkpt lat="42.81598" lon="2.03761">
        <ele>742.8</ele>
        <time>2024-10-11T13:29:17Z</time>
      </trkpt>
      <trkpt lat="42.81595" lon="2.0376">
        <ele>742.8</ele>
        <time>2024-10-11T13:29:18Z</time>
      </trkpt>
      <trkpt lat="42.81587" lon="2.03757">
        <ele>742.8</ele>
        <time>2024-10-11T13:29:19Z</time>
      </trkpt>
      <trkpt lat="42.81585" lon="2.03756">
        <ele>742.8</ele>
        <time>2024-10-11T13:29:20Z</time>
      </trkpt>
      <trkpt lat="42.8158" lon="2.03754">
        <ele>742.6</ele>
        <time>2024-10-11T13:29:21Z</time>
      </trkpt>
      <trkpt lat="42.81572" lon="2.03749">
        <ele>743.2</ele>
        <time>2024-10-11T13:29:22Z</time>
      </trkpt>
      <trkpt lat="42.81569" lon="2.03747">
        <ele>743.2</ele>
        <time>2024-10-11T13:29:23Z</time>
      </trkpt>
      <trkpt lat="42.81564" lon="2.03744">
        <ele>743.2</ele>
        <time>2024-10-11T13:29:24Z</time>
      </trkpt>
      <trkpt lat="42.81559" lon="2.0374">
        <ele>743.2</ele>
        <time>2024-10-11T13:29:25Z</time>
      </trkpt>
      <trkpt lat="42.81553" lon="2.03737">
        <ele>742.2</ele>
        <time>2024-10-11T13:29:26Z</time>
      </trkpt>
      <trkpt lat="42.81549" lon="2.03734">
        <ele>742.8</ele>
        <time>2024-10-11T13:29:27Z</time>
      </trkpt>
      <trkpt lat="42.81543" lon="2.03731">
        <ele>742.8</ele>
        <time>2024-10-11T13:29:28Z</time>
      </trkpt>
      <trkpt lat="42.81537" lon="2.03729">
        <ele>742.8</ele>
        <time>2024-10-11T13:29:29Z</time>
      </trkpt>
      <trkpt lat="42.81531" lon="2.03726">
        <ele>742.8</ele>
        <time>2024-10-11T13:29:30Z</time>
      </trkpt>
      <trkpt lat="42.81526" lon="2.03724">
        <ele>743</ele>
        <time>2024-10-11T13:29:31Z</time>
      </trkpt>
      <trkpt lat="42.8152" lon="2.03721">
        <ele>743</ele>
        <time>2024-10-11T13:29:32Z</time>
      </trkpt>
      <trkpt lat="42.81515" lon="2.03719">
        <ele>743</ele>
        <time>2024-10-11T13:29:33Z</time>
      </trkpt>
      <trkpt lat="42.8151" lon="2.03717">
        <ele>742.8</ele>
        <time>2024-10-11T13:29:34Z</time>
      </trkpt>
      <trkpt lat="42.81505" lon="2.03713">
        <ele>742.8</ele>
        <time>2024-10-11T13:29:35Z</time>
      </trkpt>
      <trkpt lat="42.81501" lon="2.0371">
        <ele>742.6</ele>
        <time>2024-10-11T13:29:36Z</time>
      </trkpt>
      <trkpt lat="42.81496" lon="2.03706">
        <ele>742.6</ele>
        <time>2024-10-11T13:29:37Z</time>
      </trkpt>
      <trkpt lat="42.81491" lon="2.03702">
        <ele>742.6</ele>
        <time>2024-10-11T13:29:38Z</time>
      </trkpt>
      <trkpt lat="42.81486" lon="2.03699">
        <ele>742.6</ele>
        <time>2024-10-11T13:29:39Z</time>
      </trkpt>
      <trkpt lat="42.81482" lon="2.03696">
        <ele>743.6</ele>
        <time>2024-10-11T13:29:40Z</time>
      </trkpt>
      <trkpt lat="42.81476" lon="2.03693">
        <ele>743.6</ele>
        <time>2024-10-11T13:29:41Z</time>
      </trkpt>
      <trkpt lat="42.81471" lon="2.03689">
        <ele>743.6</ele>
        <time>2024-10-11T13:29:42Z</time>
      </trkpt>
      <trkpt lat="42.81466" lon="2.03686">
        <ele>743</ele>
        <time>2024-10-11T13:29:43Z</time>
      </trkpt>
      <trkpt lat="42.81461" lon="2.03682">
        <ele>743</ele>
        <time>2024-10-11T13:29:44Z</time>
      </trkpt>
      <trkpt lat="42.81456" lon="2.03679">
        <ele>743.2</ele>
        <time>2024-10-11T13:29:45Z</time>
      </trkpt>
      <trkpt lat="42.81449" lon="2.03675">
        <ele>743.2</ele>
        <time>2024-10-11T13:29:46Z</time>
      </trkpt>
      <trkpt lat="42.81446" lon="2.03673">
        <ele>743.2</ele>
        <time>2024-10-11T13:29:47Z</time>
      </trkpt>
      <trkpt lat="42.81441" lon="2.0367">
        <ele>743.2</ele>
        <time>2024-10-11T13:29:48Z</time>
      </trkpt>
      <trkpt lat="42.81436" lon="2.03667">
        <ele>743.6</ele>
        <time>2024-10-11T13:29:49Z</time>
      </trkpt>
      <trkpt lat="42.8143" lon="2.03663">
        <ele>743.6</ele>
        <time>2024-10-11T13:29:50Z</time>
      </trkpt>
      <trkpt lat="42.81428" lon="2.03661">
        <ele>743.6</ele>
        <time>2024-10-11T13:29:51Z</time>
      </trkpt>
      <trkpt lat="42.81421" lon="2.03657">
        <ele>743.6</ele>
        <time>2024-10-11T13:29:52Z</time>
      </trkpt>
      <trkpt lat="42.81419" lon="2.03655">
        <ele>743.6</ele>
        <time>2024-10-11T13:29:53Z</time>
      </trkpt>
      <trkpt lat="42.81413" lon="2.0365">
        <ele>744.2</ele>
        <time>2024-10-11T13:29:54Z</time>
      </trkpt>
      <trkpt lat="42.81411" lon="2.03648">
        <ele>744.2</ele>
        <time>2024-10-11T13:29:55Z</time>
      </trkpt>
      <trkpt lat="42.81404" lon="2.03644">
        <ele>744.2</ele>
        <time>2024-10-11T13:29:56Z</time>
      </trkpt>
      <trkpt lat="42.81402" lon="2.03642">
        <ele>744.2</ele>
        <time>2024-10-11T13:29:57Z</time>
      </trkpt>
      <trkpt lat="42.81398" lon="2.03639">
        <ele>744</ele>
        <time>2024-10-11T13:29:58Z</time>
      </trkpt>
      <trkpt lat="42.81392" lon="2.03634">
        <ele>744</ele>
        <time>2024-10-11T13:29:59Z</time>
      </trkpt>
      <trkpt lat="42.8139" lon="2.03632">
        <ele>744</ele>
        <time>2024-10-11T13:30:00Z</time>
      </trkpt>
      <trkpt lat="42.81384" lon="2.03627">
        <ele>744</ele>
        <time>2024-10-11T13:30:01Z</time>
      </trkpt>
      <trkpt lat="42.81382" lon="2.03626">
        <ele>744</ele>
        <time>2024-10-11T13:30:02Z</time>
      </trkpt>
      <trkpt lat="42.81376" lon="2.03621">
        <ele>744.8</ele>
        <time>2024-10-11T13:30:03Z</time>
      </trkpt>
      <trkpt lat="42.81374" lon="2.0362">
        <ele>744.8</ele>
        <time>2024-10-11T13:30:04Z</time>
      </trkpt>
      <trkpt lat="42.8137" lon="2.03617">
        <ele>744.8</ele>
        <time>2024-10-11T13:30:05Z</time>
      </trkpt>
      <trkpt lat="42.81364" lon="2.03612">
        <ele>744.8</ele>
        <time>2024-10-11T13:30:06Z</time>
      </trkpt>
      <trkpt lat="42.81362" lon="2.03611">
        <ele>745.6</ele>
        <time>2024-10-11T13:30:07Z</time>
      </trkpt>
      <trkpt lat="42.81358" lon="2.03607">
        <ele>745.6</ele>
        <time>2024-10-11T13:30:08Z</time>
      </trkpt>
      <trkpt lat="42.81355" lon="2.03604">
        <ele>745.6</ele>
        <time>2024-10-11T13:30:09Z</time>
      </trkpt>
      <trkpt lat="42.81351" lon="2.03601">
        <ele>745.6</ele>
        <time>2024-10-11T13:30:10Z</time>
      </trkpt>
      <trkpt lat="42.81347" lon="2.03598">
        <ele>745.4</ele>
        <time>2024-10-11T13:30:11Z</time>
      </trkpt>
      <trkpt lat="42.81343" lon="2.03596">
        <ele>745.4</ele>
        <time>2024-10-11T13:30:12Z</time>
      </trkpt>
      <trkpt lat="42.81337" lon="2.03592">
        <ele>745.4</ele>
        <time>2024-10-11T13:30:13Z</time>
      </trkpt>
      <trkpt lat="42.81336" lon="2.03591">
        <ele>745.4</ele>
        <time>2024-10-11T13:30:14Z</time>
      </trkpt>
      <trkpt lat="42.81332" lon="2.03588">
        <ele>745.8</ele>
        <time>2024-10-11T13:30:15Z</time>
      </trkpt>
      <trkpt lat="42.81329" lon="2.03585">
        <ele>745.8</ele>
        <time>2024-10-11T13:30:16Z</time>
      </trkpt>
      <trkpt lat="42.81329" lon="2.0358">
        <ele>745.8</ele>
        <time>2024-10-11T13:30:17Z</time>
      </trkpt>
      <trkpt lat="42.8133" lon="2.03576">
        <ele>745.8</ele>
        <time>2024-10-11T13:30:18Z</time>
      </trkpt>
      <trkpt lat="42.81333" lon="2.03575">
        <ele>746.6</ele>
        <time>2024-10-11T13:30:19Z</time>
      </trkpt>
      <trkpt lat="42.81336" lon="2.03575">
        <ele>746.6</ele>
        <time>2024-10-11T13:30:20Z</time>
      </trkpt>
      <trkpt lat="42.81338" lon="2.03575">
        <ele>746.6</ele>
        <time>2024-10-11T13:30:21Z</time>
      </trkpt>
      <trkpt lat="42.81341" lon="2.03575">
        <ele>746.6</ele>
        <time>2024-10-11T13:30:22Z</time>
      </trkpt>
      <trkpt lat="42.81344" lon="2.03576">
        <ele>747.4</ele>
        <time>2024-10-11T13:30:23Z</time>
      </trkpt>
      <trkpt lat="42.81347" lon="2.03577">
        <ele>747.6</ele>
        <time>2024-10-11T13:30:24Z</time>
      </trkpt>
      <trkpt lat="42.81349" lon="2.03579">
        <ele>747.6</ele>
        <time>2024-10-11T13:30:25Z</time>
      </trkpt>
      <trkpt lat="42.81352" lon="2.0358">
        <ele>747.6</ele>
        <time>2024-10-11T13:30:26Z</time>
      </trkpt>
      <trkpt lat="42.81355" lon="2.03581">
        <ele>747.6</ele>
        <time>2024-10-11T13:30:27Z</time>
      </trkpt>
      <trkpt lat="42.81357" lon="2.03583">
        <ele>748.4</ele>
        <time>2024-10-11T13:30:28Z</time>
      </trkpt>
      <trkpt lat="42.8136" lon="2.03584">
        <ele>748.4</ele>
        <time>2024-10-11T13:30:29Z</time>
      </trkpt>
      <trkpt lat="42.81364" lon="2.03587">
        <ele>748.6</ele>
        <time>2024-10-11T13:30:30Z</time>
      </trkpt>
      <trkpt lat="42.81365" lon="2.03587">
        <ele>748.6</ele>
        <time>2024-10-11T13:30:31Z</time>
      </trkpt>
      <trkpt lat="42.81369" lon="2.0359">
        <ele>748.6</ele>
        <time>2024-10-11T13:30:32Z</time>
      </trkpt>
      <trkpt lat="42.81371" lon="2.03591">
        <ele>749.2</ele>
        <time>2024-10-11T13:30:33Z</time>
      </trkpt>
      <trkpt lat="42.81375" lon="2.03594">
        <ele>749.2</ele>
        <time>2024-10-11T13:30:34Z</time>
      </trkpt>
      <trkpt lat="42.81376" lon="2.03595">
        <ele>749.2</ele>
        <time>2024-10-11T13:30:35Z</time>
      </trkpt>
      <trkpt lat="42.81379" lon="2.03597">
        <ele>749.2</ele>
        <time>2024-10-11T13:30:36Z</time>
      </trkpt>
      <trkpt lat="42.81382" lon="2.036">
        <ele>749.2</ele>
        <time>2024-10-11T13:30:37Z</time>
      </trkpt>
      <trkpt lat="42.81384" lon="2.03601">
        <ele>749.8</ele>
        <time>2024-10-11T13:30:38Z</time>
      </trkpt>
      <trkpt lat="42.81387" lon="2.03604">
        <ele>750</ele>
        <time>2024-10-11T13:30:39Z</time>
      </trkpt>
      <trkpt lat="42.81388" lon="2.03605">
        <ele>750</ele>
        <time>2024-10-11T13:30:40Z</time>
      </trkpt>
      <trkpt lat="42.8139" lon="2.03607">
        <ele>750</ele>
        <time>2024-10-11T13:30:41Z</time>
      </trkpt>
      <trkpt lat="42.81393" lon="2.0361">
        <ele>750</ele>
        <time>2024-10-11T13:30:42Z</time>
      </trkpt>
      <trkpt lat="42.81394" lon="2.0361">
        <ele>750.8</ele>
        <time>2024-10-11T13:30:43Z</time>
      </trkpt>
      <trkpt lat="42.81396" lon="2.03613">
        <ele>750.8</ele>
        <time>2024-10-11T13:30:44Z</time>
      </trkpt>
      <trkpt lat="42.81397" lon="2.03614">
        <ele>750.8</ele>
        <time>2024-10-11T13:30:45Z</time>
      </trkpt>
      <trkpt lat="42.814" lon="2.03616">
        <ele>750.8</ele>
        <time>2024-10-11T13:30:46Z</time>
      </trkpt>
      <trkpt lat="42.81401" lon="2.03618">
        <ele>750.8</ele>
        <time>2024-10-11T13:30:47Z</time>
      </trkpt>
      <trkpt lat="42.81403" lon="2.0362">
        <ele>751.8</ele>
        <time>2024-10-11T13:30:48Z</time>
      </trkpt>
      <trkpt lat="42.81406" lon="2.03623">
        <ele>751.8</ele>
        <time>2024-10-11T13:30:49Z</time>
      </trkpt>
      <trkpt lat="42.81407" lon="2.03624">
        <ele>751.8</ele>
        <time>2024-10-11T13:30:50Z</time>
      </trkpt>
      <trkpt lat="42.81409" lon="2.03627">
        <ele>752.2</ele>
        <time>2024-10-11T13:30:51Z</time>
      </trkpt>
      <trkpt lat="42.81411" lon="2.03629">
        <ele>752.4</ele>
        <time>2024-10-11T13:30:52Z</time>
      </trkpt>
      <trkpt lat="42.81413" lon="2.03631">
        <ele>752.4</ele>
        <time>2024-10-11T13:30:53Z</time>
      </trkpt>
      <trkpt lat="42.81415" lon="2.03633">
        <ele>752.4</ele>
        <time>2024-10-11T13:30:54Z</time>
      </trkpt>
      <trkpt lat="42.81417" lon="2.03636">
        <ele>752.8</ele>
        <time>2024-10-11T13:30:55Z</time>
      </trkpt>
      <trkpt lat="42.81419" lon="2.03638">
        <ele>753.2</ele>
        <time>2024-10-11T13:30:56Z</time>
      </trkpt>
      <trkpt lat="42.81421" lon="2.0364">
        <ele>753.2</ele>
        <time>2024-10-11T13:30:57Z</time>
      </trkpt>
      <trkpt lat="42.81423" lon="2.03642">
        <ele>753.2</ele>
        <time>2024-10-11T13:30:58Z</time>
      </trkpt>
      <trkpt lat="42.81425" lon="2.03644">
        <ele>753.2</ele>
        <time>2024-10-11T13:30:59Z</time>
      </trkpt>
      <trkpt lat="42.81428" lon="2.03646">
        <ele>753.8</ele>
        <time>2024-10-11T13:31:00Z</time>
      </trkpt>
      <trkpt lat="42.81429" lon="2.03648">
        <ele>754.2</ele>
        <time>2024-10-11T13:31:01Z</time>
      </trkpt>
      <trkpt lat="42.81431" lon="2.0365">
        <ele>754.2</ele>
        <time>2024-10-11T13:31:02Z</time>
      </trkpt>
      <trkpt lat="42.81434" lon="2.03652">
        <ele>754.2</ele>
        <time>2024-10-11T13:31:03Z</time>
      </trkpt>
      <trkpt lat="42.81435" lon="2.03653">
        <ele>754.6</ele>
        <time>2024-10-11T13:31:04Z</time>
      </trkpt>
      <trkpt lat="42.81437" lon="2.03655">
        <ele>754.6</ele>
        <time>2024-10-11T13:31:05Z</time>
      </trkpt>
      <trkpt lat="42.81439" lon="2.03657">
        <ele>754.8</ele>
        <time>2024-10-11T13:31:06Z</time>
      </trkpt>
      <trkpt lat="42.81441" lon="2.03659">
        <ele>754.8</ele>
        <time>2024-10-11T13:31:07Z</time>
      </trkpt>
      <trkpt lat="42.81443" lon="2.0366">
        <ele>755.6</ele>
        <time>2024-10-11T13:31:08Z</time>
      </trkpt>
      <trkpt lat="42.81446" lon="2.03663">
        <ele>755.6</ele>
        <time>2024-10-11T13:31:09Z</time>
      </trkpt>
      <trkpt lat="42.81447" lon="2.03664">
        <ele>756</ele>
        <time>2024-10-11T13:31:10Z</time>
      </trkpt>
      <trkpt lat="42.81449" lon="2.03665">
        <ele>756</ele>
        <time>2024-10-11T13:31:11Z</time>
      </trkpt>
      <trkpt lat="42.81452" lon="2.03666">
        <ele>756</ele>
        <time>2024-10-11T13:31:12Z</time>
      </trkpt>
      <trkpt lat="42.81454" lon="2.03668">
        <ele>756</ele>
        <time>2024-10-11T13:31:13Z</time>
      </trkpt>
      <trkpt lat="42.81456" lon="2.03669">
        <ele>756</ele>
        <time>2024-10-11T13:31:14Z</time>
      </trkpt>
      <trkpt lat="42.81459" lon="2.03671">
        <ele>756.6</ele>
        <time>2024-10-11T13:31:15Z</time>
      </trkpt>
      <trkpt lat="42.8146" lon="2.03672">
        <ele>756.6</ele>
        <time>2024-10-11T13:31:16Z</time>
      </trkpt>
      <trkpt lat="42.81464" lon="2.03674">
        <ele>756.6</ele>
        <time>2024-10-11T13:31:17Z</time>
      </trkpt>
      <trkpt lat="42.81465" lon="2.03675">
        <ele>757.2</ele>
        <time>2024-10-11T13:31:18Z</time>
      </trkpt>
      <trkpt lat="42.81469" lon="2.03676">
        <ele>757.2</ele>
        <time>2024-10-11T13:31:19Z</time>
      </trkpt>
      <trkpt lat="42.8147" lon="2.03677">
        <ele>757.4</ele>
        <time>2024-10-11T13:31:20Z</time>
      </trkpt>
      <trkpt lat="42.81474" lon="2.03679">
        <ele>757.4</ele>
        <time>2024-10-11T13:31:21Z</time>
      </trkpt>
      <trkpt lat="42.81476" lon="2.0368">
        <ele>757.4</ele>
        <time>2024-10-11T13:31:22Z</time>
      </trkpt>
      <trkpt lat="42.81479" lon="2.03682">
        <ele>758</ele>
        <time>2024-10-11T13:31:23Z</time>
      </trkpt>
      <trkpt lat="42.81481" lon="2.03682">
        <ele>758</ele>
        <time>2024-10-11T13:31:24Z</time>
      </trkpt>
      <trkpt lat="42.81483" lon="2.03684">
        <ele>758</ele>
        <time>2024-10-11T13:31:25Z</time>
      </trkpt>
      <trkpt lat="42.81487" lon="2.03685">
        <ele>758</ele>
        <time>2024-10-11T13:31:26Z</time>
      </trkpt>
      <trkpt lat="42.81488" lon="2.03685">
        <ele>758.6</ele>
        <time>2024-10-11T13:31:27Z</time>
      </trkpt>
      <trkpt lat="42.81492" lon="2.03686">
        <ele>758.6</ele>
        <time>2024-10-11T13:31:28Z</time>
      </trkpt>
      <trkpt lat="42.81493" lon="2.03687">
        <ele>759</ele>
        <time>2024-10-11T13:31:29Z</time>
      </trkpt>
      <trkpt lat="42.81497" lon="2.03686">
        <ele>759</ele>
        <time>2024-10-11T13:31:30Z</time>
      </trkpt>
      <trkpt lat="42.81498" lon="2.03685">
        <ele>759</ele>
        <time>2024-10-11T13:31:31Z</time>
      </trkpt>
      <trkpt lat="42.81501" lon="2.03685">
        <ele>759.4</ele>
        <time>2024-10-11T13:31:32Z</time>
      </trkpt>
      <trkpt lat="42.81504" lon="2.03685">
        <ele>759.6</ele>
        <time>2024-10-11T13:31:33Z</time>
      </trkpt>
      <trkpt lat="42.81506" lon="2.03685">
        <ele>759.6</ele>
        <time>2024-10-11T13:31:34Z</time>
      </trkpt>
      <trkpt lat="42.81509" lon="2.03685">
        <ele>759.6</ele>
        <time>2024-10-11T13:31:35Z</time>
      </trkpt>
      <trkpt lat="42.8151" lon="2.03686">
        <ele>759.6</ele>
        <time>2024-10-11T13:31:36Z</time>
      </trkpt>
      <trkpt lat="42.81512" lon="2.03686">
        <ele>760.6</ele>
        <time>2024-10-11T13:31:37Z</time>
      </trkpt>
      <trkpt lat="42.81514" lon="2.03686">
        <ele>760.6</ele>
        <time>2024-10-11T13:31:38Z</time>
      </trkpt>
      <trkpt lat="42.81516" lon="2.03686">
        <ele>760.6</ele>
        <time>2024-10-11T13:31:39Z</time>
      </trkpt>
      <trkpt lat="42.81518" lon="2.03686">
        <ele>760.6</ele>
        <time>2024-10-11T13:31:40Z</time>
      </trkpt>
      <trkpt lat="42.8152" lon="2.03686">
        <ele>761</ele>
        <time>2024-10-11T13:31:41Z</time>
      </trkpt>
      <trkpt lat="42.81522" lon="2.03685">
        <ele>761</ele>
        <time>2024-10-11T13:31:42Z</time>
      </trkpt>
      <trkpt lat="42.81525" lon="2.03686">
        <ele>761</ele>
        <time>2024-10-11T13:31:43Z</time>
      </trkpt>
      <trkpt lat="42.81527" lon="2.03686">
        <ele>761</ele>
        <time>2024-10-11T13:31:44Z</time>
      </trkpt>
      <trkpt lat="42.81529" lon="2.03686">
        <ele>761.6</ele>
        <time>2024-10-11T13:31:45Z</time>
      </trkpt>
      <trkpt lat="42.81531" lon="2.03687">
        <ele>762</ele>
        <time>2024-10-11T13:31:46Z</time>
      </trkpt>
      <trkpt lat="42.81533" lon="2.03688">
        <ele>762</ele>
        <time>2024-10-11T13:31:47Z</time>
      </trkpt>
      <trkpt lat="42.81535" lon="2.03688">
        <ele>762</ele>
        <time>2024-10-11T13:31:48Z</time>
      </trkpt>
      <trkpt lat="42.81537" lon="2.03689">
        <ele>762.2</ele>
        <time>2024-10-11T13:31:49Z</time>
      </trkpt>
      <trkpt lat="42.81539" lon="2.03689">
        <ele>762.2</ele>
        <time>2024-10-11T13:31:50Z</time>
      </trkpt>
      <trkpt lat="42.81541" lon="2.03689">
        <ele>762.8</ele>
        <time>2024-10-11T13:31:51Z</time>
      </trkpt>
      <trkpt lat="42.81543" lon="2.0369">
        <ele>762.8</ele>
        <time>2024-10-11T13:31:52Z</time>
      </trkpt>
      <trkpt lat="42.81545" lon="2.0369">
        <ele>763.2</ele>
        <time>2024-10-11T13:31:53Z</time>
      </trkpt>
      <trkpt lat="42.81549" lon="2.03691">
        <ele>763.2</ele>
        <time>2024-10-11T13:31:54Z</time>
      </trkpt>
      <trkpt lat="42.8155" lon="2.03691">
        <ele>763.2</ele>
        <time>2024-10-11T13:31:55Z</time>
      </trkpt>
      <trkpt lat="42.81552" lon="2.03692">
        <ele>763.4</ele>
        <time>2024-10-11T13:31:56Z</time>
      </trkpt>
      <trkpt lat="42.81554" lon="2.03693">
        <ele>763.4</ele>
        <time>2024-10-11T13:31:57Z</time>
      </trkpt>
      <trkpt lat="42.81557" lon="2.03694">
        <ele>763.4</ele>
        <time>2024-10-11T13:31:58Z</time>
      </trkpt>
      <trkpt lat="42.81559" lon="2.03693">
        <ele>764</ele>
        <time>2024-10-11T13:31:59Z</time>
      </trkpt>
      <trkpt lat="42.81562" lon="2.03695">
        <ele>764.2</ele>
        <time>2024-10-11T13:32:00Z</time>
      </trkpt>
      <trkpt lat="42.81563" lon="2.03695">
        <ele>764.2</ele>
        <time>2024-10-11T13:32:01Z</time>
      </trkpt>
      <trkpt lat="42.81566" lon="2.03697">
        <ele>764.2</ele>
        <time>2024-10-11T13:32:02Z</time>
      </trkpt>
      <trkpt lat="42.81567" lon="2.03697">
        <ele>764.8</ele>
        <time>2024-10-11T13:32:03Z</time>
      </trkpt>
      <trkpt lat="42.81571" lon="2.03698">
        <ele>764.8</ele>
        <time>2024-10-11T13:32:04Z</time>
      </trkpt>
      <trkpt lat="42.81572" lon="2.03698">
        <ele>764.8</ele>
        <time>2024-10-11T13:32:05Z</time>
      </trkpt>
      <trkpt lat="42.81574" lon="2.037">
        <ele>764.8</ele>
        <time>2024-10-11T13:32:06Z</time>
      </trkpt>
      <trkpt lat="42.81575" lon="2.037">
        <ele>764.8</ele>
        <time>2024-10-11T13:32:07Z</time>
      </trkpt>
      <trkpt lat="42.81577" lon="2.03702">
        <ele>765.2</ele>
        <time>2024-10-11T13:32:08Z</time>
      </trkpt>
      <trkpt lat="42.8158" lon="2.03703">
        <ele>765.6</ele>
        <time>2024-10-11T13:32:09Z</time>
      </trkpt>
      <trkpt lat="42.81581" lon="2.03703">
        <ele>765.6</ele>
        <time>2024-10-11T13:32:10Z</time>
      </trkpt>
      <trkpt lat="42.81585" lon="2.03704">
        <ele>765.6</ele>
        <time>2024-10-11T13:32:11Z</time>
      </trkpt>
      <trkpt lat="42.81586" lon="2.03704">
        <ele>766</ele>
        <time>2024-10-11T13:32:12Z</time>
      </trkpt>
      <trkpt lat="42.8159" lon="2.03705">
        <ele>766.2</ele>
        <time>2024-10-11T13:32:13Z</time>
      </trkpt>
      <trkpt lat="42.81591" lon="2.03705">
        <ele>766.2</ele>
        <time>2024-10-11T13:32:14Z</time>
      </trkpt>
      <trkpt lat="42.81593" lon="2.03706">
        <ele>766.2</ele>
        <time>2024-10-11T13:32:15Z</time>
      </trkpt>
      <trkpt lat="42.81596" lon="2.03708">
        <ele>767</ele>
        <time>2024-10-11T13:32:16Z</time>
      </trkpt>
      <trkpt lat="42.81597" lon="2.03709">
        <ele>767.2</ele>
        <time>2024-10-11T13:32:17Z</time>
      </trkpt>
      <trkpt lat="42.81599" lon="2.0371">
        <ele>767.2</ele>
        <time>2024-10-11T13:32:18Z</time>
      </trkpt>
      <trkpt lat="42.81601" lon="2.03711">
        <ele>767.2</ele>
        <time>2024-10-11T13:32:19Z</time>
      </trkpt>
      <trkpt lat="42.81603" lon="2.03711">
        <ele>767.2</ele>
        <time>2024-10-11T13:32:20Z</time>
      </trkpt>
      <trkpt lat="42.81605" lon="2.03712">
        <ele>767.8</ele>
        <time>2024-10-11T13:32:21Z</time>
      </trkpt>
      <trkpt lat="42.81607" lon="2.03713">
        <ele>768</ele>
        <time>2024-10-11T13:32:22Z</time>
      </trkpt>
      <trkpt lat="42.81609" lon="2.03715">
        <ele>768</ele>
        <time>2024-10-11T13:32:23Z</time>
      </trkpt>
      <trkpt lat="42.81612" lon="2.03716">
        <ele>768</ele>
        <time>2024-10-11T13:32:24Z</time>
      </trkpt>
      <trkpt lat="42.81613" lon="2.03717">
        <ele>768.4</ele>
        <time>2024-10-11T13:32:25Z</time>
      </trkpt>
      <trkpt lat="42.81617" lon="2.03719">
        <ele>768.4</ele>
        <time>2024-10-11T13:32:26Z</time>
      </trkpt>
      <trkpt lat="42.81618" lon="2.0372">
        <ele>768.4</ele>
        <time>2024-10-11T13:32:27Z</time>
      </trkpt>
      <trkpt lat="42.8162" lon="2.03721">
        <ele>768.4</ele>
        <time>2024-10-11T13:32:28Z</time>
      </trkpt>
      <trkpt lat="42.81623" lon="2.03723">
        <ele>769</ele>
        <time>2024-10-11T13:32:29Z</time>
      </trkpt>
      <trkpt lat="42.81625" lon="2.03723">
        <ele>769.2</ele>
        <time>2024-10-11T13:32:30Z</time>
      </trkpt>
      <trkpt lat="42.81627" lon="2.03726">
        <ele>769.2</ele>
        <time>2024-10-11T13:32:31Z</time>
      </trkpt>
      <trkpt lat="42.81628" lon="2.03727">
        <ele>769.2</ele>
        <time>2024-10-11T13:32:32Z</time>
      </trkpt>
      <trkpt lat="42.8163" lon="2.03728">
        <ele>769.2</ele>
        <time>2024-10-11T13:32:33Z</time>
      </trkpt>
      <trkpt lat="42.81632" lon="2.03728">
        <ele>769.6</ele>
        <time>2024-10-11T13:32:34Z</time>
      </trkpt>
      <trkpt lat="42.81634" lon="2.03729">
        <ele>769.4</ele>
        <time>2024-10-11T13:32:35Z</time>
      </trkpt>
      <trkpt lat="42.81636" lon="2.03731">
        <ele>769.4</ele>
        <time>2024-10-11T13:32:36Z</time>
      </trkpt>
      <trkpt lat="42.81638" lon="2.03732">
        <ele>769.4</ele>
        <time>2024-10-11T13:32:37Z</time>
      </trkpt>
      <trkpt lat="42.8164" lon="2.03734">
        <ele>769.4</ele>
        <time>2024-10-11T13:32:38Z</time>
      </trkpt>
      <trkpt lat="42.81642" lon="2.03734">
        <ele>770.2</ele>
        <time>2024-10-11T13:32:39Z</time>
      </trkpt>
      <trkpt lat="42.81644" lon="2.03735">
        <ele>770.6</ele>
        <time>2024-10-11T13:32:40Z</time>
      </trkpt>
      <trkpt lat="42.81646" lon="2.03736">
        <ele>770.6</ele>
        <time>2024-10-11T13:32:41Z</time>
      </trkpt>
      <trkpt lat="42.81648" lon="2.03736">
        <ele>770.6</ele>
        <time>2024-10-11T13:32:42Z</time>
      </trkpt>
      <trkpt lat="42.81649" lon="2.03737">
        <ele>770.6</ele>
        <time>2024-10-11T13:32:43Z</time>
      </trkpt>
      <trkpt lat="42.81651" lon="2.03738">
        <ele>771.4</ele>
        <time>2024-10-11T13:32:44Z</time>
      </trkpt>
      <trkpt lat="42.81654" lon="2.03738">
        <ele>771.4</ele>
        <time>2024-10-11T13:32:45Z</time>
      </trkpt>
      <trkpt lat="42.81655" lon="2.03739">
        <ele>771.4</ele>
        <time>2024-10-11T13:32:46Z</time>
      </trkpt>
      <trkpt lat="42.81657" lon="2.03739">
        <ele>771.4</ele>
        <time>2024-10-11T13:32:47Z</time>
      </trkpt>
      <trkpt lat="42.81659" lon="2.03738">
        <ele>772</ele>
        <time>2024-10-11T13:32:48Z</time>
      </trkpt>
      <trkpt lat="42.81663" lon="2.03738">
        <ele>772</ele>
        <time>2024-10-11T13:32:49Z</time>
      </trkpt>
      <trkpt lat="42.81664" lon="2.03738">
        <ele>772</ele>
        <time>2024-10-11T13:32:50Z</time>
      </trkpt>
      <trkpt lat="42.81667" lon="2.03738">
        <ele>772</ele>
        <time>2024-10-11T13:32:51Z</time>
      </trkpt>
      <trkpt lat="42.81668" lon="2.03737">
        <ele>772.6</ele>
        <time>2024-10-11T13:32:52Z</time>
      </trkpt>
      <trkpt lat="42.8167" lon="2.03735">
        <ele>772.6</ele>
        <time>2024-10-11T13:32:53Z</time>
      </trkpt>
      <trkpt lat="42.81671" lon="2.03734">
        <ele>772.8</ele>
        <time>2024-10-11T13:32:54Z</time>
      </trkpt>
      <trkpt lat="42.81674" lon="2.03733">
        <ele>772.8</ele>
        <time>2024-10-11T13:32:55Z</time>
      </trkpt>
      <trkpt lat="42.81676" lon="2.03732">
        <ele>772.8</ele>
        <time>2024-10-11T13:32:56Z</time>
      </trkpt>
      <trkpt lat="42.81677" lon="2.0373">
        <ele>772.8</ele>
        <time>2024-10-11T13:32:57Z</time>
      </trkpt>
      <trkpt lat="42.81679" lon="2.03729">
        <ele>773</ele>
        <time>2024-10-11T13:32:58Z</time>
      </trkpt>
      <trkpt lat="42.81682" lon="2.03727">
        <ele>773</ele>
        <time>2024-10-11T13:32:59Z</time>
      </trkpt>
      <trkpt lat="42.81684" lon="2.03724">
        <ele>773</ele>
        <time>2024-10-11T13:33:00Z</time>
      </trkpt>
      <trkpt lat="42.81685" lon="2.03723">
        <ele>773.4</ele>
        <time>2024-10-11T13:33:01Z</time>
      </trkpt>
      <trkpt lat="42.81686" lon="2.0372">
        <ele>773.6</ele>
        <time>2024-10-11T13:33:02Z</time>
      </trkpt>
      <trkpt lat="42.81688" lon="2.03718">
        <ele>773.6</ele>
        <time>2024-10-11T13:33:03Z</time>
      </trkpt>
      <trkpt lat="42.8169" lon="2.03715">
        <ele>773.6</ele>
        <time>2024-10-11T13:33:04Z</time>
      </trkpt>
      <trkpt lat="42.81691" lon="2.03714">
        <ele>774.4</ele>
        <time>2024-10-11T13:33:05Z</time>
      </trkpt>
      <trkpt lat="42.81693" lon="2.03711">
        <ele>774.6</ele>
        <time>2024-10-11T13:33:06Z</time>
      </trkpt>
      <trkpt lat="42.81694" lon="2.03709">
        <ele>774.6</ele>
        <time>2024-10-11T13:33:07Z</time>
      </trkpt>
      <trkpt lat="42.81695" lon="2.03707">
        <ele>774.6</ele>
        <time>2024-10-11T13:33:08Z</time>
      </trkpt>
      <trkpt lat="42.81697" lon="2.03705">
        <ele>774.6</ele>
        <time>2024-10-11T13:33:09Z</time>
      </trkpt>
      <trkpt lat="42.81699" lon="2.03702">
        <ele>774.6</ele>
        <time>2024-10-11T13:33:10Z</time>
      </trkpt>
      <trkpt lat="42.81701" lon="2.037">
        <ele>775.2</ele>
        <time>2024-10-11T13:33:11Z</time>
      </trkpt>
      <trkpt lat="42.81703" lon="2.03698">
        <ele>775.2</ele>
        <time>2024-10-11T13:33:12Z</time>
      </trkpt>
      <trkpt lat="42.81705" lon="2.03695">
        <ele>775.2</ele>
        <time>2024-10-11T13:33:13Z</time>
      </trkpt>
      <trkpt lat="42.81705" lon="2.03693">
        <ele>775.8</ele>
        <time>2024-10-11T13:33:14Z</time>
      </trkpt>
      <trkpt lat="42.81708" lon="2.03691">
        <ele>775.8</ele>
        <time>2024-10-11T13:33:15Z</time>
      </trkpt>
      <trkpt lat="42.81709" lon="2.03689">
        <ele>776.2</ele>
        <time>2024-10-11T13:33:16Z</time>
      </trkpt>
      <trkpt lat="42.81711" lon="2.03685">
        <ele>776.2</ele>
        <time>2024-10-11T13:33:17Z</time>
      </trkpt>
      <trkpt lat="42.81712" lon="2.03684">
        <ele>776.8</ele>
        <time>2024-10-11T13:33:18Z</time>
      </trkpt>
      <trkpt lat="42.81714" lon="2.03682">
        <ele>776.8</ele>
        <time>2024-10-11T13:33:19Z</time>
      </trkpt>
      <trkpt lat="42.81715" lon="2.0368">
        <ele>776.8</ele>
        <time>2024-10-11T13:33:20Z</time>
      </trkpt>
      <trkpt lat="42.81716" lon="2.03677">
        <ele>776.8</ele>
        <time>2024-10-11T13:33:21Z</time>
      </trkpt>
      <trkpt lat="42.81719" lon="2.03675">
        <ele>776.8</ele>
        <time>2024-10-11T13:33:22Z</time>
      </trkpt>
      <trkpt lat="42.8172" lon="2.03673">
        <ele>776.8</ele>
        <time>2024-10-11T13:33:23Z</time>
      </trkpt>
      <trkpt lat="42.81723" lon="2.03671">
        <ele>777.4</ele>
        <time>2024-10-11T13:33:24Z</time>
      </trkpt>
      <trkpt lat="42.81724" lon="2.03669">
        <ele>778</ele>
        <time>2024-10-11T13:33:25Z</time>
      </trkpt>
      <trkpt lat="42.81727" lon="2.03668">
        <ele>778</ele>
        <time>2024-10-11T13:33:26Z</time>
      </trkpt>
      <trkpt lat="42.81729" lon="2.03664">
        <ele>778</ele>
        <time>2024-10-11T13:33:27Z</time>
      </trkpt>
      <trkpt lat="42.8173" lon="2.03663">
        <ele>778</ele>
        <time>2024-10-11T13:33:28Z</time>
      </trkpt>
      <trkpt lat="42.81732" lon="2.0366">
        <ele>778</ele>
        <time>2024-10-11T13:33:29Z</time>
      </trkpt>
      <trkpt lat="42.81733" lon="2.03659">
        <ele>779</ele>
        <time>2024-10-11T13:33:30Z</time>
      </trkpt>
      <trkpt lat="42.81736" lon="2.03655">
        <ele>779</ele>
        <time>2024-10-11T13:33:31Z</time>
      </trkpt>
      <trkpt lat="42.81737" lon="2.03654">
        <ele>779</ele>
        <time>2024-10-11T13:33:32Z</time>
      </trkpt>
      <trkpt lat="42.81738" lon="2.03652">
        <ele>779</ele>
        <time>2024-10-11T13:33:33Z</time>
      </trkpt>
      <trkpt lat="42.81741" lon="2.03648">
        <ele>779.2</ele>
        <time>2024-10-11T13:33:34Z</time>
      </trkpt>
      <trkpt lat="42.81742" lon="2.03647">
        <ele>779.2</ele>
        <time>2024-10-11T13:33:35Z</time>
      </trkpt>
      <trkpt lat="42.81745" lon="2.03644">
        <ele>779.2</ele>
        <time>2024-10-11T13:33:36Z</time>
      </trkpt>
      <trkpt lat="42.81747" lon="2.03643">
        <ele>779.8</ele>
        <time>2024-10-11T13:33:37Z</time>
      </trkpt>
      <trkpt lat="42.81749" lon="2.0364">
        <ele>779.8</ele>
        <time>2024-10-11T13:33:38Z</time>
      </trkpt>
      <trkpt lat="42.8175" lon="2.03639">
        <ele>779.8</ele>
        <time>2024-10-11T13:33:39Z</time>
      </trkpt>
      <trkpt lat="42.81753" lon="2.03636">
        <ele>779.8</ele>
        <time>2024-10-11T13:33:40Z</time>
      </trkpt>
      <trkpt lat="42.81753" lon="2.03634">
        <ele>780.4</ele>
        <time>2024-10-11T13:33:41Z</time>
      </trkpt>
      <trkpt lat="42.81755" lon="2.03632">
        <ele>780.6</ele>
        <time>2024-10-11T13:33:42Z</time>
      </trkpt>
      <trkpt lat="42.81756" lon="2.03628">
        <ele>780.6</ele>
        <time>2024-10-11T13:33:43Z</time>
      </trkpt>
      <trkpt lat="42.81757" lon="2.03627">
        <ele>780.6</ele>
        <time>2024-10-11T13:33:44Z</time>
      </trkpt>
      <trkpt lat="42.81758" lon="2.03624">
        <ele>780.6</ele>
        <time>2024-10-11T13:33:45Z</time>
      </trkpt>
      <trkpt lat="42.8176" lon="2.03622">
        <ele>781.2</ele>
        <time>2024-10-11T13:33:46Z</time>
      </trkpt>
      <trkpt lat="42.81761" lon="2.0362">
        <ele>781.6</ele>
        <time>2024-10-11T13:33:47Z</time>
      </trkpt>
      <trkpt lat="42.81763" lon="2.03617">
        <ele>781.6</ele>
        <time>2024-10-11T13:33:48Z</time>
      </trkpt>
      <trkpt lat="42.81764" lon="2.03615">
        <ele>781.6</ele>
        <time>2024-10-11T13:33:49Z</time>
      </trkpt>
      <trkpt lat="42.81766" lon="2.03613">
        <ele>782</ele>
        <time>2024-10-11T13:33:50Z</time>
      </trkpt>
      <trkpt lat="42.81767" lon="2.03611">
        <ele>782.2</ele>
        <time>2024-10-11T13:33:51Z</time>
      </trkpt>
      <trkpt lat="42.81769" lon="2.03609">
        <ele>782.2</ele>
        <time>2024-10-11T13:33:52Z</time>
      </trkpt>
      <trkpt lat="42.81771" lon="2.03606">
        <ele>782.2</ele>
        <time>2024-10-11T13:33:53Z</time>
      </trkpt>
      <trkpt lat="42.81773" lon="2.03604">
        <ele>782.6</ele>
        <time>2024-10-11T13:33:54Z</time>
      </trkpt>
      <trkpt lat="42.81775" lon="2.03602">
        <ele>782.8</ele>
        <time>2024-10-11T13:33:55Z</time>
      </trkpt>
      <trkpt lat="42.81778" lon="2.03599">
        <ele>782.8</ele>
        <time>2024-10-11T13:33:56Z</time>
      </trkpt>
      <trkpt lat="42.81779" lon="2.03598">
        <ele>782.8</ele>
        <time>2024-10-11T13:33:57Z</time>
      </trkpt>
      <trkpt lat="42.81781" lon="2.03595">
        <ele>782.8</ele>
        <time>2024-10-11T13:33:58Z</time>
      </trkpt>
      <trkpt lat="42.81782" lon="2.03593">
        <ele>783</ele>
        <time>2024-10-11T13:33:59Z</time>
      </trkpt>
      <trkpt lat="42.81784" lon="2.03591">
        <ele>783.4</ele>
        <time>2024-10-11T13:34:00Z</time>
      </trkpt>
      <trkpt lat="42.81786" lon="2.03589">
        <ele>783.4</ele>
        <time>2024-10-11T13:34:01Z</time>
      </trkpt>
      <trkpt lat="42.81787" lon="2.03586">
        <ele>783.4</ele>
        <time>2024-10-11T13:34:02Z</time>
      </trkpt>
      <trkpt lat="42.81789" lon="2.03583">
        <ele>784.2</ele>
        <time>2024-10-11T13:34:03Z</time>
      </trkpt>
      <trkpt lat="42.81791" lon="2.0358">
        <ele>784.2</ele>
        <time>2024-10-11T13:34:04Z</time>
      </trkpt>
      <trkpt lat="42.81793" lon="2.03578">
        <ele>784.4</ele>
        <time>2024-10-11T13:34:05Z</time>
      </trkpt>
      <trkpt lat="42.81795" lon="2.03575">
        <ele>784.4</ele>
        <time>2024-10-11T13:34:06Z</time>
      </trkpt>
      <trkpt lat="42.81797" lon="2.03572">
        <ele>784.4</ele>
        <time>2024-10-11T13:34:07Z</time>
      </trkpt>
      <trkpt lat="42.81799" lon="2.0357">
        <ele>784.4</ele>
        <time>2024-10-11T13:34:08Z</time>
      </trkpt>
      <trkpt lat="42.81802" lon="2.03567">
        <ele>785.2</ele>
        <time>2024-10-11T13:34:09Z</time>
      </trkpt>
      <trkpt lat="42.81803" lon="2.03566">
        <ele>785.2</ele>
        <time>2024-10-11T13:34:10Z</time>
      </trkpt>
      <trkpt lat="42.81805" lon="2.03564">
        <ele>785.2</ele>
        <time>2024-10-11T13:34:11Z</time>
      </trkpt>
      <trkpt lat="42.81808" lon="2.0356">
        <ele>785.2</ele>
        <time>2024-10-11T13:34:12Z</time>
      </trkpt>
      <trkpt lat="42.81809" lon="2.03559">
        <ele>785.6</ele>
        <time>2024-10-11T13:34:13Z</time>
      </trkpt>
      <trkpt lat="42.8181" lon="2.03557">
        <ele>785.6</ele>
        <time>2024-10-11T13:34:14Z</time>
      </trkpt>
      <trkpt lat="42.81812" lon="2.03556">
        <ele>785.6</ele>
        <time>2024-10-11T13:34:15Z</time>
      </trkpt>
      <trkpt lat="42.81814" lon="2.03553">
        <ele>785.6</ele>
        <time>2024-10-11T13:34:16Z</time>
      </trkpt>
      <trkpt lat="42.81815" lon="2.03552">
        <ele>786.4</ele>
        <time>2024-10-11T13:34:17Z</time>
      </trkpt>
      <trkpt lat="42.81816" lon="2.03549">
        <ele>786.2</ele>
        <time>2024-10-11T13:34:18Z</time>
      </trkpt>
      <trkpt lat="42.81819" lon="2.03545">
        <ele>786.2</ele>
        <time>2024-10-11T13:34:19Z</time>
      </trkpt>
      <trkpt lat="42.8182" lon="2.03544">
        <ele>786.2</ele>
        <time>2024-10-11T13:34:20Z</time>
      </trkpt>
      <trkpt lat="42.81823" lon="2.0354">
        <ele>786.2</ele>
        <time>2024-10-11T13:34:21Z</time>
      </trkpt>
      <trkpt lat="42.81824" lon="2.03539">
        <ele>786.8</ele>
        <time>2024-10-11T13:34:22Z</time>
      </trkpt>
      <trkpt lat="42.81826" lon="2.03537">
        <ele>787.2</ele>
        <time>2024-10-11T13:34:23Z</time>
      </trkpt>
      <trkpt lat="42.81828" lon="2.03534">
        <ele>787.2</ele>
        <time>2024-10-11T13:34:24Z</time>
      </trkpt>
      <trkpt lat="42.81831" lon="2.03532">
        <ele>787.2</ele>
        <time>2024-10-11T13:34:25Z</time>
      </trkpt>
      <trkpt lat="42.81833" lon="2.03527">
        <ele>787.8</ele>
        <time>2024-10-11T13:34:26Z</time>
      </trkpt>
      <trkpt lat="42.81834" lon="2.03526">
        <ele>787.8</ele>
        <time>2024-10-11T13:34:27Z</time>
      </trkpt>
      <trkpt lat="42.81835" lon="2.03524">
        <ele>787.8</ele>
        <time>2024-10-11T13:34:28Z</time>
      </trkpt>
      <trkpt lat="42.81836" lon="2.0352">
        <ele>787.8</ele>
        <time>2024-10-11T13:34:29Z</time>
      </trkpt>
      <trkpt lat="42.81838" lon="2.03516">
        <ele>787.8</ele>
        <time>2024-10-11T13:34:30Z</time>
      </trkpt>
      <trkpt lat="42.81838" lon="2.03515">
        <ele>788.4</ele>
        <time>2024-10-11T13:34:31Z</time>
      </trkpt>
      <trkpt lat="42.8184" lon="2.03512">
        <ele>788.8</ele>
        <time>2024-10-11T13:34:32Z</time>
      </trkpt>
      <trkpt lat="42.81841" lon="2.03509">
        <ele>788.8</ele>
        <time>2024-10-11T13:34:33Z</time>
      </trkpt>
      <trkpt lat="42.81842" lon="2.03504">
        <ele>788.8</ele>
        <time>2024-10-11T13:34:34Z</time>
      </trkpt>
      <trkpt lat="42.81843" lon="2.03503">
        <ele>789.4</ele>
        <time>2024-10-11T13:34:35Z</time>
      </trkpt>
      <trkpt lat="42.81844" lon="2.035">
        <ele>789.4</ele>
        <time>2024-10-11T13:34:36Z</time>
      </trkpt>
      <trkpt lat="42.81845" lon="2.03497">
        <ele>789.2</ele>
        <time>2024-10-11T13:34:37Z</time>
      </trkpt>
      <trkpt lat="42.81846" lon="2.03494">
        <ele>789.2</ele>
        <time>2024-10-11T13:34:38Z</time>
      </trkpt>
      <trkpt lat="42.81847" lon="2.0349">
        <ele>789.2</ele>
        <time>2024-10-11T13:34:39Z</time>
      </trkpt>
      <trkpt lat="42.81848" lon="2.03489">
        <ele>790</ele>
        <time>2024-10-11T13:34:40Z</time>
      </trkpt>
      <trkpt lat="42.81849" lon="2.03485">
        <ele>789.8</ele>
        <time>2024-10-11T13:34:41Z</time>
      </trkpt>
      <trkpt lat="42.8185" lon="2.03484">
        <ele>789.8</ele>
        <time>2024-10-11T13:34:42Z</time>
      </trkpt>
      <trkpt lat="42.8185" lon="2.03481">
        <ele>789.8</ele>
        <time>2024-10-11T13:34:43Z</time>
      </trkpt>
      <trkpt lat="42.8185" lon="2.03478">
        <ele>790.4</ele>
        <time>2024-10-11T13:34:44Z</time>
      </trkpt>
      <trkpt lat="42.81851" lon="2.03475">
        <ele>791</ele>
        <time>2024-10-11T13:34:45Z</time>
      </trkpt>
      <trkpt lat="42.81852" lon="2.03471">
        <ele>791</ele>
        <time>2024-10-11T13:34:46Z</time>
      </trkpt>
      <trkpt lat="42.81853" lon="2.03469">
        <ele>791</ele>
        <time>2024-10-11T13:34:47Z</time>
      </trkpt>
      <trkpt lat="42.81855" lon="2.03465">
        <ele>791</ele>
        <time>2024-10-11T13:34:48Z</time>
      </trkpt>
      <trkpt lat="42.81857" lon="2.03464">
        <ele>791</ele>
        <time>2024-10-11T13:34:49Z</time>
      </trkpt>
      <trkpt lat="42.81858" lon="2.03458">
        <ele>791</ele>
        <time>2024-10-11T13:34:50Z</time>
      </trkpt>
      <trkpt lat="42.81859" lon="2.03457">
        <ele>791.8</ele>
        <time>2024-10-11T13:34:51Z</time>
      </trkpt>
      <trkpt lat="42.81859" lon="2.03452">
        <ele>791.8</ele>
        <time>2024-10-11T13:34:52Z</time>
      </trkpt>
      <trkpt lat="42.81859" lon="2.03451">
        <ele>791.8</ele>
        <time>2024-10-11T13:34:53Z</time>
      </trkpt>
      <trkpt lat="42.81861" lon="2.03446">
        <ele>791.8</ele>
        <time>2024-10-11T13:34:54Z</time>
      </trkpt>
      <trkpt lat="42.81861" lon="2.03445">
        <ele>792.6</ele>
        <time>2024-10-11T13:34:55Z</time>
      </trkpt>
      <trkpt lat="42.81863" lon="2.03442">
        <ele>792.6</ele>
        <time>2024-10-11T13:34:56Z</time>
      </trkpt>
      <trkpt lat="42.81864" lon="2.03437">
        <ele>792.6</ele>
        <time>2024-10-11T13:34:57Z</time>
      </trkpt>
      <trkpt lat="42.81864" lon="2.03435">
        <ele>793</ele>
        <time>2024-10-11T13:34:58Z</time>
      </trkpt>
      <trkpt lat="42.81864" lon="2.03431">
        <ele>793</ele>
        <time>2024-10-11T13:34:59Z</time>
      </trkpt>
      <trkpt lat="42.81865" lon="2.03429">
        <ele>793</ele>
        <time>2024-10-11T13:35:00Z</time>
      </trkpt>
      <trkpt lat="42.81865" lon="2.03426">
        <ele>793</ele>
        <time>2024-10-11T13:35:01Z</time>
      </trkpt>
      <trkpt lat="42.81867" lon="2.03422">
        <ele>793</ele>
        <time>2024-10-11T13:35:02Z</time>
      </trkpt>
      <trkpt lat="42.81867" lon="2.0342">
        <ele>793.8</ele>
        <time>2024-10-11T13:35:03Z</time>
      </trkpt>
      <trkpt lat="42.81867" lon="2.03416">
        <ele>794</ele>
        <time>2024-10-11T13:35:04Z</time>
      </trkpt>
      <trkpt lat="42.81867" lon="2.03414">
        <ele>794</ele>
        <time>2024-10-11T13:35:05Z</time>
      </trkpt>
      <trkpt lat="42.81868" lon="2.0341">
        <ele>794</ele>
        <time>2024-10-11T13:35:06Z</time>
      </trkpt>
      <trkpt lat="42.81868" lon="2.03409">
        <ele>795</ele>
        <time>2024-10-11T13:35:07Z</time>
      </trkpt>
      <trkpt lat="42.81868" lon="2.03405">
        <ele>794.8</ele>
        <time>2024-10-11T13:35:08Z</time>
      </trkpt>
      <trkpt lat="42.81869" lon="2.034">
        <ele>794.8</ele>
        <time>2024-10-11T13:35:09Z</time>
      </trkpt>
      <trkpt lat="42.81869" lon="2.03398">
        <ele>794.8</ele>
        <time>2024-10-11T13:35:10Z</time>
      </trkpt>
      <trkpt lat="42.8187" lon="2.03395">
        <ele>794.8</ele>
        <time>2024-10-11T13:35:11Z</time>
      </trkpt>
      <trkpt lat="42.8187" lon="2.03392">
        <ele>795.6</ele>
        <time>2024-10-11T13:35:12Z</time>
      </trkpt>
      <trkpt lat="42.81871" lon="2.03387">
        <ele>795.6</ele>
        <time>2024-10-11T13:35:13Z</time>
      </trkpt>
      <trkpt lat="42.81872" lon="2.03385">
        <ele>795.6</ele>
        <time>2024-10-11T13:35:14Z</time>
      </trkpt>
      <trkpt lat="42.81872" lon="2.03382">
        <ele>795.6</ele>
        <time>2024-10-11T13:35:15Z</time>
      </trkpt>
      <trkpt lat="42.81873" lon="2.03378">
        <ele>796</ele>
        <time>2024-10-11T13:35:16Z</time>
      </trkpt>
      <trkpt lat="42.81873" lon="2.03375">
        <ele>796</ele>
        <time>2024-10-11T13:35:17Z</time>
      </trkpt>
      <trkpt lat="42.81874" lon="2.03371">
        <ele>796</ele>
        <time>2024-10-11T13:35:18Z</time>
      </trkpt>
      <trkpt lat="42.81874" lon="2.03367">
        <ele>796</ele>
        <time>2024-10-11T13:35:19Z</time>
      </trkpt>
      <trkpt lat="42.81875" lon="2.03363">
        <ele>796.6</ele>
        <time>2024-10-11T13:35:20Z</time>
      </trkpt>
      <trkpt lat="42.81876" lon="2.0336">
        <ele>796.6</ele>
        <time>2024-10-11T13:35:21Z</time>
      </trkpt>
      <trkpt lat="42.81877" lon="2.03356">
        <ele>796.8</ele>
        <time>2024-10-11T13:35:22Z</time>
      </trkpt>
      <trkpt lat="42.81878" lon="2.03353">
        <ele>796.8</ele>
        <time>2024-10-11T13:35:23Z</time>
      </trkpt>
      <trkpt lat="42.81878" lon="2.03349">
        <ele>796.8</ele>
        <time>2024-10-11T13:35:24Z</time>
      </trkpt>
      <trkpt lat="42.81879" lon="2.03346">
        <ele>797.6</ele>
        <time>2024-10-11T13:35:25Z</time>
      </trkpt>
      <trkpt lat="42.8188" lon="2.03343">
        <ele>797.6</ele>
        <time>2024-10-11T13:35:26Z</time>
      </trkpt>
      <trkpt lat="42.81881" lon="2.03339">
        <ele>797.6</ele>
        <time>2024-10-11T13:35:27Z</time>
      </trkpt>
      <trkpt lat="42.81882" lon="2.03336">
        <ele>797.6</ele>
        <time>2024-10-11T13:35:28Z</time>
      </trkpt>
      <trkpt lat="42.81884" lon="2.03333">
        <ele>797.6</ele>
        <time>2024-10-11T13:35:29Z</time>
      </trkpt>
      <trkpt lat="42.81885" lon="2.0333">
        <ele>798.2</ele>
        <time>2024-10-11T13:35:30Z</time>
      </trkpt>
      <trkpt lat="42.81887" lon="2.03327">
        <ele>798.2</ele>
        <time>2024-10-11T13:35:31Z</time>
      </trkpt>
      <trkpt lat="42.81889" lon="2.03325">
        <ele>798.2</ele>
        <time>2024-10-11T13:35:32Z</time>
      </trkpt>
      <trkpt lat="42.81891" lon="2.03322">
        <ele>798.2</ele>
        <time>2024-10-11T13:35:33Z</time>
      </trkpt>
      <trkpt lat="42.81892" lon="2.03319">
        <ele>798.6</ele>
        <time>2024-10-11T13:35:34Z</time>
      </trkpt>
      <trkpt lat="42.81893" lon="2.03315">
        <ele>798.8</ele>
        <time>2024-10-11T13:35:35Z</time>
      </trkpt>
      <trkpt lat="42.81896" lon="2.03312">
        <ele>798.8</ele>
        <time>2024-10-11T13:35:36Z</time>
      </trkpt>
      <trkpt lat="42.81897" lon="2.0331">
        <ele>798.8</ele>
        <time>2024-10-11T13:35:37Z</time>
      </trkpt>
      <trkpt lat="42.819" lon="2.03307">
        <ele>798.8</ele>
        <time>2024-10-11T13:35:38Z</time>
      </trkpt>
      <trkpt lat="42.81901" lon="2.03306">
        <ele>798.8</ele>
        <time>2024-10-11T13:35:39Z</time>
      </trkpt>
      <trkpt lat="42.81903" lon="2.03303">
        <ele>799.2</ele>
        <time>2024-10-11T13:35:40Z</time>
      </trkpt>
      <trkpt lat="42.81906" lon="2.03301">
        <ele>799.2</ele>
        <time>2024-10-11T13:35:41Z</time>
      </trkpt>
      <trkpt lat="42.81907" lon="2.033">
        <ele>799.2</ele>
        <time>2024-10-11T13:35:42Z</time>
      </trkpt>
      <trkpt lat="42.81909" lon="2.03298">
        <ele>800.2</ele>
        <time>2024-10-11T13:35:43Z</time>
      </trkpt>
      <trkpt lat="42.81912" lon="2.03296">
        <ele>800.2</ele>
        <time>2024-10-11T13:35:44Z</time>
      </trkpt>
      <trkpt lat="42.81913" lon="2.03296">
        <ele>800</ele>
        <time>2024-10-11T13:35:45Z</time>
      </trkpt>
      <trkpt lat="42.81917" lon="2.03295">
        <ele>800</ele>
        <time>2024-10-11T13:35:46Z</time>
      </trkpt>
      <trkpt lat="42.81918" lon="2.03294">
        <ele>800</ele>
        <time>2024-10-11T13:35:47Z</time>
      </trkpt>
      <trkpt lat="42.8192" lon="2.03293">
        <ele>801</ele>
        <time>2024-10-11T13:35:48Z</time>
      </trkpt>
      <trkpt lat="42.81921" lon="2.03293">
        <ele>801.4</ele>
        <time>2024-10-11T13:35:49Z</time>
      </trkpt>
      <trkpt lat="42.81925" lon="2.03293">
        <ele>801.4</ele>
        <time>2024-10-11T13:35:50Z</time>
      </trkpt>
      <trkpt lat="42.81926" lon="2.03293">
        <ele>801.4</ele>
        <time>2024-10-11T13:35:51Z</time>
      </trkpt>
      <trkpt lat="42.81928" lon="2.03293">
        <ele>802.2</ele>
        <time>2024-10-11T13:35:52Z</time>
      </trkpt>
      <trkpt lat="42.81931" lon="2.03293">
        <ele>802.4</ele>
        <time>2024-10-11T13:35:53Z</time>
      </trkpt>
      <trkpt lat="42.81932" lon="2.03293">
        <ele>802.4</ele>
        <time>2024-10-11T13:35:54Z</time>
      </trkpt>
      <trkpt lat="42.81935" lon="2.03293">
        <ele>802.4</ele>
        <time>2024-10-11T13:35:55Z</time>
      </trkpt>
      <trkpt lat="42.81937" lon="2.03293">
        <ele>802.4</ele>
        <time>2024-10-11T13:35:56Z</time>
      </trkpt>
      <trkpt lat="42.81939" lon="2.03293">
        <ele>803.2</ele>
        <time>2024-10-11T13:35:57Z</time>
      </trkpt>
      <trkpt lat="42.81941" lon="2.03293">
        <ele>803.2</ele>
        <time>2024-10-11T13:35:58Z</time>
      </trkpt>
      <trkpt lat="42.81943" lon="2.03294">
        <ele>803.2</ele>
        <time>2024-10-11T13:35:59Z</time>
      </trkpt>
      <trkpt lat="42.81945" lon="2.03294">
        <ele>803.2</ele>
        <time>2024-10-11T13:36:00Z</time>
      </trkpt>
      <trkpt lat="42.81947" lon="2.03295">
        <ele>803.8</ele>
        <time>2024-10-11T13:36:01Z</time>
      </trkpt>
      <trkpt lat="42.8195" lon="2.03295">
        <ele>804</ele>
        <time>2024-10-11T13:36:02Z</time>
      </trkpt>
      <trkpt lat="42.81952" lon="2.03295">
        <ele>804</ele>
        <time>2024-10-11T13:36:03Z</time>
      </trkpt>
      <trkpt lat="42.81955" lon="2.03296">
        <ele>804</ele>
        <time>2024-10-11T13:36:04Z</time>
      </trkpt>
      <trkpt lat="42.81956" lon="2.03296">
        <ele>804.4</ele>
        <time>2024-10-11T13:36:05Z</time>
      </trkpt>
      <trkpt lat="42.8196" lon="2.03297">
        <ele>804.6</ele>
        <time>2024-10-11T13:36:06Z</time>
      </trkpt>
      <trkpt lat="42.81961" lon="2.03298">
        <ele>804.6</ele>
        <time>2024-10-11T13:36:07Z</time>
      </trkpt>
      <trkpt lat="42.81964" lon="2.03298">
        <ele>804.6</ele>
        <time>2024-10-11T13:36:08Z</time>
      </trkpt>
      <trkpt lat="42.81966" lon="2.03299">
        <ele>805</ele>
        <time>2024-10-11T13:36:09Z</time>
      </trkpt>
      <trkpt lat="42.81968" lon="2.03299">
        <ele>805</ele>
        <time>2024-10-11T13:36:10Z</time>
      </trkpt>
      <trkpt lat="42.8197" lon="2.033">
        <ele>805</ele>
        <time>2024-10-11T13:36:11Z</time>
      </trkpt>
      <trkpt lat="42.81973" lon="2.033">
        <ele>805</ele>
        <time>2024-10-11T13:36:12Z</time>
      </trkpt>
      <trkpt lat="42.81975" lon="2.03301">
        <ele>805</ele>
        <time>2024-10-11T13:36:13Z</time>
      </trkpt>
      <trkpt lat="42.81977" lon="2.03302">
        <ele>805</ele>
        <time>2024-10-11T13:36:14Z</time>
      </trkpt>
      <trkpt lat="42.81979" lon="2.03303">
        <ele>805.4</ele>
        <time>2024-10-11T13:36:15Z</time>
      </trkpt>
      <trkpt lat="42.81982" lon="2.03304">
        <ele>805.4</ele>
        <time>2024-10-11T13:36:16Z</time>
      </trkpt>
      <trkpt lat="42.81985" lon="2.03306">
        <ele>805.8</ele>
        <time>2024-10-11T13:36:17Z</time>
      </trkpt>
      <trkpt lat="42.81986" lon="2.03306">
        <ele>805.8</ele>
        <time>2024-10-11T13:36:18Z</time>
      </trkpt>
      <trkpt lat="42.8199" lon="2.03308">
        <ele>805.8</ele>
        <time>2024-10-11T13:36:19Z</time>
      </trkpt>
      <trkpt lat="42.81991" lon="2.03309">
        <ele>806.2</ele>
        <time>2024-10-11T13:36:20Z</time>
      </trkpt>
      <trkpt lat="42.81995" lon="2.03311">
        <ele>806.2</ele>
        <time>2024-10-11T13:36:21Z</time>
      </trkpt>
      <trkpt lat="42.81996" lon="2.03312">
        <ele>806.2</ele>
        <time>2024-10-11T13:36:22Z</time>
      </trkpt>
      <trkpt lat="42.81999" lon="2.03314">
        <ele>806.2</ele>
        <time>2024-10-11T13:36:23Z</time>
      </trkpt>
      <trkpt lat="42.82" lon="2.03315">
        <ele>806.8</ele>
        <time>2024-10-11T13:36:24Z</time>
      </trkpt>
      <trkpt lat="42.82003" lon="2.03317">
        <ele>806.6</ele>
        <time>2024-10-11T13:36:25Z</time>
      </trkpt>
      <trkpt lat="42.82004" lon="2.03318">
        <ele>806.6</ele>
        <time>2024-10-11T13:36:26Z</time>
      </trkpt>
      <trkpt lat="42.82006" lon="2.0332">
        <ele>806.6</ele>
        <time>2024-10-11T13:36:27Z</time>
      </trkpt>
      <trkpt lat="42.82009" lon="2.03323">
        <ele>807.4</ele>
        <time>2024-10-11T13:36:28Z</time>
      </trkpt>
      <trkpt lat="42.8201" lon="2.03323">
        <ele>807.4</ele>
        <time>2024-10-11T13:36:29Z</time>
      </trkpt>
      <trkpt lat="42.82013" lon="2.03326">
        <ele>807.4</ele>
        <time>2024-10-11T13:36:30Z</time>
      </trkpt>
      <trkpt lat="42.82014" lon="2.03326">
        <ele>807.4</ele>
        <time>2024-10-11T13:36:31Z</time>
      </trkpt>
      <trkpt lat="42.82017" lon="2.03329">
        <ele>807.4</ele>
        <time>2024-10-11T13:36:32Z</time>
      </trkpt>
      <trkpt lat="42.82018" lon="2.0333">
        <ele>808</ele>
        <time>2024-10-11T13:36:33Z</time>
      </trkpt>
      <trkpt lat="42.8202" lon="2.03331">
        <ele>808.2</ele>
        <time>2024-10-11T13:36:34Z</time>
      </trkpt>
      <trkpt lat="42.82023" lon="2.03334">
        <ele>808.2</ele>
        <time>2024-10-11T13:36:35Z</time>
      </trkpt>
      <trkpt lat="42.82024" lon="2.03335">
        <ele>808.2</ele>
        <time>2024-10-11T13:36:36Z</time>
      </trkpt>
      <trkpt lat="42.82026" lon="2.03336">
        <ele>808.8</ele>
        <time>2024-10-11T13:36:37Z</time>
      </trkpt>
      <trkpt lat="42.82028" lon="2.03337">
        <ele>808.8</ele>
        <time>2024-10-11T13:36:38Z</time>
      </trkpt>
      <trkpt lat="42.8203" lon="2.03339">
        <ele>808.8</ele>
        <time>2024-10-11T13:36:39Z</time>
      </trkpt>
      <trkpt lat="42.82032" lon="2.0334">
        <ele>808.8</ele>
        <time>2024-10-11T13:36:40Z</time>
      </trkpt>
      <trkpt lat="42.82034" lon="2.03342">
        <ele>809.6</ele>
        <time>2024-10-11T13:36:41Z</time>
      </trkpt>
      <trkpt lat="42.82036" lon="2.03343">
        <ele>809.8</ele>
        <time>2024-10-11T13:36:42Z</time>
      </trkpt>
      <trkpt lat="42.82039" lon="2.03345">
        <ele>809.8</ele>
        <time>2024-10-11T13:36:43Z</time>
      </trkpt>
      <trkpt lat="42.82041" lon="2.03346">
        <ele>809.8</ele>
        <time>2024-10-11T13:36:44Z</time>
      </trkpt>
      <trkpt lat="42.82044" lon="2.03349">
        <ele>809.8</ele>
        <time>2024-10-11T13:36:45Z</time>
      </trkpt>
      <trkpt lat="42.82045" lon="2.0335">
        <ele>810.6</ele>
        <time>2024-10-11T13:36:46Z</time>
      </trkpt>
      <trkpt lat="42.82047" lon="2.03351">
        <ele>810.6</ele>
        <time>2024-10-11T13:36:47Z</time>
      </trkpt>
      <trkpt lat="42.82049" lon="2.03353">
        <ele>810.6</ele>
        <time>2024-10-11T13:36:48Z</time>
      </trkpt>
      <trkpt lat="42.8205" lon="2.03355">
        <ele>810.6</ele>
        <time>2024-10-11T13:36:49Z</time>
      </trkpt>
      <trkpt lat="42.82052" lon="2.03357">
        <ele>811.2</ele>
        <time>2024-10-11T13:36:50Z</time>
      </trkpt>
      <trkpt lat="42.82054" lon="2.03358">
        <ele>811</ele>
        <time>2024-10-11T13:36:51Z</time>
      </trkpt>
      <trkpt lat="42.82055" lon="2.03359">
        <ele>811</ele>
        <time>2024-10-11T13:36:52Z</time>
      </trkpt>
      <trkpt lat="42.82057" lon="2.03361">
        <ele>811</ele>
        <time>2024-10-11T13:36:53Z</time>
      </trkpt>
      <trkpt lat="42.82058" lon="2.03364">
        <ele>811.8</ele>
        <time>2024-10-11T13:36:54Z</time>
      </trkpt>
      <trkpt lat="42.8206" lon="2.03366">
        <ele>812.4</ele>
        <time>2024-10-11T13:36:55Z</time>
      </trkpt>
      <trkpt lat="42.82062" lon="2.03367">
        <ele>812.4</ele>
        <time>2024-10-11T13:36:56Z</time>
      </trkpt>
      <trkpt lat="42.82063" lon="2.03369">
        <ele>812.4</ele>
        <time>2024-10-11T13:36:57Z</time>
      </trkpt>
      <trkpt lat="42.82065" lon="2.03371">
        <ele>812.4</ele>
        <time>2024-10-11T13:36:58Z</time>
      </trkpt>
      <trkpt lat="42.82067" lon="2.03372">
        <ele>812.4</ele>
        <time>2024-10-11T13:36:59Z</time>
      </trkpt>
      <trkpt lat="42.82068" lon="2.03374">
        <ele>812.8</ele>
        <time>2024-10-11T13:37:00Z</time>
      </trkpt>
      <trkpt lat="42.82071" lon="2.03377">
        <ele>813</ele>
        <time>2024-10-11T13:37:01Z</time>
      </trkpt>
      <trkpt lat="42.82072" lon="2.03378">
        <ele>813</ele>
        <time>2024-10-11T13:37:02Z</time>
      </trkpt>
      <trkpt lat="42.82074" lon="2.03381">
        <ele>813</ele>
        <time>2024-10-11T13:37:03Z</time>
      </trkpt>
      <trkpt lat="42.82075" lon="2.03382">
        <ele>813.4</ele>
        <time>2024-10-11T13:37:04Z</time>
      </trkpt>
      <trkpt lat="42.82077" lon="2.03384">
        <ele>813.6</ele>
        <time>2024-10-11T13:37:05Z</time>
      </trkpt>
      <trkpt lat="42.82079" lon="2.03386">
        <ele>813.6</ele>
        <time>2024-10-11T13:37:06Z</time>
      </trkpt>
      <trkpt lat="42.82081" lon="2.03389">
        <ele>813.6</ele>
        <time>2024-10-11T13:37:07Z</time>
      </trkpt>
      <trkpt lat="42.82082" lon="2.0339">
        <ele>814</ele>
        <time>2024-10-11T13:37:08Z</time>
      </trkpt>
      <trkpt lat="42.82084" lon="2.03393">
        <ele>814.2</ele>
        <time>2024-10-11T13:37:09Z</time>
      </trkpt>
      <trkpt lat="42.82086" lon="2.03396">
        <ele>814.2</ele>
        <time>2024-10-11T13:37:10Z</time>
      </trkpt>
      <trkpt lat="42.82087" lon="2.03397">
        <ele>814.2</ele>
        <time>2024-10-11T13:37:11Z</time>
      </trkpt>
      <trkpt lat="42.82089" lon="2.034">
        <ele>814.2</ele>
        <time>2024-10-11T13:37:12Z</time>
      </trkpt>
      <trkpt lat="42.8209" lon="2.03401">
        <ele>814.8</ele>
        <time>2024-10-11T13:37:13Z</time>
      </trkpt>
      <trkpt lat="42.82092" lon="2.03404">
        <ele>814.8</ele>
        <time>2024-10-11T13:37:14Z</time>
      </trkpt>
      <trkpt lat="42.82093" lon="2.03406">
        <ele>814.8</ele>
        <time>2024-10-11T13:37:15Z</time>
      </trkpt>
      <trkpt lat="42.82095" lon="2.03408">
        <ele>814.8</ele>
        <time>2024-10-11T13:37:16Z</time>
      </trkpt>
      <trkpt lat="42.82097" lon="2.03411">
        <ele>815.6</ele>
        <time>2024-10-11T13:37:17Z</time>
      </trkpt>
      <trkpt lat="42.82098" lon="2.03413">
        <ele>815.6</ele>
        <time>2024-10-11T13:37:18Z</time>
      </trkpt>
      <trkpt lat="42.82099" lon="2.03415">
        <ele>815.6</ele>
        <time>2024-10-11T13:37:19Z</time>
      </trkpt>
      <trkpt lat="42.82102" lon="2.03419">
        <ele>815.6</ele>
        <time>2024-10-11T13:37:20Z</time>
      </trkpt>
      <trkpt lat="42.82103" lon="2.0342">
        <ele>815.6</ele>
        <time>2024-10-11T13:37:21Z</time>
      </trkpt>
      <trkpt lat="42.82105" lon="2.03421">
        <ele>816.2</ele>
        <time>2024-10-11T13:37:22Z</time>
      </trkpt>
      <trkpt lat="42.82107" lon="2.03423">
        <ele>816.6</ele>
        <time>2024-10-11T13:37:23Z</time>
      </trkpt>
      <trkpt lat="42.8211" lon="2.03426">
        <ele>816.6</ele>
        <time>2024-10-11T13:37:24Z</time>
      </trkpt>
      <trkpt lat="42.82111" lon="2.03426">
        <ele>816.6</ele>
        <time>2024-10-11T13:37:25Z</time>
      </trkpt>
      <trkpt lat="42.82114" lon="2.03428">
        <ele>816.6</ele>
        <time>2024-10-11T13:37:26Z</time>
      </trkpt>
      <trkpt lat="42.82115" lon="2.03429">
        <ele>816.6</ele>
        <time>2024-10-11T13:37:27Z</time>
      </trkpt>
      <trkpt lat="42.82118" lon="2.0343">
        <ele>817.2</ele>
        <time>2024-10-11T13:37:28Z</time>
      </trkpt>
      <trkpt lat="42.82119" lon="2.0343">
        <ele>817.2</ele>
        <time>2024-10-11T13:37:29Z</time>
      </trkpt>
      <trkpt lat="42.82121" lon="2.0343">
        <ele>817.2</ele>
        <time>2024-10-11T13:37:30Z</time>
      </trkpt>
      <trkpt lat="42.82125" lon="2.03431">
        <ele>817.2</ele>
        <time>2024-10-11T13:37:31Z</time>
      </trkpt>
      <trkpt lat="42.82127" lon="2.03431">
        <ele>817.4</ele>
        <time>2024-10-11T13:37:32Z</time>
      </trkpt>
      <trkpt lat="42.82128" lon="2.03431">
        <ele>817.4</ele>
        <time>2024-10-11T13:37:33Z</time>
      </trkpt>
      <trkpt lat="42.8213" lon="2.03431">
        <ele>817.4</ele>
        <time>2024-10-11T13:37:34Z</time>
      </trkpt>
      <trkpt lat="42.82133" lon="2.03432">
        <ele>818.2</ele>
        <time>2024-10-11T13:37:35Z</time>
      </trkpt>
      <trkpt lat="42.82135" lon="2.03432">
        <ele>818.2</ele>
        <time>2024-10-11T13:37:36Z</time>
      </trkpt>
      <trkpt lat="42.82138" lon="2.03433">
        <ele>818.2</ele>
        <time>2024-10-11T13:37:37Z</time>
      </trkpt>
      <trkpt lat="42.82141" lon="2.03434">
        <ele>818.2</ele>
        <time>2024-10-11T13:37:38Z</time>
      </trkpt>
      <trkpt lat="42.82143" lon="2.03435">
        <ele>818.8</ele>
        <time>2024-10-11T13:37:39Z</time>
      </trkpt>
      <trkpt lat="42.82146" lon="2.03436">
        <ele>818.8</ele>
        <time>2024-10-11T13:37:40Z</time>
      </trkpt>
      <trkpt lat="42.82149" lon="2.03437">
        <ele>818.8</ele>
        <time>2024-10-11T13:37:41Z</time>
      </trkpt>
      <trkpt lat="42.82152" lon="2.03439">
        <ele>818.8</ele>
        <time>2024-10-11T13:37:42Z</time>
      </trkpt>
      <trkpt lat="42.82154" lon="2.0344">
        <ele>818.8</ele>
        <time>2024-10-11T13:37:43Z</time>
      </trkpt>
      <trkpt lat="42.82157" lon="2.03441">
        <ele>818.8</ele>
        <time>2024-10-11T13:37:44Z</time>
      </trkpt>
      <trkpt lat="42.82161" lon="2.03445">
        <ele>819.4</ele>
        <time>2024-10-11T13:37:45Z</time>
      </trkpt>
      <trkpt lat="42.82162" lon="2.03446">
        <ele>819.6</ele>
        <time>2024-10-11T13:37:46Z</time>
      </trkpt>
      <trkpt lat="42.82164" lon="2.03449">
        <ele>819.6</ele>
        <time>2024-10-11T13:37:47Z</time>
      </trkpt>
      <trkpt lat="42.82166" lon="2.03453">
        <ele>819.6</ele>
        <time>2024-10-11T13:37:48Z</time>
      </trkpt>
      <trkpt lat="42.82167" lon="2.03455">
        <ele>820.4</ele>
        <time>2024-10-11T13:37:49Z</time>
      </trkpt>
      <trkpt lat="42.82169" lon="2.0346">
        <ele>820.4</ele>
        <time>2024-10-11T13:37:50Z</time>
      </trkpt>
      <trkpt lat="42.8217" lon="2.03462">
        <ele>820.4</ele>
        <time>2024-10-11T13:37:51Z</time>
      </trkpt>
      <trkpt lat="42.8217" lon="2.03465">
        <ele>820.4</ele>
        <time>2024-10-11T13:37:52Z</time>
      </trkpt>
      <trkpt lat="42.8217" lon="2.03469">
        <ele>820.4</ele>
        <time>2024-10-11T13:37:53Z</time>
      </trkpt>
      <trkpt lat="42.82169" lon="2.0347">
        <ele>820.8</ele>
        <time>2024-10-11T13:37:54Z</time>
      </trkpt>
      <trkpt lat="42.82169" lon="2.03476">
        <ele>820.8</ele>
        <time>2024-10-11T13:37:55Z</time>
      </trkpt>
      <trkpt lat="42.82169" lon="2.03478">
        <ele>820.8</ele>
        <time>2024-10-11T13:37:56Z</time>
      </trkpt>
      <trkpt lat="42.82169" lon="2.03483">
        <ele>820.8</ele>
        <time>2024-10-11T13:37:57Z</time>
      </trkpt>
      <trkpt lat="42.82169" lon="2.03484">
        <ele>821.8</ele>
        <time>2024-10-11T13:37:58Z</time>
      </trkpt>
      <trkpt lat="42.8217" lon="2.03487">
        <ele>822.6</ele>
        <time>2024-10-11T13:37:59Z</time>
      </trkpt>
      <trkpt lat="42.82169" lon="2.03492">
        <ele>822.6</ele>
        <time>2024-10-11T13:38:00Z</time>
      </trkpt>
      <trkpt lat="42.82169" lon="2.03493">
        <ele>822.6</ele>
        <time>2024-10-11T13:38:01Z</time>
      </trkpt>
      <trkpt lat="42.82169" lon="2.03497">
        <ele>822.6</ele>
        <time>2024-10-11T13:38:02Z</time>
      </trkpt>
      <trkpt lat="42.8217" lon="2.035">
        <ele>823.4</ele>
        <time>2024-10-11T13:38:03Z</time>
      </trkpt>
      <trkpt lat="42.8217" lon="2.03502">
        <ele>823.4</ele>
        <time>2024-10-11T13:38:04Z</time>
      </trkpt>
      <trkpt lat="42.8217" lon="2.03503">
        <ele>823.4</ele>
        <time>2024-10-11T13:38:05Z</time>
      </trkpt>
      <trkpt lat="42.8217" lon="2.03503">
        <ele>823.4</ele>
        <time>2024-10-11T13:38:06Z</time>
      </trkpt>
      <trkpt lat="42.8217" lon="2.03503">
        <ele>823.8</ele>
        <time>2024-10-11T13:38:07Z</time>
      </trkpt>
      <trkpt lat="42.82177" lon="2.03522">
        <ele>824</ele>
        <time>2024-10-11T13:41:03Z</time>
      </trkpt>
      <trkpt lat="42.82177" lon="2.03523">
        <ele>824</ele>
        <time>2024-10-11T13:41:04Z</time>
      </trkpt>
      <trkpt lat="42.82178" lon="2.03525">
        <ele>824</ele>
        <time>2024-10-11T13:41:05Z</time>
      </trkpt>
      <trkpt lat="42.82178" lon="2.03527">
        <ele>824.4</ele>
        <time>2024-10-11T13:41:06Z</time>
      </trkpt>
      <trkpt lat="42.82178" lon="2.03529">
        <ele>824.6</ele>
        <time>2024-10-11T13:41:07Z</time>
      </trkpt>
      <trkpt lat="42.82179" lon="2.03531">
        <ele>824.6</ele>
        <time>2024-10-11T13:41:08Z</time>
      </trkpt>
      <trkpt lat="42.82179" lon="2.03533">
        <ele>824.6</ele>
        <time>2024-10-11T13:41:09Z</time>
      </trkpt>
      <trkpt lat="42.8218" lon="2.03536">
        <ele>825.6</ele>
        <time>2024-10-11T13:41:10Z</time>
      </trkpt>
      <trkpt lat="42.82181" lon="2.03539">
        <ele>825.4</ele>
        <time>2024-10-11T13:41:11Z</time>
      </trkpt>
      <trkpt lat="42.82181" lon="2.03542">
        <ele>825.4</ele>
        <time>2024-10-11T13:41:12Z</time>
      </trkpt>
      <trkpt lat="42.82182" lon="2.03545">
        <ele>825.4</ele>
        <time>2024-10-11T13:41:13Z</time>
      </trkpt>
      <trkpt lat="42.82183" lon="2.03548">
        <ele>825.4</ele>
        <time>2024-10-11T13:41:14Z</time>
      </trkpt>
      <trkpt lat="42.82183" lon="2.03551">
        <ele>826</ele>
        <time>2024-10-11T13:41:15Z</time>
      </trkpt>
      <trkpt lat="42.82183" lon="2.03554">
        <ele>826.4</ele>
        <time>2024-10-11T13:41:16Z</time>
      </trkpt>
      <trkpt lat="42.82183" lon="2.03557">
        <ele>826.4</ele>
        <time>2024-10-11T13:41:17Z</time>
      </trkpt>
      <trkpt lat="42.82183" lon="2.03559">
        <ele>826.4</ele>
        <time>2024-10-11T13:41:18Z</time>
      </trkpt>
      <trkpt lat="42.82182" lon="2.03562">
        <ele>826.4</ele>
        <time>2024-10-11T13:41:19Z</time>
      </trkpt>
      <trkpt lat="42.82182" lon="2.03564">
        <ele>826.4</ele>
        <time>2024-10-11T13:41:20Z</time>
      </trkpt>
      <trkpt lat="42.82182" lon="2.03565">
        <ele>827.2</ele>
        <time>2024-10-11T13:41:21Z</time>
      </trkpt>
      <trkpt lat="42.82182" lon="2.03569">
        <ele>827.2</ele>
        <time>2024-10-11T13:41:22Z</time>
      </trkpt>
      <trkpt lat="42.82182" lon="2.03571">
        <ele>827.2</ele>
        <time>2024-10-11T13:41:23Z</time>
      </trkpt>
      <trkpt lat="42.82182" lon="2.03575">
        <ele>827.2</ele>
        <time>2024-10-11T13:41:24Z</time>
      </trkpt>
      <trkpt lat="42.82182" lon="2.03576">
        <ele>828</ele>
        <time>2024-10-11T13:41:25Z</time>
      </trkpt>
      <trkpt lat="42.82181" lon="2.0358">
        <ele>828</ele>
        <time>2024-10-11T13:41:26Z</time>
      </trkpt>
      <trkpt lat="42.82181" lon="2.03585">
        <ele>828</ele>
        <time>2024-10-11T13:41:27Z</time>
      </trkpt>
      <trkpt lat="42.82181" lon="2.03587">
        <ele>828</ele>
        <time>2024-10-11T13:41:28Z</time>
      </trkpt>
      <trkpt lat="42.82182" lon="2.03592">
        <ele>828.6</ele>
        <time>2024-10-11T13:41:29Z</time>
      </trkpt>
      <trkpt lat="42.82182" lon="2.03594">
        <ele>828.6</ele>
        <time>2024-10-11T13:41:30Z</time>
      </trkpt>
      <trkpt lat="42.82183" lon="2.03598">
        <ele>828.6</ele>
        <time>2024-10-11T13:41:31Z</time>
      </trkpt>
      <trkpt lat="42.82183" lon="2.036">
        <ele>828.6</ele>
        <time>2024-10-11T13:41:32Z</time>
      </trkpt>
      <trkpt lat="42.82184" lon="2.03602">
        <ele>829</ele>
        <time>2024-10-11T13:41:33Z</time>
      </trkpt>
      <trkpt lat="42.82186" lon="2.03606">
        <ele>829.4</ele>
        <time>2024-10-11T13:41:34Z</time>
      </trkpt>
      <trkpt lat="42.82187" lon="2.03607">
        <ele>829.4</ele>
        <time>2024-10-11T13:41:35Z</time>
      </trkpt>
      <trkpt lat="42.82189" lon="2.03609">
        <ele>829.4</ele>
        <time>2024-10-11T13:41:36Z</time>
      </trkpt>
      <trkpt lat="42.82193" lon="2.03611">
        <ele>829.4</ele>
        <time>2024-10-11T13:41:37Z</time>
      </trkpt>
      <trkpt lat="42.82194" lon="2.03611">
        <ele>829.8</ele>
        <time>2024-10-11T13:41:38Z</time>
      </trkpt>
      <trkpt lat="42.82196" lon="2.03611">
        <ele>829.8</ele>
        <time>2024-10-11T13:41:39Z</time>
      </trkpt>
      <trkpt lat="42.82197" lon="2.03611">
        <ele>829.8</ele>
        <time>2024-10-11T13:41:40Z</time>
      </trkpt>
      <trkpt lat="42.82199" lon="2.03611">
        <ele>829.8</ele>
        <time>2024-10-11T13:41:41Z</time>
      </trkpt>
      <trkpt lat="42.822" lon="2.0361">
        <ele>830.6</ele>
        <time>2024-10-11T13:41:42Z</time>
      </trkpt>
      <trkpt lat="42.82201" lon="2.03609">
        <ele>830.8</ele>
        <time>2024-10-11T13:41:43Z</time>
      </trkpt>
      <trkpt lat="42.82203" lon="2.03608">
        <ele>830.8</ele>
        <time>2024-10-11T13:41:44Z</time>
      </trkpt>
      <trkpt lat="42.82204" lon="2.03607">
        <ele>830.8</ele>
        <time>2024-10-11T13:41:45Z</time>
      </trkpt>
      <trkpt lat="42.82205" lon="2.03606">
        <ele>831.2</ele>
        <time>2024-10-11T13:41:46Z</time>
      </trkpt>
      <trkpt lat="42.82206" lon="2.03604">
        <ele>831.4</ele>
        <time>2024-10-11T13:41:47Z</time>
      </trkpt>
      <trkpt lat="42.82207" lon="2.03603">
        <ele>831.4</ele>
        <time>2024-10-11T13:41:48Z</time>
      </trkpt>
      <trkpt lat="42.82207" lon="2.03601">
        <ele>831.4</ele>
        <time>2024-10-11T13:41:49Z</time>
      </trkpt>
      <trkpt lat="42.82208" lon="2.03599">
        <ele>831.4</ele>
        <time>2024-10-11T13:41:50Z</time>
      </trkpt>
      <trkpt lat="42.82208" lon="2.03597">
        <ele>832.2</ele>
        <time>2024-10-11T13:41:51Z</time>
      </trkpt>
      <trkpt lat="42.82208" lon="2.03595">
        <ele>832.4</ele>
        <time>2024-10-11T13:41:52Z</time>
      </trkpt>
      <trkpt lat="42.82209" lon="2.03594">
        <ele>832.4</ele>
        <time>2024-10-11T13:41:53Z</time>
      </trkpt>
      <trkpt lat="42.82209" lon="2.03592">
        <ele>832.4</ele>
        <time>2024-10-11T13:41:54Z</time>
      </trkpt>
      <trkpt lat="42.82209" lon="2.0359">
        <ele>832.4</ele>
        <time>2024-10-11T13:41:55Z</time>
      </trkpt>
      <trkpt lat="42.82209" lon="2.03588">
        <ele>832.8</ele>
        <time>2024-10-11T13:41:56Z</time>
      </trkpt>
      <trkpt lat="42.82208" lon="2.03585">
        <ele>833.2</ele>
        <time>2024-10-11T13:41:57Z</time>
      </trkpt>
      <trkpt lat="42.82208" lon="2.03583">
        <ele>833.2</ele>
        <time>2024-10-11T13:41:58Z</time>
      </trkpt>
      <trkpt lat="42.82208" lon="2.03581">
        <ele>833.2</ele>
        <time>2024-10-11T13:41:59Z</time>
      </trkpt>
      <trkpt lat="42.82208" lon="2.03577">
        <ele>833.2</ele>
        <time>2024-10-11T13:42:00Z</time>
      </trkpt>
      <trkpt lat="42.82207" lon="2.03575">
        <ele>833.8</ele>
        <time>2024-10-11T13:42:01Z</time>
      </trkpt>
      <trkpt lat="42.82207" lon="2.03573">
        <ele>833.8</ele>
        <time>2024-10-11T13:42:02Z</time>
      </trkpt>
      <trkpt lat="42.82207" lon="2.03571">
        <ele>833.8</ele>
        <time>2024-10-11T13:42:03Z</time>
      </trkpt>
      <trkpt lat="42.82206" lon="2.03567">
        <ele>833.8</ele>
        <time>2024-10-11T13:42:04Z</time>
      </trkpt>
      <trkpt lat="42.82206" lon="2.03566">
        <ele>834</ele>
        <time>2024-10-11T13:42:05Z</time>
      </trkpt>
      <trkpt lat="42.82205" lon="2.03562">
        <ele>834</ele>
        <time>2024-10-11T13:42:06Z</time>
      </trkpt>
      <trkpt lat="42.82205" lon="2.03561">
        <ele>834</ele>
        <time>2024-10-11T13:42:07Z</time>
      </trkpt>
      <trkpt lat="42.82204" lon="2.03558">
        <ele>834</ele>
        <time>2024-10-11T13:42:08Z</time>
      </trkpt>
      <trkpt lat="42.82203" lon="2.03554">
        <ele>834</ele>
        <time>2024-10-11T13:42:09Z</time>
      </trkpt>
      <trkpt lat="42.82203" lon="2.03552">
        <ele>834.2</ele>
        <time>2024-10-11T13:42:10Z</time>
      </trkpt>
      <trkpt lat="42.82202" lon="2.03548">
        <ele>834.2</ele>
        <time>2024-10-11T13:42:11Z</time>
      </trkpt>
      <trkpt lat="42.82202" lon="2.03546">
        <ele>834.2</ele>
        <time>2024-10-11T13:42:12Z</time>
      </trkpt>
      <trkpt lat="42.82202" lon="2.03542">
        <ele>834.2</ele>
        <time>2024-10-11T13:42:13Z</time>
      </trkpt>
      <trkpt lat="42.82201" lon="2.0354">
        <ele>834.4</ele>
        <time>2024-10-11T13:42:14Z</time>
      </trkpt>
      <trkpt lat="42.82201" lon="2.03537">
        <ele>834.6</ele>
        <time>2024-10-11T13:42:15Z</time>
      </trkpt>
      <trkpt lat="42.82201" lon="2.03533">
        <ele>834.6</ele>
        <time>2024-10-11T13:42:16Z</time>
      </trkpt>
      <trkpt lat="42.82202" lon="2.03531">
        <ele>834.6</ele>
        <time>2024-10-11T13:42:17Z</time>
      </trkpt>
      <trkpt lat="42.82202" lon="2.03528">
        <ele>834.6</ele>
        <time>2024-10-11T13:42:18Z</time>
      </trkpt>
      <trkpt lat="42.82202" lon="2.03524">
        <ele>835.2</ele>
        <time>2024-10-11T13:42:19Z</time>
      </trkpt>
      <trkpt lat="42.82202" lon="2.03522">
        <ele>835.2</ele>
        <time>2024-10-11T13:42:20Z</time>
      </trkpt>
      <trkpt lat="42.82203" lon="2.03518">
        <ele>835.2</ele>
        <time>2024-10-11T13:42:21Z</time>
      </trkpt>
      <trkpt lat="42.82203" lon="2.03517">
        <ele>835.2</ele>
        <time>2024-10-11T13:42:22Z</time>
      </trkpt>
      <trkpt lat="42.82204" lon="2.03513">
        <ele>835.8</ele>
        <time>2024-10-11T13:42:23Z</time>
      </trkpt>
      <trkpt lat="42.82204" lon="2.03511">
        <ele>835.8</ele>
        <time>2024-10-11T13:42:24Z</time>
      </trkpt>
      <trkpt lat="42.82205" lon="2.03507">
        <ele>835.8</ele>
        <time>2024-10-11T13:42:25Z</time>
      </trkpt>
      <trkpt lat="42.82206" lon="2.03506">
        <ele>835.8</ele>
        <time>2024-10-11T13:42:26Z</time>
      </trkpt>
      <trkpt lat="42.82207" lon="2.03502">
        <ele>836.2</ele>
        <time>2024-10-11T13:42:27Z</time>
      </trkpt>
      <trkpt lat="42.82208" lon="2.035">
        <ele>836.4</ele>
        <time>2024-10-11T13:42:28Z</time>
      </trkpt>
      <trkpt lat="42.82209" lon="2.03497">
        <ele>836.4</ele>
        <time>2024-10-11T13:42:29Z</time>
      </trkpt>
      <trkpt lat="42.8221" lon="2.03496">
        <ele>836.4</ele>
        <time>2024-10-11T13:42:30Z</time>
      </trkpt>
      <trkpt lat="42.82211" lon="2.03492">
        <ele>836.4</ele>
        <time>2024-10-11T13:42:31Z</time>
      </trkpt>
      <trkpt lat="42.82211" lon="2.0349">
        <ele>837</ele>
        <time>2024-10-11T13:42:32Z</time>
      </trkpt>
      <trkpt lat="42.82212" lon="2.03486">
        <ele>837</ele>
        <time>2024-10-11T13:42:33Z</time>
      </trkpt>
      <trkpt lat="42.82212" lon="2.03484">
        <ele>837</ele>
        <time>2024-10-11T13:42:34Z</time>
      </trkpt>
      <trkpt lat="42.82212" lon="2.0348">
        <ele>837</ele>
        <time>2024-10-11T13:42:35Z</time>
      </trkpt>
      <trkpt lat="42.82213" lon="2.03479">
        <ele>837</ele>
        <time>2024-10-11T13:42:36Z</time>
      </trkpt>
      <trkpt lat="42.82213" lon="2.03474">
        <ele>837</ele>
        <time>2024-10-11T13:42:37Z</time>
      </trkpt>
      <trkpt lat="42.82213" lon="2.03473">
        <ele>837.6</ele>
        <time>2024-10-11T13:42:38Z</time>
      </trkpt>
      <trkpt lat="42.82213" lon="2.0347">
        <ele>837.6</ele>
        <time>2024-10-11T13:42:39Z</time>
      </trkpt>
      <trkpt lat="42.82214" lon="2.03467">
        <ele>837.6</ele>
        <time>2024-10-11T13:42:40Z</time>
      </trkpt>
      <trkpt lat="42.82214" lon="2.03464">
        <ele>837.6</ele>
        <time>2024-10-11T13:42:41Z</time>
      </trkpt>
      <trkpt lat="42.82213" lon="2.03462">
        <ele>838</ele>
        <time>2024-10-11T13:42:42Z</time>
      </trkpt>
      <trkpt lat="42.82213" lon="2.03459">
        <ele>838</ele>
        <time>2024-10-11T13:42:43Z</time>
      </trkpt>
      <trkpt lat="42.82213" lon="2.03455">
        <ele>838</ele>
        <time>2024-10-11T13:42:44Z</time>
      </trkpt>
      <trkpt lat="42.82213" lon="2.03454">
        <ele>838.6</ele>
        <time>2024-10-11T13:42:45Z</time>
      </trkpt>
      <trkpt lat="42.82212" lon="2.0345">
        <ele>838.6</ele>
        <time>2024-10-11T13:42:46Z</time>
      </trkpt>
      <trkpt lat="42.82211" lon="2.03448">
        <ele>838.8</ele>
        <time>2024-10-11T13:42:47Z</time>
      </trkpt>
      <trkpt lat="42.8221" lon="2.03444">
        <ele>838.8</ele>
        <time>2024-10-11T13:42:48Z</time>
      </trkpt>
      <trkpt lat="42.8221" lon="2.03443">
        <ele>838.8</ele>
        <time>2024-10-11T13:42:49Z</time>
      </trkpt>
      <trkpt lat="42.82209" lon="2.03439">
        <ele>839.4</ele>
        <time>2024-10-11T13:42:50Z</time>
      </trkpt>
      <trkpt lat="42.82208" lon="2.03438">
        <ele>839.6</ele>
        <time>2024-10-11T13:42:51Z</time>
      </trkpt>
      <trkpt lat="42.82207" lon="2.03435">
        <ele>839.6</ele>
        <time>2024-10-11T13:42:52Z</time>
      </trkpt>
      <trkpt lat="42.82206" lon="2.03432">
        <ele>839.6</ele>
        <time>2024-10-11T13:42:53Z</time>
      </trkpt>
      <trkpt lat="42.82206" lon="2.03431">
        <ele>840</ele>
        <time>2024-10-11T13:42:54Z</time>
      </trkpt>
      <trkpt lat="42.82205" lon="2.03427">
        <ele>840</ele>
        <time>2024-10-11T13:42:55Z</time>
      </trkpt>
      <trkpt lat="42.82204" lon="2.03426">
        <ele>840.4</ele>
        <time>2024-10-11T13:42:56Z</time>
      </trkpt>
      <trkpt lat="42.82203" lon="2.03422">
        <ele>840.4</ele>
        <time>2024-10-11T13:42:57Z</time>
      </trkpt>
      <trkpt lat="42.82202" lon="2.03421">
        <ele>840.4</ele>
        <time>2024-10-11T13:42:58Z</time>
      </trkpt>
      <trkpt lat="42.82201" lon="2.03417">
        <ele>840.8</ele>
        <time>2024-10-11T13:42:59Z</time>
      </trkpt>
      <trkpt lat="42.82201" lon="2.03416">
        <ele>841.2</ele>
        <time>2024-10-11T13:43:00Z</time>
      </trkpt>
      <trkpt lat="42.822" lon="2.03414">
        <ele>841.2</ele>
        <time>2024-10-11T13:43:01Z</time>
      </trkpt>
      <trkpt lat="42.82198" lon="2.0341">
        <ele>841.2</ele>
        <time>2024-10-11T13:43:02Z</time>
      </trkpt>
      <trkpt lat="42.82197" lon="2.03409">
        <ele>841.6</ele>
        <time>2024-10-11T13:43:03Z</time>
      </trkpt>
      <trkpt lat="42.82196" lon="2.03405">
        <ele>841.8</ele>
        <time>2024-10-11T13:43:04Z</time>
      </trkpt>
      <trkpt lat="42.82195" lon="2.03404">
        <ele>841.8</ele>
        <time>2024-10-11T13:43:05Z</time>
      </trkpt>
      <trkpt lat="42.82193" lon="2.034">
        <ele>841.8</ele>
        <time>2024-10-11T13:43:06Z</time>
      </trkpt>
      <trkpt lat="42.82193" lon="2.03398">
        <ele>842</ele>
        <time>2024-10-11T13:43:07Z</time>
      </trkpt>
      <trkpt lat="42.82191" lon="2.03395">
        <ele>842.2</ele>
        <time>2024-10-11T13:43:08Z</time>
      </trkpt>
      <trkpt lat="42.8219" lon="2.03393">
        <ele>842.2</ele>
        <time>2024-10-11T13:43:09Z</time>
      </trkpt>
      <trkpt lat="42.82188" lon="2.0339">
        <ele>842.2</ele>
        <time>2024-10-11T13:43:10Z</time>
      </trkpt>
      <trkpt lat="42.82188" lon="2.03388">
        <ele>842.2</ele>
        <time>2024-10-11T13:43:11Z</time>
      </trkpt>
      <trkpt lat="42.82186" lon="2.03385">
        <ele>842.8</ele>
        <time>2024-10-11T13:43:12Z</time>
      </trkpt>
      <trkpt lat="42.82185" lon="2.03384">
        <ele>843</ele>
        <time>2024-10-11T13:43:13Z</time>
      </trkpt>
      <trkpt lat="42.82184" lon="2.03381">
        <ele>843</ele>
        <time>2024-10-11T13:43:14Z</time>
      </trkpt>
      <trkpt lat="42.82183" lon="2.0338">
        <ele>843</ele>
        <time>2024-10-11T13:43:15Z</time>
      </trkpt>
      <trkpt lat="42.82181" lon="2.03376">
        <ele>843.4</ele>
        <time>2024-10-11T13:43:16Z</time>
      </trkpt>
      <trkpt lat="42.8218" lon="2.03375">
        <ele>843.6</ele>
        <time>2024-10-11T13:43:17Z</time>
      </trkpt>
      <trkpt lat="42.82178" lon="2.03372">
        <ele>843.6</ele>
        <time>2024-10-11T13:43:18Z</time>
      </trkpt>
      <trkpt lat="42.82177" lon="2.03371">
        <ele>843.6</ele>
        <time>2024-10-11T13:43:19Z</time>
      </trkpt>
      <trkpt lat="42.82176" lon="2.03369">
        <ele>843.6</ele>
        <time>2024-10-11T13:43:20Z</time>
      </trkpt>
      <trkpt lat="42.82175" lon="2.03366">
        <ele>843.6</ele>
        <time>2024-10-11T13:43:21Z</time>
      </trkpt>
      <trkpt lat="42.82172" lon="2.03363">
        <ele>844.4</ele>
        <time>2024-10-11T13:43:22Z</time>
      </trkpt>
      <trkpt lat="42.82172" lon="2.03362">
        <ele>844.4</ele>
        <time>2024-10-11T13:43:23Z</time>
      </trkpt>
      <trkpt lat="42.8217" lon="2.0336">
        <ele>844.4</ele>
        <time>2024-10-11T13:43:24Z</time>
      </trkpt>
      <trkpt lat="42.82167" lon="2.03357">
        <ele>844.4</ele>
        <time>2024-10-11T13:43:25Z</time>
      </trkpt>
      <trkpt lat="42.82166" lon="2.03356">
        <ele>844.8</ele>
        <time>2024-10-11T13:43:26Z</time>
      </trkpt>
      <trkpt lat="42.82165" lon="2.03355">
        <ele>844.8</ele>
        <time>2024-10-11T13:43:27Z</time>
      </trkpt>
      <trkpt lat="42.82162" lon="2.03352">
        <ele>845.2</ele>
        <time>2024-10-11T13:43:28Z</time>
      </trkpt>
      <trkpt lat="42.82161" lon="2.03351">
        <ele>845.2</ele>
        <time>2024-10-11T13:43:29Z</time>
      </trkpt>
      <trkpt lat="42.82159" lon="2.03349">
        <ele>845.4</ele>
        <time>2024-10-11T13:43:30Z</time>
      </trkpt>
      <trkpt lat="42.82156" lon="2.03346">
        <ele>845.4</ele>
        <time>2024-10-11T13:43:31Z</time>
      </trkpt>
      <trkpt lat="42.82156" lon="2.03345">
        <ele>845.6</ele>
        <time>2024-10-11T13:43:32Z</time>
      </trkpt>
      <trkpt lat="42.82153" lon="2.03341">
        <ele>845.6</ele>
        <time>2024-10-11T13:43:33Z</time>
      </trkpt>
      <trkpt lat="42.82153" lon="2.0334">
        <ele>845.6</ele>
        <time>2024-10-11T13:43:34Z</time>
      </trkpt>
      <trkpt lat="42.8215" lon="2.03336">
        <ele>846.2</ele>
        <time>2024-10-11T13:43:35Z</time>
      </trkpt>
      <trkpt lat="42.8215" lon="2.03335">
        <ele>846.2</ele>
        <time>2024-10-11T13:43:36Z</time>
      </trkpt>
      <trkpt lat="42.82148" lon="2.03333">
        <ele>846.2</ele>
        <time>2024-10-11T13:43:37Z</time>
      </trkpt>
      <trkpt lat="42.82146" lon="2.03329">
        <ele>846.2</ele>
        <time>2024-10-11T13:43:38Z</time>
      </trkpt>
      <trkpt lat="42.82145" lon="2.03328">
        <ele>846.2</ele>
        <time>2024-10-11T13:43:39Z</time>
      </trkpt>
      <trkpt lat="42.82143" lon="2.03324">
        <ele>846.2</ele>
        <time>2024-10-11T13:43:40Z</time>
      </trkpt>
      <trkpt lat="42.82142" lon="2.03323">
        <ele>847</ele>
        <time>2024-10-11T13:43:41Z</time>
      </trkpt>
      <trkpt lat="42.82141" lon="2.03319">
        <ele>847</ele>
        <time>2024-10-11T13:43:42Z</time>
      </trkpt>
      <trkpt lat="42.8214" lon="2.03317">
        <ele>847</ele>
        <time>2024-10-11T13:43:43Z</time>
      </trkpt>
      <trkpt lat="42.82139" lon="2.03314">
        <ele>847</ele>
        <time>2024-10-11T13:43:44Z</time>
      </trkpt>
      <trkpt lat="42.82138" lon="2.0331">
        <ele>847.6</ele>
        <time>2024-10-11T13:43:45Z</time>
      </trkpt>
      <trkpt lat="42.82137" lon="2.03309">
        <ele>847.6</ele>
        <time>2024-10-11T13:43:46Z</time>
      </trkpt>
      <trkpt lat="42.82136" lon="2.03306">
        <ele>847.6</ele>
        <time>2024-10-11T13:43:47Z</time>
      </trkpt>
      <trkpt lat="42.82135" lon="2.03303">
        <ele>847.6</ele>
        <time>2024-10-11T13:43:48Z</time>
      </trkpt>
      <trkpt lat="42.82134" lon="2.03299">
        <ele>848.2</ele>
        <time>2024-10-11T13:43:49Z</time>
      </trkpt>
      <trkpt lat="42.82134" lon="2.03298">
        <ele>848.2</ele>
        <time>2024-10-11T13:43:50Z</time>
      </trkpt>
      <trkpt lat="42.82133" lon="2.03293">
        <ele>848.2</ele>
        <time>2024-10-11T13:43:51Z</time>
      </trkpt>
      <trkpt lat="42.82133" lon="2.03292">
        <ele>848.8</ele>
        <time>2024-10-11T13:43:52Z</time>
      </trkpt>
      <trkpt lat="42.82132" lon="2.03288">
        <ele>849</ele>
        <time>2024-10-11T13:43:53Z</time>
      </trkpt>
      <trkpt lat="42.82132" lon="2.03286">
        <ele>849</ele>
        <time>2024-10-11T13:43:54Z</time>
      </trkpt>
      <trkpt lat="42.82131" lon="2.03282">
        <ele>849</ele>
        <time>2024-10-11T13:43:55Z</time>
      </trkpt>
      <trkpt lat="42.82131" lon="2.0328">
        <ele>849</ele>
        <time>2024-10-11T13:43:56Z</time>
      </trkpt>
      <trkpt lat="42.8213" lon="2.03277">
        <ele>849</ele>
        <time>2024-10-11T13:43:57Z</time>
      </trkpt>
      <trkpt lat="42.8213" lon="2.03275">
        <ele>849.6</ele>
        <time>2024-10-11T13:43:58Z</time>
      </trkpt>
      <trkpt lat="42.82129" lon="2.03272">
        <ele>849.6</ele>
        <time>2024-10-11T13:43:59Z</time>
      </trkpt>
      <trkpt lat="42.82129" lon="2.03269">
        <ele>849.6</ele>
        <time>2024-10-11T13:44:00Z</time>
      </trkpt>
      <trkpt lat="42.82128" lon="2.03266">
        <ele>850.2</ele>
        <time>2024-10-11T13:44:01Z</time>
      </trkpt>
      <trkpt lat="42.82127" lon="2.03263">
        <ele>850.4</ele>
        <time>2024-10-11T13:44:02Z</time>
      </trkpt>
      <trkpt lat="42.82126" lon="2.0326">
        <ele>850.4</ele>
        <time>2024-10-11T13:44:03Z</time>
      </trkpt>
      <trkpt lat="42.82125" lon="2.03258">
        <ele>850.4</ele>
        <time>2024-10-11T13:44:04Z</time>
      </trkpt>
      <trkpt lat="42.82124" lon="2.03255">
        <ele>850.4</ele>
        <time>2024-10-11T13:44:05Z</time>
      </trkpt>
      <trkpt lat="42.82123" lon="2.03252">
        <ele>850.4</ele>
        <time>2024-10-11T13:44:06Z</time>
      </trkpt>
      <trkpt lat="42.82122" lon="2.03249">
        <ele>851.2</ele>
        <time>2024-10-11T13:44:07Z</time>
      </trkpt>
      <trkpt lat="42.82121" lon="2.03246">
        <ele>851</ele>
        <time>2024-10-11T13:44:08Z</time>
      </trkpt>
      <trkpt lat="42.8212" lon="2.03244">
        <ele>851</ele>
        <time>2024-10-11T13:44:09Z</time>
      </trkpt>
      <trkpt lat="42.82118" lon="2.0324">
        <ele>851</ele>
        <time>2024-10-11T13:44:10Z</time>
      </trkpt>
      <trkpt lat="42.82118" lon="2.03239">
        <ele>851.2</ele>
        <time>2024-10-11T13:44:11Z</time>
      </trkpt>
      <trkpt lat="42.82117" lon="2.03236">
        <ele>851.6</ele>
        <time>2024-10-11T13:44:12Z</time>
      </trkpt>
      <trkpt lat="42.82115" lon="2.03234">
        <ele>851.6</ele>
        <time>2024-10-11T13:44:13Z</time>
      </trkpt>
      <trkpt lat="42.82113" lon="2.0323">
        <ele>851.6</ele>
        <time>2024-10-11T13:44:14Z</time>
      </trkpt>
      <trkpt lat="42.82112" lon="2.03229">
        <ele>851.6</ele>
        <time>2024-10-11T13:44:15Z</time>
      </trkpt>
      <trkpt lat="42.8211" lon="2.03227">
        <ele>852.2</ele>
        <time>2024-10-11T13:44:16Z</time>
      </trkpt>
      <trkpt lat="42.82109" lon="2.03226">
        <ele>852.4</ele>
        <time>2024-10-11T13:44:17Z</time>
      </trkpt>
      <trkpt lat="42.82107" lon="2.03222">
        <ele>852.4</ele>
        <time>2024-10-11T13:44:18Z</time>
      </trkpt>
      <trkpt lat="42.82107" lon="2.03221">
        <ele>852.4</ele>
        <time>2024-10-11T13:44:19Z</time>
      </trkpt>
      <trkpt lat="42.82105" lon="2.03219">
        <ele>852.8</ele>
        <time>2024-10-11T13:44:20Z</time>
      </trkpt>
      <trkpt lat="42.82103" lon="2.03216">
        <ele>852.8</ele>
        <time>2024-10-11T13:44:21Z</time>
      </trkpt>
      <trkpt lat="42.82102" lon="2.03215">
        <ele>852.8</ele>
        <time>2024-10-11T13:44:22Z</time>
      </trkpt>
      <trkpt lat="42.821" lon="2.03212">
        <ele>852.8</ele>
        <time>2024-10-11T13:44:23Z</time>
      </trkpt>
      <trkpt lat="42.82099" lon="2.03211">
        <ele>853.4</ele>
        <time>2024-10-11T13:44:24Z</time>
      </trkpt>
      <trkpt lat="42.82096" lon="2.03208">
        <ele>853.6</ele>
        <time>2024-10-11T13:44:25Z</time>
      </trkpt>
      <trkpt lat="42.82096" lon="2.03207">
        <ele>853.6</ele>
        <time>2024-10-11T13:44:26Z</time>
      </trkpt>
      <trkpt lat="42.82094" lon="2.03205">
        <ele>853.6</ele>
        <time>2024-10-11T13:44:27Z</time>
      </trkpt>
      <trkpt lat="42.82091" lon="2.03203">
        <ele>853.6</ele>
        <time>2024-10-11T13:44:28Z</time>
      </trkpt>
      <trkpt lat="42.8209" lon="2.03202">
        <ele>854</ele>
        <time>2024-10-11T13:44:29Z</time>
      </trkpt>
      <trkpt lat="42.82088" lon="2.03199">
        <ele>854.2</ele>
        <time>2024-10-11T13:44:30Z</time>
      </trkpt>
      <trkpt lat="42.82087" lon="2.03198">
        <ele>854.2</ele>
        <time>2024-10-11T13:44:31Z</time>
      </trkpt>
      <trkpt lat="42.82084" lon="2.03195">
        <ele>854.2</ele>
        <time>2024-10-11T13:44:32Z</time>
      </trkpt>
      <trkpt lat="42.82083" lon="2.03195">
        <ele>854.6</ele>
        <time>2024-10-11T13:44:33Z</time>
      </trkpt>
      <trkpt lat="42.8208" lon="2.03192">
        <ele>854.6</ele>
        <time>2024-10-11T13:44:34Z</time>
      </trkpt>
      <trkpt lat="42.82079" lon="2.03191">
        <ele>854.6</ele>
        <time>2024-10-11T13:44:35Z</time>
      </trkpt>
      <trkpt lat="42.82076" lon="2.03189">
        <ele>854.6</ele>
        <time>2024-10-11T13:44:36Z</time>
      </trkpt>
      <trkpt lat="42.82075" lon="2.03188">
        <ele>855.2</ele>
        <time>2024-10-11T13:44:37Z</time>
      </trkpt>
      <trkpt lat="42.82072" lon="2.03186">
        <ele>855.2</ele>
        <time>2024-10-11T13:44:38Z</time>
      </trkpt>
      <trkpt lat="42.82072" lon="2.03185">
        <ele>855.2</ele>
        <time>2024-10-11T13:44:39Z</time>
      </trkpt>
      <trkpt lat="42.8207" lon="2.03184">
        <ele>855.2</ele>
        <time>2024-10-11T13:44:40Z</time>
      </trkpt>
      <trkpt lat="42.82068" lon="2.03182">
        <ele>855.2</ele>
        <time>2024-10-11T13:44:41Z</time>
      </trkpt>
      <trkpt lat="42.82066" lon="2.03181">
        <ele>855.8</ele>
        <time>2024-10-11T13:44:42Z</time>
      </trkpt>
      <trkpt lat="42.82063" lon="2.03179">
        <ele>856</ele>
        <time>2024-10-11T13:44:43Z</time>
      </trkpt>
      <trkpt lat="42.82062" lon="2.03178">
        <ele>856</ele>
        <time>2024-10-11T13:44:44Z</time>
      </trkpt>
      <trkpt lat="42.8206" lon="2.03176">
        <ele>856</ele>
        <time>2024-10-11T13:44:45Z</time>
      </trkpt>
      <trkpt lat="42.82059" lon="2.03176">
        <ele>856</ele>
        <time>2024-10-11T13:44:46Z</time>
      </trkpt>
      <trkpt lat="42.82057" lon="2.03173">
        <ele>857</ele>
        <time>2024-10-11T13:44:47Z</time>
      </trkpt>
      <trkpt lat="42.82056" lon="2.03173">
        <ele>857</ele>
        <time>2024-10-11T13:44:48Z</time>
      </trkpt>
      <trkpt lat="42.82054" lon="2.03171">
        <ele>857</ele>
        <time>2024-10-11T13:44:49Z</time>
      </trkpt>
      <trkpt lat="42.82052" lon="2.0317">
        <ele>857</ele>
        <time>2024-10-11T13:44:50Z</time>
      </trkpt>
      <trkpt lat="42.8205" lon="2.0317">
        <ele>857</ele>
        <time>2024-10-11T13:44:51Z</time>
      </trkpt>
      <trkpt lat="42.82047" lon="2.03168">
        <ele>857.4</ele>
        <time>2024-10-11T13:44:52Z</time>
      </trkpt>
      <trkpt lat="42.82046" lon="2.03168">
        <ele>857.6</ele>
        <time>2024-10-11T13:44:53Z</time>
      </trkpt>
      <trkpt lat="42.82044" lon="2.03166">
        <ele>857.6</ele>
        <time>2024-10-11T13:44:54Z</time>
      </trkpt>
      <trkpt lat="42.82041" lon="2.03165">
        <ele>857.6</ele>
        <time>2024-10-11T13:44:55Z</time>
      </trkpt>
      <trkpt lat="42.8204" lon="2.03164">
        <ele>857.6</ele>
        <time>2024-10-11T13:44:56Z</time>
      </trkpt>
      <trkpt lat="42.82039" lon="2.03163">
        <ele>858.4</ele>
        <time>2024-10-11T13:44:57Z</time>
      </trkpt>
      <trkpt lat="42.82036" lon="2.03162">
        <ele>858.4</ele>
        <time>2024-10-11T13:44:58Z</time>
      </trkpt>
      <trkpt lat="42.82035" lon="2.03161">
        <ele>858.4</ele>
        <time>2024-10-11T13:44:59Z</time>
      </trkpt>
      <trkpt lat="42.82032" lon="2.03159">
        <ele>858.4</ele>
        <time>2024-10-11T13:45:00Z</time>
      </trkpt>
      <trkpt lat="42.82031" lon="2.03158">
        <ele>859</ele>
        <time>2024-10-11T13:45:01Z</time>
      </trkpt>
      <trkpt lat="42.8203" lon="2.03157">
        <ele>859</ele>
        <time>2024-10-11T13:45:02Z</time>
      </trkpt>
      <trkpt lat="42.82027" lon="2.03154">
        <ele>859</ele>
        <time>2024-10-11T13:45:03Z</time>
      </trkpt>
      <trkpt lat="42.82027" lon="2.03153">
        <ele>859</ele>
        <time>2024-10-11T13:45:04Z</time>
      </trkpt>
      <trkpt lat="42.82024" lon="2.0315">
        <ele>859.4</ele>
        <time>2024-10-11T13:45:05Z</time>
      </trkpt>
      <trkpt lat="42.82024" lon="2.03149">
        <ele>859.6</ele>
        <time>2024-10-11T13:45:06Z</time>
      </trkpt>
      <trkpt lat="42.82022" lon="2.03146">
        <ele>859.6</ele>
        <time>2024-10-11T13:45:07Z</time>
      </trkpt>
      <trkpt lat="42.82021" lon="2.03145">
        <ele>859.6</ele>
        <time>2024-10-11T13:45:08Z</time>
      </trkpt>
      <trkpt lat="42.82019" lon="2.03142">
        <ele>860</ele>
        <time>2024-10-11T13:45:09Z</time>
      </trkpt>
      <trkpt lat="42.82019" lon="2.0314">
        <ele>860</ele>
        <time>2024-10-11T13:45:10Z</time>
      </trkpt>
      <trkpt lat="42.82018" lon="2.03138">
        <ele>860</ele>
        <time>2024-10-11T13:45:11Z</time>
      </trkpt>
      <trkpt lat="42.82018" lon="2.03136">
        <ele>860</ele>
        <time>2024-10-11T13:45:12Z</time>
      </trkpt>
      <trkpt lat="42.82018" lon="2.03134">
        <ele>860</ele>
        <time>2024-10-11T13:45:13Z</time>
      </trkpt>
      <trkpt lat="42.82018" lon="2.03131">
        <ele>860.8</ele>
        <time>2024-10-11T13:45:14Z</time>
      </trkpt>
      <trkpt lat="42.82019" lon="2.03129">
        <ele>860.8</ele>
        <time>2024-10-11T13:45:15Z</time>
      </trkpt>
      <trkpt lat="42.82019" lon="2.03127">
        <ele>860.8</ele>
        <time>2024-10-11T13:45:16Z</time>
      </trkpt>
      <trkpt lat="42.8202" lon="2.03126">
        <ele>860.8</ele>
        <time>2024-10-11T13:45:17Z</time>
      </trkpt>
      <trkpt lat="42.82021" lon="2.03124">
        <ele>861.8</ele>
        <time>2024-10-11T13:45:18Z</time>
      </trkpt>
      <trkpt lat="42.82023" lon="2.03123">
        <ele>861.8</ele>
        <time>2024-10-11T13:45:19Z</time>
      </trkpt>
      <trkpt lat="42.82024" lon="2.03122">
        <ele>862.2</ele>
        <time>2024-10-11T13:45:20Z</time>
      </trkpt>
      <trkpt lat="42.82026" lon="2.03122">
        <ele>862.2</ele>
        <time>2024-10-11T13:45:21Z</time>
      </trkpt>
      <trkpt lat="42.82027" lon="2.03122">
        <ele>863.2</ele>
        <time>2024-10-11T13:45:22Z</time>
      </trkpt>
      <trkpt lat="42.82029" lon="2.03122">
        <ele>863.2</ele>
        <time>2024-10-11T13:45:23Z</time>
      </trkpt>
      <trkpt lat="42.82032" lon="2.03123">
        <ele>863.4</ele>
        <time>2024-10-11T13:45:24Z</time>
      </trkpt>
      <trkpt lat="42.82033" lon="2.03124">
        <ele>863.4</ele>
        <time>2024-10-11T13:45:25Z</time>
      </trkpt>
      <trkpt lat="42.82035" lon="2.03125">
        <ele>863.4</ele>
        <time>2024-10-11T13:45:26Z</time>
      </trkpt>
      <trkpt lat="42.82036" lon="2.03126">
        <ele>863.8</ele>
        <time>2024-10-11T13:45:27Z</time>
      </trkpt>
      <trkpt lat="42.82038" lon="2.03129">
        <ele>864</ele>
        <time>2024-10-11T13:45:28Z</time>
      </trkpt>
      <trkpt lat="42.82039" lon="2.0313">
        <ele>864</ele>
        <time>2024-10-11T13:45:29Z</time>
      </trkpt>
      <trkpt lat="42.82042" lon="2.03133">
        <ele>864</ele>
        <time>2024-10-11T13:45:30Z</time>
      </trkpt>
      <trkpt lat="42.82042" lon="2.03134">
        <ele>864</ele>
        <time>2024-10-11T13:45:31Z</time>
      </trkpt>
      <trkpt lat="42.82045" lon="2.03138">
        <ele>864.2</ele>
        <time>2024-10-11T13:45:32Z</time>
      </trkpt>
      <trkpt lat="42.82046" lon="2.03139">
        <ele>864.2</ele>
        <time>2024-10-11T13:45:33Z</time>
      </trkpt>
      <trkpt lat="42.8205" lon="2.03143">
        <ele>864.2</ele>
        <time>2024-10-11T13:45:34Z</time>
      </trkpt>
      <trkpt lat="42.82051" lon="2.03144">
        <ele>864.2</ele>
        <time>2024-10-11T13:45:35Z</time>
      </trkpt>
      <trkpt lat="42.82053" lon="2.03146">
        <ele>864.2</ele>
        <time>2024-10-11T13:45:36Z</time>
      </trkpt>
      <trkpt lat="42.82057" lon="2.03149">
        <ele>864.4</ele>
        <time>2024-10-11T13:45:37Z</time>
      </trkpt>
      <trkpt lat="42.82058" lon="2.0315">
        <ele>864.2</ele>
        <time>2024-10-11T13:45:38Z</time>
      </trkpt>
      <trkpt lat="42.82062" lon="2.03152">
        <ele>864.2</ele>
        <time>2024-10-11T13:45:39Z</time>
      </trkpt>
      <trkpt lat="42.82064" lon="2.03153">
        <ele>864.2</ele>
        <time>2024-10-11T13:45:40Z</time>
      </trkpt>
      <trkpt lat="42.82067" lon="2.03154">
        <ele>864.2</ele>
        <time>2024-10-11T13:45:41Z</time>
      </trkpt>
      <trkpt lat="42.8207" lon="2.03155">
        <ele>863.8</ele>
        <time>2024-10-11T13:45:42Z</time>
      </trkpt>
      <trkpt lat="42.82075" lon="2.03157">
        <ele>863.8</ele>
        <time>2024-10-11T13:45:43Z</time>
      </trkpt>
      <trkpt lat="42.82077" lon="2.03157">
        <ele>863.8</ele>
        <time>2024-10-11T13:45:44Z</time>
      </trkpt>
      <trkpt lat="42.8208" lon="2.03158">
        <ele>863.8</ele>
        <time>2024-10-11T13:45:45Z</time>
      </trkpt>
      <trkpt lat="42.82084" lon="2.03159">
        <ele>863.8</ele>
        <time>2024-10-11T13:45:46Z</time>
      </trkpt>
      <trkpt lat="42.82086" lon="2.03159">
        <ele>864.2</ele>
        <time>2024-10-11T13:45:47Z</time>
      </trkpt>
      <trkpt lat="42.8209" lon="2.03159">
        <ele>864.2</ele>
        <time>2024-10-11T13:45:48Z</time>
      </trkpt>
      <trkpt lat="42.82091" lon="2.0316">
        <ele>864.2</ele>
        <time>2024-10-11T13:45:49Z</time>
      </trkpt>
      <trkpt lat="42.82095" lon="2.0316">
        <ele>864.2</ele>
        <time>2024-10-11T13:45:50Z</time>
      </trkpt>
      <trkpt lat="42.82096" lon="2.0316">
        <ele>865</ele>
        <time>2024-10-11T13:45:51Z</time>
      </trkpt>
      <trkpt lat="42.82099" lon="2.03161">
        <ele>865</ele>
        <time>2024-10-11T13:45:52Z</time>
      </trkpt>
      <trkpt lat="42.82101" lon="2.03161">
        <ele>865</ele>
        <time>2024-10-11T13:45:53Z</time>
      </trkpt>
      <trkpt lat="42.82105" lon="2.03162">
        <ele>865</ele>
        <time>2024-10-11T13:45:54Z</time>
      </trkpt>
      <trkpt lat="42.82107" lon="2.03162">
        <ele>865.4</ele>
        <time>2024-10-11T13:45:55Z</time>
      </trkpt>
      <trkpt lat="42.82109" lon="2.03163">
        <ele>865.4</ele>
        <time>2024-10-11T13:45:56Z</time>
      </trkpt>
      <trkpt lat="42.82112" lon="2.03163">
        <ele>865.4</ele>
        <time>2024-10-11T13:45:57Z</time>
      </trkpt>
      <trkpt lat="42.82115" lon="2.03164">
        <ele>865.4</ele>
        <time>2024-10-11T13:45:58Z</time>
      </trkpt>
      <trkpt lat="42.82118" lon="2.03165">
        <ele>866</ele>
        <time>2024-10-11T13:45:59Z</time>
      </trkpt>
      <trkpt lat="42.82122" lon="2.03167">
        <ele>866.2</ele>
        <time>2024-10-11T13:46:00Z</time>
      </trkpt>
      <trkpt lat="42.82123" lon="2.03168">
        <ele>866.2</ele>
        <time>2024-10-11T13:46:01Z</time>
      </trkpt>
      <trkpt lat="42.82127" lon="2.03169">
        <ele>866.2</ele>
        <time>2024-10-11T13:46:02Z</time>
      </trkpt>
      <trkpt lat="42.82128" lon="2.0317">
        <ele>866.2</ele>
        <time>2024-10-11T13:46:03Z</time>
      </trkpt>
      <trkpt lat="42.82131" lon="2.03171">
        <ele>867.2</ele>
        <time>2024-10-11T13:46:04Z</time>
      </trkpt>
      <trkpt lat="42.82132" lon="2.03172">
        <ele>867.2</ele>
        <time>2024-10-11T13:46:05Z</time>
      </trkpt>
      <trkpt lat="42.82134" lon="2.03173">
        <ele>867.2</ele>
        <time>2024-10-11T13:46:06Z</time>
      </trkpt>
      <trkpt lat="42.82138" lon="2.03175">
        <ele>867.8</ele>
        <time>2024-10-11T13:46:07Z</time>
      </trkpt>
      <trkpt lat="42.82139" lon="2.03175">
        <ele>868</ele>
        <time>2024-10-11T13:46:08Z</time>
      </trkpt>
      <trkpt lat="42.82142" lon="2.03177">
        <ele>868</ele>
        <time>2024-10-11T13:46:09Z</time>
      </trkpt>
      <trkpt lat="42.82143" lon="2.03178">
        <ele>868</ele>
        <time>2024-10-11T13:46:10Z</time>
      </trkpt>
      <trkpt lat="42.82146" lon="2.0318">
        <ele>868</ele>
        <time>2024-10-11T13:46:11Z</time>
      </trkpt>
      <trkpt lat="42.82148" lon="2.03181">
        <ele>868</ele>
        <time>2024-10-11T13:46:12Z</time>
      </trkpt>
      <trkpt lat="42.82151" lon="2.03183">
        <ele>868.6</ele>
        <time>2024-10-11T13:46:13Z</time>
      </trkpt>
      <trkpt lat="42.82151" lon="2.03184">
        <ele>868.8</ele>
        <time>2024-10-11T13:46:14Z</time>
      </trkpt>
      <trkpt lat="42.82155" lon="2.03187">
        <ele>868.8</ele>
        <time>2024-10-11T13:46:15Z</time>
      </trkpt>
      <trkpt lat="42.82156" lon="2.03188">
        <ele>868.8</ele>
        <time>2024-10-11T13:46:16Z</time>
      </trkpt>
      <trkpt lat="42.82159" lon="2.03191">
        <ele>868.8</ele>
        <time>2024-10-11T13:46:17Z</time>
      </trkpt>
      <trkpt lat="42.8216" lon="2.03192">
        <ele>869.4</ele>
        <time>2024-10-11T13:46:18Z</time>
      </trkpt>
      <trkpt lat="42.82162" lon="2.03194">
        <ele>869.4</ele>
        <time>2024-10-11T13:46:19Z</time>
      </trkpt>
      <trkpt lat="42.82165" lon="2.03197">
        <ele>869.4</ele>
        <time>2024-10-11T13:46:20Z</time>
      </trkpt>
      <trkpt lat="42.82166" lon="2.03198">
        <ele>869.8</ele>
        <time>2024-10-11T13:46:21Z</time>
      </trkpt>
      <trkpt lat="42.82167" lon="2.032">
        <ele>869.8</ele>
        <time>2024-10-11T13:46:22Z</time>
      </trkpt>
      <trkpt lat="42.82169" lon="2.03202">
        <ele>870</ele>
        <time>2024-10-11T13:46:23Z</time>
      </trkpt>
      <trkpt lat="42.82172" lon="2.03205">
        <ele>870</ele>
        <time>2024-10-11T13:46:24Z</time>
      </trkpt>
      <trkpt lat="42.82172" lon="2.03206">
        <ele>870</ele>
        <time>2024-10-11T13:46:25Z</time>
      </trkpt>
      <trkpt lat="42.82175" lon="2.0321">
        <ele>870.8</ele>
        <time>2024-10-11T13:46:26Z</time>
      </trkpt>
      <trkpt lat="42.82176" lon="2.03211">
        <ele>871.2</ele>
        <time>2024-10-11T13:46:27Z</time>
      </trkpt>
      <trkpt lat="42.82177" lon="2.03213">
        <ele>871.2</ele>
        <time>2024-10-11T13:46:28Z</time>
      </trkpt>
      <trkpt lat="42.8218" lon="2.03217">
        <ele>871.2</ele>
        <time>2024-10-11T13:46:29Z</time>
      </trkpt>
      <trkpt lat="42.82181" lon="2.03218">
        <ele>871.8</ele>
        <time>2024-10-11T13:46:30Z</time>
      </trkpt>
      <trkpt lat="42.82184" lon="2.03221">
        <ele>871.8</ele>
        <time>2024-10-11T13:46:31Z</time>
      </trkpt>
      <trkpt lat="42.82185" lon="2.03222">
        <ele>872.2</ele>
        <time>2024-10-11T13:46:32Z</time>
      </trkpt>
      <trkpt lat="42.82187" lon="2.03225">
        <ele>872.2</ele>
        <time>2024-10-11T13:46:33Z</time>
      </trkpt>
      <trkpt lat="42.82188" lon="2.03226">
        <ele>872.2</ele>
        <time>2024-10-11T13:46:34Z</time>
      </trkpt>
      <trkpt lat="42.8219" lon="2.03227">
        <ele>872.8</ele>
        <time>2024-10-11T13:46:35Z</time>
      </trkpt>
      <trkpt lat="42.82193" lon="2.0323">
        <ele>873.2</ele>
        <time>2024-10-11T13:46:36Z</time>
      </trkpt>
      <trkpt lat="42.82194" lon="2.03231">
        <ele>873.2</ele>
        <time>2024-10-11T13:46:37Z</time>
      </trkpt>
      <trkpt lat="42.82196" lon="2.03232">
        <ele>873.2</ele>
        <time>2024-10-11T13:46:38Z</time>
      </trkpt>
      <trkpt lat="42.82199" lon="2.03234">
        <ele>873.2</ele>
        <time>2024-10-11T13:46:39Z</time>
      </trkpt>
      <trkpt lat="42.822" lon="2.03235">
        <ele>873.2</ele>
        <time>2024-10-11T13:46:40Z</time>
      </trkpt>
      <trkpt lat="42.82202" lon="2.03237">
        <ele>873.6</ele>
        <time>2024-10-11T13:46:41Z</time>
      </trkpt>
      <trkpt lat="42.82206" lon="2.03239">
        <ele>873.6</ele>
        <time>2024-10-11T13:46:42Z</time>
      </trkpt>
      <trkpt lat="42.82207" lon="2.0324">
        <ele>873.6</ele>
        <time>2024-10-11T13:46:43Z</time>
      </trkpt>
      <trkpt lat="42.82209" lon="2.03242">
        <ele>874.2</ele>
        <time>2024-10-11T13:46:44Z</time>
      </trkpt>
      <trkpt lat="42.8221" lon="2.03243">
        <ele>874.2</ele>
        <time>2024-10-11T13:46:45Z</time>
      </trkpt>
      <trkpt lat="42.82213" lon="2.03245">
        <ele>874.2</ele>
        <time>2024-10-11T13:46:46Z</time>
      </trkpt>
      <trkpt lat="42.82214" lon="2.03246">
        <ele>874.2</ele>
        <time>2024-10-11T13:46:47Z</time>
      </trkpt>
      <trkpt lat="42.82217" lon="2.03249">
        <ele>875</ele>
        <time>2024-10-11T13:46:48Z</time>
      </trkpt>
      <trkpt lat="42.82218" lon="2.03249">
        <ele>875</ele>
        <time>2024-10-11T13:46:49Z</time>
      </trkpt>
      <trkpt lat="42.82221" lon="2.03252">
        <ele>875.2</ele>
        <time>2024-10-11T13:46:50Z</time>
      </trkpt>
      <trkpt lat="42.82222" lon="2.03252">
        <ele>875.2</ele>
        <time>2024-10-11T13:46:51Z</time>
      </trkpt>
      <trkpt lat="42.82225" lon="2.03254">
        <ele>875.6</ele>
        <time>2024-10-11T13:46:52Z</time>
      </trkpt>
      <trkpt lat="42.82226" lon="2.03255">
        <ele>875.8</ele>
        <time>2024-10-11T13:46:53Z</time>
      </trkpt>
      <trkpt lat="42.82229" lon="2.03257">
        <ele>875.8</ele>
        <time>2024-10-11T13:46:54Z</time>
      </trkpt>
      <trkpt lat="42.8223" lon="2.03258">
        <ele>875.8</ele>
        <time>2024-10-11T13:46:55Z</time>
      </trkpt>
      <trkpt lat="42.82233" lon="2.0326">
        <ele>875.8</ele>
        <time>2024-10-11T13:46:56Z</time>
      </trkpt>
      <trkpt lat="42.82234" lon="2.0326">
        <ele>875.8</ele>
        <time>2024-10-11T13:46:57Z</time>
      </trkpt>
      <trkpt lat="42.82237" lon="2.03263">
        <ele>876</ele>
        <time>2024-10-11T13:46:58Z</time>
      </trkpt>
      <trkpt lat="42.82238" lon="2.03263">
        <ele>876.2</ele>
        <time>2024-10-11T13:46:59Z</time>
      </trkpt>
      <trkpt lat="42.82241" lon="2.03266">
        <ele>876.2</ele>
        <time>2024-10-11T13:47:00Z</time>
      </trkpt>
      <trkpt lat="42.82242" lon="2.03266">
        <ele>876.2</ele>
        <time>2024-10-11T13:47:01Z</time>
      </trkpt>
      <trkpt lat="42.82244" lon="2.03268">
        <ele>876.2</ele>
        <time>2024-10-11T13:47:02Z</time>
      </trkpt>
      <trkpt lat="42.82247" lon="2.03271">
        <ele>877</ele>
        <time>2024-10-11T13:47:03Z</time>
      </trkpt>
      <trkpt lat="42.82248" lon="2.03272">
        <ele>877</ele>
        <time>2024-10-11T13:47:04Z</time>
      </trkpt>
      <trkpt lat="42.82251" lon="2.03275">
        <ele>877</ele>
        <time>2024-10-11T13:47:05Z</time>
      </trkpt>
      <trkpt lat="42.82252" lon="2.03276">
        <ele>877</ele>
        <time>2024-10-11T13:47:06Z</time>
      </trkpt>
      <trkpt lat="42.82254" lon="2.03279">
        <ele>877</ele>
        <time>2024-10-11T13:47:07Z</time>
      </trkpt>
      <trkpt lat="42.82255" lon="2.0328">
        <ele>877.6</ele>
        <time>2024-10-11T13:47:08Z</time>
      </trkpt>
      <trkpt lat="42.82258" lon="2.03283">
        <ele>877.6</ele>
        <time>2024-10-11T13:47:09Z</time>
      </trkpt>
      <trkpt lat="42.82258" lon="2.03284">
        <ele>877.6</ele>
        <time>2024-10-11T13:47:10Z</time>
      </trkpt>
      <trkpt lat="42.8226" lon="2.03287">
        <ele>878</ele>
        <time>2024-10-11T13:47:11Z</time>
      </trkpt>
      <trkpt lat="42.82262" lon="2.0329">
        <ele>878</ele>
        <time>2024-10-11T13:47:12Z</time>
      </trkpt>
      <trkpt lat="42.82263" lon="2.03292">
        <ele>878.4</ele>
        <time>2024-10-11T13:47:13Z</time>
      </trkpt>
      <trkpt lat="42.82265" lon="2.03295">
        <ele>878.4</ele>
        <time>2024-10-11T13:47:14Z</time>
      </trkpt>
      <trkpt lat="42.82266" lon="2.03296">
        <ele>879</ele>
        <time>2024-10-11T13:47:15Z</time>
      </trkpt>
      <trkpt lat="42.82268" lon="2.033">
        <ele>879</ele>
        <time>2024-10-11T13:47:16Z</time>
      </trkpt>
      <trkpt lat="42.82269" lon="2.03302">
        <ele>879</ele>
        <time>2024-10-11T13:47:17Z</time>
      </trkpt>
      <trkpt lat="42.8227" lon="2.03304">
        <ele>879</ele>
        <time>2024-10-11T13:47:18Z</time>
      </trkpt>
      <trkpt lat="42.82271" lon="2.03307">
        <ele>879</ele>
        <time>2024-10-11T13:47:19Z</time>
      </trkpt>
      <trkpt lat="42.82272" lon="2.0331">
        <ele>879.8</ele>
        <time>2024-10-11T13:47:20Z</time>
      </trkpt>
      <trkpt lat="42.82274" lon="2.03313">
        <ele>879.8</ele>
        <time>2024-10-11T13:47:21Z</time>
      </trkpt>
      <trkpt lat="42.82275" lon="2.03315">
        <ele>879.8</ele>
        <time>2024-10-11T13:47:22Z</time>
      </trkpt>
      <trkpt lat="42.82276" lon="2.03317">
        <ele>879.8</ele>
        <time>2024-10-11T13:47:23Z</time>
      </trkpt>
      <trkpt lat="42.82278" lon="2.0332">
        <ele>880.2</ele>
        <time>2024-10-11T13:47:24Z</time>
      </trkpt>
      <trkpt lat="42.82279" lon="2.03322">
        <ele>880.4</ele>
        <time>2024-10-11T13:47:25Z</time>
      </trkpt>
      <trkpt lat="42.8228" lon="2.03325">
        <ele>880.4</ele>
        <time>2024-10-11T13:47:26Z</time>
      </trkpt>
      <trkpt lat="42.82281" lon="2.03327">
        <ele>880.4</ele>
        <time>2024-10-11T13:47:27Z</time>
      </trkpt>
      <trkpt lat="42.82282" lon="2.0333">
        <ele>880.6</ele>
        <time>2024-10-11T13:47:28Z</time>
      </trkpt>
      <trkpt lat="42.82284" lon="2.03334">
        <ele>880.8</ele>
        <time>2024-10-11T13:47:29Z</time>
      </trkpt>
      <trkpt lat="42.82285" lon="2.03335">
        <ele>880.8</ele>
        <time>2024-10-11T13:47:30Z</time>
      </trkpt>
      <trkpt lat="42.82286" lon="2.03339">
        <ele>880.8</ele>
        <time>2024-10-11T13:47:31Z</time>
      </trkpt>
      <trkpt lat="42.82287" lon="2.0334">
        <ele>880.8</ele>
        <time>2024-10-11T13:47:32Z</time>
      </trkpt>
      <trkpt lat="42.82289" lon="2.03345">
        <ele>881.4</ele>
        <time>2024-10-11T13:47:33Z</time>
      </trkpt>
      <trkpt lat="42.82289" lon="2.03346">
        <ele>881.2</ele>
        <time>2024-10-11T13:47:34Z</time>
      </trkpt>
      <trkpt lat="42.82291" lon="2.0335">
        <ele>881.2</ele>
        <time>2024-10-11T13:47:35Z</time>
      </trkpt>
      <trkpt lat="42.82291" lon="2.03352">
        <ele>881.2</ele>
        <time>2024-10-11T13:47:36Z</time>
      </trkpt>
      <trkpt lat="42.82293" lon="2.03355">
        <ele>881.4</ele>
        <time>2024-10-11T13:47:37Z</time>
      </trkpt>
      <trkpt lat="42.82294" lon="2.03358">
        <ele>881.4</ele>
        <time>2024-10-11T13:47:38Z</time>
      </trkpt>
      <trkpt lat="42.82295" lon="2.0336">
        <ele>882.2</ele>
        <time>2024-10-11T13:47:39Z</time>
      </trkpt>
      <trkpt lat="42.82297" lon="2.03363">
        <ele>882.2</ele>
        <time>2024-10-11T13:47:40Z</time>
      </trkpt>
      <trkpt lat="42.82297" lon="2.03364">
        <ele>882.2</ele>
        <time>2024-10-11T13:47:41Z</time>
      </trkpt>
      <trkpt lat="42.823" lon="2.03367">
        <ele>882.8</ele>
        <time>2024-10-11T13:47:42Z</time>
      </trkpt>
      <trkpt lat="42.82301" lon="2.03368">
        <ele>883.2</ele>
        <time>2024-10-11T13:47:43Z</time>
      </trkpt>
      <trkpt lat="42.82303" lon="2.03372">
        <ele>883.2</ele>
        <time>2024-10-11T13:47:44Z</time>
      </trkpt>
      <trkpt lat="42.82304" lon="2.03373">
        <ele>883.2</ele>
        <time>2024-10-11T13:47:45Z</time>
      </trkpt>
      <trkpt lat="42.82305" lon="2.03375">
        <ele>883.2</ele>
        <time>2024-10-11T13:47:46Z</time>
      </trkpt>
      <trkpt lat="42.82307" lon="2.03379">
        <ele>883.6</ele>
        <time>2024-10-11T13:47:47Z</time>
      </trkpt>
      <trkpt lat="42.82308" lon="2.0338">
        <ele>884</ele>
        <time>2024-10-11T13:47:48Z</time>
      </trkpt>
      <trkpt lat="42.82309" lon="2.03382">
        <ele>884</ele>
        <time>2024-10-11T13:47:49Z</time>
      </trkpt>
      <trkpt lat="42.82311" lon="2.03386">
        <ele>884</ele>
        <time>2024-10-11T13:47:50Z</time>
      </trkpt>
      <trkpt lat="42.82311" lon="2.03387">
        <ele>884.2</ele>
        <time>2024-10-11T13:47:51Z</time>
      </trkpt>
      <trkpt lat="42.82313" lon="2.03392">
        <ele>884.2</ele>
        <time>2024-10-11T13:47:52Z</time>
      </trkpt>
      <trkpt lat="42.82313" lon="2.03393">
        <ele>884.2</ele>
        <time>2024-10-11T13:47:53Z</time>
      </trkpt>
      <trkpt lat="42.82314" lon="2.03396">
        <ele>884.2</ele>
        <time>2024-10-11T13:47:54Z</time>
      </trkpt>
      <trkpt lat="42.82316" lon="2.03401">
        <ele>884.2</ele>
        <time>2024-10-11T13:47:55Z</time>
      </trkpt>
      <trkpt lat="42.82316" lon="2.03402">
        <ele>884.6</ele>
        <time>2024-10-11T13:47:56Z</time>
      </trkpt>
      <trkpt lat="42.82318" lon="2.03406">
        <ele>884.6</ele>
        <time>2024-10-11T13:47:57Z</time>
      </trkpt>
      <trkpt lat="42.82318" lon="2.03408">
        <ele>884.6</ele>
        <time>2024-10-11T13:47:58Z</time>
      </trkpt>
      <trkpt lat="42.8232" lon="2.03412">
        <ele>884.6</ele>
        <time>2024-10-11T13:47:59Z</time>
      </trkpt>
      <trkpt lat="42.8232" lon="2.03413">
        <ele>885.2</ele>
        <time>2024-10-11T13:48:00Z</time>
      </trkpt>
      <trkpt lat="42.82321" lon="2.03416">
        <ele>885.4</ele>
        <time>2024-10-11T13:48:01Z</time>
      </trkpt>
      <trkpt lat="42.82323" lon="2.03419">
        <ele>885.4</ele>
        <time>2024-10-11T13:48:02Z</time>
      </trkpt>
      <trkpt lat="42.82323" lon="2.0342">
        <ele>885.4</ele>
        <time>2024-10-11T13:48:03Z</time>
      </trkpt>
      <trkpt lat="42.82324" lon="2.03423">
        <ele>885.4</ele>
        <time>2024-10-11T13:48:04Z</time>
      </trkpt>
      <trkpt lat="42.82326" lon="2.03426">
        <ele>886</ele>
        <time>2024-10-11T13:48:05Z</time>
      </trkpt>
      <trkpt lat="42.82326" lon="2.03428">
        <ele>886</ele>
        <time>2024-10-11T13:48:06Z</time>
      </trkpt>
      <trkpt lat="42.82328" lon="2.03432">
        <ele>886</ele>
        <time>2024-10-11T13:48:07Z</time>
      </trkpt>
      <trkpt lat="42.82328" lon="2.03433">
        <ele>886</ele>
        <time>2024-10-11T13:48:08Z</time>
      </trkpt>
      <trkpt lat="42.82329" lon="2.03435">
        <ele>886.6</ele>
        <time>2024-10-11T13:48:09Z</time>
      </trkpt>
      <trkpt lat="42.8233" lon="2.03438">
        <ele>887</ele>
        <time>2024-10-11T13:48:10Z</time>
      </trkpt>
      <trkpt lat="42.82331" lon="2.03439">
        <ele>887</ele>
        <time>2024-10-11T13:48:11Z</time>
      </trkpt>
      <trkpt lat="42.82333" lon="2.03442">
        <ele>887</ele>
        <time>2024-10-11T13:48:12Z</time>
      </trkpt>
      <trkpt lat="42.82334" lon="2.03443">
        <ele>887</ele>
        <time>2024-10-11T13:48:13Z</time>
      </trkpt>
      <trkpt lat="42.82336" lon="2.03445">
        <ele>887.6</ele>
        <time>2024-10-11T13:48:14Z</time>
      </trkpt>
      <trkpt lat="42.82338" lon="2.03446">
        <ele>887.6</ele>
        <time>2024-10-11T13:48:15Z</time>
      </trkpt>
      <trkpt lat="42.82342" lon="2.03447">
        <ele>887.6</ele>
        <time>2024-10-11T13:48:16Z</time>
      </trkpt>
      <trkpt lat="42.82343" lon="2.03448">
        <ele>887.6</ele>
        <time>2024-10-11T13:48:17Z</time>
      </trkpt>
      <trkpt lat="42.82347" lon="2.03447">
        <ele>887.6</ele>
        <time>2024-10-11T13:48:18Z</time>
      </trkpt>
      <trkpt lat="42.82349" lon="2.03447">
        <ele>888</ele>
        <time>2024-10-11T13:48:19Z</time>
      </trkpt>
      <trkpt lat="42.82351" lon="2.03445">
        <ele>888</ele>
        <time>2024-10-11T13:48:20Z</time>
      </trkpt>
      <trkpt lat="42.82354" lon="2.03443">
        <ele>888</ele>
        <time>2024-10-11T13:48:21Z</time>
      </trkpt>
      <trkpt lat="42.82356" lon="2.03441">
        <ele>888</ele>
        <time>2024-10-11T13:48:22Z</time>
      </trkpt>
      <trkpt lat="42.82359" lon="2.03437">
        <ele>888.4</ele>
        <time>2024-10-11T13:48:23Z</time>
      </trkpt>
      <trkpt lat="42.82359" lon="2.03435">
        <ele>888.4</ele>
        <time>2024-10-11T13:48:24Z</time>
      </trkpt>
      <trkpt lat="42.82361" lon="2.03431">
        <ele>888.4</ele>
        <time>2024-10-11T13:48:25Z</time>
      </trkpt>
      <trkpt lat="42.82362" lon="2.03429">
        <ele>888.4</ele>
        <time>2024-10-11T13:48:26Z</time>
      </trkpt>
      <trkpt lat="42.82363" lon="2.03424">
        <ele>889</ele>
        <time>2024-10-11T13:48:27Z</time>
      </trkpt>
      <trkpt lat="42.82363" lon="2.03423">
        <ele>889.6</ele>
        <time>2024-10-11T13:48:28Z</time>
      </trkpt>
      <trkpt lat="42.82363" lon="2.03419">
        <ele>889.6</ele>
        <time>2024-10-11T13:48:29Z</time>
      </trkpt>
      <trkpt lat="42.82363" lon="2.03416">
        <ele>889.6</ele>
        <time>2024-10-11T13:48:30Z</time>
      </trkpt>
      <trkpt lat="42.82362" lon="2.03411">
        <ele>889.6</ele>
        <time>2024-10-11T13:48:31Z</time>
      </trkpt>
      <trkpt lat="42.82362" lon="2.03409">
        <ele>890.2</ele>
        <time>2024-10-11T13:48:32Z</time>
      </trkpt>
      <trkpt lat="42.8236" lon="2.03405">
        <ele>890.2</ele>
        <time>2024-10-11T13:48:33Z</time>
      </trkpt>
      <trkpt lat="42.82359" lon="2.03404">
        <ele>890.2</ele>
        <time>2024-10-11T13:48:34Z</time>
      </trkpt>
      <trkpt lat="42.82357" lon="2.03399">
        <ele>890.2</ele>
        <time>2024-10-11T13:48:35Z</time>
      </trkpt>
      <trkpt lat="42.82357" lon="2.03398">
        <ele>890.8</ele>
        <time>2024-10-11T13:48:36Z</time>
      </trkpt>
      <trkpt lat="42.82355" lon="2.03395">
        <ele>891</ele>
        <time>2024-10-11T13:48:37Z</time>
      </trkpt>
      <trkpt lat="42.82353" lon="2.03391">
        <ele>891</ele>
        <time>2024-10-11T13:48:38Z</time>
      </trkpt>
      <trkpt lat="42.82352" lon="2.03389">
        <ele>891</ele>
        <time>2024-10-11T13:48:39Z</time>
      </trkpt>
      <trkpt lat="42.8235" lon="2.03385">
        <ele>891</ele>
        <time>2024-10-11T13:48:40Z</time>
      </trkpt>
      <trkpt lat="42.82349" lon="2.03383">
        <ele>891.6</ele>
        <time>2024-10-11T13:48:41Z</time>
      </trkpt>
      <trkpt lat="42.82346" lon="2.03379">
        <ele>891.6</ele>
        <time>2024-10-11T13:48:42Z</time>
      </trkpt>
      <trkpt lat="42.82345" lon="2.03378">
        <ele>891.6</ele>
        <time>2024-10-11T13:48:43Z</time>
      </trkpt>
      <trkpt lat="42.82343" lon="2.03376">
        <ele>891.6</ele>
        <time>2024-10-11T13:48:44Z</time>
      </trkpt>
      <trkpt lat="42.82339" lon="2.03372">
        <ele>892</ele>
        <time>2024-10-11T13:48:45Z</time>
      </trkpt>
      <trkpt lat="42.82338" lon="2.0337">
        <ele>892</ele>
        <time>2024-10-11T13:48:46Z</time>
      </trkpt>
      <trkpt lat="42.82334" lon="2.03367">
        <ele>892</ele>
        <time>2024-10-11T13:48:47Z</time>
      </trkpt>
      <trkpt lat="42.82333" lon="2.03365">
        <ele>892</ele>
        <time>2024-10-11T13:48:48Z</time>
      </trkpt>
      <trkpt lat="42.82331" lon="2.03363">
        <ele>892.4</ele>
        <time>2024-10-11T13:48:49Z</time>
      </trkpt>
      <trkpt lat="42.82329" lon="2.0336">
        <ele>892.4</ele>
        <time>2024-10-11T13:48:50Z</time>
      </trkpt>
      <trkpt lat="42.82327" lon="2.03357">
        <ele>892.4</ele>
        <time>2024-10-11T13:48:51Z</time>
      </trkpt>
      <trkpt lat="42.82324" lon="2.03352">
        <ele>892.4</ele>
        <time>2024-10-11T13:48:52Z</time>
      </trkpt>
      <trkpt lat="42.82324" lon="2.03351">
        <ele>892.4</ele>
        <time>2024-10-11T13:48:53Z</time>
      </trkpt>
      <trkpt lat="42.82321" lon="2.03346">
        <ele>893</ele>
        <time>2024-10-11T13:48:54Z</time>
      </trkpt>
      <trkpt lat="42.8232" lon="2.03344">
        <ele>893</ele>
        <time>2024-10-11T13:48:55Z</time>
      </trkpt>
      <trkpt lat="42.82318" lon="2.03339">
        <ele>893</ele>
        <time>2024-10-11T13:48:56Z</time>
      </trkpt>
      <trkpt lat="42.82317" lon="2.03337">
        <ele>893</ele>
        <time>2024-10-11T13:48:57Z</time>
      </trkpt>
      <trkpt lat="42.82315" lon="2.03332">
        <ele>893.4</ele>
        <time>2024-10-11T13:48:58Z</time>
      </trkpt>
      <trkpt lat="42.82315" lon="2.0333">
        <ele>893.8</ele>
        <time>2024-10-11T13:48:59Z</time>
      </trkpt>
      <trkpt lat="42.82313" lon="2.03324">
        <ele>893.8</ele>
        <time>2024-10-11T13:49:00Z</time>
      </trkpt>
      <trkpt lat="42.82313" lon="2.03323">
        <ele>893.8</ele>
        <time>2024-10-11T13:49:01Z</time>
      </trkpt>
      <trkpt lat="42.82312" lon="2.03319">
        <ele>893.8</ele>
        <time>2024-10-11T13:49:02Z</time>
      </trkpt>
      <trkpt lat="42.82312" lon="2.03315">
        <ele>893.8</ele>
        <time>2024-10-11T13:49:03Z</time>
      </trkpt>
      <trkpt lat="42.82311" lon="2.0331">
        <ele>894.2</ele>
        <time>2024-10-11T13:49:04Z</time>
      </trkpt>
      <trkpt lat="42.82311" lon="2.03308">
        <ele>894.2</ele>
        <time>2024-10-11T13:49:05Z</time>
      </trkpt>
      <trkpt lat="42.82311" lon="2.03303">
        <ele>894.2</ele>
        <time>2024-10-11T13:49:06Z</time>
      </trkpt>
      <trkpt lat="42.82311" lon="2.03301">
        <ele>894.2</ele>
        <time>2024-10-11T13:49:07Z</time>
      </trkpt>
      <trkpt lat="42.8231" lon="2.03296">
        <ele>894.8</ele>
        <time>2024-10-11T13:49:08Z</time>
      </trkpt>
      <trkpt lat="42.8231" lon="2.03294">
        <ele>895</ele>
        <time>2024-10-11T13:49:09Z</time>
      </trkpt>
      <trkpt lat="42.8231" lon="2.03288">
        <ele>895</ele>
        <time>2024-10-11T13:49:10Z</time>
      </trkpt>
      <trkpt lat="42.82311" lon="2.03286">
        <ele>895</ele>
        <time>2024-10-11T13:49:11Z</time>
      </trkpt>
      <trkpt lat="42.82311" lon="2.03281">
        <ele>895.4</ele>
        <time>2024-10-11T13:49:12Z</time>
      </trkpt>
      <trkpt lat="42.82311" lon="2.03279">
        <ele>895.8</ele>
        <time>2024-10-11T13:49:13Z</time>
      </trkpt>
      <trkpt lat="42.82311" lon="2.03275">
        <ele>895.8</ele>
        <time>2024-10-11T13:49:14Z</time>
      </trkpt>
      <trkpt lat="42.82311" lon="2.03269">
        <ele>895.8</ele>
        <time>2024-10-11T13:49:15Z</time>
      </trkpt>
      <trkpt lat="42.82311" lon="2.03268">
        <ele>896.4</ele>
        <time>2024-10-11T13:49:16Z</time>
      </trkpt>
      <trkpt lat="42.82311" lon="2.03262">
        <ele>896.6</ele>
        <time>2024-10-11T13:49:17Z</time>
      </trkpt>
      <trkpt lat="42.82312" lon="2.0326">
        <ele>896.6</ele>
        <time>2024-10-11T13:49:18Z</time>
      </trkpt>
      <trkpt lat="42.82312" lon="2.03255">
        <ele>896.6</ele>
        <time>2024-10-11T13:49:19Z</time>
      </trkpt>
      <trkpt lat="42.82312" lon="2.03253">
        <ele>896.6</ele>
        <time>2024-10-11T13:49:20Z</time>
      </trkpt>
      <trkpt lat="42.82312" lon="2.03249">
        <ele>897</ele>
        <time>2024-10-11T13:49:21Z</time>
      </trkpt>
      <trkpt lat="42.82311" lon="2.03244">
        <ele>897.4</ele>
        <time>2024-10-11T13:49:22Z</time>
      </trkpt>
      <trkpt lat="42.82311" lon="2.03242">
        <ele>897.4</ele>
        <time>2024-10-11T13:49:23Z</time>
      </trkpt>
      <trkpt lat="42.82311" lon="2.03236">
        <ele>897.4</ele>
        <time>2024-10-11T13:49:24Z</time>
      </trkpt>
      <trkpt lat="42.82311" lon="2.03234">
        <ele>897.8</ele>
        <time>2024-10-11T13:49:25Z</time>
      </trkpt>
      <trkpt lat="42.82311" lon="2.03231">
        <ele>898.2</ele>
        <time>2024-10-11T13:49:26Z</time>
      </trkpt>
      <trkpt lat="42.82311" lon="2.03225">
        <ele>898.2</ele>
        <time>2024-10-11T13:49:27Z</time>
      </trkpt>
      <trkpt lat="42.82311" lon="2.03223">
        <ele>898.2</ele>
        <time>2024-10-11T13:49:28Z</time>
      </trkpt>
      <trkpt lat="42.82311" lon="2.03218">
        <ele>898.8</ele>
        <time>2024-10-11T13:49:29Z</time>
      </trkpt>
      <trkpt lat="42.82311" lon="2.03216">
        <ele>899</ele>
        <time>2024-10-11T13:49:30Z</time>
      </trkpt>
      <trkpt lat="42.8231" lon="2.03211">
        <ele>899</ele>
        <time>2024-10-11T13:49:31Z</time>
      </trkpt>
      <trkpt lat="42.8231" lon="2.03209">
        <ele>899</ele>
        <time>2024-10-11T13:49:32Z</time>
      </trkpt>
      <trkpt lat="42.82309" lon="2.03205">
        <ele>899</ele>
        <time>2024-10-11T13:49:33Z</time>
      </trkpt>
      <trkpt lat="42.82309" lon="2.03201">
        <ele>899.8</ele>
        <time>2024-10-11T13:49:34Z</time>
      </trkpt>
      <trkpt lat="42.82308" lon="2.03198">
        <ele>899.8</ele>
        <time>2024-10-11T13:49:35Z</time>
      </trkpt>
      <trkpt lat="42.82306" lon="2.03192">
        <ele>899.8</ele>
        <time>2024-10-11T13:49:36Z</time>
      </trkpt>
      <trkpt lat="42.82306" lon="2.0319">
        <ele>899.8</ele>
        <time>2024-10-11T13:49:37Z</time>
      </trkpt>
      <trkpt lat="42.82304" lon="2.03185">
        <ele>900.2</ele>
        <time>2024-10-11T13:49:38Z</time>
      </trkpt>
      <trkpt lat="42.82303" lon="2.03183">
        <ele>900.2</ele>
        <time>2024-10-11T13:49:39Z</time>
      </trkpt>
      <trkpt lat="42.82301" lon="2.03179">
        <ele>900.4</ele>
        <time>2024-10-11T13:49:40Z</time>
      </trkpt>
      <trkpt lat="42.82301" lon="2.03177">
        <ele>900.4</ele>
        <time>2024-10-11T13:49:41Z</time>
      </trkpt>
      <trkpt lat="42.82298" lon="2.03173">
        <ele>901.4</ele>
        <time>2024-10-11T13:49:42Z</time>
      </trkpt>
      <trkpt lat="42.82297" lon="2.03172">
        <ele>901.4</ele>
        <time>2024-10-11T13:49:43Z</time>
      </trkpt>
      <trkpt lat="42.82295" lon="2.03169">
        <ele>901.4</ele>
        <time>2024-10-11T13:49:44Z</time>
      </trkpt>
      <trkpt lat="42.82292" lon="2.03165">
        <ele>901.4</ele>
        <time>2024-10-11T13:49:45Z</time>
      </trkpt>
      <trkpt lat="42.82291" lon="2.03164">
        <ele>901.4</ele>
        <time>2024-10-11T13:49:46Z</time>
      </trkpt>
      <trkpt lat="42.82289" lon="2.03161">
        <ele>901.4</ele>
        <time>2024-10-11T13:49:47Z</time>
      </trkpt>
      <trkpt lat="42.82287" lon="2.03158">
        <ele>901.8</ele>
        <time>2024-10-11T13:49:48Z</time>
      </trkpt>
      <trkpt lat="42.82285" lon="2.03155">
        <ele>902.2</ele>
        <time>2024-10-11T13:49:49Z</time>
      </trkpt>
      <trkpt lat="42.82282" lon="2.03151">
        <ele>902.2</ele>
        <time>2024-10-11T13:49:50Z</time>
      </trkpt>
      <trkpt lat="42.82281" lon="2.0315">
        <ele>902.2</ele>
        <time>2024-10-11T13:49:51Z</time>
      </trkpt>
      <trkpt lat="42.82278" lon="2.03147">
        <ele>902.6</ele>
        <time>2024-10-11T13:49:52Z</time>
      </trkpt>
      <trkpt lat="42.82277" lon="2.03145">
        <ele>902.8</ele>
        <time>2024-10-11T13:49:53Z</time>
      </trkpt>
      <trkpt lat="42.82275" lon="2.03143">
        <ele>902.8</ele>
        <time>2024-10-11T13:49:54Z</time>
      </trkpt>
      <trkpt lat="42.82272" lon="2.03139">
        <ele>902.8</ele>
        <time>2024-10-11T13:49:55Z</time>
      </trkpt>
      <trkpt lat="42.82271" lon="2.03137">
        <ele>902.8</ele>
        <time>2024-10-11T13:49:56Z</time>
      </trkpt>
      <trkpt lat="42.82269" lon="2.03135">
        <ele>903.4</ele>
        <time>2024-10-11T13:49:57Z</time>
      </trkpt>
      <trkpt lat="42.82266" lon="2.0313">
        <ele>903.4</ele>
        <time>2024-10-11T13:49:58Z</time>
      </trkpt>
      <trkpt lat="42.82265" lon="2.03129">
        <ele>903.4</ele>
        <time>2024-10-11T13:49:59Z</time>
      </trkpt>
      <trkpt lat="42.82262" lon="2.03125">
        <ele>903.4</ele>
        <time>2024-10-11T13:50:00Z</time>
      </trkpt>
      <trkpt lat="42.82261" lon="2.03124">
        <ele>904</ele>
        <time>2024-10-11T13:50:01Z</time>
      </trkpt>
      <trkpt lat="42.82259" lon="2.03121">
        <ele>904</ele>
        <time>2024-10-11T13:50:02Z</time>
      </trkpt>
      <trkpt lat="42.82256" lon="2.03117">
        <ele>904</ele>
        <time>2024-10-11T13:50:03Z</time>
      </trkpt>
      <trkpt lat="42.82255" lon="2.03116">
        <ele>904</ele>
        <time>2024-10-11T13:50:04Z</time>
      </trkpt>
      <trkpt lat="42.82252" lon="2.03112">
        <ele>904</ele>
        <time>2024-10-11T13:50:05Z</time>
      </trkpt>
      <trkpt lat="42.82251" lon="2.0311">
        <ele>904.6</ele>
        <time>2024-10-11T13:50:06Z</time>
      </trkpt>
      <trkpt lat="42.82248" lon="2.03106">
        <ele>904.8</ele>
        <time>2024-10-11T13:50:07Z</time>
      </trkpt>
      <trkpt lat="42.82247" lon="2.03105">
        <ele>904.8</ele>
        <time>2024-10-11T13:50:08Z</time>
      </trkpt>
      <trkpt lat="42.82245" lon="2.03102">
        <ele>904.8</ele>
        <time>2024-10-11T13:50:09Z</time>
      </trkpt>
      <trkpt lat="42.82242" lon="2.03098">
        <ele>905.2</ele>
        <time>2024-10-11T13:50:10Z</time>
      </trkpt>
      <trkpt lat="42.8224" lon="2.03097">
        <ele>905.6</ele>
        <time>2024-10-11T13:50:11Z</time>
      </trkpt>
      <trkpt lat="42.82238" lon="2.03094">
        <ele>905.6</ele>
        <time>2024-10-11T13:50:12Z</time>
      </trkpt>
      <trkpt lat="42.82236" lon="2.03091">
        <ele>905.6</ele>
        <time>2024-10-11T13:50:13Z</time>
      </trkpt>
      <trkpt lat="42.82234" lon="2.03089">
        <ele>906.2</ele>
        <time>2024-10-11T13:50:14Z</time>
      </trkpt>
      <trkpt lat="42.82232" lon="2.03086">
        <ele>906.2</ele>
        <time>2024-10-11T13:50:15Z</time>
      </trkpt>
      <trkpt lat="42.82229" lon="2.03083">
        <ele>906.4</ele>
        <time>2024-10-11T13:50:16Z</time>
      </trkpt>
      <trkpt lat="42.82227" lon="2.03082">
        <ele>906.4</ele>
        <time>2024-10-11T13:50:17Z</time>
      </trkpt>
      <trkpt lat="42.82224" lon="2.03079">
        <ele>906.4</ele>
        <time>2024-10-11T13:50:18Z</time>
      </trkpt>
      <trkpt lat="42.82223" lon="2.03078">
        <ele>906.4</ele>
        <time>2024-10-11T13:50:19Z</time>
      </trkpt>
      <trkpt lat="42.82219" lon="2.03075">
        <ele>907</ele>
        <time>2024-10-11T13:50:20Z</time>
      </trkpt>
      <trkpt lat="42.82218" lon="2.03074">
        <ele>907</ele>
        <time>2024-10-11T13:50:21Z</time>
      </trkpt>
      <trkpt lat="42.82216" lon="2.03073">
        <ele>907</ele>
        <time>2024-10-11T13:50:22Z</time>
      </trkpt>
      <trkpt lat="42.82212" lon="2.0307">
        <ele>907.4</ele>
        <time>2024-10-11T13:50:23Z</time>
      </trkpt>
      <trkpt lat="42.82211" lon="2.03069">
        <ele>907.6</ele>
        <time>2024-10-11T13:50:24Z</time>
      </trkpt>
      <trkpt lat="42.82207" lon="2.03067">
        <ele>907.6</ele>
        <time>2024-10-11T13:50:25Z</time>
      </trkpt>
      <trkpt lat="42.82205" lon="2.03066">
        <ele>907.6</ele>
        <time>2024-10-11T13:50:26Z</time>
      </trkpt>
      <trkpt lat="42.82202" lon="2.03063">
        <ele>907.6</ele>
        <time>2024-10-11T13:50:27Z</time>
      </trkpt>
      <trkpt lat="42.822" lon="2.03062">
        <ele>908.4</ele>
        <time>2024-10-11T13:50:28Z</time>
      </trkpt>
      <trkpt lat="42.82197" lon="2.03059">
        <ele>908.4</ele>
        <time>2024-10-11T13:50:29Z</time>
      </trkpt>
      <trkpt lat="42.82196" lon="2.03058">
        <ele>908.4</ele>
        <time>2024-10-11T13:50:30Z</time>
      </trkpt>
      <trkpt lat="42.82192" lon="2.03055">
        <ele>908.4</ele>
        <time>2024-10-11T13:50:31Z</time>
      </trkpt>
      <trkpt lat="42.82191" lon="2.03054">
        <ele>908.4</ele>
        <time>2024-10-11T13:50:32Z</time>
      </trkpt>
      <trkpt lat="42.82187" lon="2.03051">
        <ele>908.8</ele>
        <time>2024-10-11T13:50:33Z</time>
      </trkpt>
      <trkpt lat="42.82186" lon="2.03049">
        <ele>908.8</ele>
        <time>2024-10-11T13:50:34Z</time>
      </trkpt>
      <trkpt lat="42.82183" lon="2.03045">
        <ele>908.8</ele>
        <time>2024-10-11T13:50:35Z</time>
      </trkpt>
      <trkpt lat="42.82182" lon="2.03044">
        <ele>908.8</ele>
        <time>2024-10-11T13:50:36Z</time>
      </trkpt>
      <trkpt lat="42.8218" lon="2.03041">
        <ele>908.8</ele>
        <time>2024-10-11T13:50:37Z</time>
      </trkpt>
      <trkpt lat="42.82177" lon="2.03036">
        <ele>909.4</ele>
        <time>2024-10-11T13:50:38Z</time>
      </trkpt>
      <trkpt lat="42.82176" lon="2.03034">
        <ele>909.4</ele>
        <time>2024-10-11T13:50:39Z</time>
      </trkpt>
      <trkpt lat="42.82175" lon="2.03031">
        <ele>909.4</ele>
        <time>2024-10-11T13:50:40Z</time>
      </trkpt>
      <trkpt lat="42.82173" lon="2.03026">
        <ele>909.4</ele>
        <time>2024-10-11T13:50:41Z</time>
      </trkpt>
      <trkpt lat="42.82172" lon="2.03024">
        <ele>910.2</ele>
        <time>2024-10-11T13:50:42Z</time>
      </trkpt>
      <trkpt lat="42.82171" lon="2.03019">
        <ele>910.4</ele>
        <time>2024-10-11T13:50:43Z</time>
      </trkpt>
      <trkpt lat="42.8217" lon="2.03017">
        <ele>910.4</ele>
        <time>2024-10-11T13:50:44Z</time>
      </trkpt>
      <trkpt lat="42.82169" lon="2.03011">
        <ele>910.4</ele>
        <time>2024-10-11T13:50:45Z</time>
      </trkpt>
      <trkpt lat="42.82168" lon="2.03009">
        <ele>910.8</ele>
        <time>2024-10-11T13:50:46Z</time>
      </trkpt>
      <trkpt lat="42.82167" lon="2.03005">
        <ele>911</ele>
        <time>2024-10-11T13:50:47Z</time>
      </trkpt>
      <trkpt lat="42.82166" lon="2.02999">
        <ele>911</ele>
        <time>2024-10-11T13:50:48Z</time>
      </trkpt>
      <trkpt lat="42.82165" lon="2.02997">
        <ele>911</ele>
        <time>2024-10-11T13:50:49Z</time>
      </trkpt>
      <trkpt lat="42.82164" lon="2.02991">
        <ele>911</ele>
        <time>2024-10-11T13:50:50Z</time>
      </trkpt>
      <trkpt lat="42.82164" lon="2.02989">
        <ele>911.2</ele>
        <time>2024-10-11T13:50:51Z</time>
      </trkpt>
      <trkpt lat="42.82163" lon="2.02985">
        <ele>911.4</ele>
        <time>2024-10-11T13:50:52Z</time>
      </trkpt>
      <trkpt lat="42.82161" lon="2.02978">
        <ele>911.4</ele>
        <time>2024-10-11T13:50:53Z</time>
      </trkpt>
      <trkpt lat="42.82161" lon="2.02976">
        <ele>911.4</ele>
        <time>2024-10-11T13:50:54Z</time>
      </trkpt>
      <trkpt lat="42.8216" lon="2.02972">
        <ele>911.4</ele>
        <time>2024-10-11T13:50:55Z</time>
      </trkpt>
      <trkpt lat="42.82158" lon="2.02968">
        <ele>912</ele>
        <time>2024-10-11T13:50:56Z</time>
      </trkpt>
      <trkpt lat="42.82157" lon="2.02964">
        <ele>912</ele>
        <time>2024-10-11T13:50:57Z</time>
      </trkpt>
      <trkpt lat="42.82156" lon="2.02961">
        <ele>912</ele>
        <time>2024-10-11T13:50:58Z</time>
      </trkpt>
      <trkpt lat="42.82154" lon="2.02955">
        <ele>912</ele>
        <time>2024-10-11T13:50:59Z</time>
      </trkpt>
      <trkpt lat="42.82153" lon="2.02953">
        <ele>912</ele>
        <time>2024-10-11T13:51:00Z</time>
      </trkpt>
      <trkpt lat="42.82151" lon="2.02947">
        <ele>912.6</ele>
        <time>2024-10-11T13:51:01Z</time>
      </trkpt>
      <trkpt lat="42.8215" lon="2.02945">
        <ele>912.6</ele>
        <time>2024-10-11T13:51:02Z</time>
      </trkpt>
      <trkpt lat="42.82147" lon="2.0294">
        <ele>912.6</ele>
        <time>2024-10-11T13:51:03Z</time>
      </trkpt>
      <trkpt lat="42.82146" lon="2.02939">
        <ele>913.2</ele>
        <time>2024-10-11T13:51:04Z</time>
      </trkpt>
      <trkpt lat="42.82142" lon="2.02935">
        <ele>913.2</ele>
        <time>2024-10-11T13:51:05Z</time>
      </trkpt>
      <trkpt lat="42.82141" lon="2.02934">
        <ele>913.2</ele>
        <time>2024-10-11T13:51:06Z</time>
      </trkpt>
      <trkpt lat="42.82139" lon="2.02931">
        <ele>913.2</ele>
        <time>2024-10-11T13:51:07Z</time>
      </trkpt>
      <trkpt lat="42.82135" lon="2.02927">
        <ele>913.6</ele>
        <time>2024-10-11T13:51:08Z</time>
      </trkpt>
      <trkpt lat="42.82134" lon="2.02926">
        <ele>913.6</ele>
        <time>2024-10-11T13:51:09Z</time>
      </trkpt>
      <trkpt lat="42.82132" lon="2.02923">
        <ele>913.8</ele>
        <time>2024-10-11T13:51:10Z</time>
      </trkpt>
      <trkpt lat="42.82128" lon="2.02919">
        <ele>913.8</ele>
        <time>2024-10-11T13:51:11Z</time>
      </trkpt>
      <trkpt lat="42.82127" lon="2.02917">
        <ele>913.8</ele>
        <time>2024-10-11T13:51:12Z</time>
      </trkpt>
      <trkpt lat="42.82124" lon="2.02915">
        <ele>913.8</ele>
        <time>2024-10-11T13:51:13Z</time>
      </trkpt>
      <trkpt lat="42.82121" lon="2.02912">
        <ele>914</ele>
        <time>2024-10-11T13:51:14Z</time>
      </trkpt>
      <trkpt lat="42.82119" lon="2.0291">
        <ele>914.2</ele>
        <time>2024-10-11T13:51:15Z</time>
      </trkpt>
      <trkpt lat="42.82115" lon="2.02905">
        <ele>914.2</ele>
        <time>2024-10-11T13:51:16Z</time>
      </trkpt>
      <trkpt lat="42.82113" lon="2.02904">
        <ele>914.2</ele>
        <time>2024-10-11T13:51:17Z</time>
      </trkpt>
      <trkpt lat="42.8211" lon="2.02899">
        <ele>914.8</ele>
        <time>2024-10-11T13:51:18Z</time>
      </trkpt>
      <trkpt lat="42.82109" lon="2.02898">
        <ele>914.8</ele>
        <time>2024-10-11T13:51:19Z</time>
      </trkpt>
      <trkpt lat="42.82107" lon="2.02895">
        <ele>914.8</ele>
        <time>2024-10-11T13:51:20Z</time>
      </trkpt>
      <trkpt lat="42.82104" lon="2.02889">
        <ele>914.8</ele>
        <time>2024-10-11T13:51:21Z</time>
      </trkpt>
      <trkpt lat="42.82103" lon="2.02887">
        <ele>914.8</ele>
        <time>2024-10-11T13:51:22Z</time>
      </trkpt>
      <trkpt lat="42.82101" lon="2.02881">
        <ele>915.2</ele>
        <time>2024-10-11T13:51:23Z</time>
      </trkpt>
      <trkpt lat="42.821" lon="2.02879">
        <ele>915</ele>
        <time>2024-10-11T13:51:24Z</time>
      </trkpt>
      <trkpt lat="42.82099" lon="2.02875">
        <ele>915</ele>
        <time>2024-10-11T13:51:25Z</time>
      </trkpt>
      <trkpt lat="42.82098" lon="2.02868">
        <ele>915</ele>
        <time>2024-10-11T13:51:26Z</time>
      </trkpt>
      <trkpt lat="42.82097" lon="2.02866">
        <ele>915.6</ele>
        <time>2024-10-11T13:51:27Z</time>
      </trkpt>
      <trkpt lat="42.82096" lon="2.02859">
        <ele>915.6</ele>
        <time>2024-10-11T13:51:28Z</time>
      </trkpt>
      <trkpt lat="42.82096" lon="2.02857">
        <ele>915.4</ele>
        <time>2024-10-11T13:51:29Z</time>
      </trkpt>
      <trkpt lat="42.82096" lon="2.02852">
        <ele>915.4</ele>
        <time>2024-10-11T13:51:30Z</time>
      </trkpt>
      <trkpt lat="42.82096" lon="2.02844">
        <ele>915.4</ele>
        <time>2024-10-11T13:51:31Z</time>
      </trkpt>
      <trkpt lat="42.82096" lon="2.02842">
        <ele>915.8</ele>
        <time>2024-10-11T13:51:32Z</time>
      </trkpt>
      <trkpt lat="42.82096" lon="2.02834">
        <ele>915.8</ele>
        <time>2024-10-11T13:51:33Z</time>
      </trkpt>
      <trkpt lat="42.82097" lon="2.02831">
        <ele>915.8</ele>
        <time>2024-10-11T13:51:34Z</time>
      </trkpt>
      <trkpt lat="42.82097" lon="2.02825">
        <ele>915.8</ele>
        <time>2024-10-11T13:51:35Z</time>
      </trkpt>
      <trkpt lat="42.82098" lon="2.02816">
        <ele>915</ele>
        <time>2024-10-11T13:51:36Z</time>
      </trkpt>
      <trkpt lat="42.82099" lon="2.02813">
        <ele>915.2</ele>
        <time>2024-10-11T13:51:37Z</time>
      </trkpt>
      <trkpt lat="42.821" lon="2.02806">
        <ele>915.2</ele>
        <time>2024-10-11T13:51:38Z</time>
      </trkpt>
      <trkpt lat="42.821" lon="2.02799">
        <ele>915.2</ele>
        <time>2024-10-11T13:51:39Z</time>
      </trkpt>
      <trkpt lat="42.82101" lon="2.02789">
        <ele>915.2</ele>
        <time>2024-10-11T13:51:40Z</time>
      </trkpt>
      <trkpt lat="42.82101" lon="2.02785">
        <ele>915.2</ele>
        <time>2024-10-11T13:51:41Z</time>
      </trkpt>
      <trkpt lat="42.82101" lon="2.02775">
        <ele>914.8</ele>
        <time>2024-10-11T13:51:42Z</time>
      </trkpt>
      <trkpt lat="42.82101" lon="2.02771">
        <ele>914.8</ele>
        <time>2024-10-11T13:51:43Z</time>
      </trkpt>
      <trkpt lat="42.82102" lon="2.0276">
        <ele>914.8</ele>
        <time>2024-10-11T13:51:44Z</time>
      </trkpt>
      <trkpt lat="42.82102" lon="2.02757">
        <ele>914.8</ele>
        <time>2024-10-11T13:51:45Z</time>
      </trkpt>
      <trkpt lat="42.82103" lon="2.02745">
        <ele>914.2</ele>
        <time>2024-10-11T13:51:46Z</time>
      </trkpt>
      <trkpt lat="42.82103" lon="2.02742">
        <ele>914.2</ele>
        <time>2024-10-11T13:51:47Z</time>
      </trkpt>
      <trkpt lat="42.82104" lon="2.0273">
        <ele>914.2</ele>
        <time>2024-10-11T13:51:48Z</time>
      </trkpt>
      <trkpt lat="42.82104" lon="2.02726">
        <ele>914.2</ele>
        <time>2024-10-11T13:51:49Z</time>
      </trkpt>
      <trkpt lat="42.82104" lon="2.02713">
        <ele>913.8</ele>
        <time>2024-10-11T13:51:50Z</time>
      </trkpt>
      <trkpt lat="42.82103" lon="2.02709">
        <ele>913.8</ele>
        <time>2024-10-11T13:51:51Z</time>
      </trkpt>
      <trkpt lat="42.82103" lon="2.02695">
        <ele>913.8</ele>
        <time>2024-10-11T13:51:52Z</time>
      </trkpt>
      <trkpt lat="42.82102" lon="2.02691">
        <ele>913.8</ele>
        <time>2024-10-11T13:51:53Z</time>
      </trkpt>
      <trkpt lat="42.82101" lon="2.02681">
        <ele>912.8</ele>
        <time>2024-10-11T13:51:54Z</time>
      </trkpt>
      <trkpt lat="42.82099" lon="2.02666">
        <ele>912.8</ele>
        <time>2024-10-11T13:51:55Z</time>
      </trkpt>
      <trkpt lat="42.82099" lon="2.02661">
        <ele>912.4</ele>
        <time>2024-10-11T13:51:56Z</time>
      </trkpt>
      <trkpt lat="42.82097" lon="2.02652">
        <ele>912.4</ele>
        <time>2024-10-11T13:51:57Z</time>
      </trkpt>
      <trkpt lat="42.82094" lon="2.02636">
        <ele>912.4</ele>
        <time>2024-10-11T13:51:58Z</time>
      </trkpt>
      <trkpt lat="42.82094" lon="2.02631">
        <ele>911.4</ele>
        <time>2024-10-11T13:51:59Z</time>
      </trkpt>
      <trkpt lat="42.82092" lon="2.02616">
        <ele>910.4</ele>
        <time>2024-10-11T13:52:00Z</time>
      </trkpt>
      <trkpt lat="42.82092" lon="2.02611">
        <ele>910.4</ele>
        <time>2024-10-11T13:52:01Z</time>
      </trkpt>
      <trkpt lat="42.82091" lon="2.02601">
        <ele>910.4</ele>
        <time>2024-10-11T13:52:02Z</time>
      </trkpt>
      <trkpt lat="42.8209" lon="2.02585">
        <ele>910.2</ele>
        <time>2024-10-11T13:52:03Z</time>
      </trkpt>
      <trkpt lat="42.8209" lon="2.0258">
        <ele>909.2</ele>
        <time>2024-10-11T13:52:04Z</time>
      </trkpt>
      <trkpt lat="42.82089" lon="2.02565">
        <ele>909.2</ele>
        <time>2024-10-11T13:52:05Z</time>
      </trkpt>
      <trkpt lat="42.82089" lon="2.02559">
        <ele>909.2</ele>
        <time>2024-10-11T13:52:06Z</time>
      </trkpt>
      <trkpt lat="42.82089" lon="2.02544">
        <ele>909.2</ele>
        <time>2024-10-11T13:52:07Z</time>
      </trkpt>
      <trkpt lat="42.82089" lon="2.02539">
        <ele>908.4</ele>
        <time>2024-10-11T13:52:08Z</time>
      </trkpt>
      <trkpt lat="42.82089" lon="2.02524">
        <ele>908.4</ele>
        <time>2024-10-11T13:52:09Z</time>
      </trkpt>
      <trkpt lat="42.82089" lon="2.02519">
        <ele>908.2</ele>
        <time>2024-10-11T13:52:10Z</time>
      </trkpt>
      <trkpt lat="42.82089" lon="2.02509">
        <ele>908.2</ele>
        <time>2024-10-11T13:52:11Z</time>
      </trkpt>
      <trkpt lat="42.82089" lon="2.02495">
        <ele>908.2</ele>
        <time>2024-10-11T13:52:12Z</time>
      </trkpt>
      <trkpt lat="42.82089" lon="2.0249">
        <ele>907.4</ele>
        <time>2024-10-11T13:52:13Z</time>
      </trkpt>
      <trkpt lat="42.82089" lon="2.02475">
        <ele>907.4</ele>
        <time>2024-10-11T13:52:14Z</time>
      </trkpt>
      <trkpt lat="42.82089" lon="2.02471">
        <ele>907.4</ele>
        <time>2024-10-11T13:52:15Z</time>
      </trkpt>
      <trkpt lat="42.82089" lon="2.02458">
        <ele>907.4</ele>
        <time>2024-10-11T13:52:16Z</time>
      </trkpt>
      <trkpt lat="42.82089" lon="2.02454">
        <ele>907.4</ele>
        <time>2024-10-11T13:52:17Z</time>
      </trkpt>
      <trkpt lat="42.82089" lon="2.02446">
        <ele>907.2</ele>
        <time>2024-10-11T13:52:18Z</time>
      </trkpt>
      <trkpt lat="42.82088" lon="2.02434">
        <ele>907.2</ele>
        <time>2024-10-11T13:52:19Z</time>
      </trkpt>
      <trkpt lat="42.82088" lon="2.0243">
        <ele>907.2</ele>
        <time>2024-10-11T13:52:20Z</time>
      </trkpt>
      <trkpt lat="42.82088" lon="2.02421">
        <ele>907.2</ele>
        <time>2024-10-11T13:52:21Z</time>
      </trkpt>
      <trkpt lat="42.82087" lon="2.02409">
        <ele>906.6</ele>
        <time>2024-10-11T13:52:22Z</time>
      </trkpt>
      <trkpt lat="42.82087" lon="2.02405">
        <ele>906.6</ele>
        <time>2024-10-11T13:52:23Z</time>
      </trkpt>
      <trkpt lat="42.82087" lon="2.02394">
        <ele>906.6</ele>
        <time>2024-10-11T13:52:24Z</time>
      </trkpt>
      <trkpt lat="42.82087" lon="2.0239">
        <ele>906.6</ele>
        <time>2024-10-11T13:52:25Z</time>
      </trkpt>
      <trkpt lat="42.82086" lon="2.02379">
        <ele>906.6</ele>
        <time>2024-10-11T13:52:26Z</time>
      </trkpt>
      <trkpt lat="42.82086" lon="2.02375">
        <ele>906.6</ele>
        <time>2024-10-11T13:52:27Z</time>
      </trkpt>
      <trkpt lat="42.82086" lon="2.02364">
        <ele>906.6</ele>
        <time>2024-10-11T13:52:28Z</time>
      </trkpt>
      <trkpt lat="42.82086" lon="2.0236">
        <ele>906.6</ele>
        <time>2024-10-11T13:52:29Z</time>
      </trkpt>
      <trkpt lat="42.82086" lon="2.02349">
        <ele>906.6</ele>
        <time>2024-10-11T13:52:30Z</time>
      </trkpt>
      <trkpt lat="42.82087" lon="2.02344">
        <ele>906.6</ele>
        <time>2024-10-11T13:52:31Z</time>
      </trkpt>
      <trkpt lat="42.82087" lon="2.02336">
        <ele>906</ele>
        <time>2024-10-11T13:52:32Z</time>
      </trkpt>
      <trkpt lat="42.82088" lon="2.02324">
        <ele>906</ele>
        <time>2024-10-11T13:52:33Z</time>
      </trkpt>
      <trkpt lat="42.82089" lon="2.02319">
        <ele>906</ele>
        <time>2024-10-11T13:52:34Z</time>
      </trkpt>
      <trkpt lat="42.8209" lon="2.02311">
        <ele>906.4</ele>
        <time>2024-10-11T13:52:35Z</time>
      </trkpt>
      <trkpt lat="42.82093" lon="2.02299">
        <ele>906.4</ele>
        <time>2024-10-11T13:52:36Z</time>
      </trkpt>
      <trkpt lat="42.82093" lon="2.02295">
        <ele>906.4</ele>
        <time>2024-10-11T13:52:37Z</time>
      </trkpt>
      <trkpt lat="42.82096" lon="2.02283">
        <ele>906.4</ele>
        <time>2024-10-11T13:52:38Z</time>
      </trkpt>
      <trkpt lat="42.82097" lon="2.02279">
        <ele>906.4</ele>
        <time>2024-10-11T13:52:39Z</time>
      </trkpt>
      <trkpt lat="42.82099" lon="2.02271">
        <ele>905.8</ele>
        <time>2024-10-11T13:52:40Z</time>
      </trkpt>
      <trkpt lat="42.82102" lon="2.02259">
        <ele>905.8</ele>
        <time>2024-10-11T13:52:41Z</time>
      </trkpt>
      <trkpt lat="42.82103" lon="2.02256">
        <ele>905.8</ele>
        <time>2024-10-11T13:52:42Z</time>
      </trkpt>
      <trkpt lat="42.82105" lon="2.02245">
        <ele>905.8</ele>
        <time>2024-10-11T13:52:43Z</time>
      </trkpt>
      <trkpt lat="42.82106" lon="2.02241">
        <ele>905.8</ele>
        <time>2024-10-11T13:52:44Z</time>
      </trkpt>
      <trkpt lat="42.82109" lon="2.02234">
        <ele>905.8</ele>
        <time>2024-10-11T13:52:45Z</time>
      </trkpt>
      <trkpt lat="42.82111" lon="2.02232">
        <ele>905.8</ele>
        <time>2024-10-11T13:52:46Z</time>
      </trkpt>
      <trkpt lat="42.82114" lon="2.02228">
        <ele>905.8</ele>
        <time>2024-10-11T13:52:47Z</time>
      </trkpt>
      <trkpt lat="42.82117" lon="2.02223">
        <ele>905.8</ele>
        <time>2024-10-11T13:52:48Z</time>
      </trkpt>
      <trkpt lat="42.8212" lon="2.02214">
        <ele>905.8</ele>
        <time>2024-10-11T13:52:49Z</time>
      </trkpt>
      <trkpt lat="42.8212" lon="2.02211">
        <ele>905.8</ele>
        <time>2024-10-11T13:52:50Z</time>
      </trkpt>
      <trkpt lat="42.82123" lon="2.022">
        <ele>905.8</ele>
        <time>2024-10-11T13:52:51Z</time>
      </trkpt>
      <trkpt lat="42.82123" lon="2.02197">
        <ele>905.8</ele>
        <time>2024-10-11T13:52:52Z</time>
      </trkpt>
      <trkpt lat="42.82125" lon="2.02186">
        <ele>905.8</ele>
        <time>2024-10-11T13:52:53Z</time>
      </trkpt>
      <trkpt lat="42.82125" lon="2.02182">
        <ele>905.2</ele>
        <time>2024-10-11T13:52:54Z</time>
      </trkpt>
      <trkpt lat="42.82125" lon="2.02173">
        <ele>905.2</ele>
        <time>2024-10-11T13:52:55Z</time>
      </trkpt>
      <trkpt lat="42.82127" lon="2.02161">
        <ele>905.2</ele>
        <time>2024-10-11T13:52:56Z</time>
      </trkpt>
      <trkpt lat="42.82127" lon="2.02157">
        <ele>904.6</ele>
        <time>2024-10-11T13:52:57Z</time>
      </trkpt>
      <trkpt lat="42.82129" lon="2.02145">
        <ele>904.6</ele>
        <time>2024-10-11T13:52:58Z</time>
      </trkpt>
      <trkpt lat="42.8213" lon="2.02141">
        <ele>904</ele>
        <time>2024-10-11T13:52:59Z</time>
      </trkpt>
      <trkpt lat="42.82133" lon="2.0213">
        <ele>904</ele>
        <time>2024-10-11T13:53:00Z</time>
      </trkpt>
      <trkpt lat="42.82134" lon="2.02126">
        <ele>904</ele>
        <time>2024-10-11T13:53:01Z</time>
      </trkpt>
      <trkpt lat="42.82135" lon="2.02121">
        <ele>904</ele>
        <time>2024-10-11T13:53:02Z</time>
      </trkpt>
      <trkpt lat="42.82137" lon="2.02117">
        <ele>903.6</ele>
        <time>2024-10-11T13:53:03Z</time>
      </trkpt>
      <trkpt lat="42.82137" lon="2.02116">
        <ele>903.6</ele>
        <time>2024-10-11T13:53:04Z</time>
      </trkpt>
      <trkpt lat="42.82138" lon="2.02114">
        <ele>903.6</ele>
        <time>2024-10-11T13:53:05Z</time>
      </trkpt>
      <trkpt lat="42.8214" lon="2.02112">
        <ele>903</ele>
        <time>2024-10-11T13:53:06Z</time>
      </trkpt>
      <trkpt lat="42.82142" lon="2.02112">
        <ele>902.2</ele>
        <time>2024-10-11T13:53:07Z</time>
      </trkpt>
      <trkpt lat="42.82145" lon="2.02113">
        <ele>902.2</ele>
        <time>2024-10-11T13:53:08Z</time>
      </trkpt>
      <trkpt lat="42.82147" lon="2.02111">
        <ele>902.2</ele>
        <time>2024-10-11T13:53:09Z</time>
      </trkpt>
      <trkpt lat="42.82148" lon="2.0211">
        <ele>902.2</ele>
        <time>2024-10-11T13:53:10Z</time>
      </trkpt>
      <trkpt lat="42.82153" lon="2.02111">
        <ele>903</ele>
        <time>2024-10-11T13:53:11Z</time>
      </trkpt>
      <trkpt lat="42.82155" lon="2.02111">
        <ele>902.8</ele>
        <time>2024-10-11T13:53:12Z</time>
      </trkpt>
      <trkpt lat="42.8216" lon="2.0211">
        <ele>902.8</ele>
        <time>2024-10-11T13:53:13Z</time>
      </trkpt>
      <trkpt lat="42.82161" lon="2.02109">
        <ele>902.8</ele>
        <time>2024-10-11T13:53:14Z</time>
      </trkpt>
      <trkpt lat="42.82164" lon="2.02108">
        <ele>902.2</ele>
        <time>2024-10-11T13:53:15Z</time>
      </trkpt>
      <trkpt lat="42.82169" lon="2.02109">
        <ele>901.6</ele>
        <time>2024-10-11T13:53:16Z</time>
      </trkpt>
      <trkpt lat="42.82171" lon="2.02109">
        <ele>901.6</ele>
        <time>2024-10-11T13:53:17Z</time>
      </trkpt>
      <trkpt lat="42.82174" lon="2.0211">
        <ele>901.6</ele>
        <time>2024-10-11T13:53:18Z</time>
      </trkpt>
      <trkpt lat="42.82179" lon="2.0211">
        <ele>901.6</ele>
        <time>2024-10-11T13:53:19Z</time>
      </trkpt>
      <trkpt lat="42.82181" lon="2.0211">
        <ele>902</ele>
        <time>2024-10-11T13:53:20Z</time>
      </trkpt>
      <trkpt lat="42.82185" lon="2.0211">
        <ele>902</ele>
        <time>2024-10-11T13:53:21Z</time>
      </trkpt>
      <trkpt lat="42.8219" lon="2.0211">
        <ele>901.8</ele>
        <time>2024-10-11T13:53:22Z</time>
      </trkpt>
      <trkpt lat="42.82192" lon="2.0211">
        <ele>901.8</ele>
        <time>2024-10-11T13:53:23Z</time>
      </trkpt>
      <trkpt lat="42.82198" lon="2.0211">
        <ele>901.8</ele>
        <time>2024-10-11T13:53:24Z</time>
      </trkpt>
      <trkpt lat="42.82199" lon="2.0211">
        <ele>901.2</ele>
        <time>2024-10-11T13:53:25Z</time>
      </trkpt>
      <trkpt lat="42.82205" lon="2.02108">
        <ele>901.4</ele>
        <time>2024-10-11T13:53:26Z</time>
      </trkpt>
      <trkpt lat="42.82207" lon="2.02108">
        <ele>901.4</ele>
        <time>2024-10-11T13:53:27Z</time>
      </trkpt>
      <trkpt lat="42.82213" lon="2.02109">
        <ele>901.4</ele>
        <time>2024-10-11T13:53:28Z</time>
      </trkpt>
      <trkpt lat="42.82215" lon="2.02109">
        <ele>901.4</ele>
        <time>2024-10-11T13:53:29Z</time>
      </trkpt>
      <trkpt lat="42.82219" lon="2.0211">
        <ele>900.6</ele>
        <time>2024-10-11T13:53:30Z</time>
      </trkpt>
      <trkpt lat="42.82223" lon="2.0211">
        <ele>900.6</ele>
        <time>2024-10-11T13:53:31Z</time>
      </trkpt>
      <trkpt lat="42.82228" lon="2.02111">
        <ele>900.6</ele>
        <time>2024-10-11T13:53:32Z</time>
      </trkpt>
      <trkpt lat="42.82232" lon="2.02112">
        <ele>900.4</ele>
        <time>2024-10-11T13:53:33Z</time>
      </trkpt>
      <trkpt lat="42.82237" lon="2.02113">
        <ele>900.4</ele>
        <time>2024-10-11T13:53:34Z</time>
      </trkpt>
      <trkpt lat="42.82241" lon="2.02114">
        <ele>900.2</ele>
        <time>2024-10-11T13:53:35Z</time>
      </trkpt>
      <trkpt lat="42.82248" lon="2.02116">
        <ele>900.2</ele>
        <time>2024-10-11T13:53:36Z</time>
      </trkpt>
      <trkpt lat="42.8225" lon="2.02117">
        <ele>900.2</ele>
        <time>2024-10-11T13:53:37Z</time>
      </trkpt>
      <trkpt lat="42.82257" lon="2.0212">
        <ele>900.2</ele>
        <time>2024-10-11T13:53:38Z</time>
      </trkpt>
      <trkpt lat="42.82259" lon="2.02121">
        <ele>900.2</ele>
        <time>2024-10-11T13:53:39Z</time>
      </trkpt>
      <trkpt lat="42.82264" lon="2.02123">
        <ele>900.2</ele>
        <time>2024-10-11T13:53:40Z</time>
      </trkpt>
      <trkpt lat="42.8227" lon="2.02126">
        <ele>900.2</ele>
        <time>2024-10-11T13:53:41Z</time>
      </trkpt>
      <trkpt lat="42.82272" lon="2.02127">
        <ele>900</ele>
        <time>2024-10-11T13:53:42Z</time>
      </trkpt>
      <trkpt lat="42.82279" lon="2.02131">
        <ele>900</ele>
        <time>2024-10-11T13:53:43Z</time>
      </trkpt>
      <trkpt lat="42.82281" lon="2.02132">
        <ele>900</ele>
        <time>2024-10-11T13:53:44Z</time>
      </trkpt>
      <trkpt lat="42.82288" lon="2.02135">
        <ele>900</ele>
        <time>2024-10-11T13:53:45Z</time>
      </trkpt>
      <trkpt lat="42.8229" lon="2.02136">
        <ele>900</ele>
        <time>2024-10-11T13:53:46Z</time>
      </trkpt>
      <trkpt lat="42.82297" lon="2.02138">
        <ele>899.8</ele>
        <time>2024-10-11T13:53:47Z</time>
      </trkpt>
      <trkpt lat="42.823" lon="2.02139">
        <ele>899.8</ele>
        <time>2024-10-11T13:53:48Z</time>
      </trkpt>
      <trkpt lat="42.82305" lon="2.02141">
        <ele>899.8</ele>
        <time>2024-10-11T13:53:49Z</time>
      </trkpt>
      <trkpt lat="42.82309" lon="2.02142">
        <ele>899.8</ele>
        <time>2024-10-11T13:53:50Z</time>
      </trkpt>
      <trkpt lat="42.82314" lon="2.02144">
        <ele>900</ele>
        <time>2024-10-11T13:53:51Z</time>
      </trkpt>
      <trkpt lat="42.82319" lon="2.02145">
        <ele>900</ele>
        <time>2024-10-11T13:53:52Z</time>
      </trkpt>
      <trkpt lat="42.82325" lon="2.02148">
        <ele>900</ele>
        <time>2024-10-11T13:53:53Z</time>
      </trkpt>
      <trkpt lat="42.82327" lon="2.02149">
        <ele>900</ele>
        <time>2024-10-11T13:53:54Z</time>
      </trkpt>
      <trkpt lat="42.82334" lon="2.02151">
        <ele>900</ele>
        <time>2024-10-11T13:53:55Z</time>
      </trkpt>
      <trkpt lat="42.82336" lon="2.02151">
        <ele>900.2</ele>
        <time>2024-10-11T13:53:56Z</time>
      </trkpt>
      <trkpt lat="42.82342" lon="2.02153">
        <ele>900.2</ele>
        <time>2024-10-11T13:53:57Z</time>
      </trkpt>
      <trkpt lat="42.82344" lon="2.02153">
        <ele>900.2</ele>
        <time>2024-10-11T13:53:58Z</time>
      </trkpt>
      <trkpt lat="42.82348" lon="2.02154">
        <ele>900.2</ele>
        <time>2024-10-11T13:53:59Z</time>
      </trkpt>
      <trkpt lat="42.82354" lon="2.02156">
        <ele>900.2</ele>
        <time>2024-10-11T13:54:00Z</time>
      </trkpt>
      <trkpt lat="42.82356" lon="2.02156">
        <ele>900.2</ele>
        <time>2024-10-11T13:54:01Z</time>
      </trkpt>
      <trkpt lat="42.8236" lon="2.02158">
        <ele>900.2</ele>
        <time>2024-10-11T13:54:02Z</time>
      </trkpt>
      <trkpt lat="42.82366" lon="2.0216">
        <ele>900.2</ele>
        <time>2024-10-11T13:54:03Z</time>
      </trkpt>
      <trkpt lat="42.82368" lon="2.02161">
        <ele>900.2</ele>
        <time>2024-10-11T13:54:04Z</time>
      </trkpt>
      <trkpt lat="42.82374" lon="2.02164">
        <ele>900.4</ele>
        <time>2024-10-11T13:54:05Z</time>
      </trkpt>
      <trkpt lat="42.82376" lon="2.02165">
        <ele>900.4</ele>
        <time>2024-10-11T13:54:06Z</time>
      </trkpt>
      <trkpt lat="42.82381" lon="2.02167">
        <ele>900.4</ele>
        <time>2024-10-11T13:54:07Z</time>
      </trkpt>
      <trkpt lat="42.82383" lon="2.02167">
        <ele>900.4</ele>
        <time>2024-10-11T13:54:08Z</time>
      </trkpt>
      <trkpt lat="42.82389" lon="2.02169">
        <ele>900.8</ele>
        <time>2024-10-11T13:54:09Z</time>
      </trkpt>
      <trkpt lat="42.8239" lon="2.0217">
        <ele>900.8</ele>
        <time>2024-10-11T13:54:10Z</time>
      </trkpt>
      <trkpt lat="42.82396" lon="2.02173">
        <ele>900.8</ele>
        <time>2024-10-11T13:54:11Z</time>
      </trkpt>
      <trkpt lat="42.82398" lon="2.02174">
        <ele>900.8</ele>
        <time>2024-10-11T13:54:12Z</time>
      </trkpt>
      <trkpt lat="42.82401" lon="2.02176">
        <ele>900.8</ele>
        <time>2024-10-11T13:54:13Z</time>
      </trkpt>
      <trkpt lat="42.82407" lon="2.02176">
        <ele>901.2</ele>
        <time>2024-10-11T13:54:14Z</time>
      </trkpt>
      <trkpt lat="42.82409" lon="2.02175">
        <ele>901.2</ele>
        <time>2024-10-11T13:54:15Z</time>
      </trkpt>
      <trkpt lat="42.82412" lon="2.02173">
        <ele>901.2</ele>
        <time>2024-10-11T13:54:16Z</time>
      </trkpt>
      <trkpt lat="42.82416" lon="2.02167">
        <ele>901.2</ele>
        <time>2024-10-11T13:54:17Z</time>
      </trkpt>
      <trkpt lat="42.82417" lon="2.02166">
        <ele>901.4</ele>
        <time>2024-10-11T13:54:18Z</time>
      </trkpt>
      <trkpt lat="42.82419" lon="2.02158">
        <ele>901.4</ele>
        <time>2024-10-11T13:54:19Z</time>
      </trkpt>
      <trkpt lat="42.82419" lon="2.02155">
        <ele>901.4</ele>
        <time>2024-10-11T13:54:20Z</time>
      </trkpt>
      <trkpt lat="42.82421" lon="2.02151">
        <ele>901.4</ele>
        <time>2024-10-11T13:54:21Z</time>
      </trkpt>
      <trkpt lat="42.82422" lon="2.02144">
        <ele>901.4</ele>
        <time>2024-10-11T13:54:22Z</time>
      </trkpt>
      <trkpt lat="42.82422" lon="2.02142">
        <ele>902.6</ele>
        <time>2024-10-11T13:54:23Z</time>
      </trkpt>
      <trkpt lat="42.82423" lon="2.02137">
        <ele>902.6</ele>
        <time>2024-10-11T13:54:24Z</time>
      </trkpt>
      <trkpt lat="42.82423" lon="2.02133">
        <ele>902.6</ele>
        <time>2024-10-11T13:54:25Z</time>
      </trkpt>
      <trkpt lat="42.82423" lon="2.02128">
        <ele>902.6</ele>
        <time>2024-10-11T13:54:26Z</time>
      </trkpt>
      <trkpt lat="42.82424" lon="2.02122">
        <ele>902.4</ele>
        <time>2024-10-11T13:54:27Z</time>
      </trkpt>
      <trkpt lat="42.82424" lon="2.0212">
        <ele>902.8</ele>
        <time>2024-10-11T13:54:28Z</time>
      </trkpt>
      <trkpt lat="42.82425" lon="2.02116">
        <ele>902.8</ele>
        <time>2024-10-11T13:54:29Z</time>
      </trkpt>
      <trkpt lat="42.82427" lon="2.0211">
        <ele>902.8</ele>
        <time>2024-10-11T13:54:30Z</time>
      </trkpt>
      <trkpt lat="42.82427" lon="2.02109">
        <ele>902.8</ele>
        <time>2024-10-11T13:54:31Z</time>
      </trkpt>
      <trkpt lat="42.82428" lon="2.02103">
        <ele>903</ele>
        <time>2024-10-11T13:54:32Z</time>
      </trkpt>
      <trkpt lat="42.82429" lon="2.02101">
        <ele>903</ele>
        <time>2024-10-11T13:54:33Z</time>
      </trkpt>
      <trkpt lat="42.8243" lon="2.02094">
        <ele>903</ele>
        <time>2024-10-11T13:54:34Z</time>
      </trkpt>
      <trkpt lat="42.82431" lon="2.02092">
        <ele>903.2</ele>
        <time>2024-10-11T13:54:35Z</time>
      </trkpt>
      <trkpt lat="42.82432" lon="2.02087">
        <ele>903.2</ele>
        <time>2024-10-11T13:54:36Z</time>
      </trkpt>
      <trkpt lat="42.82433" lon="2.02079">
        <ele>903.4</ele>
        <time>2024-10-11T13:54:37Z</time>
      </trkpt>
      <trkpt lat="42.82434" lon="2.02076">
        <ele>903.4</ele>
        <time>2024-10-11T13:54:38Z</time>
      </trkpt>
      <trkpt lat="42.82435" lon="2.02067">
        <ele>903.4</ele>
        <time>2024-10-11T13:54:39Z</time>
      </trkpt>
      <trkpt lat="42.82436" lon="2.02064">
        <ele>903.2</ele>
        <time>2024-10-11T13:54:40Z</time>
      </trkpt>
      <trkpt lat="42.82437" lon="2.02058">
        <ele>903.4</ele>
        <time>2024-10-11T13:54:41Z</time>
      </trkpt>
      <trkpt lat="42.82438" lon="2.02049">
        <ele>903.4</ele>
        <time>2024-10-11T13:54:42Z</time>
      </trkpt>
      <trkpt lat="42.82439" lon="2.02046">
        <ele>903.4</ele>
        <time>2024-10-11T13:54:43Z</time>
      </trkpt>
      <trkpt lat="42.8244" lon="2.0204">
        <ele>903.6</ele>
        <time>2024-10-11T13:54:44Z</time>
      </trkpt>
      <trkpt lat="42.82442" lon="2.02031">
        <ele>903.6</ele>
        <time>2024-10-11T13:54:45Z</time>
      </trkpt>
      <trkpt lat="42.82443" lon="2.02028">
        <ele>903.6</ele>
        <time>2024-10-11T13:54:46Z</time>
      </trkpt>
      <trkpt lat="42.82445" lon="2.02018">
        <ele>903.6</ele>
        <time>2024-10-11T13:54:47Z</time>
      </trkpt>
      <trkpt lat="42.82445" lon="2.02015">
        <ele>903.6</ele>
        <time>2024-10-11T13:54:48Z</time>
      </trkpt>
      <trkpt lat="42.82447" lon="2.02005">
        <ele>903.6</ele>
        <time>2024-10-11T13:54:49Z</time>
      </trkpt>
      <trkpt lat="42.82448" lon="2.02001">
        <ele>903.8</ele>
        <time>2024-10-11T13:54:50Z</time>
      </trkpt>
      <trkpt lat="42.8245" lon="2.01991">
        <ele>903.6</ele>
        <time>2024-10-11T13:54:51Z</time>
      </trkpt>
      <trkpt lat="42.82451" lon="2.01988">
        <ele>903.6</ele>
        <time>2024-10-11T13:54:52Z</time>
      </trkpt>
      <trkpt lat="42.82453" lon="2.01981">
        <ele>903.6</ele>
        <time>2024-10-11T13:54:53Z</time>
      </trkpt>
      <trkpt lat="42.82454" lon="2.01975">
        <ele>903.6</ele>
        <time>2024-10-11T13:54:54Z</time>
      </trkpt>
      <trkpt lat="42.82456" lon="2.01965">
        <ele>904</ele>
        <time>2024-10-11T13:54:55Z</time>
      </trkpt>
      <trkpt lat="42.82457" lon="2.01962">
        <ele>904</ele>
        <time>2024-10-11T13:54:56Z</time>
      </trkpt>
      <trkpt lat="42.82458" lon="2.01956">
        <ele>904</ele>
        <time>2024-10-11T13:54:57Z</time>
      </trkpt>
      <trkpt lat="42.8246" lon="2.01949">
        <ele>903.8</ele>
        <time>2024-10-11T13:54:58Z</time>
      </trkpt>
      <trkpt lat="42.82462" lon="2.01939">
        <ele>903.8</ele>
        <time>2024-10-11T13:54:59Z</time>
      </trkpt>
      <trkpt lat="42.82463" lon="2.01936">
        <ele>903.8</ele>
        <time>2024-10-11T13:55:00Z</time>
      </trkpt>
      <trkpt lat="42.82465" lon="2.01926">
        <ele>903.8</ele>
        <time>2024-10-11T13:55:01Z</time>
      </trkpt>
      <trkpt lat="42.82466" lon="2.01922">
        <ele>903.8</ele>
        <time>2024-10-11T13:55:02Z</time>
      </trkpt>
      <trkpt lat="42.82468" lon="2.01912">
        <ele>903.8</ele>
        <time>2024-10-11T13:55:03Z</time>
      </trkpt>
      <trkpt lat="42.82469" lon="2.01909">
        <ele>903.8</ele>
        <time>2024-10-11T13:55:04Z</time>
      </trkpt>
      <trkpt lat="42.82471" lon="2.01899">
        <ele>903.8</ele>
        <time>2024-10-11T13:55:05Z</time>
      </trkpt>
      <trkpt lat="42.82472" lon="2.01895">
        <ele>903.8</ele>
        <time>2024-10-11T13:55:06Z</time>
      </trkpt>
      <trkpt lat="42.82474" lon="2.01885">
        <ele>903.8</ele>
        <time>2024-10-11T13:55:07Z</time>
      </trkpt>
      <trkpt lat="42.82475" lon="2.01882">
        <ele>903.6</ele>
        <time>2024-10-11T13:55:08Z</time>
      </trkpt>
      <trkpt lat="42.82477" lon="2.01871">
        <ele>903.6</ele>
        <time>2024-10-11T13:55:09Z</time>
      </trkpt>
      <trkpt lat="42.82478" lon="2.01868">
        <ele>903.6</ele>
        <time>2024-10-11T13:55:10Z</time>
      </trkpt>
      <trkpt lat="42.82479" lon="2.01861">
        <ele>903.6</ele>
        <time>2024-10-11T13:55:11Z</time>
      </trkpt>
      <trkpt lat="42.82482" lon="2.01851">
        <ele>903.6</ele>
        <time>2024-10-11T13:55:12Z</time>
      </trkpt>
      <trkpt lat="42.82482" lon="2.01847">
        <ele>903.6</ele>
        <time>2024-10-11T13:55:13Z</time>
      </trkpt>
      <trkpt lat="42.82484" lon="2.0184">
        <ele>903.6</ele>
        <time>2024-10-11T13:55:14Z</time>
      </trkpt>
      <trkpt lat="42.82486" lon="2.0183">
        <ele>903.6</ele>
        <time>2024-10-11T13:55:15Z</time>
      </trkpt>
      <trkpt lat="42.82487" lon="2.01827">
        <ele>903.6</ele>
        <time>2024-10-11T13:55:16Z</time>
      </trkpt>
      <trkpt lat="42.82488" lon="2.0182">
        <ele>903.6</ele>
        <time>2024-10-11T13:55:17Z</time>
      </trkpt>
      <trkpt lat="42.8249" lon="2.0181">
        <ele>903.4</ele>
        <time>2024-10-11T13:55:18Z</time>
      </trkpt>
      <trkpt lat="42.82491" lon="2.01806">
        <ele>903.4</ele>
        <time>2024-10-11T13:55:19Z</time>
      </trkpt>
      <trkpt lat="42.82493" lon="2.01796">
        <ele>903.4</ele>
        <time>2024-10-11T13:55:20Z</time>
      </trkpt>
      <trkpt lat="42.82494" lon="2.01793">
        <ele>903.4</ele>
        <time>2024-10-11T13:55:21Z</time>
      </trkpt>
      <trkpt lat="42.82496" lon="2.01782">
        <ele>903.4</ele>
        <time>2024-10-11T13:55:22Z</time>
      </trkpt>
      <trkpt lat="42.82497" lon="2.01779">
        <ele>903.4</ele>
        <time>2024-10-11T13:55:23Z</time>
      </trkpt>
      <trkpt lat="42.82499" lon="2.01769">
        <ele>903.4</ele>
        <time>2024-10-11T13:55:24Z</time>
      </trkpt>
      <trkpt lat="42.825" lon="2.01766">
        <ele>903.4</ele>
        <time>2024-10-11T13:55:25Z</time>
      </trkpt>
      <trkpt lat="42.82501" lon="2.01759">
        <ele>903.4</ele>
        <time>2024-10-11T13:55:26Z</time>
      </trkpt>
      <trkpt lat="42.82504" lon="2.01749">
        <ele>903.4</ele>
        <time>2024-10-11T13:55:27Z</time>
      </trkpt>
      <trkpt lat="42.82505" lon="2.01746">
        <ele>903.4</ele>
        <time>2024-10-11T13:55:28Z</time>
      </trkpt>
      <trkpt lat="42.82506" lon="2.01739">
        <ele>903.4</ele>
        <time>2024-10-11T13:55:29Z</time>
      </trkpt>
      <trkpt lat="42.82508" lon="2.01729">
        <ele>903.4</ele>
        <time>2024-10-11T13:55:30Z</time>
      </trkpt>
      <trkpt lat="42.82509" lon="2.01726">
        <ele>903.4</ele>
        <time>2024-10-11T13:55:31Z</time>
      </trkpt>
      <trkpt lat="42.82511" lon="2.01716">
        <ele>903.2</ele>
        <time>2024-10-11T13:55:32Z</time>
      </trkpt>
      <trkpt lat="42.82512" lon="2.01713">
        <ele>903.2</ele>
        <time>2024-10-11T13:55:33Z</time>
      </trkpt>
      <trkpt lat="42.82514" lon="2.01703">
        <ele>903.2</ele>
        <time>2024-10-11T13:55:34Z</time>
      </trkpt>
      <trkpt lat="42.82515" lon="2.017">
        <ele>903.4</ele>
        <time>2024-10-11T13:55:35Z</time>
      </trkpt>
      <trkpt lat="42.82516" lon="2.01693">
        <ele>903.6</ele>
        <time>2024-10-11T13:55:36Z</time>
      </trkpt>
      <trkpt lat="42.82518" lon="2.01683">
        <ele>903.6</ele>
        <time>2024-10-11T13:55:37Z</time>
      </trkpt>
      <trkpt lat="42.82519" lon="2.0168">
        <ele>903.6</ele>
        <time>2024-10-11T13:55:38Z</time>
      </trkpt>
      <trkpt lat="42.82521" lon="2.01673">
        <ele>903.6</ele>
        <time>2024-10-11T13:55:39Z</time>
      </trkpt>
      <trkpt lat="42.82523" lon="2.01664">
        <ele>903.8</ele>
        <time>2024-10-11T13:55:40Z</time>
      </trkpt>
      <trkpt lat="42.82524" lon="2.0166">
        <ele>903.8</ele>
        <time>2024-10-11T13:55:41Z</time>
      </trkpt>
      <trkpt lat="42.82525" lon="2.01654">
        <ele>903.8</ele>
        <time>2024-10-11T13:55:42Z</time>
      </trkpt>
      <trkpt lat="42.82527" lon="2.01644">
        <ele>903.8</ele>
        <time>2024-10-11T13:55:43Z</time>
      </trkpt>
      <trkpt lat="42.82528" lon="2.01641">
        <ele>903.8</ele>
        <time>2024-10-11T13:55:44Z</time>
      </trkpt>
      <trkpt lat="42.8253" lon="2.01631">
        <ele>903.8</ele>
        <time>2024-10-11T13:55:45Z</time>
      </trkpt>
      <trkpt lat="42.82531" lon="2.01628">
        <ele>903.8</ele>
        <time>2024-10-11T13:55:46Z</time>
      </trkpt>
      <trkpt lat="42.82533" lon="2.01619">
        <ele>903.8</ele>
        <time>2024-10-11T13:55:47Z</time>
      </trkpt>
      <trkpt lat="42.82533" lon="2.01616">
        <ele>904.2</ele>
        <time>2024-10-11T13:55:48Z</time>
      </trkpt>
      <trkpt lat="42.82535" lon="2.0161">
        <ele>904.2</ele>
        <time>2024-10-11T13:55:49Z</time>
      </trkpt>
      <trkpt lat="42.82537" lon="2.016">
        <ele>904.2</ele>
        <time>2024-10-11T13:55:50Z</time>
      </trkpt>
      <trkpt lat="42.82538" lon="2.01597">
        <ele>904.2</ele>
        <time>2024-10-11T13:55:51Z</time>
      </trkpt>
      <trkpt lat="42.8254" lon="2.01587">
        <ele>904.2</ele>
        <time>2024-10-11T13:55:52Z</time>
      </trkpt>
      <trkpt lat="42.82541" lon="2.01584">
        <ele>904.6</ele>
        <time>2024-10-11T13:55:53Z</time>
      </trkpt>
      <trkpt lat="42.82542" lon="2.01575">
        <ele>905</ele>
        <time>2024-10-11T13:55:54Z</time>
      </trkpt>
      <trkpt lat="42.82543" lon="2.01572">
        <ele>905</ele>
        <time>2024-10-11T13:55:55Z</time>
      </trkpt>
      <trkpt lat="42.82545" lon="2.01562">
        <ele>905</ele>
        <time>2024-10-11T13:55:56Z</time>
      </trkpt>
      <trkpt lat="42.82546" lon="2.01559">
        <ele>905</ele>
        <time>2024-10-11T13:55:57Z</time>
      </trkpt>
      <trkpt lat="42.82547" lon="2.01553">
        <ele>905</ele>
        <time>2024-10-11T13:55:58Z</time>
      </trkpt>
      <trkpt lat="42.82549" lon="2.01546">
        <ele>905.4</ele>
        <time>2024-10-11T13:55:59Z</time>
      </trkpt>
      <trkpt lat="42.8255" lon="2.0154">
        <ele>905.4</ele>
        <time>2024-10-11T13:56:00Z</time>
      </trkpt>
      <trkpt lat="42.82551" lon="2.01534">
        <ele>905.4</ele>
        <time>2024-10-11T13:56:01Z</time>
      </trkpt>
      <trkpt lat="42.82553" lon="2.01525">
        <ele>905.2</ele>
        <time>2024-10-11T13:56:02Z</time>
      </trkpt>
      <trkpt lat="42.82554" lon="2.01522">
        <ele>905.2</ele>
        <time>2024-10-11T13:56:03Z</time>
      </trkpt>
      <trkpt lat="42.82556" lon="2.01512">
        <ele>905.2</ele>
        <time>2024-10-11T13:56:04Z</time>
      </trkpt>
      <trkpt lat="42.82557" lon="2.01509">
        <ele>905.2</ele>
        <time>2024-10-11T13:56:05Z</time>
      </trkpt>
      <trkpt lat="42.82559" lon="2.015">
        <ele>905.2</ele>
        <time>2024-10-11T13:56:06Z</time>
      </trkpt>
      <trkpt lat="42.82559" lon="2.01497">
        <ele>906</ele>
        <time>2024-10-11T13:56:07Z</time>
      </trkpt>
      <trkpt lat="42.82561" lon="2.01491">
        <ele>906</ele>
        <time>2024-10-11T13:56:08Z</time>
      </trkpt>
      <trkpt lat="42.82563" lon="2.01483">
        <ele>906</ele>
        <time>2024-10-11T13:56:09Z</time>
      </trkpt>
      <trkpt lat="42.82563" lon="2.0148">
        <ele>906</ele>
        <time>2024-10-11T13:56:10Z</time>
      </trkpt>
      <trkpt lat="42.82565" lon="2.01471">
        <ele>905.8</ele>
        <time>2024-10-11T13:56:11Z</time>
      </trkpt>
      <trkpt lat="42.82566" lon="2.01468">
        <ele>905.8</ele>
        <time>2024-10-11T13:56:12Z</time>
      </trkpt>
      <trkpt lat="42.82567" lon="2.01462">
        <ele>905.8</ele>
        <time>2024-10-11T13:56:13Z</time>
      </trkpt>
      <trkpt lat="42.82569" lon="2.01453">
        <ele>905.8</ele>
        <time>2024-10-11T13:56:14Z</time>
      </trkpt>
      <trkpt lat="42.8257" lon="2.0145">
        <ele>905.8</ele>
        <time>2024-10-11T13:56:15Z</time>
      </trkpt>
      <trkpt lat="42.82572" lon="2.01441">
        <ele>905.8</ele>
        <time>2024-10-11T13:56:16Z</time>
      </trkpt>
      <trkpt lat="42.82572" lon="2.01438">
        <ele>906.2</ele>
        <time>2024-10-11T13:56:17Z</time>
      </trkpt>
      <trkpt lat="42.82574" lon="2.01429">
        <ele>906.2</ele>
        <time>2024-10-11T13:56:18Z</time>
      </trkpt>
      <trkpt lat="42.82575" lon="2.01426">
        <ele>906.2</ele>
        <time>2024-10-11T13:56:19Z</time>
      </trkpt>
      <trkpt lat="42.82576" lon="2.0142">
        <ele>906.6</ele>
        <time>2024-10-11T13:56:20Z</time>
      </trkpt>
      <trkpt lat="42.82578" lon="2.01414">
        <ele>906.6</ele>
        <time>2024-10-11T13:56:21Z</time>
      </trkpt>
      <trkpt lat="42.8258" lon="2.01405">
        <ele>906.8</ele>
        <time>2024-10-11T13:56:22Z</time>
      </trkpt>
      <trkpt lat="42.82581" lon="2.01402">
        <ele>906.8</ele>
        <time>2024-10-11T13:56:23Z</time>
      </trkpt>
      <trkpt lat="42.82582" lon="2.01395">
        <ele>906.8</ele>
        <time>2024-10-11T13:56:24Z</time>
      </trkpt>
      <trkpt lat="42.82583" lon="2.01389">
        <ele>907</ele>
        <time>2024-10-11T13:56:25Z</time>
      </trkpt>
      <trkpt lat="42.82585" lon="2.0138">
        <ele>907</ele>
        <time>2024-10-11T13:56:26Z</time>
      </trkpt>
      <trkpt lat="42.82586" lon="2.01377">
        <ele>907</ele>
        <time>2024-10-11T13:56:27Z</time>
      </trkpt>
      <trkpt lat="42.82588" lon="2.01369">
        <ele>907</ele>
        <time>2024-10-11T13:56:28Z</time>
      </trkpt>
      <trkpt lat="42.82588" lon="2.01366">
        <ele>907</ele>
        <time>2024-10-11T13:56:29Z</time>
      </trkpt>
      <trkpt lat="42.8259" lon="2.01357">
        <ele>907</ele>
        <time>2024-10-11T13:56:30Z</time>
      </trkpt>
      <trkpt lat="42.82591" lon="2.01354">
        <ele>907</ele>
        <time>2024-10-11T13:56:31Z</time>
      </trkpt>
      <trkpt lat="42.82592" lon="2.01348">
        <ele>907</ele>
        <time>2024-10-11T13:56:32Z</time>
      </trkpt>
      <trkpt lat="42.82594" lon="2.01339">
        <ele>907.2</ele>
        <time>2024-10-11T13:56:33Z</time>
      </trkpt>
      <trkpt lat="42.82595" lon="2.01337">
        <ele>907.2</ele>
        <time>2024-10-11T13:56:34Z</time>
      </trkpt>
      <trkpt lat="42.82596" lon="2.01327">
        <ele>907.2</ele>
        <time>2024-10-11T13:56:35Z</time>
      </trkpt>
      <trkpt lat="42.82597" lon="2.01324">
        <ele>907.2</ele>
        <time>2024-10-11T13:56:36Z</time>
      </trkpt>
      <trkpt lat="42.82598" lon="2.01316">
        <ele>907.2</ele>
        <time>2024-10-11T13:56:37Z</time>
      </trkpt>
      <trkpt lat="42.82599" lon="2.01313">
        <ele>907.8</ele>
        <time>2024-10-11T13:56:38Z</time>
      </trkpt>
      <trkpt lat="42.826" lon="2.01307">
        <ele>907.8</ele>
        <time>2024-10-11T13:56:39Z</time>
      </trkpt>
      <trkpt lat="42.82601" lon="2.01298">
        <ele>907.8</ele>
        <time>2024-10-11T13:56:40Z</time>
      </trkpt>
      <trkpt lat="42.82601" lon="2.01296">
        <ele>907.8</ele>
        <time>2024-10-11T13:56:41Z</time>
      </trkpt>
      <trkpt lat="42.826" lon="2.01287">
        <ele>908</ele>
        <time>2024-10-11T13:56:42Z</time>
      </trkpt>
      <trkpt lat="42.82599" lon="2.01284">
        <ele>907.4</ele>
        <time>2024-10-11T13:56:43Z</time>
      </trkpt>
      <trkpt lat="42.82596" lon="2.01276">
        <ele>907.4</ele>
        <time>2024-10-11T13:56:44Z</time>
      </trkpt>
      <trkpt lat="42.82594" lon="2.01274">
        <ele>907.4</ele>
        <time>2024-10-11T13:56:45Z</time>
      </trkpt>
      <trkpt lat="42.82591" lon="2.01269">
        <ele>907.4</ele>
        <time>2024-10-11T13:56:46Z</time>
      </trkpt>
      <trkpt lat="42.82585" lon="2.01264">
        <ele>906.6</ele>
        <time>2024-10-11T13:56:47Z</time>
      </trkpt>
      <trkpt lat="42.82583" lon="2.01262">
        <ele>906.6</ele>
        <time>2024-10-11T13:56:48Z</time>
      </trkpt>
      <trkpt lat="42.82578" lon="2.01255">
        <ele>906.6</ele>
        <time>2024-10-11T13:56:49Z</time>
      </trkpt>
      <trkpt lat="42.82577" lon="2.01253">
        <ele>906.6</ele>
        <time>2024-10-11T13:56:50Z</time>
      </trkpt>
      <trkpt lat="42.82575" lon="2.01249">
        <ele>907.6</ele>
        <time>2024-10-11T13:56:51Z</time>
      </trkpt>
      <trkpt lat="42.82572" lon="2.01244">
        <ele>907.6</ele>
        <time>2024-10-11T13:56:52Z</time>
      </trkpt>
      <trkpt lat="42.82571" lon="2.01242">
        <ele>907.6</ele>
        <time>2024-10-11T13:56:53Z</time>
      </trkpt>
      <trkpt lat="42.82569" lon="2.01238">
        <ele>907.6</ele>
        <time>2024-10-11T13:56:54Z</time>
      </trkpt>
      <trkpt lat="42.82568" lon="2.01234">
        <ele>908.2</ele>
        <time>2024-10-11T13:56:55Z</time>
      </trkpt>
      <trkpt lat="42.82567" lon="2.0123">
        <ele>908.4</ele>
        <time>2024-10-11T13:56:56Z</time>
      </trkpt>
      <trkpt lat="42.82566" lon="2.01224">
        <ele>908.4</ele>
        <time>2024-10-11T13:56:57Z</time>
      </trkpt>
      <trkpt lat="42.82566" lon="2.01223">
        <ele>908.4</ele>
        <time>2024-10-11T13:56:58Z</time>
      </trkpt>
      <trkpt lat="42.82565" lon="2.01217">
        <ele>908.4</ele>
        <time>2024-10-11T13:56:59Z</time>
      </trkpt>
      <trkpt lat="42.82565" lon="2.01215">
        <ele>908.2</ele>
        <time>2024-10-11T13:57:00Z</time>
      </trkpt>
      <trkpt lat="42.82565" lon="2.01211">
        <ele>907.8</ele>
        <time>2024-10-11T13:57:01Z</time>
      </trkpt>
      <trkpt lat="42.82565" lon="2.01205">
        <ele>907.8</ele>
        <time>2024-10-11T13:57:02Z</time>
      </trkpt>
      <trkpt lat="42.82565" lon="2.01203">
        <ele>907.8</ele>
        <time>2024-10-11T13:57:03Z</time>
      </trkpt>
      <trkpt lat="42.82566" lon="2.01198">
        <ele>907.8</ele>
        <time>2024-10-11T13:57:04Z</time>
      </trkpt>
      <trkpt lat="42.82566" lon="2.01197">
        <ele>907.8</ele>
        <time>2024-10-11T13:57:05Z</time>
      </trkpt>
      <trkpt lat="42.82567" lon="2.01194">
        <ele>907.8</ele>
        <time>2024-10-11T13:57:06Z</time>
      </trkpt>
      <trkpt lat="42.82567" lon="2.01191">
        <ele>907.8</ele>
        <time>2024-10-11T13:57:07Z</time>
      </trkpt>
      <trkpt lat="42.82568" lon="2.01189">
        <ele>907.8</ele>
        <time>2024-10-11T13:57:08Z</time>
      </trkpt>
      <trkpt lat="42.82569" lon="2.01187">
        <ele>907.6</ele>
        <time>2024-10-11T13:57:09Z</time>
      </trkpt>
      <trkpt lat="42.8257" lon="2.01186">
        <ele>907.6</ele>
        <time>2024-10-11T13:57:10Z</time>
      </trkpt>
      <trkpt lat="42.82571" lon="2.01186">
        <ele>907.6</ele>
        <time>2024-10-11T13:57:11Z</time>
      </trkpt>
      <trkpt lat="42.82571" lon="2.01186">
        <ele>907.6</ele>
        <time>2024-10-11T13:57:12Z</time>
      </trkpt>
      <trkpt lat="42.82571" lon="2.01186">
        <ele>907.6</ele>
        <time>2024-10-11T13:57:13Z</time>
      </trkpt>
    </trkseg>
  </trk>
</gpx>